
Distance (Route):
Temperature : 14.2°C
Humidity : 84.7%
Pressure : 967.2hPa| Receiver | Frames | First received | Last received |
|---|---|---|---|
| DK7TD | 728 | 2026-08-31 22:47:18 | 2026-09-01 01:09:16 |
| DO3MHA-12 | 337 | 2026-08-31 23:03:42 | 2026-09-01 01:21:12 |
| DM0DOS-11 | 328 | 2026-08-31 23:14:57 | 2026-09-01 00:57:14 |
| DO3MHA-11 | 320 | 2026-08-31 23:03:45 | 2026-09-01 01:21:15 |
| HSKMA3-T | 292 | 2026-08-31 23:44:48 | 2026-09-01 00:42:46 |
| BIOWL1-15 | 196 | 2026-08-31 23:13:19 | 2026-09-01 00:52:40 |
| DF8AY | 171 | 2026-08-31 23:57:10 | 2026-09-01 00:41:20 |
| DL1XH-west | 167 | 2026-09-01 00:06:48 | 2026-09-01 00:37:28 |
| DL1XH1-15 | 113 | 2026-09-01 00:07:12 | 2026-09-01 00:37:30 |
| DL1NUX | 94 | 2026-08-31 23:40:58 | 2026-09-01 00:56:09 |
| NBG1-10 | 89 | 2026-08-31 23:16:58 | 2026-09-01 01:20:19 |
| DB0NH | 84 | 2026-08-31 23:12:46 | 2026-09-01 01:19:22 |
| DJ8HS-15 | 77 | 2026-08-31 23:03:44 | 2026-09-01 00:58:08 |
| DB0UT-7 | 71 | 2026-08-31 23:16:01 | 2026-09-01 01:13:10 |
| DO9HM | 65 | 2026-08-31 23:24:04 | 2026-09-01 01:10:06 |
| DF3TZ-5 | 64 | 2026-08-31 22:46:11 | 2026-09-01 01:16:16 |
| DL6DJ-15 | 64 | 2026-08-31 23:12:43 | 2026-09-01 01:17:04 |
| DB0ND-19 | 63 | 2026-08-31 22:54:45 | 2026-09-01 01:15:57 |
| DF7PN | 60 | 2026-08-31 22:53:46 | 2026-09-01 01:09:55 |
| AZAK | 57 | 2026-08-31 22:45:35 | 2026-09-01 00:50:31 |
| DK5PH-5 | 55 | 2026-08-31 23:16:46 | 2026-09-01 01:13:24 |
| OE5DRO-10 | 54 | 2026-08-31 23:26:29 | 2026-09-01 00:57:21 |
| OE5DXL-15 | 52 | 2026-08-31 23:24:09 | 2026-09-01 00:58:09 |
| DM7RM-13 | 47 | 2026-08-31 23:03:35 | 2026-09-01 00:57:18 |
| DF1GD-15 | 44 | 2026-08-31 23:12:48 | 2026-09-01 00:56:23 |
| DG9SBQ-11 | 42 | 2026-08-31 23:12:38 | 2026-09-01 00:37:52 |
| DN1GJH-1 | 42 | 2026-08-31 23:16:11 | 2026-09-01 00:57:12 |
| DL1ZP-14 | 38 | 2026-08-31 23:03:37 | 2026-09-01 00:54:56 |
| PG1ADW-2 | 38 | 2026-08-31 23:31:38 | 2026-09-01 00:55:06 |
| SONCRA | 33 | 2026-08-31 23:38:22 | 2026-09-01 00:50:50 |
| OE5WHR-10 | 29 | 2026-08-31 23:27:08 | 2026-09-01 00:37:53 |
| OE5MMP-10 | 22 | 2026-09-01 00:13:05 | 2026-09-01 00:36:15 |
| OE3JTB-15 | 20 | 2026-08-31 23:20:45 | 2026-09-01 01:10:31 |
| AM1SDL-15 | 15 | 2026-08-31 23:38:05 | 2026-09-01 00:48:04 |
| SONDE2-11 | 15 | 2026-09-01 00:00:04 | 2026-09-01 00:39:23 |
| BIOWL9-15 | 10 | 2026-08-31 23:15:22 | 2026-09-01 00:56:48 |
| SO1NDE-10 | 10 | 2026-08-31 23:43:04 | 2026-09-01 00:47:04 |
| DH7VM-15 | 9 | 2026-08-31 23:17:41 | 2026-09-01 00:53:04 |
| OE9MKV-15 | 9 | 2026-08-31 23:28:22 | 2026-09-01 00:44:38 |
| IW2NTF | 9 | 2026-09-01 00:34:07 | 2026-09-01 00:39:42 |
| DL8DAS-14 | 7 | 2026-09-01 00:01:53 | 2026-09-01 00:17:40 |
| EDDB2-11 | 7 | 2026-09-01 00:11:41 | 2026-09-01 00:39:38 |
| AA1-15 | 6 | 2026-09-01 00:28:01 | 2026-09-01 00:29:11 |
| DJTTGO | 5 | 2026-08-31 23:46:05 | 2026-09-01 00:47:22 |
| DJ2DS-15 | 5 | 2026-09-01 00:15:52 | 2026-09-01 00:30:21 |
| KANTATE | 3 | 2026-08-31 23:12:36 | 2026-08-31 23:24:35 |
| HEMX73-6 | 2 | 2026-09-01 00:11:52 | 2026-09-01 00:16:34 |
| DF8AY-15 | 1 | 2026-09-01 00:27:08 | 2026-09-01 00:27:08 |
| PETON7-10 | 1 | 2026-09-01 00:29:24 | 2026-09-01 00:29:24 |
| Receiver | Date | Latitude | Longitude | Direction | Speed | Altitude | Climb | Temperature | Humidity | Pressure | Voltage | Killtimer | Uptime | BKT | XDATA |
|---|---|---|---|---|---|---|---|---|---|---|---|---|---|---|---|
| DO3MHA-11 | 2026-09-01 01:21:15 | 48.78767 | 11.07245 | 40° | 7km/h | 497m | -6.0m/s | 14.2°C | 84.7% | 967.2hPa | 2.7V | 00:00:00 | 02:51:54 | 00:00:00 | |
| DO3MHA-11 | 2026-09-01 01:21:12 | 48.78762 | 11.07240 | 46° | 9km/h | 514m | -5.7m/s | 14.5°C | 82.3% | 965.4hPa | 2.7V | 00:00:00 | 02:51:51 | 00:00:00 | |
| DO3MHA-12 | 2026-09-01 01:21:12 | 48.78762 | 11.07240 | 46° | 9km/h | 514m | -5.7m/s | 14.5°C | 82.3% | 965.4hPa | 2.7V | 00:00:00 | 02:51:51 | 00:00:00 | |
| DO3MHA-12 | 2026-09-01 01:21:10 | 48.78760 | 11.07235 | 49° | 7km/h | 525m | -6.0m/s | 14.5°C | 82.1% | 964.1hPa | 2.7V | 00:00:00 | 02:51:49 | 00:00:00 | |
| DO3MHA-11 | 2026-09-01 01:21:10 | 48.78760 | 11.07235 | 49° | 7km/h | 525m | -6.0m/s | 14.5°C | 82.1% | 964.1hPa | 2.7V | 00:00:00 | 02:51:49 | 00:00:00 | |
| DO3MHA-11 | 2026-09-01 01:21:08 | 48.78757 | 11.07231 | 53° | 9km/h | 536m | -5.9m/s | 14.6°C | 80.8% | 962.8hPa | 2.7V | 00:00:00 | 02:51:47 | 00:00:00 | |
| DO3MHA-12 | 2026-09-01 01:21:08 | 48.78757 | 11.07231 | 53° | 9km/h | 536m | -5.9m/s | 14.6°C | 80.8% | 962.8hPa | 2.7V | 00:00:00 | 02:51:47 | 00:00:00 | |
| DO3MHA-11 | 2026-09-01 01:21:06 | 48.78754 | 11.07225 | 60° | 11km/h | 548m | -6.1m/s | 14.7°C | 80.4% | 961.5hPa | 2.7V | 00:00:00 | 02:51:45 | 00:00:00 | |
| DO3MHA-12 | 2026-09-01 01:21:06 | 48.78754 | 11.07225 | 60° | 11km/h | 548m | -6.1m/s | 14.7°C | 80.4% | 961.5hPa | 2.7V | 00:00:00 | 02:51:45 | 00:00:00 | |
| DO3MHA-11 | 2026-09-01 01:21:04 | 48.78751 | 11.07217 | 60° | 11km/h | 560m | -5.8m/s | 14.8°C | 79.3% | 960.1hPa | 2.7V | 00:00:00 | 02:51:43 | 00:00:00 | |
| DO3MHA-12 | 2026-09-01 01:21:04 | 48.78751 | 11.07217 | 60° | 11km/h | 560m | -5.8m/s | 14.8°C | 79.3% | 960.1hPa | 2.7V | 00:00:00 | 02:51:43 | 00:00:00 | |
| DO3MHA-12 | 2026-09-01 01:21:02 | 48.78748 | 11.07209 | 56° | 13km/h | 571m | -5.7m/s | 14.7°C | 79.7% | 958.8hPa | 2.7V | 00:00:00 | 02:51:41 | 00:00:00 | |
| DO3MHA-11 | 2026-09-01 01:21:02 | 48.78748 | 11.07209 | 56° | 13km/h | 571m | -5.7m/s | 14.7°C | 79.7% | 958.8hPa | 2.7V | 00:00:00 | 02:51:41 | 00:00:00 | |
| DO3MHA-12 | 2026-09-01 01:21:00 | 48.78744 | 11.07201 | 55° | 15km/h | 582m | -5.4m/s | 14.6°C | 79.6% | 957.6hPa | 2.7V | 07:40:00 | 02:51:39 | 00:00:00 | |
| DO3MHA-11 | 2026-09-01 01:21:00 | 48.78744 | 11.07201 | 55° | 15km/h | 582m | -5.4m/s | 14.6°C | 79.6% | 957.6hPa | 2.7V | 07:40:00 | 02:51:39 | 00:00:00 | |
| DO3MHA-11 | 2026-09-01 01:20:58 | 48.78740 | 11.07192 | 59° | 16km/h | 593m | -5.6m/s | 14.6°C | 79.5% | 956.6hPa | 2.7V | 00:00:00 | 02:51:37 | 00:00:00 | |
| DO3MHA-12 | 2026-09-01 01:20:58 | 48.78740 | 11.07192 | 59° | 16km/h | 593m | -5.6m/s | 14.6°C | 79.5% | 956.6hPa | 2.7V | 00:00:00 | 02:51:37 | 00:00:00 | |
| DO3MHA-11 | 2026-09-01 01:20:56 | 48.78736 | 11.07181 | 60° | 16km/h | 603m | -5.5m/s | 14.5°C | 79.4% | 955.1hPa | 2.7V | 00:00:00 | 02:51:35 | 00:00:00 | |
| DO3MHA-12 | 2026-09-01 01:20:56 | 48.78736 | 11.07181 | 60° | 16km/h | 603m | -5.5m/s | 14.5°C | 79.4% | 955.1hPa | 2.6V | 00:00:00 | 02:51:35 | 00:00:00 | |
| DO3MHA-12 | 2026-09-01 01:20:54 | 48.78731 | 11.07170 | 56° | 18km/h | 614m | -6.2m/s | 14.5°C | 79.3% | 953.9hPa | 2.6V | 00:00:00 | 02:51:33 | 00:00:00 | |
| DO3MHA-11 | 2026-09-01 01:20:54 | 48.78731 | 11.07170 | 56° | 18km/h | 614m | -6.2m/s | 14.5°C | 79.3% | 953.9hPa | 2.7V | 00:00:00 | 02:51:33 | 00:00:00 | |
| DO3MHA-12 | 2026-09-01 01:20:52 | 48.78726 | 11.07159 | 54° | 18km/h | 626m | -5.7m/s | 14.5°C | 79.1% | 952.6hPa | 2.7V | 00:00:00 | 02:51:31 | 00:00:00 | |
| DO3MHA-11 | 2026-09-01 01:20:52 | 48.78726 | 11.07159 | 54° | 18km/h | 626m | -5.7m/s | 14.5°C | 79.1% | 952.6hPa | 2.7V | 00:00:00 | 02:51:31 | 00:00:00 | |
| DO3MHA-12 | 2026-09-01 01:20:50 | 48.78721 | 11.07147 | 57° | 22km/h | 637m | -6.0m/s | 14.6°C | 77.2% | 951.3hPa | 2.7V | 00:00:00 | 02:51:29 | 00:00:00 | |
| DO3MHA-11 | 2026-09-01 01:20:50 | 48.78721 | 11.07147 | 57° | 22km/h | 637m | -6.0m/s | 14.6°C | 77.2% | 951.3hPa | 2.7V | 00:00:00 | 02:51:29 | 00:00:00 | |
| DO3MHA-12 | 2026-09-01 01:20:48 | 48.78714 | 11.07133 | 57° | 24km/h | 649m | -5.4m/s | 14.6°C | 77.1% | 950.1hPa | 2.7V | 00:00:00 | 02:51:27 | 00:00:00 | |
| DO3MHA-11 | 2026-09-01 01:20:48 | 48.78714 | 11.07133 | 57° | 24km/h | 649m | -5.4m/s | 14.6°C | 77.1% | 950.1hPa | 2.7V | 00:00:00 | 02:51:27 | 00:00:00 | |
| DO3MHA-12 | 2026-09-01 01:20:46 | 48.78708 | 11.07118 | 60° | 24km/h | 660m | -5.9m/s | 14.7°C | 75.9% | 948.9hPa | 2.7V | 00:00:00 | 02:51:25 | 00:00:00 | |
| DO3MHA-11 | 2026-09-01 01:20:46 | 48.78708 | 11.07118 | 60° | 24km/h | 660m | -5.9m/s | 14.7°C | 75.9% | 948.9hPa | 2.7V | 00:00:00 | 02:51:25 | 00:00:00 | |
| DO3MHA-12 | 2026-09-01 01:20:44 | 48.78702 | 11.07102 | 58° | 26km/h | 671m | -6.0m/s | 14.7°C | 75.4% | 947.5hPa | 2.7V | 07:40:00 | 02:51:23 | 00:00:00 | |
| DO3MHA-11 | 2026-09-01 01:20:44 | 48.78702 | 11.07102 | 58° | 26km/h | 671m | -6.0m/s | 14.7°C | 75.4% | 947.5hPa | 2.7V | 07:40:00 | 02:51:23 | 00:00:00 | |
| DO3MHA-12 | 2026-09-01 01:20:42 | 48.78695 | 11.07086 | 60° | 27km/h | 683m | -5.9m/s | 14.8°C | 73.8% | 946.3hPa | 2.6V | 00:00:00 | 02:51:21 | 00:00:00 | |
| DO3MHA-11 | 2026-09-01 01:20:42 | 48.78695 | 11.07086 | 60° | 27km/h | 683m | -5.9m/s | 14.8°C | 73.8% | 946.3hPa | 2.7V | 00:00:00 | 02:51:21 | 00:00:00 | |
| DO3MHA-11 | 2026-09-01 01:20:40 | 48.78688 | 11.07068 | 62° | 27km/h | 694m | -5.4m/s | 14.7°C | 73.9% | 945.0hPa | 2.7V | 00:00:00 | 02:51:19 | 00:00:00 | |
| DO3MHA-12 | 2026-09-01 01:20:40 | 48.78688 | 11.07068 | 62° | 27km/h | 694m | -5.4m/s | 14.7°C | 73.9% | 945.0hPa | 2.7V | 00:00:00 | 02:51:19 | 00:00:00 | |
| DO3MHA-12 | 2026-09-01 01:20:38 | 48.78682 | 11.07048 | 64° | 31km/h | 705m | -5.2m/s | 14.7°C | 74.0% | 943.9hPa | 2.7V | 00:00:00 | 02:51:17 | 00:00:00 | |
| DO3MHA-11 | 2026-09-01 01:20:38 | 48.78682 | 11.07048 | 64° | 31km/h | 705m | -5.2m/s | 14.7°C | 74.0% | 943.9hPa | 2.7V | 00:00:00 | 02:51:17 | 00:00:00 | |
| DO3MHA-12 | 2026-09-01 01:20:36 | 48.78675 | 11.07027 | 65° | 31km/h | 715m | -5.3m/s | 14.7°C | 73.9% | 942.6hPa | 2.6V | 00:00:00 | 02:51:15 | 00:00:00 | |
| DO3MHA-11 | 2026-09-01 01:20:36 | 48.78675 | 11.07027 | 65° | 31km/h | 715m | -5.3m/s | 14.7°C | 73.9% | 942.6hPa | 2.7V | 00:00:00 | 02:51:15 | 00:00:00 | |
| DO3MHA-12 | 2026-09-01 01:20:34 | 48.78669 | 11.07006 | 65° | 33km/h | 726m | -5.8m/s | 14.8°C | 73.6% | 941.5hPa | 2.7V | 00:00:00 | 02:51:13 | 00:00:00 | |
| DO3MHA-11 | 2026-09-01 01:20:34 | 48.78669 | 11.07006 | 65° | 33km/h | 726m | -5.8m/s | 14.8°C | 73.6% | 941.5hPa | 2.7V | 00:00:00 | 02:51:13 | 00:00:00 | |
| DO3MHA-12 | 2026-09-01 01:20:32 | 48.78662 | 11.06983 | 70° | 35km/h | 737m | -5.1m/s | 14.8°C | 73.2% | 940.2hPa | 2.7V | 00:00:00 | 02:51:11 | 00:00:00 | |
| DO3MHA-11 | 2026-09-01 01:20:32 | 48.78662 | 11.06983 | 70° | 35km/h | 737m | -5.1m/s | 14.8°C | 73.2% | 940.2hPa | 2.7V | 00:00:00 | 02:51:11 | 00:00:00 | |
| DO3MHA-12 | 2026-09-01 01:20:30 | 48.78656 | 11.06958 | 69° | 35km/h | 747m | -5.5m/s | 14.8°C | 72.7% | 939.1hPa | 2.6V | 00:00:00 | 02:51:09 | 00:00:00 | |
| DO3MHA-11 | 2026-09-01 01:20:30 | 48.78656 | 11.06958 | 69° | 35km/h | 747m | -5.5m/s | 14.8°C | 72.7% | 939.1hPa | 2.7V | 00:00:00 | 02:51:09 | 00:00:00 | |
| DO3MHA-12 | 2026-09-01 01:20:28 | 48.78651 | 11.06933 | 73° | 35km/h | 758m | -5.7m/s | 14.9°C | 72.1% | 937.9hPa | 2.7V | 07:40:00 | 02:51:07 | 00:00:00 | |
| DO3MHA-11 | 2026-09-01 01:20:28 | 48.78651 | 11.06933 | 73° | 35km/h | 758m | -5.7m/s | 14.9°C | 72.1% | 937.9hPa | 2.7V | 07:40:00 | 02:51:07 | 00:00:00 | |
| DO3MHA-12 | 2026-09-01 01:20:26 | 48.78645 | 11.06908 | 75° | 35km/h | 769m | -5.5m/s | 14.8°C | 72.2% | 936.7hPa | 2.7V | 00:00:00 | 02:51:05 | 00:00:00 | |
| DO3MHA-11 | 2026-09-01 01:20:26 | 48.78645 | 11.06908 | 75° | 35km/h | 769m | -5.5m/s | 14.8°C | 72.2% | 936.7hPa | 2.7V | 00:00:00 | 02:51:05 | 00:00:00 | |
| DO3MHA-11 | 2026-09-01 01:20:24 | 48.78641 | 11.06883 | 76° | 35km/h | 780m | -5.5m/s | 14.7°C | 72.6% | 935.4hPa | 2.6V | 00:00:00 | 02:51:03 | 00:00:00 | |
| DO3MHA-12 | 2026-09-01 01:20:24 | 48.78641 | 11.06883 | 76° | 35km/h | 780m | -5.5m/s | 14.7°C | 72.6% | 935.4hPa | 2.6V | 00:00:00 | 02:51:03 | 00:00:00 | |
| DO3MHA-11 | 2026-09-01 01:20:22 | 48.78637 | 11.06857 | 81° | 37km/h | 792m | -5.9m/s | 15.0°C | 71.5% | 934.2hPa | 2.7V | 00:00:00 | 02:51:01 | 00:00:00 | |
| DO3MHA-12 | 2026-09-01 01:20:22 | 48.78637 | 11.06857 | 81° | 37km/h | 792m | -5.9m/s | 15.0°C | 71.5% | 934.2hPa | 2.7V | 00:00:00 | 02:51:01 | 00:00:00 | |
| DO3MHA-12 | 2026-09-01 01:20:20 | 48.78634 | 11.06830 | 81° | 35km/h | 803m | -5.7m/s | 15.1°C | 71.4% | 932.8hPa | 2.7V | 00:00:00 | 02:50:59 | 00:00:00 | |
| DO3MHA-11 | 2026-09-01 01:20:20 | 48.78634 | 11.06830 | 81° | 35km/h | 803m | -5.7m/s | 15.1°C | 71.4% | 932.8hPa | 2.7V | 00:00:00 | 02:50:59 | 00:00:00 | |
| NBG1-10 | 2026-09-01 01:20:19 | 48.78633 | 11.06816 | 82° | 35km/h | 809m | -6.0m/s | 15.1°C | 71.3% | 932.3hPa | 2.7V | 00:00:00 | 02:50:58 | 00:00:00 | |
| DO3MHA-12 | 2026-09-01 01:20:18 | 48.78632 | 11.06803 | 84° | 35km/h | 815m | -6.7m/s | 15.2°C | 71.2% | 931.6hPa | 2.7V | 00:00:00 | 02:50:57 | 00:00:00 | |
| DO3MHA-11 | 2026-09-01 01:20:18 | 48.78632 | 11.06803 | 84° | 35km/h | 815m | -6.7m/s | 15.2°C | 71.2% | 931.6hPa | 2.7V | 00:00:00 | 02:50:57 | 00:00:00 | |
| NBG1-10 | 2026-09-01 01:20:17 | 48.78630 | 11.06790 | 83° | 35km/h | 821m | -6.4m/s | 15.2°C | 71.2% | 930.8hPa | 2.7V | 00:00:00 | 02:50:56 | 00:00:00 | |
| DO3MHA-11 | 2026-09-01 01:20:16 | 48.78630 | 11.06777 | 85° | 35km/h | 828m | -6.5m/s | 15.2°C | 71.4% | 930.1hPa | 2.7V | 00:00:00 | 02:50:55 | 00:00:00 | |
| DO3MHA-12 | 2026-09-01 01:20:16 | 48.78630 | 11.06777 | 85° | 35km/h | 828m | -6.5m/s | 15.2°C | 71.4% | 930.1hPa | 2.7V | 00:00:00 | 02:50:55 | 00:00:00 | |
| NBG1-10 | 2026-09-01 01:20:15 | 48.78629 | 11.06764 | 88° | 35km/h | 834m | -6.4m/s | 15.2°C | 71.7% | 929.5hPa | 2.7V | 00:00:00 | 02:50:54 | 00:00:00 | |
| DO3MHA-12 | 2026-09-01 01:20:14 | 48.78629 | 11.06750 | 87° | 37km/h | 841m | -6.2m/s | 15.2°C | 71.9% | 928.7hPa | 2.7V | 00:00:00 | 02:50:53 | 00:00:00 | |
| DO3MHA-11 | 2026-09-01 01:20:14 | 48.78629 | 11.06750 | 87° | 37km/h | 841m | -6.2m/s | 15.2°C | 71.9% | 928.7hPa | 2.7V | 00:00:00 | 02:50:53 | 00:00:00 | |
| NBG1-10 | 2026-09-01 01:20:13 | 48.78628 | 11.06736 | 88° | 37km/h | 847m | -6.4m/s | 15.1°C | 72.3% | 928.1hPa | 2.7V | 00:00:00 | 02:50:52 | 00:00:00 | |
| DO3MHA-12 | 2026-09-01 01:20:12 | 48.78628 | 11.06723 | 90° | 37km/h | 853m | -6.2m/s | 15.1°C | 72.4% | 927.4hPa | 2.7V | 07:41:00 | 02:50:51 | 00:00:00 | |
| DO3MHA-11 | 2026-09-01 01:20:12 | 48.78628 | 11.06723 | 90° | 37km/h | 853m | -6.2m/s | 15.1°C | 72.4% | 927.4hPa | 2.6V | 07:41:00 | 02:50:51 | 00:00:00 | |
| NBG1-10 | 2026-09-01 01:20:11 | 48.78628 | 11.06709 | 92° | 37km/h | 859m | -5.9m/s | 15.0°C | 72.7% | 926.7hPa | 2.6V | 07:41:00 | 02:50:50 | 00:00:00 | |
| DO3MHA-12 | 2026-09-01 01:20:10 | 48.78628 | 11.06695 | 91° | 37km/h | 865m | -6.0m/s | 15.0°C | 72.8% | 926.1hPa | 2.6V | 00:00:00 | 02:50:49 | 00:00:00 | |
| DO3MHA-11 | 2026-09-01 01:20:10 | 48.78628 | 11.06695 | 91° | 37km/h | 865m | -6.0m/s | 15.0°C | 72.8% | 926.1hPa | 2.6V | 00:00:00 | 02:50:49 | 00:00:00 | |
| NBG1-10 | 2026-09-01 01:20:09 | 48.78628 | 11.06681 | 91° | 37km/h | 871m | -6.2m/s | 14.9°C | 73.2% | 925.4hPa | 2.6V | 00:00:00 | 02:50:48 | 00:00:00 | |
| DO3MHA-11 | 2026-09-01 01:20:08 | 48.78628 | 11.06667 | 92° | 37km/h | 877m | -6.1m/s | 14.9°C | 73.4% | 924.8hPa | 2.7V | 00:00:00 | 02:50:47 | 00:00:00 | |
| DO3MHA-12 | 2026-09-01 01:20:08 | 48.78628 | 11.06667 | 92° | 37km/h | 877m | -6.1m/s | 14.9°C | 73.4% | 924.8hPa | 2.7V | 00:00:00 | 02:50:47 | 00:00:00 | |
| NBG1-10 | 2026-09-01 01:20:07 | 48.78629 | 11.06653 | 92° | 37km/h | 883m | -6.0m/s | 14.8°C | 73.6% | 924.1hPa | 2.7V | 00:00:00 | 02:50:46 | 00:00:00 | |
| DO3MHA-11 | 2026-09-01 01:20:06 | 48.78629 | 11.06639 | 93° | 37km/h | 889m | -5.7m/s | 14.7°C | 73.9% | 923.5hPa | 2.7V | 00:00:00 | 02:50:45 | 00:00:00 | |
| DO3MHA-12 | 2026-09-01 01:20:06 | 48.78629 | 11.06639 | 93° | 37km/h | 889m | -5.7m/s | 14.7°C | 73.9% | 923.5hPa | 2.7V | 00:00:00 | 02:50:45 | 00:00:00 | |
| NBG1-10 | 2026-09-01 01:20:05 | 48.78630 | 11.06625 | 93° | 37km/h | 895m | -6.1m/s | 14.7°C | 74.1% | 922.9hPa | 2.7V | 00:00:00 | 02:50:44 | 00:00:00 | |
| DO3MHA-11 | 2026-09-01 01:20:04 | 48.78630 | 11.06611 | 92° | 38km/h | 901m | -6.1m/s | 14.6°C | 74.3% | 922.3hPa | 2.7V | 00:00:00 | 02:50:43 | 00:00:00 | |
| DO3MHA-12 | 2026-09-01 01:20:04 | 48.78630 | 11.06611 | 92° | 38km/h | 901m | -6.1m/s | 14.6°C | 74.3% | 922.3hPa | 2.7V | 00:00:00 | 02:50:43 | 00:00:00 | |
| DO3MHA-11 | 2026-09-01 01:20:02 | 48.78630 | 11.06582 | 92° | 35km/h | 913m | -6.1m/s | 14.5°C | 74.7% | 920.9hPa | 2.7V | 00:00:00 | 02:50:41 | 00:00:00 | |
| DO3MHA-12 | 2026-09-01 01:20:02 | 48.78630 | 11.06582 | 92° | 35km/h | 913m | -6.1m/s | 14.5°C | 74.7% | 920.9hPa | 2.7V | 00:00:00 | 02:50:41 | 00:00:00 | |
| NBG1-10 | 2026-09-01 01:20:01 | 48.78630 | 11.06569 | 94° | 37km/h | 919m | -6.1m/s | 14.5°C | 74.9% | 920.4hPa | 2.7V | 00:00:00 | 02:50:40 | 00:00:00 | |
| DO3MHA-11 | 2026-09-01 01:20:00 | 48.78631 | 11.06556 | 94° | 37km/h | 925m | -6.0m/s | 14.4°C | 75.3% | 919.5hPa | 2.6V | 00:00:00 | 02:50:39 | 00:00:00 | |
| DO3MHA-12 | 2026-09-01 01:20:00 | 48.78631 | 11.06556 | 94° | 37km/h | 925m | -6.0m/s | 14.4°C | 75.3% | 919.5hPa | 2.6V | 00:00:00 | 02:50:39 | 00:00:00 | |
| DO3MHA-11 | 2026-09-01 01:19:58 | 48.78632 | 11.06528 | 94° | 37km/h | 937m | -5.6m/s | 14.3°C | 75.6% | 918.4hPa | 2.7V | 00:00:00 | 02:50:37 | 00:00:00 | |
| DO3MHA-12 | 2026-09-01 01:19:58 | 48.78632 | 11.06528 | 94° | 37km/h | 937m | -5.6m/s | 14.3°C | 75.6% | 918.4hPa | 2.7V | 00:00:00 | 02:50:37 | 00:00:00 | |
| DO3MHA-12 | 2026-09-01 01:19:56 | 48.78633 | 11.06499 | 94° | 40km/h | 949m | -6.0m/s | 14.2°C | 76.0% | 917.1hPa | 2.7V | 07:41:00 | 02:50:35 | 00:00:00 | |
| DO3MHA-11 | 2026-09-01 01:19:56 | 48.78633 | 11.06499 | 94° | 40km/h | 949m | -6.0m/s | 14.2°C | 76.0% | 917.1hPa | 2.7V | 07:41:00 | 02:50:35 | 00:00:00 | |
| NBG1-10 | 2026-09-01 01:19:54 | 48.78635 | 11.06469 | 96° | 38km/h | 961m | -5.8m/s | 14.1°C | 76.6% | 915.8hPa | 2.7V | 00:00:00 | 02:50:33 | 00:00:00 | |
| DO3MHA-12 | 2026-09-01 01:19:54 | 48.78635 | 11.06469 | 96° | 38km/h | 961m | -5.8m/s | 14.1°C | 76.6% | 915.8hPa | 2.7V | 00:00:00 | 02:50:33 | 00:00:00 | |
| DO3MHA-11 | 2026-09-01 01:19:54 | 48.78635 | 11.06469 | 96° | 38km/h | 961m | -5.8m/s | 14.1°C | 76.6% | 915.8hPa | 2.6V | 00:00:00 | 02:50:33 | 00:00:00 | |
| DO3MHA-11 | 2026-09-01 01:19:52 | 48.78637 | 11.06440 | 96° | 38km/h | 972m | -5.2m/s | 14.0°C | 77.0% | 914.6hPa | 2.6V | 00:00:00 | 02:50:31 | 00:00:00 | |
| DO3MHA-12 | 2026-09-01 01:19:52 | 48.78637 | 11.06440 | 96° | 38km/h | 972m | -5.2m/s | 14.0°C | 77.0% | 914.6hPa | 2.6V | 00:00:00 | 02:50:31 | 00:00:00 | |
| DO3MHA-12 | 2026-09-01 01:19:50 | 48.78638 | 11.06410 | 95° | 38km/h | 982m | -5.6m/s | 13.9°C | 76.7% | 913.3hPa | 2.6V | 00:00:00 | 02:50:29 | 00:00:00 | |
| DO3MHA-11 | 2026-09-01 01:19:50 | 48.78638 | 11.06410 | 95° | 38km/h | 982m | -5.6m/s | 13.9°C | 76.7% | 913.3hPa | 2.6V | 00:00:00 | 02:50:29 | 00:00:00 | |
| DO3MHA-12 | 2026-09-01 01:19:48 | 48.78639 | 11.06382 | 91° | 38km/h | 993m | -5.8m/s | 13.8°C | 77.4% | 912.1hPa | 2.7V | 00:00:00 | 02:50:27 | 00:00:00 | |
| DO3MHA-11 | 2026-09-01 01:19:48 | 48.78639 | 11.06382 | 91° | 38km/h | 993m | -5.8m/s | 13.8°C | 77.4% | 912.1hPa | 2.7V | 00:00:00 | 02:50:27 | 00:00:00 | |
| NBG1-10 | 2026-09-01 01:19:47 | 48.78639 | 11.06367 | 90° | 38km/h | 999m | -6.0m/s | 13.7°C | 77.6% | 911.5hPa | 2.7V | 00:00:00 | 02:50:26 | 00:00:00 | |
| DO3MHA-12 | 2026-09-01 01:19:46 | 48.78639 | 11.06353 | 91° | 38km/h | 1005m | -6.3m/s | 13.7°C | 78.0% | 911.0hPa | 2.7V | 00:00:00 | 02:50:25 | 00:00:00 | |
| DO3MHA-11 | 2026-09-01 01:19:46 | 48.78639 | 11.06353 | 91° | 38km/h | 1005m | -6.3m/s | 13.7°C | 78.0% | 911.0hPa | 2.7V | 00:00:00 | 02:50:25 | 00:00:00 | |
| DO3MHA-12 | 2026-09-01 01:19:44 | 48.78639 | 11.06324 | 91° | 38km/h | 1018m | -5.9m/s | 13.6°C | 78.0% | 909.7hPa | 2.7V | 00:00:00 | 02:50:23 | 00:00:00 | |
| DO3MHA-11 | 2026-09-01 01:19:44 | 48.78639 | 11.06324 | 91° | 38km/h | 1018m | -5.9m/s | 13.6°C | 78.0% | 909.7hPa | 2.7V | 00:00:00 | 02:50:23 | 00:00:00 | |
| DO3MHA-12 | 2026-09-01 01:19:42 | 48.78640 | 11.06294 | 95° | 38km/h | 1029m | -5.7m/s | 13.5°C | 78.5% | 908.6hPa | 2.7V | 00:00:00 | 02:50:21 | 00:00:00 | |
| DO3MHA-11 | 2026-09-01 01:19:42 | 48.78640 | 11.06294 | 95° | 38km/h | 1029m | -5.7m/s | 13.5°C | 78.5% | 908.6hPa | 2.7V | 00:00:00 | 02:50:21 | 00:00:00 | |
| DO3MHA-12 | 2026-09-01 01:19:40 | 48.78642 | 11.06265 | 96° | 38km/h | 1041m | -6.0m/s | 13.3°C | 79.3% | 907.5hPa | 2.7V | 07:41:00 | 02:50:19 | 00:00:00 | |
| DO3MHA-11 | 2026-09-01 01:19:40 | 48.78642 | 11.06265 | 96° | 38km/h | 1041m | -6.0m/s | 13.3°C | 79.3% | 907.5hPa | 2.7V | 07:41:00 | 02:50:19 | 00:00:00 | |
| NBG1-10 | 2026-09-01 01:19:40 | 48.78642 | 11.06265 | 96° | 40km/h | 1041m | -6.0m/s | 13.3°C | 79.3% | 907.5hPa | 2.7V | 00:00:00 | 02:50:19 | 00:00:00 | |
| DO3MHA-12 | 2026-09-01 01:19:38 | 48.78644 | 11.06235 | 99° | 40km/h | 1052m | -5.7m/s | 13.3°C | 79.3% | 906.1hPa | 2.6V | 00:00:00 | 02:50:17 | 00:00:00 | |
| DO3MHA-11 | 2026-09-01 01:19:38 | 48.78644 | 11.06235 | 99° | 40km/h | 1052m | -5.7m/s | 13.3°C | 79.3% | 906.1hPa | 2.6V | 00:00:00 | 02:50:17 | 00:00:00 | |
| DO3MHA-12 | 2026-09-01 01:19:34 | 48.78649 | 11.06174 | 96° | 40km/h | 1074m | -5.4m/s | 13.1°C | 80.2% | 903.7hPa | 2.7V | 00:00:00 | 02:50:13 | 00:00:00 | |
| DO3MHA-11 | 2026-09-01 01:19:34 | 48.78649 | 11.06174 | 96° | 40km/h | 1074m | -5.4m/s | 13.1°C | 80.2% | 903.7hPa | 2.7V | 00:00:00 | 02:50:13 | 00:00:00 | |
| NBG1-10 | 2026-09-01 01:19:33 | 48.78649 | 11.06159 | 95° | 42km/h | 1079m | -5.2m/s | 13.0°C | 80.5% | 903.2hPa | 2.7V | 07:41:00 | 02:50:12 | 00:00:00 | |
| DO3MHA-12 | 2026-09-01 01:19:32 | 48.78650 | 11.06143 | 95° | 40km/h | 1084m | -5.4m/s | 13.0°C | 80.5% | 902.5hPa | 2.7V | 00:00:00 | 02:50:11 | 00:00:00 | |
| DO3MHA-11 | 2026-09-01 01:19:32 | 48.78650 | 11.06143 | 95° | 40km/h | 1084m | -5.4m/s | 13.0°C | 80.5% | 902.5hPa | 2.7V | 00:00:00 | 02:50:11 | 00:00:00 | |
| DO3MHA-12 | 2026-09-01 01:19:30 | 48.78652 | 11.06112 | 98° | 42km/h | 1095m | -5.7m/s | 12.9°C | 80.8% | 901.4hPa | 2.7V | 00:00:00 | 02:50:09 | 00:00:00 | |
| DO3MHA-11 | 2026-09-01 01:19:30 | 48.78652 | 11.06112 | 98° | 42km/h | 1095m | -5.7m/s | 12.9°C | 80.8% | 901.4hPa | 2.7V | 00:00:00 | 02:50:09 | 00:00:00 | |
| DO3MHA-11 | 2026-09-01 01:19:28 | 48.78655 | 11.06080 | 99° | 42km/h | 1106m | -5.6m/s | 12.7°C | 81.3% | 900.2hPa | 2.7V | 00:00:00 | 02:50:07 | 00:00:00 | |
| DO3MHA-12 | 2026-09-01 01:19:28 | 48.78655 | 11.06080 | 99° | 42km/h | 1106m | -5.6m/s | 12.7°C | 81.3% | 900.2hPa | 2.7V | 00:00:00 | 02:50:07 | 00:00:00 | |
| DO3MHA-12 | 2026-09-01 01:19:26 | 48.78658 | 11.06049 | 98° | 42km/h | 1118m | -5.8m/s | 12.6°C | 81.9% | 899.0hPa | 2.7V | 00:00:00 | 02:50:05 | 00:00:00 | |
| NBG1-10 | 2026-09-01 01:19:26 | 48.78658 | 11.06049 | 98° | 40km/h | 1118m | -5.8m/s | 12.6°C | 81.9% | 899.0hPa | 2.7V | 00:00:00 | 02:50:05 | 00:00:00 | |
| DO3MHA-11 | 2026-09-01 01:19:26 | 48.78658 | 11.06049 | 98° | 42km/h | 1118m | -5.8m/s | 12.6°C | 81.9% | 899.0hPa | 2.7V | 00:00:00 | 02:50:05 | 00:00:00 | |
| DO3MHA-12 | 2026-09-01 01:19:24 | 48.78660 | 11.06017 | 96° | 40km/h | 1129m | -5.5m/s | 12.5°C | 82.2% | 897.6hPa | 2.7V | 07:41:00 | 02:50:03 | 00:00:00 | |
| DO3MHA-11 | 2026-09-01 01:19:24 | 48.78660 | 11.06017 | 96° | 40km/h | 1129m | -5.5m/s | 12.5°C | 82.2% | 897.6hPa | 2.7V | 07:41:00 | 02:50:03 | 00:00:00 | |
| DO3MHA-12 | 2026-09-01 01:19:22 | 48.78662 | 11.05987 | 96° | 38km/h | 1140m | -5.4m/s | 12.4°C | 82.7% | 896.6hPa | 2.7V | 00:00:00 | 02:50:01 | 00:00:00 | |
| DB0NH | 2026-09-01 01:19:22 | 48.78662 | 11.05987 | 96° | 42km/h | 1140m | -5.4m/s | 12.4°C | 82.7% | 896.6hPa | 2.7V | 00:00:00 | 02:50:01 | 00:00:00 | |
| DO3MHA-11 | 2026-09-01 01:19:22 | 48.78662 | 11.05987 | 96° | 38km/h | 1140m | -5.4m/s | 12.4°C | 82.7% | 896.6hPa | 2.7V | 00:00:00 | 02:50:01 | 00:00:00 | |
| DO3MHA-12 | 2026-09-01 01:19:20 | 48.78664 | 11.05958 | 98° | 40km/h | 1152m | -5.8m/s | 12.3°C | 83.1% | 895.3hPa | 2.7V | 00:00:00 | 02:49:59 | 00:00:00 | |
| DO3MHA-11 | 2026-09-01 01:19:20 | 48.78664 | 11.05958 | 98° | 40km/h | 1152m | -5.8m/s | 12.3°C | 83.1% | 895.3hPa | 2.7V | 00:00:00 | 02:49:59 | 00:00:00 | |
| NBG1-10 | 2026-09-01 01:19:19 | 48.78666 | 11.05942 | 100° | 42km/h | 1157m | -5.5m/s | 12.3°C | 83.4% | 894.8hPa | 2.7V | 00:00:00 | 02:49:58 | 00:00:00 | |
| DO3MHA-12 | 2026-09-01 01:19:18 | 48.78668 | 11.05927 | 100° | 42km/h | 1163m | -5.9m/s | 12.2°C | 83.7% | 894.2hPa | 2.7V | 00:00:00 | 02:49:57 | 00:00:00 | |
| DO3MHA-11 | 2026-09-01 01:19:18 | 48.78668 | 11.05927 | 100° | 42km/h | 1163m | -5.9m/s | 12.2°C | 83.7% | 894.2hPa | 2.6V | 00:00:00 | 02:49:57 | 00:00:00 | |
| DO3MHA-12 | 2026-09-01 01:19:16 | 48.78671 | 11.05895 | 101° | 42km/h | 1175m | -5.9m/s | 12.1°C | 84.2% | 893.0hPa | 2.6V | 00:00:00 | 02:49:55 | 00:00:00 | |
| DO3MHA-11 | 2026-09-01 01:19:16 | 48.78671 | 11.05895 | 101° | 42km/h | 1175m | -5.9m/s | 12.1°C | 84.2% | 893.0hPa | 2.6V | 00:00:00 | 02:49:55 | 00:00:00 | |
| DO3MHA-12 | 2026-09-01 01:19:14 | 48.78676 | 11.05863 | 103° | 44km/h | 1187m | -5.9m/s | 12.0°C | 84.8% | 891.4hPa | 2.6V | 00:00:00 | 02:49:53 | 00:00:00 | |
| DO3MHA-11 | 2026-09-01 01:19:14 | 48.78676 | 11.05863 | 103° | 44km/h | 1187m | -5.9m/s | 12.0°C | 84.8% | 891.4hPa | 2.6V | 00:00:00 | 02:49:53 | 00:00:00 | |
| NBG1-10 | 2026-09-01 01:19:12 | 48.78680 | 11.05830 | 100° | 44km/h | 1199m | -5.4m/s | 11.9°C | 85.3% | 890.3hPa | 2.7V | 00:00:00 | 02:49:51 | 00:00:00 | |
| DO3MHA-12 | 2026-09-01 01:19:12 | 48.78680 | 11.05830 | 100° | 42km/h | 1199m | -5.4m/s | 11.9°C | 85.3% | 890.3hPa | 2.7V | 00:00:00 | 02:49:51 | 00:00:00 | |
| DO3MHA-11 | 2026-09-01 01:19:12 | 48.78680 | 11.05830 | 100° | 42km/h | 1199m | -5.4m/s | 11.9°C | 85.3% | 890.3hPa | 2.7V | 00:00:00 | 02:49:51 | 00:00:00 | |
| DO3MHA-12 | 2026-09-01 01:19:10 | 48.78684 | 11.05798 | 103° | 44km/h | 1210m | -5.7m/s | 11.8°C | 85.1% | 889.3hPa | 2.7V | 00:00:00 | 02:49:49 | 00:00:00 | |
| DO3MHA-11 | 2026-09-01 01:19:10 | 48.78684 | 11.05798 | 103° | 44km/h | 1210m | -5.7m/s | 11.8°C | 85.1% | 889.3hPa | 2.7V | 00:00:00 | 02:49:49 | 00:00:00 | |
| DO3MHA-11 | 2026-09-01 01:19:08 | 48.78688 | 11.05766 | 102° | 44km/h | 1222m | -5.6m/s | 11.7°C | 85.6% | 888.0hPa | 2.7V | 07:42:00 | 02:49:47 | 00:00:00 | |
| DO3MHA-12 | 2026-09-01 01:19:08 | 48.78688 | 11.05766 | 102° | 44km/h | 1222m | -5.6m/s | 11.7°C | 85.6% | 888.0hPa | 2.6V | 07:42:00 | 02:49:47 | 00:00:00 | |
| DB0NH | 2026-09-01 01:19:08 | 48.78688 | 11.05766 | 102° | 44km/h | 1222m | -5.6m/s | 11.7°C | 85.6% | 888.0hPa | 2.6V | 00:00:00 | 02:49:47 | 00:00:00 | |
| DO3MHA-12 | 2026-09-01 01:19:06 | 48.78693 | 11.05733 | 105° | 44km/h | 1234m | -5.7m/s | 11.6°C | 86.3% | 886.7hPa | 2.6V | 00:00:00 | 02:49:45 | 00:00:00 | |
| DO3MHA-11 | 2026-09-01 01:19:06 | 48.78693 | 11.05733 | 105° | 44km/h | 1234m | -5.7m/s | 11.6°C | 86.3% | 886.7hPa | 2.7V | 00:00:00 | 02:49:45 | 00:00:00 | |
| NBG1-10 | 2026-09-01 01:19:05 | 48.78696 | 11.05717 | 105° | 46km/h | 1239m | -5.8m/s | 11.6°C | 84.6% | 886.1hPa | 2.7V | 00:00:00 | 02:49:44 | 00:00:00 | |
| DO3MHA-12 | 2026-09-01 01:19:04 | 48.78699 | 11.05700 | 105° | 44km/h | 1245m | -5.8m/s | 11.5°C | 84.8% | 885.5hPa | 2.7V | 00:00:00 | 02:49:43 | 00:00:00 | |
| DO3MHA-11 | 2026-09-01 01:19:04 | 48.78699 | 11.05700 | 105° | 44km/h | 1245m | -5.8m/s | 11.5°C | 84.8% | 885.5hPa | 2.7V | 00:00:00 | 02:49:43 | 00:00:00 | |
| DO3MHA-12 | 2026-09-01 01:19:02 | 48.78705 | 11.05668 | 106° | 44km/h | 1257m | -5.8m/s | 11.4°C | 84.9% | 884.3hPa | 2.7V | 00:00:00 | 02:49:41 | 00:00:00 | |
| DO3MHA-11 | 2026-09-01 01:19:02 | 48.78705 | 11.05668 | 106° | 44km/h | 1257m | -5.8m/s | 11.4°C | 84.9% | 884.3hPa | 2.7V | 00:00:00 | 02:49:41 | 00:00:00 | |
| DO3MHA-12 | 2026-09-01 01:19:00 | 48.78711 | 11.05634 | 106° | 46km/h | 1268m | -5.8m/s | 11.4°C | 85.0% | 883.1hPa | 2.7V | 00:00:00 | 02:49:39 | 00:00:00 | |
| DO3MHA-11 | 2026-09-01 01:19:00 | 48.78711 | 11.05634 | 106° | 46km/h | 1268m | -5.8m/s | 11.4°C | 85.0% | 883.1hPa | 2.7V | 00:00:00 | 02:49:39 | 00:00:00 | |
| DO3MHA-12 | 2026-09-01 01:18:58 | 48.78717 | 11.05600 | 104° | 47km/h | 1279m | -5.3m/s | 11.3°C | 85.4% | 881.9hPa | 2.7V | 00:00:00 | 02:49:37 | 00:00:00 | |
| DB0NH | 2026-09-01 01:18:58 | 48.78717 | 11.05600 | 104° | 46km/h | 1279m | -5.3m/s | 11.3°C | 85.4% | 881.9hPa | 2.7V | 00:00:00 | 02:49:37 | 00:00:00 | |
| DO3MHA-11 | 2026-09-01 01:18:58 | 48.78717 | 11.05600 | 104° | 47km/h | 1279m | -5.3m/s | 11.3°C | 85.4% | 881.9hPa | 2.7V | 00:00:00 | 02:49:37 | 00:00:00 | |
| NBG1-10 | 2026-09-01 01:18:58 | 48.78717 | 11.05600 | 104° | 46km/h | 1279m | -5.3m/s | 11.3°C | 85.4% | 881.9hPa | 2.7V | 00:00:00 | 02:49:37 | 00:00:00 | |
| DO3MHA-11 | 2026-09-01 01:18:56 | 48.78722 | 11.05565 | 105° | 46km/h | 1289m | -5.3m/s | 11.2°C | 84.6% | 880.8hPa | 2.6V | 00:00:00 | 02:49:35 | 00:00:00 | |
| DO3MHA-12 | 2026-09-01 01:18:56 | 48.78722 | 11.05565 | 105° | 46km/h | 1289m | -5.3m/s | 11.2°C | 84.6% | 880.8hPa | 2.7V | 00:00:00 | 02:49:35 | 00:00:00 | |
| DO3MHA-11 | 2026-09-01 01:18:54 | 48.78727 | 11.05531 | 104° | 44km/h | 1301m | -5.9m/s | 11.1°C | 85.8% | 879.6hPa | 2.7V | 00:00:00 | 02:49:33 | 00:00:00 | |
| DO3MHA-12 | 2026-09-01 01:18:54 | 48.78727 | 11.05531 | 104° | 44km/h | 1301m | -5.9m/s | 11.1°C | 85.8% | 879.6hPa | 2.7V | 00:00:00 | 02:49:33 | 00:00:00 | |
| DO3MHA-11 | 2026-09-01 01:18:52 | 48.78733 | 11.05499 | 107° | 44km/h | 1312m | -5.3m/s | 11.0°C | 85.7% | 878.4hPa | 2.7V | 07:42:00 | 02:49:31 | 00:00:00 | |
| DO3MHA-12 | 2026-09-01 01:18:52 | 48.78733 | 11.05499 | 107° | 44km/h | 1312m | -5.3m/s | 11.0°C | 85.7% | 878.4hPa | 2.7V | 07:42:00 | 02:49:31 | 00:00:00 | |
| NBG1-10 | 2026-09-01 01:18:51 | 48.78736 | 11.05483 | 108° | 46km/h | 1317m | -5.5m/s | 10.9°C | 85.9% | 877.8hPa | 2.7V | 00:00:00 | 02:49:30 | 00:00:00 | |
| DO3MHA-12 | 2026-09-01 01:18:50 | 48.78740 | 11.05466 | 107° | 46km/h | 1323m | -5.5m/s | 10.9°C | 86.0% | 877.2hPa | 2.7V | 00:00:00 | 02:49:29 | 00:00:00 | |
| DO3MHA-11 | 2026-09-01 01:18:50 | 48.78740 | 11.05466 | 107° | 46km/h | 1323m | -5.5m/s | 10.9°C | 86.0% | 877.2hPa | 2.7V | 00:00:00 | 02:49:29 | 00:00:00 | |
| DB0NH | 2026-09-01 01:18:48 | 48.78746 | 11.05432 | 106° | 44km/h | 1334m | -5.8m/s | 10.8°C | 84.8% | 876.1hPa | 2.6V | 00:00:00 | 02:49:27 | 00:00:00 | |
| DO3MHA-11 | 2026-09-01 01:18:48 | 48.78746 | 11.05432 | 106° | 47km/h | 1334m | -5.8m/s | 10.8°C | 84.8% | 876.1hPa | 2.6V | 00:00:00 | 02:49:27 | 00:00:00 | |
| DO3MHA-12 | 2026-09-01 01:18:48 | 48.78746 | 11.05432 | 106° | 47km/h | 1334m | -5.8m/s | 10.8°C | 84.8% | 876.1hPa | 2.6V | 00:00:00 | 02:49:27 | 00:00:00 | |
| DO3MHA-12 | 2026-09-01 01:18:46 | 48.78752 | 11.05397 | 104° | 46km/h | 1345m | -5.4m/s | 10.7°C | 85.4% | 874.9hPa | 2.7V | 00:00:00 | 02:49:25 | 00:00:00 | |
| DO3MHA-11 | 2026-09-01 01:18:46 | 48.78752 | 11.05397 | 104° | 46km/h | 1345m | -5.4m/s | 10.7°C | 85.4% | 874.9hPa | 2.7V | 00:00:00 | 02:49:25 | 00:00:00 | |
| DO3MHA-11 | 2026-09-01 01:18:44 | 48.78757 | 11.05364 | 105° | 44km/h | 1356m | -5.6m/s | 10.6°C | 86.0% | 873.7hPa | 2.7V | 00:00:00 | 02:49:23 | 00:00:00 | |
| NBG1-10 | 2026-09-01 01:18:44 | 48.78757 | 11.05364 | 105° | 44km/h | 1356m | -5.6m/s | 10.6°C | 86.0% | 873.7hPa | 2.6V | 00:00:00 | 02:49:23 | 00:00:00 | |
| DO3MHA-12 | 2026-09-01 01:18:44 | 48.78757 | 11.05364 | 105° | 44km/h | 1356m | -5.6m/s | 10.6°C | 86.0% | 873.7hPa | 2.6V | 00:00:00 | 02:49:23 | 00:00:00 | |
| DO3MHA-11 | 2026-09-01 01:18:42 | 48.78763 | 11.05331 | 105° | 44km/h | 1367m | -5.5m/s | 10.5°C | 86.4% | 872.5hPa | 2.6V | 00:00:00 | 02:49:21 | 00:00:00 | |
| DO3MHA-12 | 2026-09-01 01:18:42 | 48.78763 | 11.05331 | 105° | 44km/h | 1367m | -5.5m/s | 10.5°C | 86.4% | 872.5hPa | 2.6V | 00:00:00 | 02:49:21 | 00:00:00 | |
| DO3MHA-12 | 2026-09-01 01:18:40 | 48.78769 | 11.05299 | 107° | 44km/h | 1378m | -5.7m/s | 10.4°C | 87.4% | 871.5hPa | 2.7V | 00:00:00 | 02:49:19 | 00:00:00 | |
| DO3MHA-11 | 2026-09-01 01:18:40 | 48.78769 | 11.05299 | 107° | 44km/h | 1378m | -5.7m/s | 10.4°C | 87.4% | 871.5hPa | 2.7V | 00:00:00 | 02:49:19 | 00:00:00 | |
| DO3MHA-11 | 2026-09-01 01:18:38 | 48.78775 | 11.05267 | 106° | 44km/h | 1389m | -5.4m/s | 10.3°C | 87.6% | 870.1hPa | 2.7V | 00:00:00 | 02:49:17 | 00:00:00 | |
| DO3MHA-12 | 2026-09-01 01:18:38 | 48.78775 | 11.05267 | 106° | 44km/h | 1389m | -5.4m/s | 10.3°C | 87.6% | 870.1hPa | 2.7V | 00:00:00 | 02:49:17 | 00:00:00 | |
| DB0NH | 2026-09-01 01:18:38 | 48.78775 | 11.05267 | 106° | 44km/h | 1389m | -5.4m/s | 10.3°C | 87.6% | 870.1hPa | 2.7V | 07:42:00 | 02:49:17 | 00:00:00 | |
| NBG1-10 | 2026-09-01 01:18:37 | 48.78777 | 11.05250 | 106° | 44km/h | 1395m | -5.7m/s | 10.2°C | 88.1% | 869.6hPa | 2.7V | 07:42:00 | 02:49:16 | 00:00:00 | |
| DO3MHA-12 | 2026-09-01 01:18:36 | 48.78780 | 11.05234 | 106° | 44km/h | 1401m | -5.5m/s | 10.2°C | 88.4% | 869.1hPa | 2.7V | 07:42:00 | 02:49:15 | 00:00:00 | |
| DO3MHA-11 | 2026-09-01 01:18:36 | 48.78780 | 11.05234 | 106° | 44km/h | 1401m | -5.5m/s | 10.2°C | 88.4% | 869.1hPa | 2.7V | 07:42:00 | 02:49:15 | 00:00:00 | |
| DO3MHA-12 | 2026-09-01 01:18:34 | 48.78786 | 11.05201 | 102° | 44km/h | 1412m | -5.4m/s | 10.1°C | 88.5% | 867.9hPa | 2.7V | 00:00:00 | 02:49:13 | 00:00:00 | |
| DO3MHA-11 | 2026-09-01 01:18:34 | 48.78786 | 11.05201 | 102° | 44km/h | 1412m | -5.4m/s | 10.1°C | 88.5% | 867.9hPa | 2.7V | 00:00:00 | 02:49:13 | 00:00:00 | |
| DO3MHA-12 | 2026-09-01 01:18:32 | 48.78790 | 11.05169 | 104° | 44km/h | 1423m | -5.6m/s | 10.0°C | 88.9% | 866.7hPa | 2.7V | 00:00:00 | 02:49:11 | 00:00:00 | |
| DO3MHA-11 | 2026-09-01 01:18:32 | 48.78790 | 11.05169 | 104° | 44km/h | 1423m | -5.6m/s | 10.0°C | 88.9% | 866.7hPa | 2.7V | 00:00:00 | 02:49:11 | 00:00:00 | |
| DO3MHA-12 | 2026-09-01 01:18:30 | 48.78796 | 11.05137 | 104° | 42km/h | 1433m | -5.7m/s | 9.9°C | 89.0% | 865.6hPa | 2.7V | 00:00:00 | 02:49:09 | 00:00:00 | |
| DO3MHA-11 | 2026-09-01 01:18:30 | 48.78796 | 11.05137 | 104° | 42km/h | 1433m | -5.7m/s | 9.9°C | 89.0% | 865.6hPa | 2.7V | 00:00:00 | 02:49:09 | 00:00:00 | |
| NBG1-10 | 2026-09-01 01:18:30 | 48.78796 | 11.05137 | 104° | 44km/h | 1433m | -5.7m/s | 9.9°C | 89.0% | 865.6hPa | 2.7V | 00:00:00 | 02:49:09 | 00:00:00 | |
| DO3MHA-11 | 2026-09-01 01:18:28 | 48.78801 | 11.05106 | 106° | 42km/h | 1445m | -5.6m/s | 9.8°C | 89.3% | 864.4hPa | 2.7V | 00:00:00 | 02:49:07 | 00:00:00 | |
| DO3MHA-12 | 2026-09-01 01:18:28 | 48.78801 | 11.05106 | 106° | 42km/h | 1445m | -5.6m/s | 9.8°C | 89.3% | 864.4hPa | 2.7V | 00:00:00 | 02:49:07 | 00:00:00 | |
| DB0NH | 2026-09-01 01:18:28 | 48.78801 | 11.05106 | 106° | 44km/h | 1445m | -5.6m/s | 9.8°C | 89.3% | 864.4hPa | 2.7V | 00:00:00 | 02:49:07 | 00:00:00 | |
| DO3MHA-12 | 2026-09-01 01:18:26 | 48.78807 | 11.05074 | 106° | 44km/h | 1456m | -5.3m/s | 9.7°C | 89.8% | 863.3hPa | 2.6V | 00:00:00 | 02:49:05 | 00:00:00 | |
| DO3MHA-11 | 2026-09-01 01:18:26 | 48.78807 | 11.05074 | 106° | 44km/h | 1456m | -5.3m/s | 9.7°C | 89.8% | 863.3hPa | 2.6V | 00:00:00 | 02:49:05 | 00:00:00 | |
| DO3MHA-12 | 2026-09-01 01:18:24 | 48.78813 | 11.05042 | 106° | 42km/h | 1467m | -5.9m/s | 9.6°C | 90.1% | 862.1hPa | 2.7V | 00:00:00 | 02:49:03 | 00:00:00 | |
| DO3MHA-11 | 2026-09-01 01:18:24 | 48.78813 | 11.05042 | 106° | 42km/h | 1467m | -5.9m/s | 9.6°C | 90.1% | 862.1hPa | 2.7V | 00:00:00 | 02:49:03 | 00:00:00 | |
| NBG1-10 | 2026-09-01 01:18:23 | 48.78816 | 11.05026 | 107° | 44km/h | 1472m | -5.1m/s | 9.5°C | 90.1% | 861.7hPa | 2.7V | 00:00:00 | 02:49:02 | 00:00:00 | |
| DO3MHA-12 | 2026-09-01 01:18:22 | 48.78819 | 11.05010 | 107° | 44km/h | 1478m | -5.2m/s | 9.5°C | 90.3% | 861.1hPa | 2.7V | 00:00:00 | 02:49:01 | 00:00:00 | |
| DO3MHA-11 | 2026-09-01 01:18:22 | 48.78819 | 11.05010 | 107° | 44km/h | 1478m | -5.2m/s | 9.5°C | 90.3% | 861.1hPa | 2.7V | 00:00:00 | 02:49:01 | 00:00:00 | |
| DO3MHA-12 | 2026-09-01 01:18:20 | 48.78825 | 11.04978 | 105° | 44km/h | 1488m | -5.4m/s | 9.4°C | 90.0% | 859.9hPa | 2.7V | 07:43:00 | 02:48:59 | 00:00:00 | |
| DO3MHA-11 | 2026-09-01 01:18:20 | 48.78825 | 11.04978 | 105° | 44km/h | 1488m | -5.4m/s | 9.4°C | 90.0% | 859.9hPa | 2.7V | 07:43:00 | 02:48:59 | 00:00:00 | |
| DB0NH | 2026-09-01 01:18:18 | 48.78830 | 11.04946 | 107° | 46km/h | 1499m | -6.1m/s | 9.3°C | 89.4% | 858.7hPa | 2.6V | 00:00:00 | 02:48:57 | 00:00:00 | |
| DO3MHA-12 | 2026-09-01 01:18:18 | 48.78830 | 11.04946 | 107° | 44km/h | 1499m | -6.1m/s | 9.3°C | 89.4% | 858.7hPa | 2.6V | 00:00:00 | 02:48:57 | 00:00:00 | |
| DO3MHA-11 | 2026-09-01 01:18:18 | 48.78830 | 11.04946 | 107° | 44km/h | 1499m | -6.1m/s | 9.3°C | 89.4% | 858.7hPa | 2.7V | 00:00:00 | 02:48:57 | 00:00:00 | |
| NBG1-10 | 2026-09-01 01:18:16 | 48.78836 | 11.04914 | 105° | 49km/h | 1511m | -5.9m/s | 9.2°C | 89.7% | 857.6hPa | 2.7V | 00:00:00 | 02:48:55 | 00:00:00 | |
| DO3MHA-11 | 2026-09-01 01:18:15 | 48.78839 | 11.04897 | 105° | 46km/h | 1517m | -5.8m/s | 9.1°C | 90.5% | 856.8hPa | 2.7V | 00:00:00 | 02:48:54 | 00:00:00 | |
| DO3MHA-12 | 2026-09-01 01:18:15 | 48.78839 | 11.04897 | 105° | 46km/h | 1517m | -5.8m/s | 9.1°C | 90.5% | 856.8hPa | 2.7V | 00:00:00 | 02:48:54 | 00:00:00 | |
| DO3MHA-12 | 2026-09-01 01:18:10 | 48.78856 | 11.04812 | 106° | 47km/h | 1545m | -5.5m/s | 9.1°C | 82.9% | 854.0hPa | 2.7V | 00:00:00 | 02:48:49 | 00:00:00 | |
| DO3MHA-11 | 2026-09-01 01:18:10 | 48.78856 | 11.04812 | 106° | 47km/h | 1545m | -5.5m/s | 9.1°C | 82.9% | 854.0hPa | 2.7V | 00:00:00 | 02:48:49 | 00:00:00 | |
| DB0NH | 2026-09-01 01:18:08 | 48.78862 | 11.04776 | 104° | 49km/h | 1556m | -5.5m/s | 9.1°C | 80.0% | 852.8hPa | 2.7V | 00:00:00 | 02:48:47 | 00:00:00 | |
| DO3MHA-12 | 2026-09-01 01:18:05 | 48.78871 | 11.04722 | 105° | 49km/h | 1572m | -5.8m/s | 9.0°C | 79.8% | 851.2hPa | 2.7V | 00:00:00 | 02:48:44 | 00:00:00 | |
| DO3MHA-11 | 2026-09-01 01:18:05 | 48.78871 | 11.04722 | 105° | 49km/h | 1572m | -5.8m/s | 9.0°C | 79.8% | 851.2hPa | 2.7V | 00:00:00 | 02:48:44 | 00:00:00 | |
| DO3MHA-11 | 2026-09-01 01:18:00 | 48.78887 | 11.04628 | 104° | 51km/h | 1600m | -6.0m/s | 8.9°C | 80.5% | 848.2hPa | 2.7V | 00:00:00 | 02:48:39 | 00:00:00 | |
| DO3MHA-12 | 2026-09-01 01:18:00 | 48.78887 | 11.04628 | 104° | 51km/h | 1600m | -6.0m/s | 8.9°C | 80.5% | 848.2hPa | 2.7V | 00:00:00 | 02:48:39 | 00:00:00 | |
| DB0NH | 2026-09-01 01:17:58 | 48.78893 | 11.04590 | 105° | 53km/h | 1612m | -5.4m/s | 8.8°C | 80.9% | 847.1hPa | 2.7V | 00:00:00 | 02:48:37 | 00:00:00 | |
| DO3MHA-11 | 2026-09-01 01:17:55 | 48.78903 | 11.04532 | 104° | 53km/h | 1628m | -5.3m/s | 8.7°C | 81.7% | 845.3hPa | 2.7V | 00:00:00 | 02:48:34 | 00:00:00 | |
| DO3MHA-12 | 2026-09-01 01:17:55 | 48.78903 | 11.04532 | 104° | 53km/h | 1628m | -5.3m/s | 8.7°C | 81.7% | 845.3hPa | 2.7V | 00:00:00 | 02:48:34 | 00:00:00 | |
| NBG1-10 | 2026-09-01 01:17:54 | 48.78906 | 11.04512 | 105° | 53km/h | 1633m | -5.7m/s | 8.6°C | 81.9% | 844.8hPa | 2.7V | 00:00:00 | 02:48:33 | 00:00:00 | |
| DO3MHA-11 | 2026-09-01 01:17:50 | 48.78919 | 11.04434 | 105° | 53km/h | 1656m | -5.9m/s | 8.5°C | 84.4% | 842.6hPa | 2.7V | 00:00:00 | 02:48:29 | 00:00:00 | |
| DO3MHA-12 | 2026-09-01 01:17:50 | 48.78919 | 11.04434 | 105° | 53km/h | 1656m | -5.9m/s | 8.5°C | 84.4% | 842.6hPa | 2.7V | 00:00:00 | 02:48:29 | 00:00:00 | |
| DB0NH | 2026-09-01 01:17:48 | 48.78925 | 11.04394 | 104° | 53km/h | 1668m | -6.0m/s | 8.4°C | 84.8% | 841.5hPa | 2.7V | 00:00:00 | 02:48:27 | 00:00:00 | |
| DO3MHA-12 | 2026-09-01 01:17:45 | 48.78935 | 11.04334 | 103° | 53km/h | 1684m | -5.4m/s | 8.3°C | 84.9% | 839.8hPa | 2.7V | 07:43:00 | 02:48:24 | 00:00:00 | |
| DO3MHA-11 | 2026-09-01 01:17:45 | 48.78935 | 11.04334 | 103° | 53km/h | 1684m | -5.4m/s | 8.3°C | 84.9% | 839.8hPa | 2.7V | 07:43:00 | 02:48:24 | 00:00:00 | |
| DO3MHA-11 | 2026-09-01 01:17:40 | 48.78950 | 11.04235 | 104° | 55km/h | 1713m | -5.9m/s | 8.1°C | 85.4% | 836.7hPa | 2.7V | 00:00:00 | 02:48:19 | 00:00:00 | |
| DO3MHA-12 | 2026-09-01 01:17:40 | 48.78950 | 11.04235 | 104° | 55km/h | 1713m | -5.9m/s | 8.1°C | 85.4% | 836.7hPa | 2.7V | 00:00:00 | 02:48:19 | 00:00:00 | |
| DB0NH | 2026-09-01 01:17:38 | 48.78956 | 11.04195 | 104° | 53km/h | 1724m | -5.7m/s | 8.0°C | 85.9% | 835.6hPa | 2.7V | 00:00:00 | 02:48:17 | 00:00:00 | |
| DO3MHA-11 | 2026-09-01 01:17:35 | 48.78965 | 11.04134 | 103° | 53km/h | 1742m | -5.8m/s | 7.8°C | 86.3% | 834.0hPa | 2.7V | 00:00:00 | 02:48:14 | 00:00:00 | |
| DO3MHA-12 | 2026-09-01 01:17:35 | 48.78965 | 11.04134 | 103° | 53km/h | 1742m | -5.8m/s | 7.8°C | 86.3% | 834.0hPa | 2.7V | 00:00:00 | 02:48:14 | 00:00:00 | |
| NBG1-10 | 2026-09-01 01:17:32 | 48.78974 | 11.04075 | 104° | 53km/h | 1759m | -5.8m/s | 7.6°C | 86.4% | 832.1hPa | 2.6V | 00:00:00 | 02:48:11 | 00:00:00 | |
| DO3MHA-12 | 2026-09-01 01:17:30 | 48.78980 | 11.04036 | 104° | 53km/h | 1770m | -5.7m/s | 7.5°C | 86.5% | 830.9hPa | 2.6V | 00:00:00 | 02:48:09 | 00:00:00 | |
| DO3MHA-11 | 2026-09-01 01:17:30 | 48.78980 | 11.04036 | 104° | 53km/h | 1770m | -5.7m/s | 7.5°C | 86.5% | 830.9hPa | 2.6V | 00:00:00 | 02:48:09 | 00:00:00 | |
| DB0NH | 2026-09-01 01:17:28 | 48.78987 | 11.03996 | 104° | 53km/h | 1782m | -5.8m/s | 7.4°C | 86.2% | 829.7hPa | 2.6V | 00:00:00 | 02:48:07 | 00:00:00 | |
| DO3MHA-11 | 2026-09-01 01:17:25 | 48.78997 | 11.03937 | 106° | 55km/h | 1798m | -5.5m/s | 7.3°C | 87.0% | 828.1hPa | 2.7V | 00:00:00 | 02:48:04 | 00:00:00 | |
| DO3MHA-12 | 2026-09-01 01:17:25 | 48.78997 | 11.03937 | 106° | 55km/h | 1798m | -5.5m/s | 7.3°C | 87.0% | 828.1hPa | 2.6V | 00:00:00 | 02:48:04 | 00:00:00 | |
| DO3MHA-12 | 2026-09-01 01:17:20 | 48.79015 | 11.03837 | 105° | 53km/h | 1827m | -6.0m/s | 7.1°C | 84.5% | 825.1hPa | 2.6V | 00:00:00 | 02:47:59 | 00:00:00 | |
| DO3MHA-11 | 2026-09-01 01:17:20 | 48.79015 | 11.03837 | 105° | 53km/h | 1827m | -6.0m/s | 7.1°C | 84.5% | 825.1hPa | 2.7V | 00:00:00 | 02:47:59 | 00:00:00 | |
| DB0NH | 2026-09-01 01:17:18 | 48.79022 | 11.03798 | 106° | 51km/h | 1839m | -6.3m/s | 7.1°C | 81.7% | 824.0hPa | 2.7V | 07:44:00 | 02:47:57 | 00:00:00 | |
| DO3MHA-12 | 2026-09-01 01:17:15 | 48.79032 | 11.03741 | 107° | 51km/h | 1857m | -5.6m/s | 7.1°C | 77.8% | 822.3hPa | 2.7V | 00:00:00 | 02:47:54 | 00:00:00 | |
| DO3MHA-11 | 2026-09-01 01:17:15 | 48.79032 | 11.03741 | 107° | 51km/h | 1857m | -5.6m/s | 7.1°C | 77.8% | 822.3hPa | 2.7V | 00:00:00 | 02:47:54 | 00:00:00 | |
| DO3MHA-12 | 2026-09-01 01:17:10 | 48.79051 | 11.03647 | 106° | 51km/h | 1885m | -6.0m/s | 7.1°C | 74.2% | 819.5hPa | 2.7V | 00:00:00 | 02:47:49 | 00:00:00 | |
| DO3MHA-11 | 2026-09-01 01:17:10 | 48.79051 | 11.03647 | 106° | 51km/h | 1885m | -6.0m/s | 7.1°C | 74.2% | 819.5hPa | 2.7V | 00:00:00 | 02:47:49 | 00:00:00 | |
| NBG1-10 | 2026-09-01 01:17:10 | 48.79051 | 11.03647 | 106° | 49km/h | 1885m | -6.0m/s | 7.1°C | 74.2% | 819.5hPa | 2.7V | 00:00:00 | 02:47:49 | 00:00:00 | |
| DB0NH | 2026-09-01 01:17:08 | 48.79059 | 11.03608 | 108° | 49km/h | 1897m | -5.6m/s | 7.1°C | 68.3% | 818.4hPa | 2.7V | 00:00:00 | 02:47:47 | 00:00:00 | |
| DO3MHA-12 | 2026-09-01 01:17:05 | 48.79070 | 11.03551 | 107° | 49km/h | 1915m | -6.2m/s | 7.1°C | 70.0% | 816.6hPa | 2.7V | 07:44:00 | 02:47:44 | 00:00:00 | |
| DO3MHA-11 | 2026-09-01 01:17:05 | 48.79070 | 11.03551 | 107° | 49km/h | 1915m | -6.2m/s | 7.1°C | 70.0% | 816.6hPa | 2.7V | 07:44:00 | 02:47:44 | 00:00:00 | |
| DL6DJ-15 | 2026-09-01 01:17:04 | 48.79074 | 11.03533 | 106° | 47km/h | 1921m | -6.0m/s | 7.1°C | 69.2% | 816.0hPa | 2.7V | 00:00:00 | 00:00:00 | 00:00:00 | |
| DO3MHA-11 | 2026-09-01 01:17:00 | 48.79088 | 11.03461 | 106° | 49km/h | 1944m | -6.0m/s | 7.0°C | 69.1% | 813.6hPa | 2.7V | 00:00:00 | 02:47:39 | 00:00:00 | |
| DO3MHA-12 | 2026-09-01 01:17:00 | 48.79088 | 11.03461 | 106° | 49km/h | 1944m | -6.0m/s | 7.0°C | 69.1% | 813.6hPa | 2.7V | 00:00:00 | 02:47:39 | 00:00:00 | |
| DB0NH | 2026-09-01 01:16:58 | 48.79095 | 11.03425 | 106° | 47km/h | 1957m | -5.9m/s | 7.0°C | 65.1% | 812.5hPa | 2.7V | 00:00:00 | 02:47:37 | 00:00:00 | |
| DO3MHA-11 | 2026-09-01 01:16:55 | 48.79105 | 11.03371 | 105° | 47km/h | 1974m | -5.7m/s | 6.9°C | 64.7% | 810.8hPa | 2.7V | 00:00:00 | 02:47:34 | 00:00:00 | |
| DO3MHA-12 | 2026-09-01 01:16:55 | 48.79105 | 11.03371 | 105° | 47km/h | 1974m | -5.7m/s | 6.9°C | 64.7% | 810.8hPa | 2.7V | 00:00:00 | 02:47:34 | 00:00:00 | |
| DO3MHA-12 | 2026-09-01 01:16:50 | 48.79117 | 11.03282 | 99° | 47km/h | 2005m | -5.9m/s | 6.7°C | 74.3% | 807.9hPa | 2.7V | 00:00:00 | 02:47:29 | 00:00:00 | |
| NBG1-10 | 2026-09-01 01:16:48 | 48.79121 | 11.03246 | 98° | 46km/h | 2016m | -5.5m/s | 6.6°C | 75.5% | 806.7hPa | 2.7V | 00:00:00 | 02:47:27 | 00:00:00 | |
| DO3MHA-12 | 2026-09-01 01:16:45 | 48.79125 | 11.03193 | 96° | 44km/h | 2033m | -5.7m/s | 6.4°C | 78.2% | 805.0hPa | 2.7V | 00:00:00 | 02:47:24 | 00:00:00 | |
| DO3MHA-11 | 2026-09-01 01:16:40 | 48.79132 | 11.03111 | 101° | 47km/h | 2062m | -5.2m/s | 6.3°C | 79.9% | 802.1hPa | 2.7V | 00:00:00 | 02:47:19 | 00:00:00 | |
| DL6DJ-15 | 2026-09-01 01:16:33 | 48.79140 | 11.02987 | 93° | 44km/h | 2101m | -5.9m/s | 6.3°C | 76.4% | 798.6hPa | 2.7V | 00:00:00 | 00:00:00 | 00:00:00 | |
| DO3MHA-11 | 2026-09-01 01:16:30 | 48.79141 | 11.02935 | 91° | 46km/h | 2119m | -5.8m/s | 6.1°C | 76.7% | 796.7hPa | 2.7V | 00:00:00 | 02:47:09 | 00:00:00 | |
| DB0NH | 2026-09-01 01:16:28 | 48.79141 | 11.02899 | 90° | 47km/h | 2130m | -6.0m/s | 6.0°C | 76.6% | 795.3hPa | 2.7V | 00:00:00 | 02:47:07 | 00:00:00 | |
| NBG1-10 | 2026-09-01 01:16:26 | 48.79140 | 11.02864 | 90° | 47km/h | 2142m | -6.0m/s | 5.9°C | 77.1% | 794.4hPa | 2.7V | 07:44:00 | 02:47:05 | 00:00:00 | |
| DO3MHA-11 | 2026-09-01 01:16:25 | 48.79140 | 11.02846 | 91° | 49km/h | 2148m | -5.8m/s | 5.8°C | 77.4% | 793.8hPa | 2.7V | 07:44:00 | 02:47:04 | 00:00:00 | |
| DO3MHA-11 | 2026-09-01 01:16:20 | 48.79139 | 11.02751 | 85° | 46km/h | 2176m | -5.4m/s | 5.6°C | 77.0% | 791.1hPa | 2.7V | 00:00:00 | 02:46:59 | 00:00:00 | |
| DF3TZ-5 | 2026-09-01 01:16:16 | 48.79138 | 11.02680 | 90° | 44km/h | 2198m | -5.8m/s | 5.5°C | 72.9% | 789.0hPa | 2.7V | 00:00:00 | 00:00:00 | 00:00:00 | |
| DO3MHA-11 | 2026-09-01 01:16:15 | 48.79138 | 11.02663 | 92° | 49km/h | 2204m | -6.1m/s | 5.4°C | 74.2% | 788.3hPa | 2.7V | 00:00:00 | 02:46:54 | 00:00:00 | |
| DO3MHA-11 | 2026-09-01 01:16:10 | 48.79138 | 11.02568 | 85° | 49km/h | 2233m | -5.6m/s | 5.2°C | 72.2% | 785.4hPa | 2.7V | 00:00:00 | 02:46:49 | 00:00:00 | |
| DB0NH | 2026-09-01 01:16:08 | 48.79135 | 11.02529 | 82° | 47km/h | 2245m | -5.7m/s | 5.1°C | 72.4% | 784.3hPa | 2.7V | 00:00:00 | 02:46:47 | 00:00:00 | |
| DO3MHA-12 | 2026-09-01 01:16:05 | 48.79131 | 11.02476 | 89° | 51km/h | 2262m | -5.9m/s | 5.0°C | 72.7% | 782.7hPa | 2.7V | 00:00:00 | 02:46:44 | 00:00:00 | |
| NBG1-10 | 2026-09-01 01:16:04 | 48.79131 | 11.02457 | 91° | 47km/h | 2267m | -6.1m/s | 5.0°C | 73.2% | 782.2hPa | 2.7V | 00:00:00 | 02:46:43 | 00:00:00 | |
| DL6DJ-15 | 2026-09-01 01:16:02 | 48.79131 | 11.02418 | 88° | 53km/h | 2280m | -6.9m/s | 5.0°C | 72.4% | 781.0hPa | 2.7V | 00:00:00 | 00:00:00 | 00:00:00 | |
| DB0ND-19 | 2026-09-01 01:15:57 | 48.79120 | 11.02302 | 80° | 42km/h | 2316m | -5.9m/s | 4.7°C | 73.7% | 777.7hPa | 2.7V | 00:00:00 | 00:00:00 | 00:00:00 | |
| DO3MHA-11 | 2026-09-01 01:15:55 | 48.79119 | 11.02286 | 84° | 44km/h | 2322m | -6.2m/s | 4.6°C | 74.2% | 777.2hPa | 2.7V | 00:00:00 | 02:46:34 | 00:00:00 | |
| DO3MHA-12 | 2026-09-01 01:15:50 | 48.79118 | 11.02202 | 92° | 49km/h | 2352m | -5.9m/s | 4.4°C | 73.9% | 774.3hPa | 2.7V | 00:00:00 | 02:46:29 | 00:00:00 | |
| DB0NH | 2026-09-01 01:15:48 | 48.79117 | 11.02165 | 89° | 49km/h | 2364m | -5.9m/s | 4.3°C | 73.4% | 773.1hPa | 2.7V | 00:00:00 | 02:46:27 | 00:00:00 | |
| DO3MHA-11 | 2026-09-01 01:15:45 | 48.79114 | 11.02107 | 81° | 47km/h | 2381m | -5.8m/s | 4.1°C | 74.1% | 771.6hPa | 2.7V | 07:45:00 | 02:46:24 | 00:00:00 | |
| NBG1-10 | 2026-09-01 01:15:42 | 48.79108 | 11.02053 | 83° | 49km/h | 2399m | -6.0m/s | 4.0°C | 74.6% | 769.9hPa | 2.7V | 00:00:00 | 02:46:21 | 00:00:00 | |
| DO3MHA-11 | 2026-09-01 01:15:40 | 48.79105 | 11.02018 | 85° | 49km/h | 2411m | -6.1m/s | 3.9°C | 74.9% | 768.7hPa | 2.7V | 00:00:00 | 02:46:19 | 00:00:00 | |
| DO3MHA-11 | 2026-09-01 01:15:35 | 48.79099 | 11.01924 | 84° | 49km/h | 2441m | -6.0m/s | 3.6°C | 75.4% | 765.9hPa | 2.6V | 00:00:00 | 02:46:14 | 00:00:00 | |
| DL6DJ-15 | 2026-09-01 01:15:32 | 48.79092 | 11.01848 | 80° | 49km/h | 2466m | -6.0m/s | 3.4°C | 73.8% | 763.7hPa | 2.6V | 00:00:00 | 00:00:00 | 00:00:00 | |
| DO3MHA-11 | 2026-09-01 01:15:30 | 48.79090 | 11.01829 | 79° | 47km/h | 2472m | -6.3m/s | 3.3°C | 75.4% | 762.9hPa | 2.6V | 00:00:00 | 02:46:09 | 00:00:00 | |
| DB0NH | 2026-09-01 01:15:28 | 48.79086 | 11.01792 | 80° | 53km/h | 2485m | -6.0m/s | 3.2°C | 75.9% | 761.9hPa | 2.6V | 00:00:00 | 02:46:07 | 00:00:00 | |
| DB0ND-19 | 2026-09-01 01:15:26 | 48.79080 | 11.01741 | 83° | 46km/h | 2503m | -5.9m/s | 3.1°C | 73.6% | 760.1hPa | 2.6V | 00:00:00 | 00:00:00 | 00:00:00 | |
| DO3MHA-11 | 2026-09-01 01:15:25 | 48.79080 | 11.01740 | 84° | 51km/h | 2503m | -5.8m/s | 3.1°C | 75.3% | 760.1hPa | 2.6V | 00:00:00 | 02:46:04 | 00:00:00 | |
| DO3MHA-12 | 2026-09-01 01:15:20 | 48.79074 | 11.01641 | 81° | 57km/h | 2533m | -6.2m/s | 2.8°C | 75.2% | 757.3hPa | 2.7V | 00:00:00 | 02:45:59 | 00:00:00 | |
| DO3MHA-12 | 2026-09-01 01:15:16 | 48.79058 | 11.01538 | 75° | 51km/h | 2563m | -5.8m/s | 2.5°C | 74.6% | 754.5hPa | 2.7V | 00:00:00 | 02:45:54 | 00:00:00 | |
| DO3MHA-11 | 2026-09-01 01:15:15 | 48.79058 | 11.01538 | 75° | 51km/h | 2563m | -5.8m/s | 2.5°C | 74.6% | 754.5hPa | 2.7V | 00:00:00 | 02:45:54 | 00:00:00 | |
| DF3TZ-5 | 2026-09-01 01:15:14 | 48.79055 | 11.01519 | 76° | 49km/h | 2568m | -5.9m/s | 2.5°C | 72.8% | 753.9hPa | 2.7V | 00:00:00 | 00:00:00 | 00:00:00 | |
| DO3MHA-11 | 2026-09-01 01:15:10 | 48.79048 | 11.01441 | 86° | 57km/h | 2592m | -5.9m/s | 2.4°C | 73.2% | 751.6hPa | 2.7V | 00:00:00 | 02:45:49 | 00:00:00 | |
| DB0NH | 2026-09-01 01:15:08 | 48.79045 | 11.01397 | 81° | 55km/h | 2605m | -6.0m/s | 2.3°C | 72.7% | 750.6hPa | 2.7V | 07:46:00 | 02:45:47 | 00:00:00 | |
| DO3MHA-11 | 2026-09-01 01:15:05 | 48.79036 | 11.01333 | 77° | 55km/h | 2622m | -6.0m/s | 2.1°C | 75.4% | 748.9hPa | 2.7V | 07:46:00 | 02:45:44 | 00:00:00 | |
| DL6DJ-15 | 2026-09-01 01:15:00 | 48.79023 | 11.01232 | 78° | 55km/h | 2652m | -6.3m/s | 1.9°C | 76.0% | 746.2hPa | 2.7V | 00:00:00 | 00:00:00 | 00:00:00 | |
| DB0ND-19 | 2026-09-01 01:14:55 | 48.79006 | 11.01107 | 79° | 55km/h | 2689m | -6.2m/s | 1.7°C | 75.7% | 742.8hPa | 2.7V | 00:00:00 | 00:00:00 | 00:00:00 | |
| DO3MHA-12 | 2026-09-01 01:14:50 | 48.78996 | 11.01023 | 80° | 57km/h | 2714m | -6.2m/s | 1.5°C | 89.2% | 740.4hPa | 2.7V | 00:00:00 | 02:45:29 | 00:00:00 | |
| DB0NH | 2026-09-01 01:14:48 | 48.78990 | 11.00981 | 79° | 55km/h | 2727m | -6.0m/s | 1.4°C | 89.7% | 739.4hPa | 2.7V | 00:00:00 | 02:45:27 | 00:00:00 | |
| DO3MHA-11 | 2026-09-01 01:14:45 | 48.78981 | 11.00918 | 80° | 55km/h | 2745m | -5.8m/s | 1.2°C | 89.6% | 737.6hPa | 2.7V | 00:00:00 | 02:45:24 | 00:00:00 | |
| DF3TZ-5 | 2026-09-01 01:14:43 | 48.78976 | 11.00876 | 79° | 53km/h | 2758m | -6.4m/s | 1.2°C | 87.9% | 736.5hPa | 2.7V | 00:00:00 | 00:00:00 | 00:00:00 | |
| DO3MHA-12 | 2026-09-01 01:14:40 | 48.78969 | 11.00816 | 80° | 55km/h | 2776m | -6.2m/s | 0.9°C | 91.2% | 734.8hPa | 2.7V | 00:00:00 | 02:45:19 | 00:00:00 | |
| NBG1-10 | 2026-09-01 01:14:36 | 48.78959 | 11.00733 | 81° | 55km/h | 2801m | -6.0m/s | 0.7°C | 92.4% | 732.6hPa | 2.7V | 00:00:00 | 02:45:15 | 00:00:00 | |
| DO3MHA-11 | 2026-09-01 01:14:35 | 48.78957 | 11.00712 | 81° | 55km/h | 2808m | -5.8m/s | 0.6°C | 92.7% | 732.0hPa | 2.7V | 00:00:00 | 02:45:14 | 00:00:00 | |
| DO3MHA-11 | 2026-09-01 01:14:30 | 48.78945 | 11.00608 | 79° | 55km/h | 2839m | -6.2m/s | 0.4°C | 94.1% | 729.1hPa | 2.7V | 00:00:00 | 02:45:09 | 00:00:00 | |
| DB0NH | 2026-09-01 01:14:28 | 48.78939 | 11.00567 | 78° | 53km/h | 2851m | -6.1m/s | 0.3°C | 94.1% | 728.0hPa | 2.7V | 00:00:00 | 02:45:07 | 00:00:00 | |
| DO3MHA-11 | 2026-09-01 01:14:25 | 48.78930 | 11.00505 | 77° | 55km/h | 2869m | -6.0m/s | 0.1°C | 95.2% | 726.4hPa | 2.7V | 07:46:00 | 02:45:04 | 00:00:00 | |
| DB0ND-19 | 2026-09-01 01:14:24 | 48.78923 | 11.00465 | 76° | 53km/h | 2881m | -6.2m/s | 0.1°C | 89.2% | 725.4hPa | 2.7V | 00:00:00 | 00:00:00 | 00:00:00 | |
| DO3MHA-11 | 2026-09-01 01:14:20 | 48.78914 | 11.00404 | 77° | 55km/h | 2899m | -6.4m/s | 0.0°C | 97.9% | 723.6hPa | 2.7V | 00:00:00 | 02:44:59 | 00:00:00 | |
| DO3MHA-11 | 2026-09-01 01:14:15 | 48.78897 | 11.00304 | 77° | 53km/h | 2931m | -6.1m/s | 0.0°C | 93.8% | 720.7hPa | 2.7V | 00:00:00 | 02:44:54 | 00:00:00 | |
| NBG1-10 | 2026-09-01 01:14:14 | 48.78894 | 11.00284 | 76° | 53km/h | 2937m | -6.0m/s | -0.0°C | 93.8% | 720.2hPa | 2.7V | 00:00:00 | 02:44:53 | 00:00:00 | |
| DF3TZ-5 | 2026-09-01 01:14:12 | 48.78887 | 11.00246 | 75° | 51km/h | 2949m | -6.5m/s | -0.1°C | 90.3% | 719.2hPa | 2.7V | 00:00:00 | 00:00:00 | 00:00:00 | |
| DO3MHA-11 | 2026-09-01 01:14:10 | 48.78880 | 11.00207 | 75° | 53km/h | 2961m | -5.9m/s | -0.1°C | 92.9% | 718.0hPa | 2.7V | 00:00:00 | 02:44:49 | 00:00:00 | |
| DB0NH | 2026-09-01 01:14:08 | 48.78873 | 11.00169 | 73° | 53km/h | 2973m | -5.9m/s | -0.2°C | 93.2% | 717.0hPa | 2.6V | 00:00:00 | 02:44:47 | 00:00:00 | |
| DO3MHA-11 | 2026-09-01 01:14:05 | 48.78860 | 11.00113 | 71° | 53km/h | 2991m | -5.9m/s | -0.3°C | 92.7% | 715.4hPa | 2.7V | 00:00:00 | 02:44:44 | 00:00:00 | |
| DL6DJ-15 | 2026-09-01 01:13:58 | 48.78831 | 10.99981 | 72° | 49km/h | 3031m | -5.8m/s | -0.7°C | 94.9% | 711.8hPa | 2.7V | 00:00:00 | 00:00:00 | 00:00:00 | |
| DB0ND-19 | 2026-09-01 01:13:53 | 48.78804 | 10.99869 | 65° | 53km/h | 3068m | -6.3m/s | -1.0°C | 96.3% | 708.6hPa | 2.7V | 00:00:00 | 00:00:00 | 00:00:00 | |
| NBG1-10 | 2026-09-01 01:13:52 | 48.78803 | 10.99869 | 66° | 53km/h | 3068m | -6.2m/s | -1.0°C | 0% | 708.6hPa | 2.7V | 00:00:00 | 02:44:31 | 00:00:00 | |
| DO3MHA-12 | 2026-09-01 01:13:50 | 48.78792 | 10.99831 | 64° | 55km/h | 3080m | -6.2m/s | -1.1°C | 0% | 707.5hPa | 2.7V | 00:00:00 | 02:44:29 | 00:00:00 | |
| DB0NH | 2026-09-01 01:13:48 | 48.78779 | 10.99793 | 65° | 55km/h | 3092m | -6.0m/s | -1.2°C | 0% | 706.5hPa | 2.7V | 00:00:00 | 02:44:27 | 00:00:00 | |
| DO3MHA-11 | 2026-09-01 01:13:45 | 48.78763 | 10.99736 | 69° | 51km/h | 3110m | -6.0m/s | -1.4°C | 0% | 704.7hPa | 2.7V | 07:47:00 | 02:44:24 | 00:00:00 | |
| DF3TZ-5 | 2026-09-01 01:13:41 | 48.78745 | 10.99663 | 68° | 51km/h | 3133m | -5.7m/s | -1.6°C | 100.0% | 702.9hPa | 2.7V | 00:00:00 | 00:00:00 | 00:00:00 | |
| DO3MHA-11 | 2026-09-01 01:13:40 | 48.78740 | 10.99645 | 68° | 51km/h | 3139m | -5.8m/s | -1.6°C | 0% | 702.3hPa | 2.7V | 00:00:00 | 02:44:19 | 00:00:00 | |
| DO3MHA-12 | 2026-09-01 01:13:35 | 48.78716 | 10.99551 | 69° | 55km/h | 3168m | -6.0m/s | -1.9°C | 0% | 699.7hPa | 2.7V | 00:00:00 | 02:44:14 | 00:00:00 | |
| NBG1-10 | 2026-09-01 01:13:30 | 48.78692 | 10.99451 | 70° | 60km/h | 3198m | -5.8m/s | -2.1°C | 0% | 697.2hPa | 2.6V | 07:47:00 | 02:44:09 | 00:00:00 | |
| DL6DJ-15 | 2026-09-01 01:13:27 | 48.78678 | 10.99390 | 71° | 58km/h | 3216m | -6.1m/s | -2.3°C | 100.0% | 695.6hPa | 2.6V | 00:00:00 | 00:00:00 | 00:00:00 | |
| DO3MHA-11 | 2026-09-01 01:13:25 | 48.78669 | 10.99348 | 72° | 58km/h | 3228m | -6.3m/s | -2.3°C | 0% | 694.5hPa | 2.6V | 00:00:00 | 02:44:04 | 00:00:00 | |
| DK5PH-5 | 2026-09-01 01:13:24 | 48.78664 | 10.99327 | 72° | 62km/h | 3234m | -5.9m/s | -2.3°C | 0% | 693.9hPa | 2.7V | 00:00:00 | 02:44:03 | 00:00:00 | |
| DB0ND-19 | 2026-09-01 01:13:22 | 48.78649 | 10.99262 | 71° | 58km/h | 3251m | -5.8m/s | -2.2°C | 83.2% | 692.5hPa | 2.7V | 00:00:00 | 00:00:00 | 00:00:00 | |
| DO3MHA-12 | 2026-09-01 01:13:20 | 48.78645 | 10.99240 | 72° | 60km/h | 3257m | -5.6m/s | -2.2°C | 84.8% | 691.9hPa | 2.7V | 00:00:00 | 02:43:59 | 00:00:00 | |
| DB0NH | 2026-09-01 01:13:18 | 48.78635 | 10.99196 | 71° | 62km/h | 3269m | -5.9m/s | -2.2°C | 81.4% | 690.9hPa | 2.6V | 00:00:00 | 02:43:57 | 00:00:00 | |
| DO3MHA-12 | 2026-09-01 01:13:15 | 48.78620 | 10.99129 | 73° | 60km/h | 3286m | -6.1m/s | -2.3°C | 79.9% | 689.4hPa | 2.6V | 00:00:00 | 02:43:54 | 00:00:00 | |
| DB0UT-7 | 2026-09-01 01:13:10 | 48.78597 | 10.99019 | 74° | 62km/h | 3316m | -5.7m/s | -2.6°C | 79.8% | 686.8hPa | 2.6V | 00:00:00 | 00:00:00 | 00:00:00 | |
| DO3MHA-11 | 2026-09-01 01:13:05 | 48.78574 | 10.98900 | 74° | 64km/h | 3346m | -5.8m/s | -2.8°C | 76.3% | 684.2hPa | 2.6V | 07:48:00 | 02:43:44 | 00:00:00 | |
| DL6DJ-15 | 2026-09-01 01:12:56 | 48.78535 | 10.98686 | 73° | 64km/h | 3399m | -5.8m/s | -2.6°C | 46.3% | 679.7hPa | 2.6V | 00:00:00 | 00:00:00 | 00:00:00 | |
| DB0ND-19 | 2026-09-01 01:12:51 | 48.78511 | 10.98549 | 76° | 60km/h | 3434m | -6.2m/s | -2.8°C | 53.9% | 676.7hPa | 2.6V | 00:00:00 | 00:00:00 | 00:00:00 | |
| DO3MHA-11 | 2026-09-01 01:12:50 | 48.78511 | 10.98549 | 77° | 62km/h | 3434m | -6.2m/s | -2.8°C | 55.7% | 676.7hPa | 2.6V | 00:00:00 | 02:43:29 | 00:00:00 | |
| DB0NH | 2026-09-01 01:12:48 | 48.78505 | 10.98503 | 80° | 60km/h | 3446m | -6.0m/s | -2.9°C | 58.0% | 675.6hPa | 2.6V | 00:00:00 | 02:43:27 | 00:00:00 | |
| DO3MHA-11 | 2026-09-01 01:12:45 | 48.78495 | 10.98434 | 79° | 60km/h | 3463m | -5.8m/s | -3.1°C | 61.0% | 674.2hPa | 2.7V | 00:00:00 | 02:43:24 | 00:00:00 | |
| DO3MHA-12 | 2026-09-01 01:12:40 | 48.78482 | 10.98319 | 83° | 62km/h | 3493m | -5.8m/s | -3.3°C | 78.5% | 671.6hPa | 2.7V | 00:00:00 | 02:43:19 | 00:00:00 | |
| DF3TZ-5 | 2026-09-01 01:12:39 | 48.78480 | 10.98296 | 83° | 60km/h | 3498m | -5.8m/s | -3.3°C | 79.5% | 671.2hPa | 2.7V | 00:00:00 | 00:00:00 | 00:00:00 | |
| DO3MHA-12 | 2026-09-01 01:12:35 | 48.78473 | 10.98203 | 84° | 60km/h | 3522m | -6.0m/s | -3.3°C | 85.5% | 669.1hPa | 2.7V | 00:00:00 | 02:43:14 | 00:00:00 | |
| DO3MHA-12 | 2026-09-01 01:12:30 | 48.78467 | 10.98085 | 86° | 62km/h | 3551m | -5.8m/s | -3.3°C | 74.2% | 666.8hPa | 2.7V | 00:00:00 | 02:43:09 | 00:00:00 | |
| NBG1-10 | 2026-09-01 01:12:28 | 48.78464 | 10.98038 | 85° | 60km/h | 3563m | -5.7m/s | -3.3°C | 70.1% | 665.8hPa | 2.7V | 00:00:00 | 02:43:07 | 00:00:00 | |
| DO3MHA-11 | 2026-09-01 01:12:25 | 48.78460 | 10.97968 | 88° | 60km/h | 3580m | -5.7m/s | -3.4°C | 61.1% | 664.3hPa | 2.6V | 07:48:00 | 02:43:04 | 00:00:00 | |
| DK5PH-5 | 2026-09-01 01:12:24 | 48.78460 | 10.97945 | 88° | 60km/h | 3585m | -5.6m/s | -3.4°C | 61.6% | 663.9hPa | 2.7V | 07:48:00 | 02:43:03 | 00:00:00 | |
| DO3MHA-12 | 2026-09-01 01:12:20 | 48.78459 | 10.97853 | 91° | 60km/h | 3608m | -5.7m/s | -3.5°C | 57.2% | 662.1hPa | 2.6V | 00:00:00 | 02:42:59 | 00:00:00 | |
| DB0ND-19 | 2026-09-01 01:12:19 | 48.78459 | 10.97830 | 90° | 58km/h | 3613m | -5.9m/s | -3.6°C | 54.0% | 661.6hPa | 2.6V | 00:00:00 | 00:00:00 | 00:00:00 | |
| DB0NH | 2026-09-01 01:12:18 | 48.78459 | 10.97807 | 92° | 58km/h | 3619m | -5.8m/s | -3.5°C | 53.1% | 661.0hPa | 2.6V | 00:00:00 | 02:42:57 | 00:00:00 | |
| DO3MHA-11 | 2026-09-01 01:12:15 | 48.78461 | 10.97737 | 92° | 60km/h | 3636m | -5.5m/s | -3.3°C | 40.3% | 659.6hPa | 2.6V | 00:00:00 | 02:42:54 | 00:00:00 | |
| DB0UT-7 | 2026-09-01 01:12:10 | 48.78461 | 10.97623 | 89° | 58km/h | 3664m | -5.6m/s | -3.3°C | 32.4% | 657.2hPa | 2.6V | 00:00:00 | 00:00:00 | 00:00:00 | |
| DF3TZ-5 | 2026-09-01 01:12:08 | 48.78462 | 10.97579 | 92° | 57km/h | 3676m | -5.6m/s | -3.3°C | 27.8% | 656.3hPa | 2.6V | 00:00:00 | 00:00:00 | 00:00:00 | |
| DO3MHA-11 | 2026-09-01 01:12:05 | 48.78464 | 10.97512 | 92° | 58km/h | 3692m | -5.3m/s | -3.1°C | 22.9% | 655.0hPa | 2.6V | 00:00:00 | 02:42:44 | 00:00:00 | |
| DL6DJ-15 | 2026-09-01 01:11:54 | 48.78468 | 10.97240 | 90° | 57km/h | 3760m | -6.0m/s | -3.4°C | 23.2% | 649.4hPa | 2.6V | 00:00:00 | 00:00:00 | 00:00:00 | |
| DO3MHA-11 | 2026-09-01 01:11:50 | 48.78469 | 10.97174 | 92° | 58km/h | 3776m | -5.5m/s | -3.5°C | 24.6% | 648.0hPa | 2.6V | 00:00:00 | 02:42:29 | 00:00:00 | |
| DB0NH | 2026-09-01 01:11:48 | 48.78470 | 10.97129 | 94° | 60km/h | 3787m | -5.5m/s | -3.6°C | 25.6% | 647.1hPa | 2.6V | 07:49:00 | 02:42:27 | 00:00:00 | |
| DO3MHA-11 | 2026-09-01 01:11:45 | 48.78473 | 10.97062 | 95° | 58km/h | 3804m | -5.9m/s | -3.7°C | 27.3% | 645.6hPa | 2.6V | 07:49:00 | 02:42:24 | 00:00:00 | |
| DB0UT-7 | 2026-09-01 01:11:40 | 48.78478 | 10.96949 | 95° | 60km/h | 3833m | -5.6m/s | -3.8°C | 28.7% | 643.3hPa | 2.6V | 00:00:00 | 02:42:19 | 00:00:00 | |
| DF3TZ-5 | 2026-09-01 01:11:37 | 48.78482 | 10.96880 | 94° | 58km/h | 3849m | -5.8m/s | -3.9°C | 26.4% | 641.9hPa | 2.6V | 00:00:00 | 00:00:00 | 00:00:00 | |
| DO3MHA-11 | 2026-09-01 01:11:35 | 48.78484 | 10.96835 | 96° | 58km/h | 3861m | -5.7m/s | -3.8°C | 26.4% | 641.0hPa | 2.6V | 00:00:00 | 02:42:14 | 00:00:00 | |
| DO3MHA-11 | 2026-09-01 01:11:30 | 48.78491 | 10.96722 | 97° | 60km/h | 3890m | -5.9m/s | -4.0°C | 27.0% | 638.7hPa | 2.6V | 00:00:00 | 02:42:09 | 00:00:00 | |
| DO3MHA-11 | 2026-09-01 01:11:25 | 48.78499 | 10.96608 | 98° | 60km/h | 3919m | -5.6m/s | -3.9°C | 23.9% | 636.3hPa | 2.6V | 00:00:00 | 02:42:04 | 00:00:00 | |
| DK5PH-5 | 2026-09-01 01:11:24 | 48.78501 | 10.96586 | 97° | 60km/h | 3926m | -6.0m/s | -4.0°C | 24.0% | 635.7hPa | 2.6V | 00:00:00 | 02:42:03 | 00:00:00 | |
| DL6DJ-15 | 2026-09-01 01:11:23 | 48.78504 | 10.96539 | 93° | 58km/h | 3936m | -5.9m/s | -4.1°C | 23.5% | 635.0hPa | 2.6V | 00:00:00 | 00:00:00 | 00:00:00 | |
| NBG1-10 | 2026-09-01 01:11:22 | 48.78504 | 10.96539 | 94° | 60km/h | 3937m | -5.8m/s | -4.1°C | 24.4% | 635.0hPa | 2.6V | 00:00:00 | 02:42:01 | 00:00:00 | |
| DO3MHA-12 | 2026-09-01 01:11:20 | 48.78506 | 10.96493 | 96° | 58km/h | 3949m | -6.1m/s | -4.2°C | 24.5% | 633.9hPa | 2.6V | 00:00:00 | 02:41:59 | 00:00:00 | |
| DB0NH | 2026-09-01 01:11:18 | 48.78509 | 10.96448 | 95° | 60km/h | 3960m | -6.1m/s | -4.3°C | 24.5% | 633.1hPa | 2.7V | 00:00:00 | 02:41:57 | 00:00:00 | |
| DB0ND-19 | 2026-09-01 01:11:17 | 48.78511 | 10.96426 | 96° | 57km/h | 3966m | -5.9m/s | -4.4°C | 23.6% | 632.6hPa | 2.6V | 00:00:00 | 00:00:00 | 00:00:00 | |
| DO3MHA-11 | 2026-09-01 01:11:15 | 48.78514 | 10.96381 | 98° | 60km/h | 3978m | -6.0m/s | -4.4°C | 24.9% | 631.6hPa | 2.6V | 00:00:00 | 02:41:54 | 00:00:00 | |
| DB0UT-7 | 2026-09-01 01:11:10 | 48.78522 | 10.96268 | 96° | 62km/h | 4008m | -6.1m/s | -4.5°C | 21.9% | 629.4hPa | 2.6V | 00:00:00 | 00:00:00 | 00:00:00 | |
| DF3TZ-5 | 2026-09-01 01:11:06 | 48.78527 | 10.96176 | 95° | 58km/h | 4030m | -6.1m/s | -4.5°C | 18.0% | 627.5hPa | 2.7V | 00:00:00 | 00:00:00 | 00:00:00 | |
| DO3MHA-12 | 2026-09-01 01:11:05 | 48.78529 | 10.96153 | 96° | 60km/h | 4036m | -5.9m/s | -4.5°C | 21.3% | 627.0hPa | 2.7V | 07:50:00 | 02:41:44 | 00:00:00 | |
| DL6DJ-15 | 2026-09-01 01:10:52 | 48.78546 | 10.95824 | 98° | 60km/h | 4117m | -5.8m/s | -5.1°C | 28.5% | 620.6hPa | 2.6V | 00:00:00 | 00:00:00 | 00:00:00 | |
| DB0ND-19 | 2026-09-01 01:10:46 | 48.78556 | 10.95705 | 96° | 62km/h | 4146m | -5.9m/s | -5.3°C | 27.9% | 618.4hPa | 2.6V | 00:00:00 | 00:00:00 | 00:00:00 | |
| DO3MHA-12 | 2026-09-01 01:10:45 | 48.78558 | 10.95681 | 98° | 64km/h | 4153m | -6.0m/s | -5.3°C | 29.2% | 617.9hPa | 2.6V | 00:00:00 | 02:41:24 | 00:00:00 | |
| DO3MHA-12 | 2026-09-01 01:10:40 | 48.78567 | 10.95558 | 96° | 64km/h | 4182m | -5.8m/s | -5.4°C | 27.9% | 615.6hPa | 2.6V | 00:00:00 | 02:41:19 | 00:00:00 | |
| DO3MHA-11 | 2026-09-01 01:10:35 | 48.78578 | 10.95436 | 99° | 66km/h | 4211m | -5.9m/s | -5.5°C | 24.6% | 613.2hPa | 2.6V | 00:00:00 | 02:41:14 | 00:00:00 | |
| OE3JTB-15 | 2026-09-01 01:10:31 | 48.78587 | 10.95336 | 100° | 68km/h | 4235m | -6.3m/s | -5.5°C | 21.9% | 611.6hPa | 2.6V | 00:00:00 | 00:00:00 | 00:00:00 | |
| DO3MHA-11 | 2026-09-01 01:10:30 | 48.78590 | 10.95310 | 100° | 66km/h | 4241m | -5.9m/s | -5.5°C | 22.0% | 611.0hPa | 2.6V | 00:00:00 | 02:41:09 | 00:00:00 | |
| DO3MHA-11 | 2026-09-01 01:10:25 | 48.78603 | 10.95184 | 98° | 68km/h | 4270m | -5.9m/s | -5.7°C | 21.9% | 608.8hPa | 2.6V | 07:50:00 | 02:41:04 | 00:00:00 | |
| DK5PH-5 | 2026-09-01 01:10:24 | 48.78606 | 10.95158 | 97° | 66km/h | 4276m | -5.8m/s | -5.8°C | 21.8% | 608.2hPa | 2.6V | 00:00:00 | 02:41:03 | 00:00:00 | |
| DL6DJ-15 | 2026-09-01 01:10:21 | 48.78614 | 10.95056 | 96° | 69km/h | 4299m | -5.7m/s | -5.9°C | 19.9% | 606.4hPa | 2.6V | 00:00:00 | 00:00:00 | 00:00:00 | |
| DO3MHA-11 | 2026-09-01 01:10:20 | 48.78614 | 10.95056 | 97° | 68km/h | 4300m | -5.7m/s | -5.8°C | 20.8% | 606.3hPa | 2.6V | 00:00:00 | 02:40:59 | 00:00:00 | |
| DB0NH | 2026-09-01 01:10:18 | 48.78617 | 10.95003 | 97° | 66km/h | 4311m | -6.1m/s | -5.9°C | 20.5% | 605.5hPa | 2.6V | 00:00:00 | 02:40:57 | 00:00:00 | |
| NBG1-10 | 2026-09-01 01:10:16 | 48.78622 | 10.94953 | 100° | 66km/h | 4323m | -5.7m/s | -6.0°C | 20.6% | 604.6hPa | 2.6V | 00:00:00 | 02:40:55 | 00:00:00 | |
| DO3MHA-11 | 2026-09-01 01:10:15 | 48.78625 | 10.94927 | 100° | 68km/h | 4328m | -6.0m/s | -6.0°C | 20.7% | 604.2hPa | 2.6V | 00:00:00 | 02:40:54 | 00:00:00 | |
| DB0UT-7 | 2026-09-01 01:10:10 | 48.78638 | 10.94800 | 100° | 64km/h | 4358m | -6.1m/s | -6.1°C | 20.8% | 601.9hPa | 2.6V | 00:00:00 | 00:00:00 | 00:00:00 | |
| DO9HM | 2026-09-01 01:10:06 | 48.78645 | 10.94723 | 98° | 66km/h | 4375m | -6.0m/s | -6.1°C | 16.4% | 600.6hPa | 2.6V | 07:51:00 | 00:00:00 | 00:00:00 | |
| DO3MHA-11 | 2026-09-01 01:10:05 | 48.78650 | 10.94674 | 99° | 64km/h | 4387m | -5.8m/s | -6.1°C | 16.7% | 599.7hPa | 2.6V | 00:00:00 | 02:40:44 | 00:00:00 | |
| DF3TZ-5 | 2026-09-01 01:10:04 | 48.78655 | 10.94625 | 98° | 62km/h | 4399m | -6.0m/s | -6.2°C | 16.0% | 598.7hPa | 2.6V | 00:00:00 | 00:00:00 | 00:00:00 | |
| DF7PN | 2026-09-01 01:09:55 | 48.78677 | 10.94430 | 100° | 64km/h | 4446m | -6.0m/s | -6.5°C | 18.1% | 595.2hPa | 2.6V | 00:00:00 | 00:00:00 | 00:00:00 | |
| DL6DJ-15 | 2026-09-01 01:09:49 | 48.78691 | 10.94284 | 100° | 62km/h | 4482m | -6.0m/s | -6.8°C | 18.3% | 592.5hPa | 2.6V | 00:00:00 | 00:00:00 | 00:00:00 | |
| DB0NH | 2026-09-01 01:09:48 | 48.78695 | 10.94260 | 103° | 66km/h | 4488m | -5.9m/s | -6.8°C | 18.9% | 591.9hPa | 2.6V | 00:00:00 | 02:40:27 | 00:00:00 | |
| DO9HM | 2026-09-01 01:09:46 | 48.78698 | 10.94236 | 103° | 64km/h | 4494m | -6.3m/s | -6.9°C | 18.0% | 591.6hPa | 2.6V | 00:00:00 | 00:00:00 | 00:00:00 | |
| DO3MHA-12 | 2026-09-01 01:09:45 | 48.78704 | 10.94188 | 101° | 64km/h | 4506m | -6.1m/s | -6.9°C | 18.7% | 590.6hPa | 2.6V | 07:51:00 | 02:40:24 | 00:00:00 | |
| NBG1-10 | 2026-09-01 01:09:43 | 48.78710 | 10.94140 | 102° | 66km/h | 4517m | -5.9m/s | -7.0°C | 19.2% | 589.6hPa | 2.6V | 00:00:00 | 02:40:22 | 00:00:00 | |
| DO3MHA-12 | 2026-09-01 01:09:40 | 48.78720 | 10.94067 | 101° | 68km/h | 4535m | -6.1m/s | -7.1°C | 19.1% | 588.4hPa | 2.6V | 00:00:00 | 02:40:19 | 00:00:00 | |
| DO3MHA-11 | 2026-09-01 01:09:35 | 48.78736 | 10.93940 | 99° | 66km/h | 4566m | -6.0m/s | -7.3°C | 18.9% | 586.0hPa | 2.6V | 00:00:00 | 02:40:14 | 00:00:00 | |
| DK7TD | 2026-09-01 01:09:16 | 48.78791 | 10.93470 | 101° | 66km/h | 4682m | -6.6m/s | -7.8°C | 16% | 577.3hPa | 2.6V | 07:52:14 | 02:39:55 | 00:00:00 | |
| DK7TD | 2026-09-01 01:09:05 | 48.78827 | 10.93198 | 102° | 66km/h | 4751m | -6.5m/s | -7.8°C | 11.9% | 572.4hPa | 2.6V | 07:53:05 | 02:39:44 | 00:00:00 | |
| DK7TD | 2026-09-01 01:08:55 | 48.78864 | 10.92956 | 102° | 66km/h | 4814m | -6.4m/s | -8.3°C | 12.1% | 567.9hPa | 2.5V | 07:53:05 | 02:39:34 | 00:00:00 | |
| DK7TD | 2026-09-01 01:08:45 | 48.78903 | 10.92719 | 103° | 62km/h | 4876m | -6.3m/s | -8.7°C | 11.1% | 563.2hPa | 2.6V | 07:53:05 | 02:39:24 | 00:00:00 | |
| DK7TD | 2026-09-01 01:08:34 | 48.78940 | 10.92459 | 102° | 60km/h | 4942m | -6.5m/s | -9.1°C | 9.5% | 558.3hPa | 2.5V | 07:53:05 | 02:39:13 | 00:00:00 | |
| DK7TD | 2026-09-01 01:08:24 | 48.78971 | 10.92222 | 101° | 62km/h | 5004m | -5.9m/s | -9.5°C | 9.2% | 554hPa | 2.6V | 07:53:05 | 02:39:03 | 00:00:00 | |
| DK7TD | 2026-09-01 01:08:13 | 48.79011 | 10.91956 | 103° | 66km/h | 5070m | -5.9m/s | -10°C | 9.1% | 549.1hPa | 2.6V | 07:53:56 | 02:38:52 | 00:00:00 | |
| DK7TD | 2026-09-01 01:08:02 | 48.79052 | 10.91694 | 106° | 66km/h | 5137m | -6.2m/s | -10.4°C | 7.7% | 544.3hPa | 2.6V | 07:53:56 | 02:38:41 | 00:00:00 | |
| DK7TD | 2026-09-01 01:07:52 | 48.79095 | 10.91450 | 105° | 68km/h | 5199m | -6.4m/s | -10.7°C | 6.4% | 540hPa | 2.5V | 07:53:56 | 02:38:31 | 00:00:00 | |
| DF7PN | 2026-09-01 01:07:51 | 48.79099 | 10.91425 | 103° | 68km/h | 5205m | -6.7m/s | -10.8°C | 6.3% | 539.5hPa | 2.6V | 00:00:00 | 00:00:00 | 00:00:00 | |
| DL6DJ-15 | 2026-09-01 01:07:45 | 48.79124 | 10.91276 | 105° | 69km/h | 5243m | -6.6m/s | -10.9°C | 5.3% | 536.9hPa | 2.6V | 00:00:00 | 00:00:00 | 00:00:00 | |
| DK7TD | 2026-09-01 01:07:42 | 48.79138 | 10.91199 | 105° | 69km/h | 5262m | -6.4m/s | -11°C | 4.5% | 535.6hPa | 2.6V | 07:53:56 | 02:38:21 | 00:00:00 | |
| DK7TD | 2026-09-01 01:07:31 | 48.79184 | 10.90914 | 108° | 73km/h | 5332m | -6.7m/s | -11.4°C | 3.6% | 530.8hPa | 2.6V | 07:53:56 | 02:38:10 | 00:00:00 | |
| DK7TD | 2026-09-01 01:07:21 | 48.79225 | 10.90640 | 105° | 69km/h | 5396m | -6.5m/s | -11.7°C | 2.1% | 526.4hPa | 2.6V | 07:54:47 | 02:38:00 | 00:00:00 | |
| DK7TD | 2026-09-01 01:07:10 | 48.79277 | 10.90360 | 109° | 66km/h | 5466m | -6.4m/s | -12.2°C | 1.9% | 521.5hPa | 2.6V | 07:54:47 | 02:37:49 | 00:00:00 | |
| DK7TD | 2026-09-01 01:06:59 | 48.79325 | 10.90079 | 102° | 69km/h | 5536m | -6.7m/s | -12.5°C | 0.7% | 516.8hPa | 2.6V | 07:54:47 | 02:37:38 | 00:00:00 | |
| DK7TD | 2026-09-01 01:06:49 | 48.79374 | 10.89808 | 104° | 77km/h | 5601m | -6.3m/s | -12.1°C | 0.3% | 512.4hPa | 2.6V | 07:54:47 | 02:37:28 | 00:00:00 | |
| DK7TD | 2026-09-01 01:06:38 | 48.79425 | 10.89502 | 107° | 75km/h | 5672m | -6.4m/s | -12.2°C | 1.2% | 507.6hPa | 2.6V | 07:54:47 | 02:37:17 | 00:00:00 | |
| DK7TD | 2026-09-01 01:06:28 | 48.79476 | 10.89221 | 104° | 75km/h | 5738m | -6.9m/s | -12.3°C | 1.8% | 503.2hPa | 2.6V | 07:55:38 | 02:37:07 | 00:00:00 | |
| DK7TD | 2026-09-01 01:06:17 | 48.79538 | 10.88917 | 107° | 78km/h | 5810m | -6.9m/s | -12.9°C | 1.9% | 498.6hPa | 2.6V | 07:55:38 | 02:36:56 | 00:00:00 | |
| DK7TD | 2026-09-01 01:06:06 | 48.79607 | 10.88599 | 111° | 82km/h | 5882m | -7m/s | -13.4°C | 1.6% | 493.8hPa | 2.5V | 07:55:38 | 02:36:45 | 00:00:00 | |
| DK7TD | 2026-09-01 01:05:56 | 48.79671 | 10.88301 | 109° | 82km/h | 5948m | -6.8m/s | -13.9°C | 1.5% | 489.6hPa | 2.5V | 07:55:38 | 02:36:35 | 00:00:00 | |
| DK7TD | 2026-09-01 01:05:45 | 48.79746 | 10.87966 | 109° | 89km/h | 6021m | -6.6m/s | -14.2°C | 0.7% | 485hPa | 2.5V | 07:55:38 | 02:36:24 | 00:00:00 | |
| DK7TD | 2026-09-01 01:05:34 | 48.79816 | 10.87613 | 106° | 89km/h | 6094m | -6.7m/s | -14.3°C | 1.3% | 480.3hPa | 2.6V | 07:56:29 | 02:36:13 | 00:00:00 | |
| DK7TD | 2026-09-01 01:05:23 | 48.79872 | 10.87232 | 101° | 95km/h | 6165m | -6.1m/s | -14.5°C | 6.2% | 475.7hPa | 2.6V | 07:56:29 | 02:36:02 | 00:00:00 | |
| DK7TD | 2026-09-01 01:05:12 | 48.79924 | 10.86854 | 103° | 95km/h | 6235m | -6.3m/s | -14.9°C | 12.1% | 471.4hPa | 2.6V | 07:56:29 | 02:35:51 | 00:00:00 | |
| DK7TD | 2026-09-01 01:05:01 | 48.79972 | 10.86479 | 101° | 91km/h | 6307m | -6.6m/s | -15.6°C | 12.8% | 466.9hPa | 2.5V | 07:56:29 | 02:35:40 | 00:00:00 | |
| DK7TD | 2026-09-01 01:04:50 | 48.80012 | 10.86109 | 102° | 88km/h | 6377m | -6.3m/s | -16.1°C | 13.3% | 462.6hPa | 2.6V | 07:57:20 | 02:35:29 | 00:00:00 | |
| DK7TD | 2026-09-01 01:04:39 | 48.80051 | 10.85728 | 100° | 89km/h | 6447m | -6.9m/s | -16.6°C | 31.2% | 458.4hPa | 2.5V | 07:57:20 | 02:35:18 | 00:00:00 | |
| DK7TD | 2026-09-01 01:04:28 | 48.80094 | 10.85353 | 99° | 91km/h | 6518m | -7m/s | -17.2°C | 41% | 454.1hPa | 2.5V | 07:57:20 | 02:35:07 | 00:00:00 | |
| DK7TD | 2026-09-01 01:04:18 | 48.80132 | 10.85013 | 101° | 91km/h | 6582m | -6.2m/s | -17.8°C | 35.9% | 450.1hPa | 2.5V | 07:57:20 | 02:34:57 | 00:00:00 | |
| DK7TD | 2026-09-01 01:04:07 | 48.80178 | 10.84628 | 101° | 93km/h | 6650m | -5.9m/s | -18.3°C | 48.7% | 446.1hPa | 2.5V | 07:57:20 | 02:34:46 | 00:00:00 | |
| DK7TD | 2026-09-01 01:03:57 | 48.80217 | 10.84267 | 98° | 97km/h | 6715m | -6.2m/s | -18.9°C | 53.5% | 442.3hPa | 2.5V | 07:58:11 | 02:34:36 | 00:00:00 | |
| DK7TD | 2026-09-01 01:03:47 | 48.80256 | 10.83905 | 99° | 100km/h | 6777m | -6.7m/s | -19.4°C | 53.9% | 438.6hPa | 2.5V | 07:58:11 | 02:34:26 | 00:00:00 | |
| DK7TD | 2026-09-01 01:03:37 | 48.80299 | 10.83543 | 101° | 99km/h | 6838m | -5.8m/s | -19.9°C | 51.8% | 434.9hPa | 2.6V | 07:58:11 | 02:34:16 | 00:00:00 | |
| DK7TD | 2026-09-01 01:03:27 | 48.80339 | 10.83168 | 101° | 99km/h | 6900m | -6.3m/s | -20.4°C | 54.6% | 431.4hPa | 2.6V | 07:58:11 | 02:34:06 | 00:00:00 | |
| DK7TD | 2026-09-01 01:03:16 | 48.80387 | 10.82755 | 98° | 97km/h | 6967m | -5.9m/s | -21°C | 54% | 427.5hPa | 2.6V | 07:58:11 | 02:33:55 | 00:00:00 | |
| DK7TD | 2026-09-01 01:03:06 | 48.80432 | 10.82383 | 98° | 102km/h | 7028m | -6.4m/s | -21.5°C | 56% | 424hPa | 2.6V | 07:59:02 | 02:33:45 | 00:00:00 | |
| DK7TD | 2026-09-01 01:02:56 | 48.80467 | 10.81976 | 98° | 95km/h | 7093m | -5.7m/s | -22.1°C | 57.9% | 420.2hPa | 2.5V | 07:59:02 | 02:33:34 | 00:00:00 | |
| DK7TD | 2026-09-01 01:02:45 | 48.80502 | 10.81611 | 98° | 97km/h | 7155m | -6.4m/s | -22.5°C | 58.7% | 416.8hPa | 2.6V | 07:59:02 | 02:33:24 | 00:00:00 | |
| DK7TD | 2026-09-01 01:02:34 | 48.80541 | 10.81210 | 98° | 99km/h | 7222m | -6.1m/s | -23.1°C | 59.5% | 413hPa | 2.6V | 07:59:02 | 02:33:13 | 00:00:00 | |
| DK7TD | 2026-09-01 01:02:24 | 48.80576 | 10.80813 | 99° | 97km/h | 7289m | -5.9m/s | -23.5°C | 57.2% | 409.2hPa | 2.5V | 07:59:02 | 02:33:02 | 00:00:00 | |
| DK7TD | 2026-09-01 01:02:12 | 48.80614 | 10.80411 | 97° | 97km/h | 7355m | -6.1m/s | -24°C | 56.3% | 405.5hPa | 2.6V | 07:59:53 | 02:32:51 | 00:00:00 | |
| DK7TD | 2026-09-01 01:02:02 | 48.80646 | 10.80044 | 98° | 97km/h | 7417m | -6.4m/s | -24.4°C | 56.2% | 402.2hPa | 2.5V | 07:59:53 | 02:32:41 | 00:00:00 | |
| DK7TD | 2026-09-01 01:01:52 | 48.80686 | 10.79637 | 99° | 99km/h | 7486m | -6.4m/s | -25°C | 56.5% | 398.4hPa | 2.6V | 07:59:53 | 02:32:30 | 00:00:00 | |
| DF3TZ-5 | 2026-09-01 01:01:47 | 48.80704 | 10.79454 | 98° | 95km/h | 7518m | -6.4m/s | -25.3°C | 52.6% | 396.7hPa | 2.6V | 00:00:00 | 00:00:00 | 00:00:00 | |
| DK7TD | 2026-09-01 01:01:41 | 48.80725 | 10.79267 | 100° | 100km/h | 7549m | -6.2m/s | -25.5°C | 58.4% | 394.8hPa | 2.6V | 07:59:53 | 02:32:20 | 00:00:00 | |
| DK7TD | 2026-09-01 01:01:31 | 48.80761 | 10.78893 | 98° | 97km/h | 7614m | -6.5m/s | -26.1°C | 58.2% | 391.4hPa | 2.5V | 07:59:53 | 02:32:10 | 00:00:00 | |
| DK7TD | 2026-09-01 01:01:20 | 48.80801 | 10.78491 | 99° | 95km/h | 7687m | -6.3m/s | -26.5°C | 55% | 387.5hPa | 2.6V | 08:00:44 | 02:31:59 | 00:00:00 | |
| DK7TD | 2026-09-01 01:01:09 | 48.80845 | 10.78095 | 99° | 95km/h | 7761m | -6.9m/s | -27.1°C | 54.1% | 383.6hPa | 2.6V | 08:00:44 | 02:31:48 | 00:00:00 | |
| DK7TD | 2026-09-01 01:00:59 | 48.80884 | 10.77734 | 101° | 99km/h | 7829m | -6.7m/s | -27.5°C | 52.7% | 380hPa | 2.6V | 08:00:44 | 02:31:38 | 00:00:00 | |
| DK7TD | 2026-09-01 01:00:48 | 48.80934 | 10.77325 | 99° | 99km/h | 7903m | -6.8m/s | -28.1°C | 52.5% | 376.1hPa | 2.5V | 08:00:44 | 02:31:27 | 00:00:00 | |
| DK7TD | 2026-09-01 01:00:38 | 48.80974 | 10.76952 | 100° | 99km/h | 7971m | -6.8m/s | -28.5°C | 51.2% | 372.5hPa | 2.5V | 08:01:35 | 02:31:17 | 00:00:00 | |
| DK7TD | 2026-09-01 01:00:27 | 48.81015 | 10.76545 | 98° | 99km/h | 8048m | -7m/s | -29.2°C | 51.2% | 368.5hPa | 2.5V | 08:01:35 | 02:31:06 | 00:00:00 | |
| DK7TD | 2026-09-01 01:00:16 | 48.81054 | 10.76135 | 98° | 99km/h | 8125m | -7.2m/s | -29.8°C | 49.2% | 364.5hPa | 2.5V | 08:01:35 | 02:30:55 | 00:00:00 | |
| DK7TD | 2026-09-01 01:00:05 | 48.81091 | 10.75718 | 97° | 100km/h | 8204m | -7.4m/s | -30.4°C | 48.7% | 360.6hPa | 2.5V | 08:01:35 | 02:30:44 | 00:00:00 | |
| DK7TD | 2026-09-01 00:59:54 | 48.81127 | 10.75297 | 96° | 99km/h | 8283m | -7.2m/s | -31.1°C | 49.5% | 356.6hPa | 2.5V | 08:01:35 | 02:30:33 | 00:00:00 | |
| DK7TD | 2026-09-01 00:59:42 | 48.81159 | 10.74839 | 95° | 100km/h | 8371m | -7.6m/s | -31.9°C | 49.8% | 352.2hPa | 2.5V | 08:04:08 | 02:30:21 | 00:00:00 | |
| DK7TD | 2026-09-01 00:59:32 | 48.81177 | 10.74456 | 94° | 100km/h | 8445m | -7m/s | -32.4°C | 48.5% | 348.6hPa | 2.5V | 08:04:08 | 02:30:11 | 00:00:00 | |
| DK7TD | 2026-09-01 00:59:21 | 48.81192 | 10.74030 | 93° | 102km/h | 8526m | -7.4m/s | -33.1°C | 48.9% | 344.5hPa | 2.5V | 08:04:08 | 02:30:00 | 00:00:00 | |
| DK7TD | 2026-09-01 00:59:10 | 48.81210 | 10.73588 | 93° | 108km/h | 8609m | -7.5m/s | -33.7°C | 51.8% | 340.5hPa | 2.5V | 08:04:08 | 02:29:49 | 00:00:00 | |
| DK7TD | 2026-09-01 00:58:59 | 48.81222 | 10.73128 | 92° | 110km/h | 8691m | -7.6m/s | -34.4°C | 51.9% | 336.6hPa | 2.5V | 08:04:08 | 02:29:38 | 00:00:00 | |
| DK7TD | 2026-09-01 00:58:49 | 48.81233 | 10.72703 | 93° | 111km/h | 8768m | -7.8m/s | -34.8°C | 49.8% | 332.9hPa | 2.5V | 08:04:08 | 02:29:28 | 00:00:00 | |
| DK7TD | 2026-09-01 00:58:39 | 48.81252 | 10.72282 | 94° | 110km/h | 8845m | -7.8m/s | -35.5°C | 50.4% | 329.2hPa | 2.6V | 08:04:08 | 02:29:18 | 00:00:00 | |
| DK7TD | 2026-09-01 00:58:29 | 48.81274 | 10.71865 | 94° | 110km/h | 8921m | -7.5m/s | -35.9°C | 47.8% | 325.7hPa | 2.6V | 08:04:08 | 02:29:08 | 00:00:00 | |
| DK7TD | 2026-09-01 00:58:19 | 48.81300 | 10.71453 | 96° | 110km/h | 8998m | -7.7m/s | -36.5°C | 44.9% | 322hPa | 2.5V | 08:04:08 | 02:28:58 | 00:00:00 | |
| DO3MHA-11 | 2026-09-01 00:58:17 | 48.81305 | 10.71369 | 96° | 111km/h | 9013m | -7.7m/s | -36.4°C | 44.2% | 321.3hPa | 2.5V | 00:00:00 | 02:28:56 | 00:00:00 | |
| DB0NH | 2026-09-01 00:58:16 | 48.81308 | 10.71327 | 96° | 111km/h | 9021m | -7.8m/s | -36.5°C | 43.6% | 320.9hPa | 2.5V | 00:00:00 | 02:28:55 | 00:00:00 | |
| DO3MHA-12 | 2026-09-01 00:58:15 | 48.81311 | 10.71285 | 96° | 111km/h | 9029m | -7.8m/s | -36.5°C | 43.2% | 320.6hPa | 2.5V | 08:03:00 | 02:28:54 | 00:00:00 | |
| DB0UT-7 | 2026-09-01 00:58:11 | 48.81322 | 10.71118 | 96° | 111km/h | 9060m | -8.0m/s | -36.7°C | 42.1% | 319.1hPa | 2.6V | 08:03:00 | 00:00:00 | 00:00:00 | |
| NBG1-10 | 2026-09-01 00:58:10 | 48.81325 | 10.71075 | 96° | 111km/h | 9068m | -7.8m/s | -36.8°C | 42.2% | 318.8hPa | 2.5V | 00:00:00 | 02:28:49 | 00:00:00 | |
| OE5DXL-15 | 2026-09-01 00:58:09 | 48.81328 | 10.71033 | 97° | 111km/h | 9076m | -7.7m/s | -36.9°C | 42.2% | 318.4hPa | 2.5V | 08:03:00 | 00:00:00 | 00:00:00 | |
| DJ8HS-15 | 2026-09-01 00:58:08 | 48.81331 | 10.70990 | 96° | 111km/h | 9083m | -7.8m/s | -36.9°C | 42.6% | 318.1hPa | 2.5V | 00:00:00 | 02:28:47 | 00:00:00 | |
| DO3MHA-11 | 2026-09-01 00:58:07 | 48.81333 | 10.70948 | 96° | 111km/h | 9091m | -8.0m/s | -37.0°C | 42.6% | 317.8hPa | 2.5V | 00:00:00 | 02:28:46 | 00:00:00 | |
| DO3MHA-12 | 2026-09-01 00:58:05 | 48.81338 | 10.70862 | 95° | 111km/h | 9107m | -7.8m/s | -37.1°C | 42.4% | 317.0hPa | 2.5V | 00:00:00 | 02:28:44 | 00:00:00 | |
| DO9HM | 2026-09-01 00:58:03 | 48.81341 | 10.70820 | 96° | 111km/h | 9115m | -8.1m/s | -37.2°C | 36.5% | 316.7hPa | 2.5V | 08:04:00 | 00:00:00 | 00:00:00 | |
| DK7TD | 2026-09-01 00:57:45 | 48.81402 | 10.70012 | 98° | 111km/h | 9264m | -8m/s | -38.3°C | 38.4% | 309.8hPa | 2.5V | 08:04:08 | 02:28:24 | 00:00:00 | |
| DK7TD | 2026-09-01 00:57:35 | 48.81444 | 10.69593 | 99° | 111km/h | 9343m | -7.7m/s | -39°C | 39.1% | 306.3hPa | 2.5V | 08:04:08 | 02:28:14 | 00:00:00 | |
| DK7TD | 2026-09-01 00:57:24 | 48.81496 | 10.69135 | 101° | 110km/h | 9430m | -8.1m/s | -39.6°C | 35.7% | 302.5hPa | 2.5V | 08:04:08 | 02:28:03 | 00:00:00 | |
| DK5PH-5 | 2026-09-01 00:57:24 | 48.81496 | 10.69135 | 101° | 110km/h | 9430m | -8.1m/s | -39.6°C | 35.3% | 302.5hPa | 2.5V | 00:00:00 | 02:28:03 | 00:00:00 | |
| DO9HM | 2026-09-01 00:57:22 | 48.81501 | 10.69094 | 102° | 108km/h | 9438m | -8.2m/s | -39.7°C | 29.9% | 302.1hPa | 2.5V | 08:04:00 | 00:00:00 | 00:00:00 | |
| OE5DRO-10 | 2026-09-01 00:57:21 | 48.81512 | 10.69012 | 101° | 110km/h | 9454m | -7.8m/s | -39.8°C | 34.7% | 301.3hPa | 2.5V | 00:00:00 | 00:00:00 | 00:00:00 | |
| DB0ND-19 | 2026-09-01 00:57:19 | 48.81523 | 10.68930 | 101° | 110km/h | 9470m | -8.0m/s | -39.9°C | 29.1% | 300.7hPa | 2.5V | 00:00:00 | 00:00:00 | 00:00:00 | |
| DM7RM-13 | 2026-09-01 00:57:18 | 48.81523 | 10.68930 | 102° | 110km/h | 9470m | -8.0m/s | -39.9°C | 29.1% | 300.7hPa | 2.5V | 08:04:00 | 00:00:00 | 00:00:00 | |
| DO3MHA-11 | 2026-09-01 00:57:17 | 48.81534 | 10.68847 | 102° | 110km/h | 9486m | -7.9m/s | -40.0°C | 33.7% | 300.0hPa | 2.5V | 00:00:00 | 02:27:56 | 00:00:00 | |
| DB0NH | 2026-09-01 00:57:16 | 48.81539 | 10.68806 | 102° | 111km/h | 9494m | -7.9m/s | -40.1°C | 33.3% | 299.6hPa | 2.5V | 00:00:00 | 02:27:55 | 00:00:00 | |
| DM0DOS-11 | 2026-09-01 00:57:14 | 48.81556 | 10.68682 | 101° | 110km/h | 9518m | -7.7m/s | -40.2°C | 31.5% | 298.6hPa | 2.5V | 08:04:10 | 02:27:52 | 00:00:00 | |
| DK7TD | 2026-09-01 00:57:14 | 48.81550 | 10.68724 | 101° | 110km/h | 9510m | -8m/s | -40.2°C | 32.7% | 299hPa | 2.6V | 08:04:59 | 02:27:53 | 00:00:00 | |
| DN1GJH-1 | 2026-09-01 00:57:12 | 48.81556 | 10.68682 | 102° | 110km/h | 9518m | -7.7m/s | -40.2°C | 26.5% | 298.6hPa | 2.6V | 00:00:00 | 00:00:00 | 00:00:00 | |
| DB0UT-7 | 2026-09-01 00:57:11 | 48.81567 | 10.68600 | 102° | 111km/h | 9533m | -7.8m/s | -40.3°C | 31.5% | 297.9hPa | 2.6V | 00:00:00 | 00:00:00 | 00:00:00 | |
| DM0DOS-11 | 2026-09-01 00:57:09 | 48.81613 | 10.68268 | 101° | 111km/h | 9597m | -8.2m/s | -40.9°C | 32.1% | 295.2hPa | 2.6V | 08:04:20 | 02:27:42 | 00:00:00 | |
| DK7TD | 2026-09-01 00:57:04 | 48.81607 | 10.68310 | 102° | 111km/h | 9589m | -8.2m/s | -40.8°C | 32.8% | 295.5hPa | 2.5V | 08:04:59 | 02:27:43 | 00:00:00 | |
| DK7TD | 2026-09-01 00:56:53 | 48.81672 | 10.67852 | 102° | 111km/h | 9676m | -7.9m/s | -41.6°C | 33.3% | 291.8hPa | 2.5V | 08:04:59 | 02:27:32 | 00:00:00 | |
| DM0DOS-11 | 2026-09-01 00:56:53 | 48.81707 | 10.67601 | 101° | 111km/h | 9723m | -7.9m/s | -42°C | 33.2% | 289.8hPa | 2.5V | 08:04:36 | 02:27:26 | 00:00:00 | |
| BIOWL9-15 | 2026-09-01 00:56:48 | 48.81718 | 10.67518 | 101° | 111km/h | 9738m | -7.6m/s | -42.2°C | -1.0% | 289.0hPa | 2.6V | 00:00:00 | 00:00:00 | 00:00:00 | |
| DO3MHA-11 | 2026-09-01 00:56:47 | 48.81706 | 10.67601 | 102° | 111km/h | 9723m | -7.8m/s | -42.0°C | 33.2% | 289.8hPa | 2.6V | 00:00:00 | 02:27:26 | 00:00:00 | |
| DB0NH | 2026-09-01 00:56:46 | 48.81712 | 10.67559 | 102° | 110km/h | 9731m | -7.8m/s | -42.0°C | 33.4% | 289.3hPa | 2.6V | 00:00:00 | 02:27:25 | 00:00:00 | |
| DO3MHA-12 | 2026-09-01 00:56:45 | 48.81718 | 10.67518 | 102° | 111km/h | 9739m | -7.5m/s | -42.1°C | 33.6% | 289.0hPa | 2.6V | 08:04:00 | 02:27:24 | 00:00:00 | |
| OE5DRO-10 | 2026-09-01 00:56:43 | 48.81729 | 10.67434 | 102° | 110km/h | 9754m | -7.9m/s | -42.2°C | 33.9% | 288.4hPa | 2.5V | 08:04:00 | 00:00:00 | 00:00:00 | |
| DO9HM | 2026-09-01 00:56:42 | 48.81734 | 10.67392 | 102° | 110km/h | 9762m | -7.9m/s | -42.4°C | 28.5% | 288.1hPa | 2.5V | 08:04:00 | 00:00:00 | 00:00:00 | |
| DB0UT-7 | 2026-09-01 00:56:41 | 48.81740 | 10.67351 | 102° | 110km/h | 9770m | -7.7m/s | -42.4°C | 34.3% | 287.7hPa | 2.5V | 00:00:00 | 02:27:20 | 00:00:00 | |
| OE5DXL-15 | 2026-09-01 00:56:39 | 48.81750 | 10.67269 | 101° | 110km/h | 9786m | -7.9m/s | -42.5°C | 34.2% | 287.0hPa | 2.6V | 00:00:00 | 00:00:00 | 00:00:00 | |
| DM0DOS-11 | 2026-09-01 00:56:37 | 48.81766 | 10.67143 | 100° | 111km/h | 9809m | -8m/s | -42.8°C | 34.2% | 286.1hPa | 2.5V | 08:04:47 | 02:27:15 | 00:00:00 | |
| DK7TD | 2026-09-01 00:56:29 | 48.81798 | 10.66852 | 99° | 108km/h | 9864m | -7.9m/s | -43.2°C | 33.9% | 283.7hPa | 2.5V | 08:04:59 | 02:27:08 | 00:00:00 | |
| DM0DOS-11 | 2026-09-01 00:56:27 | 48.81810 | 10.66728 | 98° | 110km/h | 9888m | -8.1m/s | -43.3°C | 33.4% | 282.8hPa | 2.6V | 08:04:57 | 02:27:05 | 00:00:00 | |
| DO3MHA-11 | 2026-09-01 00:56:27 | 48.81806 | 10.66769 | 99° | 110km/h | 9880m | -8.0m/s | -43.2°C | 33.1% | 283.0hPa | 2.6V | 00:00:00 | 02:27:06 | 00:00:00 | |
| DO3MHA-12 | 2026-09-01 00:56:25 | 48.81814 | 10.66687 | 99° | 110km/h | 9896m | -7.8m/s | -43.4°C | 33.6% | 282.4hPa | 2.5V | 00:00:00 | 02:27:04 | 00:00:00 | |
| DK5PH-5 | 2026-09-01 00:56:24 | 48.81818 | 10.66645 | 98° | 110km/h | 9904m | -7.8m/s | -43.4°C | 34.0% | 282.0hPa | 2.5V | 00:00:00 | 02:27:03 | 00:00:00 | |
| DF1GD-15 | 2026-09-01 00:56:23 | 48.81818 | 10.66645 | 99° | 110km/h | 9904m | -7.8m/s | -43.5°C | 28.2% | 282.1hPa | 2.5V | 08:04:00 | 00:00:00 | 00:00:00 | |
| DM0DOS-11 | 2026-09-01 00:56:22 | 48.81848 | 10.66315 | 97° | 106km/h | 9967m | -8.1m/s | -44°C | 34.8% | 279.4hPa | 2.5V | 08:05:07 | 02:26:55 | 00:00:00 | |
| DK7TD | 2026-09-01 00:56:18 | 48.81841 | 10.66396 | 98° | 108km/h | 9951m | -7.8m/s | -43.9°C | 35.4% | 280hPa | 2.5V | 08:06:41 | 02:26:57 | 00:00:00 | |
| DB0ND-19 | 2026-09-01 00:56:18 | 48.81844 | 10.66355 | 97° | 106km/h | 9959m | -8.0m/s | -43.9°C | 28.7% | 279.8hPa | 2.5V | 00:00:00 | 00:00:00 | 00:00:00 | |
| BIOWL9-15 | 2026-09-01 00:56:17 | 48.81848 | 10.66315 | 97° | 106km/h | 9967m | -8.1m/s | -44.0°C | -1.0% | 279.4hPa | 2.5V | 00:00:00 | 00:00:00 | 00:00:00 | |
| DB0NH | 2026-09-01 00:56:16 | 48.81848 | 10.66315 | 98° | 110km/h | 9967m | -8.0m/s | -44.0°C | 34.8% | 279.4hPa | 2.5V | 00:00:00 | 02:26:55 | 00:00:00 | |
| DO3MHA-12 | 2026-09-01 00:56:15 | 48.81851 | 10.66274 | 98° | 110km/h | 9975m | -8.2m/s | -44.0°C | 34.9% | 279.1hPa | 2.6V | 00:00:00 | 02:26:54 | 00:00:00 | |
| DM0DOS-11 | 2026-09-01 00:56:11 | 48.81880 | 10.65897 | 95° | 108km/h | 10046m | -7.9m/s | -44.7°C | 35.4% | 276.1hPa | 2.5V | 08:05:17 | 02:26:45 | 00:00:00 | |
| DB0UT-7 | 2026-09-01 00:56:11 | 48.81866 | 10.66108 | 97° | 110km/h | 10007m | -7.7m/s | -44.3°C | 35.1% | 277.7hPa | 2.5V | 00:00:00 | 00:00:00 | 00:00:00 | |
| DL1NUX | 2026-09-01 00:56:09 | 48.81886 | 10.65814 | 96° | 110km/h | 10062m | -8.2m/s | -44.8°C | 35.5% | 275.5hPa | 2.5V | 08:05:19 | 02:26:43 | 00:00:00 | |
| DK7TD | 2026-09-01 00:56:05 | 48.81883 | 10.65856 | 96° | 108km/h | 10054m | -7.9m/s | -44.8°C | 36.1% | 0hPa | 2.5V | 08:06:41 | 02:26:44 | 00:00:00 | |
| DO3MHA-12 | 2026-09-01 00:56:05 | 48.81883 | 10.65856 | 97° | 110km/h | 10054m | -7.8m/s | -44.7°C | 35.4% | 275.8hPa | 2.5V | 00:00:00 | 02:26:44 | 00:00:00 | |
| DF1GD-15 | 2026-09-01 00:56:03 | 48.81886 | 10.65814 | 97° | 110km/h | 10062m | -8.2m/s | -44.8°C | 29.2% | 275.5hPa | 2.5V | 08:05:00 | 00:00:00 | 00:00:00 | |
| DM0DOS-11 | 2026-09-01 00:56:01 | 48.81907 | 10.65438 | 94° | 110km/h | 10133m | -8.2m/s | -45.5°C | 36.1% | 272.6hPa | 2.5V | 08:05:28 | 02:26:34 | 00:00:00 | |
| DK7TD | 2026-09-01 00:55:54 | 48.81909 | 10.65396 | 94° | 110km/h | 10141m | -8.1m/s | -45.5°C | 36.8% | 0hPa | 2.5V | 08:06:41 | 02:26:33 | 00:00:00 | |
| DL1NUX | 2026-09-01 00:55:54 | 48.81911 | 10.65354 | 93° | 110km/h | 10149m | -8.1m/s | -45.6°C | 36.2% | 271.9hPa | 2.5V | 08:05:30 | 02:26:32 | 00:00:00 | |
| DL6DJ-15 | 2026-09-01 00:55:51 | 48.81916 | 10.65228 | 93° | 110km/h | 10173m | -8.1m/s | -45.8°C | 29.6% | 270.9hPa | 2.6V | 00:00:00 | 00:00:00 | 00:00:00 | |
| DM0DOS-11 | 2026-09-01 00:55:50 | 48.81923 | 10.65017 | 92° | 111km/h | 10214m | -7.8m/s | -46.1°C | 36.2% | 269.3hPa | 2.6V | 08:05:38 | 02:26:24 | 00:00:00 | |
| DB0ND-19 | 2026-09-01 00:55:47 | 48.81922 | 10.65059 | 92° | 110km/h | 10206m | -8.1m/s | -46.1°C | 29.6% | 269.6hPa | 2.6V | 00:00:00 | 00:00:00 | 00:00:00 | |
| DK7TD | 2026-09-01 00:55:44 | 48.81924 | 10.64974 | 92° | 111km/h | 10221m | -8m/s | -46.2°C | 36.8% | 0hPa | 2.6V | 08:06:41 | 02:26:23 | 00:00:00 | |
| DK7TD | 2026-09-01 00:55:34 | 48.81937 | 10.64548 | 93° | 111km/h | 10302m | -8m/s | -46.9°C | 37.9% | 0hPa | 2.5V | 08:06:41 | 02:26:13 | 00:00:00 | |
| DF3TZ-5 | 2026-09-01 00:55:34 | 48.81937 | 10.64548 | 93° | 110km/h | 10302m | -8.0m/s | -46.9°C | 30.5% | 265.8hPa | 2.5V | 00:00:00 | 00:00:00 | 00:00:00 | |
| DM0DOS-11 | 2026-09-01 00:55:30 | 48.81948 | 10.64163 | 92° | 113km/h | 10375m | -8.2m/s | -47.6°C | 41.4% | 262.8hPa | 2.5V | 08:05:58 | 02:26:04 | 00:00:00 | |
| DK7TD | 2026-09-01 00:55:20 | 48.81953 | 10.63945 | 91° | 115km/h | 10416m | -8.3m/s | -48°C | 43.8% | 0hPa | 2.6V | 08:06:41 | 02:25:59 | 00:00:00 | |
| DM0DOS-11 | 2026-09-01 00:55:20 | 48.81957 | 10.63724 | 91° | 115km/h | 10456m | -8.2m/s | -48.3°C | 44.7% | 259.6hPa | 2.6V | 08:06:08 | 02:25:54 | 00:00:00 | |
| DL6DJ-15 | 2026-09-01 00:55:20 | 48.81954 | 10.63901 | 91° | 113km/h | 10424m | -7.8m/s | -48.0°C | 36.3% | 260.9hPa | 2.6V | 00:00:00 | 00:00:00 | 00:00:00 | |
| DO9HM | 2026-09-01 00:55:18 | 48.81954 | 10.63901 | 92° | 115km/h | 10424m | -7.8m/s | -48.0°C | 36.4% | 260.9hPa | 2.6V | 08:06:00 | 00:00:00 | 00:00:00 | |
| DO3MHA-11 | 2026-09-01 00:55:17 | 48.81956 | 10.63813 | 92° | 117km/h | 10440m | -7.9m/s | -48.1°C | 44.7% | 260.2hPa | 2.6V | 00:00:00 | 02:25:56 | 00:00:00 | |
| DB0NH | 2026-09-01 00:55:16 | 48.81956 | 10.63769 | 92° | 119km/h | 10448m | -7.8m/s | -48.2°C | 44.7% | 259.9hPa | 2.6V | 00:00:00 | 02:25:55 | 00:00:00 | |
| DO3MHA-12 | 2026-09-01 00:55:15 | 48.81957 | 10.63724 | 92° | 117km/h | 10456m | -8.1m/s | -48.3°C | 44.7% | 259.6hPa | 2.6V | 08:06:00 | 02:25:54 | 00:00:00 | |
| DB0UT-7 | 2026-09-01 00:55:11 | 48.81960 | 10.63547 | 92° | 119km/h | 10489m | -8.2m/s | -48.6°C | 44.7% | 258.3hPa | 2.5V | 00:00:00 | 00:00:00 | 00:00:00 | |
| DM0DOS-11 | 2026-09-01 00:55:10 | 48.81967 | 10.63234 | 91° | 117km/h | 10545m | -8.4m/s | -49.1°C | 45.8% | 256.1hPa | 2.5V | 08:06:19 | 02:25:43 | 00:00:00 | |
| DK7TD | 2026-09-01 00:55:09 | 48.81963 | 10.63458 | 92° | 117km/h | 10505m | -8.1m/s | -48.8°C | 44.7% | 0hPa | 2.6V | 08:06:41 | 02:25:48 | 00:00:00 | |
| OE5DXL-15 | 2026-09-01 00:55:09 | 48.81962 | 10.63458 | 92° | 119km/h | 10505m | -8.0m/s | -48.7°C | 45.2% | 257.6hPa | 2.6V | 00:00:00 | 00:00:00 | 00:00:00 | |
| DJ8HS-15 | 2026-09-01 00:55:08 | 48.81963 | 10.63413 | 92° | 119km/h | 10513m | -7.9m/s | -48.8°C | 45.3% | 257.3hPa | 2.5V | 00:00:00 | 02:25:47 | 00:00:00 | |
| DO3MHA-11 | 2026-09-01 00:55:07 | 48.81964 | 10.63368 | 92° | 117km/h | 10521m | -8.0m/s | -48.8°C | 45.5% | 257.0hPa | 2.5V | 00:00:00 | 02:25:46 | 00:00:00 | |
| PG1ADW-2 | 2026-09-01 00:55:06 | 48.81965 | 10.63323 | 92° | 119km/h | 10529m | -8.2m/s | -48.9°C | 45.6% | 256.7hPa | 2.5V | 00:00:00 | 00:00:00 | 00:00:00 | |
| DO3MHA-12 | 2026-09-01 00:55:05 | 48.81966 | 10.63279 | 93° | 119km/h | 10537m | -7.9m/s | -49.0°C | 45.8% | 256.4hPa | 2.5V | 00:00:00 | 02:25:44 | 00:00:00 | |
| DM0DOS-11 | 2026-09-01 00:54:59 | 48.81974 | 10.62781 | 91° | 120km/h | 10627m | -8.1m/s | -49.9°C | 45.8% | 253hPa | 2.5V | 08:06:29 | 02:25:33 | 00:00:00 | |
| DK7TD | 2026-09-01 00:54:58 | 48.81972 | 10.62964 | 91° | 119km/h | 10594m | -8.3m/s | -49.6°C | 45.5% | 0hPa | 2.5V | 08:06:41 | 02:25:37 | 00:00:00 | |
| DL1ZP-14 | 2026-09-01 00:54:56 | 48.81974 | 10.62781 | 91° | 120km/h | 10627m | -8.1m/s | -49.9°C | 37.1% | 253.0hPa | 2.5V | 00:00:00 | 00:00:00 | 00:00:00 | |
| DO3MHA-12 | 2026-09-01 00:54:55 | 48.81974 | 10.62827 | 92° | 120km/h | 10619m | -8.0m/s | -49.8°C | 46.0% | 253.2hPa | 2.6V | 00:00:00 | 02:25:34 | 00:00:00 | |
| DK5PH-5 | 2026-09-01 00:54:54 | 48.81974 | 10.62780 | 92° | 120km/h | 10627m | -8.0m/s | -49.9°C | 45.8% | 252.9hPa | 2.6V | 00:00:00 | 02:25:33 | 00:00:00 | |
| NBG1-10 | 2026-09-01 00:54:52 | 48.81977 | 10.62688 | 93° | 120km/h | 10643m | -8.0m/s | -50.0°C | 45.1% | 252.3hPa | 2.6V | 00:00:00 | 02:25:31 | 00:00:00 | |
| DM0DOS-11 | 2026-09-01 00:54:49 | 48.81990 | 10.62318 | 93° | 122km/h | 10709m | -8.4m/s | -50.4°C | 41.2% | 249.8hPa | 2.6V | 08:06:39 | 02:25:23 | 00:00:00 | |
| DK7TD | 2026-09-01 00:54:48 | 48.81983 | 10.62503 | 93° | 120km/h | 10676m | -8.3m/s | 0°C | 0% | 0hPa | 2.5V | 08:06:41 | 02:25:27 | 00:00:00 | |
| DK7TD | 2026-09-01 00:54:37 | 48.82001 | 10.61993 | 92° | 122km/h | 10766m | -7.9m/s | 0°C | 0% | 0hPa | 2.6V | 18:12:15 | 02:25:16 | 00:00:00 | |
| DK7TD | 2026-09-01 00:54:27 | 48.82007 | 10.61529 | 90° | 122km/h | 10848m | -8.1m/s | 0°C | 0% | 0hPa | 2.5V | 18:12:15 | 02:25:06 | 00:00:00 | |
| DK7TD | 2026-09-01 00:54:16 | 48.82000 | 10.61020 | 87° | 120km/h | 10939m | -8.3m/s | 0°C | 0% | 0hPa | 2.5V | 18:12:15 | 02:24:55 | 00:00:00 | |
| DB0NH | 2026-09-01 00:54:16 | 48.82000 | 10.61020 | 88° | 120km/h | 10939m | -8.2m/s | -52.2°C | 42.6% | 241.1hPa | 2.5V | 00:00:00 | 02:24:55 | 00:00:00 | |
| DO3MHA-12 | 2026-09-01 00:54:15 | 48.81998 | 10.60974 | 87° | 120km/h | 10947m | -8.3m/s | -52.3°C | 42.4% | 240.8hPa | 2.5V | 00:00:00 | 02:24:54 | 00:00:00 | |
| DM7RM-13 | 2026-09-01 00:54:14 | 48.81998 | 10.60974 | 88° | 120km/h | 10947m | -8.4m/s | -52.3°C | 33.6% | 240.9hPa | 2.6V | 08:07:00 | 00:00:00 | 00:00:00 | |
| DB0ND-19 | 2026-09-01 00:54:13 | 48.81995 | 10.60882 | 86° | 120km/h | 10964m | -8.4m/s | -52.5°C | 33.2% | 240.2hPa | 2.6V | 00:00:00 | 00:00:00 | 00:00:00 | |
| DB0UT-7 | 2026-09-01 00:54:11 | 48.81991 | 10.60789 | 87° | 120km/h | 10980m | -8.4m/s | -52.5°C | 41.9% | 239.6hPa | 2.6V | 00:00:00 | 00:00:00 | 00:00:00 | |
| OE5DXL-15 | 2026-09-01 00:54:09 | 48.81988 | 10.60697 | 88° | 120km/h | 10997m | -8.2m/s | -52.6°C | 42.4% | 239.0hPa | 2.6V | 00:00:00 | 00:00:00 | 00:00:00 | |
| DO3MHA-11 | 2026-09-01 00:54:08 | 48.81984 | 10.60604 | 87° | 122km/h | 11014m | -8.2m/s | -52.8°C | 43.1% | 238.3hPa | 2.6V | 00:00:00 | 02:24:46 | 00:00:00 | |
| PG1ADW-2 | 2026-09-01 00:54:06 | 48.81983 | 10.60557 | 87° | 120km/h | 11022m | -8.5m/s | -52.8°C | 43.5% | 238.0hPa | 2.6V | 00:00:00 | 02:24:45 | 00:00:00 | |
| DO3MHA-12 | 2026-09-01 00:54:05 | 48.81981 | 10.60511 | 87° | 120km/h | 11031m | -8.4m/s | -52.9°C | 43.8% | 237.7hPa | 2.6V | 00:00:00 | 02:24:44 | 00:00:00 | |
| DM0DOS-11 | 2026-09-01 00:54:04 | 48.81974 | 10.60278 | 87° | 120km/h | 11073m | -8.5m/s | -53.2°C | 45% | 236.2hPa | 2.6V | 08:07:23 | 02:24:39 | 00:00:00 | |
| DF3TZ-5 | 2026-09-01 00:54:01 | 48.81974 | 10.60278 | 87° | 120km/h | 11073m | -8.5m/s | -53.3°C | 35.5% | 236.2hPa | 2.5V | 00:00:00 | 00:00:00 | 00:00:00 | |
| DF7PN | 2026-09-01 00:53:52 | 48.81971 | 10.59909 | 89° | 119km/h | 11140m | -8.5m/s | -53.8°C | 36.7% | 233.7hPa | 2.5V | 00:00:00 | 00:00:00 | 00:00:00 | |
| DL6DJ-15 | 2026-09-01 00:53:47 | 48.81970 | 10.59634 | 89° | 117km/h | 11190m | -8.3m/s | -54.2°C | 0% | 231.9hPa | 2.5V | 00:00:00 | 00:00:00 | 00:00:00 | |
| NBG1-10 | 2026-09-01 00:53:46 | 48.81969 | 10.59634 | 90° | 117km/h | 11190m | -8.2m/s | -54.2°C | 47.7% | 231.9hPa | 2.5V | 00:00:00 | 02:24:25 | 00:00:00 | |
| DO3MHA-12 | 2026-09-01 00:53:45 | 48.81969 | 10.59589 | 90° | 119km/h | 11199m | -8.1m/s | -54.3°C | 47.8% | 231.5hPa | 2.5V | 08:07:00 | 02:24:24 | 00:00:00 | |
| DB0ND-19 | 2026-09-01 00:53:42 | 48.81969 | 10.59453 | 90° | 117km/h | 11224m | -8.4m/s | -54.5°C | 37.8% | 230.8hPa | 2.5V | 00:00:00 | 00:00:00 | 00:00:00 | |
| DB0UT-7 | 2026-09-01 00:53:41 | 48.81969 | 10.59407 | 91° | 117km/h | 11232m | -8.5m/s | -54.5°C | 48.2% | 230.4hPa | 2.5V | 08:07:00 | 02:24:20 | 00:00:00 | |
| OE5DXL-15 | 2026-09-01 00:53:39 | 48.81970 | 10.59316 | 91° | 117km/h | 11249m | -8.3m/s | -54.7°C | 48.6% | 229.8hPa | 2.5V | 08:07:00 | 00:00:00 | 00:00:00 | |
| DO3MHA-11 | 2026-09-01 00:53:37 | 48.81971 | 10.59226 | 91° | 117km/h | 11266m | -8.2m/s | -54.8°C | 48.8% | 229.2hPa | 2.5V | 00:00:00 | 02:24:16 | 00:00:00 | |
| DO3MHA-12 | 2026-09-01 00:53:35 | 48.81972 | 10.59136 | 91° | 117km/h | 11282m | -8.3m/s | -55.0°C | 48.9% | 228.5hPa | 2.5V | 00:00:00 | 02:24:14 | 00:00:00 | |
| DO9HM | 2026-09-01 00:53:34 | 48.81972 | 10.59091 | 92° | 117km/h | 11291m | -8.3m/s | -55.1°C | 38.4% | 228.3hPa | 2.5V | 08:08:00 | 00:00:00 | 00:00:00 | |
| OE5DRO-10 | 2026-09-01 00:53:33 | 48.81972 | 10.59046 | 91° | 117km/h | 11299m | -8.3m/s | -55.1°C | 49.0% | 228.1hPa | 2.5V | 00:00:00 | 00:00:00 | 00:00:00 | |
| DM7RM-13 | 2026-09-01 00:53:31 | 48.81973 | 10.59001 | 92° | 117km/h | 11308m | -8.6m/s | -55.3°C | 38.5% | 227.8hPa | 2.5V | 08:08:00 | 00:00:00 | 00:00:00 | |
| DF3TZ-5 | 2026-09-01 00:53:30 | 48.81975 | 10.58868 | 91° | 117km/h | 11333m | -8.5m/s | -55.5°C | 38.6% | 226.9hPa | 2.5V | 00:00:00 | 00:00:00 | 00:00:00 | |
| DJ8HS-15 | 2026-09-01 00:53:28 | 48.81975 | 10.58823 | 92° | 117km/h | 11341m | -8.3m/s | -55.5°C | 49.5% | 226.5hPa | 2.5V | 00:00:00 | 02:24:07 | 00:00:00 | |
| DO3MHA-11 | 2026-09-01 00:53:27 | 48.81976 | 10.58777 | 92° | 117km/h | 11350m | -8.3m/s | -55.6°C | 49.7% | 226.2hPa | 2.5V | 00:00:00 | 02:24:06 | 00:00:00 | |
| PG1ADW-2 | 2026-09-01 00:53:26 | 48.81977 | 10.58732 | 92° | 117km/h | 11358m | -8.4m/s | -55.7°C | 50.1% | 225.9hPa | 2.5V | 00:00:00 | 00:00:00 | 00:00:00 | |
| DO3MHA-12 | 2026-09-01 00:53:25 | 48.81978 | 10.58687 | 92° | 117km/h | 11366m | -8.4m/s | -55.8°C | 49.9% | 225.6hPa | 2.5V | 00:00:00 | 02:24:04 | 00:00:00 | |
| DK5PH-5 | 2026-09-01 00:53:24 | 48.81979 | 10.58642 | 92° | 117km/h | 11375m | -8.5m/s | -55.9°C | 49.9% | 225.3hPa | 2.5V | 00:00:00 | 02:24:03 | 00:00:00 | |
| DF7PN | 2026-09-01 00:53:21 | 48.81981 | 10.58508 | 91° | 115km/h | 11400m | -8.3m/s | -56.1°C | 38.9% | 224.5hPa | 2.5V | 00:00:00 | 00:00:00 | 00:00:00 | |
| DF1GD-15 | 2026-09-01 00:53:18 | 48.81983 | 10.58419 | 93° | 115km/h | 11417m | -8.3m/s | -56.3°C | 39.0% | 223.8hPa | 2.5V | 08:08:00 | 00:00:00 | 00:00:00 | |
| DO3MHA-11 | 2026-09-01 00:53:17 | 48.81986 | 10.58330 | 93° | 119km/h | 11433m | -8.2m/s | -56.4°C | 49.7% | 223.2hPa | 2.5V | 00:00:00 | 02:23:56 | 00:00:00 | |
| DL6DJ-15 | 2026-09-01 00:53:16 | 48.81989 | 10.58241 | 92° | 117km/h | 11450m | -8.5m/s | -56.6°C | 38.1% | 222.7hPa | 2.5V | 00:00:00 | 00:00:00 | 00:00:00 | |
| DO3MHA-12 | 2026-09-01 00:53:15 | 48.81988 | 10.58241 | 93° | 119km/h | 11450m | -8.4m/s | -56.5°C | 49.2% | 222.7hPa | 2.5V | 00:00:00 | 02:23:54 | 00:00:00 | |
| OE5DRO-10 | 2026-09-01 00:53:14 | 48.81990 | 10.58196 | 93° | 119km/h | 11459m | -8.5m/s | -56.6°C | 48.9% | 222.3hPa | 2.5V | 00:00:00 | 00:00:00 | 00:00:00 | |
| NBG1-10 | 2026-09-01 00:53:13 | 48.81992 | 10.58151 | 93° | 117km/h | 11467m | -8.4m/s | -56.6°C | 48.5% | 222.1hPa | 2.5V | 00:00:00 | 02:23:52 | 00:00:00 | |
| DO9HM | 2026-09-01 00:53:12 | 48.81992 | 10.58151 | 94° | 117km/h | 11467m | -8.4m/s | -56.7°C | 37.6% | 222.1hPa | 2.5V | 08:08:00 | 00:00:00 | 00:00:00 | |
| DB0UT-7 | 2026-09-01 00:53:11 | 48.81995 | 10.58061 | 94° | 117km/h | 11484m | -8.3m/s | -56.7°C | 48.2% | 221.5hPa | 2.5V | 00:00:00 | 00:00:00 | 00:00:00 | |
| DM7RM-13 | 2026-09-01 00:53:10 | 48.81995 | 10.58061 | 94° | 119km/h | 11484m | -8.3m/s | -56.8°C | 37.3% | 221.5hPa | 2.5V | 08:08:00 | 00:00:00 | 00:00:00 | |
| OE5DXL-15 | 2026-09-01 00:53:09 | 48.81998 | 10.57969 | 94° | 115km/h | 11501m | -8.6m/s | -56.8°C | 47.8% | 220.9hPa | 2.5V | 00:00:00 | 00:00:00 | 00:00:00 | |
| DJ8HS-15 | 2026-09-01 00:53:08 | 48.81999 | 10.57924 | 94° | 117km/h | 11510m | -8.6m/s | -56.8°C | 48.0% | 220.6hPa | 2.5V | 00:00:00 | 02:23:47 | 00:00:00 | |
| DO3MHA-11 | 2026-09-01 00:53:07 | 48.82001 | 10.57878 | 94° | 119km/h | 11518m | -8.4m/s | -56.9°C | 48.1% | 220.3hPa | 2.5V | 00:00:00 | 02:23:46 | 00:00:00 | |
| PG1ADW-2 | 2026-09-01 00:53:06 | 48.82003 | 10.57832 | 94° | 117km/h | 11527m | -8.3m/s | -56.9°C | 48.1% | 220.0hPa | 2.5V | 00:00:00 | 00:00:00 | 00:00:00 | |
| DO3MHA-12 | 2026-09-01 00:53:05 | 48.82005 | 10.57787 | 94° | 119km/h | 11535m | -8.4m/s | -57.0°C | 48.2% | 219.7hPa | 2.5V | 00:00:00 | 02:23:44 | 00:00:00 | |
| DH7VM-15 | 2026-09-01 00:53:04 | 48.82005 | 10.57787 | 94° | 119km/h | 11535m | -8.4m/s | -57.0°C | 37.2% | 219.8hPa | 2.5V | 00:00:00 | 00:00:00 | 00:00:00 | |
| DF3TZ-5 | 2026-09-01 00:52:59 | 48.82020 | 10.57471 | 95° | 117km/h | 11594m | -8.7m/s | -57.5°C | 38.0% | 217.7hPa | 2.5V | 00:00:00 | 00:00:00 | 00:00:00 | |
| DF7PN | 2026-09-01 00:52:50 | 48.82043 | 10.57118 | 96° | 115km/h | 11661m | -8.5m/s | -57.8°C | 37.8% | 215.4hPa | 2.5V | 00:00:00 | 00:00:00 | 00:00:00 | |
| BIOWL1-15 | 2026-09-01 00:52:40 | 48.82080 | 10.56650 | 96° | 110km/h | 11754m | -8.6m/s | -58.1°C | 43.4% | 212.3hPa | 2.5V | 08:10:05 | 02:23:18 | 00:00:00 | |
| BIOWL1-15 | 2026-09-01 00:52:29 | 48.82116 | 10.56191 | 96° | 108km/h | 11849m | -8.8m/s | -58.6°C | 42.7% | 209.1hPa | 2.5V | 08:10:05 | 02:23:07 | 00:00:00 | |
| BIOWL1-15 | 2026-09-01 00:52:21 | 48.82135 | 10.55777 | 93° | 108km/h | 11935m | -8.7m/s | -58.9°C | 41.8% | 206.2hPa | 2.6V | 08:10:05 | 02:22:57 | 00:00:00 | |
| DF7PN | 2026-09-01 00:52:19 | 48.82134 | 10.55819 | 92° | 108km/h | 11926m | -8.7m/s | -58.9°C | 35.4% | 206.5hPa | 2.5V | 00:00:00 | 00:00:00 | 00:00:00 | |
| DO3MHA-11 | 2026-09-01 00:52:17 | 48.82136 | 10.55736 | 93° | 113km/h | 11944m | -8.2m/s | -58.9°C | 47.0% | 205.9hPa | 2.5V | 00:00:00 | 02:22:56 | 00:00:00 | |
| DF1GD-15 | 2026-09-01 00:52:16 | 48.82137 | 10.55694 | 93° | 110km/h | 11952m | -8.9m/s | -59.0°C | 35.4% | 205.7hPa | 2.5V | 08:09:00 | 00:00:00 | 00:00:00 | |
| DO3MHA-12 | 2026-09-01 00:52:15 | 48.82138 | 10.55651 | 93° | 115km/h | 11961m | -8.8m/s | -59.0°C | 46.9% | 205.3hPa | 2.5V | 08:09:00 | 02:22:54 | 00:00:00 | |
| DL6DJ-15 | 2026-09-01 00:52:13 | 48.82140 | 10.55565 | 91° | 113km/h | 11978m | -8.7m/s | -59.2°C | 35.1% | 204.8hPa | 2.5V | 00:00:00 | 00:00:00 | 00:00:00 | |
| DB0UT-7 | 2026-09-01 00:52:10 | 48.82142 | 10.55431 | 90° | 111km/h | 12004m | -8.5m/s | -59.3°C | 45.9% | 203.9hPa | 2.5V | 00:00:00 | 00:00:00 | 00:00:00 | |
| DM0DOS-11 | 2026-09-01 00:52:09 | 48.82141 | 10.55256 | 89° | 113km/h | 12038m | -8.5m/s | -59.5°C | 44.5% | 202.9hPa | 2.6V | 08:09:17 | 02:22:45 | 00:00:00 | |
| OE5DXL-15 | 2026-09-01 00:52:09 | 48.82141 | 10.55387 | 90° | 111km/h | 12012m | -8.6m/s | -59.3°C | 45.7% | 203.7hPa | 2.5V | 00:00:00 | 02:22:48 | 00:00:00 | |
| DJ8HS-15 | 2026-09-01 00:52:08 | 48.82141 | 10.55343 | 90° | 111km/h | 12021m | -8.6m/s | -59.4°C | 45.5% | 203.4hPa | 2.5V | 00:00:00 | 02:22:47 | 00:00:00 | |
| NBG1-10 | 2026-09-01 00:52:07 | 48.82141 | 10.55299 | 90° | 111km/h | 12030m | -8.4m/s | -59.4°C | 44.9% | 203.1hPa | 2.5V | 00:00:00 | 02:22:46 | 00:00:00 | |
| PG1ADW-2 | 2026-09-01 00:52:06 | 48.82141 | 10.55256 | 90° | 111km/h | 12038m | -8.4m/s | -59.5°C | 44.5% | 202.8hPa | 2.5V | 00:00:00 | 00:00:00 | 00:00:00 | |
| DO3MHA-12 | 2026-09-01 00:52:05 | 48.82140 | 10.55213 | 90° | 113km/h | 12047m | -9.0m/s | -59.5°C | 44.1% | 202.5hPa | 2.5V | 00:00:00 | 02:22:44 | 00:00:00 | |
| DN1GJH-1 | 2026-09-01 00:52:02 | 48.82140 | 10.55127 | 91° | 113km/h | 12065m | -8.6m/s | -59.5°C | 32.5% | 202.1hPa | 2.5V | 08:10:00 | 00:00:00 | 00:00:00 | |
| DM0DOS-11 | 2026-09-01 00:51:58 | 48.82136 | 10.54824 | 87° | 113km/h | 12127m | -8.7m/s | -58.8°C | 37.3% | 200.1hPa | 2.5V | 08:09:27 | 02:22:35 | 00:00:00 | |
| DF3TZ-5 | 2026-09-01 00:51:57 | 48.82136 | 10.54824 | 87° | 111km/h | 12127m | -8.7m/s | -58.8°C | 27.4% | 200.1hPa | 2.5V | 00:00:00 | 00:00:00 | 00:00:00 | |
| DL1ZP-14 | 2026-09-01 00:51:50 | 48.82126 | 10.54569 | 85° | 108km/h | 12180m | -9.1m/s | -58.9°C | 23.4% | 198.4hPa | 2.5V | 00:00:00 | 00:00:00 | 00:00:00 | |
| DF7PN | 2026-09-01 00:51:48 | 48.82122 | 10.54486 | 84° | 106km/h | 12197m | -8.6m/s | -58.8°C | 21.9% | 197.8hPa | 2.6V | 00:00:00 | 00:00:00 | 00:00:00 | |
| DM0DOS-11 | 2026-09-01 00:51:48 | 48.82115 | 10.54405 | 83° | 106km/h | 12215m | -8.8m/s | -58.9°C | 29.1% | 197.2hPa | 2.5V | 08:09:37 | 02:22:25 | 00:00:00 | |
| BIOWL1-15 | 2026-09-01 00:51:40 | 48.82075 | 10.53986 | 80° | 113km/h | 12303m | -9m/s | -58.7°C | 17.7% | 194.5hPa | 2.6V | 08:10:05 | 02:22:15 | 00:00:00 | |
| OE5DRO-10 | 2026-09-01 00:51:39 | 48.82089 | 10.54113 | 82° | 119km/h | 12277m | -8.9m/s | -59.1°C | 24.1% | 195.3hPa | 2.6V | 00:00:00 | 00:00:00 | 00:00:00 | |
| DM0DOS-11 | 2026-09-01 00:51:38 | 48.82075 | 10.53986 | 80° | 113km/h | 12303m | -9m/s | -58.6°C | 21.2% | 194.5hPa | 2.6V | 08:09:47 | 02:22:15 | 00:00:00 | |
| BIOWL1-15 | 2026-09-01 00:51:29 | 48.82045 | 10.53674 | 83° | 122km/h | 12366m | -8.9m/s | -58.1°C | 14.6% | 192.6hPa | 2.5V | 08:10:05 | 02:22:08 | 00:00:00 | |
| DO9HM | 2026-09-01 00:51:29 | 48.82045 | 10.53674 | 84° | 122km/h | 12366m | -8.9m/s | -58.1°C | 11.3% | 192.6hPa | 2.5V | 08:10:00 | 00:00:00 | 00:00:00 | |
| DM0DOS-11 | 2026-09-01 00:51:28 | 48.82034 | 10.53533 | 84° | 124km/h | 12393m | -9m/s | -58.2°C | 16.6% | 191.8hPa | 2.5V | 08:09:57 | 02:22:05 | 00:00:00 | |
| BIOWL1-15 | 2026-09-01 00:51:19 | 48.82017 | 10.53155 | 87° | 122km/h | 12467m | -9.2m/s | -58°C | 11.6% | 189.5hPa | 2.6V | 08:10:05 | 02:21:57 | 00:00:00 | |
| DM0DOS-11 | 2026-09-01 00:51:18 | 48.82014 | 10.53062 | 86° | 120km/h | 12485m | -9.4m/s | -58°C | 14.5% | 189hPa | 2.5V | 08:10:07 | 02:21:55 | 00:00:00 | |
| DO3MHA-11 | 2026-09-01 00:51:17 | 48.82016 | 10.53108 | 87° | 117km/h | 12476m | -9.1m/s | -58.0°C | 14.7% | 189.2hPa | 2.5V | 00:00:00 | 02:21:56 | 00:00:00 | |
| DB0NH | 2026-09-01 00:51:16 | 48.82014 | 10.53062 | 87° | 115km/h | 12486m | -9.4m/s | -58.0°C | 14.5% | 188.9hPa | 2.5V | 00:00:00 | 02:21:55 | 00:00:00 | |
| BIOWL1-15 | 2026-09-01 00:51:10 | 48.81955 | 10.52288 | 82° | 113km/h | 12653m | -9.6m/s | -56.7°C | 7.3% | 184.1hPa | 2.5V | 08:11:47 | 02:21:37 | 00:00:00 | |
| OE5DXL-15 | 2026-09-01 00:51:09 | 48.81997 | 10.52752 | 86° | 113km/h | 12550m | -9.2m/s | -57.6°C | 12.5% | 187.0hPa | 2.6V | 00:00:00 | 00:00:00 | 00:00:00 | |
| DM0DOS-11 | 2026-09-01 00:51:07 | 48.81989 | 10.52625 | 82° | 111km/h | 12577m | -9.5m/s | -57.7°C | 12.2% | 186.3hPa | 2.6V | 08:10:17 | 02:21:45 | 00:00:00 | |
| DO3MHA-11 | 2026-09-01 00:51:07 | 48.81992 | 10.52668 | 85° | 111km/h | 12568m | -9.3m/s | -57.7°C | 12.3% | 186.5hPa | 2.5V | 00:00:00 | 02:21:46 | 00:00:00 | |
| PG1ADW-2 | 2026-09-01 00:51:06 | 48.81989 | 10.52625 | 83° | 115km/h | 12578m | -9.4m/s | -57.7°C | 12.2% | 186.2hPa | 2.5V | 00:00:00 | 00:00:00 | 00:00:00 | |
| DO3MHA-12 | 2026-09-01 00:51:05 | 48.81985 | 10.52583 | 83° | 111km/h | 12587m | -9.7m/s | -57.5°C | 11.9% | 185.9hPa | 2.5V | 00:00:00 | 02:21:44 | 00:00:00 | |
| DM0DOS-11 | 2026-09-01 00:51:02 | 48.81947 | 10.52201 | 83° | 117km/h | 12672m | -9.4m/s | -56.8°C | 10.1% | 183.5hPa | 2.5V | 08:10:27 | 02:21:35 | 00:00:00 | |
| BIOWL1-15 | 2026-09-01 00:50:53 | 48.81938 | 10.52066 | 84° | 120km/h | 12701m | -9.6m/s | -56.8°C | 6.2% | 182.7hPa | 2.5V | 08:11:47 | 02:21:32 | 00:00:00 | |
| DM0DOS-11 | 2026-09-01 00:50:51 | 48.81927 | 10.51751 | 89° | 113km/h | 12767m | -9.7m/s | -56.7°C | 7.9% | 180.8hPa | 2.5V | 08:10:37 | 02:21:25 | 00:00:00 | |
| SONCRA | 2026-09-01 00:50:50 | 48.81930 | 10.51884 | 87° | 117km/h | 12738m | -9.6m/s | -56.6°C | 4.4% | 181.6hPa | 2.5V | 00:00:00 | 00:00:00 | 00:00:00 | |
| DL1ZP-14 | 2026-09-01 00:50:48 | 48.81928 | 10.51795 | 88° | 115km/h | 12758m | -10.0m/s | -56.7°C | 4.1% | 181.1hPa | 2.5V | 00:00:00 | 00:00:00 | 00:00:00 | |
| DF7PN | 2026-09-01 00:50:46 | 48.81927 | 10.51708 | 90° | 111km/h | 12777m | -9.9m/s | -56.5°C | 3.7% | 180.5hPa | 2.6V | 00:00:00 | 00:00:00 | 00:00:00 | |
| BIOWL1-15 | 2026-09-01 00:50:45 | 48.81928 | 10.51583 | 92° | 106km/h | 12806m | -9.6m/s | -55.9°C | 3.3% | 179.7hPa | 2.6V | 08:11:47 | 02:21:21 | 00:00:00 | |
| OE5DRO-10 | 2026-09-01 00:50:42 | 48.81928 | 10.51583 | 92° | 99km/h | 12806m | -9.6m/s | -55.9°C | 6.7% | 179.6hPa | 2.6V | 00:00:00 | 00:00:00 | 00:00:00 | |
| DM0DOS-11 | 2026-09-01 00:50:41 | 48.81932 | 10.51350 | 90° | 99km/h | 12863m | -9.3m/s | -55.7°C | 6.2% | 178hPa | 2.6V | 08:10:47 | 02:21:15 | 00:00:00 | |
| DB0UT-7 | 2026-09-01 00:50:40 | 48.81929 | 10.51504 | 92° | 95km/h | 12825m | -9.6m/s | -55.8°C | 6.5% | 179.0hPa | 2.5V | 00:00:00 | 02:21:19 | 00:00:00 | |
| OE5DXL-15 | 2026-09-01 00:50:39 | 48.81930 | 10.51465 | 92° | 95km/h | 12835m | -9.6m/s | -55.7°C | 6.4% | 178.8hPa | 2.5V | 00:00:00 | 00:00:00 | 00:00:00 | |
| DO3MHA-11 | 2026-09-01 00:50:37 | 48.81932 | 10.51388 | 91° | 97km/h | 12854m | -9.6m/s | -55.7°C | 6.3% | 178.3hPa | 2.6V | 00:00:00 | 02:21:16 | 00:00:00 | |
| DB0ND-19 | 2026-09-01 00:50:36 | 48.81932 | 10.51350 | 90° | 99km/h | 12863m | -9.3m/s | -55.7°C | 2.7% | 178.0hPa | 2.6V | 00:00:00 | 00:00:00 | 00:00:00 | |
| DO3MHA-12 | 2026-09-01 00:50:35 | 48.81932 | 10.51312 | 90° | 97km/h | 12873m | -9.6m/s | -55.6°C | 6.1% | 177.8hPa | 2.6V | 00:00:00 | 02:21:14 | 00:00:00 | |
| DF1GD-15 | 2026-09-01 00:50:34 | 48.81932 | 10.51312 | 91° | 99km/h | 12873m | -9.6m/s | -55.7°C | 2.7% | 177.8hPa | 2.6V | 08:10:00 | 00:00:00 | 00:00:00 | |
| DM0DOS-11 | 2026-09-01 00:50:31 | 48.81926 | 10.50942 | 88° | 97km/h | 12970m | -9.7m/s | -55.2°C | 5.7% | 175.1hPa | 2.6V | 08:10:58 | 02:21:04 | 00:00:00 | |
| AZAK | 2026-09-01 00:50:31 | 48.81930 | 10.51163 | 89° | 97km/h | 12912m | -9.7m/s | -55.5°C | 2.5% | 176.7hPa | 2.5V | 08:10:00 | 00:00:00 | 00:00:00 | |
| NBG1-10 | 2026-09-01 00:50:28 | 48.81928 | 10.51053 | 89° | 93km/h | 12941m | -9.6m/s | -55.3°C | 5.8% | 175.9hPa | 2.5V | 00:00:00 | 02:21:07 | 00:00:00 | |
| DO3MHA-11 | 2026-09-01 00:50:27 | 48.81927 | 10.51016 | 89° | 95km/h | 12951m | -9.7m/s | -55.3°C | 5.8% | 175.6hPa | 2.5V | 00:00:00 | 02:21:06 | 00:00:00 | |
| DO9HM | 2026-09-01 00:50:26 | 48.81926 | 10.50979 | 89° | 97km/h | 12960m | -10.1m/s | -55.3°C | 2.5% | 175.4hPa | 2.5V | 08:11:00 | 00:00:00 | 00:00:00 | |
| DO3MHA-12 | 2026-09-01 00:50:25 | 48.81925 | 10.50942 | 89° | 93km/h | 12970m | -9.7m/s | -55.1°C | 5.7% | 175.1hPa | 2.5V | 00:00:00 | 02:21:04 | 00:00:00 | |
| DK5PH-5 | 2026-09-01 00:50:24 | 48.81925 | 10.50905 | 88° | 93km/h | 12980m | -9.5m/s | -55.0°C | 5.7% | 174.8hPa | 2.5V | 00:00:00 | 02:21:03 | 00:00:00 | |
| OE5DRO-10 | 2026-09-01 00:50:23 | 48.81924 | 10.50868 | 88° | 91km/h | 12990m | -9.7m/s | -54.9°C | 5.6% | 174.5hPa | 2.5V | 00:00:00 | 00:00:00 | 00:00:00 | |
| DN1GJH-1 | 2026-09-01 00:50:21 | 48.81923 | 10.50832 | 89° | 95km/h | 12999m | -9.6m/s | -54.9°C | 2.4% | 174.3hPa | 2.5V | 08:11:00 | 00:00:00 | 00:00:00 | |
| SONCRA | 2026-09-01 00:50:19 | 48.81922 | 10.50691 | 90° | 89km/h | 13038m | -10.0m/s | -55.1°C | 2.4% | 173.3hPa | 2.5V | 00:00:00 | 00:00:00 | 00:00:00 | |
| DO3MHA-11 | 2026-09-01 00:50:17 | 48.81922 | 10.50657 | 91° | 89km/h | 13048m | -10.0m/s | -55.0°C | 5.7% | 172.9hPa | 2.5V | 00:00:00 | 02:20:56 | 00:00:00 | |
| DM0DOS-11 | 2026-09-01 00:50:17 | 48.81922 | 10.50623 | 91° | 89km/h | 13058m | -9.9m/s | -55.1°C | 5.8% | 172.7hPa | 2.5V | 08:11:07 | 02:20:55 | 00:00:00 | |
| DB0NH | 2026-09-01 00:50:16 | 48.81922 | 10.50623 | 92° | 97km/h | 13058m | -9.9m/s | -55.1°C | 5.8% | 172.7hPa | 2.5V | 00:00:00 | 02:20:55 | 00:00:00 | |
| DO3MHA-12 | 2026-09-01 00:50:15 | 48.81923 | 10.50588 | 92° | 91km/h | 13068m | -10.0m/s | -55.1°C | 5.8% | 172.5hPa | 2.5V | 00:00:00 | 02:20:54 | 00:00:00 | |
| DF1GD-15 | 2026-09-01 00:50:13 | 48.81923 | 10.50554 | 93° | 89km/h | 13078m | -9.9m/s | -55.2°C | 2.5% | 172.2hPa | 2.6V | 08:11:00 | 00:00:00 | 00:00:00 | |
| DM0DOS-11 | 2026-09-01 00:50:12 | 48.81922 | 10.50276 | 86° | 95km/h | 13157m | -10.1m/s | -55.1°C | 5.8% | 170.1hPa | 2.6V | 08:11:17 | 02:20:45 | 00:00:00 | |
| DB0UT-7 | 2026-09-01 00:50:10 | 48.81925 | 10.50417 | 90° | 99km/h | 13118m | -10.1m/s | -55.0°C | 5.8% | 171.1hPa | 2.5V | 00:00:00 | 00:00:00 | 00:00:00 | |
| AZAK | 2026-09-01 00:50:09 | 48.81924 | 10.50348 | 89° | 91km/h | 13137m | -9.8m/s | -55.1°C | 2.5% | 170.6hPa | 2.5V | 08:11:00 | 00:00:00 | 00:00:00 | |
| DJ8HS-15 | 2026-09-01 00:50:08 | 48.81924 | 10.50348 | 88° | 99km/h | 13137m | -9.7m/s | -55.0°C | 5.8% | 170.6hPa | 2.5V | 00:00:00 | 02:20:47 | 00:00:00 | |
| DO3MHA-11 | 2026-09-01 00:50:07 | 48.81923 | 10.50312 | 88° | 95km/h | 13147m | -9.8m/s | -55.0°C | 5.8% | 170.3hPa | 2.5V | 00:00:00 | 02:20:46 | 00:00:00 | |
| DO9HM | 2026-09-01 00:50:05 | 48.81920 | 10.50240 | 88° | 95km/h | 13167m | -9.9m/s | -55.1°C | 2.6% | 169.8hPa | 2.5V | 08:11:00 | 00:00:00 | 00:00:00 | |
| PG1ADW-2 | 2026-09-01 00:50:04 | 48.81919 | 10.50204 | 88° | 100km/h | 13177m | -10.1m/s | -55.1°C | 5.9% | 169.5hPa | 2.5V | 00:00:00 | 02:20:43 | 00:00:00 | |
| DN1GJH-1 | 2026-09-01 00:50:00 | 48.81916 | 10.50094 | 89° | 97km/h | 13207m | -9.4m/s | -55.3°C | 2.6% | 168.8hPa | 2.5V | 08:11:00 | 00:00:00 | 00:00:00 | |
| DM0DOS-11 | 2026-09-01 00:49:57 | 48.81909 | 10.49907 | 85° | 99km/h | 13256m | -10.1m/s | -55.4°C | 6.1% | 167.5hPa | 2.5V | 08:11:27 | 02:20:35 | 00:00:00 | |
| DF3TZ-5 | 2026-09-01 00:49:52 | 48.81902 | 10.49754 | 86° | 100km/h | 13296m | -9.8m/s | -55.3°C | 2.5% | 166.4hPa | 2.5V | 00:00:00 | 00:00:00 | 00:00:00 | |
| BIOWL1-15 | 2026-09-01 00:49:49 | 48.81881 | 10.49213 | 86° | 95km/h | 13435m | -9.6m/s | -54.5°C | 2.3% | 162.9hPa | 2.5V | 08:11:47 | 02:20:17 | 00:00:00 | |
| SONCRA | 2026-09-01 00:49:48 | 48.81897 | 10.49598 | 86° | 102km/h | 13336m | -10.0m/s | -55.2°C | 2.5% | 165.4hPa | 2.5V | 00:00:00 | 00:00:00 | 00:00:00 | |
| DM0DOS-11 | 2026-09-01 00:49:47 | 48.81894 | 10.49520 | 86° | 104km/h | 13356m | -9.7m/s | -55.1°C | 6% | 164.9hPa | 2.5V | 08:11:37 | 02:20:25 | 00:00:00 | |
| DL1ZP-14 | 2026-09-01 00:49:46 | 48.81892 | 10.49480 | 86° | 102km/h | 13365m | -10.0m/s | -55.1°C | 2.5% | 164.7hPa | 2.5V | 00:00:00 | 00:00:00 | 00:00:00 | |
| DO3MHA-12 | 2026-09-01 00:49:45 | 48.81892 | 10.49480 | 87° | 99km/h | 13366m | -10.0m/s | -55.0°C | 6.0% | 164.6hPa | 2.5V | 00:00:00 | 02:20:24 | 00:00:00 | |
| DO9HM | 2026-09-01 00:49:44 | 48.81890 | 10.49441 | 88° | 102km/h | 13376m | -9.5m/s | -54.9°C | 2.5% | 164.4hPa | 2.5V | 08:11:00 | 00:00:00 | 00:00:00 | |
| DM0DOS-11 | 2026-09-01 00:49:41 | 48.81875 | 10.49105 | 83° | 95km/h | 13464m | -9.9m/s | -54.1°C | 5.8% | 162.1hPa | 2.5V | 08:11:48 | 02:20:14 | 00:00:00 | |
| BIOWL1-15 | 2026-09-01 00:49:35 | 48.81875 | 10.49105 | 84° | 95km/h | 13464m | -9.9m/s | -54.2°C | 2.4% | 162.1hPa | 2.5V | 08:15:11 | 02:20:14 | 00:00:00 | |
| DO3MHA-12 | 2026-09-01 00:49:35 | 48.81875 | 10.49105 | 84° | 95km/h | 13464m | -9.9m/s | -54.1°C | 5.8% | 162.1hPa | 2.5V | 00:00:00 | 02:20:14 | 00:00:00 | |
| DB0ND-19 | 2026-09-01 00:49:34 | 48.81872 | 10.49069 | 82° | 93km/h | 13474m | -10.0m/s | -53.9°C | 2.5% | 161.9hPa | 2.5V | 00:00:00 | 00:00:00 | 00:00:00 | |
| DF1GD-15 | 2026-09-01 00:49:31 | 48.81865 | 10.48997 | 83° | 95km/h | 13494m | -10.2m/s | -53.6°C | 2.5% | 161.4hPa | 2.5V | 08:12:00 | 00:00:00 | 00:00:00 | |
| DM0DOS-11 | 2026-09-01 00:49:27 | 48.81847 | 10.48782 | 83° | 93km/h | 13555m | -9.9m/s | -53.2°C | 5.4% | 159.9hPa | 2.5V | 08:11:57 | 02:20:05 | 00:00:00 | |
| BIOWL1-15 | 2026-09-01 00:49:24 | 48.81817 | 10.48432 | 81° | 89km/h | 13657m | -10.4m/s | -53.1°C | 2.1% | 157.4hPa | 2.5V | 08:15:11 | 02:19:55 | 00:00:00 | |
| DK5PH-5 | 2026-09-01 00:49:24 | 48.81841 | 10.48712 | 85° | 89km/h | 13575m | -10.1m/s | -53.2°C | 5.3% | 159.3hPa | 2.5V | 00:00:00 | 02:20:03 | 00:00:00 | |
| OE3JTB-15 | 2026-09-01 00:49:23 | 48.81839 | 10.48676 | 84° | 84km/h | 13586m | -9.8m/s | -53.2°C | 5.3% | 159.1hPa | 2.5V | 00:00:00 | 00:00:00 | 08:30:00 | |
| NBG1-10 | 2026-09-01 00:49:22 | 48.81836 | 10.48641 | 84° | 89km/h | 13596m | -10.2m/s | -53.2°C | 5.3% | 158.8hPa | 2.5V | 00:00:00 | 02:20:01 | 00:00:00 | |
| DM0DOS-11 | 2026-09-01 00:49:21 | 48.81817 | 10.48432 | 81° | 89km/h | 13657m | -10.3m/s | -53.1°C | 5.2% | 157.4hPa | 2.5V | 08:12:07 | 02:19:55 | 00:00:00 | |
| BIOWL1-15 | 2026-09-01 00:49:12 | 48.81804 | 10.48298 | 82° | 88km/h | 13699m | -10m/s | -53.3°C | 2.1% | 156.3hPa | 2.5V | 08:15:11 | 02:19:51 | 00:00:00 | |
| DF1GD-15 | 2026-09-01 00:49:11 | 48.81804 | 10.48298 | 83° | 88km/h | 13699m | -10.0m/s | -53.3°C | 2.2% | 156.4hPa | 2.5V | 08:12:00 | 00:00:00 | 00:00:00 | |
| DB0UT-7 | 2026-09-01 00:49:10 | 48.81798 | 10.48232 | 82° | 89km/h | 13719m | -10.3m/s | -53.3°C | 5.2% | 155.8hPa | 2.5V | 08:12:00 | 00:00:00 | 00:00:00 | |
| OE5DXL-15 | 2026-09-01 00:49:09 | 48.81795 | 10.48199 | 82° | 91km/h | 13729m | -9.9m/s | -53.3°C | 5.2% | 155.6hPa | 2.5V | 08:12:00 | 00:00:00 | 00:00:00 | |
| DM0DOS-11 | 2026-09-01 00:49:08 | 48.81784 | 10.48100 | 80° | 88km/h | 13759m | -9.9m/s | -53.5°C | 5.2% | 154.9hPa | 2.5V | 08:12:17 | 02:19:45 | 00:00:00 | |
| BIOWL1-15 | 2026-09-01 00:49:03 | 48.81769 | 10.47970 | 80° | 86km/h | 13800m | -10m/s | -53.7°C | 2% | 153.9hPa | 2.6V | 08:15:11 | 02:19:41 | 00:00:00 | |
| DO9HM | 2026-09-01 00:49:03 | 48.81772 | 10.48002 | 81° | 86km/h | 13790m | -10.3m/s | -53.6°C | 2.2% | 154.2hPa | 2.6V | 08:12:00 | 00:00:00 | 00:00:00 | |
| DM7RM-13 | 2026-09-01 00:48:59 | 48.81761 | 10.47905 | 81° | 86km/h | 13821m | -10.3m/s | -53.8°C | 2.2% | 153.4hPa | 2.6V | 08:12:00 | 00:00:00 | 00:00:00 | |
| DM0DOS-11 | 2026-09-01 00:48:58 | 48.81746 | 10.47775 | 79° | 88km/h | 13861m | -10m/s | -54.1°C | 5.3% | 152.4hPa | 2.6V | 08:12:27 | 02:19:35 | 00:00:00 | |
| DF3TZ-5 | 2026-09-01 00:48:50 | 48.81721 | 10.47569 | 79° | 93km/h | 13924m | -10.1m/s | -54.5°C | 2.2% | 150.9hPa | 2.5V | 00:00:00 | 00:00:00 | 00:00:00 | |
| NBG1-10 | 2026-09-01 00:48:49 | 48.81717 | 10.47534 | 81° | 99km/h | 13934m | -10.1m/s | -54.5°C | 5.4% | 150.7hPa | 2.5V | 00:00:00 | 02:19:28 | 00:00:00 | |
| DM0DOS-11 | 2026-09-01 00:48:48 | 48.81704 | 10.47427 | 79° | 95km/h | 13965m | -10.5m/s | -54.7°C | 5.4% | 150hPa | 2.5V | 08:12:37 | 02:19:25 | 00:00:00 | |
| SONCRA | 2026-09-01 00:48:46 | 48.81700 | 10.47391 | 80° | 93km/h | 13976m | -10.7m/s | -54.7°C | 2.2% | 149.8hPa | 2.6V | 00:00:00 | 00:00:00 | 00:00:00 | |
| DO3MHA-12 | 2026-09-01 00:48:45 | 48.81699 | 10.47391 | 81° | 99km/h | 13976m | -10.6m/s | -54.7°C | 5.4% | 149.7hPa | 2.6V | 00:00:00 | 02:19:24 | 00:00:00 | |
| AZAK | 2026-09-01 00:48:44 | 48.81692 | 10.47319 | 84° | 97km/h | 13997m | -10.5m/s | -54.8°C | 2.2% | 149.3hPa | 2.5V | 08:13:00 | 00:00:00 | 00:00:00 | |
| DO9HM | 2026-09-01 00:48:43 | 48.81692 | 10.47319 | 84° | 97km/h | 13997m | -10.5m/s | -54.8°C | 2.2% | 149.3hPa | 2.5V | 08:13:00 | 00:00:00 | 00:00:00 | |
| DM0DOS-11 | 2026-09-01 00:48:42 | 48.81676 | 10.47056 | 86° | 100km/h | 14068m | -10.4m/s | -54.8°C | 5.3% | 147.6hPa | 2.5V | 08:12:47 | 02:19:15 | 00:00:00 | |
| BIOWL1-15 | 2026-09-01 00:48:35 | 48.81674 | 10.47018 | 86° | 100km/h | 14079m | -10.2m/s | -54.8°C | 1.8% | 147.3hPa | 2.5V | 08:15:11 | 02:19:14 | 00:00:00 | |
| DO3MHA-12 | 2026-09-01 00:48:35 | 48.81674 | 10.47018 | 87° | 100km/h | 14079m | -10.2m/s | -54.7°C | 5.3% | 147.3hPa | 2.6V | 00:00:00 | 02:19:14 | 00:00:00 | |
| DB0ND-19 | 2026-09-01 00:48:32 | 48.81670 | 10.46902 | 86° | 100km/h | 14110m | -10.6m/s | -54.9°C | 2.0% | 146.7hPa | 2.6V | 00:00:00 | 00:00:00 | 00:00:00 | |
| DM0DOS-11 | 2026-09-01 00:48:30 | 48.81663 | 10.46672 | 88° | 100km/h | 14173m | -10m/s | -55.1°C | 5.3% | 145.2hPa | 2.6V | 08:12:57 | 02:19:05 | 00:00:00 | |
| BIOWL1-15 | 2026-09-01 00:48:22 | 48.81662 | 10.46516 | 90° | 100km/h | 14214m | -10.5m/s | -55°C | 1.6% | 144.3hPa | 2.5V | 08:15:11 | 02:19:01 | 00:00:00 | |
| DM0DOS-11 | 2026-09-01 00:48:20 | 48.81664 | 10.46292 | 91° | 95km/h | 14277m | -10.6m/s | -55°C | 5.3% | 142.8hPa | 2.6V | 08:13:07 | 02:18:55 | 00:00:00 | |
| BIOWL1-15 | 2026-09-01 00:48:14 | 48.81663 | 10.45843 | 88° | 86km/h | 14415m | -10.2m/s | -54.9°C | 1.7% | 139.8hPa | 2.6V | 08:15:11 | 02:18:42 | 00:00:00 | |
| DL1ZP-14 | 2026-09-01 00:48:12 | 48.81666 | 10.46147 | 90° | 93km/h | 14319m | -10.6m/s | -55.0°C | 2.0% | 141.9hPa | 2.5V | 00:00:00 | 00:00:00 | 00:00:00 | |
| DF7PN | 2026-09-01 00:48:11 | 48.81666 | 10.46077 | 89° | 89km/h | 14340m | -10.9m/s | -54.9°C | 2.0% | 141.5hPa | 2.5V | 00:00:00 | 00:00:00 | 00:00:00 | |
| DB0UT-7 | 2026-09-01 00:48:10 | 48.81666 | 10.46077 | 90° | 88km/h | 14340m | -10.8m/s | -54.9°C | 5.3% | 141.4hPa | 2.5V | 00:00:00 | 00:00:00 | 00:00:00 | |
| OE5DXL-15 | 2026-09-01 00:48:09 | 48.81665 | 10.46042 | 90° | 88km/h | 14351m | -10.6m/s | -54.9°C | 5.3% | 141.2hPa | 2.5V | 00:00:00 | 00:00:00 | 00:00:00 | |
| DM0DOS-11 | 2026-09-01 00:48:08 | 48.81664 | 10.45942 | 88° | 86km/h | 14383m | -10.7m/s | -55°C | 5.4% | 140.5hPa | 2.5V | 08:13:17 | 02:18:45 | 00:00:00 | |
| DJ8HS-15 | 2026-09-01 00:48:08 | 48.81665 | 10.46008 | 90° | 88km/h | 14362m | -10.5m/s | -54.9°C | 5.3% | 140.9hPa | 2.5V | 00:00:00 | 02:18:47 | 00:00:00 | |
| DO3MHA-11 | 2026-09-01 00:48:07 | 48.81665 | 10.45975 | 90° | 88km/h | 14373m | -10.9m/s | -54.9°C | 5.3% | 140.7hPa | 2.5V | 00:00:00 | 02:18:46 | 00:00:00 | |
| DO3MHA-12 | 2026-09-01 00:48:05 | 48.81664 | 10.45908 | 89° | 88km/h | 14394m | -10.4m/s | -54.9°C | 5.3% | 140.2hPa | 2.5V | 00:00:00 | 02:18:44 | 00:00:00 | |
| AM1SDL-15 | 2026-09-01 00:48:04 | 48.81663 | 10.45876 | 89° | 88km/h | 14405m | -10.8m/s | -54.8°C | 5.3% | 140.0hPa | 2.5V | 00:00:00 | 02:18:43 | 00:00:00 | |
| DO9HM | 2026-09-01 00:48:02 | 48.81662 | 10.45843 | 89° | 86km/h | 14415m | -10.2m/s | -54.9°C | 2.0% | 139.8hPa | 2.5V | 08:13:00 | 00:00:00 | 00:00:00 | |
| DB0ND-19 | 2026-09-01 00:48:01 | 48.81661 | 10.45776 | 88° | 86km/h | 14435m | -10.0m/s | -54.9°C | 2.0% | 139.4hPa | 2.5V | 00:00:00 | 00:00:00 | 00:00:00 | |
| DM0DOS-11 | 2026-09-01 00:47:58 | 48.81660 | 10.45609 | 90° | 88km/h | 14488m | -10.5m/s | -54.8°C | 5.3% | 138.2hPa | 2.5V | 08:13:27 | 02:18:35 | 00:00:00 | |
| BIOWL1-15 | 2026-09-01 00:47:58 | 48.81660 | 10.45676 | 90° | 88km/h | 14467m | -10.8m/s | -54.9°C | 1.6% | 138.7hPa | 2.6V | 08:15:11 | 02:18:37 | 00:00:00 | |
| DF3TZ-5 | 2026-09-01 00:47:48 | 48.81663 | 10.45337 | 92° | 86km/h | 14574m | -10.7m/s | -54.3°C | 1.8% | 136.4hPa | 2.6V | 00:00:00 | 00:00:00 | 00:00:00 | |
| DM0DOS-11 | 2026-09-01 00:47:47 | 48.81665 | 10.45271 | 93° | 86km/h | 14595m | -10.7m/s | -54.3°C | 4.9% | 135.9hPa | 2.6V | 08:13:37 | 02:18:25 | 00:00:00 | |
| DO3MHA-11 | 2026-09-01 00:47:47 | 48.81664 | 10.45303 | 94° | 89km/h | 14585m | -10.6m/s | -54.2°C | 4.9% | 136.1hPa | 2.5V | 00:00:00 | 02:18:26 | 00:00:00 | |
| DB0NH | 2026-09-01 00:47:46 | 48.81665 | 10.45271 | 94° | 84km/h | 14595m | -10.7m/s | -54.3°C | 4.9% | 135.9hPa | 2.5V | 00:00:00 | 02:18:25 | 00:00:00 | |
| DO3MHA-12 | 2026-09-01 00:47:45 | 48.81667 | 10.45237 | 96° | 89km/h | 14606m | -10.6m/s | -54.3°C | 4.9% | 135.7hPa | 2.5V | 08:13:00 | 02:18:24 | 00:00:00 | |
| SONCRA | 2026-09-01 00:47:44 | 48.81672 | 10.45170 | 97° | 88km/h | 14627m | -10.5m/s | -54.3°C | 1.8% | 135.3hPa | 2.5V | 00:00:00 | 00:00:00 | 00:00:00 | |
| NBG1-10 | 2026-09-01 00:47:43 | 48.81671 | 10.45170 | 98° | 80km/h | 14627m | -10.4m/s | -54.3°C | 4.9% | 135.2hPa | 2.5V | 00:00:00 | 02:18:22 | 00:00:00 | |
| DM0DOS-11 | 2026-09-01 00:47:42 | 48.81694 | 10.44934 | 97° | 86km/h | 14701m | -10.6m/s | -54.4°C | 4.9% | 133.7hPa | 2.5V | 08:13:47 | 02:18:15 | 00:00:00 | |
| BIOWL1-15 | 2026-09-01 00:47:40 | 48.81694 | 10.44934 | 98° | 86km/h | 14701m | -10.6m/s | -54.4°C | 1.3% | 133.7hPa | 2.5V | 08:15:11 | 02:18:15 | 00:00:00 | |
| DF7PN | 2026-09-01 00:47:40 | 48.81684 | 10.45034 | 98° | 88km/h | 14669m | -10.9m/s | -54.4°C | 1.8% | 134.4hPa | 2.5V | 00:00:00 | 00:00:00 | 00:00:00 | |
| OE5DXL-15 | 2026-09-01 00:47:39 | 48.81684 | 10.45034 | 99° | 78km/h | 14670m | -10.8m/s | -54.4°C | 4.9% | 134.3hPa | 2.5V | 00:00:00 | 00:00:00 | 00:00:00 | |
| DO3MHA-11 | 2026-09-01 00:47:37 | 48.81690 | 10.44967 | 98° | 84km/h | 14691m | -10.6m/s | -54.4°C | 4.9% | 133.9hPa | 2.5V | 00:00:00 | 02:18:16 | 00:00:00 | |
| DM7RM-13 | 2026-09-01 00:47:36 | 48.81690 | 10.44967 | 99° | 88km/h | 14691m | -10.7m/s | -54.4°C | 1.8% | 133.9hPa | 2.5V | 08:14:00 | 00:00:00 | 00:00:00 | |
| DO3MHA-12 | 2026-09-01 00:47:35 | 48.81696 | 10.44901 | 98° | 84km/h | 14712m | -10.7m/s | -54.4°C | 4.9% | 133.4hPa | 2.5V | 00:00:00 | 02:18:14 | 00:00:00 | |
| DL6DJ-15 | 2026-09-01 00:47:33 | 48.81701 | 10.44837 | 95° | 82km/h | 14734m | -11.0m/s | -54.3°C | 1.7% | 133.0hPa | 2.5V | 00:00:00 | 00:00:00 | 00:00:00 | |
| OE5DRO-10 | 2026-09-01 00:47:32 | 48.81703 | 10.44805 | 96° | 78km/h | 14745m | -10.6m/s | -54.3°C | 4.8% | 132.8hPa | 2.5V | 00:00:00 | 00:00:00 | 00:00:00 | |
| DB0ND-19 | 2026-09-01 00:47:30 | 48.81707 | 10.44741 | 94° | 84km/h | 14766m | -10.5m/s | -54.5°C | 1.7% | 132.4hPa | 2.5V | 00:00:00 | 00:00:00 | 00:00:00 | |
| DM0DOS-11 | 2026-09-01 00:47:29 | 48.81711 | 10.44614 | 92° | 80km/h | 14808m | -10.4m/s | -54.3°C | 4.8% | 131.5hPa | 2.5V | 08:13:57 | 02:18:05 | 00:00:00 | |
| DJ8HS-15 | 2026-09-01 00:47:28 | 48.81710 | 10.44677 | 93° | 75km/h | 14787m | -10.7m/s | -54.4°C | 4.8% | 131.9hPa | 2.5V | 00:00:00 | 02:18:07 | 00:00:00 | |
| DO3MHA-11 | 2026-09-01 00:47:27 | 48.81710 | 10.44645 | 92° | 78km/h | 14798m | -10.9m/s | -54.3°C | 4.8% | 131.7hPa | 2.5V | 00:00:00 | 02:18:06 | 00:00:00 | |
| DO3MHA-12 | 2026-09-01 00:47:25 | 48.81712 | 10.44584 | 93° | 77km/h | 14819m | -10.8m/s | -54.3°C | 4.7% | 131.2hPa | 2.5V | 00:00:00 | 02:18:04 | 00:00:00 | |
| DK5PH-5 | 2026-09-01 00:47:24 | 48.81713 | 10.44553 | 93° | 73km/h | 14830m | -10.7m/s | -54.3°C | 4.7% | 131.0hPa | 2.5V | 00:00:00 | 02:18:03 | 00:00:00 | |
| DJTTGO | 2026-09-01 00:47:22 | 48.81713 | 10.44523 | 93° | 78km/h | 14841m | -10.9m/s | -54.4°C | 1.6% | 130.9hPa | 2.5V | 00:00:00 | 00:00:00 | 00:00:00 | |
| AZAK | 2026-09-01 00:47:21 | 48.81716 | 10.44435 | 94° | 77km/h | 14873m | -10.7m/s | -54.4°C | 1.6% | 130.2hPa | 2.5V | 08:14:00 | 00:00:00 | 00:00:00 | |
| AM1SDL-15 | 2026-09-01 00:47:20 | 48.81716 | 10.44435 | 93° | 73km/h | 14873m | -10.7m/s | -54.3°C | 4.7% | 130.1hPa | 2.5V | 00:00:00 | 02:17:59 | 00:00:00 | |
| DM0DOS-11 | 2026-09-01 00:47:18 | 48.81720 | 10.44318 | 93° | 75km/h | 14916m | -10.7m/s | -54.2°C | 4.6% | 129.3hPa | 2.5V | 08:14:07 | 02:17:55 | 00:00:00 | |
| DO3MHA-11 | 2026-09-01 00:47:17 | 48.81719 | 10.44347 | 93° | 71km/h | 14905m | -10.8m/s | -54.1°C | 4.7% | 129.5hPa | 2.5V | 00:00:00 | 02:17:56 | 00:00:00 | |
| DB0NH | 2026-09-01 00:47:16 | 48.81720 | 10.44318 | 94° | 73km/h | 14916m | -10.6m/s | -54.2°C | 4.6% | 129.3hPa | 2.5V | 00:00:00 | 02:17:55 | 00:00:00 | |
| DO3MHA-12 | 2026-09-01 00:47:15 | 48.81721 | 10.44290 | 94° | 71km/h | 14927m | -10.4m/s | -54.2°C | 4.6% | 129.1hPa | 2.5V | 00:00:00 | 02:17:54 | 00:00:00 | |
| DH7VM-15 | 2026-09-01 00:47:14 | 48.81721 | 10.44290 | 95° | 75km/h | 14927m | -10.4m/s | -54.2°C | 1.6% | 129.1hPa | 2.5V | 00:00:00 | 00:00:00 | 00:00:00 | |
| OE5DRO-10 | 2026-09-01 00:47:13 | 48.81723 | 10.44234 | 94° | 71km/h | 14948m | -10.5m/s | -54.3°C | 4.7% | 128.6hPa | 2.5V | 00:00:00 | 00:00:00 | 00:00:00 | |
| SONCRA | 2026-09-01 00:47:12 | 48.81727 | 10.44155 | 93° | 68km/h | 14980m | -10.9m/s | -54.5°C | 1.6% | 128.0hPa | 2.6V | 00:00:00 | 00:00:00 | 00:00:00 | |
| DM0DOS-11 | 2026-09-01 00:47:11 | 48.81730 | 10.44044 | 91° | 75km/h | 15023m | -11m/s | -54.6°C | 4.8% | 127.2hPa | 2.6V | 08:14:17 | 02:17:45 | 00:00:00 | |
| BIOWL1-15 | 2026-09-01 00:47:07 | 48.81730 | 10.43986 | 89° | 75km/h | 15045m | -10.8m/s | -54.6°C | 1.1% | 126.8hPa | 2.5V | 08:15:11 | 02:17:43 | 00:00:00 | |
| DO3MHA-12 | 2026-09-01 00:47:05 | 48.81730 | 10.44015 | 91° | 71km/h | 15034m | -10.7m/s | -54.6°C | 4.8% | 126.9hPa | 2.5V | 00:00:00 | 02:17:44 | 00:00:00 | |
| SO1NDE-10 | 2026-09-01 00:47:04 | 48.81730 | 10.43986 | 90° | 29km/h | 15045m | -10.7m/s | -54.5°C | 4.8% | 126.7hPa | 2.5V | 08:14:00 | 02:17:43 | 00:00:00 | |
| DL1NUX | 2026-09-01 00:47:02 | 48.81730 | 10.43903 | 89° | 69km/h | 15077m | -10.7m/s | -54.5°C | 4.8% | 126.1hPa | 2.6V | 08:14:22 | 02:17:40 | 00:00:00 | |
| DO9HM | 2026-09-01 00:47:01 | 48.81730 | 10.43903 | 90° | 69km/h | 15077m | -10.7m/s | -54.5°C | 1.6% | 126.1hPa | 2.5V | 08:15:00 | 00:00:00 | 00:00:00 | |
| AZAK | 2026-09-01 00:47:00 | 48.81730 | 10.43851 | 92° | 68km/h | 15099m | -10.9m/s | -54.5°C | 1.6% | 125.7hPa | 2.5V | 08:15:00 | 00:00:00 | 00:00:00 | |
| DM0DOS-11 | 2026-09-01 00:46:59 | 48.81732 | 10.43771 | 94° | 75km/h | 15131m | -10.4m/s | -54.4°C | 4.7% | 125hPa | 2.5V | 08:14:27 | 02:17:35 | 00:00:00 | |
| BIOWL1-15 | 2026-09-01 00:46:53 | 48.81735 | 10.43683 | 93° | 78km/h | 15163m | -10.6m/s | -54.6°C | 1.1% | 124.4hPa | 2.5V | 08:15:11 | 02:17:32 | 00:00:00 | |
| DM0DOS-11 | 2026-09-01 00:46:48 | 48.81741 | 10.43484 | 92° | 71km/h | 15238m | -10.9m/s | -54.3°C | 4.6% | 123hPa | 2.5V | 08:14:37 | 02:17:25 | 00:00:00 | |
| DF3TZ-5 | 2026-09-01 00:46:46 | 48.81741 | 10.43484 | 92° | 71km/h | 15239m | -10.9m/s | -54.3°C | 1.5% | 123.0hPa | 2.5V | 00:00:00 | 00:00:00 | 00:00:00 | |
| BIOWL1-15 | 2026-09-01 00:46:39 | 48.81746 | 10.43296 | 93° | 68km/h | 15315m | -11.1m/s | -54.3°C | 1% | 121.5hPa | 2.5V | 08:15:11 | 02:17:18 | 00:00:00 | |
| OE5DXL-15 | 2026-09-01 00:46:39 | 48.81746 | 10.43296 | 93° | 62km/h | 15315m | -11.1m/s | -54.2°C | 4.6% | 121.5hPa | 2.5V | 00:00:00 | 00:00:00 | 00:00:00 | |
| DM0DOS-11 | 2026-09-01 00:46:37 | 48.81748 | 10.43222 | 92° | 62km/h | 15347m | -11.1m/s | -54.3°C | 4.6% | 121hPa | 2.5V | 08:14:47 | 02:17:15 | 00:00:00 | |
| NBG1-10 | 2026-09-01 00:46:37 | 48.81747 | 10.43246 | 92° | 64km/h | 15337m | -11.0m/s | -54.2°C | 4.6% | 121.1hPa | 2.6V | 00:00:00 | 02:17:16 | 00:00:00 | |
| DO3MHA-12 | 2026-09-01 00:46:35 | 48.81748 | 10.43199 | 93° | 64km/h | 15359m | -10.8m/s | -54.2°C | 4.6% | 120.7hPa | 2.6V | 00:00:00 | 02:17:14 | 00:00:00 | |
| DM7RM-13 | 2026-09-01 00:46:34 | 48.81748 | 10.43199 | 93° | 62km/h | 15359m | -10.9m/s | -54.3°C | 1.6% | 120.7hPa | 2.6V | 08:15:00 | 00:00:00 | 00:00:00 | |
| DM0DOS-11 | 2026-09-01 00:46:32 | 48.81747 | 10.42981 | 88° | 64km/h | 15458m | -11.5m/s | -54.5°C | 4.6% | 118.9hPa | 2.6V | 08:14:57 | 02:17:05 | 00:00:00 | |
| BIOWL1-15 | 2026-09-01 00:46:25 | 48.81747 | 10.42863 | 93° | 62km/h | 15512m | -11.3m/s | -54.6°C | 1% | 117.8hPa | 2.6V | 08:15:11 | 02:17:00 | 00:00:00 | |
| DO3MHA-12 | 2026-09-01 00:46:25 | 48.81746 | 10.42957 | 90° | 62km/h | 15469m | -10.9m/s | -54.5°C | 4.6% | 118.6hPa | 2.5V | 00:00:00 | 02:17:04 | 00:00:00 | |
| DK5PH-5 | 2026-09-01 00:46:24 | 48.81746 | 10.42933 | 91° | 66km/h | 15480m | -10.5m/s | -54.5°C | 4.6% | 118.4hPa | 2.5V | 00:00:00 | 02:17:03 | 00:00:00 | |
| AZAK | 2026-09-01 00:46:19 | 48.81749 | 10.42792 | 92° | 62km/h | 15546m | -11.2m/s | -54.5°C | 1.5% | 117.2hPa | 2.5V | 08:15:00 | 00:00:00 | 00:00:00 | |
| DM0DOS-11 | 2026-09-01 00:46:17 | 48.81749 | 10.42744 | 88° | 64km/h | 15568m | -11.1m/s | -54.5°C | 4.6% | 116.8hPa | 2.5V | 08:15:07 | 02:16:55 | 00:00:00 | |
| BIOWL1-15 | 2026-09-01 00:46:13 | 48.81744 | 10.42549 | 87° | 68km/h | 15658m | -11.4m/s | -54.6°C | 0.9% | 115.2hPa | 2.6V | 08:16:53 | 02:16:47 | 00:00:00 | |
| DM0DOS-11 | 2026-09-01 00:46:11 | 48.81742 | 10.42496 | 85° | 71km/h | 15680m | -11.2m/s | -54.7°C | 4.6% | 114.8hPa | 2.5V | 08:15:17 | 02:16:45 | 00:00:00 | |
| DB0UT-7 | 2026-09-01 00:46:10 | 48.81745 | 10.42598 | 89° | 69km/h | 15635m | -11.0m/s | -54.4°C | 4.6% | 115.6hPa | 2.5V | 00:00:00 | 00:00:00 | 00:00:00 | |
| OE5DXL-15 | 2026-09-01 00:46:09 | 48.81745 | 10.42574 | 88° | 69km/h | 15646m | -11.8m/s | -54.4°C | 4.5% | 115.4hPa | 2.6V | 00:00:00 | 00:00:00 | 00:00:00 | |
| DJ8HS-15 | 2026-09-01 00:46:08 | 48.81744 | 10.42549 | 88° | 71km/h | 15658m | -11.3m/s | -54.5°C | 4.6% | 115.2hPa | 2.6V | 00:00:00 | 02:16:47 | 00:00:00 | |
| DO3MHA-11 | 2026-09-01 00:46:07 | 48.81743 | 10.42523 | 86° | 71km/h | 15669m | -11.3m/s | -54.6°C | 4.6% | 115.0hPa | 2.6V | 00:00:00 | 02:16:46 | 00:00:00 | |
| DF7PN | 2026-09-01 00:46:06 | 48.81742 | 10.42496 | 85° | 69km/h | 15680m | -11.2m/s | -54.7°C | 1.5% | 114.8hPa | 2.6V | 00:00:00 | 00:00:00 | 00:00:00 | |
| DO3MHA-12 | 2026-09-01 00:46:05 | 48.81740 | 10.42469 | 84° | 71km/h | 15692m | -11.4m/s | -54.8°C | 4.6% | 114.5hPa | 2.6V | 00:00:00 | 02:16:44 | 00:00:00 | |
| NBG1-10 | 2026-09-01 00:46:04 | 48.81737 | 10.42441 | 82° | 68km/h | 15703m | -10.8m/s | -54.9°C | 4.7% | 114.3hPa | 2.6V | 08:15:00 | 02:16:43 | 00:00:00 | |
| DM0DOS-11 | 2026-09-01 00:46:01 | 48.81712 | 10.42228 | 86° | 68km/h | 15798m | -11.4m/s | -55.1°C | 5% | 112.7hPa | 2.5V | 08:15:27 | 02:16:35 | 00:00:00 | |
| BIOWL1-15 | 2026-09-01 00:46:00 | 48.81719 | 10.42306 | 79° | 69km/h | 15762m | -12.4m/s | -55.1°C | 1.1% | 113.3hPa | 2.5V | 08:16:53 | 02:16:38 | 00:00:00 | |
| DL6DJ-15 | 2026-09-01 00:46:00 | 48.81723 | 10.42332 | 77° | 69km/h | 15750m | -12.1m/s | -55.2°C | 1.6% | 113.5hPa | 2.6V | 00:00:00 | 00:00:00 | 00:00:00 | |
| DO9HM | 2026-09-01 00:45:58 | 48.81719 | 10.42306 | 80° | 69km/h | 15762m | -12.4m/s | -55.1°C | 1.6% | 113.3hPa | 2.6V | 08:16:00 | 00:00:00 | 00:00:00 | |
| DO3MHA-11 | 2026-09-01 00:45:57 | 48.81714 | 10.42254 | 85° | 71km/h | 15787m | -12.1m/s | -55.0°C | 4.9% | 112.9hPa | 2.6V | 00:00:00 | 02:16:36 | 00:00:00 | |
| DO3MHA-12 | 2026-09-01 00:45:55 | 48.81711 | 10.42202 | 88° | 71km/h | 15810m | -12.1m/s | -55.2°C | 5.0% | 112.4hPa | 2.6V | 00:00:00 | 02:16:34 | 00:00:00 | |
| DK5PH-5 | 2026-09-01 00:45:54 | 48.81711 | 10.42175 | 89° | 64km/h | 15823m | -13.6m/s | -55.2°C | 5.0% | 112.3hPa | 2.6V | 00:00:00 | 02:16:33 | 00:00:00 | |
| DM7RM-13 | 2026-09-01 00:45:52 | 48.81710 | 10.42147 | 91° | 73km/h | 15835m | -11.3m/s | -55.2°C | 1.6% | 112.1hPa | 2.6V | 08:16:00 | 00:00:00 | 00:00:00 | |
| DM0DOS-11 | 2026-09-01 00:45:51 | 48.81712 | 10.41957 | 92° | 68km/h | 15942m | -15.1m/s | -54.9°C | 4.7% | 110.3hPa | 2.6V | 08:15:37 | 02:16:25 | 00:00:00 | |
| BIOWL1-15 | 2026-09-01 00:45:45 | 48.81717 | 10.41880 | 97° | 69km/h | 15988m | -15.1m/s | -54.7°C | 0.9% | 109.5hPa | 2.5V | 08:16:53 | 02:16:22 | 00:00:00 | |
| DF3TZ-5 | 2026-09-01 00:45:44 | 48.81715 | 10.41906 | 95° | 68km/h | 15973m | -16.0m/s | -54.7°C | 1.4% | 109.8hPa | 2.5V | 00:00:00 | 00:00:00 | 00:00:00 | |
| DM0DOS-11 | 2026-09-01 00:45:41 | 48.81734 | 10.41700 | 98° | 62km/h | 16077m | -11.8m/s | -54.3°C | 4.6% | 107.9hPa | 2.5V | 08:15:47 | 02:16:15 | 00:00:00 | |
| BIOWL1-15 | 2026-09-01 00:45:32 | 48.81744 | 10.41611 | 103° | 57km/h | 16124m | -11.8m/s | -54.5°C | 0.9% | 107.1hPa | 2.5V | 08:16:53 | 02:16:11 | 00:00:00 | |
| DM7RM-13 | 2026-09-01 00:45:32 | 48.81744 | 10.41611 | 104° | 57km/h | 16124m | -11.8m/s | -54.5°C | 1.4% | 107.1hPa | 2.5V | 08:16:00 | 00:00:00 | 00:00:00 | |
| NBG1-10 | 2026-09-01 00:45:31 | 48.81747 | 10.41590 | 103° | 57km/h | 16136m | -11.5m/s | -54.4°C | 4.7% | 106.9hPa | 2.5V | 00:00:00 | 02:16:10 | 00:00:00 | |
| DM0DOS-11 | 2026-09-01 00:45:30 | 48.81762 | 10.41488 | 98° | 53km/h | 16194m | -11.5m/s | -54°C | 4.6% | 106hPa | 2.5V | 08:15:57 | 02:16:05 | 00:00:00 | |
| DL6DJ-15 | 2026-09-01 00:45:29 | 48.81754 | 10.41548 | 103° | 55km/h | 16159m | -11.5m/s | -54.4°C | 1.4% | 106.6hPa | 2.5V | 00:00:00 | 00:00:00 | 00:00:00 | |
| DJ8HS-15 | 2026-09-01 00:45:28 | 48.81757 | 10.41528 | 103° | 62km/h | 16171m | -12.2m/s | -54.3°C | 4.7% | 106.3hPa | 2.5V | 00:00:00 | 02:16:07 | 00:00:00 | |
| DO3MHA-11 | 2026-09-01 00:45:27 | 48.81759 | 10.41508 | 101° | 64km/h | 16183m | -11.6m/s | -54.1°C | 4.6% | 106.1hPa | 2.5V | 00:00:00 | 02:16:06 | 00:00:00 | |
| DF1GD-15 | 2026-09-01 00:45:25 | 48.81762 | 10.41488 | 100° | 53km/h | 16194m | -11.5m/s | -54.0°C | 1.4% | 106.0hPa | 2.5V | 08:16:00 | 00:00:00 | 00:00:00 | |
| BIOWL1-15 | 2026-09-01 00:45:19 | 48.81785 | 10.41048 | 94° | 55km/h | 16422m | -12.1m/s | -53°C | 0.7% | 102.4hPa | 2.5V | 08:16:53 | 02:15:47 | 00:00:00 | |
| DM0DOS-11 | 2026-09-01 00:45:19 | 48.81775 | 10.41235 | 96° | 66km/h | 16321m | -12.8m/s | -54.1°C | 4.7% | 103.9hPa | 2.5V | 08:16:07 | 02:15:55 | 00:00:00 | |
| DO9HM | 2026-09-01 00:45:18 | 48.81773 | 10.41261 | 96° | 69km/h | 16308m | -13.2m/s | -54.2°C | 1.4% | 104.2hPa | 2.5V | 08:16:00 | 00:00:00 | 00:00:00 | |
| DB0NH | 2026-09-01 00:45:16 | 48.81774 | 10.41235 | 97° | 46km/h | 16321m | -12.7m/s | -54.1°C | 4.7% | 103.9hPa | 2.5V | 00:00:00 | 02:15:55 | 00:00:00 | |
| DO3MHA-12 | 2026-09-01 00:45:15 | 48.81776 | 10.41210 | 97° | 58km/h | 16334m | -12.8m/s | -54.1°C | 4.7% | 103.7hPa | 2.5V | 00:00:00 | 02:15:54 | 00:00:00 | |
| DF3TZ-5 | 2026-09-01 00:45:13 | 48.81779 | 10.41162 | 95° | 62km/h | 16359m | -12.8m/s | -54.1°C | 1.4% | 103.3hPa | 2.6V | 00:00:00 | 00:00:00 | 00:00:00 | |
| DM0DOS-11 | 2026-09-01 00:45:11 | 48.81787 | 10.41008 | 96° | 49km/h | 16445m | -11.7m/s | -53°C | 4.4% | 101.9hPa | 2.6V | 08:16:17 | 02:15:45 | 00:00:00 | |
| BIOWL1-15 | 2026-09-01 00:45:10 | 48.81790 | 10.40974 | 98° | 42km/h | 16470m | -12m/s | -53.2°C | 0.7% | 101.6hPa | 2.5V | 08:16:53 | 02:15:43 | 00:00:00 | |
| DB0UT-7 | 2026-09-01 00:45:10 | 48.81783 | 10.41092 | 94° | 40km/h | 16398m | -12.3m/s | -53.2°C | 4.5% | 102.7hPa | 2.6V | 00:00:00 | 00:00:00 | 00:00:00 | |
| OE5DXL-15 | 2026-09-01 00:45:09 | 48.81784 | 10.41070 | 95° | 40km/h | 16410m | -11.9m/s | -53.1°C | 4.5% | 102.5hPa | 2.6V | 00:00:00 | 00:00:00 | 00:00:00 | |
| DJ8HS-15 | 2026-09-01 00:45:08 | 48.81785 | 10.41048 | 95° | 38km/h | 16422m | -12.0m/s | -53.0°C | 4.4% | 102.3hPa | 2.6V | 00:00:00 | 02:15:47 | 00:00:00 | |
| DL1ZP-14 | 2026-09-01 00:45:07 | 48.81787 | 10.41008 | 96° | 47km/h | 16445m | -11.7m/s | -53.0°C | 1.3% | 102.0hPa | 2.6V | 00:00:00 | 00:00:00 | 00:00:00 | |
| DO3MHA-12 | 2026-09-01 00:45:06 | 48.81789 | 10.40990 | 98° | 37km/h | 16458m | -12.1m/s | -53.0°C | 4.5% | 101.7hPa | 2.6V | 00:00:00 | 02:15:44 | 00:00:00 | |
| DF1GD-15 | 2026-09-01 00:45:05 | 48.81788 | 10.40990 | 99° | 46km/h | 16458m | -12.2m/s | -53.1°C | 1.4% | 101.8hPa | 2.6V | 08:16:00 | 00:00:00 | 00:00:00 | |
| DF7PN | 2026-09-01 00:45:04 | 48.81790 | 10.40974 | 98° | 40km/h | 16470m | -12.0m/s | -53.2°C | 1.3% | 101.6hPa | 2.6V | 00:00:00 | 00:00:00 | 00:00:00 | |
| DL6DJ-15 | 2026-09-01 00:44:58 | 48.81791 | 10.40896 | 80° | 31km/h | 16544m | -12.5m/s | -51.6°C | 1.1% | 100.4hPa | 2.6V | 00:00:00 | 00:00:00 | 00:00:00 | |
| BIOWL1-15 | 2026-09-01 00:44:55 | 48.81732 | 10.40698 | 63° | 40km/h | 16735m | -12.7m/s | -51.4°C | 0.3% | 97.5hPa | 2.6V | 08:16:53 | 02:15:22 | 00:00:00 | |
| DO3MHA-12 | 2026-09-01 00:44:55 | 48.81785 | 10.40858 | 73° | 38km/h | 16583m | -12.6m/s | -51.5°C | 3.8% | 99.8hPa | 2.5V | 00:00:00 | 02:15:34 | 00:00:00 | |
| DK5PH-5 | 2026-09-01 00:44:54 | 48.81782 | 10.40844 | 71° | 38km/h | 16595m | -12.4m/s | -51.5°C | 3.8% | 99.6hPa | 2.5V | 00:00:00 | 02:15:33 | 00:00:00 | |
| DM0DOS-11 | 2026-09-01 00:44:51 | 48.81746 | 10.40739 | 60° | 40km/h | 16697m | -12.9m/s | -51.2°C | 3.6% | 98.1hPa | 2.5V | 08:16:37 | 02:15:25 | 00:00:00 | |
| BIOWL1-15 | 2026-09-01 00:44:42 | 48.81717 | 10.40658 | 61° | 38km/h | 16774m | -12.2m/s | -51.8°C | 0.4% | 96.9hPa | 2.5V | 08:16:53 | 02:15:19 | 00:00:00 | |
| DF3TZ-5 | 2026-09-01 00:44:42 | 48.81727 | 10.40684 | 61° | 40km/h | 16748m | -12.9m/s | -51.6°C | 1.1% | 97.3hPa | 2.5V | 00:00:00 | 00:00:00 | 00:00:00 | |
| DM0DOS-11 | 2026-09-01 00:44:41 | 48.81697 | 10.40608 | 58° | 38km/h | 16825m | -12.9m/s | -52.3°C | 3.8% | 96.2hPa | 2.5V | 08:16:47 | 02:15:15 | 00:00:00 | |
| OE5DRO-10 | 2026-09-01 00:44:41 | 48.81722 | 10.40671 | 61° | 38km/h | 16761m | -13.7m/s | -51.6°C | 3.7% | 97.1hPa | 2.5V | 00:00:00 | 00:00:00 | 00:00:00 | |
| DB0UT-7 | 2026-09-01 00:44:40 | 48.81717 | 10.40658 | 61° | 42km/h | 16774m | -12.1m/s | -51.8°C | 3.8% | 96.9hPa | 2.5V | 08:16:00 | 02:15:19 | 00:00:00 | |
| OE5DXL-15 | 2026-09-01 00:44:39 | 48.81712 | 10.40645 | 60° | 44km/h | 16787m | -12.3m/s | -51.9°C | 3.8% | 96.7hPa | 2.6V | 08:16:00 | 00:00:00 | 00:00:00 | |
| OE9MKV-15 | 2026-09-01 00:44:38 | 48.81707 | 10.40633 | 60° | 44km/h | 16799m | -12.7m/s | -52.0°C | 3.8% | 96.5hPa | 2.6V | 08:16:00 | 02:15:17 | 00:00:00 | |
| DO3MHA-11 | 2026-09-01 00:44:37 | 48.81703 | 10.40621 | 58° | 40km/h | 16812m | -12.9m/s | -52.1°C | 3.8% | 96.3hPa | 2.6V | 00:00:00 | 02:15:16 | 00:00:00 | |
| AZAK | 2026-09-01 00:44:36 | 48.81697 | 10.40608 | 59° | 38km/h | 16825m | -12.9m/s | -52.3°C | 1.1% | 96.2hPa | 2.6V | 08:16:00 | 00:00:00 | 00:00:00 | |
| DO3MHA-12 | 2026-09-01 00:44:35 | 48.81692 | 10.40596 | 61° | 38km/h | 16838m | -12.7m/s | -52.4°C | 3.9% | 95.9hPa | 2.6V | 00:00:00 | 02:15:14 | 00:00:00 | |
| DO9HM | 2026-09-01 00:44:34 | 48.81692 | 10.40596 | 61° | 38km/h | 16838m | -12.8m/s | -52.4°C | 1.2% | 96.0hPa | 2.6V | 08:16:00 | 00:00:00 | 00:00:00 | |
| DF7PN | 2026-09-01 00:44:33 | 48.81683 | 10.40570 | 61° | 40km/h | 16864m | -12.8m/s | -52.6°C | 1.2% | 95.6hPa | 2.6V | 00:00:00 | 00:00:00 | 00:00:00 | |
| DM0DOS-11 | 2026-09-01 00:44:31 | 48.81649 | 10.40478 | 58° | 38km/h | 16955m | -13m/s | -53.4°C | 4.2% | 94.3hPa | 2.6V | 08:16:57 | 02:15:05 | 00:00:00 | |
| DK7TD | 2026-09-01 00:44:26 | 48.81649 | 10.40478 | 59° | 38km/h | 16955m | -13m/s | -53.4°C | 0.6% | 94.3hPa | 2.6V | 08:17:44 | 02:15:05 | 00:00:00 | |
| NBG1-10 | 2026-09-01 00:44:25 | 48.81644 | 10.40465 | 59° | 46km/h | 16968m | -14.0m/s | -53.5°C | 4.2% | 94.0hPa | 2.5V | 00:00:00 | 02:15:04 | 00:00:00 | |
| DK5PH-5 | 2026-09-01 00:44:24 | 48.81639 | 10.40453 | 60° | 46km/h | 16982m | -13.9m/s | -53.6°C | 4.3% | 93.8hPa | 2.6V | 00:00:00 | 02:15:03 | 00:00:00 | |
| DF1GD-15 | 2026-09-01 00:44:23 | 48.81639 | 10.40452 | 60° | 38km/h | 16982m | -13.9m/s | -53.7°C | 1.3% | 93.9hPa | 2.6V | 08:17:00 | 00:00:00 | 00:00:00 | |
| PG1ADW-2 | 2026-09-01 00:44:22 | 48.81629 | 10.40425 | 62° | 47km/h | 17009m | -13.3m/s | -53.9°C | 4.4% | 93.4hPa | 2.6V | 00:00:00 | 02:15:01 | 00:00:00 | |
| DM0DOS-11 | 2026-09-01 00:44:21 | 48.81599 | 10.40327 | 66° | 51km/h | 17087m | -13.1m/s | -53.9°C | 4.4% | 92.4hPa | 2.6V | 08:17:07 | 02:14:55 | 00:00:00 | |
| DK7TD | 2026-09-01 00:44:16 | 48.81599 | 10.40327 | 66° | 51km/h | 17087m | -13.1m/s | -53.9°C | 0.7% | 92.4hPa | 2.6V | 08:17:44 | 02:14:55 | 00:00:00 | |
| BIOWL1-15 | 2026-09-01 00:44:16 | 48.81562 | 10.40185 | 74° | 46km/h | 17194m | -13.5m/s | -53.9°C | 0.7% | 90.8hPa | 2.5V | 08:17:44 | 02:14:47 | 00:00:00 | |
| DO3MHA-12 | 2026-09-01 00:44:15 | 48.81593 | 10.40308 | 67° | 49km/h | 17100m | -13.4m/s | -53.9°C | 4.5% | 92.1hPa | 2.6V | 00:00:00 | 02:14:54 | 00:00:00 | |
| DO9HM | 2026-09-01 00:44:13 | 48.81588 | 10.40290 | 67° | 51km/h | 17114m | -13.1m/s | -53.9°C | 1.3% | 92.0hPa | 2.5V | 08:17:00 | 00:00:00 | 00:00:00 | |
| DM0DOS-11 | 2026-09-01 00:44:11 | 48.81557 | 10.40151 | 77° | 46km/h | 17221m | -12.7m/s | -54°C | 4.6% | 90.5hPa | 2.5V | 08:17:17 | 02:14:45 | 00:00:00 | |
| DK7TD | 2026-09-01 00:44:06 | 48.81557 | 10.40151 | 77° | 46km/h | 17221m | -12.7m/s | -54°C | 0.8% | 90.5hPa | 2.5V | 08:17:44 | 02:14:45 | 00:00:00 | |
| SONCRA | 2026-09-01 00:44:06 | 48.81557 | 10.40151 | 77° | 46km/h | 17221m | -12.7m/s | -54.0°C | 1.3% | 90.5hPa | 2.6V | 00:00:00 | 00:00:00 | 00:00:00 | |
| DO3MHA-12 | 2026-09-01 00:44:05 | 48.81554 | 10.40133 | 78° | 46km/h | 17233m | -12.7m/s | -53.9°C | 4.6% | 90.2hPa | 2.6V | 00:00:00 | 02:14:44 | 00:00:00 | |
| DL1ZP-14 | 2026-09-01 00:44:04 | 48.81552 | 10.40116 | 77° | 46km/h | 17246m | -13.5m/s | -53.8°C | 1.3% | 90.1hPa | 2.6V | 00:00:00 | 00:00:00 | 00:00:00 | |
| OE5DRO-10 | 2026-09-01 00:44:03 | 48.81549 | 10.40099 | 78° | 46km/h | 17260m | -13.1m/s | -53.7°C | 4.5% | 89.8hPa | 2.5V | 00:00:00 | 00:00:00 | 00:00:00 | |
| DF7PN | 2026-09-01 00:44:02 | 48.81547 | 10.40083 | 76° | 44km/h | 17273m | -13.6m/s | -53.8°C | 1.3% | 89.7hPa | 2.5V | 00:00:00 | 00:00:00 | 00:00:00 | |
| DM0DOS-11 | 2026-09-01 00:44:01 | 48.81535 | 10.39982 | 85° | 47km/h | 17353m | -13.7m/s | -53.7°C | 4.7% | 88.6hPa | 2.5V | 08:17:27 | 02:14:35 | 00:00:00 | |
| BIOWL1-15 | 2026-09-01 00:44:00 | 48.81540 | 10.40034 | 80° | 44km/h | 17314m | -13.7m/s | -53.8°C | 0.8% | 89.2hPa | 2.6V | 08:17:44 | 02:14:38 | 00:00:00 | |
| DK7TD | 2026-09-01 00:43:55 | 48.81535 | 10.39964 | 88° | 49km/h | 17367m | -13.4m/s | -53.8°C | 0.9% | 88.4hPa | 2.5V | 08:17:44 | 02:14:34 | 00:00:00 | |
| DB0ND-19 | 2026-09-01 00:43:53 | 48.81535 | 10.39908 | 91° | 47km/h | 17408m | -14.0m/s | -53.4°C | 1.3% | 87.9hPa | 2.5V | 00:00:00 | 00:00:00 | 00:00:00 | |
| NBG1-10 | 2026-09-01 00:43:52 | 48.81535 | 10.39908 | 92° | 22km/h | 17408m | -14.0m/s | -53.4°C | 4.7% | 87.8hPa | 2.5V | 00:00:00 | 02:14:31 | 00:00:00 | |
| DM0DOS-11 | 2026-09-01 00:43:51 | 48.81539 | 10.39807 | 97° | 40km/h | 17490m | -13.6m/s | -52.5°C | 4.4% | 86.8hPa | 2.5V | 08:17:37 | 02:14:25 | 00:00:00 | |
| BIOWL1-15 | 2026-09-01 00:43:49 | 48.81538 | 10.39822 | 96° | 42km/h | 17476m | -13.9m/s | -52.7°C | 0.7% | 86.9hPa | 2.6V | 08:17:44 | 02:14:26 | 00:00:00 | |
| DK7TD | 2026-09-01 00:43:44 | 48.81542 | 10.39778 | 102° | 35km/h | 17516m | -13.2m/s | -52.4°C | 0.6% | 86.4hPa | 2.5V | 08:17:44 | 02:14:23 | 00:00:00 | |
| BIOWL1-15 | 2026-09-01 00:43:37 | 48.81571 | 10.39696 | 133° | 13km/h | 17668m | -14m/s | -50°C | 0.2% | 84.4hPa | 2.5V | 08:21:08 | 02:14:12 | 00:00:00 | |
| DK7TD | 2026-09-01 00:43:34 | 48.81568 | 10.39700 | 135° | 15km/h | 17654m | -14.1m/s | -49.9°C | 0.1% | 84.6hPa | 2.5V | 08:18:35 | 02:14:13 | 00:00:00 | |
| DO9HM | 2026-09-01 00:43:34 | 48.81568 | 10.39700 | 136° | 15km/h | 17654m | -14.1m/s | -49.9°C | 1.0% | 84.6hPa | 2.5V | 08:18:00 | 00:00:00 | 00:00:00 | |
| DL1ZP-14 | 2026-09-01 00:43:33 | 48.81571 | 10.39696 | 133° | 11km/h | 17668m | -14.0m/s | -50.0°C | 1.0% | 84.4hPa | 2.5V | 00:00:00 | 00:00:00 | 00:00:00 | |
| DM0DOS-11 | 2026-09-01 00:43:31 | 48.81573 | 10.39681 | 62° | 5km/h | 17765m | -13.9m/s | -50.1°C | 3.5% | 83.2hPa | 2.5V | 08:17:57 | 02:14:05 | 00:00:00 | |
| DK7TD | 2026-09-01 00:43:23 | 48.81570 | 10.39674 | 46° | 9km/h | 17805m | -13.6m/s | -50.2°C | 0.2% | 82.6hPa | 2.5V | 08:18:35 | 02:14:02 | 00:00:00 | |
| DB0ND-19 | 2026-09-01 00:43:22 | 48.81565 | 10.39670 | 26° | 11km/h | 17832m | -13.5m/s | -50.1°C | 1.0% | 82.3hPa | 2.5V | 00:00:00 | 00:00:00 | 00:00:00 | |
| DM0DOS-11 | 2026-09-01 00:43:21 | 48.81548 | 10.39660 | 15° | 15km/h | 17902m | -14.7m/s | -50.7°C | 3.5% | 81.5hPa | 2.5V | 08:18:07 | 02:13:55 | 00:00:00 | |
| BIOWL1-15 | 2026-09-01 00:43:20 | 48.81562 | 10.39668 | 22° | 15km/h | 17846m | -13.5m/s | -50.2°C | 0.1% | 82.1hPa | 2.6V | 08:21:08 | 02:13:59 | 00:00:00 | |
| DK7TD | 2026-09-01 00:43:13 | 48.81536 | 10.39656 | 10° | 16km/h | 17942m | -14m/s | -51.1°C | 0.3% | 80.9hPa | 2.6V | 08:18:35 | 02:13:52 | 00:00:00 | |
| DM0DOS-11 | 2026-09-01 00:43:11 | 48.81496 | 10.39647 | 14° | 26km/h | 18038m | -14.1m/s | -51.7°C | 3.7% | 79.7hPa | 2.5V | 08:18:17 | 02:13:45 | 00:00:00 | |
| DK7TD | 2026-09-01 00:43:02 | 48.81474 | 10.39636 | 21° | 22km/h | 18094m | -14.2m/s | -52.1°C | 0.4% | 79.1hPa | 2.6V | 08:18:35 | 02:13:41 | 00:00:00 | |
| DL1ZP-14 | 2026-09-01 00:43:02 | 48.81474 | 10.39636 | 21° | 22km/h | 18094m | -14.2m/s | -52.1°C | 1.0% | 79.1hPa | 2.6V | 00:00:00 | 00:00:00 | 00:00:00 | |
| DM0DOS-11 | 2026-09-01 00:43:01 | 48.81439 | 10.39618 | 17° | 27km/h | 18176m | -13.9m/s | -52.8°C | 3.9% | 78.1hPa | 2.6V | 08:18:27 | 02:13:35 | 00:00:00 | |
| DF7PN | 2026-09-01 00:43:00 | 48.81463 | 10.39630 | 20° | 22km/h | 18122m | -13.6m/s | -52.3°C | 1.1% | 78.7hPa | 2.6V | 00:00:00 | 00:00:00 | 00:00:00 | |
| DF1GD-15 | 2026-09-01 00:42:59 | 48.81463 | 10.39630 | 22° | 22km/h | 18122m | -13.6m/s | -52.3°C | 1.1% | 78.7hPa | 2.6V | 08:18:00 | 00:00:00 | 00:00:00 | |
| DO3MHA-11 | 2026-09-01 00:42:57 | 48.81446 | 10.39621 | 17° | 31km/h | 18163m | -12.6m/s | -52.6°C | 3.9% | 78.2hPa | 2.6V | 00:00:00 | 02:13:36 | 00:00:00 | |
| BIOWL1-15 | 2026-09-01 00:42:55 | 48.81282 | 10.39502 | 32° | 29km/h | 18497m | -13.9m/s | -55.5°C | 0.9% | 74.3hPa | 2.5V | 08:21:08 | 02:13:12 | 00:00:00 | |
| DK7TD | 2026-09-01 00:42:51 | 48.81403 | 10.39600 | 20° | 33km/h | 18246m | -13.4m/s | -53.5°C | 0.5% | 77.2hPa | 2.6V | 08:18:35 | 02:13:30 | 00:00:00 | |
| DB0ND-19 | 2026-09-01 00:42:51 | 48.81395 | 10.39595 | 20° | 33km/h | 18260m | -14.4m/s | -53.6°C | 1.1% | 77.1hPa | 2.6V | 00:00:00 | 00:00:00 | 00:00:00 | |
| DK7TD | 2026-09-01 00:42:47 | 48.81333 | 10.39553 | 31° | 29km/h | 18385m | -13.1m/s | -54.5°C | 0.7% | 75.6hPa | 2.6V | 08:19:26 | 02:13:20 | 00:00:00 | |
| HSKMA3-T | 2026-09-01 00:42:46 | 48.81307 | 10.39528 | 34° | 31km/h | 18441m | -14.3m/s | -55°C | 0.8% | 74.9hPa | 2.5V | 08:19:26 | 02:13:16 | 00:00:00 | |
| BIOWL1-15 | 2026-09-01 00:42:34 | 48.81276 | 10.39497 | 31° | 27km/h | 18511m | -13.6m/s | -55.6°C | 0.9% | 74.1hPa | 2.5V | 08:21:08 | 02:13:11 | 00:00:00 | |
| DM0DOS-11 | 2026-09-01 00:42:33 | 48.81276 | 10.39497 | 31° | 27km/h | 18511m | -13.6m/s | -55.6°C | 4.7% | 74.1hPa | 2.5V | 08:18:51 | 02:13:11 | 00:00:00 | |
| DK7TD | 2026-09-01 00:42:30 | 48.81264 | 10.39485 | 34° | 27km/h | 18538m | -14.1m/s | -55.6°C | 0.9% | 73.8hPa | 2.6V | 08:19:26 | 02:13:09 | 00:00:00 | |
| HSKMA3-T | 2026-09-01 00:42:29 | 48.81252 | 10.39472 | 42° | 29km/h | 18567m | -13.9m/s | -55.8°C | 0.9% | 73.5hPa | 2.5V | 08:19:26 | 02:13:07 | 00:00:00 | |
| DJ8HS-15 | 2026-09-01 00:42:28 | 48.81252 | 10.39472 | 42° | 31km/h | 18567m | -13.9m/s | -55.7°C | 4.8% | 73.4hPa | 2.5V | 00:00:00 | 02:13:07 | 00:00:00 | |
| DM0DOS-11 | 2026-09-01 00:42:27 | 48.81221 | 10.39414 | 56° | 35km/h | 18649m | -13.3m/s | -56.1°C | 5.1% | 72.5hPa | 2.5V | 08:19:01 | 02:13:01 | 00:00:00 | |
| BIOWL1-15 | 2026-09-01 00:42:21 | 48.81216 | 10.39403 | 57° | 33km/h | 18663m | -13.1m/s | -56.1°C | 1.1% | 72.3hPa | 2.5V | 08:21:08 | 02:13:00 | 00:00:00 | |
| DK7TD | 2026-09-01 00:42:20 | 48.81212 | 10.39393 | 57° | 31km/h | 18676m | -13.9m/s | -56.2°C | 1.1% | 72.2hPa | 2.5V | 08:19:26 | 02:12:59 | 00:00:00 | |
| HSKMA3-T | 2026-09-01 00:42:18 | 48.81204 | 10.39375 | 56° | 27km/h | 18705m | -14m/s | -56.2°C | 1.1% | 71.9hPa | 2.6V | 08:19:26 | 02:12:57 | 00:00:00 | |
| DK7TD | 2026-09-01 00:42:09 | 48.81176 | 10.39279 | 76° | 35km/h | 18832m | -15m/s | -55.6°C | 1% | 70.5hPa | 2.5V | 08:19:26 | 02:12:48 | 00:00:00 | |
| BIOWL1-15 | 2026-09-01 00:42:07 | 48.81167 | 10.39212 | 81° | 35km/h | 18902m | -12.9m/s | -53.6°C | 0.6% | 69.8hPa | 2.5V | 08:21:08 | 02:12:43 | 00:00:00 | |
| HSKMA3-T | 2026-09-01 00:42:07 | 48.81172 | 10.39252 | 78° | 37km/h | 18861m | -13.9m/s | -55.1°C | 1% | 70.2hPa | 2.6V | 08:19:26 | 02:12:46 | 00:00:00 | |
| DK7TD | 2026-09-01 00:41:58 | 48.81166 | 10.39144 | 99° | 26km/h | 18986m | -14.9m/s | -54.1°C | 0.7% | 68.8hPa | 2.5V | 08:19:26 | 02:12:37 | 00:00:00 | |
| DF7PN | 2026-09-01 00:41:58 | 48.81167 | 10.39134 | 98° | 24km/h | 19001m | -14.0m/s | -54.1°C | 1.2% | 68.6hPa | 2.5V | 00:00:00 | 00:00:00 | 00:00:00 | |
| DM0DOS-11 | 2026-09-01 00:41:57 | 48.81166 | 10.39088 | 74° | 26km/h | 19070m | -14.4m/s | -54°C | 4.5% | 67.9hPa | 2.5V | 08:19:31 | 02:12:31 | 00:00:00 | |
| HSKMA3-T | 2026-09-01 00:41:56 | 48.81168 | 10.39125 | 94° | 24km/h | 19015m | -14.7m/s | -54.1°C | 0.7% | 68.5hPa | 2.6V | 08:23:41 | 02:12:35 | 00:00:00 | |
| BIOWL1-15 | 2026-09-01 00:41:49 | 48.81159 | 10.39059 | 69° | 27km/h | 19113m | -13.5m/s | -54°C | 0.8% | 67.4hPa | 2.5V | 08:21:08 | 02:12:28 | 00:00:00 | |
| DK7TD | 2026-09-01 00:41:48 | 48.81156 | 10.39049 | 69° | 27km/h | 19127m | -14.4m/s | -54°C | 0.8% | 67.3hPa | 2.5V | 08:20:17 | 02:12:27 | 00:00:00 | |
| DJ8HS-15 | 2026-09-01 00:41:48 | 48.81156 | 10.39049 | 69° | 31km/h | 19127m | -14.3m/s | -54.0°C | 4.5% | 67.3hPa | 2.5V | 00:00:00 | 02:12:27 | 00:00:00 | |
| DM0DOS-11 | 2026-09-01 00:41:47 | 48.81145 | 10.38982 | 77° | 35km/h | 19213m | -14.4m/s | -54.3°C | 4.7% | 66.4hPa | 2.5V | 08:19:41 | 02:12:21 | 00:00:00 | |
| HSKMA3-T | 2026-09-01 00:41:47 | 48.81152 | 10.39029 | 75° | 29km/h | 19155m | -14.7m/s | -54.1°C | 0.8% | 67hPa | 2.6V | 08:23:41 | 02:12:25 | 00:00:00 | |
| DK7TD | 2026-09-01 00:41:37 | 48.81136 | 10.38913 | 85° | 38km/h | 19285m | -14.7m/s | -54°C | 0.9% | 65.7hPa | 2.5V | 08:20:17 | 02:12:16 | 00:00:00 | |
| BIOWL1-15 | 2026-09-01 00:41:35 | 48.81133 | 10.38796 | 54° | 13km/h | 19474m | -15.3m/s | -52.5°C | 0.7% | 63.8hPa | 2.6V | 08:21:08 | 02:12:03 | 00:00:00 | |
| HSKMA3-T | 2026-09-01 00:41:35 | 48.81136 | 10.38885 | 94° | 35km/h | 19313m | -14.7m/s | -53.9°C | 0.9% | 65.4hPa | 2.6V | 08:23:41 | 02:12:14 | 00:00:00 | |
| DK7TD | 2026-09-01 00:41:27 | 48.81138 | 10.38809 | 65° | 15km/h | 19428m | -14.5m/s | -52.4°C | 0.6% | 64.2hPa | 2.5V | 08:20:17 | 02:12:06 | 00:00:00 | |
| BIOWL1-15 | 2026-09-01 00:41:26 | 48.81131 | 10.38792 | 59° | 13km/h | 19489m | -15.3m/s | -52.4°C | 0.6% | 63.6hPa | 2.6V | 08:21:08 | 02:12:02 | 00:00:00 | |
| HSKMA3-T | 2026-09-01 00:41:25 | 48.81134 | 10.38800 | 54° | 13km/h | 19458m | -15.3m/s | -52.4°C | 0.6% | 64hPa | 2.5V | 08:23:41 | 02:12:04 | 00:00:00 | |
| DF8AY | 2026-09-01 00:41:20 | 48.81127 | 10.38778 | 79° | 15km/h | 19533m | -15.4m/s | -51.9°C | 0.6% | 63.2hPa | 2.5V | 08:21:08 | 02:11:59 | 00:00:00 | |
| DM0DOS-11 | 2026-09-01 00:41:17 | 48.81127 | 10.38734 | 101° | 11km/h | 19658m | -16.3m/s | -51.3°C | 3.8% | 62hPa | 2.6V | 08:20:11 | 02:11:51 | 00:00:00 | |
| DK7TD | 2026-09-01 00:41:16 | 48.81126 | 10.38755 | 91° | 15km/h | 19597m | -15.6m/s | -51.6°C | 0.5% | 62.6hPa | 2.5V | 08:20:17 | 02:11:55 | 00:00:00 | |
| HSKMA3-T | 2026-09-01 00:41:14 | 48.81126 | 10.38744 | 91° | 13km/h | 19627m | -15.4m/s | -51.5°C | 0.4% | 62.3hPa | 2.5V | 08:23:41 | 02:11:53 | 00:00:00 | |
| BIOWL1-15 | 2026-09-01 00:41:10 | 48.81132 | 10.38728 | 222° | 2km/h | 19808m | -14.5m/s | -51.5°C | 0.4% | 60.6hPa | 2.6V | 08:21:08 | 02:11:41 | 00:00:00 | |
| DF8AY | 2026-09-01 00:41:09 | 48.81129 | 10.38726 | 124° | 4km/h | 19705m | -15.5m/s | -51.3°C | 0.4% | 61.5hPa | 2.5V | 08:21:08 | 02:11:48 | 00:00:00 | |
| DK7TD | 2026-09-01 00:41:05 | 48.81131 | 10.38726 | 237° | 4km/h | 19764m | -13.9m/s | -51.4°C | 0.4% | 61hPa | 2.5V | 08:21:08 | 02:11:44 | 00:00:00 | |
| BIOWL1-15 | 2026-09-01 00:40:55 | 48.81136 | 10.38715 | 100° | 9km/h | 19927m | -15.1m/s | -52.2°C | 0.4% | 59.5hPa | 2.5V | 08:21:08 | 02:11:33 | 00:00:00 | |
| DK7TD | 2026-09-01 00:40:55 | 48.81135 | 10.38718 | 99° | 7km/h | 19911m | -15.1m/s | -52.1°C | 0.5% | 59.6hPa | 2.6V | 08:21:08 | 02:11:34 | 00:00:00 | |
| HSKMA3-T | 2026-09-01 00:40:45 | 48.81133 | 10.38652 | 82° | 24km/h | 20063m | -15.9m/s | -52.7°C | 0.6% | 58.2hPa | 2.6V | 08:23:41 | 02:11:24 | 00:00:00 | |
| DK7TD | 2026-09-01 00:40:44 | 48.81133 | 10.38644 | 84° | 22km/h | 20078m | -15.2m/s | -52.9°C | 0.6% | 58.1hPa | 2.6V | 08:21:08 | 02:11:23 | 00:00:00 | |
| DF8AY | 2026-09-01 00:40:35 | 48.81137 | 10.38590 | 110° | 9km/h | 20233m | -15.9m/s | -53.2°C | 0.6% | 56.8hPa | 2.6V | 08:21:08 | 02:11:13 | 00:00:00 | |
| DK7TD | 2026-09-01 00:40:33 | 48.81138 | 10.38587 | 113° | 7km/h | 20249m | -16.4m/s | -53.3°C | 0.7% | 56.6hPa | 2.6V | 08:21:08 | 02:11:12 | 00:00:00 | |
| HSKMA3-T | 2026-09-01 00:40:31 | 48.81139 | 10.38583 | 118° | 4km/h | 20281m | -15.7m/s | -53.4°C | 0.8% | 56.3hPa | 2.5V | 08:23:41 | 02:11:10 | 00:00:00 | |
| BIOWL1-15 | 2026-09-01 00:40:29 | 48.81121 | 10.38551 | 101° | 16km/h | 20530m | -15.5m/s | -53.1°C | 0.7% | 54.2hPa | 2.5V | 08:21:08 | 02:10:54 | 00:00:00 | |
| DF8AY | 2026-09-01 00:40:24 | 48.81134 | 10.38583 | 356° | 9km/h | 20389m | -15.3m/s | -53.4°C | 0.7% | 55.4hPa | 2.5V | 08:21:08 | 02:11:03 | 00:00:00 | |
| DK7TD | 2026-09-01 00:40:23 | 48.81131 | 10.38583 | 8° | 9km/h | 20404m | -15.6m/s | -53.5°C | 0.8% | 55.2hPa | 2.6V | 08:21:08 | 02:11:02 | 00:00:00 | |
| HSKMA3-T | 2026-09-01 00:40:19 | 48.81123 | 10.38573 | 58° | 13km/h | 20467m | -15.7m/s | -53.5°C | 0.9% | 54.7hPa | 2.5V | 08:23:41 | 02:10:58 | 00:00:00 | |
| DF8AY | 2026-09-01 00:40:14 | 48.81123 | 10.38537 | 100° | 18km/h | 20561m | -15.4m/s | -52.9°C | 0.7% | 53.9hPa | 2.5V | 08:22:50 | 02:10:52 | 00:00:00 | |
| DK7TD | 2026-09-01 00:40:12 | 48.81124 | 10.38530 | 97° | 20km/h | 20577m | -16m/s | -52.8°C | 0.7% | 53.8hPa | 2.6V | 08:21:59 | 02:10:51 | 00:00:00 | |
| DF8AY | 2026-09-01 00:40:04 | 48.81138 | 10.38476 | 152° | 11km/h | 20717m | -15.8m/s | -52.6°C | 0.6% | 52.6hPa | 2.5V | 08:22:50 | 02:10:42 | 00:00:00 | |
| DK7TD | 2026-09-01 00:40:01 | 48.81143 | 10.38473 | 164° | 9km/h | 20750m | -16.1m/s | -52.6°C | 0.6% | 52.4hPa | 2.6V | 08:21:59 | 02:10:40 | 00:00:00 | |
| BIOWL1-15 | 2026-09-01 00:39:55 | 48.81152 | 10.38465 | 156° | 7km/h | 20846m | -16.2m/s | -52.8°C | 0.7% | 51.6hPa | 2.6V | 08:24:32 | 02:10:34 | 00:00:00 | |
| HSKMA3-T | 2026-09-01 00:39:54 | 48.81154 | 10.38464 | 160° | 9km/h | 20861m | -16m/s | -52.8°C | 0.6% | 51.5hPa | 2.5V | 08:23:41 | 02:10:33 | 00:00:00 | |
| DK7TD | 2026-09-01 00:39:51 | 48.81162 | 10.38461 | 169° | 15km/h | 20909m | -15.1m/s | -52.9°C | 0.6% | 51.1hPa | 2.6V | 08:21:59 | 02:10:30 | 00:00:00 | |
| DL6DJ-15 | 2026-09-01 00:39:47 | 48.81176 | 10.38457 | 170° | 11km/h | 20972m | -16.0m/s | -53.0°C | 1.1% | 50.6hPa | 2.5V | 00:00:00 | 00:00:00 | 00:00:00 | |
| DB0ND-19 | 2026-09-01 00:39:44 | 48.81183 | 10.38456 | 165° | 5km/h | 21020m | -16.8m/s | -53.0°C | 1.1% | 50.2hPa | 2.5V | 00:00:00 | 00:00:00 | 00:00:00 | |
| HSKMA3-T | 2026-09-01 00:39:43 | 48.81184 | 10.38455 | 158° | 7km/h | 21036m | -16.4m/s | -53.1°C | 0.7% | 50.1hPa | 2.5V | 08:23:41 | 02:10:22 | 00:00:00 | |
| IW2NTF | 2026-09-01 00:39:42 | 48.81187 | 10.38453 | 160° | 5km/h | 21068m | -15.2m/s | -53.3°C | 0% | 0hPa | 2.5V | 08:21:42 | 02:10:20 | 00:00:00 | |
| BIOWL1-15 | 2026-09-01 00:39:42 | 48.81186 | 10.38454 | 157° | 5km/h | 21052m | -16.1m/s | -53.2°C | 0.7% | 50hPa | 2.5V | 08:24:32 | 02:10:21 | 00:00:00 | |
| DK7TD | 2026-09-01 00:39:41 | 48.81187 | 10.38453 | 160° | 5km/h | 21068m | -15.3m/s | -53.3°C | 0.7% | 49.8hPa | 2.5V | 08:21:59 | 02:10:20 | 00:00:00 | |
| DM0DOS-11 | 2026-09-01 00:39:40 | 48.81195 | 10.38450 | 169° | 7km/h | 21149m | -17.1m/s | -53.5°C | 4.3% | 49.3hPa | 2.5V | 08:21:47 | 02:10:15 | 00:00:00 | |
| DF8AY | 2026-09-01 00:39:38 | 48.81192 | 10.38451 | 165° | 7km/h | 21115m | -16.8m/s | -53.6°C | 0.7% | 49.5hPa | 2.5V | 08:22:50 | 02:10:17 | 00:00:00 | |
| EDDB2-11 | 2026-09-01 00:39:38 | 48.81194 | 10.38450 | 168° | 5km/h | 21132m | -16.4m/s | -53.6°C | 1.2% | 49.4hPa | 2.5V | 00:00:00 | 00:00:00 | 00:00:00 | |
| DO3MHA-11 | 2026-09-01 00:39:37 | 48.81194 | 10.38450 | 169° | 9km/h | 21132m | -16.4m/s | -53.6°C | 4.4% | 49.3hPa | 2.5V | 00:00:00 | 02:10:16 | 00:00:00 | |
| DO3MHA-12 | 2026-09-01 00:39:35 | 48.81197 | 10.38449 | 172° | 11km/h | 21165m | -16.3m/s | -53.4°C | 4.3% | 49.1hPa | 2.5V | 00:00:00 | 02:10:14 | 00:00:00 | |
| IW2NTF | 2026-09-01 00:39:33 | 48.81205 | 10.38452 | 214° | 11km/h | 21231m | -17.2m/s | -53.6°C | 0% | 0hPa | 2.5V | 08:21:52 | 02:10:10 | 00:00:00 | |
| HSKMA3-T | 2026-09-01 00:39:32 | 48.81202 | 10.38451 | 207° | 9km/h | 21214m | -17m/s | -53.6°C | 0.7% | 48.7hPa | 2.5V | 08:23:41 | 02:10:11 | 00:00:00 | |
| BIOWL1-15 | 2026-09-01 00:39:31 | 48.81205 | 10.38452 | 215° | 11km/h | 21231m | -17.3m/s | -53.6°C | 0.8% | 48.6hPa | 2.5V | 08:24:32 | 02:10:10 | 00:00:00 | |
| DK7TD | 2026-09-01 00:39:30 | 48.81207 | 10.38455 | 219° | 13km/h | 21249m | -16.9m/s | -53.6°C | 0.8% | 48.5hPa | 2.5V | 08:21:59 | 02:10:09 | 00:00:00 | |
| DF8AY | 2026-09-01 00:39:27 | 48.81213 | 10.38467 | 239° | 15km/h | 21296m | -15.6m/s | -53.5°C | 0.8% | 48.1hPa | 2.5V | 08:22:50 | 02:10:06 | 00:00:00 | |
| DO3MHA-11 | 2026-09-01 00:39:27 | 48.81213 | 10.38467 | 239° | 11km/h | 21296m | -15.6m/s | -53.5°C | 4.4% | 48.1hPa | 2.5V | 00:00:00 | 02:10:06 | 00:00:00 | |
| AZAK | 2026-09-01 00:39:26 | 48.81217 | 10.38477 | 247° | 15km/h | 21328m | -16.3m/s | -53.4°C | 1.1% | 47.9hPa | 2.6V | 08:21:00 | 00:00:00 | 00:00:00 | |
| DO3MHA-12 | 2026-09-01 00:39:25 | 48.81217 | 10.38477 | 247° | 9km/h | 21328m | -16.2m/s | -53.4°C | 4.3% | 47.8hPa | 2.6V | 00:00:00 | 02:10:04 | 00:00:00 | |
| DK5PH-5 | 2026-09-01 00:39:24 | 48.81218 | 10.38481 | 250° | 13km/h | 21345m | -16.5m/s | -53.4°C | 4.3% | 47.7hPa | 2.6V | 00:00:00 | 02:10:03 | 00:00:00 | |
| SONDE2-11 | 2026-09-01 00:39:23 | 48.81219 | 10.38486 | 257° | 9km/h | 21361m | -16.4m/s | -53.5°C | 1.2% | 47.6hPa | 2.5V | 00:00:00 | 00:00:00 | 00:00:00 | |
| IW2NTF | 2026-09-01 00:39:22 | 48.81219 | 10.38492 | 286° | 7km/h | 21393m | -15.1m/s | 0°C | 0% | 0hPa | 2.5V | 08:22:02 | 02:10:00 | 00:00:00 | |
| DK7TD | 2026-09-01 00:39:19 | 48.81217 | 10.38497 | 317° | 7km/h | 21424m | -16.2m/s | -54°C | 0.8% | 47.2hPa | 2.6V | 08:22:50 | 02:09:58 | 00:00:00 | |
| DF8AY | 2026-09-01 00:39:17 | 48.81213 | 10.38501 | 318° | 9km/h | 21455m | -15.3m/s | -54.1°C | 0.9% | 46.9hPa | 2.5V | 08:22:50 | 02:09:56 | 00:00:00 | |
| DK7TD | 2026-09-01 00:39:09 | 48.81188 | 10.38522 | 357° | 16km/h | 21590m | -16.5m/s | -54.2°C | 1% | 46hPa | 2.5V | 08:22:50 | 02:09:48 | 00:00:00 | |
| DF8AY | 2026-09-01 00:39:06 | 48.81176 | 10.38518 | 29° | 15km/h | 21640m | -16.8m/s | -54.2°C | 1% | 45.6hPa | 2.5V | 08:22:50 | 02:09:45 | 00:00:00 | |
| BIOWL1-15 | 2026-09-01 00:39:05 | 48.81165 | 10.38500 | 50° | 13km/h | 21723m | -16.8m/s | -53.8°C | 0.9% | 45hPa | 2.5V | 08:24:32 | 02:09:40 | 00:00:00 | |
| DK7TD | 2026-09-01 00:38:58 | 48.81158 | 10.38491 | 32° | 9km/h | 21774m | -17m/s | -53.6°C | 0.9% | 44.7hPa | 2.5V | 08:22:50 | 02:09:37 | 00:00:00 | |
| DO3MHA-11 | 2026-09-01 00:38:57 | 48.81156 | 10.38489 | 30° | 15km/h | 21792m | -16.9m/s | -53.6°C | 4.6% | 44.5hPa | 2.6V | 08:22:00 | 02:09:36 | 00:00:00 | |
| IW2NTF | 2026-09-01 00:38:56 | 48.81139 | 10.38471 | 35° | 18km/h | 21893m | -17.7m/s | 0°C | 0% | 0hPa | 2.6V | 08:22:32 | 02:09:30 | 00:00:00 | |
| DF8AY | 2026-09-01 00:38:55 | 48.81152 | 10.38485 | 31° | 13km/h | 21825m | -15.9m/s | -53.6°C | 0.9% | 44.3hPa | 2.5V | 08:22:50 | 02:09:34 | 00:00:00 | |
| DK7TD | 2026-09-01 00:38:48 | 48.81128 | 10.38461 | 24° | 13km/h | 21944m | -16.7m/s | -52.7°C | 0.7% | 43.5hPa | 2.5V | 08:22:50 | 02:09:27 | 00:00:00 | |
| DJ8HS-15 | 2026-09-01 00:38:48 | 48.81128 | 10.38461 | 25° | 13km/h | 21944m | -16.6m/s | -52.7°C | 4.2% | 43.5hPa | 2.5V | 00:00:00 | 02:09:27 | 00:00:00 | |
| DO3MHA-11 | 2026-09-01 00:38:47 | 48.81125 | 10.38460 | 11° | 9km/h | 21961m | -16.5m/s | -52.6°C | 4.2% | 43.3hPa | 2.6V | 00:00:00 | 02:09:26 | 00:00:00 | |
| IW2NTF | 2026-09-01 00:38:46 | 48.81115 | 10.38466 | 345° | 9km/h | 22062m | -17.1m/s | 0°C | 0% | 0hPa | 2.6V | 08:22:42 | 02:09:20 | 00:00:00 | |
| DF8AY | 2026-09-01 00:38:45 | 48.81122 | 10.38460 | 330° | 7km/h | 21995m | -17.6m/s | -52.5°C | 0.6% | 43.2hPa | 2.5V | 08:22:50 | 02:09:24 | 00:00:00 | |
| HSKMA3-T | 2026-09-01 00:38:41 | 48.81115 | 10.38466 | 345° | 9km/h | 22062m | -17.1m/s | -51.8°C | 0.5% | 42.8hPa | 2.6V | 08:23:41 | 02:09:20 | 00:00:00 | |
| DK7TD | 2026-09-01 00:38:38 | 48.81107 | 10.38468 | 356° | 13km/h | 22113m | -17.4m/s | -51.9°C | 0.5% | 42.4hPa | 2.5V | 08:22:50 | 02:09:17 | 00:00:00 | |
| DB0UT-7 | 2026-09-01 00:38:38 | 48.81106 | 10.38468 | 357° | 18km/h | 22113m | -17.4m/s | -51.8°C | 3.8% | 42.4hPa | 2.5V | 00:00:00 | 02:09:17 | 00:00:00 | |
| DO3MHA-11 | 2026-09-01 00:38:37 | 48.81103 | 10.38468 | 351° | 15km/h | 22131m | -17.3m/s | -51.9°C | 3.8% | 42.2hPa | 2.6V | 00:00:00 | 02:09:16 | 00:00:00 | |
| IW2NTF | 2026-09-01 00:38:36 | 48.81082 | 10.38482 | 336° | 16km/h | 22234m | -16.4m/s | 0°C | 0% | 0hPa | 2.6V | 08:22:52 | 02:09:10 | 00:00:00 | |
| HSKMA3-T | 2026-09-01 00:38:30 | 48.81079 | 10.38484 | 341° | 16km/h | 22251m | -18m/s | -52.7°C | 0.6% | 41.5hPa | 2.6V | 08:23:41 | 02:09:09 | 00:00:00 | |
| BIOWL1-15 | 2026-09-01 00:38:29 | 48.81075 | 10.38486 | 344° | 16km/h | 22269m | -17.2m/s | -52.8°C | 0.7% | 41.4hPa | 2.5V | 08:24:32 | 02:09:08 | 00:00:00 | |
| DK7TD | 2026-09-01 00:38:27 | 48.81066 | 10.38489 | 346° | 18km/h | 22304m | -17.7m/s | -53°C | 0.7% | 41.2hPa | 2.5V | 08:23:41 | 02:09:06 | 00:00:00 | |
| DF8AY | 2026-09-01 00:38:24 | 48.81050 | 10.38494 | 352° | 26km/h | 22356m | -17.2m/s | -53.2°C | 0.7% | 40.9hPa | 2.6V | 08:23:41 | 02:09:03 | 00:00:00 | |
| DK5PH-5 | 2026-09-01 00:38:24 | 48.81050 | 10.38494 | 352° | 18km/h | 22356m | -17.2m/s | -53.2°C | 4.2% | 40.8hPa | 2.5V | 00:00:00 | 02:09:03 | 00:00:00 | |
| DM0DOS-11 | 2026-09-01 00:38:23 | 48.81031 | 10.38497 | 359° | 22km/h | 22407m | -17m/s | -53.5°C | 4.3% | 40.5hPa | 2.5V | 08:23:02 | 02:09:00 | 00:00:00 | |
| HSKMA3-T | 2026-09-01 00:38:20 | 48.81026 | 10.38497 | 4° | 18km/h | 22424m | -17m/s | -53.7°C | 0.8% | 40.4hPa | 2.6V | 08:23:41 | 02:08:59 | 00:00:00 | |
| DK7TD | 2026-09-01 00:38:17 | 48.81015 | 10.38495 | 11° | 11km/h | 22477m | -17.6m/s | -53.9°C | 0.9% | 40.1hPa | 2.5V | 08:23:41 | 02:08:56 | 00:00:00 | |
| DF8AY | 2026-09-01 00:38:15 | 48.81006 | 10.38492 | 12° | 16km/h | 22527m | -16.9m/s | -54°C | 0.9% | 39.8hPa | 2.6V | 08:23:41 | 02:08:53 | 00:00:00 | |
| BIOWL1-15 | 2026-09-01 00:38:08 | 48.80978 | 10.38481 | 24° | 20km/h | 22634m | -17.3m/s | -53.7°C | 0.8% | 39.1hPa | 2.5V | 08:24:32 | 02:08:47 | 00:00:00 | |
| HSKMA3-T | 2026-09-01 00:38:06 | 48.80968 | 10.38474 | 28° | 20km/h | 22669m | -19m/s | -53.7°C | 0.8% | 38.9hPa | 2.5V | 08:23:41 | 02:08:45 | 00:00:00 | |
| DF8AY | 2026-09-01 00:38:03 | 48.80954 | 10.38462 | 32° | 22km/h | 22725m | -17.9m/s | -53.6°C | 0.8% | 38.6hPa | 2.6V | 08:23:41 | 02:08:42 | 00:00:00 | |
| OE5DRO-10 | 2026-09-01 00:38:02 | 48.80950 | 10.38457 | 33° | 18km/h | 22742m | -17.2m/s | -53.4°C | 4.4% | 38.4hPa | 2.6V | 00:00:00 | 00:00:00 | 00:00:00 | |
| IW2NTF | 2026-09-01 00:37:59 | 48.80925 | 10.38417 | 68° | 16km/h | 22883m | -18.2m/s | 0°C | 0% | 0hPa | 2.6V | 08:23:29 | 02:08:33 | 00:00:00 | |
| DK7TD | 2026-09-01 00:37:56 | 48.80929 | 10.38428 | 59° | 16km/h | 22848m | -16.6m/s | -53.7°C | 0.8% | 37.8hPa | 2.5V | 08:23:41 | 02:08:35 | 00:00:00 | |
| DF8AY | 2026-09-01 00:37:53 | 48.80923 | 10.38406 | 73° | 15km/h | 22917m | -16.6m/s | -53.7°C | 0.9% | 37.4hPa | 2.5V | 08:23:41 | 02:08:31 | 00:00:00 | |
| OE5WHR-10 | 2026-09-01 00:37:53 | 48.80924 | 10.38411 | 71° | 11km/h | 22901m | -17.0m/s | -53.7°C | 4.5% | 37.5hPa | 2.6V | 00:00:00 | 00:00:00 | 00:00:00 | |
| DG9SBQ-11 | 2026-09-01 00:37:52 | 48.80924 | 10.38411 | 72° | 15km/h | 22901m | -17.0m/s | -53.7°C | 1.2% | 37.5hPa | 2.6V | 00:00:00 | 00:00:00 | 00:00:00 | |
| OE9MKV-15 | 2026-09-01 00:37:51 | 48.80922 | 10.38401 | 75° | 11km/h | 22934m | -16.8m/s | -53.6°C | 4.5% | 37.3hPa | 2.6V | 00:00:00 | 02:08:30 | 00:00:00 | |
| PG1ADW-2 | 2026-09-01 00:37:50 | 48.80921 | 10.38396 | 77° | 9km/h | 22952m | -18.0m/s | -53.7°C | 4.5% | 37.2hPa | 2.6V | 00:00:00 | 00:00:00 | 00:00:00 | |
| NBG1-10 | 2026-09-01 00:37:49 | 48.80920 | 10.38391 | 79° | 11km/h | 22970m | -17.7m/s | -53.7°C | 4.5% | 37.1hPa | 2.6V | 00:00:00 | 02:08:28 | 00:00:00 | |
| DJ8HS-15 | 2026-09-01 00:37:48 | 48.80920 | 10.38387 | 81° | 9km/h | 22987m | -17.3m/s | -53.6°C | 4.5% | 37.0hPa | 2.6V | 00:00:00 | 02:08:27 | 00:00:00 | |
| DO3MHA-11 | 2026-09-01 00:37:47 | 48.80919 | 10.38383 | 81° | 7km/h | 23005m | -17.4m/s | -53.4°C | 4.4% | 36.9hPa | 2.5V | 00:00:00 | 02:08:26 | 00:00:00 | |
| IW2NTF | 2026-09-01 00:37:46 | 48.80918 | 10.38372 | 74° | 9km/h | 23056m | -16.8m/s | 0°C | 0% | 0hPa | 2.5V | 08:23:39 | 02:08:23 | 00:00:00 | |
| DM0DOS-11 | 2026-09-01 00:37:46 | 48.80915 | 10.38366 | 28° | 5km/h | 23110m | -18.7m/s | -53.5°C | 4.5% | 36.3hPa | 2.5V | 08:23:42 | 02:08:20 | 00:00:00 | |
| DK7TD | 2026-09-01 00:37:45 | 48.80919 | 10.38376 | 78° | 11km/h | 23039m | -16.7m/s | -53.4°C | 0.8% | 36.7hPa | 2.5V | 08:23:41 | 02:08:24 | 00:00:00 | |
| DF8AY | 2026-09-01 00:37:42 | 48.80916 | 10.38367 | 52° | 5km/h | 23091m | -18.3m/s | -53.5°C | 0.8% | 36.4hPa | 2.6V | 08:23:41 | 02:08:21 | 00:00:00 | |
| DK7TD | 2026-09-01 00:37:34 | 48.80908 | 10.38374 | 313° | 7km/h | 23236m | -17.4m/s | -53.4°C | 0.8% | 35.6hPa | 2.5V | 08:24:32 | 02:08:13 | 00:00:00 | |
| HSKMA3-T | 2026-09-01 00:37:32 | 48.80901 | 10.38380 | 338° | 11km/h | 23289m | -18.2m/s | -53.5°C | 0.8% | 35.3hPa | 2.5V | 08:24:32 | 02:08:10 | 00:00:00 | |
| DF8AY | 2026-09-01 00:37:30 | 48.80898 | 10.38382 | 340° | 13km/h | 23307m | -17.7m/s | -53.5°C | 0.9% | 35.2hPa | 2.5V | 08:24:32 | 02:08:09 | 00:00:00 | |
| DL1XH1-15 | 2026-09-01 00:37:30 | 48.80878 | 10.38389 | 347° | 16km/h | 23399m | -17.9m/s | -53.6°C | 4.5% | 34.7hPa | 2.5V | 08:23:58 | 02:08:04 | 00:00:00 | |
| DL1XH-west | 2026-09-01 00:37:28 | 48.80887 | 10.38386 | 351° | 16km/h | 23361m | -19.1m/s | -53.5°C | 0.9% | 35hPa | 2.6V | 08:24:32 | 02:08:06 | 00:00:00 | |
| DK7TD | 2026-09-01 00:37:24 | 48.80874 | 10.38390 | 345° | 16km/h | 23417m | -18.4m/s | -53.6°C | 0.9% | 34.6hPa | 2.5V | 08:24:32 | 02:08:03 | 00:00:00 | |
| BIOWL1-15 | 2026-09-01 00:37:23 | 48.80860 | 10.38394 | 3° | 13km/h | 23488m | -18.1m/s | -53.4°C | 0.9% | 34.3hPa | 2.5V | 08:24:32 | 02:07:59 | 00:00:00 | |
| HSKMA3-T | 2026-09-01 00:37:21 | 48.80864 | 10.38394 | 354° | 13km/h | 23470m | -18.2m/s | -53.5°C | 0.9% | 34.3hPa | 2.6V | 08:24:32 | 02:08:00 | 00:00:00 | |
| DF8AY | 2026-09-01 00:37:18 | 48.80854 | 10.38392 | 16° | 11km/h | 23524m | -18.3m/s | -53.4°C | 0.9% | 34.1hPa | 2.5V | 08:24:32 | 02:07:57 | 00:00:00 | |
| DL1XH-west | 2026-09-01 00:37:17 | 48.80852 | 10.38391 | 19° | 11km/h | 23542m | -18.4m/s | -53.2°C | 0.8% | 34hPa | 2.6V | 08:24:32 | 02:07:56 | 00:00:00 | |
| DK7TD | 2026-09-01 00:37:13 | 48.80848 | 10.38388 | 154° | 2km/h | 23617m | -17.7m/s | -53.1°C | 0.8% | 33.6hPa | 2.5V | 08:24:32 | 02:07:52 | 00:00:00 | |
| HSKMA3-T | 2026-09-01 00:37:10 | 48.80851 | 10.38390 | 208° | 7km/h | 23670m | -17.3m/s | -53.1°C | 0.8% | 33.3hPa | 2.5V | 08:24:32 | 02:07:49 | 00:00:00 | |
| DF8AY | 2026-09-01 00:37:07 | 48.80854 | 10.38394 | 262° | 4km/h | 23727m | -18.9m/s | -53°C | 0.8% | 33hPa | 2.5V | 08:24:32 | 02:07:46 | 00:00:00 | |
| DL1XH-west | 2026-09-01 00:37:06 | 48.80854 | 10.38395 | 280° | 5km/h | 23746m | -19.4m/s | -53°C | 0.8% | 32.9hPa | 2.6V | 08:24:32 | 02:07:45 | 00:00:00 | |
| DM0DOS-11 | 2026-09-01 00:37:06 | 48.80851 | 10.38413 | 277° | 15km/h | 23842m | -18.9m/s | -53.1°C | 4.5% | 32.4hPa | 2.5V | 08:24:22 | 02:07:40 | 00:00:00 | |
| DK7TD | 2026-09-01 00:37:03 | 48.80852 | 10.38403 | 287° | 11km/h | 23804m | -18.5m/s | -53.1°C | 0.9% | 32.6hPa | 2.5V | 08:24:32 | 02:07:42 | 00:00:00 | |
| DL1XH1-15 | 2026-09-01 00:37:03 | 48.80851 | 10.38407 | 280° | 13km/h | 23823m | -19.6m/s | -53.1°C | 4.4% | 32.5hPa | 2.5V | 08:24:21 | 02:07:41 | 00:00:00 | |
| HSKMA3-T | 2026-09-01 00:37:00 | 48.80850 | 10.38419 | 276° | 16km/h | 23861m | -18m/s | -53.2°C | 0.9% | 32.3hPa | 2.5V | 08:24:32 | 02:07:39 | 00:00:00 | |
| DF8AY | 2026-09-01 00:36:57 | 48.80846 | 10.38447 | 298° | 22km/h | 23934m | -18.8m/s | -53.3°C | 1% | 32hPa | 2.5V | 08:24:32 | 02:07:35 | 00:00:00 | |
| DL1XH-west | 2026-09-01 00:36:55 | 48.80843 | 10.38454 | 309° | 22km/h | 23954m | -19.8m/s | -53.4°C | 1% | 31.9hPa | 2.5V | 08:24:32 | 02:07:34 | 00:00:00 | |
| BIOWL1-15 | 2026-09-01 00:36:54 | 48.80821 | 10.38477 | 328° | 20km/h | 24051m | -19.4m/s | -52.9°C | 0.9% | 31.4hPa | 2.5V | 08:26:14 | 02:07:29 | 00:00:00 | |
| DK5PH-5 | 2026-09-01 00:36:54 | 48.80839 | 10.38460 | 319° | 22km/h | 23974m | -20.4m/s | -53.4°C | 4.7% | 31.7hPa | 2.5V | 00:00:00 | 02:07:33 | 00:00:00 | |
| DL1XH1-15 | 2026-09-01 00:36:53 | 48.80830 | 10.38470 | 329° | 22km/h | 24013m | -19m/s | -53.3°C | 4.7% | 31.6hPa | 2.5V | 08:24:31 | 02:07:31 | 00:00:00 | |
| DK7TD | 2026-09-01 00:36:52 | 48.80830 | 10.38470 | 330° | 22km/h | 24013m | -19m/s | -53.3°C | 1% | 31.6hPa | 2.5V | 08:24:32 | 02:07:31 | 00:00:00 | |
| DM0DOS-11 | 2026-09-01 00:36:51 | 48.80821 | 10.38477 | 328° | 20km/h | 24051m | -19.4m/s | -52.9°C | 4.5% | 31.4hPa | 2.5V | 08:24:33 | 02:07:29 | 00:00:00 | |
| HSKMA3-T | 2026-09-01 00:36:50 | 48.80817 | 10.38482 | 323° | 20km/h | 24070m | -18.9m/s | -52.8°C | 0.9% | 31.3hPa | 2.5V | 08:25:23 | 02:07:28 | 00:00:00 | |
| DL1ZP-14 | 2026-09-01 00:36:49 | 48.80817 | 10.38482 | 322° | 20km/h | 24071m | -18.9m/s | -52.8°C | 1.1% | 31.3hPa | 2.5V | 00:00:00 | 00:00:00 | 00:00:00 | |
| SONDE2-11 | 2026-09-01 00:36:48 | 48.80813 | 10.38487 | 317° | 20km/h | 24090m | -19.3m/s | -52.7°C | 1.1% | 31.2hPa | 2.6V | 00:00:00 | 00:00:00 | 00:00:00 | |
| DF7PN | 2026-09-01 00:36:47 | 48.80809 | 10.38493 | 315° | 22km/h | 24108m | -17.7m/s | -52.6°C | 1.2% | 31.1hPa | 2.6V | 00:00:00 | 00:00:00 | 00:00:00 | |
| DL1XH1-15 | 2026-09-01 00:36:47 | 48.80787 | 10.38529 | 314° | 26km/h | 24204m | -20.1m/s | -51.9°C | 4.2% | 30.6hPa | 2.5V | 08:24:41 | 02:07:21 | 00:00:00 | |
| DF8AY | 2026-09-01 00:36:45 | 48.80778 | 10.38541 | 322° | 20km/h | 24244m | -19.3m/s | -51.8°C | 0.7% | 30.5hPa | 2.6V | 08:25:23 | 02:07:19 | 00:00:00 | |
| DO3MHA-12 | 2026-09-01 00:36:45 | 48.80801 | 10.38506 | 312° | 22km/h | 24145m | -17.6m/s | -52.2°C | 4.3% | 30.9hPa | 2.5V | 00:00:00 | 02:07:24 | 00:00:00 | |
| DL1NUX | 2026-09-01 00:36:44 | 48.80783 | 10.38536 | 317° | 24km/h | 24224m | -19.8m/s | -51.8°C | 4.2% | 30.6hPa | 2.6V | 08:24:42 | 02:07:20 | 00:00:00 | |
| DL1XH-west | 2026-09-01 00:36:44 | 48.80796 | 10.38514 | 312° | 27km/h | 24164m | -20.5m/s | -52.1°C | 0.8% | 30.9hPa | 2.5V | 08:25:23 | 02:07:23 | 00:00:00 | |
| NBG1-10 | 2026-09-01 00:36:43 | 48.80792 | 10.38522 | 313° | 16km/h | 24185m | -19.6m/s | -52.0°C | 4.3% | 30.7hPa | 2.6V | 00:00:00 | 02:07:22 | 00:00:00 | |
| DO9HM | 2026-09-01 00:36:42 | 48.80787 | 10.38529 | 315° | 26km/h | 24205m | -20.1m/s | -51.9°C | 1.1% | 30.6hPa | 2.6V | 08:25:00 | 00:00:00 | 00:00:00 | |
| DM0DOS-11 | 2026-09-01 00:36:41 | 48.80779 | 10.38541 | 322° | 20km/h | 24244m | -19.3m/s | -51.8°C | 4.2% | 30.5hPa | 2.6V | 08:24:43 | 02:07:19 | 00:00:00 | |
| DK7TD | 2026-09-01 00:36:41 | 48.80783 | 10.38536 | 318° | 24km/h | 24224m | -19.8m/s | -51.8°C | 0.7% | 30.6hPa | 2.6V | 08:25:23 | 02:07:20 | 00:00:00 | |
| HSKMA3-T | 2026-09-01 00:36:39 | 48.80774 | 10.38545 | 327° | 18km/h | 24263m | -18.5m/s | -51.8°C | 0.7% | 30.4hPa | 2.5V | 08:25:23 | 02:07:18 | 00:00:00 | |
| OE5DXL-15 | 2026-09-01 00:36:39 | 48.80774 | 10.38545 | 327° | 15km/h | 24263m | -18.5m/s | -51.7°C | 4.2% | 30.3hPa | 2.6V | 00:00:00 | 00:00:00 | 00:00:00 | |
| DB0UT-7 | 2026-09-01 00:36:38 | 48.80771 | 10.38549 | 334° | 15km/h | 24282m | -18.9m/s | -51.8°C | 4.2% | 30.2hPa | 2.6V | 00:00:00 | 02:07:17 | 00:00:00 | |
| DN1GJH-1 | 2026-09-01 00:36:37 | 48.80767 | 10.38551 | 339° | 16km/h | 24301m | -18.9m/s | -51.9°C | 1.1% | 30.2hPa | 2.6V | 08:25:00 | 00:00:00 | 00:00:00 | |
| AM1SDL-15 | 2026-09-01 00:36:36 | 48.80763 | 10.38553 | 341° | 18km/h | 24320m | -18.0m/s | -51.9°C | 4.3% | 30.1hPa | 2.6V | 00:00:00 | 02:07:15 | 00:00:00 | |
| DO3MHA-12 | 2026-09-01 00:36:35 | 48.80758 | 10.38556 | 342° | 20km/h | 24338m | -18.2m/s | -51.9°C | 4.3% | 30.0hPa | 2.6V | 00:00:00 | 02:07:14 | 00:00:00 | |
| DL1NUX | 2026-09-01 00:36:34 | 48.80737 | 10.38564 | 353° | 24km/h | 24415m | -19.9m/s | -51.6°C | 4.2% | 29.7hPa | 2.6V | 08:24:52 | 02:07:10 | 00:00:00 | |
| DL1XH-west | 2026-09-01 00:36:33 | 48.80742 | 10.38562 | 349° | 24km/h | 24395m | -20.6m/s | -51.7°C | 0.7% | 29.8hPa | 2.5V | 08:25:23 | 02:07:11 | 00:00:00 | |
| DK7TD | 2026-09-01 00:36:30 | 48.80731 | 10.38564 | 360° | 22km/h | 24434m | -18.6m/s | -51.5°C | 0.7% | 29.6hPa | 2.6V | 08:25:23 | 02:07:09 | 00:00:00 | |
| DF8AY | 2026-09-01 00:36:30 | 48.80725 | 10.38564 | 8° | 22km/h | 24453m | -19.2m/s | -51.4°C | 0.7% | 29.5hPa | 2.5V | 08:25:23 | 02:07:08 | 00:00:00 | |
| HSKMA3-T | 2026-09-01 00:36:29 | 48.80720 | 10.38562 | 15° | 20km/h | 24472m | -18.9m/s | -51.3°C | 0.8% | 29.4hPa | 2.5V | 08:25:23 | 02:07:07 | 00:00:00 | |
| DL1XH-west | 2026-09-01 00:36:22 | 48.80699 | 10.38542 | 38° | 15km/h | 24584m | -19.7m/s | -51.1°C | 0.7% | 28.9hPa | 2.5V | 08:25:23 | 02:07:01 | 00:00:00 | |
| DK7TD | 2026-09-01 00:36:19 | 48.80690 | 10.38532 | 40° | 15km/h | 24641m | -18.2m/s | -50.9°C | 0.7% | 28.6hPa | 2.5V | 08:25:23 | 02:06:58 | 00:00:00 | |
| DF8AY | 2026-09-01 00:36:18 | 48.80688 | 10.38528 | 50° | 13km/h | 24660m | -20.7m/s | -50.8°C | 0.6% | 28.6hPa | 2.6V | 08:25:23 | 02:06:57 | 00:00:00 | |
| HSKMA3-T | 2026-09-01 00:36:17 | 48.80685 | 10.38522 | 77° | 7km/h | 24701m | -19.9m/s | -50.6°C | 0.6% | 28.4hPa | 2.5V | 08:25:23 | 02:06:55 | 00:00:00 | |
| DO3MHA-11 | 2026-09-01 00:36:17 | 48.80686 | 10.38525 | 62° | 5km/h | 24681m | -21.2m/s | -50.6°C | 4.0% | 28.4hPa | 2.5V | 00:00:00 | 02:06:56 | 00:00:00 | |
| DB0NH | 2026-09-01 00:36:16 | 48.80685 | 10.38522 | 78° | 5km/h | 24702m | -19.9m/s | -50.5°C | 4.0% | 28.3hPa | 2.5V | 00:00:00 | 02:06:55 | 00:00:00 | |
| OE5MMP-10 | 2026-09-01 00:36:15 | 48.80685 | 10.38519 | 101° | 5km/h | 24721m | -19.7m/s | -50.5°C | 3.9% | 28.3hPa | 2.5V | 00:00:00 | 02:06:54 | 00:00:00 | |
| OE5DRO-10 | 2026-09-01 00:36:14 | 48.80686 | 10.38518 | 137° | 5km/h | 24741m | -19.1m/s | -50.4°C | 3.9% | 28.2hPa | 2.6V | 00:00:00 | 00:00:00 | 00:00:00 | |
| DL1XH1-15 | 2026-09-01 00:36:13 | 48.80687 | 10.38518 | 191° | 4km/h | 24781m | -20.6m/s | -50.2°C | 3.8% | 28.1hPa | 2.6V | 08:25:11 | 02:06:51 | 00:00:00 | |
| DL1XH-west | 2026-09-01 00:36:12 | 48.80688 | 10.38518 | 158° | 2km/h | 24822m | -20.9m/s | -50.1°C | 0.5% | 27.9hPa | 2.5V | 08:25:23 | 02:06:49 | 00:00:00 | |
| DM0DOS-11 | 2026-09-01 00:36:11 | 48.80689 | 10.38517 | 105° | 4km/h | 24842m | -19.2m/s | -50°C | 3.7% | 27.8hPa | 2.5V | 08:25:14 | 02:06:48 | 00:00:00 | |
| BIOWL1-15 | 2026-09-01 00:36:11 | 48.80689 | 10.38513 | 93° | 7km/h | 24880m | -19.4m/s | -50.1°C | 0.4% | 27.6hPa | 2.6V | 08:26:14 | 02:06:46 | 00:00:00 | |
| DK7TD | 2026-09-01 00:36:08 | 48.80689 | 10.38516 | 90° | 5km/h | 24861m | -18.6m/s | -50.1°C | 0.4% | 27.7hPa | 2.6V | 08:25:23 | 02:06:47 | 00:00:00 | |
| DF8AY | 2026-09-01 00:36:06 | 48.80689 | 10.38510 | 95° | 9km/h | 24899m | -19.2m/s | -50.1°C | 0.5% | 27.5hPa | 2.5V | 08:25:23 | 02:06:45 | 00:00:00 | |
| HSKMA3-T | 2026-09-01 00:36:05 | 48.80689 | 10.38507 | 97° | 9km/h | 24918m | -18.4m/s | -50.1°C | 0.5% | 27.5hPa | 2.5V | 08:25:23 | 02:06:44 | 00:00:00 | |
| DO3MHA-12 | 2026-09-01 00:36:05 | 48.80689 | 10.38507 | 98° | 5km/h | 24918m | -18.4m/s | -50.1°C | 3.7% | 27.4hPa | 2.6V | 00:00:00 | 02:06:44 | 00:00:00 | |
| DL1XH1-15 | 2026-09-01 00:36:03 | 48.80691 | 10.38502 | 184° | 2km/h | 24977m | -20.1m/s | -50.2°C | 3.8% | 27.2hPa | 2.6V | 08:25:21 | 02:06:41 | 00:00:00 | |
| DL1XH-west | 2026-09-01 00:35:59 | 48.80692 | 10.38507 | 268° | 7km/h | 25035m | -19.4m/s | -50.2°C | 0.5% | 27hPa | 2.5V | 08:26:14 | 02:06:38 | 00:00:00 | |
| DK7TD | 2026-09-01 00:35:58 | 48.80692 | 10.38509 | 272° | 5km/h | 25054m | -19.6m/s | -50.1°C | 0.5% | 26.9hPa | 2.5V | 08:26:14 | 02:06:37 | 00:00:00 | |
| DF8AY | 2026-09-01 00:35:55 | 48.80692 | 10.38512 | 117° | 2km/h | 25112m | -19.7m/s | -50.3°C | 0.5% | 26.6hPa | 2.6V | 08:26:14 | 02:06:34 | 00:00:00 | |
| HSKMA3-T | 2026-09-01 00:35:55 | 48.80692 | 10.38511 | 93° | 4km/h | 25132m | -19.2m/s | -50.3°C | 0.5% | 26.6hPa | 2.5V | 08:27:05 | 02:06:33 | 00:00:00 | |
| DO3MHA-12 | 2026-09-01 00:35:55 | 48.80692 | 10.38512 | 118° | 4km/h | 25113m | -19.6m/s | -50.2°C | 3.8% | 26.6hPa | 2.5V | 00:00:00 | 02:06:34 | 00:00:00 | |
| DL1NUX | 2026-09-01 00:35:54 | 48.80691 | 10.38505 | 47° | 5km/h | 25189m | -19.1m/s | -50.3°C | 3.8% | 26.3hPa | 2.5V | 08:25:32 | 02:06:30 | 00:00:00 | |
| BIOWL1-15 | 2026-09-01 00:35:51 | 48.80690 | 10.38508 | 170° | 5km/h | 25322m | -20.1m/s | -50.6°C | 0.5% | 25.8hPa | 2.6V | 08:26:14 | 02:06:23 | 00:00:00 | |
| DL1XH-west | 2026-09-01 00:35:49 | 48.80689 | 10.38504 | 342° | 4km/h | 25228m | -19.6m/s | -50.3°C | 0.5% | 26.2hPa | 2.6V | 08:26:14 | 02:06:28 | 00:00:00 | |
| DK7TD | 2026-09-01 00:35:47 | 48.80688 | 10.38506 | 286° | 4km/h | 25265m | -18.8m/s | -50.4°C | 0.5% | 26hPa | 2.5V | 08:26:14 | 02:06:26 | 00:00:00 | |
| DF8AY | 2026-09-01 00:35:45 | 48.80688 | 10.38508 | 198° | 4km/h | 25302m | -19.6m/s | -50.5°C | 0.5% | 25.9hPa | 2.6V | 08:26:14 | 02:06:24 | 00:00:00 | |
| DO3MHA-12 | 2026-09-01 00:35:45 | 48.80688 | 10.38508 | 199° | 7km/h | 25302m | -19.5m/s | -50.5°C | 3.8% | 25.8hPa | 2.6V | 08:25:00 | 02:06:24 | 00:00:00 | |
| DL1NUX | 2026-09-01 00:35:44 | 48.80695 | 10.38503 | 163° | 4km/h | 25403m | -20.6m/s | -50.8°C | 3.9% | 25.5hPa | 2.6V | 08:25:43 | 02:06:19 | 00:00:00 | |
| HSKMA3-T | 2026-09-01 00:35:43 | 48.80691 | 10.38508 | 147° | 7km/h | 25342m | -20.6m/s | -50.6°C | 0.6% | 25.7hPa | 2.5V | 08:27:05 | 02:06:22 | 00:00:00 | |
| DL1XH-west | 2026-09-01 00:35:39 | 48.80696 | 10.38503 | 226° | 4km/h | 25423m | -20.8m/s | -50.9°C | 0.6% | 25.4hPa | 2.6V | 08:26:14 | 02:06:18 | 00:00:00 | |
| DK7TD | 2026-09-01 00:35:36 | 48.80695 | 10.38511 | 292° | 13km/h | 25481m | -18.8m/s | -50.9°C | 0.6% | 25.2hPa | 2.5V | 08:26:14 | 02:06:15 | 00:00:00 | |
| DF8AY | 2026-09-01 00:35:35 | 48.80692 | 10.38521 | 295° | 13km/h | 25519m | -19.8m/s | -50.9°C | 0.6% | 25hPa | 2.6V | 08:26:14 | 02:06:13 | 00:00:00 | |
| DO3MHA-12 | 2026-09-01 00:35:35 | 48.80693 | 10.38516 | 294° | 5km/h | 25500m | -18.8m/s | -50.9°C | 4.0% | 25.1hPa | 2.6V | 00:00:00 | 02:06:14 | 00:00:00 | |
| DL1NUX | 2026-09-01 00:35:34 | 48.80689 | 10.38528 | 120° | 2km/h | 25597m | -19.1m/s | -51°C | 4% | 24.7hPa | 2.6V | 08:25:53 | 02:06:09 | 00:00:00 | |
| BIOWL1-15 | 2026-09-01 00:35:34 | 48.80691 | 10.38524 | 299° | 9km/h | 25539m | -20.4m/s | -50.9°C | 0.6% | 25hPa | 2.5V | 08:26:14 | 02:06:12 | 00:00:00 | |
| HSKMA3-T | 2026-09-01 00:35:33 | 48.80690 | 10.38527 | 303° | 5km/h | 25559m | -20.2m/s | -50.9°C | 0.7% | 24.9hPa | 2.5V | 08:27:05 | 02:06:11 | 00:00:00 | |
| DL1XH-west | 2026-09-01 00:35:29 | 48.80690 | 10.38527 | 137° | 4km/h | 25616m | -19.4m/s | -50.9°C | 0.6% | 24.6hPa | 2.6V | 08:26:14 | 02:06:08 | 00:00:00 | |
| DK7TD | 2026-09-01 00:35:26 | 48.80693 | 10.38525 | 175° | 4km/h | 25674m | -18.8m/s | -50.8°C | 0.6% | 24.5hPa | 2.5V | 08:26:14 | 02:06:05 | 00:00:00 | |
| DO3MHA-12 | 2026-09-01 00:35:25 | 48.80693 | 10.38525 | 219° | 9km/h | 25693m | -20.1m/s | -50.8°C | 3.9% | 24.3hPa | 2.5V | 00:00:00 | 02:06:04 | 00:00:00 | |
| DL1NUX | 2026-09-01 00:35:24 | 48.80689 | 10.38535 | 316° | 13km/h | 25790m | -19.6m/s | -51.1°C | 4.1% | 24hPa | 2.5V | 08:26:03 | 02:05:59 | 00:00:00 | |
| DF8AY | 2026-09-01 00:35:23 | 48.80694 | 10.38527 | 295° | 5km/h | 25732m | -19.2m/s | -50.8°C | 0.6% | 24.2hPa | 2.6V | 08:26:14 | 02:06:02 | 00:00:00 | |
| DL1XH1-15 | 2026-09-01 00:35:23 | 48.80693 | 10.38530 | 308° | 7km/h | 25751m | -19.5m/s | -50.9°C | 3.9% | 24.1hPa | 2.6V | 08:26:01 | 02:06:01 | 00:00:00 | |
| BIOWL1-15 | 2026-09-01 00:35:23 | 48.80668 | 10.38554 | 342° | 7km/h | 25948m | -20.6m/s | -51°C | 0.6% | 23.4hPa | 2.6V | 08:26:14 | 02:05:51 | 00:00:00 | |
| HSKMA3-T | 2026-09-01 00:35:21 | 48.80691 | 10.38532 | 313° | 11km/h | 25771m | -19.5m/s | -51°C | 0.7% | 24.1hPa | 2.5V | 08:27:05 | 02:06:00 | 00:00:00 | |
| DL1XH-west | 2026-09-01 00:35:18 | 48.80684 | 10.38542 | 323° | 15km/h | 25829m | -19.9m/s | -51°C | 0.7% | 23.9hPa | 2.5V | 08:26:14 | 02:05:57 | 00:00:00 | |
| DK7TD | 2026-09-01 00:35:16 | 48.80678 | 10.38548 | 331° | 13km/h | 25869m | -19.5m/s | -51.1°C | 0.7% | 23.7hPa | 2.6V | 08:26:14 | 02:05:55 | 00:00:00 | |
| BIOWL1-15 | 2026-09-01 00:35:14 | 48.80662 | 10.38558 | 331° | 11km/h | 26009m | -21.2m/s | -51°C | 0.7% | 23.2hPa | 2.5V | 08:26:14 | 02:05:48 | 00:00:00 | |
| DF8AY | 2026-09-01 00:35:13 | 48.80670 | 10.38553 | 343° | 9km/h | 25928m | -20.5m/s | -51°C | 0.7% | 23.5hPa | 2.5V | 08:26:14 | 02:05:52 | 00:00:00 | |
| DL1XH1-15 | 2026-09-01 00:35:13 | 48.80668 | 10.38554 | 342° | 7km/h | 25948m | -20.6m/s | -51°C | 4% | 23.4hPa | 2.6V | 08:26:11 | 02:05:51 | 00:00:00 | |
| DM0DOS-11 | 2026-09-01 00:35:12 | 48.80657 | 10.38562 | 343° | 13km/h | 26050m | -21.1m/s | -51°C | 4.1% | 23.1hPa | 2.6V | 08:26:16 | 02:05:46 | 00:00:00 | |
| HSKMA3-T | 2026-09-01 00:35:11 | 48.80666 | 10.38555 | 336° | 7km/h | 25968m | -20.2m/s | -51°C | 0.6% | 23.4hPa | 2.6V | 08:27:05 | 02:05:50 | 00:00:00 | |
| DL1XH-west | 2026-09-01 00:35:08 | 48.80660 | 10.38560 | 335° | 11km/h | 26030m | -20m/s | -51°C | 0.7% | 23.1hPa | 2.5V | 08:27:05 | 02:05:47 | 00:00:00 | |
| DK7TD | 2026-09-01 00:35:05 | 48.80650 | 10.38562 | 13° | 16km/h | 26093m | -22.2m/s | -50.9°C | 0.7% | 22.9hPa | 2.5V | 08:27:05 | 02:05:44 | 00:00:00 | |
| DO3MHA-12 | 2026-09-01 00:35:05 | 48.80650 | 10.38562 | 13° | 11km/h | 26093m | -22.1m/s | -50.8°C | 4.0% | 22.9hPa | 2.6V | 00:00:00 | 02:05:44 | 00:00:00 | |
| NBG1-10 | 2026-09-01 00:35:04 | 48.80646 | 10.38560 | 22° | 9km/h | 26114m | -21.0m/s | -50.8°C | 4.1% | 22.8hPa | 2.6V | 00:00:00 | 02:05:43 | 00:00:00 | |
| DL1XH1-15 | 2026-09-01 00:35:03 | 48.80639 | 10.38554 | 39° | 16km/h | 26156m | -20.5m/s | -50.8°C | 4% | 22.7hPa | 2.6V | 08:26:21 | 02:05:41 | 00:00:00 | |
| BIOWL1-15 | 2026-09-01 00:35:02 | 48.80639 | 10.38554 | 40° | 16km/h | 26156m | -20.5m/s | -50.8°C | 0.6% | 22.7hPa | 2.6V | 18:12:15 | 02:05:41 | 00:00:00 | |
| HSKMA3-T | 2026-09-01 00:35:01 | 48.80636 | 10.38550 | 45° | 15km/h | 26176m | -20.2m/s | -50.8°C | 0.6% | 22.6hPa | 2.6V | 08:27:05 | 02:05:40 | 00:00:00 | |
| DL1XH-west | 2026-09-01 00:34:58 | 48.80632 | 10.38542 | 44° | 2km/h | 26239m | -22.4m/s | -51°C | 0.6% | 22.4hPa | 2.5V | 08:27:05 | 02:05:37 | 00:00:00 | |
| DK7TD | 2026-09-01 00:34:54 | 48.80631 | 10.38547 | 288° | 5km/h | 26324m | -20.8m/s | -50.6°C | 0.7% | 22.1hPa | 2.5V | 08:27:05 | 02:05:33 | 00:00:00 | |
| DF3TZ-5 | 2026-09-01 00:34:52 | 48.80629 | 10.38551 | 329° | 2km/h | 26388m | -22.1m/s | -50.6°C | 1.0% | 21.9hPa | 2.6V | 00:00:00 | 00:00:00 | 00:00:00 | |
| BIOWL1-15 | 2026-09-01 00:34:51 | 48.80608 | 10.38553 | 2° | 18km/h | 26597m | -20.8m/s | -50.1°C | 0.7% | 21.2hPa | 2.6V | 18:12:15 | 02:05:20 | 00:00:00 | |
| DL1NUX | 2026-09-01 00:34:51 | 48.80626 | 10.38552 | 356° | 5km/h | 26494m | -21m/s | -50.4°C | 4% | 21.6hPa | 2.6V | 08:26:37 | 02:05:25 | 00:00:00 | |
| HSKMA3-T | 2026-09-01 00:34:51 | 48.80628 | 10.38551 | 344° | 2km/h | 26410m | -21.3m/s | -50.5°C | 0.6% | 21.8hPa | 2.5V | 08:27:05 | 02:05:29 | 00:00:00 | |
| PG1ADW-2 | 2026-09-01 00:34:50 | 48.80628 | 10.38551 | 345° | 11km/h | 26410m | -21.3m/s | -50.5°C | 4.0% | 21.8hPa | 2.6V | 00:00:00 | 00:00:00 | 00:00:00 | |
| SO1NDE-10 | 2026-09-01 00:34:49 | 48.80628 | 10.38551 | 357° | 9km/h | 26431m | -20.8m/s | -50.4°C | 4.0% | 21.7hPa | 2.6V | 00:00:00 | 02:05:28 | 00:00:00 | |
| DM0DOS-11 | 2026-09-01 00:34:48 | 48.80627 | 10.38551 | 356° | 4km/h | 26473m | -21.1m/s | -50.4°C | 4% | 21.6hPa | 2.6V | 08:26:36 | 02:05:26 | 00:00:00 | |
| DL1XH-west | 2026-09-01 00:34:47 | 48.80627 | 10.38551 | 356° | 4km/h | 26473m | -21.1m/s | -50.4°C | 0.6% | 21.6hPa | 2.6V | 08:27:05 | 02:05:26 | 00:00:00 | |
| SONCRA | 2026-09-01 00:34:47 | 48.80627 | 10.38551 | 356° | 2km/h | 26473m | -21.1m/s | -50.4°C | 1.0% | 21.6hPa | 2.5V | 00:00:00 | 00:00:00 | 00:00:00 | |
| DL1ZP-14 | 2026-09-01 00:34:45 | 48.80624 | 10.38552 | 354° | 9km/h | 26515m | -21.4m/s | -50.3°C | 1.0% | 21.5hPa | 2.5V | 00:00:00 | 00:00:00 | 00:00:00 | |
| SONDE2-11 | 2026-09-01 00:34:44 | 48.80621 | 10.38552 | 353° | 11km/h | 26536m | -19.5m/s | -50.3°C | 1.0% | 21.4hPa | 2.5V | 00:00:00 | 00:00:00 | 00:00:00 | |
| DK7TD | 2026-09-01 00:34:43 | 48.80617 | 10.38553 | 357° | 16km/h | 26556m | -21.3m/s | -50.2°C | 0.6% | 21.4hPa | 2.5V | 08:27:05 | 02:05:22 | 00:00:00 | |
| HSKMA3-T | 2026-09-01 00:34:40 | 48.80604 | 10.38552 | 9° | 18km/h | 26618m | -21.3m/s | -50.1°C | 0.6% | 21.2hPa | 2.6V | 08:27:05 | 02:05:19 | 00:00:00 | |
| BIOWL1-15 | 2026-09-01 00:34:39 | 48.80596 | 10.38549 | 27° | 13km/h | 26661m | -19.6m/s | -50°C | 0.6% | 21hPa | 2.5V | 18:12:15 | 02:05:17 | 00:00:00 | |
| DL1XH-west | 2026-09-01 00:34:36 | 48.80593 | 10.38542 | 72° | 11km/h | 26704m | -22.2m/s | -50°C | 0.6% | 20.9hPa | 2.5V | 08:27:05 | 02:05:15 | 00:00:00 | |
| DO3MHA-12 | 2026-09-01 00:34:35 | 48.80592 | 10.38538 | 82° | 9km/h | 26726m | -21.7m/s | -50.0°C | 4.0% | 20.8hPa | 2.5V | 00:00:00 | 02:05:14 | 00:00:00 | |
| DB0ND-19 | 2026-09-01 00:34:34 | 48.80592 | 10.38534 | 85° | 9km/h | 26747m | -20.4m/s | -50.1°C | 1.0% | 20.7hPa | 2.5V | 00:00:00 | 00:00:00 | 00:00:00 | |
| DL1XH1-15 | 2026-09-01 00:34:33 | 48.80591 | 10.38528 | 63° | 7km/h | 26786m | -19.4m/s | -50.1°C | 4% | 20.6hPa | 2.5V | 08:26:51 | 02:05:11 | 00:00:00 | |
| DK7TD | 2026-09-01 00:34:32 | 48.80591 | 10.38528 | 64° | 7km/h | 26786m | -19.4m/s | -50.1°C | 0.7% | 20.6hPa | 2.5V | 08:27:05 | 02:05:11 | 00:00:00 | |
| NBG1-10 | 2026-09-01 00:34:31 | 48.80590 | 10.38525 | 43° | 13km/h | 26807m | -20.0m/s | -50.0°C | 4.0% | 20.5hPa | 2.5V | 00:00:00 | 02:05:10 | 00:00:00 | |
| PG1ADW-2 | 2026-09-01 00:34:30 | 48.80589 | 10.38524 | 25° | 13km/h | 26827m | -21.0m/s | -50.0°C | 3.9% | 20.4hPa | 2.5V | 00:00:00 | 02:05:09 | 00:00:00 | |
| DM0DOS-11 | 2026-09-01 00:34:29 | 48.80585 | 10.38519 | 72° | 7km/h | 26891m | -21.7m/s | -49.8°C | 3.9% | 20.3hPa | 2.5V | 08:26:56 | 02:05:06 | 00:00:00 | |
| HSKMA3-T | 2026-09-01 00:34:29 | 48.80587 | 10.38523 | 26° | 7km/h | 26848m | -21.7m/s | -50°C | 0.7% | 20.4hPa | 2.6V | 08:27:05 | 02:05:08 | 00:00:00 | |
| BIOWL1-15 | 2026-09-01 00:34:27 | 48.80585 | 10.38511 | 94° | 15km/h | 26932m | -19.8m/s | -49.7°C | 0.6% | 20.1hPa | 2.5V | 18:12:15 | 02:05:04 | 00:00:00 | |
| DL1XH1-15 | 2026-09-01 00:34:27 | 48.80586 | 10.38492 | 98° | 16km/h | 26992m | -21m/s | -49.4°C | 3.8% | 20hPa | 2.5V | 08:27:01 | 02:05:01 | 00:00:00 | |
| DL1XH-west | 2026-09-01 00:34:26 | 48.80585 | 10.38516 | 87° | 11km/h | 26912m | -21.1m/s | -49.8°C | 0.6% | 20.2hPa | 2.5V | 08:27:05 | 02:05:05 | 00:00:00 | |
| DF8AY | 2026-09-01 00:34:26 | 48.80586 | 10.38492 | 99° | 16km/h | 26992m | -21m/s | -49.4°C | 0.5% | 20hPa | 2.5V | 08:27:05 | 02:05:01 | 00:00:00 | |
| DK7TD | 2026-09-01 00:34:21 | 48.80587 | 10.38486 | 98° | 15km/h | 27014m | -21.1m/s | -49.3°C | 0.5% | 19.9hPa | 2.5V | 08:27:05 | 02:05:00 | 00:00:00 | |
| HSKMA3-T | 2026-09-01 00:34:18 | 48.80589 | 10.38478 | 175° | 5km/h | 27077m | -21m/s | -49.1°C | 0.5% | 19.7hPa | 2.6V | 08:27:05 | 02:04:57 | 00:00:00 | |
| BIOWL1-15 | 2026-09-01 00:34:16 | 48.80599 | 10.38485 | 197° | 15km/h | 27162m | -20.5m/s | -49.1°C | 0.4% | 19.4hPa | 2.6V | 18:12:15 | 02:04:53 | 00:00:00 | |
| DL1XH-west | 2026-09-01 00:34:15 | 48.80595 | 10.38483 | 206° | 13km/h | 27141m | -20.3m/s | -49°C | 0.4% | 19.5hPa | 2.5V | 08:27:56 | 02:04:54 | 00:00:00 | |
| DF8AY | 2026-09-01 00:34:14 | 48.80603 | 10.38486 | 184° | 18km/h | 27182m | -20.8m/s | -49.2°C | 0.5% | 19.4hPa | 2.6V | 08:27:56 | 02:04:52 | 00:00:00 | |
| DL1XH1-15 | 2026-09-01 00:34:13 | 48.80607 | 10.38486 | 176° | 18km/h | 27203m | -20.6m/s | -49.3°C | 3.7% | 19.3hPa | 2.5V | 08:27:11 | 02:04:51 | 00:00:00 | |
| DK7TD | 2026-09-01 00:34:10 | 48.80617 | 10.38483 | 165° | 22km/h | 27246m | -21.2m/s | -49.3°C | 0.5% | 19.2hPa | 2.5V | 08:27:56 | 02:04:49 | 00:00:00 | |
| HSKMA3-T | 2026-09-01 00:34:08 | 48.80627 | 10.38479 | 169° | 18km/h | 27290m | -22.3m/s | -49.4°C | 0.5% | 19.1hPa | 2.6V | 08:27:56 | 02:04:47 | 00:00:00 | |
| DB0UT-7 | 2026-09-01 00:34:08 | 48.80627 | 10.38479 | 170° | 15km/h | 27291m | -22.2m/s | -49.4°C | 3.8% | 19.0hPa | 2.6V | 00:00:00 | 00:00:00 | 00:00:00 | |
| IW2NTF | 2026-09-01 00:34:07 | 48.80639 | 10.38480 | 213° | 13km/h | 27357m | -22.7m/s | 0°C | 0% | 0hPa | 2.5V | 00:00:00 | 02:04:44 | 00:00:00 | |
| DL1XH-west | 2026-09-01 00:34:05 | 48.80639 | 10.38480 | 213° | 13km/h | 27357m | -22.7m/s | -49.6°C | 0.6% | 18.9hPa | 2.5V | 08:27:56 | 02:04:44 | 00:00:00 | |
| DO3MHA-12 | 2026-09-01 00:34:05 | 48.80639 | 10.38480 | 214° | 13km/h | 27357m | -22.6m/s | -49.5°C | 3.9% | 18.9hPa | 2.5V | 00:00:00 | 02:04:44 | 00:00:00 | |
| DL1XH1-15 | 2026-09-01 00:34:03 | 48.80643 | 10.38494 | 266° | 16km/h | 27426m | -23m/s | -49.6°C | 3.9% | 18.7hPa | 2.5V | 08:27:21 | 02:04:41 | 00:00:00 | |
| DK7TD | 2026-09-01 00:34:00 | 48.80642 | 10.38506 | 284° | 15km/h | 27471m | -22.1m/s | -49.5°C | 0.6% | 18.6hPa | 2.5V | 08:27:56 | 02:04:39 | 00:00:00 | |
| DM0DOS-11 | 2026-09-01 00:33:58 | 48.80630 | 10.38529 | 322° | 13km/h | 27625m | -22.1m/s | -49.3°C | 3.9% | 18.1hPa | 2.6V | 08:27:30 | 02:04:32 | 00:00:00 | |
| HSKMA3-T | 2026-09-01 00:33:57 | 48.80639 | 10.38519 | 312° | 9km/h | 27537m | -22.2m/s | -49.5°C | 0.6% | 18.4hPa | 2.5V | 08:27:56 | 02:04:36 | 00:00:00 | |
| DO3MHA-11 | 2026-09-01 00:33:57 | 48.80639 | 10.38519 | 312° | 15km/h | 27537m | -22.1m/s | -49.4°C | 3.9% | 18.3hPa | 2.5V | 00:00:00 | 02:04:36 | 00:00:00 | |
| AZAK | 2026-09-01 00:33:56 | 48.80635 | 10.38523 | 326° | 11km/h | 27581m | -22.1m/s | -49.4°C | 1.0% | 18.3hPa | 2.5V | 08:27:00 | 00:00:00 | 00:00:00 | |
| DO3MHA-12 | 2026-09-01 00:33:55 | 48.80635 | 10.38523 | 325° | 15km/h | 27581m | -22.0m/s | -49.4°C | 3.9% | 18.2hPa | 2.5V | 00:00:00 | 02:04:34 | 00:00:00 | |
| DL1NUX | 2026-09-01 00:33:54 | 48.80624 | 10.38535 | 329° | 16km/h | 27670m | -22.8m/s | -49.4°C | 4% | 18hPa | 2.5V | 08:27:32 | 02:04:30 | 00:00:00 | |
| DL1XH-west | 2026-09-01 00:33:54 | 48.80633 | 10.38526 | 324° | 11km/h | 27603m | -22.1m/s | -49.4°C | 0.6% | 18.2hPa | 2.6V | 08:27:56 | 02:04:33 | 00:00:00 | |
| DF8AY | 2026-09-01 00:33:53 | 48.80630 | 10.38529 | 323° | 13km/h | 27625m | -22.1m/s | -49.3°C | 0.6% | 18.1hPa | 2.6V | 08:27:56 | 02:04:32 | 00:00:00 | |
| DK7TD | 2026-09-01 00:33:50 | 48.80621 | 10.38538 | 334° | 16km/h | 27693m | -22.6m/s | -49.3°C | 0.6% | 18hPa | 2.5V | 08:27:56 | 02:04:29 | 00:00:00 | |
| HSKMA3-T | 2026-09-01 00:33:47 | 48.80608 | 10.38544 | 352° | 16km/h | 27758m | -21.8m/s | -49°C | 0.6% | 17.8hPa | 2.5V | 08:27:56 | 02:04:26 | 00:00:00 | |
| DL1XH1-15 | 2026-09-01 00:33:47 | 48.80591 | 10.38542 | 30° | 9km/h | 27869m | -23m/s | -48.5°C | 3.8% | 17.4hPa | 2.5V | 08:27:41 | 02:04:21 | 00:00:00 | |
| DL1XH-west | 2026-09-01 00:33:44 | 48.80596 | 10.38545 | 9° | 13km/h | 27824m | -21.8m/s | -48.6°C | 0.5% | 17.6hPa | 2.6V | 08:27:56 | 02:04:23 | 00:00:00 | |
| DM0DOS-11 | 2026-09-01 00:33:43 | 48.80593 | 10.38543 | 20° | 11km/h | 27847m | -22.2m/s | -48.5°C | 3.8% | 17.5hPa | 2.6V | 08:27:40 | 02:04:22 | 00:00:00 | |
| DF8AY | 2026-09-01 00:33:43 | 48.80587 | 10.38538 | 36° | 9km/h | 27913m | -21.5m/s | -48.4°C | 0.5% | 17.4hPa | 2.5V | 08:27:56 | 02:04:19 | 00:00:00 | |
| DK7TD | 2026-09-01 00:33:39 | 48.80585 | 10.38535 | 32° | 11km/h | 27934m | -21.1m/s | -48.3°C | 0.5% | 17.3hPa | 2.6V | 08:27:56 | 02:04:18 | 00:00:00 | |
| DF8AY | 2026-09-01 00:33:37 | 48.80563 | 10.38536 | 354° | 13km/h | 28090m | -21.6m/s | -47.3°C | 0.3% | 16.9hPa | 2.5V | 08:27:56 | 02:04:11 | 00:00:00 | |
| HSKMA3-T | 2026-09-01 00:33:36 | 48.80576 | 10.38533 | 358° | 13km/h | 28000m | -22.3m/s | -47.9°C | 0.5% | 17.1hPa | 2.5V | 08:27:56 | 02:04:15 | 00:00:00 | |
| DO3MHA-12 | 2026-09-01 00:33:35 | 48.80573 | 10.38533 | 351° | 13km/h | 28023m | -23.2m/s | -47.7°C | 3.6% | 17.0hPa | 2.6V | 00:00:00 | 02:04:14 | 00:00:00 | |
| DM0DOS-11 | 2026-09-01 00:33:33 | 48.80566 | 10.38535 | 351° | 15km/h | 28068m | -22.6m/s | -47.4°C | 3.5% | 16.9hPa | 2.6V | 08:27:50 | 02:04:12 | 00:00:00 | |
| DL1XH1-15 | 2026-09-01 00:33:33 | 48.80563 | 10.38536 | 354° | 13km/h | 28090m | -21.6m/s | -47.3°C | 3.4% | 16.9hPa | 2.5V | 08:27:51 | 02:04:11 | 00:00:00 | |
| DL1XH-west | 2026-09-01 00:33:33 | 48.80566 | 10.38535 | 352° | 15km/h | 28068m | -22.6m/s | -47.4°C | 0.4% | 17hPa | 2.6V | 08:27:56 | 02:04:12 | 00:00:00 | |
| DK7TD | 2026-09-01 00:33:29 | 48.80555 | 10.38532 | 47° | 11km/h | 28156m | -23m/s | -47°C | 0.3% | 16.7hPa | 2.6V | 08:27:56 | 02:04:08 | 00:00:00 | |
| HSKMA3-T | 2026-09-01 00:33:25 | 48.80550 | 10.38513 | 80° | 16km/h | 28249m | -24.7m/s | -47.2°C | 0.4% | 16.5hPa | 2.5V | 08:28:47 | 02:04:04 | 00:00:00 | |
| DO3MHA-12 | 2026-09-01 00:33:25 | 48.80550 | 10.38513 | 80° | 11km/h | 28249m | -24.6m/s | -47.1°C | 3.5% | 16.4hPa | 2.6V | 00:00:00 | 02:04:04 | 00:00:00 | |
| DL1NUX | 2026-09-01 00:33:24 | 48.80549 | 10.38500 | 77° | 16km/h | 28295m | -22m/s | -47.2°C | 3.5% | 16.4hPa | 2.6V | 08:28:00 | 02:04:02 | 00:00:00 | |
| DK5PH-5 | 2026-09-01 00:33:24 | 48.80549 | 10.38506 | 79° | 11km/h | 28273m | -22.3m/s | -47.2°C | 3.5% | 16.4hPa | 2.6V | 00:00:00 | 02:04:03 | 00:00:00 | |
| DL1XH1-15 | 2026-09-01 00:33:23 | 48.80548 | 10.38495 | 71° | 13km/h | 28317m | -23.2m/s | -47.3°C | 3.5% | 16.3hPa | 2.5V | 08:28:01 | 02:04:01 | 00:00:00 | |
| DL1XH-west | 2026-09-01 00:33:22 | 48.80548 | 10.38495 | 71° | 13km/h | 28317m | -23.2m/s | -47.3°C | 0.4% | 16.3hPa | 2.5V | 08:28:47 | 02:04:01 | 00:00:00 | |
| BIOWL1-15 | 2026-09-01 00:33:21 | 48.80547 | 10.38491 | 60° | 11km/h | 28340m | -22.3m/s | -47.3°C | 0.4% | 16.2hPa | 2.5V | 18:12:15 | 02:04:00 | 00:00:00 | |
| DK7TD | 2026-09-01 00:33:19 | 48.80544 | 10.38486 | 39° | 7km/h | 28384m | -22.3m/s | -47.3°C | 0.4% | 16.1hPa | 2.6V | 08:28:47 | 02:03:58 | 00:00:00 | |
| DF3TZ-5 | 2026-09-01 00:33:19 | 48.80543 | 10.38484 | 16° | 4km/h | 28406m | -22.3m/s | -47.2°C | 0.9% | 16.1hPa | 2.6V | 00:00:00 | 00:00:00 | 00:00:00 | |
| OE5MMP-10 | 2026-09-01 00:33:18 | 48.80543 | 10.38484 | 17° | 11km/h | 28406m | -22.3m/s | -47.2°C | 3.6% | 16.0hPa | 2.6V | 08:28:00 | 02:03:57 | 00:00:00 | |
| DG9SBQ-11 | 2026-09-01 00:33:17 | 48.80542 | 10.38484 | 2° | 5km/h | 28429m | -23.3m/s | -47.2°C | 0.9% | 16.1hPa | 2.5V | 08:28:00 | 00:00:00 | 00:00:00 | |
| DO9HM | 2026-09-01 00:33:16 | 48.80540 | 10.38484 | 8° | 5km/h | 28452m | -24.2m/s | -47.2°C | 0.9% | 16.0hPa | 2.5V | 08:28:00 | 00:00:00 | 00:00:00 | |
| DO3MHA-12 | 2026-09-01 00:33:15 | 48.80539 | 10.38484 | 17° | 16km/h | 28477m | -24.0m/s | -47.2°C | 3.6% | 15.9hPa | 2.5V | 00:00:00 | 02:03:54 | 00:00:00 | |
| HSKMA3-T | 2026-09-01 00:33:15 | 48.80539 | 10.38484 | 16° | 5km/h | 28476m | -24.1m/s | -47.2°C | 0.4% | 15.9hPa | 2.5V | 08:28:47 | 02:03:54 | 00:00:00 | |
| DL1XH1-15 | 2026-09-01 00:33:13 | 48.80534 | 10.38477 | 62° | 15km/h | 28547m | -24.4m/s | -47.2°C | 3.5% | 15.8hPa | 2.5V | 08:28:11 | 02:03:51 | 00:00:00 | |
| DL1XH-west | 2026-09-01 00:33:11 | 48.80532 | 10.38471 | 71° | 16km/h | 28571m | -23.8m/s | -47.2°C | 0.5% | 15.7hPa | 2.5V | 08:28:47 | 02:03:50 | 00:00:00 | |
| DK7TD | 2026-09-01 00:33:08 | 48.80533 | 10.38449 | 112° | 22km/h | 28639m | -22.3m/s | -47.2°C | 0.5% | 15.5hPa | 2.6V | 08:28:47 | 02:03:47 | 00:00:00 | |
| HSKMA3-T | 2026-09-01 00:33:04 | 48.80546 | 10.38431 | 165° | 15km/h | 28734m | -26.1m/s | -46.6°C | 0.4% | 15.3hPa | 2.6V | 08:28:47 | 02:03:43 | 00:00:00 | |
| DL1XH-west | 2026-09-01 00:33:01 | 48.80553 | 10.38429 | 165° | 4km/h | 28810m | -23.3m/s | -46.2°C | 0.3% | 15.2hPa | 2.5V | 08:28:47 | 02:03:40 | 00:00:00 | |
| AM1SDL-15 | 2026-09-01 00:33:00 | 48.80553 | 10.38428 | 42° | 5km/h | 28833m | -23.4m/s | -46.1°C | 3.4% | 15.1hPa | 2.5V | 00:00:00 | 02:03:39 | 00:00:00 | |
| DG9SBQ-11 | 2026-09-01 00:32:59 | 48.80553 | 10.38428 | 42° | 4km/h | 28833m | -23.4m/s | -46.1°C | 0.9% | 15.1hPa | 2.5V | 08:28:00 | 00:00:00 | 00:00:00 | |
| DM0DOS-11 | 2026-09-01 00:32:58 | 48.80544 | 10.38422 | 7° | 2km/h | 28979m | -25.8m/s | -45.6°C | 3.3% | 14.8hPa | 2.5V | 08:28:29 | 02:03:33 | 00:00:00 | |
| DK7TD | 2026-09-01 00:32:57 | 48.80548 | 10.38424 | 26° | 9km/h | 28903m | -23.8m/s | -45.8°C | 0.2% | 14.9hPa | 2.6V | 08:28:47 | 02:03:36 | 00:00:00 | |
| HSKMA3-T | 2026-09-01 00:32:54 | 48.80544 | 10.38421 | 194° | 0km/h | 29005m | -25.3m/s | -45.6°C | 0.3% | 14.7hPa | 2.5V | 08:28:47 | 02:03:32 | 00:00:00 | |
| DL1XH-west | 2026-09-01 00:32:50 | 48.80546 | 10.38419 | 123° | 5km/h | 29080m | -24.3m/s | -45.6°C | 0.2% | 14.6hPa | 2.6V | 08:28:47 | 02:03:29 | 00:00:00 | |
| PG1ADW-2 | 2026-09-01 00:32:50 | 48.80545 | 10.38419 | 124° | 15km/h | 29080m | -24.2m/s | -45.5°C | 3.3% | 14.5hPa | 2.5V | 00:00:00 | 00:00:00 | 00:00:00 | |
| DN1GJH-1 | 2026-09-01 00:32:49 | 48.80545 | 10.38419 | 124° | 5km/h | 29080m | -24.3m/s | -45.6°C | 0.9% | 14.5hPa | 2.5V | 00:00:00 | 00:00:00 | 00:00:00 | |
| DM0DOS-11 | 2026-09-01 00:32:48 | 48.80547 | 10.38402 | 83° | 7km/h | 29229m | -24.8m/s | -45.4°C | 3.2% | 14.2hPa | 2.5V | 08:28:39 | 02:03:23 | 00:00:00 | |
| DF8AY | 2026-09-01 00:32:47 | 48.80547 | 10.38397 | 127° | 2km/h | 29303m | -24.8m/s | -45.1°C | 0.2% | 14.1hPa | 2.6V | 08:29:38 | 02:03:20 | 00:00:00 | |
| DK7TD | 2026-09-01 00:32:46 | 48.80547 | 10.38408 | 84° | 9km/h | 29177m | -25.4m/s | -45.4°C | 0.2% | 14.3hPa | 2.6V | 08:28:47 | 02:03:25 | 00:00:00 | |
| HSKMA3-T | 2026-09-01 00:32:43 | 48.80547 | 10.38399 | 83° | 5km/h | 29254m | -24.6m/s | -45.3°C | 0.2% | 14.2hPa | 2.5V | 08:28:47 | 02:03:22 | 00:00:00 | |
| DL1XH-west | 2026-09-01 00:32:40 | 48.80548 | 10.38397 | 153° | 2km/h | 29327m | -23.7m/s | -44.9°C | 0.2% | 14hPa | 2.6V | 08:28:47 | 02:03:19 | 00:00:00 | |
| OE5DXL-15 | 2026-09-01 00:32:39 | 48.80548 | 10.38396 | 149° | 13km/h | 29352m | -25.4m/s | -44.7°C | 3.1% | 13.9hPa | 2.5V | 00:00:00 | 00:00:00 | 00:00:00 | |
| DM0DOS-11 | 2026-09-01 00:32:38 | 48.80554 | 10.38377 | 114° | 20km/h | 29474m | -23.6m/s | -44.6°C | 3.1% | 13.7hPa | 2.5V | 08:28:49 | 02:03:13 | 00:00:00 | |
| DB0UT-7 | 2026-09-01 00:32:38 | 48.80549 | 10.38395 | 119° | 11km/h | 29377m | -25.3m/s | -44.7°C | 3.1% | 13.8hPa | 2.5V | 00:00:00 | 02:03:17 | 00:00:00 | |
| DL1XH1-15 | 2026-09-01 00:32:37 | 48.80560 | 10.38362 | 123° | 24km/h | 29522m | -24.9m/s | -44.6°C | 3.1% | 13.6hPa | 2.5V | 08:28:51 | 02:03:11 | 00:00:00 | |
| DK7TD | 2026-09-01 00:32:36 | 48.80551 | 10.38388 | 109° | 13km/h | 29427m | -25m/s | -44.7°C | 0.1% | 13.8hPa | 2.6V | 08:28:47 | 02:03:15 | 00:00:00 | |
| HSKMA3-T | 2026-09-01 00:32:33 | 48.80557 | 10.38370 | 122° | 24km/h | 29498m | -24.3m/s | -44.6°C | 0.1% | 13.6hPa | 2.5V | 08:29:38 | 02:03:12 | 00:00:00 | |
| DF8AY | 2026-09-01 00:32:30 | 48.80568 | 10.38348 | 137° | 22km/h | 29573m | -27.1m/s | -44.6°C | 0.1% | 13.5hPa | 2.6V | 08:29:38 | 02:03:09 | 00:00:00 | |
| DL1XH-west | 2026-09-01 00:32:30 | 48.80579 | 10.38332 | 138° | 15km/h | 29648m | -22.6m/s | -44.5°C | 0.1% | 13.3hPa | 2.5V | 08:29:38 | 02:03:06 | 00:00:00 | |
| DK7TD | 2026-09-01 00:32:27 | 48.80581 | 10.38329 | 135° | 13km/h | 29672m | -24.7m/s | -44.5°C | 0.1% | 13.3hPa | 2.6V | 08:29:38 | 02:03:05 | 00:00:00 | |
| DO3MHA-12 | 2026-09-01 00:32:27 | 48.80583 | 10.38325 | 125° | 11km/h | 29697m | -25.3m/s | -44.6°C | 3.1% | 13.2hPa | 2.5V | 00:00:00 | 02:03:04 | 00:00:00 | |
| DK5PH-5 | 2026-09-01 00:32:24 | 48.80584 | 10.38322 | 113° | 13km/h | 29723m | -26.6m/s | -44.7°C | 3.1% | 13.1hPa | 2.5V | 00:00:00 | 02:03:03 | 00:00:00 | |
| DL1XH1-15 | 2026-09-01 00:32:23 | 48.80585 | 10.38317 | 87° | 7km/h | 29779m | -33.8m/s | -44.8°C | 3.1% | 13.1hPa | 2.5V | 08:29:01 | 02:03:01 | 00:00:00 | |
| HSKMA3-T | 2026-09-01 00:32:22 | 48.80585 | 10.38317 | 87° | 7km/h | 29779m | -33.8m/s | -44.8°C | 0.1% | 13.1hPa | 2.5V | 08:29:38 | 02:03:01 | 00:00:00 | |
| DF8AY | 2026-09-01 00:32:20 | 48.80584 | 10.38311 | 60° | 9km/h | 29847m | -32.8m/s | -44.8°C | 0.2% | 13hPa | 2.6V | 08:29:38 | 02:02:59 | 00:00:00 | |
| DL1XH-west | 2026-09-01 00:32:19 | 48.80583 | 10.38307 | 54° | 11km/h | 29879m | -31.5m/s | -44.7°C | 0.2% | 12.9hPa | 2.5V | 08:29:38 | 02:02:58 | 00:00:00 | |
| DK7TD | 2026-09-01 00:32:15 | 48.80574 | 10.38291 | 54° | 15km/h | 29998m | -27.5m/s | -44.7°C | 0.2% | 12.7hPa | 2.6V | 08:29:38 | 02:02:54 | 00:00:00 | |
| DM0DOS-11 | 2026-09-01 00:32:15 | 48.80572 | 10.38286 | 64° | 15km/h | 30027m | -29.6m/s | -44.6°C | 3.2% | 12.6hPa | 2.5V | 08:29:09 | 02:02:53 | 00:00:00 | |
| DO3MHA-12 | 2026-09-01 00:32:15 | 48.80574 | 10.38290 | 55° | 11km/h | 29999m | -27.5m/s | -44.6°C | 3.2% | 12.6hPa | 2.6V | 00:00:00 | 02:02:54 | 00:00:00 | |
| DL1XH1-15 | 2026-09-01 00:32:14 | 48.80570 | 10.38277 | 72° | 13km/h | 30081m | -24.9m/s | -44.6°C | 3.2% | 12.5hPa | 2.5V | 08:29:11 | 02:02:51 | 00:00:00 | |
| HSKMA3-T | 2026-09-01 00:32:12 | 48.80569 | 10.38272 | 78° | 11km/h | 30106m | -26.3m/s | -44.6°C | 0.2% | 12.5hPa | 2.6V | 08:29:38 | 02:02:50 | 00:00:00 | |
| BIOWL1-15 | 2026-09-01 00:32:11 | 48.80569 | 10.38265 | 99° | 9km/h | 30157m | -25.8m/s | -44.6°C | 0.2% | 12.3hPa | 2.5V | 18:12:15 | 02:02:48 | 00:00:00 | |
| DF8AY | 2026-09-01 00:32:11 | 48.80569 | 10.38269 | 93° | 9km/h | 30131m | -24.2m/s | -44.6°C | 0.3% | 12.4hPa | 2.6V | 08:29:38 | 02:02:49 | 00:00:00 | |
| DL1XH-west | 2026-09-01 00:32:08 | 48.80569 | 10.38262 | 93° | 9km/h | 30182m | -25.2m/s | -44.6°C | 0.2% | 12.3hPa | 2.5V | 08:29:38 | 02:02:47 | 00:00:00 | |
| DK7TD | 2026-09-01 00:32:04 | 48.80567 | 10.38243 | 74° | 18km/h | 30284m | -25.4m/s | -44.2°C | 0.2% | 12.1hPa | 2.5V | 08:29:38 | 02:02:43 | 00:00:00 | |
| HSKMA3-T | 2026-09-01 00:32:01 | 48.80564 | 10.38219 | 82° | 24km/h | 30360m | -27.2m/s | -43.9°C | 0.1% | 12hPa | 2.5V | 08:29:38 | 02:02:40 | 00:00:00 | |
| DF8AY | 2026-09-01 00:32:00 | 48.80561 | 10.38201 | 72° | 22km/h | 30417m | -28m/s | -43.6°C | 0.2% | 11.9hPa | 2.6V | 08:29:38 | 02:02:38 | 00:00:00 | |
| DL1XH-west | 2026-09-01 00:31:57 | 48.80557 | 10.38185 | 64° | 22km/h | 30472m | -25.6m/s | -43.5°C | 0.1% | 11.8hPa | 2.5V | 08:29:38 | 02:02:36 | 00:00:00 | |
| DK7TD | 2026-09-01 00:31:54 | 48.80550 | 10.38163 | 71° | 22km/h | 30547m | -27.7m/s | -42.9°C | 0% | 11.7hPa | 2.5V | 08:29:38 | 02:02:33 | 00:00:00 | |
| HSKMA3-T | 2026-09-01 00:31:51 | 48.80552 | 10.38132 | 113° | 37km/h | 30630m | -29.2m/s | -42.2°C | 0% | 11.6hPa | 2.5V | 08:29:38 | 02:02:30 | 00:00:00 | |
| DF8AY | 2026-09-01 00:31:48 | 48.80566 | 10.38093 | 120° | 37km/h | 30718m | -29.1m/s | -42.1°C | 0% | 11.4hPa | 2.6V | 08:29:38 | 02:02:27 | 00:00:00 | |
| DL1XH-west | 2026-09-01 00:31:46 | 48.80574 | 10.38071 | 117° | 27km/h | 30775m | -27.4m/s | -42.1°C | 0% | 11.2hPa | 2.5V | 08:29:38 | 02:02:25 | 00:00:00 | |
| DK7TD | 2026-09-01 00:31:44 | 48.80576 | 10.38057 | 81° | 15km/h | 30830m | -27.2m/s | -42°C | 0% | 11.2hPa | 2.5V | 18:12:15 | 02:02:23 | 00:00:00 | |
| HSKMA3-T | 2026-09-01 00:31:40 | 48.80569 | 10.38028 | 84° | 27km/h | 30945m | -28.4m/s | -41.8°C | 0% | 11hPa | 2.5V | 18:12:15 | 02:02:19 | 00:00:00 | |
| DF8AY | 2026-09-01 00:31:37 | 48.80572 | 10.37992 | 109° | 35km/h | 31029m | -28.6m/s | -41.9°C | 0% | 10.8hPa | 2.6V | 18:12:15 | 02:02:16 | 00:00:00 | |
| BIOWL1-15 | 2026-09-01 00:31:36 | 48.80575 | 10.37980 | 118° | 31km/h | 31057m | -28.3m/s | -41.9°C | 0% | 10.8hPa | 2.5V | 18:12:15 | 02:02:15 | 00:00:00 | |
| DL1XH-west | 2026-09-01 00:31:35 | 48.80579 | 10.37971 | 122° | 26km/h | 31085m | -28.3m/s | -41.9°C | 0% | 10.8hPa | 2.5V | 18:12:15 | 02:02:14 | 00:00:00 | |
| DK7TD | 2026-09-01 00:31:34 | 48.80582 | 10.37964 | 126° | 16km/h | 31114m | -28.4m/s | -41.9°C | 0% | 10.7hPa | 2.5V | 18:12:15 | 02:02:13 | 00:00:00 | |
| DL1XH1-15 | 2026-09-01 00:31:33 | 48.80584 | 10.37957 | 85° | 7km/h | 31169m | -27.4m/s | -42°C | 2.8% | 10.6hPa | 2.6V | 08:30:00 | 02:02:11 | 00:00:00 | |
| HSKMA3-T | 2026-09-01 00:31:30 | 48.80582 | 10.37951 | 64° | 11km/h | 31227m | -31m/s | -42.2°C | 0% | 10.6hPa | 2.5V | 18:12:15 | 02:02:09 | 00:00:00 | |
| DF8AY | 2026-09-01 00:31:26 | 48.80587 | 10.37922 | 122° | 33km/h | 31345m | -26.1m/s | -42.2°C | 0% | 10.4hPa | 2.6V | 18:12:15 | 02:02:05 | 00:00:00 | |
| BIOWL1-15 | 2026-09-01 00:31:25 | 48.80604 | 10.37889 | 133° | 38km/h | 31424m | -29.7m/s | -42°C | 0% | 10.2hPa | 2.5V | 18:12:15 | 02:02:02 | 00:00:00 | |
| DL1XH-west | 2026-09-01 00:31:25 | 48.80592 | 10.37911 | 126° | 38km/h | 31371m | -25.4m/s | -42.1°C | 0% | 10.3hPa | 2.6V | 18:12:15 | 02:02:04 | 00:00:00 | |
| DK7TD | 2026-09-01 00:31:24 | 48.80598 | 10.37900 | 129° | 38km/h | 31396m | -26.3m/s | -42.1°C | 0% | 10.2hPa | 2.5V | 18:12:15 | 02:02:03 | 00:00:00 | |
| DL1XH1-15 | 2026-09-01 00:31:23 | 48.80610 | 10.37879 | 131° | 31km/h | 31454m | -29.6m/s | -41.8°C | 2.9% | 10.2hPa | 2.5V | 08:30:00 | 02:02:01 | 00:00:00 | |
| HSKMA3-T | 2026-09-01 00:31:20 | 48.80618 | 10.37867 | 143° | 11km/h | 31516m | -32.9m/s | -41.2°C | 0% | 10.1hPa | 2.6V | 18:12:15 | 02:01:59 | 00:00:00 | |
| DL1XH-west | 2026-09-01 00:31:15 | 48.80628 | 10.37873 | 188° | 20km/h | 31675m | -30m/s | -40.7°C | 0% | 9.8hPa | 2.6V | 18:12:15 | 02:01:54 | 00:00:00 | |
| DK7TD | 2026-09-01 00:31:13 | 48.80641 | 10.37871 | 170° | 35km/h | 31735m | -30.3m/s | -40.3°C | 0% | 9.8hPa | 2.5V | 18:12:15 | 02:01:52 | 00:00:00 | |
| DL1XH1-15 | 2026-09-01 00:31:13 | 48.80651 | 10.37868 | 165° | 38km/h | 31766m | -31.3m/s | -40.1°C | 2.6% | 9.7hPa | 2.5V | 08:30:00 | 02:01:51 | 00:00:00 | |
| HSKMA3-T | 2026-09-01 00:31:09 | 48.80674 | 10.37860 | 176° | 18km/h | 31858m | -29.9m/s | -40°C | 0% | 9.6hPa | 2.6V | 18:12:15 | 02:01:48 | 00:00:00 | |
| DF8AY | 2026-09-01 00:31:05 | 48.80674 | 10.37874 | 304° | 18km/h | 31975m | -31.2m/s | -40.1°C | 0% | 9.4hPa | 2.6V | 18:12:15 | 02:01:44 | 00:00:00 | |
| DL1XH-west | 2026-09-01 00:31:04 | 48.80672 | 10.37879 | 292° | 11km/h | 32008m | -35.7m/s | -40.1°C | 0% | 9.4hPa | 2.6V | 18:12:15 | 02:01:43 | 00:00:00 | |
| BIOWL1-15 | 2026-09-01 00:31:03 | 48.80684 | 10.37871 | 143° | 27km/h | 32154m | -36.9m/s | -39.9°C | 0% | 9.2hPa | 2.5V | 18:12:15 | 02:01:39 | 00:00:00 | |
| DL1XH1-15 | 2026-09-01 00:31:03 | 48.80674 | 10.37880 | 155° | 15km/h | 32079m | -36.6m/s | -40.1°C | 2.5% | 9.3hPa | 2.5V | 08:30:00 | 02:01:41 | 00:00:00 | |
| DK7TD | 2026-09-01 00:31:03 | 48.80672 | 10.37881 | 219° | 5km/h | 32044m | -34.9m/s | -40.1°C | 0% | 9.3hPa | 2.5V | 18:12:15 | 02:01:42 | 00:00:00 | |
| DL1NUX | 2026-09-01 00:31:02 | 48.80696 | 10.37855 | 138° | 15km/h | 32251m | -25.6m/s | -40.3°C | 2.5% | 9hPa | 2.6V | 08:30:00 | 02:01:36 | 00:00:00 | |
| HSKMA3-T | 2026-09-01 00:30:58 | 48.80693 | 10.37859 | 139° | 20km/h | 32223m | -31.3m/s | -40.1°C | 0% | 9.1hPa | 2.6V | 18:12:15 | 02:01:37 | 00:00:00 | |
| DF8AY | 2026-09-01 00:30:55 | 48.80695 | 10.37855 | 327° | 9km/h | 32296m | -16.3m/s | -40.5°C | 0% | 8.9hPa | 2.5V | 18:12:15 | 02:01:34 | 00:00:00 | |
| DL1XH-west | 2026-09-01 00:30:53 | 48.80691 | 10.37859 | 329° | 9km/h | 32310m | 2.8m/s | -40.5°C | 0% | 8.9hPa | 2.5V | 18:12:15 | 02:01:32 | 00:00:00 | |
| DK7TD | 2026-09-01 00:30:52 | 48.80689 | 10.37861 | 334° | 13km/h | 32305m | 8m/s | -40.5°C | 0% | 8.9hPa | 2.6V | 18:12:15 | 02:01:31 | 00:00:00 | |
| DL1NUX | 2026-09-01 00:30:52 | 48.80684 | 10.37863 | 11° | 4km/h | 32273m | 5.6m/s | -40.4°C | 2.6% | 9hPa | 2.7V | 08:30:00 | 02:01:26 | 00:00:00 | |
| HSKMA3-T | 2026-09-01 00:30:47 | 48.80684 | 10.37863 | 12° | 4km/h | 32274m | 5.6m/s | -40.5°C | 0% | 9hPa | 2.7V | 18:12:15 | 02:01:26 | 00:00:00 | |
| DF8AY | 2026-09-01 00:30:46 | 48.80680 | 10.37865 | 326° | 7km/h | 32255m | 5m/s | -40.3°C | 0% | 9hPa | 2.6V | 18:12:15 | 02:01:23 | 00:00:00 | |
| DL1XH-west | 2026-09-01 00:30:43 | 48.80678 | 10.37867 | 310° | 5km/h | 32250m | 4.8m/s | -40.3°C | 0% | 9hPa | 2.6V | 18:12:15 | 02:01:22 | 00:00:00 | |
| DM0DOS-11 | 2026-09-01 00:30:42 | 48.80685 | 10.37869 | 188° | 7km/h | 32220m | 5.4m/s | -40.2°C | 2.5% | 9hPa | 2.6V | 08:30:00 | 02:01:17 | 00:00:00 | |
| DK7TD | 2026-09-01 00:30:42 | 48.80678 | 10.37869 | 260° | 4km/h | 32244m | 6.4m/s | -40.3°C | 0% | 9hPa | 2.6V | 18:12:15 | 02:01:21 | 00:00:00 | |
| HSKMA3-T | 2026-09-01 00:30:36 | 48.80687 | 10.37872 | 296° | 5km/h | 32207m | 6m/s | -40.2°C | 0% | 9.1hPa | 2.7V | 18:12:15 | 02:01:15 | 00:00:00 | |
| DF8AY | 2026-09-01 00:30:34 | 48.80684 | 10.37877 | 323° | 9km/h | 32197m | 5.2m/s | -40.2°C | 0% | 9.1hPa | 2.6V | 18:12:15 | 02:01:13 | 00:00:00 | |
| DL1XH1-15 | 2026-09-01 00:30:33 | 48.80682 | 10.37879 | 352° | 2km/h | 32184m | 6.6m/s | -40.3°C | 2.5% | 9.1hPa | 2.6V | 08:30:00 | 02:01:11 | 00:00:00 | |
| DL1XH-west | 2026-09-01 00:30:33 | 48.80682 | 10.37878 | 329° | 7km/h | 32191m | 6.4m/s | -40.3°C | 0% | 9.1hPa | 2.6V | 18:12:15 | 02:01:12 | 00:00:00 | |
| BIOWL1-15 | 2026-09-01 00:30:32 | 48.80682 | 10.37879 | 353° | 2km/h | 32184m | 6.6m/s | -40.3°C | 0% | 9.1hPa | 2.6V | 18:12:15 | 02:01:11 | 00:00:00 | |
| HSKMA3-T | 2026-09-01 00:30:26 | 48.80685 | 10.37884 | 274° | 13km/h | 32148m | 6.2m/s | -40.5°C | 0% | 9.1hPa | 2.6V | 18:12:15 | 02:01:05 | 00:00:00 | |
| DF8AY | 2026-09-01 00:30:24 | 48.80685 | 10.37895 | 265° | 15km/h | 32137m | 5.7m/s | -40.6°C | 0% | 9.1hPa | 2.7V | 18:12:15 | 02:01:03 | 00:00:00 | |
| BIOWL1-15 | 2026-09-01 00:30:24 | 48.80716 | 10.37918 | 222° | 13km/h | 32038m | 5.4m/s | -40.6°C | 0% | 9.3hPa | 2.6V | 18:12:15 | 02:00:46 | 00:00:00 | |
| DL1XH1-15 | 2026-09-01 00:30:23 | 48.80687 | 10.37904 | 220° | 9km/h | 32125m | 6m/s | -40.7°C | 2.6% | 9.2hPa | 2.6V | 08:30:00 | 02:01:01 | 00:00:00 | |
| DL1XH-west | 2026-09-01 00:30:23 | 48.80686 | 10.37900 | 249° | 13km/h | 32131m | 6.6m/s | -40.7°C | 0% | 9.2hPa | 2.6V | 18:12:15 | 02:01:02 | 00:00:00 | |
| DK7TD | 2026-09-01 00:30:21 | 48.80689 | 10.37905 | 195° | 9km/h | 32119m | 5.2m/s | -40.7°C | 0% | 9.2hPa | 2.6V | 18:12:15 | 02:01:00 | 00:00:00 | |
| DJ2DS-15 | 2026-09-01 00:30:21 | 48.80689 | 10.37905 | 195° | 11km/h | 32120m | 5.2m/s | -40.7°C | 2.6% | 9.1hPa | 2.6V | 00:00:00 | 02:01:00 | 00:00:00 | |
| DF1GD-15 | 2026-09-01 00:30:20 | 48.80692 | 10.37906 | 180° | 7km/h | 32115m | 4.9m/s | -40.7°C | 0.7% | 9.2hPa | 2.6V | 00:00:00 | 00:00:00 | 00:00:00 | |
| EDDB2-11 | 2026-09-01 00:30:19 | 48.80694 | 10.37906 | 189° | 0km/h | 32102m | 7.1m/s | -40.7°C | 0.7% | 9.2hPa | 2.6V | 00:00:00 | 00:00:00 | 00:00:00 | |
| DL1XH1-15 | 2026-09-01 00:30:18 | 48.80698 | 10.37911 | 181° | 15km/h | 32066m | 5.3m/s | -40.6°C | 2.6% | 9.2hPa | 2.6V | 08:30:00 | 02:00:51 | 00:00:00 | |
| HSKMA3-T | 2026-09-01 00:30:15 | 48.80693 | 10.37909 | 272° | 4km/h | 32085m | 5.1m/s | -40.7°C | 0% | 9.2hPa | 2.6V | 18:12:15 | 02:00:54 | 00:00:00 | |
| DF8AY | 2026-09-01 00:30:13 | 48.80702 | 10.37911 | 183° | 16km/h | 32061m | 4.7m/s | -40.7°C | 0% | 9.3hPa | 2.6V | 18:12:15 | 02:00:50 | 00:00:00 | |
| DL1XH-west | 2026-09-01 00:30:12 | 48.80698 | 10.37911 | 181° | 15km/h | 32066m | 5.4m/s | -40.7°C | 0% | 9.2hPa | 2.6V | 18:12:15 | 02:00:51 | 00:00:00 | |
| DK7TD | 2026-09-01 00:30:10 | 48.80706 | 10.37912 | 189° | 16km/h | 32056m | 5.8m/s | -40.6°C | 0% | 9.3hPa | 2.6V | 18:12:15 | 02:00:49 | 00:00:00 | |
| HSKMA3-T | 2026-09-01 00:30:04 | 48.80725 | 10.37923 | 173° | 16km/h | 32021m | 6.9m/s | -40.6°C | 0% | 9.3hPa | 2.5V | 18:12:15 | 02:00:43 | 00:00:00 | |
| OE5DRO-10 | 2026-09-01 00:30:04 | 48.80725 | 10.37923 | 173° | 18km/h | 32021m | 6.9m/s | -40.6°C | 2.6% | 9.3hPa | 2.5V | 00:00:00 | 00:00:00 | 08:30:00 | |
| DL1XH1-15 | 2026-09-01 00:30:03 | 48.80734 | 10.37918 | 154° | 22km/h | 32008m | 5.4m/s | -40.6°C | 2.7% | 9.3hPa | 2.6V | 08:30:00 | 02:00:41 | 00:00:00 | |
| DF8AY | 2026-09-01 00:30:02 | 48.80734 | 10.37918 | 154° | 22km/h | 32009m | 5.4m/s | -40.6°C | 0% | 9.3hPa | 2.6V | 18:12:15 | 02:00:41 | 00:00:00 | |
| DL1XH-west | 2026-09-01 00:30:02 | 48.80739 | 10.37914 | 152° | 20km/h | 32003m | 5.5m/s | -40.6°C | 0% | 9.3hPa | 2.6V | 18:12:15 | 02:00:40 | 00:00:00 | |
| DK7TD | 2026-09-01 00:30:00 | 48.80743 | 10.37911 | 152° | 16km/h | 31997m | 6.8m/s | -40.6°C | 0% | 9.3hPa | 2.6V | 18:12:15 | 02:00:39 | 00:00:00 | |
| BIOWL1-15 | 2026-09-01 00:29:57 | 48.80794 | 10.37913 | 170° | 16km/h | 31926m | 5.1m/s | -40.4°C | 0% | 9.4hPa | 2.6V | 18:12:15 | 02:00:27 | 00:00:00 | |
| HSKMA3-T | 2026-09-01 00:29:54 | 48.80767 | 10.37909 | 186° | 24km/h | 31961m | 5.7m/s | -40.5°C | 0% | 9.4hPa | 2.5V | 18:12:15 | 02:00:33 | 00:00:00 | |
| DM0DOS-11 | 2026-09-01 00:29:53 | 48.80791 | 10.37914 | 181° | 13km/h | 31931m | 5m/s | -40.4°C | 2.6% | 9.4hPa | 2.6V | 08:30:00 | 02:00:28 | 00:00:00 | |
| DF8AY | 2026-09-01 00:29:51 | 48.80791 | 10.37914 | 181° | 13km/h | 31931m | 5m/s | -40.4°C | 0% | 9.4hPa | 2.6V | 18:12:15 | 02:00:28 | 00:00:00 | |
| DL1NUX | 2026-09-01 00:29:51 | 48.80804 | 10.37909 | 159° | 26km/h | 31913m | 6.7m/s | -40.4°C | 2.6% | 9.5hPa | 2.6V | 08:30:00 | 02:00:25 | 00:00:00 | |
| DL1XH-west | 2026-09-01 00:29:51 | 48.80783 | 10.37912 | 190° | 18km/h | 31943m | 7m/s | -40.4°C | 0% | 9.4hPa | 2.6V | 18:12:15 | 02:00:30 | 00:00:00 | |
| DK7TD | 2026-09-01 00:29:50 | 48.80787 | 10.37913 | 190° | 15km/h | 31937m | 5.9m/s | -40.4°C | 0% | 9.4hPa | 2.7V | 18:12:15 | 02:00:29 | 00:00:00 | |
| BIOWL1-15 | 2026-09-01 00:29:47 | 48.80799 | 10.37912 | 163° | 20km/h | 31920m | 6.8m/s | -40.4°C | 0% | 9.4hPa | 2.5V | 18:12:15 | 02:00:26 | 00:00:00 | |
| DF8AY | 2026-09-01 00:29:46 | 48.80835 | 10.37895 | 186° | 15km/h | 31885m | 6.2m/s | -40.3°C | 0% | 9.5hPa | 2.6V | 18:12:15 | 02:00:20 | 00:00:00 | |
| DB0NH | 2026-09-01 00:29:46 | 48.80804 | 10.37909 | 160° | 20km/h | 31914m | 6.6m/s | -40.3°C | 2.6% | 9.4hPa | 2.6V | 00:00:00 | 02:00:25 | 00:00:00 | |
| DO3MHA-12 | 2026-09-01 00:29:45 | 48.80811 | 10.37905 | 159° | 20km/h | 31908m | 5.2m/s | -40.3°C | 2.6% | 9.4hPa | 2.6V | 00:00:00 | 02:00:24 | 08:30:00 | |
| DN1GJH-1 | 2026-09-01 00:29:44 | 48.80811 | 10.37905 | 159° | 29km/h | 31908m | 5.2m/s | -40.4°C | 0.7% | 9.5hPa | 2.6V | 00:00:00 | 00:00:00 | 00:00:00 | |
| DM0DOS-11 | 2026-09-01 00:29:43 | 48.80841 | 10.37899 | 217° | 15km/h | 31873m | 5.7m/s | -40.3°C | 2.5% | 9.5hPa | 2.6V | 08:30:00 | 02:00:18 | 00:00:00 | |
| DL1XH1-15 | 2026-09-01 00:29:43 | 48.80830 | 10.37895 | 169° | 20km/h | 31892m | 6.6m/s | -40.3°C | 2.5% | 9.5hPa | 2.6V | 08:30:00 | 02:00:21 | 00:00:00 | |
| HSKMA3-T | 2026-09-01 00:29:43 | 48.80824 | 10.37897 | 163° | 26km/h | 31898m | 5.5m/s | -40.4°C | 0% | 9.5hPa | 2.7V | 18:12:15 | 02:00:22 | 00:00:00 | |
| DL1NUX | 2026-09-01 00:29:41 | 48.80853 | 10.37909 | 198° | 22km/h | 31855m | 5.3m/s | -40.3°C | 2.5% | 9.6hPa | 2.6V | 08:30:00 | 02:00:15 | 00:00:00 | |
| DK7TD | 2026-09-01 00:29:40 | 48.80838 | 10.37896 | 209° | 13km/h | 31879m | 5.9m/s | -40.3°C | 0% | 9.5hPa | 2.6V | 18:12:15 | 02:00:19 | 00:00:00 | |
| BIOWL1-15 | 2026-09-01 00:29:37 | 48.80853 | 10.37909 | 199° | 22km/h | 31855m | 5.3m/s | -40.3°C | 0% | 9.6hPa | 2.6V | 18:12:15 | 02:00:15 | 00:00:00 | |
| DO3MHA-11 | 2026-09-01 00:29:37 | 48.80848 | 10.37906 | 207° | 18km/h | 31861m | 6.3m/s | -40.2°C | 2.5% | 9.5hPa | 2.6V | 00:00:00 | 02:00:16 | 00:00:00 | |
| SONCRA | 2026-09-01 00:29:36 | 48.80853 | 10.37909 | 198° | 20km/h | 31855m | 5.3m/s | -40.3°C | 0.7% | 9.6hPa | 2.6V | 00:00:00 | 00:00:00 | 00:00:00 | |
| DL1ZP-14 | 2026-09-01 00:29:35 | 48.80863 | 10.37913 | 187° | 18km/h | 31844m | 6.1m/s | -40.3°C | 0.6% | 9.6hPa | 2.6V | 00:00:00 | 00:00:00 | 00:00:00 | |
| NBG1-10 | 2026-09-01 00:29:34 | 48.80862 | 10.37913 | 188° | 18km/h | 31845m | 6.1m/s | -40.2°C | 2.5% | 9.5hPa | 2.6V | 00:00:00 | 02:00:13 | 00:00:00 | |
| DL1XH1-15 | 2026-09-01 00:29:33 | 48.80870 | 10.37913 | 169° | 13km/h | 31831m | 5.7m/s | -40.2°C | 2.5% | 9.6hPa | 2.7V | 08:30:00 | 02:00:11 | 00:00:00 | |
| DM0DOS-11 | 2026-09-01 00:29:33 | 48.80881 | 10.37907 | 160° | 18km/h | 31814m | 6.3m/s | -40.4°C | 2.5% | 9.6hPa | 2.5V | 08:30:00 | 02:00:08 | 00:00:00 | |
| HSKMA3-T | 2026-09-01 00:29:32 | 48.80870 | 10.37913 | 170° | 13km/h | 31831m | 5.7m/s | -40.3°C | 0% | 9.6hPa | 2.7V | 18:12:15 | 02:00:11 | 00:00:00 | |
| DK7TD | 2026-09-01 00:29:29 | 48.80881 | 10.37907 | 161° | 18km/h | 31814m | 6.3m/s | -40.4°C | 0% | 9.6hPa | 2.5V | 18:12:15 | 02:00:08 | 00:00:00 | |
| BIOWL1-15 | 2026-09-01 00:29:26 | 48.80902 | 10.37914 | 228° | 18km/h | 31785m | 5.6m/s | -40.6°C | 0% | 9.7hPa | 2.6V | 18:12:15 | 02:00:03 | 00:00:00 | |
| OE5DRO-10 | 2026-09-01 00:29:26 | 48.80895 | 10.37906 | 198° | 22km/h | 31798m | 6.3m/s | -40.4°C | 2.5% | 9.6hPa | 2.6V | 00:00:00 | 00:00:00 | 00:00:00 | |
| DO3MHA-12 | 2026-09-01 00:29:25 | 48.80899 | 10.37909 | 216° | 22km/h | 31792m | 6.8m/s | -40.5°C | 2.5% | 9.6hPa | 2.6V | 00:00:00 | 02:00:04 | 00:00:00 | |
| PETON7-10 | 2026-09-01 00:29:24 | 48.80902 | 10.37914 | 229° | 20km/h | 31785m | 5.5m/s | 0°C | 0% | 0hPa | 2.6V | 00:00:00 | 02:00:03 | 00:00:00 | |
| DL1XH1-15 | 2026-09-01 00:29:23 | 48.80910 | 10.37925 | 219° | 24km/h | 31774m | 5.9m/s | -40.7°C | 2.6% | 9.7hPa | 2.6V | 08:30:00 | 02:00:01 | 00:00:00 | |
| DM0DOS-11 | 2026-09-01 00:29:23 | 48.80928 | 10.37936 | 189° | 27km/h | 31756m | 5.4m/s | -40.9°C | 2.6% | 9.7hPa | 2.6V | 08:30:00 | 01:59:58 | 00:00:00 | |
| HSKMA3-T | 2026-09-01 00:29:22 | 48.80910 | 10.37925 | 219° | 24km/h | 31774m | 5.9m/s | -40.7°C | 0% | 9.7hPa | 2.6V | 18:12:15 | 02:00:01 | 00:00:00 | |
| DK5PH-5 | 2026-09-01 00:29:22 | 48.80910 | 10.37925 | 220° | 18km/h | 31775m | 5.8m/s | -40.6°C | 2.6% | 9.6hPa | 2.6V | 00:00:00 | 02:00:01 | 00:00:00 | |
| DL1NUX | 2026-09-01 00:29:21 | 48.80921 | 10.37934 | 197° | 27km/h | 31762m | 5.8m/s | -40.8°C | 2.6% | 9.7hPa | 2.6V | 08:30:00 | 01:59:59 | 00:00:00 | |
| DF8AY | 2026-09-01 00:29:19 | 48.80928 | 10.37936 | 189° | 27km/h | 31756m | 5.4m/s | -40.9°C | 0% | 9.7hPa | 2.6V | 18:12:15 | 01:59:58 | 00:00:00 | |
| DL1XH-west | 2026-09-01 00:29:18 | 48.80934 | 10.37937 | 184° | 24km/h | 31750m | 6m/s | -40.9°C | 0% | 9.7hPa | 2.6V | 18:12:15 | 01:59:57 | 00:00:00 | |
| OE5MMP-10 | 2026-09-01 00:29:18 | 48.80934 | 10.37937 | 184° | 20km/h | 31751m | 6.0m/s | -40.9°C | 2.6% | 9.6hPa | 2.6V | 00:00:00 | 01:59:57 | 00:00:00 | |
| DB0NH | 2026-09-01 00:29:17 | 48.80944 | 10.37938 | 178° | 18km/h | 31739m | 5.6m/s | -40.9°C | 2.6% | 9.7hPa | 2.6V | 00:00:00 | 01:59:55 | 00:00:00 | |
| DO3MHA-12 | 2026-09-01 00:29:15 | 48.80948 | 10.37937 | 180° | 18km/h | 31733m | 4.6m/s | -41.0°C | 2.6% | 9.7hPa | 2.6V | 00:00:00 | 01:59:54 | 00:00:00 | |
| DL1NUX | 2026-09-01 00:29:14 | 48.80972 | 10.37943 | 190° | 24km/h | 31704m | 5.3m/s | -41.1°C | 2.6% | 9.8hPa | 2.6V | 08:30:00 | 01:59:49 | 00:00:00 | |
| HSKMA3-T | 2026-09-01 00:29:12 | 48.80960 | 10.37940 | 190° | 22km/h | 31716m | 6.8m/s | -41.1°C | 0% | 9.8hPa | 2.6V | 18:12:15 | 01:59:51 | 00:00:00 | |
| AA1-15 | 2026-09-01 00:29:11 | 48.80966 | 10.37941 | 190° | 24km/h | 31710m | 6.2m/s | 0°C | 0% | 0hPa | 2.6V | 18:12:15 | 01:59:50 | 00:00:00 | |
| DM0DOS-11 | 2026-09-01 00:29:10 | 48.80978 | 10.37945 | 193° | 22km/h | 31699m | 4.9m/s | -41.1°C | 2.6% | 9.8hPa | 2.6V | 08:30:00 | 01:59:48 | 00:00:00 | |
| DF8AY | 2026-09-01 00:29:09 | 48.80978 | 10.37945 | 194° | 22km/h | 31699m | 4.9m/s | -41.1°C | 0% | 9.8hPa | 2.6V | 18:12:15 | 01:59:48 | 00:00:00 | |
| DK7TD | 2026-09-01 00:29:08 | 48.80983 | 10.37947 | 202° | 18km/h | 31693m | 5.7m/s | -41.1°C | 0% | 9.8hPa | 2.6V | 18:12:15 | 01:59:47 | 00:00:00 | |
| HSKMA3-T | 2026-09-01 00:29:01 | 48.81004 | 10.37955 | 160° | 29km/h | 31653m | 6.7m/s | -41.2°C | 0% | 9.8hPa | 2.6V | 18:12:15 | 01:59:40 | 00:00:00 | |
| DM0DOS-11 | 2026-09-01 00:29:00 | 48.81019 | 10.37944 | 154° | 35km/h | 31642m | 4.6m/s | -41.3°C | 2.7% | 9.9hPa | 2.6V | 08:30:00 | 01:59:38 | 00:00:00 | |
| DK7TD | 2026-09-01 00:28:58 | 48.81026 | 10.37939 | 152° | 29km/h | 31637m | 5.6m/s | -41.3°C | 0% | 9.8hPa | 2.6V | 18:12:15 | 01:59:37 | 00:00:00 | |
| BIOWL1-15 | 2026-09-01 00:28:57 | 48.81036 | 10.37930 | 142° | 13km/h | 31625m | 6m/s | -41.4°C | 0% | 9.9hPa | 2.7V | 18:12:15 | 01:59:35 | 00:00:00 | |
| DL1XH-west | 2026-09-01 00:28:57 | 48.81032 | 10.37934 | 149° | 22km/h | 31631m | 6.2m/s | -41.3°C | 0% | 9.9hPa | 2.6V | 18:12:15 | 01:59:36 | 00:00:00 | |
| DF1GD-15 | 2026-09-01 00:28:56 | 48.81032 | 10.37934 | 150° | 22km/h | 31632m | 6.2m/s | -41.3°C | 0.7% | 9.9hPa | 2.6V | 00:00:00 | 00:00:00 | 00:00:00 | |
| DO3MHA-12 | 2026-09-01 00:28:55 | 48.81037 | 10.37928 | 126° | 15km/h | 31620m | 5.2m/s | -41.3°C | 2.7% | 9.8hPa | 2.6V | 00:00:00 | 01:59:34 | 00:00:00 | |
| DL1NUX | 2026-09-01 00:28:54 | 48.81045 | 10.37921 | 149° | 20km/h | 31591m | 5.6m/s | -41.4°C | 2.7% | 9.9hPa | 2.6V | 08:30:00 | 01:59:29 | 00:00:00 | |
| HSKMA3-T | 2026-09-01 00:28:50 | 48.81045 | 10.37921 | 150° | 20km/h | 31591m | 5.6m/s | -41.4°C | 0% | 9.9hPa | 2.6V | 18:12:15 | 01:59:29 | 00:00:00 | |
| DF8AY | 2026-09-01 00:28:47 | 48.81091 | 10.37871 | 157° | 20km/h | 31538m | 4.9m/s | -41.5°C | 0% | 10hPa | 2.6V | 18:12:15 | 01:59:20 | 00:00:00 | |
| DK7TD | 2026-09-01 00:28:47 | 48.81060 | 10.37904 | 139° | 27km/h | 31574m | 6.5m/s | -41.4°C | 0% | 9.9hPa | 2.6V | 18:12:15 | 01:59:26 | 00:00:00 | |
| DL1XH-west | 2026-09-01 00:28:46 | 48.81066 | 10.37897 | 137° | 26km/h | 31568m | 6.2m/s | -41.4°C | 0% | 10hPa | 2.6V | 18:12:15 | 01:59:25 | 00:00:00 | |
| AA1-15 | 2026-09-01 00:28:45 | 48.81070 | 10.37891 | 138° | 26km/h | 31562m | 5.6m/s | 0°C | 0% | 0hPa | 2.6V | 18:12:15 | 01:59:24 | 00:00:00 | |
| BIOWL1-15 | 2026-09-01 00:28:45 | 48.81075 | 10.37885 | 143° | 26km/h | 31556m | 5.7m/s | -41.4°C | 0% | 10hPa | 2.6V | 18:12:15 | 01:59:23 | 00:00:00 | |
| DG9SBQ-11 | 2026-09-01 00:28:44 | 48.81070 | 10.37891 | 139° | 26km/h | 31562m | 5.6m/s | -41.4°C | 0.7% | 10.0hPa | 2.6V | 00:00:00 | 00:00:00 | 00:00:00 | |
| OE5DRO-10 | 2026-09-01 00:28:43 | 48.81080 | 10.37879 | 148° | 20km/h | 31550m | 6.8m/s | -41.4°C | 2.6% | 9.9hPa | 2.6V | 00:00:00 | 00:00:00 | 00:00:00 | |
| DM7RM-13 | 2026-09-01 00:28:42 | 48.81086 | 10.37875 | 155° | 24km/h | 31544m | 5.8m/s | -41.5°C | 0.7% | 10.0hPa | 2.6V | 00:00:00 | 00:00:00 | 00:00:00 | |
| DL1NUX | 2026-09-01 00:28:41 | 48.81095 | 10.37868 | 157° | 15km/h | 31533m | 5.2m/s | -41.5°C | 2.6% | 10hPa | 2.6V | 08:30:00 | 01:59:19 | 00:00:00 | |
| HSKMA3-T | 2026-09-01 00:28:39 | 48.81098 | 10.37866 | 149° | 11km/h | 31527m | 7m/s | -41.5°C | 0% | 10hPa | 2.6V | 18:12:15 | 01:59:18 | 00:00:00 | |
| DK7TD | 2026-09-01 00:28:37 | 48.81100 | 10.37861 | 87° | 9km/h | 31514m | 5.4m/s | -41.5°C | 0% | 10.1hPa | 2.6V | 18:12:15 | 01:59:16 | 00:00:00 | |
| DL1XH-west | 2026-09-01 00:28:36 | 48.81100 | 10.37856 | 96° | 15km/h | 31509m | 4.5m/s | -41.6°C | 0% | 10.1hPa | 2.6V | 18:12:15 | 01:59:15 | 00:00:00 | |
| DF8AY | 2026-09-01 00:28:35 | 48.81108 | 10.37835 | 136° | 31km/h | 31491m | 6.5m/s | -41.7°C | 0% | 10.1hPa | 2.6V | 18:12:15 | 01:59:12 | 00:00:00 | |
| BIOWL1-15 | 2026-09-01 00:28:34 | 48.81134 | 10.37802 | 133° | 27km/h | 31467m | 6.6m/s | -42.1°C | 0% | 10.1hPa | 2.6V | 18:12:15 | 01:59:08 | 00:00:00 | |
| DM0DOS-11 | 2026-09-01 00:28:33 | 48.81134 | 10.37802 | 132° | 27km/h | 31467m | 6.6m/s | -42°C | 2.8% | 10.1hPa | 2.6V | 08:30:00 | 01:59:08 | 00:00:00 | |
| AA1-15 | 2026-09-01 00:28:32 | 48.81115 | 10.37827 | 141° | 37km/h | 31486m | 5.4m/s | 0°C | 0% | 0hPa | 2.6V | 18:12:15 | 01:59:11 | 00:00:00 | |
| HSKMA3-T | 2026-09-01 00:28:28 | 48.81138 | 10.37794 | 124° | 22km/h | 31461m | 6.2m/s | -42.1°C | 0% | 10.1hPa | 2.6V | 18:12:15 | 01:59:07 | 00:00:00 | |
| DL1XH-west | 2026-09-01 00:28:26 | 48.81142 | 10.37782 | 116° | 16km/h | 31450m | 5.6m/s | -42.1°C | 0% | 10.1hPa | 2.7V | 18:12:15 | 01:59:05 | 00:00:00 | |
| DF8AY | 2026-09-01 00:28:24 | 48.81172 | 10.37710 | 84° | 31km/h | 31387m | 5.8m/s | -42.1°C | 0% | 10.2hPa | 2.7V | 18:12:15 | 01:58:55 | 00:00:00 | |
| OE5DRO-10 | 2026-09-01 00:28:24 | 48.81147 | 10.37772 | 138° | 24km/h | 31437m | 7.0m/s | -42.1°C | 2.8% | 10.1hPa | 2.6V | 00:00:00 | 00:00:00 | 00:00:00 | |
| DL1XH1-15 | 2026-09-01 00:28:23 | 48.81156 | 10.37763 | 145° | 26km/h | 31424m | 5.5m/s | -42.1°C | 2.8% | 10.2hPa | 2.6V | 08:30:00 | 01:59:01 | 00:00:00 | |
| DM0DOS-11 | 2026-09-01 00:28:23 | 48.81170 | 10.37741 | 116° | 26km/h | 31408m | 7m/s | -42.1°C | 2.7% | 10.2hPa | 2.5V | 08:30:00 | 01:58:58 | 00:00:00 | |
| BIOWL1-15 | 2026-09-01 00:28:23 | 48.81151 | 10.37768 | 146° | 22km/h | 31430m | 6.4m/s | -42.1°C | 0% | 10.2hPa | 2.6V | 18:12:15 | 01:59:02 | 00:00:00 | |
| AA1-15 | 2026-09-01 00:28:22 | 48.81161 | 10.37757 | 140° | 27km/h | 31419m | 4.7m/s | 0°C | 0% | 0hPa | 2.7V | 18:12:15 | 01:59:00 | 00:00:00 | |
| HSKMA3-T | 2026-09-01 00:28:18 | 48.81172 | 10.37731 | 101° | 27km/h | 31401m | 7.3m/s | -42.1°C | 0% | 10.2hPa | 2.6V | 18:12:15 | 01:58:57 | 00:00:00 | |
| DL1XH-west | 2026-09-01 00:28:15 | 48.81171 | 10.37698 | 88° | 31km/h | 31382m | 5m/s | -42.1°C | 0% | 10.2hPa | 2.6V | 18:12:15 | 01:58:54 | 00:00:00 | |
| DO3MHA-12 | 2026-09-01 00:28:15 | 48.81171 | 10.37698 | 88° | 22km/h | 31383m | 4.9m/s | -42.1°C | 2.8% | 10.2hPa | 2.6V | 00:00:00 | 01:58:54 | 08:30:00 | |
| DK5PH-5 | 2026-09-01 00:28:14 | 48.81172 | 10.37686 | 97° | 15km/h | 31377m | 6.0m/s | -42.1°C | 2.8% | 10.2hPa | 2.6V | 00:00:00 | 01:58:53 | 00:00:00 | |
| DL1XH1-15 | 2026-09-01 00:28:13 | 48.81177 | 10.37666 | 126° | 27km/h | 31364m | 6.1m/s | -42.1°C | 2.8% | 10.3hPa | 2.6V | 08:30:00 | 01:58:51 | 00:00:00 | |
| AA1-15 | 2026-09-01 00:28:11 | 48.81186 | 10.37653 | 145° | 22km/h | 31352m | 6.1m/s | 0°C | 0% | 0hPa | 2.7V | 18:12:15 | 01:58:49 | 00:00:00 | |
| DF8AY | 2026-09-01 00:28:10 | 48.81190 | 10.37649 | 144° | 16km/h | 31346m | 6.7m/s | -42.1°C | 0% | 10.3hPa | 2.6V | 18:12:15 | 01:58:48 | 00:00:00 | |
| HSKMA3-T | 2026-09-01 00:28:08 | 48.81192 | 10.37645 | 127° | 11km/h | 31340m | 6.1m/s | -42°C | 0% | 10.3hPa | 2.6V | 18:12:15 | 01:58:47 | 00:00:00 | |
| OE5MMP-10 | 2026-09-01 00:28:08 | 48.81192 | 10.37645 | 127° | 18km/h | 31340m | 6.0m/s | -42.0°C | 2.8% | 10.3hPa | 2.6V | 00:00:00 | 01:58:47 | 00:00:00 | |
| DO3MHA-11 | 2026-09-01 00:28:07 | 48.81193 | 10.37642 | 99° | 18km/h | 31334m | 5.2m/s | -42.0°C | 2.8% | 10.3hPa | 2.6V | 00:00:00 | 01:58:46 | 00:00:00 | |
| DL1NUX | 2026-09-01 00:28:06 | 48.81194 | 10.37630 | 91° | 20km/h | 31322m | 6.6m/s | -42°C | 2.8% | 10.3hPa | 2.6V | 08:30:00 | 01:58:44 | 00:00:00 | |
| DL1XH-west | 2026-09-01 00:28:05 | 48.81194 | 10.37630 | 92° | 20km/h | 31322m | 6.6m/s | -42.1°C | 0% | 10.3hPa | 2.6V | 18:12:15 | 01:58:44 | 00:00:00 | |
| DO3MHA-12 | 2026-09-01 00:28:05 | 48.81193 | 10.37630 | 92° | 18km/h | 31322m | 6.5m/s | -42.0°C | 2.8% | 10.3hPa | 2.6V | 00:00:00 | 01:58:44 | 00:00:00 | |
| AM1SDL-15 | 2026-09-01 00:28:03 | 48.81195 | 10.37612 | 109° | 18km/h | 31309m | 6.3m/s | -42.0°C | 2.8% | 10.3hPa | 2.6V | 00:00:00 | 01:58:42 | 00:00:00 | |
| DM0DOS-11 | 2026-09-01 00:28:02 | 48.81205 | 10.37581 | 107° | 15km/h | 31286m | 7m/s | -42.2°C | 2.8% | 10.4hPa | 2.6V | 08:30:00 | 01:58:38 | 00:00:00 | |
| AA1-15 | 2026-09-01 00:28:01 | 48.81201 | 10.37595 | 117° | 24km/h | 31297m | 5.3m/s | 0°C | 0% | 0hPa | 2.6V | 18:12:15 | 01:58:40 | 00:00:00 | |
| DN1GJH-1 | 2026-09-01 00:28:01 | 48.81198 | 10.37603 | 115° | 26km/h | 31304m | 5.6m/s | -42.1°C | 0.8% | 10.4hPa | 2.6V | 00:00:00 | 00:00:00 | 00:00:00 | |
| DL1NUX | 2026-09-01 00:28:00 | 48.81207 | 10.37565 | 117° | 13km/h | 31260m | 7.3m/s | -42.2°C | 2.8% | 10.4hPa | 2.6V | 08:30:00 | 01:58:34 | 00:00:00 | |
| DF8AY | 2026-09-01 00:27:59 | 48.81205 | 10.37576 | 95° | 11km/h | 31279m | 6.6m/s | -42.2°C | 0% | 10.4hPa | 2.5V | 18:12:15 | 01:58:37 | 00:00:00 | |
| HSKMA3-T | 2026-09-01 00:27:57 | 48.81205 | 10.37572 | 89° | 9km/h | 31272m | 5.7m/s | -42.2°C | 0% | 10.4hPa | 2.6V | 18:12:15 | 01:58:36 | 00:00:00 | |
| BIOWL1-15 | 2026-09-01 00:27:55 | 48.81211 | 10.37555 | 132° | 18km/h | 31247m | 5.5m/s | -42.2°C | 0% | 10.5hPa | 2.5V | 18:12:15 | 01:58:32 | 00:00:00 | |
| DL1XH-west | 2026-09-01 00:27:54 | 48.81209 | 10.37560 | 130° | 16km/h | 31253m | 6.5m/s | -42.2°C | 0% | 10.4hPa | 2.6V | 18:12:15 | 01:58:33 | 00:00:00 | |
| DL1XH1-15 | 2026-09-01 00:27:53 | 48.81215 | 10.37549 | 129° | 18km/h | 31242m | 5.7m/s | -42.2°C | 2.8% | 10.5hPa | 2.6V | 08:30:00 | 01:58:31 | 00:00:00 | |
| DL6DJ-15 | 2026-09-01 00:27:53 | 48.81215 | 10.37549 | 129° | 18km/h | 31242m | 5.7m/s | -42.2°C | 0.7% | 10.5hPa | 2.6V | 00:00:00 | 00:00:00 | 00:00:00 | |
| DB0ND-19 | 2026-09-01 00:27:51 | 48.81219 | 10.37539 | 114° | 13km/h | 31229m | 6.9m/s | -42.1°C | 0.7% | 10.5hPa | 2.6V | 00:00:00 | 00:00:00 | 00:00:00 | |
| DL1NUX | 2026-09-01 00:27:50 | 48.81224 | 10.37516 | 121° | 16km/h | 31196m | 6.4m/s | -42°C | 2.8% | 10.5hPa | 2.6V | 08:30:00 | 01:58:24 | 00:00:00 | |
| DF8AY | 2026-09-01 00:27:48 | 48.81221 | 10.37526 | 105° | 13km/h | 31210m | 6.7m/s | -42°C | 0% | 10.5hPa | 2.6V | 18:12:15 | 01:58:26 | 00:00:00 | |
| HSKMA3-T | 2026-09-01 00:27:47 | 48.81223 | 10.37521 | 115° | 15km/h | 31203m | 7.3m/s | -42°C | 0% | 10.5hPa | 2.6V | 18:12:15 | 01:58:25 | 00:00:00 | |
| DK7TD | 2026-09-01 00:27:44 | 48.81227 | 10.37511 | 122° | 16km/h | 31190m | 5.8m/s | -41.9°C | 0% | 10.5hPa | 2.7V | 18:12:15 | 01:58:23 | 00:00:00 | |
| DL1XH-west | 2026-09-01 00:27:43 | 48.81230 | 10.37502 | 111° | 11km/h | 31177m | 7.4m/s | -41.9°C | 0% | 10.6hPa | 2.6V | 18:12:15 | 01:58:21 | 00:00:00 | |
| DM0DOS-11 | 2026-09-01 00:27:42 | 48.81239 | 10.37485 | 140° | 18km/h | 31144m | 5.8m/s | -41.8°C | 2.8% | 10.6hPa | 2.7V | 08:30:00 | 01:58:16 | 00:00:00 | |
| DL1NUX | 2026-09-01 00:27:40 | 48.81245 | 10.37475 | 126° | 16km/h | 31133m | 6.7m/s | -41.7°C | 2.8% | 10.6hPa | 2.5V | 08:30:00 | 01:58:14 | 00:00:00 | |
| BIOWL1-15 | 2026-09-01 00:27:37 | 48.81238 | 10.37485 | 140° | 18km/h | 31144m | 5.8m/s | -41.8°C | 0% | 10.6hPa | 2.7V | 18:12:15 | 01:58:16 | 00:00:00 | |
| DF8AY | 2026-09-01 00:27:37 | 48.81249 | 10.37454 | 108° | 16km/h | 31107m | 7.3m/s | -41.6°C | 0% | 10.7hPa | 2.7V | 18:12:15 | 01:58:10 | 00:00:00 | |
| HSKMA3-T | 2026-09-01 00:27:35 | 48.81245 | 10.37475 | 126° | 16km/h | 31133m | 6.7m/s | -41.7°C | 0% | 10.6hPa | 2.5V | 18:12:15 | 01:58:14 | 00:00:00 | |
| DK7TD | 2026-09-01 00:27:34 | 48.81246 | 10.37470 | 113° | 15km/h | 31126m | 7m/s | -41.7°C | 0% | 10.7hPa | 2.6V | 18:12:15 | 01:58:13 | 00:00:00 | |
| DL1XH1-15 | 2026-09-01 00:27:33 | 48.81248 | 10.37460 | 99° | 15km/h | 31113m | 5.7m/s | -41.6°C | 2.7% | 10.7hPa | 2.6V | 08:30:00 | 01:58:11 | 00:00:00 | |
| DL1XH-west | 2026-09-01 00:27:32 | 48.81248 | 10.37460 | 100° | 15km/h | 31113m | 5.7m/s | -41.6°C | 0% | 10.7hPa | 2.6V | 18:12:15 | 01:58:11 | 00:00:00 | |
| DL1ZP-14 | 2026-09-01 00:27:31 | 48.81251 | 10.37448 | 114° | 18km/h | 31100m | 6.8m/s | -41.5°C | 0.7% | 10.7hPa | 2.6V | 00:00:00 | 00:00:00 | 00:00:00 | |
| DL1NUX | 2026-09-01 00:27:30 | 48.81256 | 10.37412 | 83° | 20km/h | 31067m | 6.2m/s | -41.4°C | 2.7% | 10.8hPa | 2.7V | 08:30:00 | 01:58:04 | 00:00:00 | |
| DF8AY | 2026-09-01 00:27:27 | 48.81257 | 10.37420 | 90° | 20km/h | 31073m | 7.2m/s | -41.4°C | 0% | 10.7hPa | 2.6V | 18:12:15 | 01:58:05 | 00:00:00 | |
| HSKMA3-T | 2026-09-01 00:27:25 | 48.81256 | 10.37412 | 84° | 20km/h | 31067m | 6.2m/s | -41.4°C | 0% | 10.8hPa | 2.7V | 18:12:15 | 01:58:04 | 00:00:00 | |
| DK7TD | 2026-09-01 00:27:23 | 48.81256 | 10.37397 | 96° | 20km/h | 31054m | 7.4m/s | -41.4°C | 0% | 10.8hPa | 2.6V | 18:12:15 | 01:58:02 | 00:00:00 | |
| DL1XH1-15 | 2026-09-01 00:27:23 | 48.81257 | 10.37389 | 105° | 20km/h | 31047m | 6.5m/s | -41.4°C | 2.7% | 10.8hPa | 2.5V | 08:30:00 | 01:58:01 | 00:00:00 | |
| DL1XH-west | 2026-09-01 00:27:22 | 48.81257 | 10.37389 | 105° | 20km/h | 31047m | 6.5m/s | -41.4°C | 0% | 10.8hPa | 2.5V | 18:12:15 | 01:58:01 | 00:00:00 | |
| NBG1-10 | 2026-09-01 00:27:22 | 48.81257 | 10.37389 | 106° | 20km/h | 31047m | 6.5m/s | -41.4°C | 2.7% | 10.7hPa | 2.5V | 00:00:00 | 01:58:01 | 00:00:00 | |
| DM0DOS-11 | 2026-09-01 00:27:21 | 48.81263 | 10.37358 | 96° | 9km/h | 31008m | 6.3m/s | -41.5°C | 2.8% | 10.8hPa | 2.5V | 08:30:00 | 01:57:55 | 00:00:00 | |
| DL1NUX | 2026-09-01 00:27:20 | 48.81263 | 10.37354 | 106° | 13km/h | 31001m | 7.3m/s | -41.5°C | 2.7% | 10.8hPa | 2.6V | 08:30:00 | 01:57:54 | 00:00:00 | |
| DB0ND-19 | 2026-09-01 00:27:20 | 48.81262 | 10.37370 | 108° | 13km/h | 31029m | 7.5m/s | -41.5°C | 0.7% | 10.8hPa | 2.7V | 00:00:00 | 00:00:00 | 00:00:00 | |
| DJ2DS-15 | 2026-09-01 00:27:19 | 48.81262 | 10.37369 | 109° | 20km/h | 31029m | 7.4m/s | -41.4°C | 2.7% | 10.8hPa | 2.7V | 00:00:00 | 01:57:58 | 00:00:00 | |
| OE5MMP-10 | 2026-09-01 00:27:18 | 48.81262 | 10.37365 | 97° | 16km/h | 31022m | 7.1m/s | -41.4°C | 2.7% | 10.8hPa | 2.7V | 00:00:00 | 01:57:57 | 08:30:00 | |
| DL1XH1-15 | 2026-09-01 00:27:17 | 48.81265 | 10.37326 | 78° | 24km/h | 30976m | 7.7m/s | -41.5°C | 2.7% | 10.9hPa | 2.6V | 08:30:00 | 01:57:50 | 00:00:00 | |
| HSKMA3-T | 2026-09-01 00:27:14 | 48.81264 | 10.37349 | 107° | 16km/h | 30995m | 6.1m/s | -41.6°C | 0% | 10.8hPa | 2.6V | 18:12:15 | 01:57:53 | 00:00:00 | |
| DK7TD | 2026-09-01 00:27:13 | 48.81265 | 10.37342 | 100° | 20km/h | 30989m | 5.5m/s | -41.6°C | 0% | 10.8hPa | 2.6V | 18:12:15 | 01:57:52 | 00:00:00 | |
| DL1XH-west | 2026-09-01 00:27:11 | 48.81263 | 10.37317 | 71° | 26km/h | 30969m | 6.7m/s | -41.5°C | 0% | 10.9hPa | 2.6V | 18:12:15 | 01:57:49 | 00:00:00 | |
| DG9SBQ-11 | 2026-09-01 00:27:11 | 48.81265 | 10.37326 | 80° | 24km/h | 30976m | 7.7m/s | -41.5°C | 0.7% | 10.9hPa | 2.7V | 00:00:00 | 00:00:00 | 00:00:00 | |
| OE5DXL-15 | 2026-09-01 00:27:09 | 48.81261 | 10.37308 | 71° | 22km/h | 30962m | 5.9m/s | -41.4°C | 2.7% | 10.9hPa | 2.7V | 00:00:00 | 00:00:00 | 00:00:00 | |
| DF8AY-15 | 2026-09-01 00:27:08 | 48.81259 | 10.37298 | 76° | 24km/h | 30956m | 6.3m/s | -41.4°C | 2.7% | 10.8hPa | 2.7V | 00:00:00 | 01:57:47 | 00:00:00 | |
| DL1NUX | 2026-09-01 00:27:06 | 48.81258 | 10.37269 | 99° | 24km/h | 30935m | 6m/s | -41.3°C | 2.7% | 11hPa | 2.7V | 08:30:00 | 01:57:44 | 00:00:00 | |
| DK5PH-5 | 2026-09-01 00:27:06 | 48.81258 | 10.37278 | 94° | 24km/h | 30942m | 6.8m/s | -41.3°C | 2.7% | 10.9hPa | 2.6V | 00:00:00 | 01:57:45 | 08:30:00 | |
| DO3MHA-12 | 2026-09-01 00:27:05 | 48.81258 | 10.37269 | 100° | 22km/h | 30936m | 6.0m/s | -41.3°C | 2.7% | 10.9hPa | 2.6V | 00:00:00 | 01:57:44 | 00:00:00 | |
| DF8AY | 2026-09-01 00:27:05 | 48.81259 | 10.37260 | 98° | 22km/h | 30929m | 5.9m/s | -41.3°C | 0% | 10.9hPa | 2.6V | 18:12:15 | 01:57:43 | 00:00:00 | |
| DL1XH1-15 | 2026-09-01 00:27:03 | 48.81257 | 10.37239 | 65° | 18km/h | 30909m | 5.8m/s | -41.2°C | 2.6% | 11hPa | 2.6V | 08:30:00 | 01:57:40 | 00:00:00 | |
| DK7TD | 2026-09-01 00:27:03 | 48.81260 | 10.37253 | 89° | 18km/h | 30923m | 7.4m/s | -41.2°C | 0% | 11hPa | 2.6V | 18:12:15 | 01:57:42 | 00:00:00 | |
| DL1XH-west | 2026-09-01 00:27:01 | 48.81257 | 10.37239 | 65° | 18km/h | 30909m | 5.8m/s | -41.2°C | 0% | 11hPa | 2.6V | 18:12:15 | 01:57:40 | 00:00:00 | |
| OE5WHR-10 | 2026-09-01 00:27:01 | 48.81257 | 10.37239 | 66° | 24km/h | 30910m | 5.8m/s | -41.2°C | 2.6% | 11.0hPa | 2.6V | 00:00:00 | 01:57:40 | 00:00:00 | |
| DM0DOS-11 | 2026-09-01 00:26:59 | 48.81255 | 10.37187 | 93° | 27km/h | 30870m | 7.5m/s | -41.3°C | 2.7% | 11hPa | 2.6V | 08:30:00 | 01:57:34 | 00:00:00 | |
| OE5MMP-10 | 2026-09-01 00:26:58 | 48.81253 | 10.37217 | 91° | 24km/h | 30890m | 7.1m/s | -41.3°C | 2.7% | 11.0hPa | 2.6V | 00:00:00 | 01:57:37 | 00:00:00 | |
| DO3MHA-11 | 2026-09-01 00:26:57 | 48.81254 | 10.37208 | 97° | 24km/h | 30884m | 6.3m/s | -41.3°C | 2.6% | 11.0hPa | 2.6V | 00:00:00 | 01:57:36 | 08:30:00 | |
| DL1XH1-15 | 2026-09-01 00:26:56 | 48.81256 | 10.37151 | 105° | 22km/h | 30844m | 7.1m/s | -41.5°C | 2.7% | 11.1hPa | 2.6V | 08:30:00 | 01:57:30 | 00:00:00 | |
| BIOWL1-15 | 2026-09-01 00:26:53 | 48.81255 | 10.37168 | 89° | 24km/h | 30856m | 5.6m/s | -41.4°C | 0% | 11.1hPa | 2.6V | 18:12:15 | 01:57:32 | 00:00:00 | |
| HSKMA3-T | 2026-09-01 00:26:52 | 48.81256 | 10.37159 | 95° | 22km/h | 30851m | 5.9m/s | -41.4°C | 0% | 11.1hPa | 2.6V | 18:12:15 | 01:57:31 | 00:00:00 | |
| DL1XH-west | 2026-09-01 00:26:50 | 48.81258 | 10.37144 | 119° | 20km/h | 30837m | 6.8m/s | -41.5°C | 0% | 11.1hPa | 2.6V | 18:12:15 | 01:57:29 | 00:00:00 | |
| DB0ND-19 | 2026-09-01 00:26:49 | 48.81264 | 10.37132 | 128° | 16km/h | 30825m | 5.8m/s | -41.6°C | 0.7% | 11.1hPa | 2.6V | 00:00:00 | 00:00:00 | 00:00:00 | |
| OE5MMP-10 | 2026-09-01 00:26:48 | 48.81264 | 10.37132 | 129° | 24km/h | 30825m | 5.7m/s | -41.5°C | 2.7% | 11.1hPa | 2.6V | 00:00:00 | 01:57:27 | 00:00:00 | |
| DO3MHA-11 | 2026-09-01 00:26:47 | 48.81266 | 10.37127 | 120° | 26km/h | 30819m | 7.0m/s | -41.6°C | 2.7% | 11.1hPa | 2.6V | 00:00:00 | 01:57:26 | 00:00:00 | |
| DB0NH | 2026-09-01 00:26:46 | 48.81267 | 10.37123 | 99° | 26km/h | 30812m | 6.7m/s | -41.6°C | 2.7% | 11.1hPa | 2.6V | 00:00:00 | 01:57:25 | 00:00:00 | |
| DO3MHA-12 | 2026-09-01 00:26:45 | 48.81267 | 10.37118 | 84° | 29km/h | 30806m | 5.2m/s | -41.6°C | 2.7% | 11.1hPa | 2.6V | 00:00:00 | 01:57:24 | 08:30:00 | |
| DO9HM | 2026-09-01 00:26:44 | 48.81267 | 10.37118 | 85° | 15km/h | 30806m | 5.3m/s | -41.6°C | 0.7% | 11.2hPa | 2.6V | 00:00:00 | 00:00:00 | 00:00:00 | |
| SO1NDE-10 | 2026-09-01 00:26:43 | 48.81267 | 10.37104 | 94° | 27km/h | 30795m | 7.0m/s | -41.6°C | 2.7% | 11.1hPa | 2.6V | 00:00:00 | 01:57:22 | 00:00:00 | |
| DL1XH1-15 | 2026-09-01 00:26:42 | 48.81269 | 10.37082 | 104° | 35km/h | 30781m | 6.4m/s | -41.7°C | 2.8% | 11.2hPa | 2.6V | 08:30:00 | 01:57:20 | 00:00:00 | |
| HSKMA3-T | 2026-09-01 00:26:42 | 48.81268 | 10.37094 | 101° | 29km/h | 30787m | 7.1m/s | -41.7°C | 0% | 11.2hPa | 2.5V | 18:12:15 | 01:57:21 | 00:00:00 | |
| DK7TD | 2026-09-01 00:26:41 | 48.81269 | 10.37082 | 105° | 35km/h | 30781m | 6.4m/s | -41.7°C | 0% | 11.2hPa | 2.6V | 18:12:15 | 01:57:20 | 00:00:00 | |
| DL1XH-west | 2026-09-01 00:26:40 | 48.81272 | 10.37068 | 105° | 38km/h | 30774m | 5.9m/s | -41.7°C | 0% | 11.2hPa | 2.6V | 18:12:15 | 01:57:19 | 00:00:00 | |
| DM0DOS-11 | 2026-09-01 00:26:39 | 48.81286 | 10.36994 | 127° | 24km/h | 30729m | 5.8m/s | -41.7°C | 2.7% | 11.3hPa | 2.6V | 08:30:00 | 01:57:12 | 00:00:00 | |
| BIOWL1-15 | 2026-09-01 00:26:37 | 48.81299 | 10.36962 | 115° | 22km/h | 30699m | 5.5m/s | -41.8°C | 0% | 11.3hPa | 2.6V | 18:12:15 | 01:57:07 | 00:00:00 | |
| DL1XH1-15 | 2026-09-01 00:26:36 | 48.81292 | 10.36981 | 126° | 20km/h | 30717m | 6.9m/s | -41.8°C | 2.7% | 11.3hPa | 2.6V | 08:30:00 | 01:57:10 | 00:00:00 | |
| DK7TD | 2026-09-01 00:26:31 | 48.81292 | 10.36981 | 127° | 20km/h | 30717m | 6.9m/s | -41.8°C | 0% | 11.3hPa | 2.6V | 18:12:15 | 01:57:10 | 00:00:00 | |
| DF8AY | 2026-09-01 00:26:30 | 48.81295 | 10.36975 | 119° | 18km/h | 30710m | 6.9m/s | -41.8°C | 0% | 11.3hPa | 2.6V | 18:12:15 | 01:57:09 | 00:00:00 | |
| DL1NUX | 2026-09-01 00:26:30 | 48.81309 | 10.36934 | 120° | 33km/h | 30680m | 4.8m/s | -41.7°C | 2.7% | 11.4hPa | 2.6V | 08:30:00 | 01:57:04 | 00:00:00 | |
| DL1XH-west | 2026-09-01 00:26:29 | 48.81297 | 10.36969 | 113° | 18km/h | 30704m | 5.7m/s | -41.8°C | 0% | 11.3hPa | 2.6V | 18:12:15 | 01:57:08 | 00:00:00 | |
| DM0DOS-11 | 2026-09-01 00:26:28 | 48.81316 | 10.36911 | 108° | 33km/h | 30670m | 6.8m/s | -41.6°C | 2.7% | 11.4hPa | 2.7V | 08:30:00 | 01:57:02 | 00:00:00 | |
| BIOWL1-15 | 2026-09-01 00:26:27 | 48.81305 | 10.36945 | 121° | 31km/h | 30686m | 6.5m/s | -41.7°C | 0% | 11.4hPa | 2.6V | 18:12:15 | 01:57:05 | 00:00:00 | |
| DF7PN | 2026-09-01 00:26:26 | 48.81309 | 10.36934 | 120° | 33km/h | 30680m | 4.8m/s | -41.7°C | 0.7% | 11.4hPa | 2.6V | 00:00:00 | 00:00:00 | 00:00:00 | |
| DO3MHA-12 | 2026-09-01 00:26:25 | 48.81309 | 10.36934 | 121° | 29km/h | 30680m | 4.8m/s | -41.6°C | 2.7% | 11.3hPa | 2.6V | 00:00:00 | 01:57:04 | 00:00:00 | |
| DO9HM | 2026-09-01 00:26:24 | 48.81313 | 10.36923 | 116° | 35km/h | 30676m | 4.5m/s | -41.7°C | 0.7% | 11.4hPa | 2.6V | 00:00:00 | 00:00:00 | 00:00:00 | |
| DL1XH1-15 | 2026-09-01 00:26:22 | 48.81319 | 10.36887 | 87° | 29km/h | 30656m | 6.5m/s | -41.6°C | 2.7% | 11.4hPa | 2.6V | 08:30:00 | 01:57:00 | 00:00:00 | |
| HSKMA3-T | 2026-09-01 00:26:21 | 48.81319 | 10.36887 | 87° | 29km/h | 30656m | 6.5m/s | -41.7°C | 0% | 11.4hPa | 2.6V | 18:12:15 | 01:57:00 | 00:00:00 | |
| DK7TD | 2026-09-01 00:26:20 | 48.81318 | 10.36876 | 82° | 27km/h | 30650m | 5.8m/s | -41.7°C | 0% | 11.4hPa | 2.6V | 18:12:15 | 01:56:59 | 00:00:00 | |
| DL1XH-west | 2026-09-01 00:26:19 | 48.81317 | 10.36866 | 85° | 26km/h | 30644m | 5.4m/s | -41.7°C | 0% | 11.4hPa | 2.6V | 18:12:15 | 01:56:58 | 00:00:00 | |
| BIOWL1-15 | 2026-09-01 00:26:14 | 48.81325 | 10.36806 | 91° | 26km/h | 30601m | 5.4m/s | -41.9°C | 0% | 11.5hPa | 2.7V | 18:12:15 | 01:56:51 | 00:00:00 | |
| SO1NDE-10 | 2026-09-01 00:26:13 | 48.81325 | 10.36816 | 95° | 27km/h | 30607m | 6.3m/s | -41.8°C | 2.7% | 11.5hPa | 2.6V | 00:00:00 | 01:56:52 | 00:00:00 | |
| DL1XH1-15 | 2026-09-01 00:26:12 | 48.81325 | 10.36796 | 90° | 31km/h | 30596m | 5.5m/s | -42°C | 2.7% | 11.5hPa | 2.6V | 08:30:00 | 01:56:50 | 00:00:00 | |
| DK7TD | 2026-09-01 00:26:10 | 48.81325 | 10.36783 | 93° | 35km/h | 30589m | 7.3m/s | -42°C | 0% | 11.5hPa | 2.6V | 18:12:15 | 01:56:49 | 00:00:00 | |
| DL1XH-west | 2026-09-01 00:26:08 | 48.81326 | 10.36755 | 90° | 38km/h | 30577m | 5m/s | -42.2°C | 0% | 11.5hPa | 2.6V | 18:12:15 | 01:56:47 | 00:00:00 | |
| BIOWL1-15 | 2026-09-01 00:26:03 | 48.81311 | 10.36683 | 90° | 20km/h | 30536m | 6.6m/s | -42.6°C | 0% | 11.6hPa | 2.6V | 18:12:15 | 01:56:40 | 00:00:00 | |
| HSKMA3-T | 2026-09-01 00:25:59 | 48.81313 | 10.36666 | 105° | 26km/h | 30524m | 4.8m/s | -42.8°C | 0% | 11.7hPa | 2.6V | 18:12:15 | 01:56:38 | 00:00:00 | |
| DL1XH-west | 2026-09-01 00:25:57 | 48.81314 | 10.36646 | 87° | 27km/h | 30514m | 6m/s | -42.8°C | 0% | 11.7hPa | 2.6V | 18:12:15 | 01:56:36 | 00:00:00 | |
| SONDE2-11 | 2026-09-01 00:25:56 | 48.81313 | 10.36636 | 71° | 26km/h | 30508m | 6.1m/s | -42.9°C | 0.7% | 11.7hPa | 2.6V | 00:00:00 | 00:00:00 | 00:00:00 | |
| DF7PN | 2026-09-01 00:25:55 | 48.81306 | 10.36618 | 52° | 26km/h | 30497m | 5.5m/s | -43.0°C | 0.7% | 11.7hPa | 2.6V | 00:00:00 | 00:00:00 | 00:00:00 | |
| DL1NUX | 2026-09-01 00:25:54 | 48.81303 | 10.36611 | 52° | 24km/h | 30491m | 5.9m/s | -43°C | 2.8% | 11.7hPa | 2.6V | 08:30:00 | 01:56:32 | 00:00:00 | |
| DL1XH1-15 | 2026-09-01 00:25:52 | 48.81297 | 10.36594 | 70° | 26km/h | 30480m | 5.1m/s | -43.1°C | 2.8% | 11.7hPa | 2.7V | 08:30:00 | 01:56:30 | 00:00:00 | |
| BIOWL1-15 | 2026-09-01 00:25:51 | 48.81283 | 10.36532 | 63° | 24km/h | 30446m | 5.4m/s | -43.4°C | 0% | 11.8hPa | 2.6V | 18:12:15 | 01:56:24 | 00:00:00 | |
| DF8AY | 2026-09-01 00:25:51 | 48.81295 | 10.36585 | 76° | 27km/h | 30475m | 5.2m/s | -43.1°C | 0% | 11.7hPa | 2.6V | 18:12:15 | 01:56:29 | 00:00:00 | |
| HSKMA3-T | 2026-09-01 00:25:49 | 48.81293 | 10.36574 | 77° | 31km/h | 30469m | 6.1m/s | -43.2°C | 0% | 11.7hPa | 2.6V | 18:12:15 | 01:56:28 | 00:00:00 | |
| DL1XH-west | 2026-09-01 00:25:47 | 48.81289 | 10.36551 | 70° | 31km/h | 30457m | 6m/s | -43.3°C | 0% | 11.8hPa | 2.6V | 18:12:15 | 01:56:26 | 00:00:00 | |
| DB0ND-19 | 2026-09-01 00:25:47 | 48.81286 | 10.36541 | 65° | 27km/h | 30451m | 5.8m/s | -43.3°C | 0.7% | 11.8hPa | 2.6V | 00:00:00 | 00:00:00 | 00:00:00 | |
| DB0NH | 2026-09-01 00:25:46 | 48.81286 | 10.36541 | 66° | 26km/h | 30451m | 5.7m/s | -43.3°C | 2.9% | 11.7hPa | 2.6V | 00:00:00 | 01:56:25 | 00:00:00 | |
| DO3MHA-12 | 2026-09-01 00:25:45 | 48.81283 | 10.36532 | 64° | 24km/h | 30446m | 5.4m/s | -43.3°C | 2.9% | 11.7hPa | 2.6V | 00:00:00 | 01:56:24 | 00:00:00 | |
| NBG1-10 | 2026-09-01 00:25:43 | 48.81279 | 10.36518 | 65° | 24km/h | 30433m | 6.7m/s | -43.4°C | 2.9% | 11.7hPa | 2.6V | 00:00:00 | 01:56:22 | 00:00:00 | |
| DL1XH1-15 | 2026-09-01 00:25:42 | 48.81274 | 10.36509 | 43° | 16km/h | 30422m | 5m/s | -43.5°C | 2.9% | 11.8hPa | 2.6V | 08:30:00 | 01:56:20 | 00:00:00 | |
| DF8AY | 2026-09-01 00:25:40 | 48.81229 | 10.36391 | 351° | 11km/h | 30341m | 6.1m/s | -43.9°C | 0.1% | 12hPa | 2.6V | 18:12:15 | 01:56:06 | 00:00:00 | |
| DK7TD | 2026-09-01 00:25:39 | 48.81266 | 10.36499 | 36° | 27km/h | 30410m | 6.1m/s | -43.5°C | 0% | 11.8hPa | 2.6V | 18:12:15 | 01:56:18 | 00:00:00 | |
| DL1XH-west | 2026-09-01 00:25:36 | 48.81248 | 10.36472 | 57° | 37km/h | 30394m | 6.3m/s | -43.6°C | 0% | 11.9hPa | 2.6V | 18:12:15 | 01:56:15 | 00:00:00 | |
| DK5PH-5 | 2026-09-01 00:25:36 | 48.81248 | 10.36471 | 58° | 24km/h | 30394m | 6.3m/s | -43.5°C | 2.9% | 11.8hPa | 2.6V | 00:00:00 | 01:56:15 | 00:00:00 | |
| DG9SBQ-11 | 2026-09-01 00:25:35 | 48.81244 | 10.36459 | 70° | 37km/h | 30388m | 6.7m/s | -43.6°C | 0.7% | 11.9hPa | 2.6V | 00:00:00 | 00:00:00 | 00:00:00 | |
| DM0DOS-11 | 2026-09-01 00:25:34 | 48.81239 | 10.36419 | 81° | 33km/h | 30370m | 5.7m/s | -43.8°C | 2.9% | 11.9hPa | 2.6V | 08:30:00 | 01:56:11 | 00:00:00 | |
| DK7TD | 2026-09-01 00:25:28 | 48.81231 | 10.36391 | 23° | 9km/h | 30347m | 7.4m/s | -43.9°C | 0% | 12hPa | 2.6V | 18:12:15 | 01:56:07 | 00:00:00 | |
| DL1XH-west | 2026-09-01 00:25:26 | 48.81226 | 10.36392 | 345° | 13km/h | 30335m | 5.4m/s | -43.9°C | 0.1% | 12hPa | 2.6V | 18:12:15 | 01:56:05 | 00:00:00 | |
| DL1NUX | 2026-09-01 00:25:25 | 48.81217 | 10.36392 | 11° | 22km/h | 30324m | 5.7m/s | -44°C | 2.9% | 12hPa | 2.7V | 08:30:00 | 01:56:03 | 00:00:00 | |
| BIOWL1-15 | 2026-09-01 00:25:25 | 48.81201 | 10.36362 | 81° | 31km/h | 30303m | 7m/s | -44.1°C | 0% | 12hPa | 2.6V | 18:12:15 | 01:55:59 | 00:00:00 | |
| OE5WHR-10 | 2026-09-01 00:25:24 | 48.81217 | 10.36392 | 12° | 20km/h | 30324m | 5.7m/s | -43.9°C | 2.9% | 11.9hPa | 2.7V | 00:00:00 | 00:00:00 | 08:30:00 | |
| DG9SBQ-11 | 2026-09-01 00:25:23 | 48.81217 | 10.36392 | 12° | 22km/h | 30324m | 5.7m/s | -44.0°C | 0.8% | 12.0hPa | 2.7V | 00:00:00 | 00:00:00 | 00:00:00 | |
| DO9HM | 2026-09-01 00:25:22 | 48.81211 | 10.36389 | 32° | 26km/h | 30319m | 4.4m/s | -44.0°C | 0.8% | 12.0hPa | 2.7V | 00:00:00 | 00:00:00 | 00:00:00 | |
| DM0DOS-11 | 2026-09-01 00:25:19 | 48.81199 | 10.36310 | 28° | 18km/h | 30270m | 6.5m/s | -44.3°C | 3% | 12.1hPa | 2.7V | 08:30:00 | 01:55:53 | 00:00:00 | |
| HSKMA3-T | 2026-09-01 00:25:18 | 48.81201 | 10.36339 | 102° | 29km/h | 30292m | 4.1m/s | -44.2°C | 0% | 12.1hPa | 2.6V | 18:12:15 | 01:55:57 | 00:00:00 | |
| DK7TD | 2026-09-01 00:25:17 | 48.81203 | 10.36329 | 100° | 24km/h | 30287m | 4.1m/s | -44.2°C | 0% | 12.1hPa | 2.6V | 18:12:15 | 01:55:56 | 00:00:00 | |
| DL1XH-west | 2026-09-01 00:25:15 | 48.81202 | 10.36315 | 58° | 16km/h | 30277m | 6.3m/s | -44.2°C | 0% | 12.1hPa | 2.6V | 18:12:15 | 01:55:54 | 00:00:00 | |
| DO3MHA-12 | 2026-09-01 00:25:15 | 48.81202 | 10.36314 | 58° | 18km/h | 30277m | 6.3m/s | -44.2°C | 3.0% | 12.0hPa | 2.6V | 00:00:00 | 01:55:54 | 08:30:00 | |
| OE5DRO-10 | 2026-09-01 00:25:13 | 48.81194 | 10.36308 | 13° | 18km/h | 30265m | 5.3m/s | -44.3°C | 3.0% | 12.1hPa | 2.6V | 00:00:00 | 00:00:00 | 00:00:00 | |
| DG9SBQ-11 | 2026-09-01 00:25:11 | 48.81189 | 10.36306 | 9° | 22km/h | 30260m | 5.0m/s | -44.3°C | 0.8% | 12.1hPa | 2.7V | 00:00:00 | 00:00:00 | 00:00:00 | |
| NBG1-10 | 2026-09-01 00:25:10 | 48.81180 | 10.36303 | 30° | 18km/h | 30249m | 5.3m/s | -44.4°C | 3.1% | 12.1hPa | 2.7V | 00:00:00 | 01:55:49 | 00:00:00 | |
| DM0DOS-11 | 2026-09-01 00:25:09 | 48.81176 | 10.36261 | 107° | 16km/h | 30210m | 6.3m/s | -44.6°C | 3% | 12.2hPa | 2.7V | 08:30:00 | 01:55:42 | 00:00:00 | |
| HSKMA3-T | 2026-09-01 00:25:08 | 48.81176 | 10.36288 | 81° | 18km/h | 30231m | 6.2m/s | -44.5°C | 0.1% | 12.2hPa | 2.6V | 18:12:15 | 01:55:46 | 00:00:00 | |
| DK7TD | 2026-09-01 00:25:07 | 48.81175 | 10.36281 | 84° | 18km/h | 30225m | 5.4m/s | -44.5°C | 0.1% | 12.2hPa | 2.6V | 18:12:15 | 01:55:45 | 00:00:00 | |
| DF8AY | 2026-09-01 00:25:06 | 48.81175 | 10.36267 | 98° | 16km/h | 30216m | 4.9m/s | -44.6°C | 0.1% | 12.2hPa | 2.6V | 18:12:15 | 01:55:43 | 00:00:00 | |
| DL1XH-west | 2026-09-01 00:25:05 | 48.81175 | 10.36274 | 89° | 18km/h | 30220m | 4.8m/s | -44.5°C | 0.1% | 12.2hPa | 2.6V | 18:12:15 | 01:55:44 | 00:00:00 | |
| DB0UT-7 | 2026-09-01 00:25:05 | 48.81175 | 10.36274 | 90° | 18km/h | 30221m | 4.7m/s | -44.5°C | 3.0% | 12.1hPa | 2.6V | 00:00:00 | 00:00:00 | 00:00:00 | |
| DJ2DS-15 | 2026-09-01 00:25:03 | 48.81176 | 10.36261 | 108° | 18km/h | 30210m | 6.2m/s | -44.6°C | 3.0% | 12.1hPa | 2.6V | 00:00:00 | 01:55:42 | 00:00:00 | |
| AZAK | 2026-09-01 00:25:02 | 48.81178 | 10.36250 | 94° | 11km/h | 30200m | 4.2m/s | -44.7°C | 0.8% | 12.2hPa | 2.6V | 00:00:00 | 00:00:00 | 00:00:00 | |
| OE5WHR-10 | 2026-09-01 00:25:01 | 48.81178 | 10.36250 | 94° | 16km/h | 30200m | 4.1m/s | -44.7°C | 3.1% | 12.2hPa | 2.6V | 00:00:00 | 00:00:00 | 00:00:00 | |
| DG9SBQ-11 | 2026-09-01 00:24:59 | 48.81177 | 10.36246 | 59° | 13km/h | 30195m | 5.3m/s | -44.7°C | 0.8% | 12.3hPa | 2.6V | 00:00:00 | 00:00:00 | 00:00:00 | |
| DM0DOS-11 | 2026-09-01 00:24:58 | 48.81149 | 10.36230 | 38° | 15km/h | 30161m | 5.5m/s | -44.8°C | 3.1% | 12.3hPa | 2.6V | 08:30:00 | 01:55:33 | 00:00:00 | |
| HSKMA3-T | 2026-09-01 00:24:58 | 48.81164 | 10.36237 | 13° | 26km/h | 30177m | 4.9m/s | -44.8°C | 0.1% | 12.3hPa | 2.6V | 18:12:15 | 01:55:36 | 00:00:00 | |
| DK7TD | 2026-09-01 00:24:55 | 48.81153 | 10.36233 | 19° | 20km/h | 30166m | 5.9m/s | -44.8°C | 0.1% | 12.3hPa | 2.6V | 18:12:15 | 01:55:34 | 00:00:00 | |
| DL1XH-west | 2026-09-01 00:24:54 | 48.81149 | 10.36230 | 38° | 15km/h | 30161m | 5.5m/s | -44.8°C | 0.1% | 12.3hPa | 2.6V | 18:12:15 | 01:55:33 | 00:00:00 | |
| DF8AY | 2026-09-01 00:24:53 | 48.81147 | 10.36226 | 66° | 13km/h | 30155m | 5.3m/s | -44.8°C | 0.1% | 12.3hPa | 2.6V | 18:12:15 | 01:55:32 | 00:00:00 | |
| DL1XH1-15 | 2026-09-01 00:24:53 | 48.81146 | 10.36215 | 82° | 16km/h | 30144m | 6.5m/s | -44.8°C | 3.1% | 12.3hPa | 2.6V | 08:30:00 | 01:55:30 | 00:00:00 | |
| DM7RM-13 | 2026-09-01 00:24:52 | 48.81147 | 10.36226 | 67° | 13km/h | 30155m | 5.3m/s | -44.8°C | 0.8% | 12.3hPa | 2.6V | 00:00:00 | 00:00:00 | 00:00:00 | |
| DF1GD-15 | 2026-09-01 00:24:50 | 48.81146 | 10.36215 | 84° | 16km/h | 30145m | 6.5m/s | -44.8°C | 0.8% | 12.3hPa | 2.6V | 00:00:00 | 00:00:00 | 00:00:00 | |
| DL1NUX | 2026-09-01 00:24:49 | 48.81131 | 10.36179 | 19° | 20km/h | 30105m | 6.4m/s | -44.8°C | 3.1% | 12.4hPa | 2.6V | 08:30:00 | 01:55:23 | 00:00:00 | |
| DM0DOS-11 | 2026-09-01 00:24:48 | 48.81126 | 10.36176 | 17° | 26km/h | 30099m | 6.4m/s | -44.9°C | 3.1% | 12.4hPa | 2.6V | 08:30:00 | 01:55:22 | 00:00:00 | |
| HSKMA3-T | 2026-09-01 00:24:47 | 48.81140 | 10.36189 | 62° | 15km/h | 30122m | 6.3m/s | -44.8°C | 0.1% | 12.4hPa | 2.7V | 18:12:15 | 01:55:26 | 00:00:00 | |
| DO3MHA-11 | 2026-09-01 00:24:47 | 48.81140 | 10.36189 | 62° | 18km/h | 30122m | 6.2m/s | -44.7°C | 3.1% | 12.3hPa | 2.6V | 00:00:00 | 01:55:26 | 00:00:00 | |
| DL1XH1-15 | 2026-09-01 00:24:46 | 48.81113 | 10.36170 | 20° | 24km/h | 30088m | 4.6m/s | -44.9°C | 3.1% | 12.4hPa | 2.6V | 08:30:00 | 01:55:20 | 00:00:00 | |
| DK7TD | 2026-09-01 00:24:45 | 48.81135 | 10.36181 | 27° | 16km/h | 30111m | 4.9m/s | -44.8°C | 0.2% | 12.4hPa | 2.6V | 18:12:15 | 01:55:24 | 00:00:00 | |
| DL1XH-west | 2026-09-01 00:24:44 | 48.81131 | 10.36179 | 19° | 20km/h | 30105m | 6.4m/s | -44.8°C | 0.1% | 12.4hPa | 2.6V | 18:12:15 | 01:55:23 | 00:00:00 | |
| DF8AY | 2026-09-01 00:24:43 | 48.81126 | 10.36176 | 18° | 26km/h | 30099m | 6.4m/s | -44.9°C | 0.1% | 12.4hPa | 2.6V | 18:12:15 | 01:55:22 | 00:00:00 | |
| BIOWL1-15 | 2026-09-01 00:24:41 | 48.81113 | 10.36170 | 21° | 24km/h | 30088m | 4.6m/s | -44.9°C | 0.1% | 12.4hPa | 2.6V | 18:12:15 | 01:55:20 | 00:00:00 | |
| HSKMA3-T | 2026-09-01 00:24:36 | 48.81103 | 10.36149 | 89° | 18km/h | 30061m | 6.5m/s | -44.9°C | 0.2% | 12.5hPa | 2.7V | 18:12:15 | 01:55:15 | 00:00:00 | |
| DK5PH-5 | 2026-09-01 00:24:36 | 48.81103 | 10.36149 | 89° | 18km/h | 30061m | 6.5m/s | -44.9°C | 3.1% | 12.5hPa | 2.6V | 00:00:00 | 01:55:15 | 00:00:00 | |
| DB0UT-7 | 2026-09-01 00:24:35 | 48.81102 | 10.36140 | 83° | 18km/h | 30055m | 6.1m/s | -44.9°C | 3.1% | 12.5hPa | 2.6V | 00:00:00 | 01:55:14 | 00:00:00 | |
| DL1NUX | 2026-09-01 00:24:34 | 48.81099 | 10.36122 | 69° | 26km/h | 30044m | 4.8m/s | -45°C | 3.1% | 12.5hPa | 2.6V | 08:30:00 | 01:55:12 | 00:00:00 | |
| DK7TD | 2026-09-01 00:24:34 | 48.81101 | 10.36131 | 77° | 26km/h | 30049m | 5.3m/s | -45°C | 0.1% | 12.5hPa | 2.6V | 18:12:15 | 01:55:13 | 00:00:00 | |
| DL1XH-west | 2026-09-01 00:24:33 | 48.81099 | 10.36122 | 70° | 26km/h | 30044m | 4.8m/s | -45°C | 0.2% | 12.5hPa | 2.6V | 18:12:15 | 01:55:12 | 00:00:00 | |
| HSKMA3-T | 2026-09-01 00:24:26 | 48.81071 | 10.36096 | 19° | 22km/h | 30003m | 4.7m/s | -44.9°C | 0.1% | 12.6hPa | 2.6V | 18:12:15 | 01:55:05 | 00:00:00 | |
| DL1XH1-15 | 2026-09-01 00:24:26 | 48.81060 | 10.36073 | 85° | 20km/h | 29974m | 6m/s | -44.9°C | 3.1% | 12.6hPa | 2.6V | 08:30:00 | 01:55:00 | 00:00:00 | |
| SONCRA | 2026-09-01 00:24:26 | 48.81071 | 10.36096 | 19° | 22km/h | 30003m | 4.7m/s | -44.9°C | 0.8% | 12.6hPa | 2.5V | 00:00:00 | 00:00:00 | 00:00:00 | |
| DO3MHA-12 | 2026-09-01 00:24:25 | 48.81066 | 10.36093 | 28° | 18km/h | 29998m | 5.2m/s | -44.9°C | 3.1% | 12.6hPa | 2.5V | 00:00:00 | 01:55:04 | 00:00:00 | |
| DL1NUX | 2026-09-01 00:24:24 | 48.81061 | 10.36085 | 70° | 13km/h | 29985m | 5.9m/s | -44.9°C | 3.1% | 12.6hPa | 2.5V | 08:30:00 | 01:55:02 | 00:00:00 | |
| DL1XH-west | 2026-09-01 00:24:23 | 48.81061 | 10.36085 | 71° | 13km/h | 29986m | 5.9m/s | -44.9°C | 0.1% | 12.6hPa | 2.5V | 18:12:15 | 01:55:02 | 00:00:00 | |
| DF8AY | 2026-09-01 00:24:22 | 48.81060 | 10.36080 | 85° | 16km/h | 29980m | 5.2m/s | -44.9°C | 0.1% | 12.7hPa | 2.6V | 18:12:15 | 01:55:01 | 00:00:00 | |
| HSKMA3-T | 2026-09-01 00:24:15 | 48.81049 | 10.36032 | 11° | 9km/h | 29941m | 6.9m/s | -45.1°C | 0.2% | 12.7hPa | 2.7V | 18:12:15 | 01:54:54 | 00:00:00 | |
| DO3MHA-12 | 2026-09-01 00:24:15 | 48.81049 | 10.36032 | 12° | 15km/h | 29941m | 6.9m/s | -45.0°C | 3.1% | 12.7hPa | 2.7V | 00:00:00 | 01:54:54 | 00:00:00 | |
| DL1NUX | 2026-09-01 00:24:14 | 48.81044 | 10.36036 | 324° | 13km/h | 29929m | 5.1m/s | -45.1°C | 3.1% | 12.7hPa | 2.6V | 08:30:00 | 01:54:52 | 00:00:00 | |
| DL1XH1-15 | 2026-09-01 00:24:13 | 48.81038 | 10.36039 | 355° | 15km/h | 29917m | 6m/s | -45.2°C | 3.2% | 12.8hPa | 2.6V | 08:30:00 | 01:54:50 | 00:00:00 | |
| DK7TD | 2026-09-01 00:24:13 | 48.81044 | 10.36035 | 324° | 13km/h | 29929m | 5.1m/s | -45.1°C | 0.2% | 12.8hPa | 2.6V | 18:12:15 | 01:54:52 | 00:00:00 | |
| DL1XH-west | 2026-09-01 00:24:12 | 48.81042 | 10.36038 | 336° | 15km/h | 29923m | 6.1m/s | -45.1°C | 0.1% | 12.8hPa | 2.6V | 18:12:15 | 01:54:51 | 00:00:00 | |
| DM7RM-13 | 2026-09-01 00:24:10 | 48.81038 | 10.36039 | 357° | 16km/h | 29918m | 6.0m/s | -45.2°C | 0.9% | 12.8hPa | 2.6V | 00:00:00 | 00:00:00 | 00:00:00 | |
| OE5DXL-15 | 2026-09-01 00:24:09 | 48.81030 | 10.36036 | 38° | 11km/h | 29907m | 5.4m/s | -45.1°C | 3.2% | 12.7hPa | 2.6V | 00:00:00 | 00:00:00 | 00:00:00 | |
| DL1NUX | 2026-09-01 00:24:08 | 48.81021 | 10.36003 | 59° | 16km/h | 29870m | 6m/s | -45.3°C | 3.2% | 12.9hPa | 2.6V | 08:30:00 | 01:54:42 | 00:00:00 | |
| HSKMA3-T | 2026-09-01 00:24:04 | 48.81023 | 10.36008 | 73° | 16km/h | 29876m | 6.6m/s | -45.3°C | 0.2% | 12.8hPa | 2.7V | 18:12:15 | 01:54:43 | 00:00:00 | |
| DL1XH-west | 2026-09-01 00:24:02 | 48.81019 | 10.35998 | 41° | 13km/h | 29865m | 4.6m/s | -45.4°C | 0.2% | 12.9hPa | 2.6V | 18:12:15 | 01:54:41 | 00:00:00 | |
| DF8AY | 2026-09-01 00:24:01 | 48.81017 | 10.35996 | 17° | 11km/h | 29860m | 4.9m/s | -45.4°C | 0.2% | 12.9hPa | 2.6V | 18:12:15 | 01:54:40 | 00:00:00 | |
| DF3TZ-5 | 2026-09-01 00:24:00 | 48.81013 | 10.35998 | 302° | 7km/h | 29847m | 6.7m/s | -45.4°C | 0.8% | 12.9hPa | 2.6V | 00:00:00 | 00:00:00 | 00:00:00 | |
| DG9SBQ-11 | 2026-09-01 00:23:59 | 48.81014 | 10.35996 | 347° | 9km/h | 29854m | 7.1m/s | -45.4°C | 0.8% | 12.9hPa | 2.6V | 00:00:00 | 00:00:00 | 00:00:00 | |
| OE5MMP-10 | 2026-09-01 00:23:58 | 48.81012 | 10.36001 | 284° | 11km/h | 29841m | 5.1m/s | -45.3°C | 3.2% | 12.9hPa | 2.6V | 00:00:00 | 01:54:37 | 00:00:00 | |
| DO3MHA-12 | 2026-09-01 00:23:55 | 48.81009 | 10.36007 | 16° | 11km/h | 29826m | 6.7m/s | -45.3°C | 3.2% | 12.9hPa | 2.6V | 00:00:00 | 01:54:34 | 00:00:00 | |
| DL1NUX | 2026-09-01 00:23:54 | 48.81003 | 10.36001 | 43° | 18km/h | 29812m | 5.5m/s | -45.3°C | 3.2% | 13hPa | 2.6V | 08:30:00 | 01:54:32 | 00:00:00 | |
| HSKMA3-T | 2026-09-01 00:23:54 | 48.81003 | 10.36001 | 43° | 18km/h | 29812m | 5.5m/s | -45.3°C | 0.2% | 13hPa | 2.6V | 18:12:15 | 01:54:32 | 00:00:00 | |
| BIOWL1-15 | 2026-09-01 00:23:52 | 48.81000 | 10.35996 | 46° | 18km/h | 29807m | 5.2m/s | -45.3°C | 0.2% | 13hPa | 2.6V | 18:12:15 | 01:54:31 | 00:00:00 | |
| DF8AY | 2026-09-01 00:23:51 | 48.80999 | 10.35977 | 120° | 9km/h | 29763m | 6.3m/s | -45.1°C | 0.2% | 13.1hPa | 2.6V | 18:12:15 | 01:54:24 | 00:00:00 | |
| DL1XH-west | 2026-09-01 00:23:51 | 48.80997 | 10.35991 | 50° | 16km/h | 29801m | 6.2m/s | -45.3°C | 0.2% | 13hPa | 2.6V | 18:12:15 | 01:54:30 | 00:00:00 | |
| DK7TD | 2026-09-01 00:23:49 | 48.80994 | 10.35985 | 84° | 4km/h | 29789m | 6.3m/s | -45.2°C | 0.2% | 13hPa | 2.6V | 18:12:15 | 01:54:28 | 00:00:00 | |
| DM7RM-13 | 2026-09-01 00:23:49 | 48.80995 | 10.35987 | 57° | 9km/h | 29795m | 6.5m/s | -45.3°C | 0.9% | 13.0hPa | 2.7V | 00:00:00 | 00:00:00 | 00:00:00 | |
| OE5MMP-10 | 2026-09-01 00:23:48 | 48.80995 | 10.35983 | 141° | 9km/h | 29783m | 5.9m/s | -45.2°C | 3.2% | 13.0hPa | 2.7V | 00:00:00 | 01:54:27 | 00:00:00 | |
| DO3MHA-11 | 2026-09-01 00:23:47 | 48.80996 | 10.35982 | 150° | 11km/h | 29777m | 5.9m/s | -45.1°C | 3.2% | 13.0hPa | 2.6V | 00:00:00 | 01:54:26 | 00:00:00 | |
| DL1XH1-15 | 2026-09-01 00:23:46 | 48.81003 | 10.35964 | 115° | 9km/h | 29739m | 5.4m/s | -45°C | 3.2% | 13.1hPa | 2.6V | 08:30:00 | 01:54:20 | 00:00:00 | |
| DL1NUX | 2026-09-01 00:23:45 | 48.81001 | 10.35970 | 117° | 9km/h | 29751m | 6.2m/s | -45.1°C | 3.2% | 13.1hPa | 2.7V | 08:30:00 | 01:54:22 | 00:00:00 | |
| DL6DJ-15 | 2026-09-01 00:23:44 | 48.81000 | 10.35974 | 115° | 9km/h | 29758m | 5.7m/s | -45.1°C | 0.8% | 13.1hPa | 2.7V | 00:00:00 | 00:00:00 | 00:00:00 | |
| HSKMA3-T | 2026-09-01 00:23:43 | 48.81001 | 10.35970 | 118° | 9km/h | 29751m | 6.3m/s | -45.1°C | 0.2% | 13.1hPa | 2.7V | 18:12:15 | 01:54:22 | 00:00:00 | |
| DL1XH-west | 2026-09-01 00:23:40 | 48.81004 | 10.35961 | 99° | 11km/h | 29734m | 5.1m/s | -45°C | 0.2% | 13.1hPa | 2.6V | 18:12:15 | 01:54:19 | 00:00:00 | |
| DK7TD | 2026-09-01 00:23:39 | 48.81004 | 10.35956 | 82° | 15km/h | 29728m | 6.5m/s | -45°C | 0.1% | 13.1hPa | 2.6V | 18:12:15 | 01:54:18 | 00:00:00 | |
| DF8AY | 2026-09-01 00:23:35 | 48.80998 | 10.35930 | 77° | 15km/h | 29704m | 6.5m/s | -45.1°C | 0.2% | 13.2hPa | 2.6V | 18:12:15 | 01:54:14 | 00:00:00 | |
| DO3MHA-12 | 2026-09-01 00:23:35 | 48.80998 | 10.35930 | 77° | 20km/h | 29704m | 6.5m/s | -45.0°C | 3.2% | 13.2hPa | 2.6V | 00:00:00 | 01:54:14 | 00:00:00 | |
| DL1NUX | 2026-09-01 00:23:34 | 48.80999 | 10.35923 | 138° | 11km/h | 29691m | 5.6m/s | -45°C | 3.2% | 13.2hPa | 2.6V | 08:30:00 | 01:54:12 | 00:00:00 | |
| DL1XH1-15 | 2026-09-01 00:23:33 | 48.81005 | 10.35916 | 143° | 18km/h | 29680m | 5.9m/s | -45.1°C | 3.1% | 13.2hPa | 2.6V | 08:30:00 | 01:54:10 | 00:00:00 | |
| HSKMA3-T | 2026-09-01 00:23:33 | 48.80999 | 10.35923 | 139° | 11km/h | 29691m | 5.6m/s | -45.1°C | 0.2% | 13.2hPa | 2.6V | 18:12:15 | 01:54:12 | 00:00:00 | |
| DL1XH-west | 2026-09-01 00:23:29 | 48.81013 | 10.35904 | 122° | 27km/h | 29668m | 6.2m/s | -45.1°C | 0.2% | 13.2hPa | 2.6V | 18:12:15 | 01:54:08 | 00:00:00 | |
| DK7TD | 2026-09-01 00:23:28 | 48.81016 | 10.35894 | 113° | 27km/h | 29662m | 5.7m/s | -45.1°C | 0.2% | 13.3hPa | 2.6V | 18:12:15 | 01:54:07 | 00:00:00 | |
| OE5MMP-10 | 2026-09-01 00:23:28 | 48.81016 | 10.35894 | 113° | 24km/h | 29662m | 5.6m/s | -45.1°C | 3.2% | 13.2hPa | 2.7V | 00:00:00 | 01:54:07 | 00:00:00 | |
| DO3MHA-11 | 2026-09-01 00:23:27 | 48.81018 | 10.35884 | 107° | 22km/h | 29656m | 5.4m/s | -45.1°C | 3.2% | 13.2hPa | 2.7V | 00:00:00 | 01:54:06 | 00:00:00 | |
| DL1XH1-15 | 2026-09-01 00:23:26 | 48.81027 | 10.35836 | 110° | 24km/h | 29618m | 5.6m/s | -45.1°C | 3.2% | 13.3hPa | 2.7V | 08:30:00 | 01:54:00 | 00:00:00 | |
| BIOWL1-15 | 2026-09-01 00:23:24 | 48.81023 | 10.35859 | 104° | 20km/h | 29637m | 6.1m/s | -45.1°C | 0.2% | 13.3hPa | 2.6V | 18:12:15 | 01:54:03 | 00:00:00 | |
| HSKMA3-T | 2026-09-01 00:23:23 | 48.81024 | 10.35852 | 107° | 20km/h | 29631m | 6.2m/s | -45.1°C | 0.2% | 13.3hPa | 2.6V | 18:12:15 | 01:54:02 | 00:00:00 | |
| DL1XH-west | 2026-09-01 00:23:19 | 48.81032 | 10.35820 | 122° | 20km/h | 29607m | 6.7m/s | -45.1°C | 0.2% | 13.4hPa | 2.6V | 18:12:15 | 01:53:58 | 00:00:00 | |
| DK7TD | 2026-09-01 00:23:18 | 48.81035 | 10.35815 | 133° | 18km/h | 29600m | 7.2m/s | -45.1°C | 0.2% | 13.4hPa | 2.6V | 18:12:15 | 01:53:57 | 00:00:00 | |
| HSKMA3-T | 2026-09-01 00:23:13 | 48.81047 | 10.35788 | 100° | 22km/h | 29568m | 5.8m/s | -45°C | 0.2% | 13.4hPa | 2.6V | 18:12:15 | 01:53:52 | 00:00:00 | |
| DF8AY | 2026-09-01 00:23:09 | 48.81069 | 10.35706 | 91° | 13km/h | 29461m | 6.7m/s | -45.1°C | 0.1% | 13.7hPa | 2.6V | 18:12:15 | 01:53:35 | 00:00:00 | |
| DL1XH-west | 2026-09-01 00:23:09 | 48.81049 | 10.35762 | 99° | 9km/h | 29543m | 6.3m/s | -45°C | 0.1% | 13.5hPa | 2.6V | 18:12:15 | 01:53:48 | 00:00:00 | |
| DK7TD | 2026-09-01 00:23:07 | 48.81050 | 10.35755 | 104° | 9km/h | 29531m | 6.6m/s | -45°C | 0.1% | 13.5hPa | 2.6V | 18:12:15 | 01:53:46 | 00:00:00 | |
| DO3MHA-11 | 2026-09-01 00:23:07 | 48.81049 | 10.35755 | 104° | 15km/h | 29532m | 6.5m/s | -44.9°C | 3.1% | 13.5hPa | 2.6V | 00:00:00 | 01:53:46 | 00:00:00 | |
| DK5PH-5 | 2026-09-01 00:23:06 | 48.81050 | 10.35751 | 104° | 11km/h | 29525m | 7.0m/s | -44.9°C | 3.1% | 13.5hPa | 2.6V | 00:00:00 | 01:53:45 | 00:00:00 | |
| DB0UT-7 | 2026-09-01 00:23:05 | 48.81051 | 10.35747 | 109° | 11km/h | 29519m | 5.8m/s | -44.9°C | 3.1% | 13.5hPa | 2.6V | 00:00:00 | 00:00:00 | 00:00:00 | |
| DL1NUX | 2026-09-01 00:23:04 | 48.81055 | 10.35736 | 128° | 15km/h | 29506m | 7m/s | -45°C | 3.1% | 13.6hPa | 2.6V | 08:30:00 | 01:53:42 | 00:00:00 | |
| HSKMA3-T | 2026-09-01 00:23:02 | 48.81057 | 10.35732 | 141° | 15km/h | 29499m | 7.1m/s | -45°C | 0.1% | 13.6hPa | 2.6V | 18:12:15 | 01:53:41 | 00:00:00 | |
| DF8AY | 2026-09-01 00:23:00 | 48.81068 | 10.35702 | 81° | 9km/h | 29454m | 7.1m/s | -45.1°C | 0.2% | 13.7hPa | 2.6V | 18:12:15 | 01:53:34 | 00:00:00 | |
| DL1XH-west | 2026-09-01 00:22:58 | 48.81067 | 10.35717 | 110° | 16km/h | 29473m | 6.5m/s | -45.1°C | 0.1% | 13.7hPa | 2.5V | 18:12:15 | 01:53:37 | 00:00:00 | |
| DL1NUX | 2026-09-01 00:22:58 | 48.81067 | 10.35696 | 48° | 7km/h | 29441m | 6.5m/s | -45.1°C | 3.1% | 13.7hPa | 2.6V | 08:30:00 | 01:53:32 | 00:00:00 | |
| DK7TD | 2026-09-01 00:22:57 | 48.81068 | 10.35711 | 100° | 15km/h | 29467m | 5.5m/s | -45.1°C | 0.2% | 13.7hPa | 2.6V | 18:12:15 | 01:53:36 | 00:00:00 | |
| DO3MHA-11 | 2026-09-01 00:22:57 | 48.81068 | 10.35711 | 100° | 11km/h | 29467m | 5.4m/s | -45.1°C | 3.1% | 13.6hPa | 2.6V | 00:00:00 | 01:53:36 | 00:00:00 | |
| DO3MHA-12 | 2026-09-01 00:22:55 | 48.81068 | 10.35701 | 82° | 9km/h | 29454m | 7.0m/s | -45.1°C | 3.1% | 13.6hPa | 2.6V | 00:00:00 | 01:53:34 | 00:00:00 | |
| AM1SDL-15 | 2026-09-01 00:22:54 | 48.81068 | 10.35699 | 59° | 9km/h | 29448m | 5.9m/s | -45.1°C | 3.1% | 13.7hPa | 2.6V | 00:00:00 | 01:53:33 | 00:00:00 | |
| DL1XH1-15 | 2026-09-01 00:22:53 | 48.81063 | 10.35690 | 53° | 13km/h | 29427m | 6.7m/s | -45.1°C | 3.1% | 13.7hPa | 2.6V | 08:30:00 | 01:53:30 | 00:00:00 | |
| BIOWL1-15 | 2026-09-01 00:22:53 | 48.81067 | 10.35696 | 49° | 7km/h | 29441m | 6.5m/s | -45.1°C | 0.1% | 13.7hPa | 2.6V | 18:12:15 | 01:53:32 | 00:00:00 | |
| HSKMA3-T | 2026-09-01 00:22:51 | 48.81063 | 10.35690 | 53° | 13km/h | 29427m | 6.7m/s | -45.1°C | 0.1% | 13.7hPa | 2.6V | 18:12:15 | 01:53:30 | 00:00:00 | |
| DL1XH-west | 2026-09-01 00:22:48 | 48.81060 | 10.35679 | 90° | 7km/h | 29409m | 7.3m/s | -45.1°C | 0.1% | 13.8hPa | 2.6V | 18:12:15 | 01:53:27 | 00:00:00 | |
| DK7TD | 2026-09-01 00:22:46 | 48.81062 | 10.35675 | 147° | 7km/h | 29395m | 5.7m/s | -45.2°C | 0.1% | 13.8hPa | 2.6V | 18:12:15 | 01:53:25 | 00:00:00 | |
| DF8AY | 2026-09-01 00:22:45 | 48.81063 | 10.35674 | 132° | 7km/h | 29390m | 5.6m/s | -45.2°C | 0.1% | 13.8hPa | 2.6V | 18:12:15 | 01:53:24 | 00:00:00 | |
| DO3MHA-12 | 2026-09-01 00:22:45 | 48.81063 | 10.35673 | 132° | 9km/h | 29390m | 5.6m/s | -45.1°C | 3.1% | 13.8hPa | 2.6V | 00:00:00 | 01:53:24 | 00:00:00 | |
| DL1NUX | 2026-09-01 00:22:44 | 48.81064 | 10.35667 | 85° | 13km/h | 29376m | 6.5m/s | -45.2°C | 3.1% | 13.8hPa | 2.6V | 08:30:00 | 01:53:22 | 00:00:00 | |
| BIOWL1-15 | 2026-09-01 00:22:43 | 48.81064 | 10.35661 | 73° | 15km/h | 29370m | 6.1m/s | -45.3°C | 0.2% | 13.9hPa | 2.6V | 18:12:15 | 01:53:21 | 00:00:00 | |
| HSKMA3-T | 2026-09-01 00:22:40 | 48.81061 | 10.35652 | 60° | 11km/h | 29357m | 7.1m/s | -45.4°C | 0.2% | 13.9hPa | 2.6V | 18:12:15 | 01:53:19 | 00:00:00 | |
| DL1XH-west | 2026-09-01 00:22:38 | 48.81059 | 10.35647 | 64° | 5km/h | 29344m | 5.4m/s | -45.5°C | 0.2% | 13.9hPa | 2.7V | 18:12:15 | 01:53:17 | 00:00:00 | |
| DK7TD | 2026-09-01 00:22:36 | 48.81058 | 10.35642 | 78° | 9km/h | 29332m | 7.2m/s | -45.6°C | 0.2% | 13.9hPa | 2.6V | 18:12:15 | 01:53:15 | 00:00:00 | |
| DK5PH-5 | 2026-09-01 00:22:36 | 48.81058 | 10.35642 | 78° | 11km/h | 29332m | 7.1m/s | -45.5°C | 3.2% | 13.9hPa | 2.6V | 00:00:00 | 01:53:15 | 08:30:00 | |
| SO1NDE-10 | 2026-09-01 00:22:34 | 48.81057 | 10.35634 | 92° | 11km/h | 29320m | 5.5m/s | -45.5°C | 3.2% | 13.9hPa | 2.6V | 00:00:00 | 01:53:13 | 00:00:00 | |
| DL1XH1-15 | 2026-09-01 00:22:33 | 48.81060 | 10.35627 | 167° | 7km/h | 29300m | 6.6m/s | -45.6°C | 3.2% | 14hPa | 2.6V | 08:30:00 | 01:53:10 | 00:00:00 | |
| BIOWL1-15 | 2026-09-01 00:22:31 | 48.81061 | 10.35626 | 167° | 5km/h | 29294m | 5.5m/s | -45.6°C | 0.2% | 14hPa | 2.6V | 18:12:15 | 01:53:09 | 00:00:00 | |
| HSKMA3-T | 2026-09-01 00:22:29 | 48.81063 | 10.35625 | 131° | 5km/h | 29288m | 6.6m/s | -45.6°C | 0.2% | 14hPa | 2.6V | 18:12:15 | 01:53:08 | 00:00:00 | |
| DL1XH-west | 2026-09-01 00:22:28 | 48.81057 | 10.35609 | 42° | 11km/h | 29254m | 6.4m/s | -45.8°C | 0.2% | 14.1hPa | 2.6V | 18:12:15 | 01:53:03 | 00:00:00 | |
| DK7TD | 2026-09-01 00:22:26 | 48.81059 | 10.35612 | 47° | 13km/h | 29261m | 7.2m/s | -45.8°C | 0.3% | 14.1hPa | 2.6V | 18:12:15 | 01:53:04 | 00:00:00 | |
| DF8AY | 2026-09-01 00:22:24 | 48.81051 | 10.35588 | 127° | 11km/h | 29218m | 6.2m/s | -45.7°C | 0.2% | 14.2hPa | 2.6V | 18:12:15 | 01:52:57 | 00:00:00 | |
| BIOWL1-15 | 2026-09-01 00:22:23 | 48.81057 | 10.35584 | 172° | 16km/h | 29204m | 6.2m/s | -45.7°C | 0.2% | 14.2hPa | 2.6V | 18:12:15 | 01:52:55 | 00:00:00 | |
| DG9SBQ-11 | 2026-09-01 00:22:23 | 48.81056 | 10.35609 | 43° | 11km/h | 29255m | 6.4m/s | -45.8°C | 0.8% | 14.1hPa | 2.6V | 00:00:00 | 00:00:00 | 00:00:00 | |
| DL1NUX | 2026-09-01 00:22:22 | 48.81052 | 10.35600 | 60° | 13km/h | 29236m | 7.1m/s | -45.7°C | 3.3% | 14.1hPa | 2.6V | 08:30:00 | 01:53:00 | 00:00:00 | |
| HSKMA3-T | 2026-09-01 00:22:19 | 48.81050 | 10.35591 | 96° | 11km/h | 29224m | 5.3m/s | -45.7°C | 0.2% | 14.2hPa | 2.6V | 18:12:15 | 01:52:58 | 00:00:00 | |
| DL1XH-west | 2026-09-01 00:22:17 | 48.81053 | 10.35585 | 156° | 13km/h | 29211m | 7.6m/s | -45.7°C | 0.2% | 14.2hPa | 2.7V | 18:12:15 | 01:52:56 | 00:00:00 | |
| DK7TD | 2026-09-01 00:22:14 | 48.81064 | 10.35582 | 162° | 13km/h | 29193m | 5.4m/s | -45.7°C | 0.3% | 14.3hPa | 2.6V | 18:12:15 | 01:52:53 | 00:00:00 | |
| DF8AY | 2026-09-01 00:22:10 | 48.81063 | 10.35568 | 42° | 15km/h | 29168m | 6m/s | -45.7°C | 0.2% | 14.3hPa | 2.6V | 18:12:15 | 01:52:49 | 00:00:00 | |
| HSKMA3-T | 2026-09-01 00:22:09 | 48.81060 | 10.35565 | 30° | 13km/h | 29161m | 7.1m/s | -45.7°C | 0.2% | 14.3hPa | 2.6V | 18:12:15 | 01:52:48 | 00:00:00 | |
| BIOWL1-15 | 2026-09-01 00:22:08 | 48.81058 | 10.35563 | 23° | 9km/h | 29154m | 6.4m/s | -45.7°C | 0.2% | 14.3hPa | 2.6V | 18:12:15 | 01:52:47 | 00:00:00 | |
| DL1XH-west | 2026-09-01 00:22:06 | 48.81055 | 10.35561 | 54° | 4km/h | 29142m | 6.6m/s | -45.7°C | 0.2% | 14.3hPa | 2.7V | 18:12:15 | 01:52:45 | 00:00:00 | |
| DK5PH-5 | 2026-09-01 00:22:06 | 48.81055 | 10.35560 | 55° | 11km/h | 29143m | 6.6m/s | -45.6°C | 3.2% | 14.3hPa | 2.7V | 00:00:00 | 01:52:45 | 00:00:00 | |
| DL1NUX | 2026-09-01 00:22:05 | 48.81070 | 10.35546 | 173° | 18km/h | 29103m | 5.3m/s | -45.8°C | 3.2% | 14.4hPa | 2.7V | 08:30:00 | 01:52:39 | 00:00:00 | |
| DK7TD | 2026-09-01 00:22:04 | 48.81056 | 10.35556 | 126° | 11km/h | 29129m | 6.3m/s | -45.7°C | 0.2% | 14.4hPa | 2.5V | 18:12:15 | 01:52:43 | 00:00:00 | |
| SO1NDE-10 | 2026-09-01 00:22:04 | 48.81056 | 10.35556 | 127° | 9km/h | 29129m | 6.3m/s | -45.7°C | 3.2% | 14.3hPa | 2.6V | 00:00:00 | 01:52:43 | 00:00:00 | |
| DL1XH1-15 | 2026-09-01 00:22:03 | 48.81066 | 10.35547 | 166° | 18km/h | 29109m | 7.2m/s | -45.8°C | 3.2% | 14.4hPa | 2.6V | 08:30:00 | 01:52:40 | 00:00:00 | |
| DF8AY | 2026-09-01 00:22:00 | 48.81071 | 10.35537 | 18° | 16km/h | 29072m | 6.1m/s | -45.8°C | 0.2% | 14.5hPa | 2.7V | 18:12:15 | 01:52:34 | 00:00:00 | |
| HSKMA3-T | 2026-09-01 00:21:59 | 48.81074 | 10.35545 | 170° | 13km/h | 29098m | 4.8m/s | -45.8°C | 0.2% | 14.4hPa | 2.6V | 18:12:15 | 01:52:38 | 00:00:00 | |
| BIOWL1-15 | 2026-09-01 00:21:57 | 48.81057 | 10.35537 | 355° | 7km/h | 29049m | 4.9m/s | -45.8°C | 0.3% | 14.6hPa | 2.6V | 18:12:15 | 01:52:30 | 00:00:00 | |
| DO3MHA-11 | 2026-09-01 00:21:57 | 48.81077 | 10.35542 | 63° | 11km/h | 29086m | 7.0m/s | -45.8°C | 3.3% | 14.4hPa | 2.6V | 00:00:00 | 01:52:36 | 00:00:00 | |
| DL1XH1-15 | 2026-09-01 00:21:56 | 48.81057 | 10.35537 | 355° | 7km/h | 29049m | 4.9m/s | -45.8°C | 3.3% | 14.6hPa | 2.6V | 08:30:00 | 01:52:30 | 00:00:00 | |
| DL1XH-west | 2026-09-01 00:21:55 | 48.81067 | 10.35536 | 8° | 18km/h | 29066m | 7.2m/s | -45.8°C | 0.2% | 14.5hPa | 2.6V | 18:12:15 | 01:52:33 | 00:00:00 | |
| DK7TD | 2026-09-01 00:21:54 | 48.81063 | 10.35536 | 356° | 16km/h | 29059m | 6m/s | -45.8°C | 0.2% | 14.5hPa | 2.6V | 18:12:15 | 01:52:32 | 00:00:00 | |
| DF8AY | 2026-09-01 00:21:50 | 48.81056 | 10.35537 | 42° | 4km/h | 29043m | 6.9m/s | -45.8°C | 0.2% | 14.6hPa | 2.6V | 18:12:15 | 01:52:29 | 00:00:00 | |
| HSKMA3-T | 2026-09-01 00:21:49 | 48.81055 | 10.35535 | 95° | 7km/h | 29036m | 7.1m/s | -45.8°C | 0.2% | 14.6hPa | 2.7V | 18:12:15 | 01:52:28 | 00:00:00 | |
| OE5MMP-10 | 2026-09-01 00:21:48 | 48.81056 | 10.35531 | 112° | 9km/h | 29030m | 6.0m/s | -45.8°C | 3.2% | 14.5hPa | 2.6V | 00:00:00 | 01:52:27 | 00:00:00 | |
| DO3MHA-11 | 2026-09-01 00:21:47 | 48.81057 | 10.35527 | 123° | 11km/h | 29024m | 5.0m/s | -45.8°C | 3.3% | 14.6hPa | 2.6V | 00:00:00 | 01:52:26 | 00:00:00 | |
| DL1NUX | 2026-09-01 00:21:46 | 48.81064 | 10.35525 | 243° | 9km/h | 29000m | 5.6m/s | -45.8°C | 3.3% | 14.7hPa | 2.6V | 08:30:00 | 01:52:22 | 00:00:00 | |
| DF1GD-15 | 2026-09-01 00:21:46 | 48.81059 | 10.35524 | 138° | 11km/h | 29019m | 5.5m/s | -45.9°C | 0.9% | 14.6hPa | 2.6V | 00:00:00 | 00:00:00 | 00:00:00 | |
| DM0DOS-11 | 2026-09-01 00:21:45 | 48.81065 | 10.35527 | 273° | 7km/h | 28995m | 4.7m/s | -45.8°C | 3.3% | 14.7hPa | 2.6V | 08:30:00 | 01:52:21 | 00:00:00 | |
| DO3MHA-12 | 2026-09-01 00:21:45 | 48.81061 | 10.35522 | 165° | 13km/h | 29013m | 6.5m/s | -45.8°C | 3.2% | 14.6hPa | 2.6V | 00:00:00 | 01:52:24 | 00:00:00 | |
| DL1XH1-15 | 2026-09-01 00:21:43 | 48.81064 | 10.35529 | 328° | 5km/h | 28990m | 4.8m/s | -45.8°C | 3.2% | 14.7hPa | 2.6V | 08:30:00 | 01:52:20 | 00:00:00 | |
| DK7TD | 2026-09-01 00:21:43 | 48.81064 | 10.35525 | 244° | 9km/h | 29000m | 5.6m/s | -45.8°C | 0.2% | 14.7hPa | 2.6V | 18:12:15 | 01:52:22 | 00:00:00 | |
| DF8AY | 2026-09-01 00:21:39 | 48.81059 | 10.35527 | 40° | 16km/h | 28977m | 7m/s | -45.8°C | 0.2% | 14.7hPa | 2.7V | 18:12:15 | 01:52:18 | 00:00:00 | |
| OE5DXL-15 | 2026-09-01 00:21:39 | 48.81059 | 10.35527 | 41° | 9km/h | 28977m | 6.9m/s | -45.8°C | 3.2% | 14.7hPa | 2.6V | 00:00:00 | 00:00:00 | 00:00:00 | |
| OE5MMP-10 | 2026-09-01 00:21:38 | 48.81056 | 10.35522 | 49° | 9km/h | 28971m | 5.5m/s | -45.8°C | 3.2% | 14.7hPa | 2.6V | 00:00:00 | 01:52:17 | 00:00:00 | |
| HSKMA3-T | 2026-09-01 00:21:38 | 48.81056 | 10.35522 | 49° | 22km/h | 28971m | 5.5m/s | -45.8°C | 0.2% | 14.7hPa | 2.6V | 18:12:15 | 01:52:17 | 00:00:00 | |
| DO3MHA-11 | 2026-09-01 00:21:37 | 48.81053 | 10.35515 | 52° | 9km/h | 28966m | 4.8m/s | -45.8°C | 3.2% | 14.7hPa | 2.6V | 00:00:00 | 01:52:16 | 00:00:00 | |
| DL1XH1-15 | 2026-09-01 00:21:36 | 48.81042 | 10.35512 | 273° | 9km/h | 28931m | 6.6m/s | -45.9°C | 3.2% | 14.8hPa | 2.6V | 08:30:00 | 01:52:10 | 00:00:00 | |
| DL1XH-west | 2026-09-01 00:21:33 | 48.81043 | 10.35512 | 274° | 9km/h | 28931m | 6.6m/s | -45.9°C | 0.2% | 14.8hPa | 2.6V | 18:12:15 | 01:52:10 | 00:00:00 | |
| DL1NUX | 2026-09-01 00:21:33 | 48.81041 | 10.35517 | 11° | 5km/h | 28913m | 5.3m/s | -45.9°C | 3.2% | 14.8hPa | 2.7V | 08:30:00 | 01:52:07 | 00:00:00 | |
| DK7TD | 2026-09-01 00:21:32 | 48.81043 | 10.35509 | 276° | 9km/h | 28937m | 5.4m/s | -45.9°C | 0.2% | 14.8hPa | 2.6V | 18:12:15 | 01:52:11 | 00:00:00 | |
| DJ2DS-15 | 2026-09-01 00:21:32 | 48.81043 | 10.35509 | 277° | 7km/h | 28937m | 5.4m/s | -45.8°C | 3.2% | 14.8hPa | 2.6V | 00:00:00 | 01:52:11 | 00:00:00 | |
| EDDB2-11 | 2026-09-01 00:21:31 | 48.81043 | 10.35512 | 273° | 7km/h | 28931m | 6.6m/s | -45.9°C | 0.8% | 14.8hPa | 2.6V | 00:00:00 | 00:00:00 | 00:00:00 | |
| PG1ADW-2 | 2026-09-01 00:21:30 | 48.81042 | 10.35515 | 285° | 7km/h | 28925m | 6.4m/s | -45.8°C | 3.2% | 14.8hPa | 2.6V | 00:00:00 | 00:00:00 | 00:00:00 | |
| DN1GJH-1 | 2026-09-01 00:21:29 | 48.81042 | 10.35515 | 285° | 5km/h | 28925m | 6.4m/s | -45.9°C | 0.9% | 14.8hPa | 2.6V | 00:00:00 | 00:00:00 | 00:00:00 | |
| BIOWL1-15 | 2026-09-01 00:21:28 | 48.81053 | 10.35490 | 136° | 20km/h | 28787m | 7m/s | -46.6°C | 0.2% | 15.1hPa | 2.6V | 18:12:15 | 01:51:46 | 00:00:00 | |
| HSKMA3-T | 2026-09-01 00:21:28 | 48.81041 | 10.35517 | 11° | 5km/h | 28913m | 5.3m/s | -45.9°C | 0.2% | 14.8hPa | 2.7V | 18:12:15 | 01:52:07 | 00:00:00 | |
| DO3MHA-11 | 2026-09-01 00:21:27 | 48.81040 | 10.35516 | 16° | 7km/h | 28908m | 6.1m/s | -45.9°C | 3.2% | 14.8hPa | 2.6V | 00:00:00 | 01:52:06 | 00:00:00 | |
| OE5WHR-10 | 2026-09-01 00:21:25 | 48.81036 | 10.35516 | 359° | 9km/h | 28895m | 6.2m/s | -46.0°C | 3.2% | 14.8hPa | 2.6V | 00:00:00 | 01:52:04 | 00:00:00 | |
| DM7RM-13 | 2026-09-01 00:21:24 | 48.81036 | 10.35516 | 360° | 5km/h | 28895m | 6.2m/s | -46.1°C | 0.9% | 14.9hPa | 2.6V | 00:00:00 | 00:00:00 | 00:00:00 | |
| DL1XH1-15 | 2026-09-01 00:21:23 | 48.81032 | 10.35510 | 90° | 9km/h | 28870m | 6.2m/s | -46.2°C | 3.2% | 14.9hPa | 2.6V | 08:30:00 | 01:52:00 | 00:00:00 | |
| DL1XH-west | 2026-09-01 00:21:23 | 48.81034 | 10.35515 | 39° | 5km/h | 28883m | 5.4m/s | -46.1°C | 0.3% | 14.9hPa | 2.6V | 18:12:15 | 01:52:02 | 00:00:00 | |
| DK7TD | 2026-09-01 00:21:22 | 48.81032 | 10.35510 | 91° | 9km/h | 28870m | 6.2m/s | -46.2°C | 0.2% | 14.9hPa | 2.6V | 18:12:15 | 01:52:00 | 00:00:00 | |
| DF8AY | 2026-09-01 00:21:18 | 48.81065 | 10.35471 | 138° | 24km/h | 28768m | 5.9m/s | -46.7°C | 0.3% | 15.2hPa | 2.6V | 18:12:15 | 01:51:43 | 00:00:00 | |
| DO9HM | 2026-09-01 00:21:18 | 48.81045 | 10.35506 | 152° | 4km/h | 28828m | 6.5m/s | -46.2°C | 0.9% | 15.0hPa | 2.6V | 00:00:00 | 00:00:00 | 00:00:00 | |
| DG9SBQ-11 | 2026-09-01 00:21:14 | 48.81046 | 10.35502 | 88° | 5km/h | 28816m | 5.7m/s | -46.3°C | 0.8% | 15.0hPa | 2.6V | 00:00:00 | 00:00:00 | 00:00:00 | |
| DL1XH-west | 2026-09-01 00:21:14 | 48.81046 | 10.35499 | 125° | 5km/h | 28804m | 5.8m/s | -46.4°C | 0.2% | 15.1hPa | 2.6V | 18:12:15 | 01:51:49 | 00:00:00 | |
| OE5MMP-10 | 2026-09-01 00:21:13 | 48.81046 | 10.35499 | 126° | 16km/h | 28804m | 5.8m/s | -46.4°C | 3.2% | 15.1hPa | 2.6V | 00:00:00 | 01:51:49 | 08:30:00 | |
| DK7TD | 2026-09-01 00:21:13 | 48.81046 | 10.35501 | 91° | 4km/h | 28810m | 6.7m/s | -46.4°C | 0.2% | 15.1hPa | 2.7V | 18:12:15 | 01:51:50 | 00:00:00 | |
| OE5DXL-15 | 2026-09-01 00:21:10 | 48.81047 | 10.35497 | 142° | 16km/h | 28798m | 5.0m/s | -46.4°C | 3.2% | 15.1hPa | 2.6V | 00:00:00 | 00:00:00 | 00:00:00 | |
| DN1GJH-1 | 2026-09-01 00:21:08 | 48.81047 | 10.35497 | 143° | 9km/h | 28798m | 5.0m/s | -46.5°C | 0.9% | 15.1hPa | 2.6V | 00:00:00 | 00:00:00 | 00:00:00 | |
| DM0DOS-11 | 2026-09-01 00:21:07 | 48.81065 | 10.35471 | 137° | 24km/h | 28768m | 5.9m/s | -46.7°C | 3.3% | 15.2hPa | 2.6V | 08:30:00 | 01:51:43 | 00:00:00 | |
| HSKMA3-T | 2026-09-01 00:21:06 | 48.81057 | 10.35484 | 133° | 24km/h | 28780m | 6.8m/s | -46.6°C | 0.3% | 15.2hPa | 2.7V | 18:12:15 | 01:51:45 | 00:00:00 | |
| DK5PH-5 | 2026-09-01 00:21:06 | 48.81057 | 10.35484 | 133° | 16km/h | 28780m | 6.8m/s | -46.6°C | 3.3% | 15.1hPa | 2.7V | 00:00:00 | 01:51:45 | 00:00:00 | |
| DO3MHA-12 | 2026-09-01 00:21:05 | 48.81061 | 10.35477 | 134° | 15km/h | 28774m | 5.3m/s | -46.7°C | 3.3% | 15.1hPa | 2.6V | 00:00:00 | 01:51:44 | 00:00:00 | |
| OE5WHR-10 | 2026-09-01 00:21:04 | 48.81065 | 10.35471 | 138° | 16km/h | 28768m | 5.8m/s | -46.7°C | 3.3% | 15.1hPa | 2.6V | 00:00:00 | 00:00:00 | 00:00:00 | |
| DL1XH1-15 | 2026-09-01 00:21:03 | 48.81078 | 10.35459 | 147° | 9km/h | 28745m | 6.2m/s | -47°C | 3.4% | 15.2hPa | 2.7V | 08:30:00 | 01:51:39 | 00:00:00 | |
| DK7TD | 2026-09-01 00:21:01 | 48.81076 | 10.35461 | 159° | 11km/h | 28751m | 5.2m/s | -46.9°C | 0.3% | 15.2hPa | 2.6V | 18:12:15 | 01:51:40 | 00:00:00 | |
| DL1XH-west | 2026-09-01 00:21:00 | 48.81078 | 10.35459 | 148° | 9km/h | 28745m | 6.3m/s | -47°C | 0.3% | 15.2hPa | 2.7V | 18:12:15 | 01:51:39 | 00:00:00 | |
| DF8AY | 2026-09-01 00:20:59 | 48.81080 | 10.35457 | 124° | 9km/h | 28738m | 7m/s | -47.1°C | 0.3% | 15.3hPa | 2.7V | 18:12:15 | 01:51:38 | 00:00:00 | |
| HSKMA3-T | 2026-09-01 00:20:55 | 48.81083 | 10.35438 | 114° | 15km/h | 28713m | 6.8m/s | -47.2°C | 0.4% | 15.3hPa | 2.7V | 18:12:15 | 01:51:34 | 00:00:00 | |
| DK7TD | 2026-09-01 00:20:50 | 48.81095 | 10.35410 | 109° | 24km/h | 28684m | 5.7m/s | -47.3°C | 0.4% | 15.4hPa | 2.6V | 18:12:15 | 01:51:29 | 00:00:00 | |
| DL1XH-west | 2026-09-01 00:20:49 | 48.81097 | 10.35402 | 104° | 22km/h | 28678m | 5.6m/s | -47.3°C | 0.4% | 15.4hPa | 2.7V | 18:12:15 | 01:51:28 | 00:00:00 | |
| SONCRA | 2026-09-01 00:20:49 | 48.81098 | 10.35394 | 100° | 20km/h | 28672m | 6.4m/s | -47.3°C | 0.9% | 15.4hPa | 2.6V | 00:00:00 | 00:00:00 | 00:00:00 | |
| DF8AY | 2026-09-01 00:20:47 | 48.81099 | 10.35360 | 94° | 18km/h | 28636m | 5.4m/s | -47.4°C | 0.4% | 15.5hPa | 2.6V | 18:12:15 | 01:51:21 | 00:00:00 | |
| HSKMA3-T | 2026-09-01 00:20:45 | 48.81099 | 10.35377 | 88° | 11km/h | 28654m | 4.9m/s | -47.4°C | 0.4% | 15.4hPa | 2.6V | 18:12:15 | 01:51:24 | 00:00:00 | |
| DF7PN | 2026-09-01 00:20:44 | 48.81099 | 10.35372 | 85° | 13km/h | 28648m | 6.2m/s | -47.4°C | 0.9% | 15.5hPa | 2.6V | 00:00:00 | 00:00:00 | 00:00:00 | |
| OE5WHR-10 | 2026-09-01 00:20:43 | 48.81099 | 10.35367 | 87° | 15km/h | 28642m | 6.5m/s | -47.4°C | 3.5% | 15.4hPa | 2.6V | 00:00:00 | 00:00:00 | 00:00:00 | |
| DF1GD-15 | 2026-09-01 00:20:42 | 48.81099 | 10.35367 | 87° | 16km/h | 28642m | 6.6m/s | -47.4°C | 1.0% | 15.5hPa | 2.6V | 00:00:00 | 00:00:00 | 00:00:00 | |
| OE5MMP-10 | 2026-09-01 00:20:40 | 48.81101 | 10.35348 | 118° | 15km/h | 28625m | 7.0m/s | -47.4°C | 3.5% | 15.5hPa | 2.6V | 00:00:00 | 01:51:19 | 00:00:00 | |
| DL1NUX | 2026-09-01 00:20:39 | 48.81107 | 10.35320 | 54° | 16km/h | 28588m | 5.6m/s | -47.4°C | 3.5% | 15.6hPa | 2.6V | 08:30:00 | 01:51:13 | 00:00:00 | |
| DK7TD | 2026-09-01 00:20:39 | 48.81103 | 10.35343 | 132° | 15km/h | 28618m | 6.3m/s | -47.4°C | 0.4% | 15.5hPa | 2.6V | 18:12:15 | 01:51:18 | 00:00:00 | |
| DL1XH-west | 2026-09-01 00:20:38 | 48.81105 | 10.35339 | 134° | 15km/h | 28612m | 5.2m/s | -47.4°C | 0.4% | 15.6hPa | 2.7V | 18:12:15 | 01:51:17 | 00:00:00 | |
| DL6DJ-15 | 2026-09-01 00:20:38 | 48.81108 | 10.35335 | 122° | 13km/h | 28607m | 5.8m/s | -47.4°C | 0.9% | 15.6hPa | 2.6V | 00:00:00 | 00:00:00 | 00:00:00 | |
| DO3MHA-11 | 2026-09-01 00:20:37 | 48.81108 | 10.35335 | 123° | 15km/h | 28607m | 5.7m/s | -47.4°C | 3.5% | 15.5hPa | 2.6V | 00:00:00 | 01:51:16 | 00:00:00 | |
| DK5PH-5 | 2026-09-01 00:20:36 | 48.81109 | 10.35330 | 99° | 13km/h | 28601m | 6.9m/s | -47.4°C | 3.5% | 15.5hPa | 2.6V | 00:00:00 | 01:51:15 | 00:00:00 | |
| DL1XH1-15 | 2026-09-01 00:20:35 | 48.81096 | 10.35306 | 53° | 11km/h | 28565m | 5.1m/s | -47.3°C | 3.4% | 15.7hPa | 2.6V | 08:30:00 | 01:51:09 | 00:00:00 | |
| HSKMA3-T | 2026-09-01 00:20:34 | 48.81107 | 10.35320 | 54° | 16km/h | 28588m | 5.6m/s | -47.4°C | 0.4% | 15.6hPa | 2.6V | 18:12:15 | 01:51:13 | 00:00:00 | |
| BIOWL1-15 | 2026-09-01 00:20:34 | 48.81096 | 10.35306 | 54° | 11km/h | 28565m | 5.1m/s | -47.3°C | 0.4% | 15.7hPa | 2.6V | 18:12:15 | 01:51:09 | 00:00:00 | |
| DF8AY | 2026-09-01 00:20:34 | 48.81101 | 10.35311 | 36° | 15km/h | 28576m | 6.6m/s | -47.3°C | 0.4% | 15.6hPa | 2.6V | 18:12:15 | 01:51:11 | 00:00:00 | |
| DK7TD | 2026-09-01 00:20:29 | 48.81095 | 10.35302 | 73° | 13km/h | 28559m | 6.8m/s | -47.3°C | 0.4% | 15.7hPa | 2.6V | 18:12:15 | 01:51:08 | 00:00:00 | |
| EDDB2-11 | 2026-09-01 00:20:29 | 48.81095 | 10.35297 | 91° | 15km/h | 28552m | 6.2m/s | -47.3°C | 0.9% | 15.7hPa | 2.6V | 00:00:00 | 00:00:00 | 00:00:00 | |
| DL1NUX | 2026-09-01 00:20:28 | 48.81103 | 10.35274 | 125° | 7km/h | 28523m | 4.5m/s | -47.5°C | 3.5% | 15.8hPa | 2.6V | 08:30:00 | 01:51:02 | 00:00:00 | |
| DL1XH-west | 2026-09-01 00:20:27 | 48.81095 | 10.35291 | 107° | 16km/h | 28546m | 5.6m/s | -47.3°C | 0.4% | 15.7hPa | 2.7V | 18:12:15 | 01:51:06 | 00:00:00 | |
| DO3MHA-11 | 2026-09-01 00:20:27 | 48.81095 | 10.35291 | 108° | 15km/h | 28547m | 5.6m/s | -47.3°C | 3.4% | 15.7hPa | 2.7V | 00:00:00 | 01:51:06 | 00:00:00 | |
| AM1SDL-15 | 2026-09-01 00:20:26 | 48.81097 | 10.35285 | 120° | 15km/h | 28541m | 6.1m/s | -47.3°C | 3.5% | 15.7hPa | 2.6V | 00:00:00 | 01:51:05 | 00:00:00 | |
| DM0DOS-11 | 2026-09-01 00:20:25 | 48.81102 | 10.35276 | 141° | 11km/h | 28528m | 5.4m/s | -47.4°C | 3.5% | 15.8hPa | 2.6V | 08:30:00 | 01:51:03 | 00:00:00 | |
| HSKMA3-T | 2026-09-01 00:20:24 | 48.81102 | 10.35276 | 141° | 11km/h | 28528m | 5.4m/s | -47.4°C | 0.4% | 15.8hPa | 2.6V | 18:12:15 | 01:51:03 | 00:00:00 | |
| DF8AY | 2026-09-01 00:20:23 | 48.81103 | 10.35274 | 125° | 7km/h | 28523m | 4.5m/s | -47.5°C | 0.4% | 15.8hPa | 2.6V | 18:12:15 | 01:51:02 | 00:00:00 | |
| DK7TD | 2026-09-01 00:20:19 | 48.81095 | 10.35262 | 23° | 22km/h | 28500m | 4.7m/s | -47.4°C | 0.4% | 15.8hPa | 2.6V | 18:12:15 | 01:50:58 | 00:00:00 | |
| DL1NUX | 2026-09-01 00:20:18 | 48.81075 | 10.35260 | 31° | 5km/h | 28466m | 6.7m/s | -47.3°C | 3.5% | 15.9hPa | 2.6V | 08:30:00 | 01:50:52 | 00:00:00 | |
| DL1XH-west | 2026-09-01 00:20:17 | 48.81085 | 10.35258 | 3° | 18km/h | 28488m | 6.6m/s | -47.3°C | 0.4% | 15.8hPa | 2.6V | 18:12:15 | 01:50:56 | 00:00:00 | |
| DO3MHA-11 | 2026-09-01 00:20:17 | 48.81085 | 10.35258 | 4° | 9km/h | 28489m | 6.5m/s | -47.3°C | 3.5% | 15.8hPa | 2.7V | 00:00:00 | 01:50:56 | 00:00:00 | |
| DB0NH | 2026-09-01 00:20:16 | 48.81081 | 10.35258 | 350° | 13km/h | 28483m | 5.6m/s | -47.3°C | 3.5% | 15.8hPa | 2.7V | 00:00:00 | 01:50:55 | 00:00:00 | |
| SONDE2-11 | 2026-09-01 00:20:15 | 48.81076 | 10.35260 | 351° | 5km/h | 28472m | 5.5m/s | -47.3°C | 0.9% | 15.9hPa | 2.6V | 00:00:00 | 00:00:00 | 00:00:00 | |
| AZAK | 2026-09-01 00:20:14 | 48.81075 | 10.35260 | 33° | 5km/h | 28466m | 6.7m/s | -47.3°C | 0.9% | 15.9hPa | 2.6V | 00:00:00 | 00:00:00 | 00:00:00 | |
| DL1XH1-15 | 2026-09-01 00:20:13 | 48.81072 | 10.35251 | 65° | 9km/h | 28447m | 5.7m/s | -47.3°C | 3.5% | 15.9hPa | 2.6V | 08:30:00 | 01:50:49 | 00:00:00 | |
| HSKMA3-T | 2026-09-01 00:20:13 | 48.81075 | 10.35260 | 32° | 5km/h | 28466m | 6.7m/s | -47.3°C | 0.4% | 15.9hPa | 2.6V | 18:12:15 | 01:50:52 | 00:00:00 | |
| DK7TD | 2026-09-01 00:20:09 | 48.81071 | 10.35248 | 53° | 9km/h | 28441m | 6.8m/s | -47.3°C | 0.4% | 15.9hPa | 2.6V | 18:12:15 | 01:50:48 | 00:00:00 | |
| DL1XH-west | 2026-09-01 00:20:06 | 48.81065 | 10.35241 | 40° | 13km/h | 28424m | 7m/s | -47.4°C | 0.4% | 16hPa | 2.6V | 18:12:15 | 01:50:45 | 00:00:00 | |
| DK5PH-5 | 2026-09-01 00:20:06 | 48.81065 | 10.35241 | 41° | 16km/h | 28424m | 6.9m/s | -47.3°C | 3.5% | 15.9hPa | 2.7V | 00:00:00 | 01:50:45 | 00:00:00 | |
| DL1XH1-15 | 2026-09-01 00:20:05 | 48.81052 | 10.35221 | 70° | 7km/h | 28387m | 5.7m/s | -47.4°C | 3.5% | 16.1hPa | 2.7V | 08:30:00 | 01:50:39 | 00:00:00 | |
| BIOWL1-15 | 2026-09-01 00:20:04 | 48.81059 | 10.35233 | 47° | 16km/h | 28411m | 5.4m/s | -47.4°C | 0.4% | 16hPa | 2.7V | 18:12:15 | 01:50:43 | 00:00:00 | |
| HSKMA3-T | 2026-09-01 00:20:03 | 48.81057 | 10.35229 | 45° | 15km/h | 28405m | 6.1m/s | -47.4°C | 0.4% | 16hPa | 2.6V | 18:12:15 | 01:50:42 | 00:00:00 | |
| DF8AY | 2026-09-01 00:20:02 | 48.81054 | 10.35226 | 42° | 9km/h | 28399m | 6.9m/s | -47.4°C | 0.4% | 16.1hPa | 2.6V | 18:12:15 | 01:50:41 | 00:00:00 | |
| DK7TD | 2026-09-01 00:19:58 | 48.81052 | 10.35214 | 91° | 15km/h | 28374m | 6.3m/s | -47.4°C | 0.4% | 16.1hPa | 2.6V | 18:12:15 | 01:50:37 | 00:00:00 | |
| DL1XH-west | 2026-09-01 00:19:56 | 48.81052 | 10.35202 | 100° | 18km/h | 28363m | 5.1m/s | -47.4°C | 0.4% | 16.1hPa | 2.6V | 18:12:15 | 01:50:35 | 00:00:00 | |
| BIOWL1-15 | 2026-09-01 00:19:53 | 48.81056 | 10.35185 | 108° | 13km/h | 28345m | 5.1m/s | -47.3°C | 0.4% | 16.2hPa | 2.7V | 18:12:15 | 01:50:32 | 00:00:00 | |
| DL1XH1-15 | 2026-09-01 00:19:53 | 48.81054 | 10.35167 | 62° | 22km/h | 28327m | 6.8m/s | -47.3°C | 3.5% | 16.2hPa | 2.6V | 08:30:00 | 01:50:29 | 00:00:00 | |
| HSKMA3-T | 2026-09-01 00:19:52 | 48.81056 | 10.35180 | 92° | 15km/h | 28340m | 5m/s | -47.3°C | 0.4% | 16.2hPa | 2.6V | 18:12:15 | 01:50:31 | 00:00:00 | |
| DF8AY | 2026-09-01 00:19:51 | 48.81056 | 10.35174 | 76° | 16km/h | 28334m | 7m/s | -47.3°C | 0.4% | 16.2hPa | 2.6V | 18:12:15 | 01:50:30 | 00:00:00 | |
| DK7TD | 2026-09-01 00:19:47 | 48.81042 | 10.35146 | 41° | 24km/h | 28309m | 7m/s | -47.2°C | 0.4% | 16.3hPa | 2.6V | 18:12:15 | 01:50:26 | 00:00:00 | |
| DL1XH-west | 2026-09-01 00:19:45 | 48.81035 | 10.35136 | 47° | 16km/h | 28297m | 5.1m/s | -47.1°C | 0.4% | 16.3hPa | 2.6V | 18:12:15 | 01:50:24 | 00:00:00 | |
| HSKMA3-T | 2026-09-01 00:19:42 | 48.81030 | 10.35118 | 91° | 20km/h | 28278m | 5.7m/s | -47.1°C | 0.3% | 16.4hPa | 2.6V | 18:12:15 | 01:50:21 | 00:00:00 | |
| BIOWL1-15 | 2026-09-01 00:19:41 | 48.81036 | 10.35083 | 75° | 16km/h | 28242m | 7.1m/s | -46.9°C | 0.3% | 16.4hPa | 2.6V | 18:12:15 | 01:50:15 | 00:00:00 | |
| DF8AY | 2026-09-01 00:19:40 | 48.81034 | 10.35098 | 118° | 15km/h | 28259m | 6.2m/s | -47°C | 0.4% | 16.4hPa | 2.6V | 18:12:15 | 01:50:18 | 00:00:00 | |
| DK7TD | 2026-09-01 00:19:37 | 48.81036 | 10.35088 | 93° | 13km/h | 28249m | 5.3m/s | -47°C | 0.3% | 16.4hPa | 2.7V | 18:12:15 | 01:50:16 | 00:00:00 | |
| DL1XH-west | 2026-09-01 00:19:35 | 48.81034 | 10.35076 | 61° | 20km/h | 28236m | 6.4m/s | -46.9°C | 0.4% | 16.5hPa | 2.6V | 18:12:15 | 01:50:14 | 00:00:00 | |
| DB0UT-7 | 2026-09-01 00:19:35 | 48.81034 | 10.35076 | 61° | 13km/h | 28236m | 6.4m/s | -46.9°C | 3.4% | 16.4hPa | 2.6V | 00:00:00 | 01:50:14 | 00:00:00 | |
| AZAK | 2026-09-01 00:19:34 | 48.81022 | 10.35059 | 31° | 20km/h | 28217m | 6.9m/s | -46.9°C | 0.9% | 16.5hPa | 2.6V | 00:00:00 | 00:00:00 | 00:00:00 | |
| DL1XH1-15 | 2026-09-01 00:19:33 | 48.81014 | 10.35053 | 26° | 15km/h | 28205m | 5.3m/s | -46.8°C | 3.4% | 16.5hPa | 2.6V | 08:30:00 | 01:50:09 | 00:00:00 | |
| HSKMA3-T | 2026-09-01 00:19:31 | 48.81018 | 10.35056 | 23° | 18km/h | 28210m | 5.8m/s | -46.9°C | 0.3% | 16.5hPa | 2.7V | 18:12:15 | 01:50:10 | 00:00:00 | |
| DF8AY | 2026-09-01 00:19:28 | 48.81008 | 10.35042 | 84° | 11km/h | 28187m | 5.6m/s | -46.8°C | 0.2% | 16.6hPa | 2.7V | 18:12:15 | 01:50:06 | 00:00:00 | |
| DK7TD | 2026-09-01 00:19:26 | 48.81008 | 10.35037 | 108° | 11km/h | 28181m | 6.5m/s | -46.8°C | 0.3% | 16.6hPa | 2.6V | 18:12:15 | 01:50:05 | 00:00:00 | |
| BIOWL1-15 | 2026-09-01 00:19:24 | 48.81001 | 10.35015 | 8° | 20km/h | 28131m | 7.2m/s | -46.9°C | 0.2% | 16.7hPa | 2.6V | 18:12:15 | 01:49:57 | 00:00:00 | |
| DL1XH-west | 2026-09-01 00:19:24 | 48.81011 | 10.35032 | 142° | 7km/h | 28167m | 5.7m/s | -46.8°C | 0.3% | 16.6hPa | 2.6V | 18:12:15 | 01:50:03 | 00:00:00 | |
| DL1NUX | 2026-09-01 00:19:23 | 48.81012 | 10.35030 | 124° | 7km/h | 28162m | 5.4m/s | -46.8°C | 3.3% | 16.6hPa | 2.6V | 08:30:00 | 01:50:02 | 00:00:00 | |
| HSKMA3-T | 2026-09-01 00:19:20 | 48.81009 | 10.35020 | 35° | 16km/h | 28144m | 5.2m/s | -46.9°C | 0.3% | 16.7hPa | 2.7V | 18:12:15 | 01:49:59 | 00:00:00 | |
| OE5MMP-10 | 2026-09-01 00:19:20 | 48.81009 | 10.35020 | 35° | 15km/h | 28144m | 5.2m/s | -46.8°C | 3.3% | 16.6hPa | 2.6V | 00:00:00 | 01:49:59 | 00:00:00 | |
| OE5WHR-10 | 2026-09-01 00:19:19 | 48.81005 | 10.35017 | 22° | 15km/h | 28138m | 6.6m/s | -46.8°C | 3.3% | 16.7hPa | 2.6V | 00:00:00 | 01:49:58 | 00:00:00 | |
| DL1NUX | 2026-09-01 00:19:18 | 48.80979 | 10.35011 | 28° | 9km/h | 28100m | 4.8m/s | -47°C | 3.3% | 16.8hPa | 2.6V | 08:30:00 | 01:49:52 | 00:00:00 | |
| DK7TD | 2026-09-01 00:19:16 | 48.80986 | 10.35014 | 7° | 18km/h | 28112m | 6.9m/s | -47°C | 0.3% | 16.8hPa | 2.7V | 18:12:15 | 01:49:54 | 00:00:00 | |
| DL1XH-west | 2026-09-01 00:19:13 | 48.80979 | 10.35011 | 29° | 9km/h | 28100m | 4.8m/s | -47°C | 0.2% | 16.8hPa | 2.6V | 18:12:15 | 01:49:52 | 00:00:00 | |
| BIOWL1-15 | 2026-09-01 00:19:10 | 48.80977 | 10.35010 | 236° | 2km/h | 28082m | 5.4m/s | -47.2°C | 0.3% | 16.9hPa | 2.7V | 18:12:15 | 01:49:49 | 00:00:00 | |
| HSKMA3-T | 2026-09-01 00:19:09 | 48.80977 | 10.35010 | 289° | 2km/h | 28077m | 4.4m/s | -47.2°C | 0.3% | 16.9hPa | 2.6V | 18:12:15 | 01:49:48 | 00:00:00 | |
| OE5DXL-15 | 2026-09-01 00:19:09 | 48.80977 | 10.35010 | 289° | 13km/h | 28077m | 4.3m/s | -47.2°C | 3.4% | 16.8hPa | 2.6V | 00:00:00 | 00:00:00 | 00:00:00 | |
| DG9SBQ-11 | 2026-09-01 00:19:08 | 48.80977 | 10.35010 | 290° | 2km/h | 28077m | 4.4m/s | -47.2°C | 0.9% | 16.9hPa | 2.6V | 00:00:00 | 00:00:00 | 00:00:00 | |
| NBG1-10 | 2026-09-01 00:19:07 | 48.80975 | 10.35009 | 30° | 13km/h | 28066m | 6.5m/s | -47.2°C | 3.3% | 16.8hPa | 2.6V | 00:00:00 | 01:49:46 | 00:00:00 | |
| DM0DOS-11 | 2026-09-01 00:19:06 | 48.80959 | 10.34996 | 14° | 20km/h | 28043m | 6m/s | -47.4°C | 3.4% | 16.9hPa | 2.6V | 08:30:00 | 01:49:42 | 00:00:00 | |
| DF8AY | 2026-09-01 00:19:06 | 48.80946 | 10.35000 | 331° | 20km/h | 28025m | 5.8m/s | -47.5°C | 0.4% | 17hPa | 2.6V | 18:12:15 | 01:49:39 | 00:00:00 | |
| DK7TD | 2026-09-01 00:19:04 | 48.80964 | 10.34999 | 26° | 22km/h | 28049m | 5m/s | -47.4°C | 0.3% | 16.9hPa | 2.7V | 18:12:15 | 01:49:43 | 00:00:00 | |
| DL1XH1-15 | 2026-09-01 00:19:03 | 48.80946 | 10.35000 | 331° | 20km/h | 28025m | 5.8m/s | -47.5°C | 3.4% | 17hPa | 2.6V | 08:30:00 | 01:49:39 | 00:00:00 | |
| DL1XH-west | 2026-09-01 00:19:03 | 48.80959 | 10.34996 | 15° | 20km/h | 28043m | 6m/s | -47.4°C | 0.3% | 16.9hPa | 2.6V | 18:12:15 | 01:49:42 | 00:00:00 | |
| HSKMA3-T | 2026-09-01 00:18:58 | 48.80936 | 10.35007 | 339° | 20km/h | 28012m | 6.3m/s | -47.6°C | 0.4% | 17hPa | 2.7V | 18:12:15 | 01:49:37 | 00:00:00 | |
| EDDB2-11 | 2026-09-01 00:18:56 | 48.80926 | 10.35010 | 6° | 5km/h | 27995m | 6.8m/s | -47.7°C | 0.9% | 17.1hPa | 2.6V | 00:00:00 | 00:00:00 | 00:00:00 | |
| DL1XH1-15 | 2026-09-01 00:18:55 | 48.80922 | 10.35003 | 30° | 13km/h | 27965m | 6.5m/s | -47.8°C | 3.4% | 17.1hPa | 2.6V | 08:30:00 | 01:49:29 | 00:00:00 | |
| DK7TD | 2026-09-01 00:18:54 | 48.80925 | 10.35010 | 35° | 4km/h | 27988m | 6.6m/s | -47.7°C | 0.3% | 17.1hPa | 2.7V | 18:12:15 | 01:49:33 | 00:00:00 | |
| DL1XH-west | 2026-09-01 00:18:52 | 48.80924 | 10.35007 | 70° | 5km/h | 27977m | 4.9m/s | -47.7°C | 0.3% | 17.1hPa | 2.6V | 18:12:15 | 01:49:31 | 00:00:00 | |
| HSKMA3-T | 2026-09-01 00:18:48 | 48.80915 | 10.34999 | 11° | 15km/h | 27953m | 6.1m/s | -47.9°C | 0.4% | 17.2hPa | 2.7V | 18:12:15 | 01:49:27 | 00:00:00 | |
| DF8AY | 2026-09-01 00:18:47 | 48.80909 | 10.34999 | 349° | 7km/h | 27940m | 5.7m/s | -48°C | 0.4% | 17.2hPa | 2.6V | 18:12:15 | 01:49:25 | 00:00:00 | |
| SONCRA | 2026-09-01 00:18:44 | 48.80906 | 10.35000 | 4° | 7km/h | 27929m | 6.2m/s | -48.1°C | 0.9% | 17.3hPa | 2.7V | 00:00:00 | 00:00:00 | 00:00:00 | |
| DK7TD | 2026-09-01 00:18:43 | 48.80903 | 10.34999 | 22° | 9km/h | 27923m | 6.6m/s | -48.1°C | 0.4% | 17.3hPa | 2.7V | 18:12:15 | 01:49:22 | 00:00:00 | |
| DL1ZP-14 | 2026-09-01 00:18:43 | 48.80903 | 10.34999 | 22° | 9km/h | 27923m | 6.6m/s | -48.1°C | 0.9% | 17.3hPa | 2.7V | 00:00:00 | 00:00:00 | 00:00:00 | |
| DL1XH1-15 | 2026-09-01 00:18:42 | 48.80899 | 10.34991 | 74° | 9km/h | 27904m | 7m/s | -48.2°C | 3.6% | 17.3hPa | 2.6V | 08:30:00 | 01:49:19 | 00:00:00 | |
| DL1XH-west | 2026-09-01 00:18:42 | 48.80901 | 10.34997 | 39° | 11km/h | 27917m | 5.8m/s | -48.1°C | 0.4% | 17.3hPa | 2.7V | 18:12:15 | 01:49:21 | 00:00:00 | |
| HSKMA3-T | 2026-09-01 00:18:37 | 48.80897 | 10.34982 | 53° | 9km/h | 27887m | 6.6m/s | -48.2°C | 0.4% | 17.4hPa | 2.7V | 18:12:15 | 01:49:16 | 00:00:00 | |
| DK7TD | 2026-09-01 00:18:33 | 48.80886 | 10.34978 | 355° | 11km/h | 27863m | 6.7m/s | -48.3°C | 0.5% | 17.4hPa | 2.6V | 18:12:15 | 01:49:12 | 00:00:00 | |
| BIOWL1-15 | 2026-09-01 00:18:32 | 48.80850 | 10.34964 | 61° | 9km/h | 27780m | 5.5m/s | -48.7°C | 0.4% | 17.6hPa | 2.6V | 18:12:15 | 01:48:57 | 00:00:00 | |
| DL1XH-west | 2026-09-01 00:18:31 | 48.80881 | 10.34979 | 357° | 5km/h | 27851m | 4.7m/s | -48.3°C | 0.4% | 17.4hPa | 2.7V | 18:12:15 | 01:49:10 | 00:00:00 | |
| DO9HM | 2026-09-01 00:18:31 | 48.80882 | 10.34979 | 358° | 5km/h | 27852m | 4.7m/s | -48.3°C | 1.0% | 17.4hPa | 2.6V | 00:00:00 | 00:00:00 | 00:00:00 | |
| DM0DOS-11 | 2026-09-01 00:18:30 | 48.80861 | 10.34966 | 12° | 20km/h | 27821m | 4.8m/s | -48.4°C | 3.6% | 17.5hPa | 2.6V | 08:30:00 | 01:49:04 | 00:00:00 | |
| HSKMA3-T | 2026-09-01 00:18:27 | 48.80871 | 10.34971 | 25° | 20km/h | 27830m | 5.3m/s | -48.4°C | 0.4% | 17.5hPa | 2.6V | 18:12:15 | 01:49:06 | 00:00:00 | |
| DF8AY | 2026-09-01 00:18:26 | 48.80866 | 10.34968 | 20° | 22km/h | 27825m | 4.6m/s | -48.4°C | 0.4% | 17.5hPa | 2.7V | 18:12:15 | 01:49:05 | 00:00:00 | |
| DL1NUX | 2026-09-01 00:18:25 | 48.80856 | 10.34964 | 3° | 16km/h | 27815m | 5.9m/s | -48.5°C | 3.5% | 17.5hPa | 2.6V | 08:30:00 | 01:49:03 | 00:00:00 | |
| DK7TD | 2026-09-01 00:18:23 | 48.80853 | 10.34965 | 345° | 9km/h | 27809m | 6.4m/s | -48.5°C | 0.5% | 17.6hPa | 2.6V | 18:12:15 | 01:49:02 | 00:00:00 | |
| DL1XH-west | 2026-09-01 00:18:21 | 48.80851 | 10.34967 | 253° | 2km/h | 27797m | 5.1m/s | -48.6°C | 0.4% | 17.6hPa | 2.7V | 18:12:15 | 01:49:00 | 00:00:00 | |
| DL1NUX | 2026-09-01 00:18:19 | 48.80842 | 10.34954 | 8° | 13km/h | 27758m | 4.3m/s | -48.8°C | 3.6% | 17.7hPa | 2.7V | 08:30:00 | 01:48:53 | 00:00:00 | |
| HSKMA3-T | 2026-09-01 00:18:17 | 48.80849 | 10.34961 | 53° | 11km/h | 27774m | 5.5m/s | -48.8°C | 0.4% | 17.7hPa | 2.6V | 18:12:15 | 01:48:56 | 00:00:00 | |
| DF8AY | 2026-09-01 00:18:15 | 48.80842 | 10.34954 | 8° | 13km/h | 27758m | 4.3m/s | -48.8°C | 0.5% | 17.7hPa | 2.7V | 18:12:15 | 01:48:53 | 00:00:00 | |
| OE5MMP-10 | 2026-09-01 00:18:15 | 48.80845 | 10.34955 | 27° | 20km/h | 27763m | 5.2m/s | -48.8°C | 3.6% | 17.6hPa | 2.6V | 00:00:00 | 01:48:54 | 00:00:00 | |
| DM0DOS-11 | 2026-09-01 00:18:14 | 48.80838 | 10.34954 | 359° | 16km/h | 27753m | 5.6m/s | -48.9°C | 3.6% | 17.7hPa | 2.6V | 08:30:00 | 01:48:52 | 00:00:00 | |
| DL1XH1-15 | 2026-09-01 00:18:14 | 48.80824 | 10.34960 | 329° | 24km/h | 27736m | 4.7m/s | -49°C | 3.6% | 17.8hPa | 2.7V | 08:30:00 | 01:48:49 | 00:00:00 | |
| DK7TD | 2026-09-01 00:18:14 | 48.80839 | 10.34954 | 359° | 16km/h | 27753m | 5.6m/s | -48.9°C | 0.4% | 17.7hPa | 2.6V | 18:12:15 | 01:48:52 | 00:00:00 | |
| DL1XH-west | 2026-09-01 00:18:11 | 48.80829 | 10.34956 | 344° | 24km/h | 27741m | 5.3m/s | -48.9°C | 0.5% | 17.8hPa | 2.6V | 18:12:15 | 01:48:50 | 00:00:00 | |
| DO9HM | 2026-09-01 00:18:10 | 48.80829 | 10.34956 | 345° | 24km/h | 27741m | 5.3m/s | -48.9°C | 1.0% | 17.7hPa | 2.7V | 00:00:00 | 00:00:00 | 00:00:00 | |
| DF7PN | 2026-09-01 00:18:09 | 48.80815 | 10.34972 | 295° | 22km/h | 27724m | 6.7m/s | -49.1°C | 0.9% | 17.8hPa | 2.7V | 00:00:00 | 00:00:00 | 00:00:00 | |
| DM0DOS-11 | 2026-09-01 00:18:08 | 48.80810 | 10.35001 | 1° | 5km/h | 27695m | 5.5m/s | -49.2°C | 3.7% | 17.9hPa | 2.7V | 08:30:00 | 01:48:42 | 00:00:00 | |
| HSKMA3-T | 2026-09-01 00:18:07 | 48.80813 | 10.34981 | 283° | 24km/h | 27718m | 5.2m/s | -49.1°C | 0.5% | 17.8hPa | 2.6V | 18:12:15 | 01:48:46 | 00:00:00 | |
| DF8AY | 2026-09-01 00:18:05 | 48.80811 | 10.34999 | 302° | 7km/h | 27701m | 5.9m/s | -49.2°C | 0.6% | 17.9hPa | 2.7V | 18:12:15 | 01:48:43 | 00:00:00 | |
| DL1XH1-15 | 2026-09-01 00:18:05 | 48.80806 | 10.34996 | 36° | 7km/h | 27677m | 5.1m/s | -49.3°C | 3.7% | 17.9hPa | 2.6V | 08:30:00 | 01:48:39 | 00:00:00 | |
| BIOWL1-15 | 2026-09-01 00:18:04 | 48.80810 | 10.35001 | 1° | 5km/h | 27695m | 5.5m/s | -49.2°C | 0.5% | 17.9hPa | 2.7V | 18:12:15 | 01:48:42 | 00:00:00 | |
| DL1NUX | 2026-09-01 00:18:03 | 48.80809 | 10.35000 | 43° | 7km/h | 27689m | 5.7m/s | -49.2°C | 3.7% | 17.9hPa | 2.6V | 08:30:00 | 01:48:41 | 00:00:00 | |
| DK7TD | 2026-09-01 00:18:02 | 48.80808 | 10.35000 | 43° | 7km/h | 27689m | 5.7m/s | -49.3°C | 0.6% | 17.9hPa | 2.6V | 18:12:15 | 01:48:41 | 00:00:00 | |
| DL1XH-west | 2026-09-01 00:18:00 | 48.80806 | 10.34996 | 36° | 7km/h | 27677m | 5.1m/s | -49.3°C | 0.5% | 17.9hPa | 2.6V | 18:12:15 | 01:48:39 | 00:00:00 | |
| DM7RM-13 | 2026-09-01 00:17:59 | 48.80806 | 10.34996 | 37° | 7km/h | 27678m | 5.1m/s | -49.3°C | 1.0% | 17.9hPa | 2.7V | 00:00:00 | 00:00:00 | 00:00:00 | |
| DM0DOS-11 | 2026-09-01 00:17:58 | 48.80774 | 10.35009 | 313° | 18km/h | 27639m | 6.4m/s | -49.3°C | 3.7% | 18hPa | 2.7V | 08:30:00 | 01:48:32 | 00:00:00 | |
| HSKMA3-T | 2026-09-01 00:17:56 | 48.80790 | 10.34997 | 345° | 26km/h | 27655m | 5.6m/s | -49.3°C | 0.5% | 18hPa | 2.6V | 18:12:15 | 01:48:35 | 00:00:00 | |
| DF8AY | 2026-09-01 00:17:54 | 48.80769 | 10.35032 | 295° | 16km/h | 27583m | 5.4m/s | -49.5°C | 0.6% | 18.2hPa | 2.6V | 18:12:15 | 01:48:22 | 00:00:00 | |
| DK7TD | 2026-09-01 00:17:51 | 48.80772 | 10.35018 | 248° | 9km/h | 27628m | 5m/s | -49.3°C | 0.5% | 18.1hPa | 2.6V | 18:12:15 | 01:48:30 | 00:00:00 | |
| DL1XH-west | 2026-09-01 00:17:50 | 48.80773 | 10.35021 | 222° | 7km/h | 27623m | 5.9m/s | -49.3°C | 0.5% | 18.1hPa | 2.6V | 18:12:15 | 01:48:29 | 00:00:00 | |
| DF8AY | 2026-09-01 00:17:50 | 48.80767 | 10.35037 | 299° | 16km/h | 27578m | 5.2m/s | -49.5°C | 0.6% | 18.2hPa | 2.7V | 18:12:15 | 01:48:21 | 00:00:00 | |
| DO9HM | 2026-09-01 00:17:50 | 48.80773 | 10.35021 | 223° | 7km/h | 27623m | 5.9m/s | -49.3°C | 1.0% | 18.1hPa | 2.7V | 00:00:00 | 00:00:00 | 00:00:00 | |
| AZAK | 2026-09-01 00:17:49 | 48.80775 | 10.35022 | 194° | 4km/h | 27617m | 6.2m/s | -49.3°C | 1.0% | 18.1hPa | 2.7V | 00:00:00 | 00:00:00 | 00:00:00 | |
| DM0DOS-11 | 2026-09-01 00:17:48 | 48.80767 | 10.35037 | 298° | 16km/h | 27578m | 5.2m/s | -49.5°C | 3.8% | 18.2hPa | 2.7V | 08:30:00 | 01:48:21 | 00:00:00 | |
| HSKMA3-T | 2026-09-01 00:17:45 | 48.80772 | 10.35023 | 316° | 9km/h | 27595m | 6.2m/s | -49.5°C | 0.6% | 18.2hPa | 2.6V | 18:12:15 | 01:48:24 | 00:00:00 | |
| DO3MHA-12 | 2026-09-01 00:17:45 | 48.80772 | 10.35023 | 317° | 15km/h | 27595m | 6.1m/s | -49.4°C | 3.9% | 18.1hPa | 2.6V | 00:00:00 | 01:48:24 | 08:30:00 | |
| DL1XH1-15 | 2026-09-01 00:17:43 | 48.80762 | 10.35047 | 318° | 15km/h | 27566m | 6.1m/s | -49.5°C | 3.8% | 18.2hPa | 2.6V | 08:30:00 | 01:48:19 | 00:00:00 | |
| DK7TD | 2026-09-01 00:17:41 | 48.80764 | 10.35042 | 307° | 16km/h | 27572m | 6.6m/s | -49.5°C | 0.6% | 18.2hPa | 2.7V | 18:12:15 | 01:48:20 | 00:00:00 | |
| DL1XH-west | 2026-09-01 00:17:40 | 48.80762 | 10.35047 | 319° | 15km/h | 27566m | 6.1m/s | -49.5°C | 0.6% | 18.2hPa | 2.6V | 18:12:15 | 01:48:19 | 00:00:00 | |
| DL8DAS-14 | 2026-09-01 00:17:40 | 48.80762 | 10.35047 | 318° | 15km/h | 27566m | 6.1m/s | -49.5°C | 1.0% | 18.2hPa | 2.6V | 00:00:00 | 00:00:00 | 00:00:00 | |
| OE5DXL-15 | 2026-09-01 00:17:39 | 48.80759 | 10.35050 | 320° | 13km/h | 27561m | 4.9m/s | -49.4°C | 3.8% | 18.2hPa | 2.6V | 00:00:00 | 00:00:00 | 08:30:00 | |
| DF7PN | 2026-09-01 00:17:38 | 48.80755 | 10.35058 | 294° | 13km/h | 27549m | 6.6m/s | -49.4°C | 1.0% | 18.3hPa | 2.6V | 00:00:00 | 00:00:00 | 00:00:00 | |
| DM0DOS-11 | 2026-09-01 00:17:37 | 48.80754 | 10.35076 | 259° | 11km/h | 27525m | 5.6m/s | -49.4°C | 3.8% | 18.4hPa | 2.6V | 08:30:00 | 01:48:12 | 00:00:00 | |
| HSKMA3-T | 2026-09-01 00:17:34 | 48.80754 | 10.35072 | 266° | 11km/h | 27531m | 6.7m/s | -49.4°C | 0.5% | 18.3hPa | 2.6V | 18:12:15 | 01:48:13 | 00:00:00 | |
| DL1NUX | 2026-09-01 00:17:33 | 48.80759 | 10.35106 | 268° | 16km/h | 27497m | 5.9m/s | -49.5°C | 3.8% | 18.4hPa | 2.6V | 08:30:00 | 01:48:07 | 00:00:00 | |
| DL1XH1-15 | 2026-09-01 00:17:33 | 48.80757 | 10.35092 | 254° | 18km/h | 27507m | 5.7m/s | -49.5°C | 3.8% | 18.4hPa | 2.7V | 08:30:00 | 01:48:09 | 00:00:00 | |
| DF8AY | 2026-09-01 00:17:33 | 48.80755 | 10.35081 | 253° | 13km/h | 27519m | 5.2m/s | -49.4°C | 0.5% | 18.4hPa | 2.6V | 18:12:15 | 01:48:11 | 00:00:00 | |
| DL1XH-west | 2026-09-01 00:17:30 | 48.80757 | 10.35092 | 255° | 18km/h | 27507m | 5.7m/s | -49.5°C | 0.6% | 18.4hPa | 2.7V | 18:12:15 | 01:48:09 | 00:00:00 | |
| HSKMA3-T | 2026-09-01 00:17:23 | 48.80753 | 10.35132 | 282° | 16km/h | 27469m | 6m/s | -49.6°C | 0.6% | 18.5hPa | 2.6V | 18:12:15 | 01:48:02 | 00:00:00 | |
| DM0DOS-11 | 2026-09-01 00:17:22 | 48.80753 | 10.35145 | 269° | 16km/h | 27459m | 4.5m/s | -49.6°C | 3.8% | 18.5hPa | 2.6V | 08:30:00 | 01:48:00 | 00:00:00 | |
| BIOWL1-15 | 2026-09-01 00:17:22 | 48.80753 | 10.35139 | 275° | 18km/h | 27463m | 5m/s | -49.6°C | 0.6% | 18.5hPa | 2.6V | 18:12:15 | 01:48:01 | 00:00:00 | |
| DL1XH1-15 | 2026-09-01 00:17:21 | 48.80753 | 10.35151 | 268° | 15km/h | 27453m | 5.9m/s | -49.6°C | 3.8% | 18.6hPa | 2.7V | 08:30:00 | 01:47:59 | 00:00:00 | |
| DL1XH-west | 2026-09-01 00:17:20 | 48.80752 | 10.35151 | 268° | 15km/h | 27453m | 5.9m/s | -49.6°C | 0.6% | 18.6hPa | 2.7V | 18:12:15 | 01:47:59 | 00:00:00 | |
| OE5DRO-10 | 2026-09-01 00:17:18 | 48.80753 | 10.35159 | 253° | 11km/h | 27441m | 5.5m/s | -49.6°C | 3.9% | 18.5hPa | 2.7V | 00:00:00 | 00:00:00 | 00:00:00 | |
| DO3MHA-11 | 2026-09-01 00:17:17 | 48.80754 | 10.35161 | 227° | 9km/h | 27436m | 5.5m/s | -49.6°C | 3.9% | 18.6hPa | 2.7V | 00:00:00 | 01:47:56 | 00:00:00 | |
| DG9SBQ-11 | 2026-09-01 00:17:16 | 48.80756 | 10.35163 | 216° | 11km/h | 27430m | 6.6m/s | -49.6°C | 1.0% | 18.6hPa | 2.7V | 00:00:00 | 00:00:00 | 00:00:00 | |
| OE5MMP-10 | 2026-09-01 00:17:15 | 48.80758 | 10.35166 | 212° | 11km/h | 27423m | 6.2m/s | 0°C | 0% | 0hPa | 2.7V | 00:00:00 | 01:47:54 | 00:00:00 | |
| DL1NUX | 2026-09-01 00:17:13 | 48.80775 | 10.35176 | 204° | 7km/h | 27383m | 6.3m/s | -49.5°C | 3.8% | 18.7hPa | 2.7V | 08:30:00 | 01:47:47 | 00:00:00 | |
| DL1XH1-15 | 2026-09-01 00:17:13 | 48.80772 | 10.35175 | 179° | 5km/h | 27394m | 5.2m/s | -49.6°C | 3.8% | 18.7hPa | 2.6V | 08:30:00 | 01:47:49 | 00:00:00 | |
| HSKMA3-T | 2026-09-01 00:17:13 | 48.80765 | 10.35171 | 205° | 15km/h | 27412m | 5.1m/s | -49.6°C | 0.6% | 18.6hPa | 2.6V | 18:12:15 | 01:47:52 | 00:00:00 | |
| DF8AY | 2026-09-01 00:17:12 | 48.80771 | 10.35175 | 189° | 7km/h | 27400m | 6.2m/s | -49.6°C | 0.6% | 18.7hPa | 2.6V | 18:12:15 | 01:47:50 | 00:00:00 | |
| DL1XH-west | 2026-09-01 00:17:10 | 48.80776 | 10.35177 | 210° | 9km/h | 27377m | 5.2m/s | -49.5°C | 0.6% | 18.8hPa | 2.6V | 18:12:15 | 01:47:46 | 00:00:00 | |
| DK7TD | 2026-09-01 00:17:09 | 48.80773 | 10.35175 | 192° | 4km/h | 27389m | 5.6m/s | -49.5°C | 0.6% | 18.7hPa | 2.7V | 18:12:15 | 01:47:48 | 00:00:00 | |
| OE5DXL-15 | 2026-09-01 00:17:09 | 48.80773 | 10.35175 | 193° | 15km/h | 27389m | 5.5m/s | -49.5°C | 3.8% | 18.7hPa | 2.6V | 00:00:00 | 00:00:00 | 00:00:00 | |
| SONDE2-11 | 2026-09-01 00:17:08 | 48.80775 | 10.35176 | 204° | 5km/h | 27383m | 6.3m/s | -49.5°C | 1.0% | 18.8hPa | 2.6V | 00:00:00 | 00:00:00 | 00:00:00 | |
| DF7PN | 2026-09-01 00:17:07 | 48.80779 | 10.35179 | 206° | 9km/h | 27372m | 4.6m/s | -49.6°C | 1.0% | 18.8hPa | 2.6V | 00:00:00 | 00:00:00 | 00:00:00 | |
| DK5PH-5 | 2026-09-01 00:17:06 | 48.80779 | 10.35179 | 207° | 15km/h | 27373m | 4.6m/s | -49.5°C | 3.8% | 18.7hPa | 2.6V | 00:00:00 | 01:47:45 | 00:00:00 | |
| OE5MMP-10 | 2026-09-01 00:17:05 | 48.80781 | 10.35180 | 200° | 15km/h | 27367m | 5.9m/s | 0°C | 0% | 0hPa | 2.6V | 00:00:00 | 01:47:44 | 00:00:00 | |
| DG9SBQ-11 | 2026-09-01 00:17:03 | 48.80783 | 10.35181 | 186° | 9km/h | 27361m | 6.4m/s | -49.7°C | 1.0% | 18.8hPa | 2.6V | 00:00:00 | 00:00:00 | 00:00:00 | |
| DL1XH1-15 | 2026-09-01 00:17:02 | 48.80796 | 10.35180 | 180° | 20km/h | 27337m | 5.5m/s | -49.7°C | 3.9% | 18.9hPa | 2.6V | 08:30:00 | 01:47:39 | 00:00:00 | |
| DM0DOS-11 | 2026-09-01 00:17:02 | 48.80792 | 10.35180 | 178° | 16km/h | 27343m | 6.8m/s | -49.7°C | 3.9% | 18.9hPa | 2.6V | 08:30:00 | 01:47:40 | 00:00:00 | |
| HSKMA3-T | 2026-09-01 00:17:02 | 48.80788 | 10.35181 | 174° | 13km/h | 27349m | 5.5m/s | -49.7°C | 0.7% | 18.8hPa | 2.6V | 18:12:15 | 01:47:41 | 00:00:00 | |
| DF8AY | 2026-09-01 00:16:59 | 48.80826 | 10.35167 | 160° | 18km/h | 27298m | 5.3m/s | -49.7°C | 0.6% | 19hPa | 2.7V | 18:12:15 | 01:47:32 | 00:00:00 | |
| DL1XH-west | 2026-09-01 00:16:59 | 48.80802 | 10.35180 | 178° | 20km/h | 27332m | 4.4m/s | -49.7°C | 0.6% | 18.9hPa | 2.6V | 18:12:15 | 01:47:38 | 00:00:00 | |
| DK7TD | 2026-09-01 00:16:58 | 48.80806 | 10.35180 | 172° | 18km/h | 27327m | 6.2m/s | -49.7°C | 0.6% | 18.9hPa | 2.7V | 18:12:15 | 01:47:37 | 00:00:00 | |
| SO1NDE-10 | 2026-09-01 00:16:58 | 48.80806 | 10.35180 | 172° | 15km/h | 27327m | 6.1m/s | -49.6°C | 3.8% | 18.9hPa | 2.7V | 00:00:00 | 01:47:37 | 00:00:00 | |
| DO3MHA-11 | 2026-09-01 00:16:57 | 48.80810 | 10.35178 | 160° | 16km/h | 27321m | 6.1m/s | -49.7°C | 3.9% | 18.9hPa | 2.7V | 00:00:00 | 01:47:36 | 00:00:00 | |
| DF1GD-15 | 2026-09-01 00:16:56 | 48.80810 | 10.35178 | 161° | 16km/h | 27321m | 6.1m/s | -49.7°C | 1.0% | 18.9hPa | 2.6V | 00:00:00 | 00:00:00 | 00:00:00 | |
| NBG1-10 | 2026-09-01 00:16:55 | 48.80818 | 10.35172 | 151° | 13km/h | 27310m | 5.4m/s | -49.7°C | 3.9% | 18.9hPa | 2.6V | 00:00:00 | 01:47:34 | 00:00:00 | |
| AM1SDL-15 | 2026-09-01 00:16:54 | 48.80821 | 10.35169 | 156° | 16km/h | 27304m | 6.4m/s | -49.7°C | 3.9% | 18.9hPa | 2.6V | 00:00:00 | 01:47:33 | 00:00:00 | |
| DL1NUX | 2026-09-01 00:16:53 | 48.80845 | 10.35157 | 174° | 16km/h | 27270m | 5.9m/s | -49.6°C | 3.9% | 19.1hPa | 2.6V | 08:30:00 | 01:47:27 | 00:00:00 | |
| DM0DOS-11 | 2026-09-01 00:16:52 | 48.80834 | 10.35162 | 157° | 16km/h | 27287m | 6.5m/s | -49.7°C | 3.9% | 19hPa | 2.6V | 08:30:00 | 01:47:30 | 00:00:00 | |
| DL1XH1-15 | 2026-09-01 00:16:52 | 48.80838 | 10.35160 | 154° | 15km/h | 27281m | 5.9m/s | -49.7°C | 3.9% | 19hPa | 2.6V | 08:30:00 | 01:47:29 | 00:00:00 | |
| HSKMA3-T | 2026-09-01 00:16:51 | 48.80834 | 10.35162 | 157° | 16km/h | 27287m | 6.5m/s | -49.7°C | 0.7% | 19hPa | 2.6V | 18:12:15 | 01:47:30 | 00:00:00 | |
| DL1XH-west | 2026-09-01 00:16:49 | 48.80841 | 10.35158 | 162° | 15km/h | 27275m | 5m/s | -49.7°C | 0.6% | 19.1hPa | 2.6V | 18:12:15 | 01:47:28 | 00:00:00 | |
| DK7TD | 2026-09-01 00:16:48 | 48.80845 | 10.35157 | 175° | 16km/h | 27270m | 5.9m/s | -49.6°C | 0.6% | 19.1hPa | 2.6V | 18:12:15 | 01:47:27 | 00:00:00 | |
| DO3MHA-11 | 2026-09-01 00:16:47 | 48.80849 | 10.35157 | 187° | 16km/h | 27264m | 6.3m/s | -49.6°C | 3.9% | 19.1hPa | 2.6V | 00:00:00 | 01:47:26 | 00:00:00 | |
| DB0NH | 2026-09-01 00:16:46 | 48.80854 | 10.35158 | 193° | 13km/h | 27258m | 4.9m/s | -49.6°C | 3.9% | 19.1hPa | 2.6V | 00:00:00 | 01:47:25 | 00:00:00 | |
| OE5MMP-10 | 2026-09-01 00:16:45 | 48.80859 | 10.35160 | 196° | 9km/h | 27253m | 4.5m/s | 0°C | 0% | 0hPa | 2.6V | 00:00:00 | 01:47:24 | 00:00:00 | |
| DL1NUX | 2026-09-01 00:16:43 | 48.80885 | 10.35168 | 184° | 15km/h | 27215m | 4.3m/s | -49.4°C | 3.8% | 19.2hPa | 2.6V | 08:30:00 | 01:47:17 | 00:00:00 | |
| DF8AY | 2026-09-01 00:16:42 | 48.80871 | 10.35164 | 188° | 11km/h | 27236m | 5.1m/s | -49.5°C | 0.6% | 19.2hPa | 2.7V | 18:12:15 | 01:47:21 | 00:00:00 | |
| DL1XH1-15 | 2026-09-01 00:16:42 | 48.80877 | 10.35166 | 190° | 15km/h | 27225m | 6.4m/s | -49.5°C | 3.8% | 19.2hPa | 2.6V | 08:30:00 | 01:47:19 | 00:00:00 | |
| HSKMA3-T | 2026-09-01 00:16:41 | 48.80877 | 10.35166 | 191° | 15km/h | 27225m | 6.4m/s | -49.5°C | 0.5% | 19.2hPa | 2.6V | 18:12:15 | 01:47:19 | 00:00:00 | |
| DL1XH-west | 2026-09-01 00:16:39 | 48.80881 | 10.35167 | 192° | 15km/h | 27220m | 5m/s | -49.4°C | 0.6% | 19.2hPa | 2.6V | 18:12:15 | 01:47:18 | 00:00:00 | |
| DK7TD | 2026-09-01 00:16:39 | 48.80885 | 10.35167 | 185° | 15km/h | 27215m | 4.3m/s | -49.4°C | 0.6% | 19.3hPa | 2.6V | 18:12:15 | 01:47:17 | 00:00:00 | |
| BIOWL1-15 | 2026-09-01 00:16:39 | 48.80891 | 10.35167 | 159° | 11km/h | 27203m | 6.2m/s | -49.3°C | 0.5% | 19.3hPa | 2.7V | 18:12:15 | 01:47:15 | 00:00:00 | |
| DO3MHA-11 | 2026-09-01 00:16:37 | 48.80888 | 10.35167 | 175° | 13km/h | 27210m | 6.2m/s | -49.3°C | 3.8% | 19.2hPa | 2.6V | 00:00:00 | 01:47:16 | 00:00:00 | |
| DF7PN | 2026-09-01 00:16:36 | 48.80894 | 10.35165 | 151° | 9km/h | 27198m | 4.7m/s | -49.3°C | 1.0% | 19.3hPa | 2.6V | 00:00:00 | 00:00:00 | 00:00:00 | |
| DO3MHA-12 | 2026-09-01 00:16:35 | 48.80894 | 10.35165 | 152° | 11km/h | 27198m | 4.6m/s | -49.3°C | 3.8% | 19.3hPa | 2.6V | 00:00:00 | 01:47:14 | 00:00:00 | |
| HEMX73-6 | 2026-09-01 00:16:34 | 48.80896 | 10.35163 | 158° | 9km/h | 27194m | 4.5m/s | 0°C | 0% | 0hPa | 2.6V | 00:00:00 | 01:47:13 | 00:00:00 | |
| DL1NUX | 2026-09-01 00:16:33 | 48.80917 | 10.35162 | 157° | 9km/h | 27160m | 6m/s | -49.4°C | 3.7% | 19.4hPa | 2.6V | 08:30:00 | 01:47:07 | 00:00:00 | |
| DL1XH1-15 | 2026-09-01 00:16:32 | 48.80911 | 10.35163 | 184° | 15km/h | 27172m | 4.3m/s | -49.3°C | 3.7% | 19.4hPa | 2.7V | 08:30:00 | 01:47:09 | 00:00:00 | |
| HSKMA3-T | 2026-09-01 00:16:30 | 48.80911 | 10.35163 | 184° | 15km/h | 27172m | 4.3m/s | -49.3°C | 0.5% | 19.4hPa | 2.7V | 18:12:15 | 01:47:09 | 00:00:00 | |
| DL1XH-west | 2026-09-01 00:16:28 | 48.80917 | 10.35162 | 158° | 9km/h | 27160m | 6m/s | -49.4°C | 0.5% | 19.4hPa | 2.6V | 18:12:15 | 01:47:07 | 00:00:00 | |
| DK7TD | 2026-09-01 00:16:27 | 48.80919 | 10.35161 | 143° | 5km/h | 27155m | 5.1m/s | -49.4°C | 0.6% | 19.4hPa | 2.6V | 18:12:15 | 01:47:06 | 00:00:00 | |
| DO3MHA-11 | 2026-09-01 00:16:27 | 48.80919 | 10.35160 | 144° | 7km/h | 27155m | 5.0m/s | -49.3°C | 3.8% | 19.4hPa | 2.6V | 00:00:00 | 01:47:06 | 08:30:00 | |
| DO3MHA-12 | 2026-09-01 00:16:25 | 48.80920 | 10.35159 | 178° | 9km/h | 27144m | 5.9m/s | -49.3°C | 3.8% | 19.4hPa | 2.6V | 00:00:00 | 01:47:04 | 00:00:00 | |
| OE5MMP-10 | 2026-09-01 00:16:24 | 48.80921 | 10.35159 | 177° | 9km/h | 27138m | 5.0m/s | 0°C | 0% | 0hPa | 2.6V | 00:00:00 | 01:47:03 | 08:30:00 | |
| DL1NUX | 2026-09-01 00:16:23 | 48.80930 | 10.35139 | 150° | 13km/h | 27099m | 4.5m/s | -49.5°C | 3.7% | 19.6hPa | 2.6V | 08:30:00 | 01:46:56 | 00:00:00 | |
| BIOWL1-15 | 2026-09-01 00:16:23 | 48.80923 | 10.35150 | 113° | 13km/h | 27116m | 4.8m/s | -49.4°C | 0.5% | 19.5hPa | 2.7V | 18:12:15 | 01:46:59 | 00:00:00 | |
| DL1XH1-15 | 2026-09-01 00:16:22 | 48.80923 | 10.35150 | 113° | 13km/h | 27116m | 4.8m/s | -49.4°C | 3.7% | 19.5hPa | 2.7V | 08:30:00 | 01:46:59 | 00:00:00 | |
| DF8AY | 2026-09-01 00:16:19 | 48.80925 | 10.35146 | 128° | 13km/h | 27110m | 6.4m/s | -49.4°C | 0.5% | 19.6hPa | 2.7V | 18:12:15 | 01:46:58 | 00:00:00 | |
| DL1XH-west | 2026-09-01 00:16:18 | 48.80927 | 10.35142 | 143° | 13km/h | 27104m | 5.7m/s | -49.4°C | 0.5% | 19.6hPa | 2.6V | 18:12:15 | 01:46:57 | 00:00:00 | |
| DK7TD | 2026-09-01 00:16:17 | 48.80930 | 10.35139 | 150° | 13km/h | 27099m | 4.5m/s | -49.5°C | 0.5% | 19.6hPa | 2.6V | 18:12:15 | 01:46:56 | 00:00:00 | |
| DO3MHA-11 | 2026-09-01 00:16:17 | 48.80930 | 10.35139 | 151° | 9km/h | 27099m | 4.4m/s | -49.4°C | 3.7% | 19.5hPa | 2.6V | 00:00:00 | 01:46:56 | 00:00:00 | |
| DB0NH | 2026-09-01 00:16:16 | 48.80932 | 10.35136 | 144° | 11km/h | 27095m | 5.0m/s | -49.4°C | 3.7% | 19.5hPa | 2.6V | 00:00:00 | 01:46:55 | 00:00:00 | |
| DO3MHA-12 | 2026-09-01 00:16:15 | 48.80935 | 10.35133 | 128° | 9km/h | 27089m | 6.3m/s | -49.4°C | 3.7% | 19.6hPa | 2.6V | 00:00:00 | 01:46:54 | 08:30:00 | |
| DL1NUX | 2026-09-01 00:16:14 | 48.80938 | 10.35112 | 89° | 9km/h | 27052m | 6m/s | -49.7°C | 3.7% | 19.7hPa | 2.7V | 08:30:00 | 01:46:47 | 00:00:00 | |
| AM1SDL-15 | 2026-09-01 00:16:13 | 48.80936 | 10.35125 | 96° | 11km/h | 27078m | 4.7m/s | -49.4°C | 3.7% | 19.6hPa | 2.6V | 00:00:00 | 01:46:52 | 00:00:00 | |
| DL1XH1-15 | 2026-09-01 00:16:12 | 48.80937 | 10.35117 | 106° | 5km/h | 27061m | 4.7m/s | -49.5°C | 3.7% | 19.7hPa | 2.6V | 08:30:00 | 01:46:49 | 00:00:00 | |
| BIOWL1-15 | 2026-09-01 00:16:12 | 48.80937 | 10.35117 | 107° | 5km/h | 27061m | 4.7m/s | -49.6°C | 0.5% | 19.7hPa | 2.6V | 18:12:15 | 01:46:49 | 00:00:00 | |
| DF8AY | 2026-09-01 00:16:09 | 48.80938 | 10.35115 | 97° | 7km/h | 27057m | 4.4m/s | -49.6°C | 0.5% | 19.7hPa | 2.7V | 18:12:15 | 01:46:48 | 00:00:00 | |
| DL1XH-west | 2026-09-01 00:16:08 | 48.80938 | 10.35112 | 90° | 9km/h | 27052m | 6m/s | -49.7°C | 0.5% | 19.7hPa | 2.7V | 18:12:15 | 01:46:47 | 00:00:00 | |
| DK7TD | 2026-09-01 00:16:07 | 48.80938 | 10.35108 | 87° | 15km/h | 27046m | 6.3m/s | -49.8°C | 0.5% | 19.7hPa | 2.6V | 18:12:15 | 01:46:46 | 00:00:00 | |
| AZAK | 2026-09-01 00:16:07 | 48.80938 | 10.35102 | 89° | 16km/h | 27040m | 5.2m/s | -49.8°C | 1.0% | 19.8hPa | 2.7V | 00:00:00 | 00:00:00 | 00:00:00 | |
| DK5PH-5 | 2026-09-01 00:16:06 | 48.80937 | 10.35102 | 89° | 11km/h | 27040m | 5.2m/s | -49.8°C | 3.8% | 19.7hPa | 2.7V | 00:00:00 | 01:46:45 | 00:00:00 | |
| DO3MHA-12 | 2026-09-01 00:16:05 | 48.80938 | 10.35095 | 96° | 13km/h | 27035m | 4.9m/s | -49.8°C | 3.8% | 19.7hPa | 2.7V | 00:00:00 | 01:46:44 | 00:00:00 | |
| DF7PN | 2026-09-01 00:16:04 | 48.80938 | 10.35089 | 104° | 15km/h | 27029m | 6.2m/s | -49.9°C | 1.0% | 19.8hPa | 2.7V | 00:00:00 | 00:00:00 | 00:00:00 | |
| DL1NUX | 2026-09-01 00:16:03 | 48.80946 | 10.35059 | 88° | 11km/h | 26996m | 5.1m/s | -50.1°C | 3.9% | 19.9hPa | 2.7V | 08:30:00 | 01:46:37 | 00:00:00 | |
| DL1XH1-15 | 2026-09-01 00:16:02 | 48.80945 | 10.35069 | 109° | 15km/h | 27007m | 6.2m/s | -50.1°C | 3.9% | 19.9hPa | 2.6V | 08:30:00 | 01:46:39 | 00:00:00 | |
| HSKMA3-T | 2026-09-01 00:15:59 | 48.80946 | 10.35064 | 97° | 15km/h | 27001m | 5.1m/s | -50.1°C | 0.6% | 19.9hPa | 2.6V | 18:12:15 | 01:46:38 | 00:00:00 | |
| DF8AY | 2026-09-01 00:15:59 | 48.80944 | 10.35050 | 30° | 9km/h | 26980m | 4.5m/s | -50.1°C | 0.6% | 20hPa | 2.6V | 18:12:15 | 01:46:34 | 00:00:00 | |
| DL1XH-west | 2026-09-01 00:15:57 | 48.80946 | 10.35055 | 78° | 9km/h | 26990m | 6.5m/s | -50.1°C | 0.7% | 19.9hPa | 2.7V | 18:12:15 | 01:46:36 | 00:00:00 | |
| DK7TD | 2026-09-01 00:15:56 | 48.80945 | 10.35052 | 51° | 7km/h | 26985m | 4.9m/s | -50.1°C | 0.6% | 19.9hPa | 2.6V | 18:12:15 | 01:46:35 | 00:00:00 | |
| DO3MHA-12 | 2026-09-01 00:15:55 | 48.80943 | 10.35050 | 31° | 11km/h | 26980m | 4.4m/s | -50.0°C | 3.9% | 19.9hPa | 2.6V | 00:00:00 | 01:46:34 | 00:00:00 | |
| DF1GD-15 | 2026-09-01 00:15:53 | 48.80941 | 10.35048 | 29° | 13km/h | 26975m | 6.2m/s | -50.1°C | 1.1% | 20.0hPa | 2.6V | 00:00:00 | 00:00:00 | 00:00:00 | |
| DL1XH1-15 | 2026-09-01 00:15:52 | 48.80927 | 10.35039 | 10° | 11km/h | 26953m | 6.5m/s | -50°C | 3.8% | 20hPa | 2.6V | 08:30:00 | 01:46:29 | 00:00:00 | |
| DJ2DS-15 | 2026-09-01 00:15:52 | 48.80934 | 10.35043 | 25° | 7km/h | 26963m | 4.8m/s | 0°C | 0% | 0hPa | 2.6V | 00:00:00 | 01:46:31 | 00:00:00 | |
| DL1NUX | 2026-09-01 00:15:50 | 48.80926 | 10.35034 | 126° | 11km/h | 26924m | 4.7m/s | -49.9°C | 3.8% | 20.1hPa | 2.6V | 08:30:00 | 01:46:24 | 00:00:00 | |
| HSKMA3-T | 2026-09-01 00:15:49 | 48.80924 | 10.35039 | 354° | 5km/h | 26947m | 5.5m/s | -49.9°C | 0.6% | 20.1hPa | 2.6V | 18:12:15 | 01:46:28 | 00:00:00 | |
| DL1XH-west | 2026-09-01 00:15:47 | 48.80924 | 10.35039 | 126° | 4km/h | 26936m | 6.5m/s | -49.9°C | 0.5% | 20.1hPa | 2.7V | 18:12:15 | 01:46:26 | 00:00:00 | |
| DK7TD | 2026-09-01 00:15:46 | 48.80924 | 10.35037 | 126° | 7km/h | 26930m | 6m/s | -49.9°C | 0.6% | 20.1hPa | 2.7V | 18:12:15 | 01:46:25 | 00:00:00 | |
| BIOWL1-15 | 2026-09-01 00:15:45 | 48.80931 | 10.35024 | 81° | 4km/h | 26903m | 4.7m/s | -50°C | 0.6% | 20.2hPa | 2.7V | 18:12:15 | 01:46:20 | 00:00:00 | |
| HSKMA3-T | 2026-09-01 00:15:39 | 48.80929 | 10.35020 | 40° | 13km/h | 26891m | 6.6m/s | -50.1°C | 0.6% | 20.2hPa | 2.6V | 18:12:15 | 01:46:18 | 00:00:00 | |
| DL1XH-west | 2026-09-01 00:15:37 | 48.80922 | 10.35013 | 27° | 16km/h | 26880m | 4.7m/s | -50.2°C | 0.6% | 20.3hPa | 2.6V | 18:12:15 | 01:46:16 | 00:00:00 | |
| DO3MHA-11 | 2026-09-01 00:15:37 | 48.80922 | 10.35013 | 27° | 11km/h | 26881m | 4.6m/s | -50.1°C | 3.9% | 20.2hPa | 2.7V | 00:00:00 | 01:46:16 | 00:00:00 | |
| DL1NUX | 2026-09-01 00:15:36 | 48.80915 | 10.35010 | 4° | 11km/h | 26869m | 4.9m/s | -50.2°C | 3.9% | 20.3hPa | 2.7V | 08:30:00 | 01:46:14 | 00:00:00 | |
| BIOWL1-15 | 2026-09-01 00:15:35 | 48.80916 | 10.35010 | 5° | 11km/h | 26869m | 4.9m/s | -50.2°C | 0.7% | 20.3hPa | 2.7V | 18:12:15 | 01:46:14 | 00:00:00 | |
| DF8AY | 2026-09-01 00:15:32 | 48.80921 | 10.34992 | 157° | 4km/h | 26825m | 5.2m/s | -50.2°C | 0.7% | 20.4hPa | 2.6V | 18:12:15 | 01:46:06 | 00:00:00 | |
| HSKMA3-T | 2026-09-01 00:15:28 | 48.80920 | 10.34993 | 143° | 9km/h | 26831m | 6.4m/s | -50.2°C | 0.7% | 20.4hPa | 2.6V | 18:12:15 | 01:46:07 | 00:00:00 | |
| DL1XH-west | 2026-09-01 00:15:26 | 48.80922 | 10.34991 | 115° | 2km/h | 26820m | 5m/s | -50.2°C | 0.6% | 20.4hPa | 2.6V | 18:12:15 | 01:46:05 | 00:00:00 | |
| DK7TD | 2026-09-01 00:15:24 | 48.80921 | 10.34989 | 60° | 7km/h | 26808m | 6.3m/s | -50.2°C | 0.7% | 20.5hPa | 2.7V | 18:12:15 | 01:46:03 | 00:00:00 | |
| OE5DRO-10 | 2026-09-01 00:15:24 | 48.80921 | 10.34989 | 61° | 7km/h | 26808m | 6.2m/s | -50.1°C | 4.0% | 20.4hPa | 2.6V | 00:00:00 | 00:00:00 | 00:00:00 | |
| DG9SBQ-11 | 2026-09-01 00:15:23 | 48.80921 | 10.34989 | 61° | 7km/h | 26808m | 6.3m/s | -50.2°C | 1.0% | 20.5hPa | 2.6V | 00:00:00 | 00:00:00 | 00:00:00 | |
| DL1XH1-15 | 2026-09-01 00:15:22 | 48.80916 | 10.34979 | 24° | 4km/h | 26785m | 6m/s | -50.1°C | 3.9% | 20.5hPa | 2.6V | 08:30:00 | 01:45:59 | 00:00:00 | |
| HSKMA3-T | 2026-09-01 00:15:17 | 48.80915 | 10.34975 | 102° | 7km/h | 26762m | 5.3m/s | -50°C | 0.7% | 20.6hPa | 2.6V | 18:12:15 | 01:45:55 | 00:00:00 | |
| DL1NUX | 2026-09-01 00:15:17 | 48.80915 | 10.34972 | 104° | 5km/h | 26757m | 4.9m/s | -50°C | 3.9% | 20.6hPa | 2.6V | 08:30:00 | 01:45:54 | 00:00:00 | |
| DL1XH-west | 2026-09-01 00:15:15 | 48.80915 | 10.34973 | 104° | 7km/h | 26757m | 4.9m/s | -50°C | 0.7% | 20.6hPa | 2.6V | 18:12:15 | 01:45:54 | 00:00:00 | |
| DK7TD | 2026-09-01 00:15:14 | 48.80915 | 10.34971 | 93° | 4km/h | 26751m | 6.5m/s | -50°C | 0.6% | 20.7hPa | 2.7V | 18:12:15 | 01:45:53 | 00:00:00 | |
| DF8AY | 2026-09-01 00:15:13 | 48.80905 | 10.34963 | 29° | 11km/h | 26718m | 4.9m/s | -49.9°C | 0.6% | 20.8hPa | 2.7V | 18:12:15 | 01:45:47 | 00:00:00 | |
| BIOWL1-15 | 2026-09-01 00:15:11 | 48.80907 | 10.34966 | 33° | 13km/h | 26723m | 5.4m/s | -49.9°C | 0.6% | 20.8hPa | 2.6V | 18:12:15 | 01:45:48 | 00:00:00 | |
| DJTTGO | 2026-09-01 00:15:11 | 48.80914 | 10.34969 | 4° | 5km/h | 26740m | 4.9m/s | -49.9°C | 1.0% | 20.7hPa | 2.6V | 00:00:00 | 00:00:00 | 00:00:00 | |
| DL1NUX | 2026-09-01 00:15:09 | 48.80897 | 10.34963 | 345° | 7km/h | 26695m | 5.6m/s | -49.9°C | 3.8% | 20.8hPa | 2.6V | 08:30:00 | 01:45:43 | 00:00:00 | |
| OE5DXL-15 | 2026-09-01 00:15:09 | 48.80907 | 10.34966 | 33° | 11km/h | 26723m | 5.4m/s | -49.9°C | 3.9% | 20.7hPa | 2.7V | 00:00:00 | 00:00:00 | 00:00:00 | |
| DM0DOS-11 | 2026-09-01 00:15:08 | 48.80895 | 10.34963 | 11° | 5km/h | 26689m | 6.7m/s | -49.8°C | 3.8% | 20.9hPa | 2.7V | 08:30:00 | 01:45:42 | 00:00:00 | |
| DL1XH-west | 2026-09-01 00:15:05 | 48.80899 | 10.34962 | 338° | 7km/h | 26700m | 5.1m/s | -49.9°C | 0.6% | 20.8hPa | 2.6V | 18:12:15 | 01:45:44 | 00:00:00 | |
| DK7TD | 2026-09-01 00:15:03 | 48.80895 | 10.34963 | 12° | 7km/h | 26689m | 6.7m/s | -49.8°C | 0.6% | 20.9hPa | 2.7V | 18:12:15 | 01:45:42 | 00:00:00 | |
| DG9SBQ-11 | 2026-09-01 00:14:59 | 48.80890 | 10.34959 | 17° | 9km/h | 26671m | 6.9m/s | -50.0°C | 1.0% | 20.9hPa | 2.6V | 00:00:00 | 00:00:00 | 00:00:00 | |
| DM0DOS-11 | 2026-09-01 00:14:57 | 48.80865 | 10.34957 | 340° | 16km/h | 26629m | 5.8m/s | -50°C | 3.9% | 21.1hPa | 2.6V | 08:30:00 | 01:45:32 | 00:00:00 | |
| DF8AY | 2026-09-01 00:14:55 | 48.80874 | 10.34956 | 5° | 18km/h | 26641m | 5.2m/s | -50°C | 0.7% | 21hPa | 2.6V | 18:12:15 | 01:45:34 | 00:00:00 | |
| DL1XH-west | 2026-09-01 00:14:54 | 48.80869 | 10.34956 | 354° | 18km/h | 26635m | 6.8m/s | -50°C | 0.6% | 21hPa | 2.6V | 18:12:15 | 01:45:33 | 00:00:00 | |
| DK7TD | 2026-09-01 00:14:53 | 48.80865 | 10.34957 | 341° | 16km/h | 26629m | 5.8m/s | -50°C | 0.6% | 21.1hPa | 2.6V | 18:12:15 | 01:45:32 | 00:00:00 | |
| OE5MMP-10 | 2026-09-01 00:14:53 | 48.80865 | 10.34957 | 341° | 9km/h | 26629m | 5.8m/s | 0°C | 0% | 0hPa | 2.6V | 00:00:00 | 01:45:32 | 00:00:00 | |
| DL1XH1-15 | 2026-09-01 00:14:52 | 48.80856 | 10.34964 | 334° | 7km/h | 26612m | 6.6m/s | -50°C | 3.9% | 21.1hPa | 2.6V | 08:30:00 | 01:45:29 | 00:00:00 | |
| DF1GD-15 | 2026-09-01 00:14:51 | 48.80861 | 10.34960 | 332° | 15km/h | 26624m | 5.0m/s | -50.0°C | 1.1% | 21.1hPa | 2.6V | 00:00:00 | 00:00:00 | 00:00:00 | |
| DG9SBQ-11 | 2026-09-01 00:14:49 | 48.80856 | 10.34964 | 336° | 7km/h | 26612m | 6.6m/s | -50.0°C | 1.0% | 21.1hPa | 2.6V | 00:00:00 | 00:00:00 | 00:00:00 | |
| DO3MHA-11 | 2026-09-01 00:14:47 | 48.80853 | 10.34965 | 335° | 9km/h | 26595m | 5.9m/s | -49.9°C | 3.9% | 21.1hPa | 2.6V | 00:00:00 | 01:45:26 | 00:00:00 | |
| DM0DOS-11 | 2026-09-01 00:14:46 | 48.80846 | 10.34971 | 354° | 11km/h | 26573m | 6.2m/s | -49.9°C | 3.8% | 21.2hPa | 2.6V | 08:30:00 | 01:45:22 | 00:00:00 | |
| DB0NH | 2026-09-01 00:14:46 | 48.80852 | 10.34966 | 317° | 9km/h | 26589m | 6.4m/s | -49.9°C | 3.8% | 21.1hPa | 2.6V | 00:00:00 | 01:45:25 | 00:00:00 | |
| DL1XH1-15 | 2026-09-01 00:14:45 | 48.80835 | 10.34964 | 15° | 9km/h | 26550m | 6m/s | -50°C | 3.8% | 21.3hPa | 2.6V | 08:30:00 | 01:45:18 | 00:00:00 | |
| DL1XH-west | 2026-09-01 00:14:44 | 48.80849 | 10.34970 | 337° | 11km/h | 26578m | 4.7m/s | -49.9°C | 0.6% | 21.2hPa | 2.6V | 18:12:15 | 01:45:23 | 00:00:00 | |
| DK7TD | 2026-09-01 00:14:43 | 48.80846 | 10.34971 | 354° | 11km/h | 26573m | 6.2m/s | -49.9°C | 0.6% | 21.2hPa | 2.6V | 18:12:15 | 01:45:22 | 00:00:00 | |
| BIOWL1-15 | 2026-09-01 00:14:41 | 48.80828 | 10.34971 | 307° | 7km/h | 26525m | 6.7m/s | -50°C | 0.6% | 21.4hPa | 2.7V | 18:12:15 | 01:45:14 | 00:00:00 | |
| DF8AY | 2026-09-01 00:14:34 | 48.80808 | 10.34987 | 5° | 5km/h | 26472m | 4.7m/s | -50.2°C | 0.7% | 21.6hPa | 2.6V | 18:12:15 | 01:45:05 | 00:00:00 | |
| DL1XH-west | 2026-09-01 00:14:34 | 48.80825 | 10.34974 | 333° | 7km/h | 26514m | 4.7m/s | -50.1°C | 0.6% | 21.4hPa | 2.6V | 18:12:15 | 01:45:12 | 00:00:00 | |
| DK7TD | 2026-09-01 00:14:33 | 48.80824 | 10.34975 | 333° | 11km/h | 26509m | 5.5m/s | -50.1°C | 0.6% | 21.4hPa | 2.6V | 18:12:15 | 01:45:11 | 00:00:00 | |
| BIOWL1-15 | 2026-09-01 00:14:32 | 48.80818 | 10.34981 | 326° | 15km/h | 26496m | 5.7m/s | -50.2°C | 0.6% | 21.5hPa | 2.7V | 18:12:15 | 01:45:09 | 00:00:00 | |
| DL1XH-west | 2026-09-01 00:14:23 | 48.80806 | 10.34988 | 265° | 4km/h | 26455m | 5.3m/s | -50.2°C | 0.6% | 21.6hPa | 2.7V | 18:12:15 | 01:45:02 | 00:00:00 | |
| HSKMA3-T | 2026-09-01 00:14:22 | 48.80806 | 10.34989 | 220° | 4km/h | 26449m | 5.4m/s | -50.2°C | 0.6% | 21.6hPa | 2.6V | 18:12:15 | 01:45:01 | 00:00:00 | |
| BIOWL1-15 | 2026-09-01 00:14:20 | 48.80809 | 10.34990 | 175° | 7km/h | 26437m | 5.3m/s | -50.2°C | 0.6% | 21.7hPa | 2.6V | 18:12:15 | 01:44:59 | 00:00:00 | |
| DL1NUX | 2026-09-01 00:14:19 | 48.80811 | 10.35004 | 275° | 7km/h | 26403m | 6.7m/s | -50.2°C | 3.9% | 21.8hPa | 2.6V | 08:30:00 | 01:44:53 | 00:00:00 | |
| DL1XH-west | 2026-09-01 00:14:13 | 48.80811 | 10.35006 | 252° | 4km/h | 26397m | 5.7m/s | -50.2°C | 0.6% | 21.8hPa | 2.7V | 18:12:15 | 01:44:52 | 00:00:00 | |
| DL1XH1-15 | 2026-09-01 00:14:12 | 48.80810 | 10.35003 | 35° | 5km/h | 26373m | 5.6m/s | -50.2°C | 4% | 21.9hPa | 2.6V | 08:30:00 | 01:44:48 | 00:00:00 | |
| DK7TD | 2026-09-01 00:14:12 | 48.80811 | 10.35006 | 152° | 2km/h | 26391m | 5.5m/s | -50.2°C | 0.6% | 21.8hPa | 2.7V | 18:12:15 | 01:44:51 | 00:00:00 | |
| DM0DOS-11 | 2026-09-01 00:14:11 | 48.80811 | 10.35004 | 49° | 5km/h | 26379m | 7m/s | -50.3°C | 3.9% | 21.9hPa | 2.6V | 08:30:00 | 01:44:49 | 00:00:00 | |
| HSKMA3-T | 2026-09-01 00:14:11 | 48.80811 | 10.35005 | 82° | 4km/h | 26386m | 6.2m/s | -50.3°C | 0.7% | 21.9hPa | 2.6V | 18:12:15 | 01:44:50 | 00:00:00 | |
| BIOWL1-15 | 2026-09-01 00:14:10 | 48.80811 | 10.35004 | 49° | 5km/h | 26379m | 7.1m/s | -50.3°C | 0.7% | 21.9hPa | 2.6V | 18:12:15 | 01:44:49 | 00:00:00 | |
| DF8AY | 2026-09-01 00:14:08 | 48.80815 | 10.35009 | 239° | 11km/h | 26332m | 5m/s | -50.2°C | 0.6% | 22hPa | 2.7V | 18:12:15 | 01:44:41 | 00:00:00 | |
| OE5DRO-10 | 2026-09-01 00:14:08 | 48.80809 | 10.35002 | 48° | 7km/h | 26368m | 4.9m/s | -50.2°C | 3.9% | 21.9hPa | 2.6V | 00:00:00 | 00:00:00 | 00:00:00 | |
| DJ8HS-15 | 2026-09-01 00:14:07 | 48.80808 | 10.35001 | 107° | 7km/h | 26362m | 6.6m/s | -50.2°C | 3.9% | 21.9hPa | 2.6V | 00:00:00 | 01:44:46 | 00:00:00 | |
| DK5PH-5 | 2026-09-01 00:14:06 | 48.80809 | 10.35000 | 178° | 7km/h | 26355m | 6.1m/s | -50.2°C | 3.9% | 21.9hPa | 2.6V | 00:00:00 | 01:44:45 | 00:00:00 | |
| DL1NUX | 2026-09-01 00:14:05 | 48.80819 | 10.35016 | 212° | 13km/h | 26320m | 6.7m/s | -50.2°C | 3.9% | 22.1hPa | 2.6V | 08:30:00 | 01:44:39 | 00:00:00 | |
| DL1XH-west | 2026-09-01 00:14:03 | 48.80814 | 10.35006 | 241° | 11km/h | 26337m | 6m/s | -50.3°C | 0.7% | 22hPa | 2.6V | 18:12:15 | 01:44:42 | 00:00:00 | |
| AZAK | 2026-09-01 00:14:03 | 48.80815 | 10.35009 | 240° | 11km/h | 26332m | 5.0m/s | -50.2°C | 1.0% | 22.0hPa | 2.6V | 00:00:00 | 00:00:00 | 00:00:00 | |
| DL1XH1-15 | 2026-09-01 00:14:02 | 48.80822 | 10.35018 | 195° | 15km/h | 26314m | 5.4m/s | -50.2°C | 3.9% | 22.1hPa | 2.6V | 08:30:00 | 01:44:38 | 00:00:00 | |
| DK7TD | 2026-09-01 00:14:02 | 48.80817 | 10.35013 | 228° | 13km/h | 26326m | 5.7m/s | -50.2°C | 0.6% | 22.1hPa | 2.7V | 18:12:15 | 01:44:40 | 00:00:00 | |
| BIOWL1-15 | 2026-09-01 00:14:02 | 48.80822 | 10.35018 | 196° | 15km/h | 26314m | 5.4m/s | -50.2°C | 0.7% | 22.1hPa | 2.6V | 18:12:15 | 01:44:38 | 00:00:00 | |
| HSKMA3-T | 2026-09-01 00:14:00 | 48.80819 | 10.35016 | 212° | 13km/h | 26320m | 6.7m/s | -50.2°C | 0.7% | 22.1hPa | 2.6V | 18:12:15 | 01:44:39 | 00:00:00 | |
| DL6DJ-15 | 2026-09-01 00:13:54 | 48.80834 | 10.35025 | 185° | 2km/h | 26280m | 6.7m/s | -50.0°C | 1.0% | 22.2hPa | 2.6V | 00:00:00 | 00:00:00 | 00:00:00 | |
| DB0ND-19 | 2026-09-01 00:13:53 | 48.80835 | 10.35025 | 147° | 4km/h | 26274m | 6.4m/s | -50.0°C | 1.0% | 22.2hPa | 2.6V | 00:00:00 | 00:00:00 | 00:00:00 | |
| DL1XH1-15 | 2026-09-01 00:13:52 | 48.80837 | 10.35023 | 233° | 2km/h | 26256m | 6.6m/s | -50.1°C | 3.9% | 22.3hPa | 2.6V | 08:30:00 | 01:44:28 | 00:00:00 | |
| DL1XH-west | 2026-09-01 00:13:52 | 48.80835 | 10.35025 | 148° | 4km/h | 26274m | 6.4m/s | -50°C | 0.6% | 22.2hPa | 2.6V | 18:12:15 | 01:44:31 | 00:00:00 | |
| DK7TD | 2026-09-01 00:13:51 | 48.80836 | 10.35024 | 143° | 4km/h | 26268m | 5.3m/s | -50°C | 0.6% | 22.2hPa | 2.7V | 18:12:15 | 01:44:30 | 00:00:00 | |
| HSKMA3-T | 2026-09-01 00:13:50 | 48.80837 | 10.35023 | 157° | 4km/h | 26262m | 5.4m/s | -50.1°C | 0.6% | 22.3hPa | 2.7V | 18:12:15 | 01:44:29 | 00:00:00 | |
| OE5DRO-10 | 2026-09-01 00:13:49 | 48.80837 | 10.35023 | 234° | 5km/h | 26257m | 6.6m/s | -50.1°C | 3.9% | 22.2hPa | 2.6V | 00:00:00 | 00:00:00 | 00:00:00 | |
| DL1NUX | 2026-09-01 00:13:48 | 48.80843 | 10.35034 | 198° | 5km/h | 26221m | 6.1m/s | -50.2°C | 3.9% | 22.4hPa | 2.6V | 08:30:00 | 01:44:22 | 00:00:00 | |
| BIOWL1-15 | 2026-09-01 00:13:48 | 48.80838 | 10.35025 | 266° | 5km/h | 26250m | 6m/s | -50.1°C | 0.6% | 22.3hPa | 2.6V | 18:12:15 | 01:44:27 | 00:00:00 | |
| DO3MHA-11 | 2026-09-01 00:13:47 | 48.80838 | 10.35027 | 256° | 5km/h | 26245m | 4.6m/s | -50.1°C | 3.9% | 22.3hPa | 2.7V | 00:00:00 | 01:44:26 | 00:00:00 | |
| DB0NH | 2026-09-01 00:13:46 | 48.80838 | 10.35030 | 239° | 7km/h | 26240m | 6.4m/s | -50.2°C | 3.8% | 22.3hPa | 2.7V | 00:00:00 | 01:44:25 | 00:00:00 | |
| DO3MHA-12 | 2026-09-01 00:13:45 | 48.80840 | 10.35032 | 215° | 5km/h | 26233m | 6.4m/s | -50.2°C | 3.9% | 22.3hPa | 2.7V | 00:00:00 | 01:44:24 | 00:00:00 | |
| DJTTGO | 2026-09-01 00:13:43 | 48.80843 | 10.35034 | 200° | 5km/h | 26221m | 6.1m/s | -50.2°C | 1.0% | 22.4hPa | 2.7V | 00:00:00 | 00:00:00 | 00:00:00 | |
| DL1XH1-15 | 2026-09-01 00:13:42 | 48.80843 | 10.35031 | 73° | 7km/h | 26198m | 6.7m/s | -50.3°C | 3.9% | 22.5hPa | 2.7V | 08:30:00 | 01:44:18 | 00:00:00 | |
| DL1XH-west | 2026-09-01 00:13:41 | 48.80844 | 10.35034 | 44° | 4km/h | 26209m | 5m/s | -50.3°C | 0.6% | 22.5hPa | 2.6V | 18:12:15 | 01:44:20 | 00:00:00 | |
| HSKMA3-T | 2026-09-01 00:13:39 | 48.80843 | 10.35031 | 74° | 7km/h | 26198m | 6.7m/s | -50.3°C | 0.6% | 22.5hPa | 2.7V | 18:12:15 | 01:44:18 | 00:00:00 | |
| DF8AY | 2026-09-01 00:13:35 | 48.80840 | 10.35023 | 3° | 7km/h | 26175m | 6.9m/s | -50.3°C | 0.7% | 22.6hPa | 2.7V | 18:12:15 | 01:44:14 | 00:00:00 | |
| DB0UT-7 | 2026-09-01 00:13:35 | 48.80840 | 10.35023 | 4° | 9km/h | 26176m | 6.8m/s | -50.3°C | 4.0% | 22.5hPa | 2.7V | 00:00:00 | 01:44:14 | 00:00:00 | |
| SONCRA | 2026-09-01 00:13:34 | 48.80836 | 10.35024 | 338° | 9km/h | 26164m | 5.1m/s | -50.3°C | 1.0% | 22.6hPa | 2.7V | 00:00:00 | 00:00:00 | 00:00:00 | |
| BIOWL1-15 | 2026-09-01 00:13:34 | 48.80834 | 10.35026 | 338° | 9km/h | 26158m | 6.5m/s | -50.3°C | 0.7% | 22.6hPa | 2.6V | 18:12:15 | 01:44:11 | 00:00:00 | |
| DL1XH1-15 | 2026-09-01 00:13:33 | 48.80830 | 10.35025 | 39° | 7km/h | 26141m | 5.2m/s | -50.2°C | 3.9% | 22.7hPa | 2.7V | 08:30:00 | 01:44:08 | 00:00:00 | |
| DL1XH-west | 2026-09-01 00:13:30 | 48.80831 | 10.35026 | 28° | 5km/h | 26146m | 4.8m/s | -50.3°C | 0.6% | 22.7hPa | 2.6V | 18:12:15 | 01:44:09 | 00:00:00 | |
| DL1NUX | 2026-09-01 00:13:29 | 48.80828 | 10.35023 | 33° | 9km/h | 26135m | 6.7m/s | -50.2°C | 3.9% | 22.7hPa | 2.7V | 08:30:00 | 01:44:07 | 00:00:00 | |
| HSKMA3-T | 2026-09-01 00:13:29 | 48.80830 | 10.35025 | 39° | 7km/h | 26141m | 5.2m/s | -50.3°C | 0.6% | 22.7hPa | 2.7V | 18:12:15 | 01:44:08 | 00:00:00 | |
| DF8AY | 2026-09-01 00:13:25 | 48.80820 | 10.35014 | 46° | 13km/h | 26118m | 6.1m/s | -50.2°C | 0.6% | 22.8hPa | 2.6V | 18:12:15 | 01:44:04 | 00:00:00 | |
| DO9HM | 2026-09-01 00:13:25 | 48.80820 | 10.35014 | 47° | 13km/h | 26118m | 6.1m/s | -50.2°C | 1.0% | 22.8hPa | 2.7V | 00:00:00 | 00:00:00 | 00:00:00 | |
| DL1NUX | 2026-09-01 00:13:23 | 48.80809 | 10.35006 | 334° | 5km/h | 26078m | 6.3m/s | -50.1°C | 3.9% | 22.9hPa | 2.7V | 08:30:00 | 01:43:57 | 00:00:00 | |
| DL6DJ-15 | 2026-09-01 00:13:23 | 48.80816 | 10.35006 | 45° | 5km/h | 26101m | 6.0m/s | -50.1°C | 1.0% | 22.8hPa | 2.6V | 00:00:00 | 00:00:00 | 00:00:00 | |
| DL1XH1-15 | 2026-09-01 00:13:22 | 48.80811 | 10.35005 | 340° | 9km/h | 26083m | 4.9m/s | -50.1°C | 3.9% | 22.9hPa | 2.6V | 08:30:00 | 01:43:58 | 00:00:00 | |
| BIOWL1-15 | 2026-09-01 00:13:21 | 48.80815 | 10.35004 | 15° | 7km/h | 26094m | 6.4m/s | -50.1°C | 0.7% | 22.9hPa | 2.6V | 18:12:15 | 01:44:00 | 00:00:00 | |
| DL1XH-west | 2026-09-01 00:13:20 | 48.80813 | 10.35004 | 353° | 9km/h | 26088m | 5.2m/s | -50.1°C | 0.6% | 22.9hPa | 2.6V | 18:12:15 | 01:43:59 | 00:00:00 | |
| HSKMA3-T | 2026-09-01 00:13:18 | 48.80809 | 10.35006 | 334° | 5km/h | 26078m | 6.3m/s | -50.1°C | 0.6% | 22.9hPa | 2.7V | 18:12:15 | 01:43:57 | 00:00:00 | |
| DF8AY | 2026-09-01 00:13:15 | 48.80807 | 10.35005 | 50° | 5km/h | 26060m | 5.9m/s | -50.2°C | 0.6% | 23hPa | 2.6V | 18:12:15 | 01:43:54 | 00:00:00 | |
| DO3MHA-12 | 2026-09-01 00:13:15 | 48.80807 | 10.35005 | 51° | 11km/h | 26060m | 5.9m/s | -50.1°C | 3.8% | 22.9hPa | 2.6V | 00:00:00 | 01:43:54 | 08:30:00 | |
| EDDB2-11 | 2026-09-01 00:13:14 | 48.80805 | 10.35003 | 41° | 9km/h | 26054m | 6.6m/s | -50.2°C | 1.0% | 23.0hPa | 2.6V | 00:00:00 | 00:00:00 | 00:00:00 | |
| DL1XH1-15 | 2026-09-01 00:13:12 | 48.80793 | 10.34983 | 54° | 11km/h | 26025m | 4.8m/s | -50.2°C | 3.9% | 23.1hPa | 2.6V | 08:30:00 | 01:43:48 | 00:00:00 | |
| DL1XH-west | 2026-09-01 00:13:10 | 48.80794 | 10.34987 | 56° | 15km/h | 26031m | 6.2m/s | -50.2°C | 0.7% | 23.1hPa | 2.6V | 18:12:15 | 01:43:49 | 00:00:00 | |
| DL1NUX | 2026-09-01 00:13:09 | 48.80791 | 10.34980 | 32° | 9km/h | 26020m | 5.5m/s | -50.2°C | 3.9% | 23.1hPa | 2.6V | 08:30:00 | 01:43:47 | 00:00:00 | |
| DK7TD | 2026-09-01 00:13:09 | 48.80793 | 10.34983 | 55° | 11km/h | 26025m | 4.8m/s | -50.2°C | 0.6% | 23.1hPa | 2.6V | 18:12:15 | 01:43:48 | 00:00:00 | |
| HSKMA3-T | 2026-09-01 00:13:08 | 48.80791 | 10.34980 | 33° | 9km/h | 26020m | 5.5m/s | -50.2°C | 0.7% | 23.1hPa | 2.6V | 18:12:15 | 01:43:47 | 00:00:00 | |
| SO1NDE-10 | 2026-09-01 00:13:08 | 48.80791 | 10.34980 | 33° | 7km/h | 26020m | 5.4m/s | -50.2°C | 3.9% | 23.1hPa | 2.6V | 00:00:00 | 01:43:47 | 00:00:00 | |
| DO3MHA-11 | 2026-09-01 00:13:07 | 48.80789 | 10.34979 | 1° | 9km/h | 26014m | 6.6m/s | -50.2°C | 3.9% | 23.1hPa | 2.6V | 00:00:00 | 01:43:46 | 00:00:00 | |
| DK5PH-5 | 2026-09-01 00:13:06 | 48.80787 | 10.34980 | 331° | 7km/h | 26008m | 5.7m/s | -50.2°C | 3.9% | 23.1hPa | 2.6V | 00:00:00 | 01:43:45 | 00:00:00 | |
| OE5MMP-10 | 2026-09-01 00:13:05 | 48.80785 | 10.34982 | 315° | 11km/h | 26003m | 5.2m/s | 0°C | 0% | 0hPa | 2.6V | 00:00:00 | 01:43:44 | 00:00:00 | |
| DF8AY | 2026-09-01 00:13:05 | 48.80783 | 10.34985 | 303° | 9km/h | 25997m | 6.6m/s | -50.2°C | 0.6% | 23.2hPa | 2.6V | 18:12:15 | 01:43:43 | 00:00:00 | |
| DL1XH1-15 | 2026-09-01 00:13:04 | 48.80772 | 10.34989 | 30° | 11km/h | 25963m | 5.9m/s | -50.2°C | 3.9% | 23.3hPa | 2.6V | 08:30:00 | 01:43:37 | 00:00:00 | |
| NBG1-10 | 2026-09-01 00:13:04 | 48.80783 | 10.34985 | 303° | 7km/h | 25997m | 6.6m/s | -50.1°C | 3.9% | 23.2hPa | 2.6V | 00:00:00 | 01:43:43 | 00:00:00 | |
| DL1NUX | 2026-09-01 00:13:03 | 48.80772 | 10.34989 | 30° | 11km/h | 25963m | 5.9m/s | -50.2°C | 3.9% | 23.3hPa | 2.6V | 08:30:00 | 01:43:37 | 00:00:00 | |
| DL1XH-west | 2026-09-01 00:13:00 | 48.80774 | 10.34991 | 15° | 13km/h | 25968m | 4.9m/s | -50.2°C | 0.6% | 23.3hPa | 2.6V | 18:12:15 | 01:43:38 | 00:00:00 | |
| DK7TD | 2026-09-01 00:12:59 | 48.80772 | 10.34989 | 30° | 11km/h | 25963m | 5.9m/s | -50.2°C | 0.6% | 23.3hPa | 2.6V | 18:12:15 | 01:43:37 | 00:00:00 | |
| BIOWL1-15 | 2026-09-01 00:12:58 | 48.80768 | 10.34982 | 88° | 4km/h | 25946m | 4.6m/s | -50.2°C | 0.6% | 23.4hPa | 2.7V | 18:12:15 | 01:43:34 | 00:00:00 | |
| HSKMA3-T | 2026-09-01 00:12:57 | 48.80770 | 10.34987 | 53° | 9km/h | 25956m | 6.4m/s | -50.2°C | 0.6% | 23.3hPa | 2.6V | 18:12:15 | 01:43:36 | 00:00:00 | |
| DF8AY | 2026-09-01 00:12:54 | 48.80768 | 10.34981 | 44° | 2km/h | 25941m | 5.5m/s | -50.3°C | 0.6% | 23.4hPa | 2.6V | 18:12:15 | 01:43:33 | 00:00:00 | |
| DL1XH1-15 | 2026-09-01 00:12:52 | 48.80763 | 10.34992 | 278° | 9km/h | 25912m | 5.9m/s | -50.2°C | 3.9% | 23.5hPa | 2.7V | 08:30:00 | 01:43:28 | 00:00:00 | |
| DL6DJ-15 | 2026-09-01 00:12:52 | 48.80765 | 10.34985 | 306° | 9km/h | 25924m | 5.1m/s | -50.3°C | 1.0% | 23.4hPa | 2.7V | 00:00:00 | 00:00:00 | 00:00:00 | |
| DB0ND-19 | 2026-09-01 00:12:51 | 48.80764 | 10.34989 | 293° | 9km/h | 25919m | 6.5m/s | -50.2°C | 1.0% | 23.5hPa | 2.7V | 00:00:00 | 00:00:00 | 00:00:00 | |
| DL1NUX | 2026-09-01 00:12:49 | 48.80759 | 10.35004 | 325° | 9km/h | 25890m | 5m/s | -50.2°C | 3.9% | 23.6hPa | 2.7V | 08:30:00 | 01:43:24 | 00:00:00 | |
| DL1XH-west | 2026-09-01 00:12:48 | 48.80763 | 10.34996 | 277° | 9km/h | 25907m | 5.1m/s | -50.2°C | 0.6% | 23.5hPa | 2.6V | 18:12:15 | 01:43:27 | 00:00:00 | |
| HSKMA3-T | 2026-09-01 00:12:47 | 48.80762 | 10.34999 | 290° | 9km/h | 25901m | 5.8m/s | -50.2°C | 0.7% | 23.5hPa | 2.6V | 18:12:15 | 01:43:26 | 00:00:00 | |
| DL1XH-west | 2026-09-01 00:12:38 | 48.80752 | 10.35012 | 330° | 7km/h | 25850m | 5m/s | -50.3°C | 0.6% | 23.7hPa | 2.7V | 18:12:15 | 01:43:17 | 00:00:00 | |
| DK7TD | 2026-09-01 00:12:37 | 48.80751 | 10.35014 | 310° | 7km/h | 25845m | 5.4m/s | -50.3°C | 0.7% | 23.7hPa | 2.6V | 18:12:15 | 01:43:16 | 00:00:00 | |
| DO3MHA-11 | 2026-09-01 00:12:37 | 48.80751 | 10.35014 | 310° | 9km/h | 25846m | 5.4m/s | -50.2°C | 3.9% | 23.7hPa | 2.7V | 00:00:00 | 01:43:16 | 00:00:00 | |
| DL1NUX | 2026-09-01 00:12:36 | 48.80750 | 10.35024 | 274° | 11km/h | 25828m | 4.8m/s | -50.3°C | 4% | 23.8hPa | 2.7V | 08:30:00 | 01:43:13 | 00:00:00 | |
| BIOWL1-15 | 2026-09-01 00:12:36 | 48.80750 | 10.35016 | 284° | 7km/h | 25839m | 6.3m/s | -50.3°C | 0.6% | 23.7hPa | 2.6V | 18:12:15 | 01:43:15 | 00:00:00 | |
| DL1XH-west | 2026-09-01 00:12:27 | 48.80738 | 10.35041 | 352° | 5km/h | 25789m | 5.7m/s | -50.3°C | 0.7% | 23.9hPa | 2.7V | 18:12:15 | 01:43:06 | 00:00:00 | |
| DK7TD | 2026-09-01 00:12:27 | 48.80737 | 10.35042 | 344° | 7km/h | 25783m | 6.2m/s | -50.2°C | 0.6% | 24hPa | 2.6V | 18:12:15 | 01:43:05 | 00:00:00 | |
| HSKMA3-T | 2026-09-01 00:12:25 | 48.80734 | 10.35045 | 310° | 7km/h | 25773m | 5.4m/s | -50.2°C | 0.6% | 24hPa | 2.6V | 18:12:15 | 01:43:03 | 00:00:00 | |
| DF8AY | 2026-09-01 00:12:25 | 48.80733 | 10.35047 | 283° | 5km/h | 25767m | 6.7m/s | -50.2°C | 0.6% | 24hPa | 2.7V | 18:12:15 | 01:43:02 | 00:00:00 | |
| DK7TD | 2026-09-01 00:12:16 | 48.80728 | 10.35076 | 295° | 15km/h | 25731m | 5.7m/s | -50.3°C | 0.7% | 24.2hPa | 2.7V | 18:12:15 | 01:42:55 | 00:00:00 | |
| DB0NH | 2026-09-01 00:12:16 | 48.80728 | 10.35075 | 295° | 9km/h | 25731m | 5.6m/s | -50.3°C | 4.0% | 24.1hPa | 2.7V | 00:00:00 | 01:42:55 | 00:00:00 | |
| DL1NUX | 2026-09-01 00:12:15 | 48.80725 | 10.35089 | 63° | 4km/h | 25697m | 4.8m/s | -50.1°C | 3.9% | 24.3hPa | 2.7V | 08:30:00 | 01:42:49 | 00:00:00 | |
| HSKMA3-T | 2026-09-01 00:12:14 | 48.80727 | 10.35084 | 272° | 9km/h | 25719m | 5.3m/s | -50.3°C | 0.6% | 24.2hPa | 2.6V | 18:12:15 | 01:42:53 | 00:00:00 | |
| DF8AY | 2026-09-01 00:12:13 | 48.80726 | 10.35087 | 274° | 5km/h | 25714m | 5.1m/s | -50.3°C | 0.7% | 24.2hPa | 2.6V | 18:12:15 | 01:42:52 | 00:00:00 | |
| DL1XH-west | 2026-09-01 00:12:06 | 48.80727 | 10.35084 | 194° | 2km/h | 25676m | 5.6m/s | -50.1°C | 0.6% | 24.4hPa | 2.7V | 18:12:15 | 01:42:45 | 00:00:00 | |
| DK7TD | 2026-09-01 00:12:05 | 48.80727 | 10.35085 | 309° | 5km/h | 25670m | 6.1m/s | -50.1°C | 0.6% | 24.4hPa | 2.7V | 18:12:15 | 01:42:44 | 00:00:00 | |
| HSKMA3-T | 2026-09-01 00:12:04 | 48.80726 | 10.35087 | 312° | 9km/h | 25664m | 4.6m/s | -50.1°C | 0.6% | 24.4hPa | 2.6V | 18:12:15 | 01:42:43 | 00:00:00 | |
| DF8AY | 2026-09-01 00:12:03 | 48.80725 | 10.35090 | 303° | 9km/h | 25660m | 4m/s | -50.2°C | 0.6% | 24.4hPa | 2.6V | 18:12:15 | 01:42:42 | 00:00:00 | |
| DO9HM | 2026-09-01 00:12:02 | 48.80725 | 10.35090 | 304° | 9km/h | 25661m | 4.0m/s | -50.2°C | 1.0% | 24.4hPa | 2.7V | 00:00:00 | 00:00:00 | 00:00:00 | |
| SONCRA | 2026-09-01 00:12:01 | 48.80726 | 10.35097 | 201° | 9km/h | 25644m | 5.5m/s | -50.2°C | 1.0% | 24.5hPa | 2.7V | 00:00:00 | 00:00:00 | 00:00:00 | |
| DM0DOS-11 | 2026-09-01 00:12:00 | 48.80729 | 10.35098 | 182° | 13km/h | 25639m | 4.9m/s | -50.2°C | 3.9% | 24.5hPa | 2.7V | 08:30:00 | 01:42:38 | 00:00:00 | |
| DL1XH-west | 2026-09-01 00:11:55 | 48.80737 | 10.35091 | 77° | 9km/h | 25618m | 5m/s | -50.3°C | 0.5% | 24.6hPa | 2.7V | 18:12:15 | 01:42:34 | 00:00:00 | |
| DF8AY | 2026-09-01 00:11:53 | 48.80735 | 10.35085 | 69° | 9km/h | 25607m | 6.2m/s | -50.3°C | 0.6% | 24.6hPa | 2.6V | 18:12:15 | 01:42:32 | 00:00:00 | |
| OE5WHR-10 | 2026-09-01 00:11:53 | 48.80735 | 10.35085 | 69° | 7km/h | 25607m | 6.2m/s | -50.3°C | 3.9% | 24.6hPa | 2.7V | 00:00:00 | 01:42:32 | 00:00:00 | |
| HEMX73-6 | 2026-09-01 00:11:52 | 48.80735 | 10.35081 | 84° | 9km/h | 25601m | 4.8m/s | 0°C | 0% | 0hPa | 2.7V | 00:00:00 | 01:42:31 | 00:00:00 | |
| DM0DOS-11 | 2026-09-01 00:11:50 | 48.80735 | 10.35070 | 90° | 11km/h | 25586m | 6.1m/s | -50.4°C | 3.9% | 24.7hPa | 2.7V | 08:30:00 | 01:42:28 | 00:00:00 | |
| BIOWL1-15 | 2026-09-01 00:11:49 | 48.80735 | 10.35070 | 90° | 11km/h | 25586m | 6.1m/s | -50.4°C | 0.6% | 24.7hPa | 2.7V | 18:12:15 | 01:42:28 | 00:00:00 | |
| DL1XH-west | 2026-09-01 00:11:45 | 48.80738 | 10.35059 | 159° | 9km/h | 25565m | 6.5m/s | -50.6°C | 0.7% | 24.8hPa | 2.6V | 18:12:15 | 01:42:24 | 00:00:00 | |
| DK7TD | 2026-09-01 00:11:44 | 48.80741 | 10.35058 | 178° | 11km/h | 25559m | 5.2m/s | -50.6°C | 0.6% | 24.8hPa | 2.7V | 18:12:15 | 01:42:23 | 00:00:00 | |
| DL1NUX | 2026-09-01 00:11:43 | 48.80746 | 10.35063 | 308° | 7km/h | 25538m | 4.4m/s | -50.6°C | 4% | 24.9hPa | 2.6V | 08:30:00 | 01:42:19 | 00:00:00 | |
| DF8AY | 2026-09-01 00:11:43 | 48.80745 | 10.35059 | 210° | 7km/h | 25549m | 6.2m/s | -50.6°C | 0.7% | 24.8hPa | 2.6V | 18:12:15 | 01:42:21 | 00:00:00 | |
| DO9HM | 2026-09-01 00:11:42 | 48.80745 | 10.35059 | 211° | 7km/h | 25549m | 6.2m/s | -50.6°C | 1.1% | 24.8hPa | 2.6V | 00:00:00 | 00:00:00 | 00:00:00 | |
| EDDB2-11 | 2026-09-01 00:11:41 | 48.80746 | 10.35061 | 268° | 4km/h | 25543m | 5.6m/s | -50.6°C | 1.0% | 24.9hPa | 2.6V | 00:00:00 | 00:00:00 | 00:00:00 | |
| OE5DXL-15 | 2026-09-01 00:11:39 | 48.80744 | 10.35065 | 316° | 9km/h | 25534m | 4.8m/s | -50.6°C | 4.0% | 24.9hPa | 2.6V | 00:00:00 | 00:00:00 | 00:00:00 | |
| DO3MHA-11 | 2026-09-01 00:11:37 | 48.80742 | 10.35068 | 307° | 5km/h | 25523m | 5.3m/s | -50.6°C | 4.0% | 24.9hPa | 2.6V | 00:00:00 | 01:42:16 | 00:00:00 | |
| DK5PH-5 | 2026-09-01 00:11:36 | 48.80742 | 10.35068 | 83° | 9km/h | 25518m | 5.0m/s | -50.6°C | 4.0% | 24.9hPa | 2.6V | 00:00:00 | 01:42:15 | 00:00:00 | |
| DL1NUX | 2026-09-01 00:11:35 | 48.80740 | 10.35059 | 210° | 4km/h | 25485m | 6m/s | -50.6°C | 4% | 25.1hPa | 2.6V | 08:30:00 | 01:42:09 | 00:00:00 | |
| DL1XH-west | 2026-09-01 00:11:34 | 48.80742 | 10.35066 | 66° | 7km/h | 25507m | 6.6m/s | -50.6°C | 0.7% | 25hPa | 2.6V | 18:12:15 | 01:42:13 | 00:00:00 | |
| HSKMA3-T | 2026-09-01 00:11:33 | 48.80740 | 10.35061 | 60° | 5km/h | 25496m | 4.6m/s | -50.6°C | 0.7% | 25.1hPa | 2.7V | 18:12:15 | 01:42:11 | 00:00:00 | |
| DF8AY | 2026-09-01 00:11:30 | 48.80741 | 10.35061 | 234° | 9km/h | 25480m | 5m/s | -50.7°C | 0.7% | 25.1hPa | 2.6V | 18:12:15 | 01:42:08 | 00:00:00 | |
| SONCRA | 2026-09-01 00:11:29 | 48.80741 | 10.35061 | 234° | 9km/h | 25480m | 5.0m/s | -50.7°C | 1.0% | 25.1hPa | 2.6V | 00:00:00 | 00:00:00 | 00:00:00 | |
| DL8DAS-14 | 2026-09-01 00:11:28 | 48.80743 | 10.35071 | 267° | 15km/h | 25470m | 6.0m/s | -50.7°C | 1.0% | 25.1hPa | 2.6V | 00:00:00 | 00:00:00 | 00:00:00 | |
| DJ8HS-15 | 2026-09-01 00:11:27 | 48.80743 | 10.35071 | 268° | 11km/h | 25470m | 6.0m/s | -50.7°C | 3.9% | 25.1hPa | 2.6V | 00:00:00 | 01:42:06 | 00:00:00 | |
| DF1GD-15 | 2026-09-01 00:11:26 | 48.80743 | 10.35071 | 269° | 16km/h | 25470m | 6.0m/s | -50.7°C | 1.1% | 25.1hPa | 2.6V | 00:00:00 | 00:00:00 | 00:00:00 | |
| DO3MHA-12 | 2026-09-01 00:11:25 | 48.80741 | 10.35082 | 304° | 13km/h | 25459m | 4.4m/s | -50.6°C | 4.0% | 25.1hPa | 2.6V | 00:00:00 | 01:42:04 | 00:00:00 | |
| DL1NUX | 2026-09-01 00:11:23 | 48.80736 | 10.35076 | 91° | 16km/h | 25430m | 6.5m/s | -50.7°C | 4% | 25.3hPa | 2.6V | 08:30:00 | 01:41:59 | 00:00:00 | |
| DL1XH-west | 2026-09-01 00:11:23 | 48.80737 | 10.35087 | 357° | 5km/h | 25448m | 6.4m/s | -50.7°C | 0.7% | 25.2hPa | 2.6V | 18:12:15 | 01:42:02 | 00:00:00 | |
| HSKMA3-T | 2026-09-01 00:11:21 | 48.80736 | 10.35082 | 91° | 15km/h | 25436m | 5.6m/s | -50.7°C | 0.7% | 25.3hPa | 2.7V | 18:12:15 | 01:42:00 | 00:00:00 | |
| BIOWL1-15 | 2026-09-01 00:11:20 | 48.80736 | 10.35076 | 91° | 16km/h | 25430m | 6.5m/s | -50.7°C | 0.7% | 25.3hPa | 2.6V | 18:12:15 | 01:41:59 | 00:00:00 | |
| DF8AY | 2026-09-01 00:11:19 | 48.80736 | 10.35069 | 91° | 16km/h | 25424m | 5.3m/s | -50.7°C | 0.7% | 25.3hPa | 2.6V | 18:12:15 | 01:41:58 | 00:00:00 | |
| AZAK | 2026-09-01 00:11:18 | 48.80737 | 10.35063 | 102° | 15km/h | 25420m | 4.5m/s | -50.7°C | 1.0% | 25.3hPa | 2.7V | 00:00:00 | 00:00:00 | 00:00:00 | |
| DO3MHA-11 | 2026-09-01 00:11:17 | 48.80738 | 10.35058 | 123° | 9km/h | 25415m | 5.3m/s | -50.7°C | 4.0% | 25.3hPa | 2.7V | 00:00:00 | 01:41:56 | 00:00:00 | |
| DB0NH | 2026-09-01 00:11:16 | 48.80740 | 10.35055 | 153° | 11km/h | 25409m | 6.4m/s | -50.7°C | 4.0% | 25.3hPa | 2.7V | 00:00:00 | 01:41:55 | 00:00:00 | |
| DL1NUX | 2026-09-01 00:11:15 | 48.80749 | 10.35061 | 67° | 5km/h | 25371m | 6.2m/s | -50.7°C | 4% | 25.5hPa | 2.6V | 08:30:00 | 01:41:48 | 00:00:00 | |
| DO3MHA-12 | 2026-09-01 00:11:15 | 48.80743 | 10.35054 | 182° | 9km/h | 25403m | 5.1m/s | -50.7°C | 4.0% | 25.4hPa | 2.7V | 00:00:00 | 01:41:54 | 00:00:00 | |
| DM0DOS-11 | 2026-09-01 00:11:14 | 48.80749 | 10.35058 | 220° | 11km/h | 25393m | 6m/s | -50.8°C | 4% | 25.4hPa | 2.6V | 08:30:00 | 01:41:52 | 00:00:00 | |
| DL1XH-west | 2026-09-01 00:11:13 | 48.80749 | 10.35058 | 220° | 11km/h | 25393m | 6m/s | -50.8°C | 0.7% | 25.4hPa | 2.6V | 18:12:15 | 01:41:52 | 00:00:00 | |
| DL1XH1-15 | 2026-09-01 00:11:11 | 48.80749 | 10.35061 | 67° | 5km/h | 25371m | 6.2m/s | -50.7°C | 4% | 25.5hPa | 2.6V | 08:30:00 | 01:41:48 | 00:00:00 | |
| DF8AY | 2026-09-01 00:11:10 | 48.80749 | 10.35061 | 67° | 5km/h | 25371m | 6.2m/s | -50.7°C | 0.7% | 25.6hPa | 2.6V | 18:12:15 | 01:41:48 | 00:00:00 | |
| BIOWL1-15 | 2026-09-01 00:11:07 | 48.80751 | 10.35042 | 100° | 16km/h | 25349m | 6.2m/s | -50.7°C | 0.7% | 25.6hPa | 2.7V | 18:12:15 | 01:41:44 | 00:00:00 | |
| DK7TD | 2026-09-01 00:11:03 | 48.80753 | 10.35032 | 117° | 11km/h | 25338m | 5.1m/s | -50.7°C | 0.6% | 25.7hPa | 2.6V | 18:12:15 | 01:41:42 | 00:00:00 | |
| DL1XH-west | 2026-09-01 00:11:03 | 48.80754 | 10.35030 | 146° | 9km/h | 25333m | 6.5m/s | -50.7°C | 0.7% | 25.7hPa | 2.6V | 18:12:15 | 01:41:41 | 00:00:00 | |
| DG9SBQ-11 | 2026-09-01 00:11:02 | 48.80753 | 10.35032 | 118° | 11km/h | 25339m | 5.1m/s | -50.7°C | 1.0% | 25.7hPa | 2.7V | 00:00:00 | 00:00:00 | 00:00:00 | |
| DL1XH1-15 | 2026-09-01 00:11:01 | 48.80760 | 10.35032 | 240° | 7km/h | 25316m | 6.2m/s | -50.6°C | 4% | 25.8hPa | 2.7V | 08:30:00 | 01:41:38 | 00:00:00 | |
| HSKMA3-T | 2026-09-01 00:10:59 | 48.80760 | 10.35032 | 240° | 7km/h | 25316m | 6.2m/s | -50.6°C | 0.7% | 25.8hPa | 2.7V | 18:12:15 | 01:41:38 | 00:00:00 | |
| DF8AY | 2026-09-01 00:10:58 | 48.80760 | 10.35035 | 275° | 7km/h | 25310m | 6m/s | -50.6°C | 0.7% | 25.8hPa | 2.7V | 18:12:15 | 01:41:37 | 00:00:00 | |
| DL8DAS-14 | 2026-09-01 00:10:57 | 48.80759 | 10.35040 | 310° | 5km/h | 25299m | 6.1m/s | -50.5°C | 1.1% | 25.8hPa | 2.6V | 00:00:00 | 00:00:00 | 00:00:00 | |
| SONDE2-11 | 2026-09-01 00:10:56 | 48.80758 | 10.35041 | 348° | 2km/h | 25293m | 5.6m/s | -50.5°C | 1.0% | 25.8hPa | 2.6V | 00:00:00 | 00:00:00 | 00:00:00 | |
| DL1NUX | 2026-09-01 00:10:55 | 48.80754 | 10.35023 | 79° | 16km/h | 25265m | 4.9m/s | -50.5°C | 4% | 26hPa | 2.6V | 08:30:00 | 01:41:29 | 00:00:00 | |
| DK7TD | 2026-09-01 00:10:52 | 48.80756 | 10.35034 | 69° | 13km/h | 25276m | 6.8m/s | -50.5°C | 0.6% | 25.9hPa | 2.6V | 18:12:15 | 01:41:31 | 00:00:00 | |
| NBG1-10 | 2026-09-01 00:10:52 | 48.80756 | 10.35034 | 69° | 9km/h | 25277m | 6.8m/s | -50.5°C | 3.9% | 25.9hPa | 2.6V | 00:00:00 | 01:41:31 | 00:00:00 | |
| DL1XH1-15 | 2026-09-01 00:10:51 | 48.80754 | 10.35017 | 93° | 16km/h | 25260m | 6.2m/s | -50.5°C | 3.9% | 26hPa | 2.6V | 08:30:00 | 01:41:28 | 00:00:00 | |
| DL1XH-west | 2026-09-01 00:10:51 | 48.80755 | 10.35029 | 70° | 16km/h | 25270m | 5.4m/s | -50.5°C | 0.7% | 25.9hPa | 2.6V | 18:12:15 | 01:41:30 | 00:00:00 | |
| HSKMA3-T | 2026-09-01 00:10:48 | 48.80755 | 10.35011 | 112° | 16km/h | 25254m | 6m/s | -50.6°C | 0.7% | 26hPa | 2.7V | 18:12:15 | 01:41:27 | 00:00:00 | |
| DF8AY | 2026-09-01 00:10:47 | 48.80756 | 10.35006 | 126° | 15km/h | 25248m | 4.5m/s | -50.6°C | 0.6% | 26hPa | 2.7V | 18:12:15 | 01:41:26 | 00:00:00 | |
| BIOWL1-15 | 2026-09-01 00:10:45 | 48.80760 | 10.34999 | 8° | 2km/h | 25233m | 6.1m/s | -50.6°C | 0.6% | 26.1hPa | 2.6V | 18:12:15 | 01:41:23 | 00:00:00 | |
| DO3MHA-12 | 2026-09-01 00:10:45 | 48.80760 | 10.35000 | 132° | 7km/h | 25239m | 6.0m/s | -50.5°C | 4.0% | 26.0hPa | 2.6V | 00:00:00 | 01:41:24 | 00:00:00 | |
| DL1NUX | 2026-09-01 00:10:43 | 48.80755 | 10.35005 | 323° | 4km/h | 25211m | 5m/s | -50.7°C | 0% | 26.2hPa | 2.6V | 08:30:00 | 01:41:19 | 00:00:00 | |
| DK7TD | 2026-09-01 00:10:41 | 48.80756 | 10.35003 | 317° | 7km/h | 25217m | 6.1m/s | -50.7°C | 0.7% | 26.1hPa | 2.6V | 18:12:15 | 01:41:20 | 00:00:00 | |
| DL1XH-west | 2026-09-01 00:10:40 | 48.80755 | 10.35005 | 323° | 4km/h | 25212m | 5m/s | -50.7°C | 0.7% | 26.2hPa | 2.6V | 18:12:15 | 01:41:19 | 00:00:00 | |
| DM0DOS-11 | 2026-09-01 00:10:39 | 48.80753 | 10.34977 | 124° | 13km/h | 25173m | 5.7m/s | -50.6°C | 4% | 26.3hPa | 2.6V | 08:30:00 | 01:41:12 | 00:00:00 | |
| HSKMA3-T | 2026-09-01 00:10:38 | 48.80753 | 10.34999 | 76° | 13km/h | 25195m | 6.6m/s | -50.7°C | 0.7% | 26.2hPa | 2.7V | 18:12:15 | 01:41:16 | 00:00:00 | |
| DF8AY | 2026-09-01 00:10:36 | 48.80752 | 10.34993 | 78° | 16km/h | 25190m | 5.3m/s | -50.7°C | 0.7% | 26.3hPa | 2.7V | 18:12:15 | 01:41:15 | 00:00:00 | |
| BIOWL1-15 | 2026-09-01 00:10:35 | 48.80752 | 10.34987 | 88° | 16km/h | 25184m | 4.9m/s | 0°C | 0% | 26.3hPa | 2.6V | 18:12:15 | 01:41:14 | 00:00:00 | |
| DG9SBQ-11 | 2026-09-01 00:10:34 | 48.80752 | 10.34987 | 89° | 16km/h | 25185m | 4.9m/s | -50.7°C | 1.1% | 26.3hPa | 2.7V | 00:00:00 | 00:00:00 | 00:00:00 | |
| AM1SDL-15 | 2026-09-01 00:10:33 | 48.80753 | 10.34977 | 125° | 7km/h | 25173m | 5.7m/s | -50.6°C | 4.0% | 26.3hPa | 2.7V | 00:00:00 | 01:41:12 | 00:00:00 | |
| DF3TZ-5 | 2026-09-01 00:10:32 | 48.80755 | 10.34974 | 155° | 9km/h | 25168m | 5.4m/s | -50.6°C | 1.1% | 26.4hPa | 2.7V | 00:00:00 | 00:00:00 | 00:00:00 | |
| DL1NUX | 2026-09-01 00:10:31 | 48.80758 | 10.34975 | 251° | 7km/h | 25155m | 6.5m/s | -50.6°C | 0% | 26.4hPa | 2.7V | 08:30:00 | 01:41:09 | 00:00:00 | |
| DL1XH1-15 | 2026-09-01 00:10:31 | 48.80758 | 10.34978 | 278° | 11km/h | 25149m | 5.3m/s | -50.6°C | 4% | 26.4hPa | 2.6V | 08:30:00 | 01:41:08 | 00:00:00 | |
| DK7TD | 2026-09-01 00:10:31 | 48.80757 | 10.34973 | 195° | 7km/h | 25162m | 6.1m/s | -50.6°C | 0.7% | 26.4hPa | 2.7V | 18:12:15 | 01:41:10 | 00:00:00 | |
| DL1XH-west | 2026-09-01 00:10:29 | 48.80758 | 10.34978 | 278° | 11km/h | 25149m | 5.3m/s | -50.6°C | 0.7% | 26.4hPa | 2.6V | 18:12:15 | 01:41:08 | 00:00:00 | |
| HSKMA3-T | 2026-09-01 00:10:27 | 48.80757 | 10.34987 | 280° | 11km/h | 25139m | 6.2m/s | -50.6°C | 0.7% | 26.5hPa | 2.6V | 18:12:15 | 01:41:06 | 00:00:00 | |
| DF8AY | 2026-09-01 00:10:26 | 48.80756 | 10.34992 | 299° | 4km/h | 25128m | 4.8m/s | -50.5°C | 0.6% | 26.5hPa | 2.7V | 18:12:15 | 01:41:04 | 00:00:00 | |
| BIOWL1-15 | 2026-09-01 00:10:24 | 48.80755 | 10.34991 | 44° | 7km/h | 25116m | 5.8m/s | 0°C | 0% | 26.6hPa | 2.6V | 18:12:15 | 01:41:02 | 00:00:00 | |
| DL1NUX | 2026-09-01 00:10:23 | 48.80754 | 10.34981 | 121° | 13km/h | 25100m | 6.9m/s | -50.5°C | 0% | 26.6hPa | 2.7V | 08:30:00 | 01:40:59 | 00:00:00 | |
| DK7TD | 2026-09-01 00:10:21 | 48.80754 | 10.34985 | 97° | 11km/h | 25106m | 5.3m/s | -50.5°C | 0.6% | 26.6hPa | 2.6V | 18:12:15 | 01:41:00 | 00:00:00 | |
| DL1XH-west | 2026-09-01 00:10:19 | 48.80757 | 10.34977 | 142° | 15km/h | 25094m | 5.5m/s | -50.5°C | 0.6% | 26.7hPa | 2.7V | 18:12:15 | 01:40:58 | 00:00:00 | |
| HSKMA3-T | 2026-09-01 00:10:16 | 48.80767 | 10.34972 | 181° | 9km/h | 25078m | 6m/s | -50.6°C | 0.6% | 26.7hPa | 2.6V | 18:12:15 | 01:40:55 | 00:00:00 | |
| BIOWL1-15 | 2026-09-01 00:10:13 | 48.80767 | 10.34983 | 100° | 5km/h | 25027m | 6.8m/s | 0°C | 0% | 0hPa | 2.6V | 18:12:15 | 01:40:46 | 00:00:00 | |
| DL1XH1-15 | 2026-09-01 00:10:13 | 48.80768 | 10.34985 | 356° | 5km/h | 25037m | 5.3m/s | -50.7°C | 3.9% | 26.9hPa | 2.7V | 08:30:00 | 01:40:48 | 00:00:00 | |
| DK7TD | 2026-09-01 00:10:11 | 48.80770 | 10.34982 | 287° | 5km/h | 25049m | 4.8m/s | -50.7°C | 0.7% | 26.9hPa | 2.6V | 18:12:15 | 01:40:50 | 00:00:00 | |
| DL1XH-west | 2026-09-01 00:10:08 | 48.80767 | 10.34984 | 42° | 4km/h | 25032m | 4.7m/s | -50.7°C | 0.6% | 26.9hPa | 2.7V | 18:12:15 | 01:40:47 | 00:00:00 | |
| HSKMA3-T | 2026-09-01 00:10:06 | 48.80768 | 10.34981 | 128° | 9km/h | 25020m | 5.6m/s | -50.7°C | 0.7% | 27hPa | 2.6V | 18:12:15 | 01:40:45 | 00:00:00 | |
| BIOWL1-15 | 2026-09-01 00:10:03 | 48.80772 | 10.34970 | 106° | 9km/h | 25004m | 6.5m/s | 0°C | 0% | 0hPa | 2.7V | 18:12:15 | 01:40:42 | 00:00:00 | |
| DL1NUX | 2026-09-01 00:10:03 | 48.80767 | 10.34963 | 299° | 4km/h | 24974m | 5.8m/s | -50.7°C | 0% | 27.1hPa | 2.7V | 08:30:00 | 01:40:37 | 00:00:00 | |
| DL1XH1-15 | 2026-09-01 00:10:03 | 48.80768 | 10.34962 | 358° | 4km/h | 24981m | 6.9m/s | -50.7°C | 4% | 27.1hPa | 2.6V | 08:30:00 | 01:40:38 | 00:00:00 | |
| DK7TD | 2026-09-01 00:10:01 | 48.80771 | 10.34964 | 46° | 9km/h | 24992m | 5.2m/s | -50.7°C | 0.6% | 27.1hPa | 2.6V | 18:12:15 | 01:40:40 | 00:00:00 | |
| DL1XH-west | 2026-09-01 00:09:57 | 48.80767 | 10.34964 | 280° | 4km/h | 24969m | 5.2m/s | -50.7°C | 0.6% | 27.2hPa | 2.7V | 18:12:15 | 01:40:36 | 00:00:00 | |
| HSKMA3-T | 2026-09-01 00:09:55 | 48.80767 | 10.34966 | 330° | 2km/h | 24957m | 5.7m/s | -50.7°C | 0.6% | 27.2hPa | 2.6V | 18:12:15 | 01:40:34 | 00:00:00 | |
| DL8DAS-14 | 2026-09-01 00:09:55 | 48.80766 | 10.34966 | 48° | 0km/h | 24952m | 5.0m/s | -50.7°C | 1.0% | 27.2hPa | 2.6V | 00:00:00 | 00:00:00 | 00:00:00 | |
| SONDE2-11 | 2026-09-01 00:09:54 | 48.80766 | 10.34966 | 130° | 2km/h | 24946m | 6.3m/s | -50.7°C | 1.0% | 27.3hPa | 2.6V | 00:00:00 | 00:00:00 | 00:00:00 | |
| DL1XH1-15 | 2026-09-01 00:09:52 | 48.80770 | 10.34958 | 92° | 9km/h | 24922m | 5.8m/s | -50.9°C | 4% | 27.4hPa | 2.6V | 08:30:00 | 01:40:28 | 00:00:00 | |
| BIOWL1-15 | 2026-09-01 00:09:51 | 48.80768 | 10.34963 | 134° | 7km/h | 24934m | 5.2m/s | 0°C | 0% | 0hPa | 2.7V | 18:12:15 | 01:40:30 | 00:00:00 | |
| DK7TD | 2026-09-01 00:09:50 | 48.80769 | 10.34961 | 114° | 7km/h | 24928m | 6.2m/s | -50.9°C | 0.6% | 27.3hPa | 2.6V | 18:12:15 | 01:40:29 | 00:00:00 | |
| DM0DOS-11 | 2026-09-01 00:09:50 | 48.80770 | 10.34944 | 106° | 5km/h | 24900m | 5.6m/s | -51°C | 4% | 27.4hPa | 2.6V | 08:30:00 | 01:40:24 | 00:00:00 | |
| DL1XH-west | 2026-09-01 00:09:46 | 48.80770 | 10.34947 | 99° | 7km/h | 24906m | 6.2m/s | -50.9°C | 0.7% | 27.4hPa | 2.7V | 18:12:15 | 01:40:25 | 00:00:00 | |
| DF8AY | 2026-09-01 00:09:45 | 48.80770 | 10.34944 | 107° | 5km/h | 24900m | 5.6m/s | -51°C | 0.7% | 27.5hPa | 2.6V | 18:12:15 | 01:40:24 | 00:00:00 | |
| HSKMA3-T | 2026-09-01 00:09:44 | 48.80770 | 10.34942 | 88° | 4km/h | 24894m | 5.6m/s | -51°C | 0.7% | 27.5hPa | 2.6V | 18:12:15 | 01:40:23 | 00:00:00 | |
| DL1NUX | 2026-09-01 00:09:43 | 48.80767 | 10.34941 | 275° | 4km/h | 24872m | 6.4m/s | -51.1°C | 0% | 27.6hPa | 2.7V | 08:30:00 | 01:40:19 | 00:00:00 | |
| DK7TD | 2026-09-01 00:09:40 | 48.80767 | 10.34941 | 276° | 4km/h | 24872m | 6.4m/s | -51.1°C | 0.6% | 27.6hPa | 2.7V | 18:12:15 | 01:40:19 | 00:00:00 | |
| BIOWL1-15 | 2026-09-01 00:09:35 | 48.80773 | 10.34941 | 110° | 7km/h | 24843m | 5.1m/s | 0°C | 0% | 0hPa | 2.7V | 18:12:15 | 01:40:14 | 00:00:00 | |
| HSKMA3-T | 2026-09-01 00:09:34 | 48.80773 | 10.34938 | 103° | 9km/h | 24838m | 5.4m/s | -51.4°C | 0.7% | 27.7hPa | 2.6V | 18:12:15 | 01:40:13 | 00:00:00 | |
| SO1NDE-10 | 2026-09-01 00:09:33 | 48.80774 | 10.34935 | 108° | 15km/h | 24832m | 6.4m/s | 0°C | 0% | 0hPa | 2.7V | 00:00:00 | 01:40:12 | 00:00:00 | |
| DL1XH1-15 | 2026-09-01 00:09:32 | 48.80775 | 10.34923 | 69° | 9km/h | 24811m | 6.7m/s | -51.5°C | 4.1% | 27.8hPa | 2.7V | 08:30:00 | 01:40:08 | 00:00:00 | |
| OE5DRO-10 | 2026-09-01 00:09:32 | 48.80775 | 10.34932 | 117° | 11km/h | 24827m | 5.5m/s | -51.4°C | 4.0% | 27.7hPa | 2.7V | 00:00:00 | 00:00:00 | 00:00:00 | |
| DL1NUX | 2026-09-01 00:09:31 | 48.80776 | 10.34927 | 89° | 7km/h | 24816m | 4.7m/s | -51.5°C | 0% | 27.8hPa | 2.7V | 08:30:00 | 01:40:09 | 00:00:00 | |
| DK7TD | 2026-09-01 00:09:30 | 48.80776 | 10.34926 | 89° | 7km/h | 24817m | 4.7m/s | -51.5°C | 0.7% | 27.8hPa | 2.7V | 18:12:15 | 01:40:09 | 00:00:00 | |
| DF8AY | 2026-09-01 00:09:25 | 48.80767 | 10.34914 | 350° | 9km/h | 24787m | 5.7m/s | -51.7°C | 0.8% | 27.9hPa | 2.6V | 18:12:15 | 01:40:04 | 00:00:00 | |
| HSKMA3-T | 2026-09-01 00:09:23 | 48.80763 | 10.34916 | 347° | 9km/h | 24777m | 6m/s | -51.8°C | 0.7% | 28hPa | 2.7V | 18:12:15 | 01:40:02 | 00:00:00 | |
| SONDE2-11 | 2026-09-01 00:09:23 | 48.80760 | 10.34916 | 7° | 9km/h | 24770m | 6.1m/s | -51.8°C | 1.1% | 28.0hPa | 2.7V | 00:00:00 | 00:00:00 | 00:00:00 | |
| DL1XH1-15 | 2026-09-01 00:09:22 | 48.80754 | 10.34910 | 62° | 11km/h | 24754m | 6.7m/s | -51.9°C | 4.1% | 28.1hPa | 2.7V | 08:30:00 | 01:39:58 | 00:00:00 | |
| DK7TD | 2026-09-01 00:09:19 | 48.80754 | 10.34910 | 62° | 11km/h | 24754m | 6.7m/s | -51.9°C | 0.7% | 28.1hPa | 2.7V | 18:12:15 | 01:39:58 | 00:00:00 | |
| DF8AY | 2026-09-01 00:09:15 | 48.80752 | 10.34890 | 72° | 18km/h | 24731m | 6m/s | -51.9°C | 0.7% | 28.2hPa | 2.6V | 18:12:15 | 01:39:54 | 00:00:00 | |
| HSKMA3-T | 2026-09-01 00:09:13 | 48.80745 | 10.34875 | 38° | 11km/h | 24714m | 6.8m/s | -51.9°C | 0.8% | 28.3hPa | 2.7V | 18:12:15 | 01:39:51 | 00:00:00 | |
| NBG1-10 | 2026-09-01 00:09:13 | 48.80747 | 10.34879 | 52° | 16km/h | 24720m | 5.1m/s | -51.8°C | 4.1% | 28.2hPa | 2.7V | 00:00:00 | 01:39:52 | 00:00:00 | |
| DM0DOS-11 | 2026-09-01 00:09:11 | 48.80729 | 10.34875 | 3° | 16km/h | 24685m | 4.9m/s | -51.8°C | 4.1% | 28.4hPa | 2.7V | 08:30:00 | 01:39:46 | 00:00:00 | |
| DK7TD | 2026-09-01 00:09:09 | 48.80737 | 10.34874 | 350° | 15km/h | 24696m | 6.6m/s | -51.8°C | 0.7% | 28.3hPa | 2.6V | 18:12:15 | 01:39:48 | 00:00:00 | |
| DF8AY | 2026-09-01 00:09:04 | 48.80706 | 10.34845 | 36° | 18km/h | 24641m | 6.3m/s | -52°C | 0.7% | 28.6hPa | 2.6V | 18:12:15 | 01:39:38 | 00:00:00 | |
| DL1XH-west | 2026-09-01 00:09:04 | 48.80720 | 10.34869 | 58° | 11km/h | 24668m | 5.2m/s | -51.8°C | 0.7% | 28.5hPa | 2.6V | 18:12:15 | 01:39:43 | 00:00:00 | |
| HSKMA3-T | 2026-09-01 00:09:01 | 48.80713 | 10.34854 | 48° | 20km/h | 24651m | 5.5m/s | -51.9°C | 0.7% | 28.5hPa | 2.7V | 18:12:15 | 01:39:40 | 00:00:00 | |
| DK7TD | 2026-09-01 00:08:58 | 48.80702 | 10.34841 | 22° | 16km/h | 24635m | 5.3m/s | -52.1°C | 0.8% | 28.6hPa | 2.6V | 18:12:15 | 01:39:37 | 00:00:00 | |
| DL1XH-west | 2026-09-01 00:08:53 | 48.80678 | 10.34841 | 350° | 16km/h | 24607m | 6.6m/s | -52.1°C | 0.8% | 28.7hPa | 2.6V | 18:12:15 | 01:39:32 | 00:00:00 | |
| DL1XH1-15 | 2026-09-01 00:08:52 | 48.80664 | 10.34842 | 7° | 15km/h | 24584m | 5.8m/s | -52.1°C | 4.2% | 28.8hPa | 2.6V | 08:30:00 | 01:39:28 | 00:00:00 | |
| HSKMA3-T | 2026-09-01 00:08:50 | 48.80668 | 10.34843 | 2° | 13km/h | 24590m | 6.2m/s | -52.1°C | 0.8% | 28.8hPa | 2.7V | 18:12:15 | 01:39:29 | 00:00:00 | |
| BIOWL1-15 | 2026-09-01 00:08:49 | 48.80652 | 10.34841 | 360° | 15km/h | 24568m | 5.9m/s | 0°C | 0% | 0hPa | 2.6V | 18:12:15 | 01:39:25 | 00:00:00 | |
| DK7TD | 2026-09-01 00:08:48 | 48.80660 | 10.34842 | 7° | 16km/h | 24579m | 4.5m/s | -52.1°C | 0.8% | 28.9hPa | 2.6V | 18:12:15 | 01:39:27 | 00:00:00 | |
| DL1XH-west | 2026-09-01 00:08:43 | 48.80640 | 10.34843 | 354° | 20km/h | 24553m | 6.2m/s | -52.2°C | 0.8% | 29hPa | 2.6V | 18:12:15 | 01:39:22 | 00:00:00 | |
| DL1XH1-15 | 2026-09-01 00:08:42 | 48.80615 | 10.34848 | 343° | 26km/h | 24530m | 6.2m/s | -52.2°C | 4.2% | 29.1hPa | 2.7V | 08:30:00 | 01:39:18 | 00:00:00 | |
| HSKMA3-T | 2026-09-01 00:08:39 | 48.80615 | 10.34848 | 344° | 26km/h | 24530m | 6.2m/s | -52.2°C | 0.8% | 29.1hPa | 2.7V | 18:12:15 | 01:39:18 | 00:00:00 | |
| DK7TD | 2026-09-01 00:08:38 | 48.80609 | 10.34851 | 338° | 24km/h | 24525m | 5.4m/s | -52.2°C | 0.8% | 29.1hPa | 2.6V | 18:12:15 | 01:39:17 | 00:00:00 | |
| DO9HM | 2026-09-01 00:08:38 | 48.80609 | 10.34851 | 339° | 24km/h | 24525m | 5.4m/s | -52.2°C | 1.2% | 29.1hPa | 2.7V | 00:00:00 | 00:00:00 | 00:00:00 | |
| DK5PH-5 | 2026-09-01 00:08:36 | 48.80597 | 10.34858 | 340° | 22km/h | 24514m | 6.1m/s | -52.2°C | 4.2% | 29.1hPa | 2.7V | 00:00:00 | 01:39:15 | 00:00:00 | |
| AZAK | 2026-09-01 00:08:35 | 48.80586 | 10.34864 | 339° | 22km/h | 24503m | 5.3m/s | -52.3°C | 1.1% | 29.2hPa | 2.7V | 00:00:00 | 00:00:00 | 00:00:00 | |
| DL1XH1-15 | 2026-09-01 00:08:34 | 48.80566 | 10.34878 | 342° | 20km/h | 24475m | 5m/s | -52.3°C | 4.3% | 29.3hPa | 2.7V | 08:30:00 | 01:39:08 | 00:00:00 | |
| DL1XH-west | 2026-09-01 00:08:32 | 48.80578 | 10.34870 | 331° | 16km/h | 24491m | 5.4m/s | -52.4°C | 0.9% | 29.2hPa | 2.6V | 18:12:15 | 01:39:11 | 00:00:00 | |
| HSKMA3-T | 2026-09-01 00:08:29 | 48.80567 | 10.34878 | 343° | 20km/h | 24475m | 5.1m/s | -52.3°C | 0.9% | 29.3hPa | 2.7V | 18:12:15 | 01:39:08 | 00:00:00 | |
| DK7TD | 2026-09-01 00:08:27 | 48.80557 | 10.34883 | 339° | 18km/h | 24464m | 6.5m/s | -52.3°C | 0.8% | 29.4hPa | 2.6V | 18:12:15 | 01:39:06 | 00:00:00 | |
| DO3MHA-11 | 2026-09-01 00:08:27 | 48.80557 | 10.34882 | 339° | 16km/h | 24464m | 6.4m/s | -52.2°C | 4.3% | 29.3hPa | 2.6V | 00:00:00 | 01:39:06 | 00:00:00 | |
| DO3MHA-12 | 2026-09-01 00:08:25 | 48.80549 | 10.34888 | 335° | 16km/h | 24453m | 5.2m/s | -52.2°C | 4.3% | 29.4hPa | 2.6V | 00:00:00 | 01:39:04 | 00:00:00 | |
| DG9SBQ-11 | 2026-09-01 00:08:24 | 48.80549 | 10.34888 | 335° | 18km/h | 24453m | 5.2m/s | -52.2°C | 1.1% | 29.4hPa | 2.6V | 00:00:00 | 00:00:00 | 00:00:00 | |
| SONCRA | 2026-09-01 00:08:23 | 48.80540 | 10.34894 | 338° | 20km/h | 24442m | 5.0m/s | -52.3°C | 1.1% | 29.5hPa | 2.6V | 00:00:00 | 00:00:00 | 00:00:00 | |
| DL1XH1-15 | 2026-09-01 00:08:22 | 48.80525 | 10.34905 | 323° | 11km/h | 24420m | 4.8m/s | -52.4°C | 4.3% | 29.6hPa | 2.6V | 08:30:00 | 01:38:58 | 00:00:00 | |
| DL1XH-west | 2026-09-01 00:08:22 | 48.80535 | 10.34897 | 339° | 20km/h | 24437m | 4.6m/s | -52.3°C | 0.8% | 29.5hPa | 2.7V | 18:12:15 | 01:39:01 | 00:00:00 | |
| DF8AY | 2026-09-01 00:08:21 | 48.80531 | 10.34900 | 336° | 16km/h | 24431m | 6.2m/s | -52.3°C | 0.8% | 29.5hPa | 2.6V | 18:12:15 | 01:39:00 | 00:00:00 | |
| HSKMA3-T | 2026-09-01 00:08:18 | 48.80523 | 10.34908 | 322° | 13km/h | 24415m | 4.7m/s | -52.4°C | 0.9% | 29.6hPa | 2.6V | 18:12:15 | 01:38:57 | 00:00:00 | |
| DK7TD | 2026-09-01 00:08:16 | 48.80515 | 10.34915 | 331° | 22km/h | 24404m | 5.8m/s | -52.3°C | 0.8% | 29.6hPa | 2.7V | 18:12:15 | 01:38:55 | 00:00:00 | |
| DB0NH | 2026-09-01 00:08:16 | 48.80515 | 10.34915 | 331° | 24km/h | 24404m | 5.7m/s | -52.3°C | 4.3% | 29.6hPa | 2.7V | 00:00:00 | 01:38:55 | 08:30:00 | |
| DO3MHA-12 | 2026-09-01 00:08:15 | 48.80510 | 10.34919 | 330° | 27km/h | 24399m | 4.8m/s | -52.2°C | 4.2% | 29.6hPa | 2.6V | 00:00:00 | 01:38:54 | 00:00:00 | |
| DG9SBQ-11 | 2026-09-01 00:08:14 | 48.80505 | 10.34925 | 327° | 26km/h | 24393m | 6.5m/s | -52.3°C | 1.1% | 29.7hPa | 2.6V | 00:00:00 | 00:00:00 | 00:00:00 | |
| DL1XH1-15 | 2026-09-01 00:08:12 | 48.80478 | 10.34959 | 318° | 31km/h | 24365m | 4.3m/s | -52.2°C | 0% | 29.8hPa | 2.6V | 08:30:00 | 01:38:48 | 00:00:00 | |
| DL1XH-west | 2026-09-01 00:08:11 | 48.80489 | 10.34944 | 318° | 29km/h | 24376m | 5.6m/s | -52.2°C | 0.8% | 29.8hPa | 2.7V | 18:12:15 | 01:38:50 | 00:00:00 | |
| DF8AY | 2026-09-01 00:08:10 | 48.80477 | 10.34959 | 319° | 31km/h | 24365m | 4.3m/s | -52.2°C | 0.8% | 29.8hPa | 2.6V | 18:12:15 | 01:38:48 | 00:00:00 | |
| DL1NUX | 2026-09-01 00:08:10 | 48.80463 | 10.34990 | 287° | 22km/h | 24344m | 4.6m/s | -52.1°C | 0% | 29.9hPa | 2.7V | 08:30:00 | 01:38:44 | 00:00:00 | |
| HSKMA3-T | 2026-09-01 00:08:07 | 48.80468 | 10.34974 | 307° | 26km/h | 24356m | 6.2m/s | -52.2°C | 0.8% | 29.9hPa | 2.6V | 18:12:15 | 01:38:46 | 00:00:00 | |
| DK7TD | 2026-09-01 00:08:05 | 48.80463 | 10.34990 | 287° | 22km/h | 24344m | 4.6m/s | -52.1°C | 0.8% | 29.9hPa | 2.7V | 18:12:15 | 01:38:44 | 00:00:00 | |
| DO3MHA-12 | 2026-09-01 00:08:05 | 48.80463 | 10.34990 | 288° | 24km/h | 24345m | 4.6m/s | -52.1°C | 4.3% | 29.9hPa | 2.6V | 00:00:00 | 01:38:44 | 00:00:00 | |
| DL1XH1-15 | 2026-09-01 00:08:04 | 48.80442 | 10.35032 | 314° | 24km/h | 24313m | 6.1m/s | -52.1°C | 0% | 30.1hPa | 2.6V | 08:30:00 | 01:38:38 | 00:00:00 | |
| DL1XH-west | 2026-09-01 00:08:01 | 48.80451 | 10.35019 | 318° | 24km/h | 24324m | 4.6m/s | -52.2°C | 0.8% | 30hPa | 2.7V | 18:12:15 | 01:38:40 | 00:00:00 | |
| DF8AY | 2026-09-01 00:08:00 | 48.80438 | 10.35038 | 307° | 24km/h | 24308m | 5.4m/s | -52.1°C | 0.8% | 30.1hPa | 2.6V | 18:12:15 | 01:38:37 | 00:00:00 | |
| HSKMA3-T | 2026-09-01 00:07:57 | 48.80435 | 10.35046 | 301° | 24km/h | 24303m | 4.7m/s | -52°C | 0.8% | 30.1hPa | 2.6V | 18:12:15 | 01:38:36 | 00:00:00 | |
| DO3MHA-11 | 2026-09-01 00:07:57 | 48.80435 | 10.35046 | 301° | 24km/h | 24303m | 4.7m/s | -52.0°C | 4.3% | 30.1hPa | 2.6V | 00:00:00 | 01:38:36 | 00:00:00 | |
| DL1NUX | 2026-09-01 00:07:56 | 48.80428 | 10.35064 | 300° | 29km/h | 24291m | 5.7m/s | 0°C | 0% | 0hPa | 2.7V | 08:30:00 | 01:38:34 | 00:00:00 | |
| DK7TD | 2026-09-01 00:07:54 | 48.80425 | 10.35074 | 296° | 29km/h | 24286m | 4.5m/s | -52°C | 0.8% | 30.2hPa | 2.7V | 18:12:15 | 01:38:33 | 00:00:00 | |
| AZAK | 2026-09-01 00:07:53 | 48.80420 | 10.35094 | 280° | 26km/h | 24275m | 6.4m/s | -51.9°C | 1.1% | 30.2hPa | 2.7V | 00:00:00 | 00:00:00 | 00:00:00 | |
| DL1XH1-15 | 2026-09-01 00:07:52 | 48.80420 | 10.35118 | 278° | 16km/h | 24258m | 6.6m/s | -51.9°C | 0% | 30.3hPa | 2.7V | 00:00:00 | 01:38:28 | 00:00:00 | |
| DL1XH-west | 2026-09-01 00:07:51 | 48.80420 | 10.35111 | 270° | 20km/h | 24264m | 5.2m/s | -51.9°C | 0.8% | 30.3hPa | 2.7V | 18:12:15 | 01:38:29 | 00:00:00 | |
| DM0DOS-11 | 2026-09-01 00:07:49 | 48.80417 | 10.35129 | 297° | 16km/h | 24247m | 5.3m/s | -51.8°C | 4.2% | 30.4hPa | 2.6V | 08:30:00 | 01:38:26 | 00:00:00 | |
| DF8AY | 2026-09-01 00:07:48 | 48.80418 | 10.35123 | 292° | 15km/h | 24253m | 5.2m/s | -51.9°C | 0.8% | 30.3hPa | 2.6V | 18:12:15 | 01:38:27 | 00:00:00 | |
| HSKMA3-T | 2026-09-01 00:07:46 | 48.80415 | 10.35135 | 296° | 18km/h | 24241m | 6.4m/s | -51.8°C | 0.8% | 30.4hPa | 2.6V | 18:12:15 | 01:38:25 | 00:00:00 | |
| DK7TD | 2026-09-01 00:07:44 | 48.80410 | 10.35150 | 299° | 27km/h | 24231m | 5m/s | -51.7°C | 0.7% | 30.4hPa | 2.7V | 18:12:15 | 01:38:23 | 00:00:00 | |
| DL1XH-west | 2026-09-01 00:07:41 | 48.80393 | 10.35193 | 293° | 37km/h | 24209m | 6.2m/s | -51.6°C | 0.7% | 30.5hPa | 2.6V | 18:12:15 | 01:38:19 | 00:00:00 | |
| HSKMA3-T | 2026-09-01 00:07:35 | 48.80384 | 10.35252 | 288° | 24km/h | 24182m | 5.4m/s | -51.8°C | 0.7% | 30.7hPa | 2.6V | 18:12:15 | 01:38:14 | 00:00:00 | |
| DK7TD | 2026-09-01 00:07:34 | 48.80382 | 10.35260 | 293° | 22km/h | 24176m | 5.2m/s | -51.8°C | 0.7% | 30.7hPa | 2.6V | 18:12:15 | 01:38:13 | 00:00:00 | |
| NBG1-10 | 2026-09-01 00:07:34 | 48.80382 | 10.35260 | 293° | 22km/h | 24176m | 5.1m/s | -51.7°C | 4.0% | 30.7hPa | 2.6V | 00:00:00 | 01:38:13 | 00:00:00 | |
| DL1XH1-15 | 2026-09-01 00:07:32 | 48.80371 | 10.35302 | 299° | 27km/h | 24148m | 6.5m/s | -51.9°C | 0% | 0hPa | 2.6V | 00:00:00 | 01:38:08 | 00:00:00 | |
| DL1XH-west | 2026-09-01 00:07:30 | 48.80371 | 10.35302 | 299° | 27km/h | 24148m | 6.5m/s | -51.9°C | 0.7% | 30.9hPa | 2.6V | 18:12:15 | 01:38:08 | 00:00:00 | |
| HSKMA3-T | 2026-09-01 00:07:25 | 48.80358 | 10.35346 | 286° | 37km/h | 24127m | 5m/s | -52.2°C | 0.7% | 30.9hPa | 2.6V | 18:12:15 | 01:38:04 | 00:00:00 | |
| DK7TD | 2026-09-01 00:07:23 | 48.80353 | 10.35371 | 288° | 33km/h | 24118m | 5.4m/s | -52.3°C | 0.7% | 31hPa | 2.6V | 18:12:15 | 01:38:02 | 00:00:00 | |
| DL1XH1-15 | 2026-09-01 00:07:22 | 48.80341 | 10.35403 | 304° | 16km/h | 24096m | 6.4m/s | -52.5°C | 0% | 0hPa | 2.6V | 00:00:00 | 01:37:58 | 00:00:00 | |
| DL1XH-west | 2026-09-01 00:07:19 | 48.80341 | 10.35403 | 305° | 16km/h | 24096m | 6.4m/s | -52.5°C | 0.7% | 31.1hPa | 2.6V | 18:12:15 | 01:37:58 | 00:00:00 | |
| DL1NUX | 2026-09-01 00:07:18 | 48.80326 | 10.35432 | 312° | 24km/h | 24063m | 5.6m/s | 0°C | 0% | 0hPa | 2.6V | 08:30:00 | 01:37:52 | 00:00:00 | |
| DF8AY | 2026-09-01 00:07:15 | 48.80333 | 10.35421 | 315° | 18km/h | 24074m | 6.3m/s | -52.8°C | 0.8% | 31.2hPa | 2.7V | 18:12:15 | 01:37:54 | 00:00:00 | |
| HSKMA3-T | 2026-09-01 00:07:14 | 48.80330 | 10.35426 | 316° | 22km/h | 24068m | 4.8m/s | -52.8°C | 0.8% | 31.2hPa | 2.6V | 18:12:15 | 01:37:53 | 00:00:00 | |
| OE5DRO-10 | 2026-09-01 00:07:14 | 48.80330 | 10.35426 | 317° | 16km/h | 24069m | 4.8m/s | -52.8°C | 4.3% | 31.2hPa | 2.6V | 00:00:00 | 00:00:00 | 00:00:00 | |
| DL1XH1-15 | 2026-09-01 00:07:12 | 48.80311 | 10.35462 | 312° | 24km/h | 24042m | 6.2m/s | 0°C | 0% | 0hPa | 2.6V | 00:00:00 | 01:37:48 | 00:00:00 | |
| DK7TD | 2026-09-01 00:07:12 | 48.80322 | 10.35440 | 307° | 26km/h | 24057m | 6.2m/s | -52.9°C | 0.8% | 31.3hPa | 2.6V | 18:12:15 | 01:37:51 | 00:00:00 | |
| DL1XH-west | 2026-09-01 00:07:09 | 48.80311 | 10.35462 | 313° | 24km/h | 24042m | 6.2m/s | 0°C | 0% | 31.4hPa | 2.6V | 18:12:15 | 01:37:48 | 00:00:00 | |
| OE5DXL-15 | 2026-09-01 00:07:09 | 48.80311 | 10.35462 | 313° | 16km/h | 24042m | 6.1m/s | -53.0°C | 4.3% | 31.3hPa | 2.6V | 00:00:00 | 00:00:00 | 00:00:00 | |
| DL1NUX | 2026-09-01 00:07:08 | 48.80295 | 10.35493 | 283° | 13km/h | 24010m | 5.1m/s | 0°C | 0% | 0hPa | 2.6V | 00:00:00 | 01:37:42 | 00:00:00 | |
| HSKMA3-T | 2026-09-01 00:07:04 | 48.80296 | 10.35488 | 283° | 13km/h | 24015m | 5.2m/s | -53.2°C | 0.8% | 31.5hPa | 2.7V | 18:12:15 | 01:37:43 | 00:00:00 | |
| DK7TD | 2026-09-01 00:07:01 | 48.80292 | 10.35502 | 303° | 13km/h | 23999m | 5m/s | -53.3°C | 0.9% | 31.6hPa | 2.6V | 18:12:15 | 01:37:40 | 00:00:00 | |
| BIOWL1-15 | 2026-09-01 00:07:01 | 48.80291 | 10.35506 | 304° | 15km/h | 23994m | 5.1m/s | 0°C | 0% | 0hPa | 2.7V | 18:12:15 | 01:37:39 | 00:00:00 | |
| DL1XH-west | 2026-09-01 00:06:59 | 48.80289 | 10.35511 | 298° | 15km/h | 23988m | 6.3m/s | 0°C | 0% | 31.6hPa | 2.7V | 18:12:15 | 01:37:38 | 00:00:00 | |
| HSKMA3-T | 2026-09-01 00:06:54 | 48.80276 | 10.35540 | 314° | 20km/h | 23961m | 4.7m/s | -53.5°C | 0.9% | 31.7hPa | 2.7V | 18:12:15 | 01:37:33 | 00:00:00 | |
| DL1NUX | 2026-09-01 00:06:53 | 48.80266 | 10.35570 | 279° | 22km/h | 23940m | 4.7m/s | 0°C | 0% | 0hPa | 2.6V | 00:00:00 | 01:37:29 | 00:00:00 | |
| DF8AY | 2026-09-01 00:06:52 | 48.80269 | 10.35553 | 296° | 22km/h | 23951m | 6.1m/s | -53.4°C | 0.9% | 31.8hPa | 2.6V | 18:12:15 | 01:37:31 | 00:00:00 | |
| DK7TD | 2026-09-01 00:06:50 | 48.80266 | 10.35570 | 280° | 22km/h | 23940m | 4.7m/s | -53.4°C | 0.9% | 31.9hPa | 2.6V | 18:12:15 | 01:37:29 | 00:00:00 | |
| DL1XH-west | 2026-09-01 00:06:48 | 48.80265 | 10.35584 | 279° | 16km/h | 23929m | 5.6m/s | 0°C | 0% | 0hPa | 2.7V | 18:12:15 | 01:37:27 | 00:00:00 | |
| SONDE2-11 | 2026-09-01 00:06:47 | 48.80264 | 10.35590 | 283° | 13km/h | 23924m | 4.6m/s | -53.4°C | 1.2% | 31.9hPa | 2.7V | 00:00:00 | 00:00:00 | 00:00:00 | |
| DF7PN | 2026-09-01 00:06:45 | 48.80262 | 10.35600 | 288° | 13km/h | 23913m | 5.9m/s | -53.4°C | 1.2% | 32.0hPa | 2.7V | 00:00:00 | 00:00:00 | 00:00:00 | |
| HSKMA3-T | 2026-09-01 00:06:44 | 48.80259 | 10.35611 | 294° | 15km/h | 23903m | 4.6m/s | -53.5°C | 0.9% | 32hPa | 2.7V | 18:12:15 | 01:37:22 | 00:00:00 | |
| DF8AY | 2026-09-01 00:06:41 | 48.80256 | 10.35620 | 308° | 13km/h | 23891m | 5.7m/s | -53.4°C | 0.9% | 32.1hPa | 2.6V | 18:12:15 | 01:37:20 | 00:00:00 | |
| DK7TD | 2026-09-01 00:06:39 | 48.80253 | 10.35628 | 283° | 13km/h | 23881m | 5.9m/s | -53.4°C | 1% | 32.2hPa | 2.6V | 18:12:15 | 01:37:18 | 00:00:00 | |
| HSKMA3-T | 2026-09-01 00:06:32 | 48.80259 | 10.35659 | 275° | 9km/h | 23845m | 5.6m/s | -53.2°C | 0.8% | 32.3hPa | 2.7V | 18:12:15 | 01:37:11 | 00:00:00 | |
| DF8AY | 2026-09-01 00:06:29 | 48.80257 | 10.35670 | 301° | 11km/h | 23827m | 6.1m/s | -53.1°C | 0.9% | 32.4hPa | 2.6V | 18:12:15 | 01:37:08 | 00:00:00 | |
| DK7TD | 2026-09-01 00:06:28 | 48.80256 | 10.35673 | 309° | 9km/h | 23821m | 5.2m/s | -53.1°C | 0.9% | 32.5hPa | 2.6V | 18:12:15 | 01:37:07 | 00:00:00 | |
| HSKMA3-T | 2026-09-01 00:06:22 | 48.80264 | 10.35694 | 202° | 18km/h | 23790m | 5.9m/s | -53.2°C | 0.9% | 32.6hPa | 2.6V | 18:12:15 | 01:37:01 | 00:00:00 | |
| DF8AY | 2026-09-01 00:06:19 | 48.80278 | 10.35727 | 253° | 5km/h | 23724m | 5.6m/s | -53.5°C | 1% | 33hPa | 2.7V | 18:12:15 | 01:36:48 | 00:00:00 | |
| DK7TD | 2026-09-01 00:06:18 | 48.80279 | 10.35703 | 221° | 15km/h | 23770m | 5.2m/s | -53.4°C | 1% | 32.7hPa | 2.6V | 18:12:15 | 01:36:57 | 00:00:00 | |
| HSKMA3-T | 2026-09-01 00:06:12 | 48.80281 | 10.35718 | 310° | 11km/h | 23738m | 5.9m/s | -53.5°C | 0.9% | 32.9hPa | 2.6V | 18:12:15 | 01:36:51 | 00:00:00 | |
| DF8AY | 2026-09-01 00:06:09 | 48.80297 | 10.35721 | 326° | 2km/h | 23664m | 5m/s | -53.4°C | 0.9% | 33.3hPa | 2.7V | 18:12:15 | 01:36:37 | 00:00:00 | |
| DK7TD | 2026-09-01 00:06:08 | 48.80282 | 10.35728 | 167° | 11km/h | 23713m | 4.1m/s | -53.5°C | 1% | 33hPa | 2.6V | 18:12:15 | 01:36:46 | 00:00:00 | |
| BIOWL1-15 | 2026-09-01 00:06:07 | 48.80285 | 10.35727 | 169° | 13km/h | 23709m | 5.8m/s | 0°C | 0% | 0hPa | 2.6V | 18:12:15 | 01:36:45 | 00:00:00 | |
| DO3MHA-12 | 2026-09-01 00:06:05 | 48.80288 | 10.35726 | 174° | 5km/h | 23703m | 5.6m/s | -53.5°C | 4.6% | 33.0hPa | 2.7V | 00:00:00 | 01:36:44 | 00:00:00 | |
| DN1GJH-1 | 2026-09-01 00:06:02 | 48.80296 | 10.35725 | 158° | 7km/h | 23687m | 6.3m/s | -53.5°C | 1.2% | 33.1hPa | 2.7V | 00:00:00 | 00:00:00 | 00:00:00 | |
| DF8AY | 2026-09-01 00:06:00 | 48.80312 | 10.35715 | 18° | 11km/h | 23581m | 5.2m/s | -53.3°C | 0.9% | 33.7hPa | 2.7V | 18:12:15 | 01:36:21 | 00:00:00 | |
| DK7TD | 2026-09-01 00:05:59 | 48.80297 | 10.35721 | 339° | 2km/h | 23659m | 4.5m/s | -53.3°C | 0.9% | 33.3hPa | 2.7V | 18:12:15 | 01:36:36 | 00:00:00 | |
| DK7TD | 2026-09-01 00:05:46 | 48.80317 | 10.35715 | 195° | 4km/h | 23601m | 6.2m/s | -53.2°C | 0.9% | 33.6hPa | 2.7V | 18:12:15 | 01:36:25 | 00:00:00 | |
| HSKMA3-T | 2026-09-01 00:05:46 | 48.80317 | 10.35715 | 305° | 4km/h | 23596m | 4.6m/s | -53.2°C | 0.9% | 33.6hPa | 2.6V | 18:12:15 | 01:36:24 | 00:00:00 | |
| DF8AY | 2026-09-01 00:05:38 | 48.80306 | 10.35716 | 231° | 4km/h | 23555m | 5.8m/s | -53.5°C | 0.9% | 33.9hPa | 2.6V | 18:12:15 | 01:36:16 | 00:00:00 | |
| DK7TD | 2026-09-01 00:05:36 | 48.80307 | 10.35717 | 196° | 4km/h | 23549m | 5.5m/s | -53.6°C | 0.9% | 33.9hPa | 2.7V | 18:12:15 | 01:36:15 | 00:00:00 | |
| HSKMA3-T | 2026-09-01 00:05:35 | 48.80308 | 10.35717 | 189° | 4km/h | 23544m | 4.4m/s | -53.6°C | 0.9% | 33.9hPa | 2.7V | 18:12:15 | 01:36:14 | 00:00:00 | |
| DF8AY | 2026-09-01 00:05:27 | 48.80296 | 10.35712 | 3° | 9km/h | 23483m | 6m/s | -54°C | 1% | 34.2hPa | 2.6V | 18:12:15 | 01:36:02 | 00:00:00 | |
| DK7TD | 2026-09-01 00:05:25 | 48.80300 | 10.35712 | 13° | 7km/h | 23493m | 4.5m/s | -53.8°C | 0.9% | 34.2hPa | 2.7V | 18:12:15 | 01:36:04 | 00:00:00 | |
| HSKMA3-T | 2026-09-01 00:05:24 | 48.80298 | 10.35712 | 4° | 7km/h | 23488m | 5m/s | -53.9°C | 1% | 34.2hPa | 2.7V | 18:12:15 | 01:36:03 | 00:00:00 | |
| DK7TD | 2026-09-01 00:05:16 | 48.80271 | 10.35730 | 351° | 13km/h | 23440m | 4.5m/s | -54°C | 1% | 34.5hPa | 2.6V | 18:12:15 | 01:35:54 | 00:00:00 | |
| HSKMA3-T | 2026-09-01 00:05:14 | 48.80268 | 10.35731 | 349° | 13km/h | 23435m | 5.5m/s | -54°C | 1% | 34.5hPa | 2.7V | 18:12:15 | 01:35:53 | 00:00:00 | |
| DF8AY | 2026-09-01 00:05:07 | 48.80244 | 10.35753 | 298° | 15km/h | 23386m | 4.8m/s | -53.8°C | 1% | 34.7hPa | 2.6V | 18:12:15 | 01:35:44 | 00:00:00 | |
| DK7TD | 2026-09-01 00:05:05 | 48.80242 | 10.35757 | 297° | 13km/h | 23381m | 5.2m/s | -53.8°C | 0.9% | 34.8hPa | 2.6V | 18:12:15 | 01:35:43 | 00:00:00 | |
| HSKMA3-T | 2026-09-01 00:05:03 | 48.80241 | 10.35762 | 299° | 11km/h | 23375m | 6.1m/s | -53.8°C | 0.9% | 34.8hPa | 2.7V | 18:12:15 | 01:35:42 | 00:00:00 | |
| DK7TD | 2026-09-01 00:04:54 | 48.80227 | 10.35786 | 307° | 9km/h | 23326m | 6.3m/s | -53.6°C | 1% | 35hPa | 2.6V | 18:12:15 | 01:35:33 | 00:00:00 | |
| HSKMA3-T | 2026-09-01 00:04:53 | 48.80226 | 10.35790 | 297° | 13km/h | 23321m | 5.1m/s | -53.6°C | 1% | 35.1hPa | 2.6V | 18:12:15 | 01:35:32 | 00:00:00 | |
| DF3TZ-5 | 2026-09-01 00:04:52 | 48.80222 | 10.35804 | 282° | 11km/h | 23305m | 4.9m/s | -53.6°C | 1.2% | 35.2hPa | 2.7V | 00:00:00 | 00:00:00 | 00:00:00 | |
| SONCRA | 2026-09-01 00:04:49 | 48.80226 | 10.35829 | 239° | 11km/h | 23279m | 6.2m/s | -53.6°C | 1.2% | 35.3hPa | 2.7V | 00:00:00 | 00:00:00 | 00:00:00 | |
| PG1ADW-2 | 2026-09-01 00:04:48 | 48.80225 | 10.35829 | 240° | 5km/h | 23279m | 6.2m/s | -53.5°C | 4.5% | 35.2hPa | 2.7V | 00:00:00 | 00:00:00 | 00:00:00 | |
| DM0DOS-11 | 2026-09-01 00:04:47 | 48.80230 | 10.35836 | 249° | 5km/h | 23259m | 6m/s | -53.7°C | 4.5% | 35.4hPa | 2.7V | 08:30:00 | 01:35:20 | 00:00:00 | |
| DL1ZP-14 | 2026-09-01 00:04:46 | 48.80227 | 10.35832 | 221° | 5km/h | 23273m | 5.3m/s | -53.6°C | 1.2% | 35.4hPa | 2.6V | 00:00:00 | 00:00:00 | 00:00:00 | |
| DK7TD | 2026-09-01 00:04:43 | 48.80228 | 10.35833 | 211° | 5km/h | 23268m | 4m/s | -53.6°C | 1% | 35.4hPa | 2.6V | 18:12:15 | 01:35:22 | 00:00:00 | |
| HSKMA3-T | 2026-09-01 00:04:42 | 48.80229 | 10.35834 | 224° | 4km/h | 23264m | 4.5m/s | -53.7°C | 1% | 35.4hPa | 2.6V | 18:12:15 | 01:35:21 | 00:00:00 | |
| DK7TD | 2026-09-01 00:04:32 | 48.80233 | 10.35860 | 203° | 5km/h | 23212m | 4.4m/s | -53.9°C | 1% | 35.7hPa | 2.6V | 18:12:15 | 01:35:11 | 00:00:00 | |
| DF8AY | 2026-09-01 00:04:32 | 48.80235 | 10.35859 | 131° | 5km/h | 23201m | 5.4m/s | -53.9°C | 1% | 35.7hPa | 2.7V | 18:12:15 | 01:35:09 | 00:00:00 | |
| HSKMA3-T | 2026-09-01 00:04:31 | 48.80234 | 10.35860 | 176° | 5km/h | 23207m | 6.1m/s | -53.9°C | 1% | 35.7hPa | 2.6V | 18:12:15 | 01:35:10 | 00:00:00 | |
| DK7TD | 2026-09-01 00:04:22 | 48.80235 | 10.35860 | 271° | 2km/h | 23159m | 5.5m/s | -53.8°C | 1% | 36hPa | 2.6V | 18:12:15 | 01:35:01 | 00:00:00 | |
| HSKMA3-T | 2026-09-01 00:04:20 | 48.80236 | 10.35862 | 194° | 4km/h | 23148m | 4.7m/s | -53.8°C | 1% | 36hPa | 2.6V | 18:12:15 | 01:34:59 | 00:00:00 | |
| DK7TD | 2026-09-01 00:04:11 | 48.80235 | 10.35844 | 13° | 9km/h | 23100m | 5m/s | -53.7°C | 1% | 36.3hPa | 2.6V | 18:12:15 | 01:34:50 | 00:00:00 | |
| DF8AY | 2026-09-01 00:04:10 | 48.80232 | 10.35843 | 2° | 7km/h | 23095m | 4.5m/s | -53.7°C | 1% | 36.3hPa | 2.6V | 18:12:15 | 01:34:49 | 00:00:00 | |
| HSKMA3-T | 2026-09-01 00:04:09 | 48.80231 | 10.35843 | 343° | 7km/h | 23090m | 6m/s | -53.7°C | 0.9% | 36.4hPa | 2.6V | 18:12:15 | 01:34:48 | 00:00:00 | |
| DK7TD | 2026-09-01 00:04:01 | 48.80230 | 10.35821 | 110° | 13km/h | 23050m | 4.8m/s | -53.6°C | 0.9% | 36.6hPa | 2.6V | 18:12:15 | 01:34:40 | 00:00:00 | |
| DF8AY | 2026-09-01 00:03:59 | 48.80232 | 10.35806 | 89° | 15km/h | 23035m | 5.5m/s | -53.6°C | 1% | 36.7hPa | 2.6V | 18:12:15 | 01:34:37 | 00:00:00 | |
| HSKMA3-T | 2026-09-01 00:03:59 | 48.80232 | 10.35811 | 98° | 13km/h | 23040m | 5.6m/s | -53.6°C | 0.9% | 36.6hPa | 2.6V | 18:12:15 | 01:34:38 | 00:00:00 | |
| DK7TD | 2026-09-01 00:03:50 | 48.80226 | 10.35771 | 84° | 16km/h | 22993m | 5m/s | -54°C | 1% | 36.9hPa | 2.6V | 18:12:15 | 01:34:29 | 00:00:00 | |
| HSKMA3-T | 2026-09-01 00:03:49 | 48.80226 | 10.35760 | 97° | 13km/h | 22982m | 5.2m/s | -54°C | 1% | 37hPa | 2.6V | 18:12:15 | 01:34:27 | 00:00:00 | |
| DF8AY | 2026-09-01 00:03:47 | 48.80227 | 10.35751 | 105° | 13km/h | 22973m | 5m/s | -54°C | 1% | 37hPa | 2.7V | 18:12:15 | 01:34:25 | 00:00:00 | |
| DK7TD | 2026-09-01 00:03:39 | 48.80230 | 10.35716 | 75° | 11km/h | 22938m | 5.9m/s | -54°C | 1% | 37.2hPa | 2.6V | 18:12:15 | 01:34:18 | 00:00:00 | |
| DM0DOS-11 | 2026-09-01 00:03:38 | 48.80224 | 10.35696 | 64° | 13km/h | 22917m | 5.8m/s | -54.1°C | 4.7% | 37.4hPa | 2.7V | 08:30:00 | 01:34:14 | 00:00:00 | |
| HSKMA3-T | 2026-09-01 00:03:37 | 48.80228 | 10.35706 | 64° | 16km/h | 22927m | 4.6m/s | -54°C | 1% | 37.3hPa | 2.6V | 18:12:15 | 01:34:16 | 00:00:00 | |
| DF8AY | 2026-09-01 00:03:36 | 48.80210 | 10.35646 | 41° | 16km/h | 22866m | 6m/s | -53.9°C | 1% | 37.7hPa | 2.6V | 18:12:15 | 01:34:04 | 00:00:00 | |
| DK7TD | 2026-09-01 00:03:29 | 48.80216 | 10.35667 | 73° | 18km/h | 22887m | 5.4m/s | -54.1°C | 1% | 37.5hPa | 2.7V | 18:12:15 | 01:34:08 | 00:00:00 | |
| HSKMA3-T | 2026-09-01 00:03:27 | 48.80212 | 10.35651 | 55° | 15km/h | 22872m | 5.4m/s | -53.9°C | 1% | 37.6hPa | 2.6V | 18:12:15 | 01:34:05 | 00:00:00 | |
| DO3MHA-11 | 2026-09-01 00:03:26 | 48.80147 | 10.35589 | 13° | 20km/h | 22772m | 5.5m/s | -53.6°C | 4.6% | 38.2hPa | 2.7V | 00:00:00 | 01:33:46 | 00:00:00 | |
| AZAK | 2026-09-01 00:03:24 | 48.80129 | 10.35578 | 36° | 16km/h | 22752m | 4.2m/s | -53.6°C | 1.2% | 38.3hPa | 2.7V | 00:00:00 | 00:00:00 | 00:00:00 | |
| OE5DRO-10 | 2026-09-01 00:03:22 | 48.80123 | 10.35569 | 41° | 20km/h | 22743m | 6.0m/s | -53.5°C | 4.5% | 38.3hPa | 2.7V | 00:00:00 | 00:00:00 | 00:00:00 | |
| DK7TD | 2026-09-01 00:03:18 | 48.80180 | 10.35626 | 29° | 18km/h | 22829m | 4.7m/s | -53.7°C | 0.9% | 37.9hPa | 2.7V | 18:12:15 | 01:33:57 | 00:00:00 | |
| DM0DOS-11 | 2026-09-01 00:03:18 | 48.80162 | 10.35594 | 36° | 15km/h | 22793m | 6m/s | -53.7°C | 4.6% | 38.1hPa | 2.6V | 08:30:00 | 01:33:50 | 00:00:00 | |
| DN1GJH-1 | 2026-09-01 00:03:16 | 48.80099 | 10.35551 | 1° | 18km/h | 22717m | 4.7m/s | -53.5°C | 1.2% | 38.5hPa | 2.6V | 00:00:00 | 00:00:00 | 00:00:00 | |
| HSKMA3-T | 2026-09-01 00:03:15 | 48.80172 | 10.35614 | 61° | 15km/h | 22814m | 4.1m/s | -53.7°C | 1% | 38hPa | 2.6V | 18:12:15 | 01:33:54 | 00:00:00 | |
| DO3MHA-12 | 2026-09-01 00:03:15 | 48.80094 | 10.35552 | 354° | 22km/h | 22712m | 5.0m/s | -53.5°C | 4.5% | 38.5hPa | 2.7V | 00:00:00 | 01:33:34 | 00:00:00 | |
| DM7RM-13 | 2026-09-01 00:03:14 | 48.80083 | 10.35554 | 353° | 24km/h | 22701m | 5.1m/s | -53.5°C | 1.3% | 38.6hPa | 2.7V | 00:00:00 | 00:00:00 | 00:00:00 | |
| DG9SBQ-11 | 2026-09-01 00:03:10 | 48.80061 | 10.35556 | 12° | 22km/h | 22680m | 5.9m/s | -53.6°C | 1.2% | 38.8hPa | 2.7V | 00:00:00 | 00:00:00 | 00:00:00 | |
| DF8AY | 2026-09-01 00:03:09 | 48.80126 | 10.35574 | 40° | 16km/h | 22748m | 4.4m/s | -53.6°C | 0.9% | 38.3hPa | 2.7V | 18:12:15 | 01:33:41 | 00:00:00 | |
| DK7TD | 2026-09-01 00:03:09 | 48.80151 | 10.35590 | 7° | 16km/h | 22778m | 5.5m/s | -53.6°C | 0.9% | 38.2hPa | 2.7V | 18:12:15 | 01:33:47 | 00:00:00 | |
| DF3TZ-5 | 2026-09-01 00:03:08 | 48.80046 | 10.35547 | 26° | 18km/h | 22664m | 5.9m/s | -53.6°C | 1.2% | 38.9hPa | 2.7V | 00:00:00 | 00:00:00 | 00:00:00 | |
| DB0NH | 2026-09-01 00:03:06 | 48.80046 | 10.35547 | 27° | 15km/h | 22665m | 5.9m/s | -53.5°C | 4.5% | 38.8hPa | 2.7V | 00:00:00 | 01:33:25 | 00:00:00 | |
| DM0DOS-11 | 2026-09-01 00:03:05 | 48.80126 | 10.35574 | 40° | 16km/h | 22748m | 4.3m/s | -53.6°C | 4.5% | 38.3hPa | 2.7V | 08:30:00 | 01:33:41 | 00:00:00 | |
| HSKMA3-T | 2026-09-01 00:03:04 | 48.80133 | 10.35581 | 27° | 18km/h | 22757m | 5.8m/s | -53.6°C | 1% | 38.3hPa | 2.6V | 18:12:15 | 01:33:43 | 00:00:00 | |
| DO3MHA-12 | 2026-09-01 00:03:04 | 48.80042 | 10.35544 | 29° | 18km/h | 22659m | 4.6m/s | -53.5°C | 4.5% | 38.8hPa | 2.7V | 00:00:00 | 01:33:24 | 08:30:00 | |
| OE5WHR-10 | 2026-09-01 00:03:02 | 48.80038 | 10.35541 | 28° | 16km/h | 22655m | 3.9m/s | -53.5°C | 4.5% | 38.9hPa | 2.7V | 00:00:00 | 00:00:00 | 00:00:00 | |
| DO9HM | 2026-09-01 00:03:01 | 48.80038 | 10.35541 | 29° | 15km/h | 22655m | 4.0m/s | -53.6°C | 1.2% | 38.9hPa | 2.7V | 00:00:00 | 00:00:00 | 00:00:00 | |
| AZAK | 2026-09-01 00:03:00 | 48.80030 | 10.35536 | 21° | 18km/h | 22645m | 5.6m/s | -53.5°C | 1.2% | 39.0hPa | 2.7V | 00:00:00 | 00:00:00 | 00:00:00 | |
| DF8AY | 2026-09-01 00:03:00 | 48.80104 | 10.35553 | 15° | 18km/h | 22722m | 5.8m/s | -53.5°C | 1% | 38.5hPa | 2.7V | 18:12:15 | 01:33:36 | 00:00:00 | |
| OE5DRO-10 | 2026-09-01 00:02:59 | 48.80030 | 10.35536 | 20° | 16km/h | 22645m | 5.5m/s | -53.5°C | 4.5% | 38.9hPa | 2.7V | 00:00:00 | 00:00:00 | 00:00:00 | |
| DK7TD | 2026-09-01 00:02:59 | 48.80108 | 10.35555 | 25° | 22km/h | 22727m | 5m/s | -53.5°C | 1% | 38.5hPa | 2.6V | 18:12:15 | 01:33:37 | 00:00:00 | |
| SONCRA | 2026-09-01 00:02:58 | 48.80026 | 10.35534 | 12° | 18km/h | 22639m | 4.7m/s | -53.5°C | 1.2% | 39.0hPa | 2.7V | 00:00:00 | 00:00:00 | 00:00:00 | |
| DL8DAS-14 | 2026-09-01 00:02:57 | 48.80008 | 10.35537 | 338° | 18km/h | 22619m | 4.4m/s | 0°C | -1.0% | -1.0hPa | 2.7V | 00:00:00 | 00:00:00 | 00:00:00 | |
| DL1ZP-14 | 2026-09-01 00:02:54 | 48.80017 | 10.35533 | 353° | 16km/h | 22629m | 6.0m/s | -53.5°C | 1.2% | 39.1hPa | 2.7V | 00:00:00 | 00:00:00 | 00:00:00 | |
| HSKMA3-T | 2026-09-01 00:02:53 | 48.80083 | 10.35554 | 352° | 24km/h | 22701m | 5.1m/s | -53.5°C | 0.9% | 38.6hPa | 2.6V | 18:12:15 | 01:33:32 | 00:00:00 | |
| SONDE2-11 | 2026-09-01 00:02:52 | 48.80012 | 10.35535 | 341° | 16km/h | 22624m | 4.9m/s | -53.5°C | 1.2% | 39.1hPa | 2.7V | 00:00:00 | 00:00:00 | 00:00:00 | |
| OE5DXL-15 | 2026-09-01 00:02:51 | 48.80017 | 10.35533 | 354° | 13km/h | 22629m | 6.0m/s | -53.5°C | 4.5% | 39.0hPa | 2.7V | 00:00:00 | 00:00:00 | 00:00:00 | |
| DO3MHA-11 | 2026-09-01 00:02:49 | 48.80008 | 10.35537 | 339° | 18km/h | 22619m | 4.4m/s | -53.5°C | 4.5% | 39.1hPa | 2.6V | 00:00:00 | 01:33:16 | 00:00:00 | |
| DK7TD | 2026-09-01 00:02:48 | 48.80056 | 10.35554 | 18° | 22km/h | 22674m | 5.5m/s | -53.6°C | 1% | 38.8hPa | 2.6V | 18:12:15 | 01:33:27 | 00:00:00 | |
| NBG1-10 | 2026-09-01 00:02:48 | 48.80008 | 10.35537 | 339° | 13km/h | 22619m | 4.4m/s | -53.5°C | 4.5% | 39.1hPa | 2.6V | 00:00:00 | 01:33:16 | 00:00:00 | |
| DN1GJH-1 | 2026-09-01 00:02:47 | 48.80003 | 10.35540 | 343° | 22km/h | 22614m | 6.0m/s | -53.5°C | 1.3% | 39.2hPa | 2.6V | 00:00:00 | 00:00:00 | 00:00:00 | |
| DK5PH-5 | 2026-09-01 00:02:46 | 48.79997 | 10.35542 | 347° | 13km/h | 22609m | 4.9m/s | -53.5°C | 4.5% | 39.1hPa | 2.6V | 00:00:00 | 01:33:14 | 00:00:00 | |
| DG9SBQ-11 | 2026-09-01 00:02:45 | 48.79983 | 10.35545 | 4° | 15km/h | 22593m | 4.8m/s | -53.6°C | 1.3% | 39.3hPa | 2.6V | 00:00:00 | 00:00:00 | 00:00:00 | |
| HSKMA3-T | 2026-09-01 00:02:43 | 48.80026 | 10.35534 | 13° | 20km/h | 22639m | 4.7m/s | -53.5°C | 0.9% | 39hPa | 2.6V | 18:12:15 | 01:33:20 | 00:00:00 | |
| BIOWL9-15 | 2026-09-01 00:02:40 | 48.79966 | 10.35536 | 15° | 13km/h | 22569m | 4.3m/s | -53.5°C | 1.2% | 39.4hPa | 2.6V | 00:00:00 | 00:00:00 | 00:00:00 | |
| DJ8HS-15 | 2026-09-01 00:02:38 | 48.79966 | 10.35536 | 16° | 11km/h | 22569m | 4.2m/s | -53.4°C | 4.6% | 39.4hPa | 2.6V | 00:00:00 | 01:33:06 | 00:00:00 | |
| DK7TD | 2026-09-01 00:02:37 | 48.80008 | 10.35537 | 339° | 20km/h | 22619m | 4.4m/s | -53.5°C | 1% | 39.1hPa | 2.6V | 18:12:15 | 01:33:16 | 00:00:00 | |
| DG9SBQ-11 | 2026-09-01 00:02:34 | 48.79962 | 10.35535 | 5° | 11km/h | 22564m | 6.0m/s | -53.4°C | 1.3% | 39.4hPa | 2.6V | 00:00:00 | 00:00:00 | 00:00:00 | |
| HSKMA3-T | 2026-09-01 00:02:32 | 48.79980 | 10.35544 | 14° | 13km/h | 22589m | 4m/s | -53.5°C | 1% | 39.3hPa | 2.6V | 18:12:15 | 01:33:10 | 00:00:00 | |
| OE5WHR-10 | 2026-09-01 00:02:30 | 48.79957 | 10.35537 | 343° | 11km/h | 22549m | 5.3m/s | -53.3°C | 4.5% | 39.5hPa | 2.6V | 00:00:00 | 01:33:02 | 00:00:00 | |
| OE9MKV-15 | 2026-09-01 00:02:29 | 48.79955 | 10.35538 | 360° | 13km/h | 22544m | 5.4m/s | -53.2°C | 4.5% | 39.5hPa | 2.6V | 00:00:00 | 01:33:01 | 00:00:00 | |
| DF8AY | 2026-09-01 00:02:27 | 48.79966 | 10.35536 | 16° | 15km/h | 22569m | 4.3m/s | -53.5°C | 1% | 39.4hPa | 2.6V | 18:12:15 | 01:33:06 | 00:00:00 | |
| DK7TD | 2026-09-01 00:02:27 | 48.79963 | 10.35535 | 4° | 11km/h | 22564m | 6m/s | -53.4°C | 1% | 39.4hPa | 2.6V | 18:12:15 | 01:33:05 | 00:00:00 | |
| DO9HM | 2026-09-01 00:02:27 | 48.79952 | 10.35537 | 7° | 11km/h | 22539m | 4.8m/s | -53.3°C | 1.2% | 39.6hPa | 2.6V | 00:00:00 | 00:00:00 | 00:00:00 | |
| DG9SBQ-11 | 2026-09-01 00:02:26 | 48.79952 | 10.35537 | 7° | 11km/h | 22539m | 4.8m/s | -53.3°C | 1.2% | 39.6hPa | 2.6V | 00:00:00 | 00:00:00 | 00:00:00 | |
| HSKMA3-T | 2026-09-01 00:02:23 | 48.79949 | 10.35537 | 3° | 13km/h | 22534m | 4.7m/s | -53.2°C | 0.9% | 39.6hPa | 2.6V | 18:12:15 | 01:32:59 | 00:00:00 | |
| DO3MHA-11 | 2026-09-01 00:02:22 | 48.79940 | 10.35537 | 2° | 11km/h | 22518m | 5.3m/s | -53.2°C | 4.3% | 39.7hPa | 2.6V | 00:00:00 | 01:32:56 | 00:00:00 | |
| DH7VM-15 | 2026-09-01 00:02:21 | 48.79940 | 10.35537 | 2° | 13km/h | 22518m | 5.4m/s | -53.2°C | 1.2% | 39.7hPa | 2.6V | 00:00:00 | 00:00:00 | 00:00:00 | |
| DB0NH | 2026-09-01 00:02:20 | 48.79936 | 10.35537 | 9° | 15km/h | 22513m | 5.8m/s | -53.2°C | 4.3% | 39.7hPa | 2.6V | 00:00:00 | 01:32:55 | 00:00:00 | |
| DG9SBQ-11 | 2026-09-01 00:02:19 | 48.79936 | 10.35537 | 9° | 13km/h | 22513m | 5.9m/s | -53.2°C | 1.2% | 39.8hPa | 2.6V | 00:00:00 | 00:00:00 | 00:00:00 | |
| DO3MHA-12 | 2026-09-01 00:02:18 | 48.79933 | 10.35536 | 8° | 11km/h | 22507m | 4.5m/s | -53.2°C | 4.4% | 39.8hPa | 2.6V | 00:00:00 | 01:32:54 | 00:00:00 | |
| DF8AY | 2026-09-01 00:02:17 | 48.79936 | 10.35537 | 8° | 13km/h | 22512m | 5.9m/s | -53.2°C | 0.9% | 39.8hPa | 2.6V | 18:12:15 | 01:32:55 | 00:00:00 | |
| DF1GD-15 | 2026-09-01 00:02:16 | 48.79927 | 10.35537 | 343° | 11km/h | 22497m | 5.2m/s | -53.2°C | 1.2% | 39.9hPa | 2.6V | 00:00:00 | 00:00:00 | 00:00:00 | |
| DK7TD | 2026-09-01 00:02:15 | 48.79933 | 10.35536 | 7° | 13km/h | 22507m | 4.6m/s | -53.2°C | 0.9% | 39.8hPa | 2.6V | 18:12:15 | 01:32:54 | 00:00:00 | |
| DM7RM-13 | 2026-09-01 00:02:15 | 48.79925 | 10.35538 | 338° | 11km/h | 22492m | 4.4m/s | -53.3°C | 1.2% | 39.9hPa | 2.6V | 00:00:00 | 00:00:00 | 00:00:00 | |
| SONCRA | 2026-09-01 00:02:14 | 48.79920 | 10.35540 | 1° | 11km/h | 22481m | 5.5m/s | -53.3°C | 1.2% | 40.0hPa | 2.6V | 00:00:00 | 00:00:00 | 00:00:00 | |
| DL8DAS-14 | 2026-09-01 00:02:12 | 48.79824 | 10.35522 | 338° | 15km/h | 22336m | 5.3m/s | 0°C | -1.0% | -1.0hPa | 2.6V | 00:00:00 | 00:00:00 | 00:00:00 | |
| OE5DXL-15 | 2026-09-01 00:02:11 | 48.79917 | 10.35539 | 11° | 15km/h | 22477m | 3.9m/s | -53.3°C | 4.5% | 39.9hPa | 2.6V | 00:00:00 | 00:00:00 | 00:00:00 | |
| HSKMA3-T | 2026-09-01 00:02:10 | 48.79920 | 10.35540 | 1° | 11km/h | 22481m | 5.5m/s | -53.3°C | 0.9% | 40hPa | 2.6V | 18:12:15 | 01:32:49 | 00:00:00 | |
| DL1ZP-14 | 2026-09-01 00:02:10 | 48.79914 | 10.35539 | 11° | 11km/h | 22472m | 4.9m/s | -53.4°C | 1.2% | 40.0hPa | 2.6V | 00:00:00 | 00:00:00 | 00:00:00 | |
| DG9SBQ-11 | 2026-09-01 00:02:09 | 48.79917 | 10.35539 | 12° | 13km/h | 22477m | 4.0m/s | -53.4°C | 1.2% | 40.0hPa | 2.7V | 00:00:00 | 00:00:00 | 00:00:00 | |
| DF8AY | 2026-09-01 00:02:07 | 48.79899 | 10.35532 | 39° | 15km/h | 22441m | 4.8m/s | -53.4°C | 1% | 40.2hPa | 2.7V | 18:12:15 | 01:32:41 | 00:00:00 | |
| DK7TD | 2026-09-01 00:02:05 | 48.79904 | 10.35537 | 22° | 11km/h | 22452m | 5.8m/s | -53.4°C | 0.9% | 40.2hPa | 2.6V | 18:12:15 | 01:32:43 | 00:00:00 | |
| NBG1-10 | 2026-09-01 00:02:04 | 48.79904 | 10.35537 | 22° | 16km/h | 22452m | 5.8m/s | -53.3°C | 4.5% | 40.1hPa | 2.7V | 00:00:00 | 01:32:43 | 00:00:00 | |
| DO3MHA-12 | 2026-09-01 00:02:01 | 48.79834 | 10.35519 | 357° | 16km/h | 22351m | 4.5m/s | -53.1°C | 4.5% | 40.7hPa | 2.7V | 00:00:00 | 01:32:24 | 00:00:00 | |
| HSKMA3-T | 2026-09-01 00:02:00 | 48.79893 | 10.35525 | 36° | 13km/h | 22430m | 5.9m/s | -53.4°C | 1% | 40.3hPa | 2.6V | 18:12:15 | 01:32:39 | 00:00:00 | |
| AZAK | 2026-09-01 00:01:57 | 48.79816 | 10.35529 | 325° | 22km/h | 22324m | 5.5m/s | -53.0°C | 1.2% | 41.0hPa | 2.6V | 00:00:00 | 00:00:00 | 00:00:00 | |
| OE5WHR-10 | 2026-09-01 00:01:56 | 48.79820 | 10.35525 | 328° | 13km/h | 22331m | 6.2m/s | -53.0°C | 4.5% | 40.9hPa | 2.6V | 00:00:00 | 00:00:00 | 00:00:00 | |
| SONCRA | 2026-09-01 00:01:55 | 48.79812 | 10.35533 | 325° | 20km/h | 22319m | 6.1m/s | -53.0°C | 1.2% | 41.0hPa | 2.6V | 00:00:00 | 00:00:00 | 00:00:00 | |
| DK7TD | 2026-09-01 00:01:54 | 48.79876 | 10.35516 | 354° | 16km/h | 22399m | 6.4m/s | -53.3°C | 0.9% | 40.5hPa | 2.6V | 18:12:15 | 01:32:33 | 00:00:00 | |
| DO9HM | 2026-09-01 00:01:54 | 48.79812 | 10.35533 | 327° | 22km/h | 22319m | 6.1m/s | -53.0°C | 1.3% | 41.0hPa | 2.7V | 00:00:00 | 00:00:00 | 00:00:00 | |
| DF8AY | 2026-09-01 00:01:53 | 48.79857 | 10.35522 | 1° | 22km/h | 22377m | 5.7m/s | -53.3°C | 0.9% | 40.6hPa | 2.7V | 18:12:15 | 01:32:29 | 00:00:00 | |
| DL8DAS-14 | 2026-09-01 00:01:53 | 48.79793 | 10.35552 | 324° | 13km/h | 22291m | 4.8m/s | 0°C | -1.0% | -1.0hPa | 2.6V | 00:00:00 | 00:00:00 | 00:00:00 | |
| HSKMA3-T | 2026-09-01 00:01:49 | 48.79847 | 10.35520 | 9° | 20km/h | 22367m | 5.3m/s | -53.2°C | 0.9% | 40.7hPa | 2.6V | 18:12:15 | 01:32:27 | 00:00:00 | |
| DL1ZP-14 | 2026-09-01 00:01:49 | 48.79803 | 10.35541 | 331° | 18km/h | 22308m | 4.8m/s | -53.0°C | 1.2% | 41.1hPa | 2.6V | 00:00:00 | 00:00:00 | 00:00:00 | |
| DM0DOS-11 | 2026-09-01 00:01:48 | 48.79834 | 10.35520 | 356° | 13km/h | 22351m | 4.5m/s | -53.1°C | 4.5% | 40.8hPa | 2.7V | 08:30:00 | 01:32:24 | 00:00:00 | |
| SONDE2-11 | 2026-09-01 00:01:48 | 48.79799 | 10.35545 | 327° | 16km/h | 22302m | 6.0m/s | -52.9°C | 1.2% | 41.1hPa | 2.6V | 00:00:00 | 00:00:00 | 00:00:00 | |
| DB0UT-7 | 2026-09-01 00:01:46 | 48.79796 | 10.35548 | 322° | 9km/h | 22296m | 5.7m/s | -52.9°C | 4.5% | 41.1hPa | 2.6V | 00:00:00 | 01:32:14 | 00:00:00 | |
| DK7TD | 2026-09-01 00:01:44 | 48.79827 | 10.35520 | 351° | 13km/h | 22341m | 4.7m/s | -53.1°C | 0.9% | 40.9hPa | 2.6V | 18:12:15 | 01:32:22 | 00:00:00 | |
| DN1GJH-1 | 2026-09-01 00:01:43 | 48.79793 | 10.35551 | 326° | 13km/h | 22291m | 4.8m/s | -52.9°C | 1.3% | 41.2hPa | 2.6V | 00:00:00 | 00:00:00 | 00:00:00 | |
| NBG1-10 | 2026-09-01 00:01:41 | 48.79785 | 10.35555 | 359° | 9km/h | 22275m | 4.1m/s | -52.8°C | 4.4% | 41.2hPa | 2.6V | 00:00:00 | 01:32:10 | 08:30:00 | |
| DM0DOS-11 | 2026-09-01 00:01:40 | 48.79790 | 10.35554 | 336° | 11km/h | 22285m | 6.4m/s | -52.9°C | 4.5% | 41.2hPa | 2.7V | 08:30:00 | 01:32:12 | 00:00:00 | |
| DG9SBQ-11 | 2026-09-01 00:01:39 | 48.79781 | 10.35557 | 327° | 9km/h | 22265m | 5.7m/s | -52.8°C | 1.2% | 41.3hPa | 2.6V | 00:00:00 | 00:00:00 | 00:00:00 | |
| HSKMA3-T | 2026-09-01 00:01:38 | 48.79807 | 10.35538 | 331° | 20km/h | 22313m | 5.5m/s | -53°C | 0.9% | 41hPa | 2.6V | 18:12:15 | 01:32:17 | 00:00:00 | |
| DB0ND-19 | 2026-09-01 00:01:38 | 48.79779 | 10.35560 | 314° | 11km/h | 22259m | 5.3m/s | -52.8°C | 1.2% | 41.4hPa | 2.6V | 00:00:00 | 00:00:00 | 00:00:00 | |
| OE5DRO-10 | 2026-09-01 00:01:37 | 48.79774 | 10.35566 | 326° | 9km/h | 22248m | 6.3m/s | -52.7°C | 4.5% | 41.4hPa | 2.6V | 00:00:00 | 00:00:00 | 00:00:00 | |
| DO3MHA-12 | 2026-09-01 00:01:35 | 48.79772 | 10.35568 | 336° | 11km/h | 22242m | 4.8m/s | -52.7°C | 4.4% | 41.4hPa | 2.6V | 00:00:00 | 01:32:04 | 00:00:00 | |
| DK7TD | 2026-09-01 00:01:32 | 48.79788 | 10.35555 | 355° | 9km/h | 22280m | 5.1m/s | -52.9°C | 0.9% | 41.2hPa | 2.6V | 18:12:15 | 01:32:11 | 00:00:00 | |
| DF8AY | 2026-09-01 00:01:32 | 48.79751 | 10.35586 | 314° | 7km/h | 22192m | 5.2m/s | -52.4°C | 0.8% | 41.8hPa | 2.6V | 18:12:15 | 01:31:55 | 00:00:00 | |
| DL6DJ-15 | 2026-09-01 00:01:32 | 48.79766 | 10.35572 | 325° | 11km/h | 22232m | 6.3m/s | -52.7°C | 1.2% | 41.5hPa | 2.6V | 00:00:00 | 00:00:00 | 00:00:00 | |
| DG9SBQ-11 | 2026-09-01 00:01:30 | 48.79766 | 10.35572 | 326° | 13km/h | 22232m | 6.3m/s | -52.7°C | 1.2% | 41.5hPa | 2.6V | 00:00:00 | 00:00:00 | 00:00:00 | |
| HSKMA3-T | 2026-09-01 00:01:28 | 48.79769 | 10.35570 | 334° | 13km/h | 22237m | 4.6m/s | -52.7°C | 0.9% | 41.5hPa | 2.6V | 18:12:15 | 01:32:03 | 00:00:00 | |
| DM0DOS-11 | 2026-09-01 00:01:28 | 48.79772 | 10.35568 | 335° | 13km/h | 22242m | 4.9m/s | -52.7°C | 4.4% | 41.5hPa | 2.6V | 08:30:00 | 01:32:04 | 00:00:00 | |
| AZAK | 2026-09-01 00:01:28 | 48.79756 | 10.35582 | 344° | 11km/h | 22209m | 5.2m/s | -52.5°C | 1.2% | 41.7hPa | 2.6V | 00:00:00 | 00:00:00 | 00:00:00 | |
| OE5WHR-10 | 2026-09-01 00:01:27 | 48.79759 | 10.35580 | 334° | 9km/h | 22215m | 6.3m/s | -52.5°C | 4.3% | 41.6hPa | 2.6V | 00:00:00 | 01:31:59 | 00:00:00 | |
| DF8AY | 2026-09-01 00:01:23 | 48.79747 | 10.35590 | 357° | 5km/h | 22176m | 5.3m/s | -52.3°C | 0.7% | 41.9hPa | 2.6V | 18:12:15 | 01:31:52 | 00:00:00 | |
| DO3MHA-11 | 2026-09-01 00:01:23 | 48.79752 | 10.35584 | 329° | 5km/h | 22199m | 6.3m/s | -52.4°C | 4.3% | 41.7hPa | 2.6V | 00:00:00 | 01:31:56 | 00:00:00 | |
| DK7TD | 2026-09-01 00:01:23 | 48.79762 | 10.35578 | 323° | 13km/h | 22220m | 5.4m/s | -52.6°C | 0.8% | 41.6hPa | 2.6V | 18:12:15 | 01:32:00 | 00:00:00 | |
| DM0DOS-11 | 2026-09-01 00:01:22 | 48.79750 | 10.35588 | 313° | 5km/h | 22187m | 5m/s | -52.4°C | 4.2% | 41.8hPa | 2.6V | 08:30:00 | 01:31:54 | 00:00:00 | |
| DB0NH | 2026-09-01 00:01:21 | 48.79751 | 10.35586 | 314° | 5km/h | 22193m | 5.1m/s | -52.3°C | 4.3% | 41.7hPa | 2.7V | 00:00:00 | 01:31:55 | 00:00:00 | |
| HSKMA3-T | 2026-09-01 00:01:17 | 48.79752 | 10.35585 | 329° | 7km/h | 22198m | 6.4m/s | -52.4°C | 0.8% | 41.8hPa | 2.7V | 18:12:15 | 01:31:56 | 00:00:00 | |
| DF1GD-15 | 2026-09-01 00:01:16 | 48.79746 | 10.35590 | 356° | 5km/h | 22171m | 4.8m/s | -52.3°C | 1.2% | 42.0hPa | 2.6V | 00:00:00 | 00:00:00 | 00:00:00 | |
| DM7RM-13 | 2026-09-01 00:01:14 | 48.79745 | 10.35590 | 327° | 4km/h | 22166m | 6.4m/s | -52.3°C | 1.2% | 42.0hPa | 2.6V | 00:00:00 | 00:00:00 | 00:00:00 | |
| SONCRA | 2026-09-01 00:01:12 | 48.79743 | 10.35595 | 319° | 4km/h | 22149m | 6.2m/s | -52.3°C | 1.1% | 42.1hPa | 2.6V | 00:00:00 | 00:00:00 | 00:00:00 | |
| DJ8HS-15 | 2026-09-01 00:01:11 | 48.79742 | 10.35596 | 348° | 7km/h | 22143m | 5.6m/s | -52.3°C | 4.2% | 42.1hPa | 2.6V | 00:00:00 | 01:31:46 | 00:00:00 | |
| DK7TD | 2026-09-01 00:01:10 | 48.79744 | 10.35592 | 294° | 5km/h | 22159m | 5.4m/s | -52.3°C | 0.8% | 42hPa | 2.6V | 18:12:15 | 01:31:49 | 00:00:00 | |
| DO3MHA-11 | 2026-09-01 00:01:10 | 48.79742 | 10.35596 | 348° | 9km/h | 22143m | 5.6m/s | -52.3°C | 4.2% | 42.1hPa | 2.6V | 00:00:00 | 01:31:46 | 00:00:00 | |
| DG9SBQ-11 | 2026-09-01 00:01:09 | 48.79742 | 10.35596 | 349° | 5km/h | 22143m | 5.7m/s | -52.3°C | 1.1% | 42.1hPa | 2.6V | 00:00:00 | 00:00:00 | 00:00:00 | |
| DM0DOS-11 | 2026-09-01 00:01:08 | 48.79731 | 10.35599 | 2° | 11km/h | 22116m | 6.4m/s | -52.3°C | 4.2% | 42.3hPa | 2.6V | 08:30:00 | 01:31:41 | 00:00:00 | |
| SONDE2-11 | 2026-09-01 00:01:08 | 48.79738 | 10.35597 | 344° | 7km/h | 22132m | 6.4m/s | -52.3°C | 1.1% | 42.2hPa | 2.7V | 00:00:00 | 00:00:00 | 00:00:00 | |
| HSKMA3-T | 2026-09-01 00:01:07 | 48.79742 | 10.35596 | 348° | 5km/h | 22143m | 5.7m/s | -52.3°C | 0.7% | 42.1hPa | 2.7V | 18:12:15 | 01:31:46 | 00:00:00 | |
| DO3MHA-12 | 2026-09-01 00:01:07 | 48.79738 | 10.35597 | 345° | 7km/h | 22132m | 6.3m/s | -52.3°C | 4.2% | 42.1hPa | 2.6V | 00:00:00 | 01:31:44 | 00:00:00 | |
| DF8AY | 2026-09-01 00:01:06 | 48.79723 | 10.35595 | 214° | 2km/h | 22065m | 6.3m/s | -52.8°C | 0.8% | 42.6hPa | 2.6V | 18:12:15 | 01:31:32 | 00:00:00 | |
| DB0UT-7 | 2026-09-01 00:01:06 | 48.79738 | 10.35597 | 345° | 7km/h | 22132m | 6.3m/s | -52.3°C | 4.2% | 42.1hPa | 2.6V | 00:00:00 | 00:00:00 | 00:00:00 | |
| DF7PN | 2026-09-01 00:01:05 | 48.79733 | 10.35599 | 349° | 9km/h | 22121m | 4.5m/s | -52.3°C | 1.1% | 42.3hPa | 2.7V | 00:00:00 | 00:00:00 | 00:00:00 | |
| DO9HM | 2026-09-01 00:01:02 | 48.79722 | 10.35598 | 0° | 0km/h | 22088m | 6.0m/s | -52.6°C | 1.2% | 42.5hPa | 2.7V | 00:00:00 | 00:00:00 | 00:00:00 | |
| DK7TD | 2026-09-01 00:01:00 | 48.79725 | 10.35598 | 9° | 9km/h | 22104m | 5.3m/s | -52.4°C | 0.8% | 42.4hPa | 2.7V | 18:12:15 | 01:31:39 | 00:00:00 | |
| DO3MHA-12 | 2026-09-01 00:01:00 | 48.79722 | 10.35596 | 110° | 7km/h | 22076m | 4.7m/s | -52.6°C | 4.3% | 42.5hPa | 2.7V | 00:00:00 | 01:31:34 | 00:00:00 | |
| DL6DJ-15 | 2026-09-01 00:00:59 | 48.79723 | 10.35596 | 270° | 2km/h | 22060m | 4.8m/s | -52.9°C | 1.2% | 42.7hPa | 2.7V | 00:00:00 | 00:00:00 | 00:00:00 | |
| DH7VM-15 | 2026-09-01 00:00:58 | 48.79723 | 10.35596 | 271° | 4km/h | 22060m | 4.8m/s | -52.9°C | 1.2% | 42.7hPa | 2.7V | 00:00:00 | 00:00:00 | 00:00:00 | |
| HSKMA3-T | 2026-09-01 00:00:57 | 48.79722 | 10.35596 | 109° | 4km/h | 22076m | 4.8m/s | -52.7°C | 0.8% | 42.6hPa | 2.7V | 18:12:15 | 01:31:34 | 00:00:00 | |
| DF8AY | 2026-09-01 00:00:57 | 48.79723 | 10.35596 | 271° | 4km/h | 22060m | 4.8m/s | -52.9°C | 0.9% | 42.7hPa | 2.6V | 18:12:15 | 01:31:31 | 00:00:00 | |
| DG9SBQ-11 | 2026-09-01 00:00:57 | 48.79723 | 10.35597 | 309° | 4km/h | 22055m | 4.9m/s | -53.0°C | 1.2% | 42.7hPa | 2.7V | 00:00:00 | 00:00:00 | 00:00:00 | |
| DM7RM-13 | 2026-09-01 00:00:56 | 48.79723 | 10.35597 | 309° | 4km/h | 22055m | 4.9m/s | -53.0°C | 1.2% | 42.7hPa | 2.7V | 00:00:00 | 00:00:00 | 00:00:00 | |
| OE5DRO-10 | 2026-09-01 00:00:52 | 48.79718 | 10.35595 | 34° | 11km/h | 22039m | 4.4m/s | -53.0°C | 4.4% | 42.8hPa | 2.7V | 00:00:00 | 00:00:00 | 00:00:00 | |
| DO3MHA-11 | 2026-09-01 00:00:51 | 48.79715 | 10.35593 | 32° | 9km/h | 22034m | 5.1m/s | -53.0°C | 4.4% | 42.8hPa | 2.7V | 00:00:00 | 01:31:26 | 00:00:00 | |
| DK7TD | 2026-09-01 00:00:50 | 48.79720 | 10.35597 | 25° | 7km/h | 22043m | 5.7m/s | -53°C | 0.9% | 42.8hPa | 2.7V | 18:12:15 | 01:31:28 | 00:00:00 | |
| OE9MKV-15 | 2026-09-01 00:00:48 | 48.79710 | 10.35589 | 25° | 13km/h | 22023m | 5.0m/s | 0°C | 0% | 0hPa | 2.7V | 00:00:00 | 01:31:24 | 00:00:00 | |
| DG9SBQ-11 | 2026-09-01 00:00:47 | 48.79710 | 10.35588 | 26° | 11km/h | 22023m | 5.1m/s | -53.1°C | 1.2% | 42.9hPa | 2.7V | 00:00:00 | 00:00:00 | 00:00:00 | |
| HSKMA3-T | 2026-09-01 00:00:44 | 48.79708 | 10.35587 | 34° | 11km/h | 22018m | 4.8m/s | -53.1°C | 0.8% | 42.9hPa | 2.7V | 18:12:15 | 01:31:23 | 00:00:00 | |
| DF3TZ-5 | 2026-09-01 00:00:44 | 48.79704 | 10.35580 | 63° | 11km/h | 22006m | 5.6m/s | -53.1°C | 1.2% | 43.0hPa | 2.6V | 00:00:00 | 00:00:00 | 00:00:00 | |
| DF8AY | 2026-09-01 00:00:42 | 48.79702 | 10.35573 | 80° | 9km/h | 21995m | 6.4m/s | -53.1°C | 0.9% | 43.1hPa | 2.6V | 18:12:15 | 01:31:19 | 00:00:00 | |
| DG9SBQ-11 | 2026-09-01 00:00:41 | 48.79702 | 10.35573 | 81° | 9km/h | 21996m | 6.4m/s | -53.1°C | 1.2% | 43.1hPa | 2.7V | 00:00:00 | 00:00:00 | 00:00:00 | |
| OE5WHR-10 | 2026-09-01 00:00:40 | 48.79701 | 10.35569 | 8° | 13km/h | 21985m | 4.6m/s | -53.1°C | 4.3% | 43.1hPa | 2.7V | 00:00:00 | 00:00:00 | 00:00:00 | |
| DK7TD | 2026-09-01 00:00:39 | 48.79701 | 10.35569 | 8° | 4km/h | 21984m | 4.6m/s | -53.2°C | 0.9% | 43.2hPa | 2.7V | 18:12:15 | 01:31:17 | 00:00:00 | |
| BIOWL1-15 | 2026-09-01 00:00:38 | 48.79645 | 10.35521 | 359° | 15km/h | 21863m | 4.8m/s | 0°C | 0% | 0hPa | 2.7V | 18:12:15 | 01:30:55 | 00:00:00 | |
| DO3MHA-11 | 2026-09-01 00:00:38 | 48.79700 | 10.35569 | 359° | 15km/h | 21979m | 5.7m/s | -53.2°C | 4.4% | 43.1hPa | 2.6V | 00:00:00 | 01:31:16 | 00:00:00 | |
| DL1ZP-14 | 2026-09-01 00:00:36 | 48.79693 | 10.35568 | 12° | 15km/h | 21968m | 5.3m/s | -53.2°C | 1.2% | 43.3hPa | 2.6V | 00:00:00 | 00:00:00 | 00:00:00 | |
| SONDE2-11 | 2026-09-01 00:00:35 | 48.79689 | 10.35567 | 16° | 16km/h | 21962m | 5.3m/s | -53.2°C | 1.2% | 43.3hPa | 2.7V | 00:00:00 | 00:00:00 | 00:00:00 | |
| HSKMA3-T | 2026-09-01 00:00:34 | 48.79685 | 10.35565 | 21° | 16km/h | 21957m | 6m/s | -53.2°C | 0.9% | 43.3hPa | 2.7V | 18:12:15 | 01:31:12 | 00:00:00 | |
| DO9HM | 2026-09-01 00:00:33 | 48.79689 | 10.35567 | 17° | 16km/h | 21963m | 5.3m/s | -53.2°C | 1.2% | 43.3hPa | 2.6V | 00:00:00 | 00:00:00 | 00:00:00 | |
| DF7PN | 2026-09-01 00:00:32 | 48.79682 | 10.35563 | 23° | 13km/h | 21951m | 5.4m/s | -53.2°C | 1.2% | 43.4hPa | 2.6V | 00:00:00 | 00:00:00 | 00:00:00 | |
| DF8AY | 2026-09-01 00:00:30 | 48.79666 | 10.35544 | 73° | 9km/h | 21912m | 5m/s | -53.5°C | 0.9% | 43.6hPa | 2.6V | 18:12:15 | 01:31:04 | 00:00:00 | |
| DG9SBQ-11 | 2026-09-01 00:00:30 | 48.79672 | 10.35555 | 30° | 15km/h | 21935m | 5.3m/s | -53.2°C | 1.2% | 43.5hPa | 2.7V | 00:00:00 | 00:00:00 | 00:00:00 | |
| DO3MHA-11 | 2026-09-01 00:00:29 | 48.79668 | 10.35550 | 54° | 11km/h | 21923m | 6.4m/s | -53.2°C | 4.4% | 43.5hPa | 2.7V | 00:00:00 | 01:31:06 | 00:00:00 | |
| DK7TD | 2026-09-01 00:00:28 | 48.79670 | 10.35553 | 37° | 11km/h | 21929m | 5.6m/s | -53.2°C | 0.9% | 43.5hPa | 2.7V | 18:12:15 | 01:31:07 | 00:00:00 | |
| BIOWL9-15 | 2026-09-01 00:00:28 | 48.79663 | 10.35536 | 55° | 13km/h | 21901m | 4.9m/s | -53.6°C | 1.2% | 43.7hPa | 2.7V | 00:00:00 | 00:00:00 | 00:00:00 | |
| DG9SBQ-11 | 2026-09-01 00:00:27 | 48.79663 | 10.35536 | 57° | 15km/h | 21901m | 4.9m/s | -53.6°C | 1.2% | 43.7hPa | 2.7V | 00:00:00 | 00:00:00 | 00:00:00 | |
| DL6DJ-15 | 2026-09-01 00:00:26 | 48.79659 | 10.35527 | 44° | 13km/h | 21891m | 5.6m/s | -53.7°C | 1.3% | 43.8hPa | 2.7V | 00:00:00 | 00:00:00 | 00:00:00 | |
| AZAK | 2026-09-01 00:00:24 | 48.79648 | 10.35521 | 4° | 15km/h | 21868m | 5.9m/s | -53.8°C | 1.2% | 43.9hPa | 2.7V | 00:00:00 | 00:00:00 | 00:00:00 | |
| DO3MHA-11 | 2026-09-01 00:00:23 | 48.79648 | 10.35521 | 4° | 13km/h | 21868m | 5.8m/s | -53.7°C | 4.5% | 43.9hPa | 2.7V | 00:00:00 | 01:30:56 | 00:00:00 | |
| HSKMA3-T | 2026-09-01 00:00:22 | 48.79661 | 10.35531 | 48° | 15km/h | 21896m | 4.3m/s | -53.7°C | 0.9% | 43.8hPa | 2.7V | 18:12:15 | 01:31:01 | 00:00:00 | |
| DF8AY | 2026-09-01 00:00:21 | 48.79622 | 10.35516 | 35° | 11km/h | 21818m | 6.3m/s | -53.5°C | 0.9% | 44.3hPa | 2.6V | 18:12:15 | 01:30:47 | 00:00:00 | |
| DO3MHA-12 | 2026-09-01 00:00:21 | 48.79641 | 10.35521 | 354° | 11km/h | 21858m | 5.9m/s | -53.7°C | 4.6% | 44.0hPa | 2.6V | 00:00:00 | 01:30:54 | 00:00:00 | |
| OE9MKV-15 | 2026-09-01 00:00:19 | 48.79635 | 10.35522 | 349° | 9km/h | 21847m | 4.7m/s | 0°C | 0% | 0hPa | 2.7V | 00:00:00 | 01:30:52 | 00:00:00 | |
| DK7TD | 2026-09-01 00:00:18 | 48.79648 | 10.35521 | 3° | 15km/h | 21868m | 5.9m/s | -53.8°C | 0.9% | 43.9hPa | 2.7V | 18:12:15 | 01:30:56 | 00:00:00 | |
| DF3TZ-5 | 2026-09-01 00:00:18 | 48.79630 | 10.35522 | 15° | 11km/h | 21836m | 6.0m/s | -53.6°C | 1.2% | 44.2hPa | 2.7V | 00:00:00 | 00:00:00 | 00:00:00 | |
| HSKMA3-T | 2026-09-01 00:00:13 | 48.79633 | 10.35523 | 1° | 9km/h | 21841m | 5.6m/s | -53.6°C | 1% | 44.1hPa | 2.7V | 18:12:15 | 01:30:51 | 00:00:00 | |
| OE5DRO-10 | 2026-09-01 00:00:13 | 48.79627 | 10.35521 | 25° | 9km/h | 21830m | 5.2m/s | -53.5°C | 4.5% | 44.2hPa | 2.6V | 00:00:00 | 00:00:00 | 00:00:00 | |
| DF1GD-15 | 2026-09-01 00:00:11 | 48.79627 | 10.35521 | 26° | 13km/h | 21830m | 5.3m/s | -53.6°C | 1.3% | 44.2hPa | 2.7V | 00:00:00 | 00:00:00 | 00:00:00 | |
| DN1GJH-1 | 2026-09-01 00:00:10 | 48.79627 | 10.35521 | 26° | 13km/h | 21830m | 5.3m/s | -53.6°C | 1.3% | 44.2hPa | 2.7V | 00:00:00 | 00:00:00 | 00:00:00 | |
| DM7RM-13 | 2026-09-01 00:00:09 | 48.79625 | 10.35518 | 32° | 13km/h | 21825m | 5.5m/s | -53.5°C | 1.3% | 44.3hPa | 2.7V | 00:00:00 | 00:00:00 | 00:00:00 | |
| DO3MHA-11 | 2026-09-01 00:00:08 | 48.79620 | 10.35514 | 36° | 7km/h | 21813m | 5.1m/s | -53.4°C | 4.4% | 44.3hPa | 2.7V | 00:00:00 | 01:30:46 | 00:00:00 | |
| SONCRA | 2026-09-01 00:00:07 | 48.79618 | 10.35512 | 27° | 9km/h | 21807m | 6.3m/s | -53.4°C | 1.2% | 44.4hPa | 2.7V | 00:00:00 | 00:00:00 | 00:00:00 | |
| DK7TD | 2026-09-01 00:00:06 | 48.79618 | 10.35512 | 28° | 11km/h | 21807m | 6.3m/s | -53.4°C | 0.9% | 44.4hPa | 2.7V | 18:12:15 | 01:30:45 | 00:00:00 | |
| DB0UT-7 | 2026-09-01 00:00:05 | 48.79616 | 10.35510 | 26° | 9km/h | 21801m | 5.4m/s | -53.4°C | 4.4% | 44.4hPa | 2.7V | 00:00:00 | 00:00:00 | 00:00:00 | |
| SONDE2-11 | 2026-09-01 00:00:04 | 48.79611 | 10.35507 | 20° | 7km/h | 21791m | 5.9m/s | -53.6°C | 1.2% | 44.5hPa | 2.7V | 00:00:00 | 00:00:00 | 00:00:00 | |
| HSKMA3-T | 2026-09-01 00:00:02 | 48.79609 | 10.35506 | 355° | 4km/h | 21774m | 6.2m/s | -53.6°C | 0.9% | 44.6hPa | 2.7V | 18:12:15 | 01:30:39 | 00:00:00 | |
| DG9SBQ-11 | 2026-08-31 23:59:58 | 48.79607 | 10.35506 | 358° | 5km/h | 21769m | 5.6m/s | -53.6°C | 1.2% | 44.7hPa | 2.6V | 00:00:00 | 00:00:00 | 00:00:00 | |
| DO3MHA-11 | 2026-08-31 23:59:57 | 48.79606 | 10.35505 | 54° | 9km/h | 21758m | 6.0m/s | -53.5°C | 4.5% | 44.7hPa | 2.6V | 00:00:00 | 01:30:36 | 08:30:00 | |
| DK7TD | 2026-08-31 23:59:56 | 48.79605 | 10.35503 | 80° | 7km/h | 21752m | 5.9m/s | -53.6°C | 0.9% | 44.8hPa | 2.6V | 18:12:15 | 01:30:35 | 00:00:00 | |
| OE5WHR-10 | 2026-08-31 23:59:56 | 48.79605 | 10.35503 | 81° | 11km/h | 21752m | 5.8m/s | -53.5°C | 4.5% | 44.7hPa | 2.6V | 00:00:00 | 00:00:00 | 08:30:00 | |
| DF8AY | 2026-08-31 23:59:55 | 48.79604 | 10.35496 | 69° | 11km/h | 21741m | 6.5m/s | -53.5°C | 0.9% | 0hPa | 2.7V | 18:12:15 | 01:30:33 | 00:00:00 | |
| DB0ND-19 | 2026-08-31 23:59:55 | 48.79605 | 10.35500 | 78° | 9km/h | 21747m | 4.8m/s | -53.5°C | 1.2% | 44.8hPa | 2.6V | 00:00:00 | 00:00:00 | 00:00:00 | |
| DO9HM | 2026-08-31 23:59:54 | 48.79604 | 10.35497 | 70° | 11km/h | 21741m | 6.5m/s | -53.5°C | 1.3% | 44.8hPa | 2.6V | 00:00:00 | 00:00:00 | 00:00:00 | |
| DO3MHA-12 | 2026-08-31 23:59:53 | 48.79603 | 10.35492 | 62° | 11km/h | 21735m | 5.3m/s | -53.4°C | 4.5% | 44.8hPa | 2.6V | 00:00:00 | 01:30:32 | 00:00:00 | |
| NBG1-10 | 2026-08-31 23:59:52 | 48.79601 | 10.35488 | 62° | 11km/h | 21729m | 5.2m/s | -53.4°C | 4.5% | 44.9hPa | 2.6V | 00:00:00 | 01:30:31 | 00:00:00 | |
| OE5DRO-10 | 2026-08-31 23:59:51 | 48.79600 | 10.35483 | 71° | 11km/h | 21724m | 5.9m/s | -53.4°C | 4.5% | 44.9hPa | 2.7V | 00:00:00 | 00:00:00 | 00:00:00 | |
| HSKMA3-T | 2026-08-31 23:59:50 | 48.79599 | 10.35479 | 80° | 11km/h | 21718m | 5.1m/s | -53.5°C | 0.9% | 45hPa | 2.7V | 18:12:15 | 01:30:29 | 00:00:00 | |
| DN1GJH-1 | 2026-08-31 23:59:49 | 48.79599 | 10.35479 | 81° | 11km/h | 21719m | 5.1m/s | -53.5°C | 1.3% | 45.0hPa | 2.7V | 00:00:00 | 00:00:00 | 00:00:00 | |
| DO3MHA-11 | 2026-08-31 23:59:47 | 48.79596 | 10.35470 | 28° | 11km/h | 21703m | 6.1m/s | -53.4°C | 4.5% | 45.0hPa | 2.7V | 00:00:00 | 01:30:26 | 00:00:00 | |
| DB0NH | 2026-08-31 23:59:46 | 48.79594 | 10.35469 | 5° | 13km/h | 21697m | 5.2m/s | -53.4°C | 4.5% | 45.1hPa | 2.7V | 00:00:00 | 01:30:25 | 00:00:00 | |
| DF8AY | 2026-08-31 23:59:45 | 48.79572 | 10.35467 | 27° | 13km/h | 21655m | 6.2m/s | -53.5°C | 0.9% | 0hPa | 2.7V | 18:12:15 | 01:30:17 | 00:00:00 | |
| DK7TD | 2026-08-31 23:59:45 | 48.79591 | 10.35469 | 352° | 11km/h | 21691m | 5.4m/s | -53.5°C | 0.9% | 45.2hPa | 2.6V | 18:12:15 | 01:30:24 | 00:00:00 | |
| PG1ADW-2 | 2026-08-31 23:59:45 | 48.79591 | 10.35469 | 353° | 13km/h | 21692m | 5.4m/s | -53.5°C | 4.5% | 45.1hPa | 2.7V | 00:00:00 | 01:30:24 | 00:00:00 | |
| DH7VM-15 | 2026-08-31 23:59:44 | 48.79591 | 10.35469 | 353° | 9km/h | 21692m | 5.4m/s | -53.5°C | 1.2% | 45.2hPa | 2.7V | 00:00:00 | 00:00:00 | 00:00:00 | |
| DO3MHA-12 | 2026-08-31 23:59:43 | 48.79587 | 10.35471 | 349° | 11km/h | 21681m | 4.4m/s | -53.5°C | 4.6% | 45.2hPa | 2.7V | 00:00:00 | 01:30:22 | 08:30:00 | |
| OE9MKV-15 | 2026-08-31 23:59:41 | 48.79582 | 10.35471 | 3° | 15km/h | 21671m | 6.1m/s | 0°C | 0% | 0hPa | 2.7V | 00:00:00 | 01:30:20 | 00:00:00 | |
| HSKMA3-T | 2026-08-31 23:59:40 | 48.79575 | 10.35469 | 17° | 15km/h | 21660m | 4.4m/s | -53.6°C | 1% | 45.4hPa | 2.7V | 18:12:15 | 01:30:18 | 00:00:00 | |
| OE5DXL-15 | 2026-08-31 23:59:39 | 48.79575 | 10.35469 | 17° | 13km/h | 21661m | 4.4m/s | -53.5°C | 4.5% | 45.4hPa | 2.7V | 00:00:00 | 00:00:00 | 08:30:00 | |
| DO3MHA-11 | 2026-08-31 23:59:37 | 48.79570 | 10.35465 | 44° | 13km/h | 21650m | 5.2m/s | -53.5°C | 4.5% | 45.4hPa | 2.6V | 00:00:00 | 01:30:16 | 00:00:00 | |
| OE5WHR-10 | 2026-08-31 23:59:35 | 48.79566 | 10.35459 | 49° | 15km/h | 21640m | 5.2m/s | -53.5°C | 4.5% | 45.5hPa | 2.6V | 00:00:00 | 00:00:00 | 00:00:00 | |
| DK7TD | 2026-08-31 23:59:34 | 48.79564 | 10.35456 | 38° | 13km/h | 21634m | 6.1m/s | -53.5°C | 1% | 45.6hPa | 2.6V | 18:12:15 | 01:30:13 | 00:00:00 | |
| DG9SBQ-11 | 2026-08-31 23:59:34 | 48.79567 | 10.35460 | 50° | 11km/h | 21640m | 5.2m/s | -53.5°C | 1.2% | 45.5hPa | 2.7V | 00:00:00 | 00:00:00 | 00:00:00 | |
| DO9HM | 2026-08-31 23:59:33 | 48.79561 | 10.35454 | 25° | 15km/h | 21629m | 5.0m/s | -53.5°C | 1.3% | 45.6hPa | 2.7V | 00:00:00 | 00:00:00 | 00:00:00 | |
| DB0UT-7 | 2026-08-31 23:59:32 | 48.79558 | 10.35452 | 12° | 13km/h | 21624m | 4.7m/s | -53.5°C | 4.5% | 45.6hPa | 2.7V | 00:00:00 | 01:30:11 | 08:30:00 | |
| DF8AY | 2026-08-31 23:59:31 | 48.79554 | 10.35451 | 3° | 15km/h | 21619m | 5.7m/s | 0°C | 0% | 0hPa | 2.6V | 18:12:15 | 01:30:10 | 00:00:00 | |
| HSKMA3-T | 2026-08-31 23:59:30 | 48.79547 | 10.35452 | 344° | 13km/h | 21608m | 5.1m/s | -53.5°C | 0.9% | 45.8hPa | 2.6V | 18:12:15 | 01:30:08 | 00:00:00 | |
| DG9SBQ-11 | 2026-08-31 23:59:29 | 48.79547 | 10.35452 | 344° | 13km/h | 21608m | 5.1m/s | -53.5°C | 1.2% | 45.8hPa | 2.7V | 00:00:00 | 00:00:00 | 00:00:00 | |
| DN1GJH-1 | 2026-08-31 23:59:28 | 48.79547 | 10.35452 | 344° | 13km/h | 21608m | 5.1m/s | -53.5°C | 1.3% | 45.8hPa | 2.7V | 00:00:00 | 00:00:00 | 00:00:00 | |
| DO3MHA-11 | 2026-08-31 23:59:27 | 48.79540 | 10.35456 | 345° | 13km/h | 21598m | 5.8m/s | -53.6°C | 4.5% | 45.8hPa | 2.7V | 00:00:00 | 01:30:06 | 00:00:00 | |
| DM7RM-13 | 2026-08-31 23:59:26 | 48.79540 | 10.35456 | 345° | 15km/h | 21598m | 5.9m/s | -53.6°C | 1.3% | 45.8hPa | 2.6V | 00:00:00 | 00:00:00 | 00:00:00 | |
| PG1ADW-2 | 2026-08-31 23:59:25 | 48.79534 | 10.35458 | 355° | 13km/h | 21588m | 5.4m/s | -53.6°C | 4.6% | 45.9hPa | 2.6V | 00:00:00 | 00:00:00 | 00:00:00 | |
| DB0ND-19 | 2026-08-31 23:59:24 | 48.79531 | 10.35458 | 0° | 9km/h | 21582m | 6.2m/s | -53.6°C | 1.3% | 46.0hPa | 2.6V | 00:00:00 | 00:00:00 | 00:00:00 | |
| DK7TD | 2026-08-31 23:59:23 | 48.79529 | 10.35458 | 5° | 7km/h | 21576m | 5m/s | -53.6°C | 1% | 46hPa | 2.6V | 18:12:15 | 01:30:02 | 00:00:00 | |
| DO3MHA-12 | 2026-08-31 23:59:23 | 48.79529 | 10.35458 | 6° | 15km/h | 21576m | 5.0m/s | -53.6°C | 4.5% | 45.9hPa | 2.6V | 00:00:00 | 01:30:02 | 00:00:00 | |
| DG9SBQ-11 | 2026-08-31 23:59:22 | 48.79529 | 10.35458 | 6° | 7km/h | 21576m | 5.0m/s | -53.6°C | 1.3% | 46.0hPa | 2.6V | 00:00:00 | 00:00:00 | 00:00:00 | |
| BIOWL9-15 | 2026-08-31 23:59:21 | 48.79493 | 10.35516 | 275° | 9km/h | 21487m | 5.9m/s | 0°C | -1.0% | 46.6hPa | 2.6V | 00:00:00 | 00:00:00 | 00:00:00 | |
| HSKMA3-T | 2026-08-31 23:59:19 | 48.79518 | 10.35462 | 323° | 18km/h | 21556m | 4.2m/s | -53.7°C | 1% | 46.1hPa | 2.6V | 18:12:15 | 01:29:58 | 00:00:00 | |
| NBG1-10 | 2026-08-31 23:59:19 | 48.79518 | 10.35462 | 323° | 15km/h | 21556m | 4.1m/s | -53.7°C | 4.6% | 46.1hPa | 2.6V | 00:00:00 | 01:29:58 | 00:00:00 | |
| DO3MHA-11 | 2026-08-31 23:59:17 | 48.79512 | 10.35472 | 307° | 13km/h | 21546m | 5.3m/s | -53.6°C | 4.5% | 46.2hPa | 2.6V | 00:00:00 | 01:29:56 | 00:00:00 | |
| AZAK | 2026-08-31 23:59:16 | 48.79506 | 10.35484 | 314° | 18km/h | 21535m | 5.8m/s | -53.6°C | 1.3% | 46.3hPa | 2.6V | 00:00:00 | 00:00:00 | 00:00:00 | |
| OE3JTB-15 | 2026-08-31 23:59:15 | 48.79506 | 10.35484 | 314° | 16km/h | 21535m | 5.8m/s | -53.6°C | 4.6% | 46.2hPa | 2.6V | 00:00:00 | 00:00:00 | 00:00:00 | |
| OE5WHR-10 | 2026-08-31 23:59:14 | 48.79503 | 10.35488 | 316° | 13km/h | 21530m | 4.3m/s | -53.5°C | 4.6% | 46.3hPa | 2.6V | 00:00:00 | 01:29:53 | 00:00:00 | |
| DO3MHA-12 | 2026-08-31 23:59:13 | 48.79500 | 10.35493 | 312° | 11km/h | 21525m | 5.2m/s | -53.5°C | 4.5% | 46.3hPa | 2.6V | 00:00:00 | 01:29:52 | 00:00:00 | |
| DK7TD | 2026-08-31 23:59:12 | 48.79498 | 10.35497 | 299° | 13km/h | 21519m | 6.5m/s | -53.5°C | 1% | 46.4hPa | 2.6V | 18:12:15 | 01:29:51 | 00:00:00 | |
| HSKMA3-T | 2026-08-31 23:59:09 | 48.79496 | 10.35508 | 296° | 7km/h | 21502m | 6.1m/s | -53.5°C | 1% | 46.5hPa | 2.6V | 18:12:15 | 01:29:48 | 00:00:00 | |
| OE5DXL-15 | 2026-08-31 23:59:09 | 48.79495 | 10.35508 | 296° | 13km/h | 21503m | 6.1m/s | -53.5°C | 4.6% | 46.5hPa | 2.6V | 00:00:00 | 00:00:00 | 00:00:00 | |
| DO3MHA-11 | 2026-08-31 23:59:07 | 48.79494 | 10.35512 | 289° | 15km/h | 21493m | 4.7m/s | -53.4°C | 4.6% | 46.6hPa | 2.6V | 00:00:00 | 01:29:46 | 00:00:00 | |
| DG9SBQ-11 | 2026-08-31 23:59:06 | 48.79493 | 10.35516 | 276° | 9km/h | 21487m | 5.9m/s | -53.4°C | 1.3% | 46.6hPa | 2.6V | 00:00:00 | 00:00:00 | 00:00:00 | |
| DK5PH-5 | 2026-08-31 23:59:05 | 48.79493 | 10.35520 | 273° | 15km/h | 21482m | 4.9m/s | -53.4°C | 4.6% | 46.6hPa | 2.6V | 00:00:00 | 01:29:44 | 00:00:00 | |
| SONCRA | 2026-08-31 23:59:04 | 48.79493 | 10.35526 | 278° | 15km/h | 21477m | 4.9m/s | -53.4°C | 1.3% | 46.7hPa | 2.6V | 00:00:00 | 00:00:00 | 00:00:00 | |
| DO3MHA-12 | 2026-08-31 23:59:03 | 48.79492 | 10.35532 | 288° | 13km/h | 21472m | 5.6m/s | -53.3°C | 4.6% | 46.7hPa | 2.6V | 00:00:00 | 01:29:42 | 00:00:00 | |
| DK7TD | 2026-08-31 23:59:02 | 48.79490 | 10.35539 | 294° | 20km/h | 21467m | 4.5m/s | -53.3°C | 1% | 46.8hPa | 2.6V | 18:12:15 | 01:29:41 | 00:00:00 | |
| DB0UT-7 | 2026-08-31 23:59:02 | 48.79490 | 10.35539 | 294° | 15km/h | 21467m | 4.4m/s | -53.3°C | 4.6% | 46.7hPa | 2.6V | 00:00:00 | 00:00:00 | 00:00:00 | |
| HSKMA3-T | 2026-08-31 23:58:59 | 48.79485 | 10.35565 | 276° | 13km/h | 21448m | 4.6m/s | -53.2°C | 0.9% | 46.9hPa | 2.6V | 18:12:15 | 01:29:37 | 00:00:00 | |
| DK7TD | 2026-08-31 23:58:51 | 48.79487 | 10.35587 | 263° | 13km/h | 21413m | 5.8m/s | -53°C | 1% | 47.2hPa | 2.6V | 18:12:15 | 01:29:30 | 00:00:00 | |
| HSKMA3-T | 2026-08-31 23:58:48 | 48.79485 | 10.35606 | 281° | 18km/h | 21398m | 5.6m/s | -52.9°C | 0.9% | 47.3hPa | 2.7V | 18:12:15 | 01:29:27 | 00:00:00 | |
| DL6DJ-15 | 2026-08-31 23:58:48 | 48.79485 | 10.35606 | 281° | 16km/h | 21398m | 5.6m/s | -52.9°C | 1.2% | 47.3hPa | 2.7V | 00:00:00 | 00:00:00 | 00:00:00 | |
| DO3MHA-11 | 2026-08-31 23:58:47 | 48.79485 | 10.35613 | 276° | 15km/h | 21393m | 5.1m/s | -52.8°C | 4.5% | 47.3hPa | 2.7V | 00:00:00 | 01:29:26 | 00:00:00 | |
| NBG1-10 | 2026-08-31 23:58:46 | 48.79484 | 10.35619 | 271° | 16km/h | 21388m | 4.3m/s | -52.7°C | 4.4% | 47.3hPa | 2.7V | 00:00:00 | 01:29:25 | 00:00:00 | |
| PG1ADW-2 | 2026-08-31 23:58:45 | 48.79484 | 10.35625 | 273° | 15km/h | 21384m | 4.3m/s | -52.7°C | 4.4% | 47.3hPa | 2.7V | 00:00:00 | 00:00:00 | 00:00:00 | |
| DO3MHA-12 | 2026-08-31 23:58:43 | 48.79483 | 10.35637 | 281° | 15km/h | 21373m | 4.5m/s | -52.6°C | 4.4% | 47.4hPa | 2.7V | 00:00:00 | 01:29:22 | 00:00:00 | |
| DM0DOS-11 | 2026-08-31 23:58:42 | 48.79486 | 10.35667 | 270° | 15km/h | 21345m | 5.2m/s | -52.5°C | 4.3% | 47.7hPa | 2.7V | 08:30:00 | 01:29:16 | 00:00:00 | |
| DK7TD | 2026-08-31 23:58:40 | 48.79484 | 10.35652 | 247° | 13km/h | 21359m | 4.6m/s | -52.6°C | 0.8% | 47.6hPa | 2.6V | 18:12:15 | 01:29:19 | 00:00:00 | |
| HSKMA3-T | 2026-08-31 23:58:38 | 48.79486 | 10.35667 | 270° | 15km/h | 21345m | 5.2m/s | -52.5°C | 0.8% | 47.7hPa | 2.7V | 18:12:15 | 01:29:16 | 00:00:00 | |
| DK7TD | 2026-08-31 23:58:29 | 48.79481 | 10.35717 | 279° | 16km/h | 21305m | 4.7m/s | -52.4°C | 0.9% | 48hPa | 2.6V | 18:12:15 | 01:29:08 | 00:00:00 | |
| DF8AY | 2026-08-31 23:58:29 | 48.79482 | 10.35728 | 244° | 15km/h | 21295m | 4.8m/s | 0°C | 0% | 0hPa | 2.7V | 18:12:15 | 01:29:06 | 00:00:00 | |
| HSKMA3-T | 2026-08-31 23:58:26 | 48.79484 | 10.35733 | 237° | 15km/h | 21290m | 4.3m/s | -52.4°C | 0.8% | 48.1hPa | 2.7V | 18:12:15 | 01:29:05 | 00:00:00 | |
| DK7TD | 2026-08-31 23:58:18 | 48.79496 | 10.35777 | 267° | 16km/h | 21250m | 5.7m/s | -52.3°C | 0.8% | 48.4hPa | 2.6V | 18:12:15 | 01:28:57 | 00:00:00 | |
| HSKMA3-T | 2026-08-31 23:58:15 | 48.79496 | 10.35798 | 263° | 18km/h | 21236m | 5.9m/s | -52.3°C | 0.8% | 48.5hPa | 2.6V | 18:12:15 | 01:28:54 | 00:00:00 | |
| DF8AY | 2026-08-31 23:58:13 | 48.79499 | 10.35811 | 239° | 16km/h | 21226m | 4.5m/s | 0°C | 0% | 0hPa | 2.6V | 18:12:15 | 01:28:52 | 00:00:00 | |
| DK7TD | 2026-08-31 23:58:08 | 48.79512 | 10.35832 | 221° | 20km/h | 21201m | 5m/s | -52.2°C | 0.9% | 48.8hPa | 2.6V | 18:12:15 | 01:28:47 | 00:00:00 | |
| HSKMA3-T | 2026-08-31 23:58:04 | 48.79525 | 10.35853 | 235° | 16km/h | 21181m | 3.9m/s | -52.3°C | 0.9% | 48.9hPa | 2.6V | 18:12:15 | 01:28:43 | 00:00:00 | |
| DK7TD | 2026-08-31 23:57:57 | 48.79538 | 10.35886 | 228° | 13km/h | 21147m | 5.8m/s | -52.4°C | 0.8% | 49.1hPa | 2.6V | 18:12:15 | 01:28:36 | 00:00:00 | |
| HSKMA3-T | 2026-08-31 23:57:54 | 48.79548 | 10.35897 | 206° | 15km/h | 21132m | 6m/s | -52.2°C | 0.8% | 49.3hPa | 2.7V | 18:12:15 | 01:28:33 | 00:00:00 | |
| DF8AY | 2026-08-31 23:57:49 | 48.79566 | 10.35907 | 208° | 18km/h | 21108m | 4.5m/s | 0°C | 0% | 0hPa | 2.7V | 18:12:15 | 01:28:28 | 00:00:00 | |
| DM0DOS-11 | 2026-08-31 23:57:47 | 48.79577 | 10.35916 | 177° | 5km/h | 21083m | 5.9m/s | -51.8°C | 4.1% | 49.6hPa | 2.7V | 08:30:00 | 01:28:23 | 00:00:00 | |
| DK7TD | 2026-08-31 23:57:46 | 48.79575 | 10.35915 | 211° | 7km/h | 21093m | 4.8m/s | -51.9°C | 0.7% | 49.6hPa | 2.6V | 18:12:15 | 01:28:25 | 00:00:00 | |
| DL6DJ-15 | 2026-08-31 23:57:46 | 48.79576 | 10.35916 | 192° | 4km/h | 21089m | 4.8m/s | -51.9°C | 1.1% | 49.6hPa | 2.7V | 00:00:00 | 00:00:00 | 00:00:00 | |
| HSKMA3-T | 2026-08-31 23:57:43 | 48.79579 | 10.35915 | 167° | 9km/h | 21078m | 4.7m/s | -51.8°C | 0.7% | 49.7hPa | 2.7V | 18:12:15 | 01:28:22 | 00:00:00 | |
| DF8AY | 2026-08-31 23:57:37 | 48.79619 | 10.35921 | 138° | 15km/h | 21014m | 5.8m/s | 0°C | 0% | 0hPa | 2.6V | 18:12:15 | 01:28:09 | 00:00:00 | |
| DM0DOS-11 | 2026-08-31 23:57:37 | 48.79609 | 10.35922 | 216° | 16km/h | 21034m | 5.3m/s | -52°C | 4.1% | 50hPa | 2.6V | 08:30:00 | 01:28:13 | 00:00:00 | |
| DK7TD | 2026-08-31 23:57:37 | 48.79601 | 10.35913 | 213° | 22km/h | 21043m | 3.9m/s | -52°C | 0.7% | 49.9hPa | 2.6V | 18:12:15 | 01:28:15 | 00:00:00 | |
| HSKMA3-T | 2026-08-31 23:57:33 | 48.79615 | 10.35926 | 172° | 7km/h | 21024m | 4.7m/s | -52.1°C | 0.8% | 50.1hPa | 2.7V | 18:12:15 | 01:28:11 | 00:00:00 | |
| DK7TD | 2026-08-31 23:57:26 | 48.79631 | 10.35906 | 142° | 9km/h | 20995m | 5.5m/s | -52.4°C | 0.7% | 50.3hPa | 2.7V | 18:12:15 | 01:28:05 | 00:00:00 | |
| HSKMA3-T | 2026-08-31 23:57:22 | 48.79636 | 10.35905 | 195° | 5km/h | 20974m | 4.7m/s | -52.5°C | 0.8% | 50.5hPa | 2.7V | 18:12:15 | 01:28:01 | 00:00:00 | |
| DF8AY | 2026-08-31 23:57:22 | 48.79639 | 10.35905 | 124° | 5km/h | 20964m | 5m/s | 0°C | 0% | 0hPa | 2.6V | 18:12:15 | 01:27:59 | 00:00:00 | |
| DK7TD | 2026-08-31 23:57:15 | 48.79647 | 10.35879 | 110° | 20km/h | 20937m | 5.4m/s | -52.7°C | 0.9% | 50.8hPa | 2.6V | 18:12:15 | 01:27:54 | 00:00:00 | |
| HSKMA3-T | 2026-08-31 23:57:12 | 48.79656 | 10.35857 | 144° | 16km/h | 20918m | 5.1m/s | -52.7°C | 0.8% | 50.9hPa | 2.7V | 18:12:15 | 01:27:50 | 00:00:00 | |
| BIOWL1-15 | 2026-08-31 23:57:11 | 48.79670 | 10.35846 | 154° | 13km/h | 20891m | 5.8m/s | -52.8°C | 0.8% | 51.1hPa | 2.7V | 18:12:15 | 01:27:45 | 00:00:00 | |
| DF8AY | 2026-08-31 23:57:10 | 48.79659 | 10.35854 | 151° | 15km/h | 20913m | 4.7m/s | 0°C | 0% | 0hPa | 2.7V | 18:12:15 | 01:27:49 | 00:00:00 | |
| DK7TD | 2026-08-31 23:57:06 | 48.79673 | 10.35843 | 148° | 16km/h | 20886m | 4.5m/s | -52.8°C | 0.8% | 51.1hPa | 2.7V | 18:12:15 | 01:27:44 | 00:00:00 | |
| BIOWL1-15 | 2026-08-31 23:57:02 | 48.79687 | 10.35817 | 122° | 20km/h | 20860m | 6.2m/s | -52.9°C | 0.9% | 51.4hPa | 2.7V | 18:12:15 | 01:27:39 | 00:00:00 | |
| HSKMA3-T | 2026-08-31 23:57:01 | 48.79684 | 10.35823 | 118° | 20km/h | 20866m | 4.7m/s | -52.9°C | 0.8% | 51.3hPa | 2.6V | 18:12:15 | 01:27:40 | 00:00:00 | |
| DM7RM-13 | 2026-08-31 23:57:01 | 48.79682 | 10.35829 | 122° | 18km/h | 20871m | 5.5m/s | -52.9°C | 1.3% | 51.3hPa | 2.6V | 00:00:00 | 00:00:00 | 00:00:00 | |
| SONCRA | 2026-08-31 23:57:00 | 48.79690 | 10.35810 | 123° | 18km/h | 20855m | 4.7m/s | -52.9°C | 1.2% | 51.4hPa | 2.6V | 00:00:00 | 00:00:00 | 00:00:00 | |
| DM0DOS-11 | 2026-08-31 23:56:58 | 48.79694 | 10.35798 | 113° | 18km/h | 20845m | 5.9m/s | -52.9°C | 4.3% | 51.5hPa | 2.6V | 08:30:00 | 01:27:36 | 00:00:00 | |
| DK7TD | 2026-08-31 23:56:55 | 48.79697 | 10.35787 | 115° | 15km/h | 20834m | 5.2m/s | -53°C | 0.9% | 51.6hPa | 2.7V | 18:12:15 | 01:27:34 | 00:00:00 | |
| HSKMA3-T | 2026-08-31 23:56:51 | 48.79705 | 10.35771 | 126° | 13km/h | 20814m | 5.5m/s | -52.9°C | 0.8% | 51.8hPa | 2.6V | 18:12:15 | 01:27:30 | 00:00:00 | |
| BIOWL1-15 | 2026-08-31 23:56:45 | 48.79719 | 10.35746 | 121° | 16km/h | 20783m | 6.3m/s | -53°C | 0.9% | 52hPa | 2.6V | 18:12:15 | 01:27:24 | 00:00:00 | |
| DK7TD | 2026-08-31 23:56:44 | 48.79721 | 10.35740 | 114° | 18km/h | 20777m | 5m/s | -53°C | 0.8% | 52hPa | 2.7V | 18:12:15 | 01:27:23 | 00:00:00 | |
| HSKMA3-T | 2026-08-31 23:56:40 | 48.79729 | 10.35718 | 125° | 15km/h | 20757m | 4m/s | -52.9°C | 0.8% | 52.2hPa | 2.6V | 18:12:15 | 01:27:19 | 00:00:00 | |
| DK7TD | 2026-08-31 23:56:34 | 48.79739 | 10.35683 | 115° | 22km/h | 20725m | 4.2m/s | -52.9°C | 0.8% | 52.5hPa | 2.6V | 18:12:15 | 01:27:13 | 00:00:00 | |
| DO3MHA-12 | 2026-08-31 23:56:33 | 48.79741 | 10.35675 | 110° | 18km/h | 20721m | 4.9m/s | -52.9°C | 4.3% | 52.4hPa | 2.6V | 00:00:00 | 01:27:12 | 00:00:00 | |
| AZAK | 2026-08-31 23:56:32 | 48.79743 | 10.35659 | 95° | 20km/h | 20710m | 5.5m/s | -52.9°C | 1.2% | 52.6hPa | 2.6V | 00:00:00 | 00:00:00 | 00:00:00 | |
| DM0DOS-11 | 2026-08-31 23:56:31 | 48.79741 | 10.35625 | 65° | 16km/h | 20683m | 4.8m/s | -53°C | 4.3% | 52.8hPa | 2.6V | 08:30:00 | 01:27:05 | 00:00:00 | |
| HSKMA3-T | 2026-08-31 23:56:31 | 48.79744 | 10.35651 | 92° | 20km/h | 20704m | 6.1m/s | -52.9°C | 0.8% | 52.6hPa | 2.6V | 18:12:15 | 01:27:09 | 00:00:00 | |
| DK7TD | 2026-08-31 23:56:23 | 48.79738 | 10.35604 | 101° | 22km/h | 20668m | 5.4m/s | -53.2°C | 0.8% | 52.9hPa | 2.6V | 18:12:15 | 01:27:02 | 00:00:00 | |
| BIOWL1-15 | 2026-08-31 23:56:23 | 48.79742 | 10.35585 | 108° | 29km/h | 20658m | 5.4m/s | -53.3°C | 0.9% | 53hPa | 2.7V | 18:12:15 | 01:27:00 | 00:00:00 | |
| HSKMA3-T | 2026-08-31 23:56:20 | 48.79744 | 10.35574 | 104° | 29km/h | 20652m | 5.2m/s | -53.4°C | 0.8% | 53.1hPa | 2.6V | 18:12:15 | 01:26:59 | 00:00:00 | |
| DK7TD | 2026-08-31 23:56:12 | 48.79750 | 10.35503 | 75° | 24km/h | 20611m | 4.6m/s | -53.8°C | 0.9% | 53.4hPa | 2.7V | 18:12:15 | 01:26:51 | 00:00:00 | |
| HSKMA3-T | 2026-08-31 23:56:09 | 48.79745 | 10.35478 | 71° | 24km/h | 20595m | 5.9m/s | -53.8°C | 1% | 53.5hPa | 2.6V | 18:12:15 | 01:26:48 | 00:00:00 | |
| DK7TD | 2026-08-31 23:56:03 | 48.79735 | 10.35423 | 71° | 16km/h | 20557m | 4.4m/s | -54°C | 1% | 53.8hPa | 2.6V | 18:12:15 | 01:26:41 | 00:00:00 | |
| HSKMA3-T | 2026-08-31 23:55:59 | 48.79733 | 10.35408 | 92° | 11km/h | 20542m | 4.8m/s | -54.2°C | 1% | 54hPa | 2.6V | 18:12:15 | 01:26:38 | 00:00:00 | |
| DK7TD | 2026-08-31 23:55:52 | 48.79720 | 10.35380 | 49° | 15km/h | 20506m | 4.8m/s | -54.3°C | 1% | 54.3hPa | 2.6V | 18:12:15 | 01:26:31 | 00:00:00 | |
| HSKMA3-T | 2026-08-31 23:55:49 | 48.79712 | 10.35369 | 33° | 15km/h | 20490m | 4.7m/s | -54.2°C | 1% | 54.4hPa | 2.7V | 18:12:15 | 01:26:28 | 00:00:00 | |
| DM0DOS-11 | 2026-08-31 23:55:48 | 48.79704 | 10.35364 | 320° | 4km/h | 20470m | 4.5m/s | -54.1°C | 4.7% | 54.6hPa | 2.7V | 08:30:00 | 01:26:24 | 00:00:00 | |
| DB0ND-19 | 2026-08-31 23:55:47 | 48.79705 | 10.35363 | 5° | 4km/h | 20475m | 5.5m/s | -54.1°C | 1.3% | 54.5hPa | 2.6V | 00:00:00 | 00:00:00 | 00:00:00 | |
| DK7TD | 2026-08-31 23:55:41 | 48.79699 | 10.35373 | 304° | 7km/h | 20450m | 4.9m/s | -53.9°C | 1% | 54.8hPa | 2.6V | 18:12:15 | 01:26:20 | 00:00:00 | |
| HSKMA3-T | 2026-08-31 23:55:39 | 48.79698 | 10.35376 | 90° | 0km/h | 20440m | 5m/s | -53.8°C | 1% | 54.8hPa | 2.7V | 18:12:15 | 01:26:18 | 00:00:00 | |
| BIOWL1-15 | 2026-08-31 23:55:35 | 48.79695 | 10.35367 | 46° | 11km/h | 20419m | 4.3m/s | -53.7°C | 1% | 55hPa | 2.6V | 18:12:15 | 01:26:14 | 00:00:00 | |
| DK7TD | 2026-08-31 23:55:31 | 48.79691 | 10.35360 | 173° | 2km/h | 20399m | 4.6m/s | -53.6°C | 0.9% | 55.2hPa | 2.6V | 18:12:15 | 01:26:10 | 00:00:00 | |
| HSKMA3-T | 2026-08-31 23:55:28 | 48.79691 | 10.35363 | 286° | 5km/h | 20384m | 4.6m/s | -53.5°C | 0.9% | 55.3hPa | 2.7V | 18:12:15 | 01:26:07 | 00:00:00 | |
| BIOWL1-15 | 2026-08-31 23:55:26 | 48.79691 | 10.35369 | 315° | 2km/h | 20363m | 5.7m/s | -53.5°C | 0.8% | 55.5hPa | 2.6V | 18:12:15 | 01:26:03 | 00:00:00 | |
| DK7TD | 2026-08-31 23:55:20 | 48.79688 | 10.35368 | 86° | 2km/h | 20343m | 5.6m/s | -53.4°C | 0.9% | 55.7hPa | 2.6V | 18:12:15 | 01:25:59 | 00:00:00 | |
| HSKMA3-T | 2026-08-31 23:55:18 | 48.79689 | 10.35368 | 219° | 2km/h | 20332m | 5.9m/s | -53.4°C | 0.9% | 55.8hPa | 2.7V | 18:12:15 | 01:25:57 | 00:00:00 | |
| BIOWL1-15 | 2026-08-31 23:55:16 | 48.79691 | 10.35371 | 199° | 5km/h | 20313m | 5.6m/s | -53.5°C | 0.9% | 55.9hPa | 2.6V | 18:12:15 | 01:25:53 | 00:00:00 | |
| DK7TD | 2026-08-31 23:55:09 | 48.79693 | 10.35373 | 344° | 4km/h | 20288m | 4.6m/s | -53.4°C | 0.9% | 56.2hPa | 2.6V | 18:12:15 | 01:25:48 | 00:00:00 | |
| HSKMA3-T | 2026-08-31 23:55:07 | 48.79691 | 10.35373 | 81° | 2km/h | 20277m | 5.1m/s | -53.4°C | 0.9% | 56.2hPa | 2.7V | 18:12:15 | 01:25:46 | 00:00:00 | |
| BIOWL1-15 | 2026-08-31 23:55:04 | 48.79695 | 10.35358 | 124° | 9km/h | 20242m | 4.1m/s | -53.3°C | 0.8% | 56.5hPa | 2.7V | 18:12:15 | 01:25:39 | 00:00:00 | |
| DK7TD | 2026-08-31 23:54:59 | 48.79696 | 10.35352 | 84° | 9km/h | 20232m | 5.3m/s | -53.2°C | 0.9% | 56.6hPa | 2.6V | 18:12:15 | 01:25:37 | 00:00:00 | |
| HSKMA3-T | 2026-08-31 23:54:57 | 48.79695 | 10.35344 | 81° | 11km/h | 20222m | 5.5m/s | -53.2°C | 0.9% | 56.7hPa | 2.7V | 18:12:15 | 01:25:35 | 00:00:00 | |
| BIOWL1-15 | 2026-08-31 23:54:52 | 48.79693 | 10.35318 | 78° | 16km/h | 20195m | 5m/s | -53.1°C | 0.8% | 0hPa | 2.7V | 18:12:15 | 01:25:30 | 00:00:00 | |
| DK7TD | 2026-08-31 23:54:48 | 48.79692 | 10.35303 | 97° | 11km/h | 20180m | 3.9m/s | -53.1°C | 0.8% | 57.1hPa | 2.6V | 18:12:15 | 01:25:27 | 00:00:00 | |
| HSKMA3-T | 2026-08-31 23:54:46 | 48.79692 | 10.35295 | 78° | 11km/h | 20170m | 5.8m/s | -53°C | 0.8% | 57.2hPa | 2.6V | 18:12:15 | 01:25:25 | 00:00:00 | |
| DB0ND-19 | 2026-08-31 23:54:45 | 48.79690 | 10.35285 | 76° | 13km/h | 20159m | 5.9m/s | -53.2°C | 1.2% | 57.3hPa | 2.6V | 00:00:00 | 00:00:00 | 00:00:00 | |
| DK7TD | 2026-08-31 23:54:38 | 48.79681 | 10.35243 | 77° | 24km/h | 20127m | 5.4m/s | -53.2°C | 0.9% | 57.6hPa | 2.6V | 18:12:15 | 01:25:17 | 00:00:00 | |
| BIOWL1-15 | 2026-08-31 23:54:36 | 48.79675 | 10.35204 | 74° | 26km/h | 20107m | 4.9m/s | -53.1°C | 0.9% | 0hPa | 2.7V | 18:12:15 | 01:25:13 | 00:00:00 | |
| HSKMA3-T | 2026-08-31 23:54:36 | 48.79678 | 10.35224 | 79° | 26km/h | 20118m | 4.6m/s | -53.1°C | 0.9% | 57.6hPa | 2.6V | 18:12:15 | 01:25:15 | 00:00:00 | |
| DK7TD | 2026-08-31 23:54:28 | 48.79659 | 10.35148 | 62° | 24km/h | 20069m | 5.6m/s | -53°C | 0.8% | 58.1hPa | 2.6V | 18:12:15 | 01:25:06 | 00:00:00 | |
| HSKMA3-T | 2026-08-31 23:54:26 | 48.79655 | 10.35131 | 75° | 24km/h | 20059m | 4.3m/s | -52.9°C | 0.8% | 58.2hPa | 2.6V | 18:12:15 | 01:25:04 | 00:00:00 | |
| DK7TD | 2026-08-31 23:54:17 | 48.79648 | 10.35061 | 76° | 16km/h | 20017m | 5m/s | -52.9°C | 0.9% | 58.5hPa | 2.7V | 18:12:15 | 01:24:56 | 00:00:00 | |
| HSKMA3-T | 2026-08-31 23:54:15 | 48.79645 | 10.35050 | 72° | 15km/h | 20007m | 5.9m/s | -52.9°C | 0.8% | 58.6hPa | 2.6V | 18:12:15 | 01:24:54 | 00:00:00 | |
| DK7TD | 2026-08-31 23:54:06 | 48.79642 | 10.34987 | 96° | 20km/h | 19963m | 4.9m/s | -52.8°C | 0.8% | 59.1hPa | 2.6V | 18:12:15 | 01:24:45 | 00:00:00 | |
| HSKMA3-T | 2026-08-31 23:54:04 | 48.79642 | 10.34974 | 82° | 16km/h | 19953m | 4.4m/s | -52.8°C | 0.7% | 59.1hPa | 2.6V | 18:12:15 | 01:24:43 | 00:00:00 | |
| DK7TD | 2026-08-31 23:53:55 | 48.79631 | 10.34942 | 65° | 11km/h | 19909m | 4.5m/s | -52.9°C | 0.8% | 59.5hPa | 2.6V | 18:12:15 | 01:24:34 | 00:00:00 | |
| HSKMA3-T | 2026-08-31 23:53:53 | 48.79629 | 10.34935 | 67° | 9km/h | 19899m | 4.6m/s | -52.9°C | 0.8% | 59.6hPa | 2.6V | 18:12:15 | 01:24:32 | 00:00:00 | |
| DK7TD | 2026-08-31 23:53:44 | 48.79631 | 10.34906 | 81° | 11km/h | 19854m | 4.2m/s | -53°C | 0.8% | 60.1hPa | 2.6V | 18:12:15 | 01:24:23 | 00:00:00 | |
| BIOWL1-15 | 2026-08-31 23:53:43 | 48.79627 | 10.34889 | 84° | 11km/h | 19835m | 5.9m/s | -53°C | 0.8% | 0hPa | 2.7V | 18:12:15 | 01:24:19 | 00:00:00 | |
| HSKMA3-T | 2026-08-31 23:53:42 | 48.79629 | 10.34898 | 67° | 13km/h | 19845m | 5.3m/s | -53°C | 0.8% | 60.1hPa | 2.6V | 18:12:15 | 01:24:21 | 00:00:00 | |
| DK7TD | 2026-08-31 23:53:34 | 48.79627 | 10.34859 | 95° | 16km/h | 19804m | 5m/s | -53.3°C | 0.9% | 60.5hPa | 2.7V | 18:12:15 | 01:24:13 | 00:00:00 | |
| HSKMA3-T | 2026-08-31 23:53:31 | 48.79627 | 10.34838 | 77° | 20km/h | 19789m | 5m/s | -53.4°C | 0.8% | 60.7hPa | 2.6V | 18:12:15 | 01:24:10 | 00:00:00 | |
| DK7TD | 2026-08-31 23:53:23 | 48.79621 | 10.34777 | 91° | 22km/h | 19752m | 5.7m/s | -53.3°C | 0.8% | 61hPa | 2.6V | 18:12:15 | 01:24:02 | 00:00:00 | |
| HSKMA3-T | 2026-08-31 23:53:20 | 48.79623 | 10.34753 | 90° | 18km/h | 19737m | 5.5m/s | -53.3°C | 0.8% | 61.2hPa | 2.6V | 18:12:15 | 01:23:59 | 00:00:00 | |
| DK7TD | 2026-08-31 23:53:12 | 48.79615 | 10.34717 | 72° | 11km/h | 19698m | 5.8m/s | -53.5°C | 0.9% | 61.5hPa | 2.6V | 18:12:15 | 01:23:51 | 00:00:00 | |
| HSKMA3-T | 2026-08-31 23:53:10 | 48.79615 | 10.34709 | 89° | 11km/h | 19688m | 4.9m/s | -53.4°C | 0.9% | 61.6hPa | 2.6V | 18:12:15 | 01:23:49 | 00:00:00 | |
| OE5DXL-15 | 2026-08-31 23:53:09 | 48.79614 | 10.34704 | 87° | 7km/h | 19683m | 5.2m/s | -53.4°C | 4.4% | 61.6hPa | 2.6V | 00:00:00 | 00:00:00 | 00:00:00 | |
| DO3MHA-11 | 2026-08-31 23:53:07 | 48.79614 | 10.34694 | 97° | 11km/h | 19675m | 4.4m/s | -53.4°C | 4.5% | 61.7hPa | 2.6V | 00:00:00 | 01:23:46 | 00:00:00 | |
| DL6DJ-15 | 2026-08-31 23:53:06 | 48.79615 | 10.34689 | 104° | 11km/h | 19670m | 5.5m/s | -53.5°C | 1.3% | 61.8hPa | 2.6V | 00:00:00 | 00:00:00 | 00:00:00 | |
| AZAK | 2026-08-31 23:53:05 | 48.79617 | 10.34681 | 96° | 9km/h | 19661m | 4.6m/s | -53.5°C | 1.3% | 61.9hPa | 2.6V | 00:00:00 | 00:00:00 | 00:00:00 | |
| DO3MHA-12 | 2026-08-31 23:53:03 | 48.79616 | 10.34678 | 69° | 7km/h | 19655m | 6.0m/s | -53.5°C | 4.5% | 61.9hPa | 2.6V | 00:00:00 | 01:23:42 | 00:00:00 | |
| DM0DOS-11 | 2026-08-31 23:53:01 | 48.79606 | 10.34671 | 1° | 9km/h | 19636m | 5.2m/s | -53.4°C | 4.4% | 62.1hPa | 2.6V | 08:30:00 | 01:23:38 | 00:00:00 | |
| DK7TD | 2026-08-31 23:53:01 | 48.79612 | 10.34673 | 23° | 13km/h | 19645m | 4.2m/s | -53.5°C | 0.8% | 62hPa | 2.6V | 18:12:15 | 01:23:40 | 00:00:00 | |
| HSKMA3-T | 2026-08-31 23:52:59 | 48.79606 | 10.34671 | 1° | 9km/h | 19636m | 5.2m/s | -53.4°C | 0.9% | 62.1hPa | 2.6V | 18:12:15 | 01:23:38 | 00:00:00 | |
| BIOWL1-15 | 2026-08-31 23:52:52 | 48.79603 | 10.34666 | 66° | 7km/h | 19592m | 5.5m/s | -53.3°C | 0.8% | 0hPa | 2.6V | 18:12:15 | 01:23:29 | 00:00:00 | |
| DK7TD | 2026-08-31 23:52:51 | 48.79604 | 10.34668 | 109° | 5km/h | 19597m | 4.8m/s | -53.3°C | 0.8% | 62.5hPa | 2.6V | 18:12:15 | 01:23:30 | 00:00:00 | |
| HSKMA3-T | 2026-08-31 23:52:49 | 48.79602 | 10.34664 | 51° | 9km/h | 19587m | 4.3m/s | -53.3°C | 0.8% | 62.6hPa | 2.6V | 18:12:15 | 01:23:28 | 00:00:00 | |
| DF7PN | 2026-08-31 23:52:47 | 48.79598 | 10.34656 | 59° | 5km/h | 19573m | 4.8m/s | -53.4°C | 1.2% | 62.7hPa | 2.6V | 00:00:00 | 00:00:00 | 00:00:00 | |
| DK7TD | 2026-08-31 23:52:40 | 48.79595 | 10.34645 | 107° | 5km/h | 19545m | 5.3m/s | -53.6°C | 0.8% | 63hPa | 2.6V | 18:12:15 | 01:23:19 | 00:00:00 | |
| HSKMA3-T | 2026-08-31 23:52:39 | 48.79595 | 10.34643 | 134° | 7km/h | 19540m | 4.7m/s | -53.6°C | 0.8% | 63.1hPa | 2.6V | 18:12:15 | 01:23:18 | 00:00:00 | |
| DK7TD | 2026-08-31 23:52:29 | 48.79604 | 10.34596 | 89° | 18km/h | 19490m | 5.2m/s | -54°C | 0.8% | 63.6hPa | 2.6V | 18:12:15 | 01:23:08 | 00:00:00 | |
| HSKMA3-T | 2026-08-31 23:52:28 | 48.79604 | 10.34589 | 94° | 18km/h | 19484m | 5.9m/s | -54.1°C | 0.9% | 63.6hPa | 2.6V | 18:12:15 | 01:23:07 | 00:00:00 | |
| BIOWL1-15 | 2026-08-31 23:52:28 | 48.79604 | 10.34582 | 100° | 18km/h | 19479m | 4.4m/s | 0°C | 0% | 0hPa | 2.6V | 18:12:15 | 01:23:06 | 00:00:00 | |
| DK7TD | 2026-08-31 23:52:19 | 48.79612 | 10.34515 | 103° | 27km/h | 19440m | 5.4m/s | -54.6°C | 1% | 64hPa | 2.6V | 18:12:15 | 01:22:58 | 00:00:00 | |
| HSKMA3-T | 2026-08-31 23:52:17 | 48.79614 | 10.34492 | 93° | 31km/h | 19429m | 4.7m/s | -54.7°C | 1% | 64.2hPa | 2.6V | 18:12:15 | 01:22:56 | 00:00:00 | |
| DK7TD | 2026-08-31 23:52:08 | 48.79605 | 10.34364 | 84° | 38km/h | 19386m | 4.3m/s | -54.6°C | 0.9% | 64.6hPa | 2.6V | 18:12:15 | 01:22:47 | 00:00:00 | |
| HSKMA3-T | 2026-08-31 23:52:06 | 48.79602 | 10.34335 | 81° | 37km/h | 19375m | 4.9m/s | -54.7°C | 0.9% | 64.7hPa | 2.6V | 18:12:15 | 01:22:45 | 00:00:00 | |
| DM0DOS-11 | 2026-08-31 23:52:05 | 48.79597 | 10.34249 | 80° | 38km/h | 19346m | 4.8m/s | -54.7°C | 4.7% | 65hPa | 2.6V | 08:30:00 | 01:22:39 | 00:00:00 | |
| DK7TD | 2026-08-31 23:51:57 | 48.79592 | 10.34205 | 81° | 38km/h | 19332m | 5.1m/s | -54.7°C | 1% | 65.1hPa | 2.6V | 18:12:15 | 01:22:36 | 00:00:00 | |
| DO3MHA-11 | 2026-08-31 23:51:57 | 48.79592 | 10.34205 | 82° | 35km/h | 19332m | 5.0m/s | -54.7°C | 4.7% | 65.1hPa | 2.6V | 00:00:00 | 01:22:36 | 00:00:00 | |
| OE5DRO-10 | 2026-08-31 23:51:56 | 48.79590 | 10.34190 | 83° | 33km/h | 19328m | 3.9m/s | -54.7°C | 4.7% | 65.1hPa | 2.6V | 00:00:00 | 00:00:00 | 00:00:00 | |
| DM0DOS-11 | 2026-08-31 23:51:55 | 48.79575 | 10.34118 | 71° | 29km/h | 19301m | 5.1m/s | -54.8°C | 4.8% | 65.5hPa | 2.6V | 08:30:00 | 01:22:29 | 00:00:00 | |
| HSKMA3-T | 2026-08-31 23:51:55 | 48.79589 | 10.34177 | 79° | 35km/h | 19324m | 4.2m/s | -54.8°C | 1% | 65.2hPa | 2.6V | 18:12:15 | 01:22:34 | 00:00:00 | |
| DK7TD | 2026-08-31 23:51:47 | 48.79571 | 10.34081 | 85° | 37km/h | 19287m | 4.7m/s | -54.8°C | 1% | 65.6hPa | 2.6V | 18:12:15 | 01:22:26 | 00:00:00 | |
| HSKMA3-T | 2026-08-31 23:51:45 | 48.79569 | 10.34052 | 80° | 37km/h | 19278m | 4.5m/s | -54.7°C | 1% | 65.7hPa | 2.6V | 18:12:15 | 01:22:24 | 00:00:00 | |
| DF7PN | 2026-08-31 23:51:44 | 48.79567 | 10.34039 | 77° | 33km/h | 19273m | 5.0m/s | -54.7°C | 1.4% | 65.7hPa | 2.6V | 00:00:00 | 00:00:00 | 00:00:00 | |
| DK7TD | 2026-08-31 23:51:36 | 48.79543 | 10.33953 | 62° | 27km/h | 19235m | 4.7m/s | -54.4°C | 1% | 66.1hPa | 2.6V | 18:12:15 | 01:22:15 | 00:00:00 | |
| HSKMA3-T | 2026-08-31 23:51:35 | 48.79539 | 10.33943 | 63° | 29km/h | 19229m | 5.9m/s | -54.4°C | 0.9% | 66.2hPa | 2.6V | 18:12:15 | 01:22:14 | 00:00:00 | |
| DK7TD | 2026-08-31 23:51:26 | 48.79511 | 10.33852 | 59° | 26km/h | 19185m | 5m/s | -54°C | 1% | 66.6hPa | 2.7V | 18:12:15 | 01:22:05 | 00:00:00 | |
| DM0DOS-11 | 2026-08-31 23:51:26 | 48.79493 | 10.33798 | 63° | 26km/h | 19156m | 5.9m/s | -53.9°C | 4.5% | 67hPa | 2.7V | 08:30:00 | 01:21:59 | 00:00:00 | |
| HSKMA3-T | 2026-08-31 23:51:24 | 48.79505 | 10.33836 | 62° | 26km/h | 19176m | 4.5m/s | -54°C | 0.9% | 66.7hPa | 2.6V | 18:12:15 | 01:22:03 | 00:00:00 | |
| DF3TZ-5 | 2026-08-31 23:51:24 | 48.79502 | 10.33827 | 63° | 26km/h | 19171m | 5.5m/s | -53.9°C | 1.3% | 66.8hPa | 2.6V | 00:00:00 | 00:00:00 | 00:00:00 | |
| DO3MHA-12 | 2026-08-31 23:51:23 | 48.79502 | 10.33827 | 64° | 26km/h | 19172m | 5.5m/s | -53.9°C | 4.6% | 66.7hPa | 2.6V | 00:00:00 | 01:22:02 | 00:00:00 | |
| AZAK | 2026-08-31 23:51:22 | 48.79495 | 10.33807 | 65° | 29km/h | 19162m | 4.7m/s | -53.9°C | 1.3% | 66.9hPa | 2.6V | 00:00:00 | 00:00:00 | 00:00:00 | |
| OE5DRO-10 | 2026-08-31 23:51:18 | 48.79487 | 10.33781 | 62° | 22km/h | 19147m | 4.1m/s | -53.8°C | 4.6% | 67.0hPa | 2.6V | 00:00:00 | 00:00:00 | 00:00:00 | |
| DO3MHA-11 | 2026-08-31 23:51:17 | 48.79484 | 10.33773 | 63° | 24km/h | 19142m | 5.1m/s | -53.8°C | 4.5% | 67.0hPa | 2.6V | 00:00:00 | 01:21:56 | 00:00:00 | |
| DB0NH | 2026-08-31 23:51:16 | 48.79481 | 10.33765 | 65° | 20km/h | 19137m | 4.3m/s | -53.8°C | 4.6% | 67.1hPa | 2.6V | 00:00:00 | 01:21:55 | 00:00:00 | |
| DM0DOS-11 | 2026-08-31 23:51:15 | 48.79470 | 10.33717 | 66° | 24km/h | 19109m | 4.9m/s | -53.9°C | 4.5% | 67.4hPa | 2.6V | 08:30:00 | 01:21:49 | 00:00:00 | |
| DK7TD | 2026-08-31 23:51:15 | 48.79479 | 10.33756 | 68° | 24km/h | 19133m | 3.8m/s | -53.8°C | 0.9% | 67.2hPa | 2.6V | 18:12:15 | 01:21:54 | 00:00:00 | |
| HSKMA3-T | 2026-08-31 23:51:14 | 48.79477 | 10.33748 | 71° | 22km/h | 19129m | 5.3m/s | -53.8°C | 0.9% | 67.2hPa | 2.7V | 18:12:15 | 01:21:53 | 00:00:00 | |
| DK7TD | 2026-08-31 23:51:05 | 48.79453 | 10.33677 | 49° | 27km/h | 19083m | 4.9m/s | -54°C | 0.9% | 67.7hPa | 2.6V | 18:12:15 | 01:21:44 | 00:00:00 | |
| HSKMA3-T | 2026-08-31 23:51:03 | 48.79444 | 10.33663 | 47° | 22km/h | 19074m | 5.5m/s | -54°C | 0.9% | 67.8hPa | 2.7V | 18:12:15 | 01:21:42 | 00:00:00 | |
| DK7TD | 2026-08-31 23:50:55 | 48.79431 | 10.33623 | 93° | 13km/h | 19037m | 4.9m/s | -54°C | 0.9% | 68.2hPa | 2.6V | 18:12:15 | 01:21:34 | 00:00:00 | |
| HSKMA3-T | 2026-08-31 23:50:53 | 48.79431 | 10.33613 | 89° | 15km/h | 19027m | 5.7m/s | -54°C | 0.9% | 68.3hPa | 2.7V | 18:12:15 | 01:21:32 | 00:00:00 | |
| DF3TZ-5 | 2026-08-31 23:50:52 | 48.79431 | 10.33607 | 83° | 15km/h | 19022m | 4.1m/s | -54.0°C | 1.3% | 68.4hPa | 2.6V | 00:00:00 | 00:00:00 | 00:00:00 | |
| DM7RM-13 | 2026-08-31 23:50:51 | 48.79431 | 10.33607 | 84° | 16km/h | 19022m | 4.1m/s | -54.0°C | 1.4% | 68.4hPa | 2.6V | 00:00:00 | 00:00:00 | 00:00:00 | |
| DO9HM | 2026-08-31 23:50:50 | 48.79430 | 10.33601 | 84° | 16km/h | 19018m | 4.4m/s | -53.9°C | 1.4% | 68.4hPa | 2.6V | 00:00:00 | 00:00:00 | 00:00:00 | |
| OE3JTB-15 | 2026-08-31 23:50:49 | 48.79430 | 10.33589 | 90° | 24km/h | 19008m | 4.2m/s | -53.9°C | 4.6% | 68.5hPa | 2.6V | 00:00:00 | 00:00:00 | 00:00:00 | |
| DO3MHA-11 | 2026-08-31 23:50:47 | 48.79430 | 10.33575 | 83° | 22km/h | 18999m | 5.8m/s | -53.8°C | 4.6% | 68.6hPa | 2.6V | 00:00:00 | 01:21:26 | 00:00:00 | |
| DB0NH | 2026-08-31 23:50:46 | 48.79429 | 10.33568 | 80° | 26km/h | 18994m | 4.6m/s | -53.8°C | 4.5% | 68.6hPa | 2.6V | 00:00:00 | 01:21:25 | 00:00:00 | |
| DM0DOS-11 | 2026-08-31 23:50:45 | 48.79426 | 10.33519 | 87° | 22km/h | 18964m | 4.3m/s | -53.7°C | 4.5% | 69hPa | 2.6V | 08:30:00 | 01:21:19 | 00:00:00 | |
| DK7TD | 2026-08-31 23:50:44 | 48.79427 | 10.33552 | 87° | 20km/h | 18984m | 4.9m/s | -53.8°C | 0.9% | 68.8hPa | 2.6V | 18:12:15 | 01:21:23 | 00:00:00 | |
| HSKMA3-T | 2026-08-31 23:50:43 | 48.79427 | 10.33544 | 88° | 20km/h | 18979m | 4.3m/s | -53.8°C | 0.9% | 68.8hPa | 2.7V | 18:12:15 | 01:21:22 | 00:00:00 | |
| DK7TD | 2026-08-31 23:50:35 | 48.79422 | 10.33469 | 71° | 24km/h | 18937m | 4.1m/s | -53.6°C | 0.9% | 69.3hPa | 2.6V | 18:12:15 | 01:21:13 | 00:00:00 | |
| DK7TD | 2026-08-31 23:50:27 | 48.79407 | 10.33360 | 76° | 35km/h | 18884m | 4.4m/s | -53.4°C | 0.8% | 69.8hPa | 2.6V | 18:12:15 | 01:21:02 | 00:00:00 | |
| HSKMA3-T | 2026-08-31 23:50:14 | 48.79381 | 10.33263 | 69° | 33km/h | 18842m | 4.9m/s | -55°C | 0.9% | 70.3hPa | 2.6V | 18:12:15 | 01:20:53 | 00:00:00 | |
| DK7TD | 2026-08-31 23:50:13 | 48.79378 | 10.33251 | 74° | 35km/h | 18837m | 4.3m/s | -55°C | 0.9% | 70.3hPa | 2.6V | 18:12:15 | 01:20:52 | 00:00:00 | |
| DO3MHA-12 | 2026-08-31 23:50:13 | 48.79378 | 10.33251 | 75° | 37km/h | 18838m | 4.3m/s | -54.9°C | 4.6% | 70.3hPa | 2.6V | 00:00:00 | 01:20:52 | 00:00:00 | |
| DF7PN | 2026-08-31 23:50:11 | 48.79374 | 10.33223 | 81° | 40km/h | 18827m | 5.6m/s | -55.0°C | 1.3% | 70.5hPa | 2.6V | 00:00:00 | 00:00:00 | 00:00:00 | |
| DM0DOS-11 | 2026-08-31 23:50:10 | 48.79371 | 10.33178 | 86° | 37km/h | 18814m | 5.1m/s | -55°C | 4.6% | 70.6hPa | 2.6V | 08:30:00 | 01:20:47 | 00:00:00 | |
| HSKMA3-T | 2026-08-31 23:50:04 | 48.79363 | 10.33127 | 64° | 37km/h | 18796m | 4.5m/s | -55.4°C | 1.1% | 70.8hPa | 2.6V | 18:12:15 | 01:20:43 | 00:00:00 | |
| PG1ADW-2 | 2026-08-31 23:50:04 | 48.79363 | 10.33127 | 64° | 29km/h | 18796m | 4.4m/s | -55.4°C | 4.9% | 70.8hPa | 2.6V | 00:00:00 | 00:00:00 | 08:30:00 | |
| DM0DOS-11 | 2026-08-31 23:50:03 | 48.79335 | 10.33064 | 60° | 29km/h | 18767m | 5m/s | -55.8°C | 5% | 71.2hPa | 2.6V | 08:30:00 | 01:20:37 | 00:00:00 | |
| DK7TD | 2026-08-31 23:50:02 | 48.79354 | 10.33103 | 56° | 35km/h | 18787m | 5m/s | -55.6°C | 1.1% | 70.9hPa | 2.6V | 18:12:15 | 01:20:41 | 00:00:00 | |
| HSKMA3-T | 2026-08-31 23:49:54 | 48.79326 | 10.33024 | 83° | 26km/h | 18749m | 3.5m/s | -55.7°C | 1.1% | 71.3hPa | 2.7V | 18:12:15 | 01:20:33 | 00:00:00 | |
| DK7TD | 2026-08-31 23:49:51 | 48.79325 | 10.32993 | 80° | 29km/h | 18735m | 4.6m/s | -55.8°C | 1.1% | 71.5hPa | 2.6V | 18:12:15 | 01:20:30 | 00:00:00 | |
| DM0DOS-11 | 2026-08-31 23:49:51 | 48.79316 | 10.32963 | 54° | 27km/h | 18721m | 5.3m/s | -55.7°C | 5% | 71.7hPa | 2.6V | 08:30:00 | 01:20:27 | 00:00:00 | |
| DF3TZ-5 | 2026-08-31 23:49:50 | 48.79323 | 10.32982 | 70° | 29km/h | 18731m | 4.5m/s | -55.8°C | 1.5% | 71.5hPa | 2.6V | 00:00:00 | 00:00:00 | 00:00:00 | |
| SONCRA | 2026-08-31 23:49:45 | 48.79303 | 10.32940 | 50° | 27km/h | 18706m | 6.1m/s | -55.7°C | 1.5% | 71.8hPa | 2.6V | 00:00:00 | 00:00:00 | 00:00:00 | |
| HSKMA3-T | 2026-08-31 23:49:43 | 48.79294 | 10.32921 | 58° | 31km/h | 18696m | 4.4m/s | -55.7°C | 1.1% | 71.9hPa | 2.6V | 18:12:15 | 01:20:22 | 00:00:00 | |
| DK7TD | 2026-08-31 23:49:41 | 48.79286 | 10.32900 | 59° | 29km/h | 18685m | 5m/s | -55.7°C | 1.2% | 72.1hPa | 2.6V | 18:12:15 | 01:20:20 | 00:00:00 | |
| HSKMA3-T | 2026-08-31 23:49:33 | 48.79251 | 10.32817 | 45° | 31km/h | 18646m | 5.4m/s | -55.5°C | 1.2% | 72.5hPa | 2.7V | 18:12:15 | 01:20:12 | 00:00:00 | |
| DK7TD | 2026-08-31 23:49:31 | 48.79234 | 10.32792 | 44° | 31km/h | 18630m | 6m/s | -55.5°C | 1.2% | 72.7hPa | 2.6V | 18:12:15 | 01:20:09 | 00:00:00 | |
| DK5PH-5 | 2026-08-31 23:49:30 | 48.79234 | 10.32792 | 45° | 31km/h | 18630m | 6.0m/s | -55.5°C | 5.0% | 72.6hPa | 2.6V | 00:00:00 | 01:20:09 | 00:00:00 | |
| DM7RM-13 | 2026-08-31 23:49:28 | 48.79229 | 10.32784 | 45° | 29km/h | 18625m | 4.7m/s | -55.5°C | 1.5% | 72.7hPa | 2.6V | 00:00:00 | 00:00:00 | 00:00:00 | |
| DO3MHA-11 | 2026-08-31 23:49:27 | 48.79218 | 10.32766 | 50° | 33km/h | 18615m | 5.2m/s | -55.4°C | 5.0% | 72.8hPa | 2.6V | 00:00:00 | 01:20:06 | 08:30:00 | |
| NBG1-10 | 2026-08-31 23:49:25 | 48.79206 | 10.32746 | 50° | 29km/h | 18605m | 5.2m/s | -55.4°C | 5.0% | 72.9hPa | 2.7V | 00:00:00 | 01:20:04 | 00:00:00 | |
| PG1ADW-2 | 2026-08-31 23:49:24 | 48.79201 | 10.32737 | 45° | 29km/h | 18600m | 5.5m/s | -55.4°C | 4.9% | 73.0hPa | 2.7V | 00:00:00 | 00:00:00 | 00:00:00 | |
| DM0DOS-11 | 2026-08-31 23:49:23 | 48.79165 | 10.32691 | 39° | 27km/h | 18569m | 5.4m/s | -55.3°C | 4.9% | 73.3hPa | 2.7V | 08:30:00 | 01:19:57 | 00:00:00 | |
| HSKMA3-T | 2026-08-31 23:49:22 | 48.79189 | 10.32722 | 39° | 31km/h | 18590m | 4.5m/s | -55.4°C | 1.1% | 73.2hPa | 2.6V | 18:12:15 | 01:20:01 | 00:00:00 | |
| DK7TD | 2026-08-31 23:49:19 | 48.79170 | 10.32698 | 40° | 31km/h | 18575m | 5m/s | -55.3°C | 1.2% | 73.3hPa | 2.6V | 18:12:15 | 01:19:58 | 00:00:00 | |
| HSKMA3-T | 2026-08-31 23:49:12 | 48.79138 | 10.32644 | 50° | 26km/h | 18540m | 5m/s | -55.1°C | 1.1% | 73.7hPa | 2.7V | 18:12:15 | 01:19:51 | 00:00:00 | |
| DM0DOS-11 | 2026-08-31 23:49:11 | 48.79116 | 10.32614 | 33° | 33km/h | 18519m | 5m/s | -55°C | 5% | 74hPa | 2.6V | 08:30:00 | 01:19:47 | 00:00:00 | |
| DK7TD | 2026-08-31 23:49:08 | 48.79116 | 10.32614 | 34° | 33km/h | 18519m | 5m/s | -55°C | 1.2% | 74hPa | 2.6V | 18:12:15 | 01:19:47 | 00:00:00 | |
| DM7RM-13 | 2026-08-31 23:49:08 | 48.79116 | 10.32614 | 35° | 33km/h | 18520m | 5.0m/s | -55.0°C | 1.5% | 74.0hPa | 2.6V | 00:00:00 | 00:00:00 | 00:00:00 | |
| DO3MHA-11 | 2026-08-31 23:49:07 | 48.79108 | 10.32607 | 30° | 31km/h | 18514m | 5.5m/s | -55.0°C | 4.9% | 74.0hPa | 2.6V | 00:00:00 | 01:19:46 | 00:00:00 | |
| DN1GJH-1 | 2026-08-31 23:49:06 | 48.79108 | 10.32607 | 31° | 33km/h | 18514m | 5.5m/s | -55.0°C | 1.5% | 74.0hPa | 2.6V | 00:00:00 | 00:00:00 | 00:00:00 | |
| OE5DRO-10 | 2026-08-31 23:49:05 | 48.79094 | 10.32594 | 32° | 29km/h | 18504m | 5.7m/s | -54.9°C | 5.0% | 74.1hPa | 2.6V | 00:00:00 | 00:00:00 | 00:00:00 | |
| DJ8HS-15 | 2026-08-31 23:49:04 | 48.79086 | 10.32586 | 35° | 29km/h | 18499m | 4.7m/s | -54.9°C | 4.9% | 74.1hPa | 2.6V | 00:00:00 | 01:19:43 | 00:00:00 | |
| DM0DOS-11 | 2026-08-31 23:49:03 | 48.79048 | 10.32547 | 41° | 27km/h | 18469m | 4.7m/s | -54.8°C | 4.9% | 74.5hPa | 2.6V | 08:30:00 | 01:19:37 | 00:00:00 | |
| HSKMA3-T | 2026-08-31 23:49:00 | 48.79059 | 10.32559 | 33° | 27km/h | 18479m | 4.3m/s | -54.8°C | 1.1% | 74.4hPa | 2.7V | 18:12:15 | 01:19:39 | 00:00:00 | |
| DK7TD | 2026-08-31 23:48:58 | 48.79048 | 10.32547 | 41° | 27km/h | 18469m | 4.7m/s | -54.8°C | 1.1% | 74.5hPa | 2.6V | 18:12:15 | 01:19:37 | 00:00:00 | |
| DL6DJ-15 | 2026-08-31 23:48:58 | 48.79043 | 10.32540 | 41° | 26km/h | 18464m | 4.5m/s | -54.7°C | 1.4% | 74.6hPa | 2.6V | 00:00:00 | 00:00:00 | 00:00:00 | |
| DO3MHA-11 | 2026-08-31 23:48:57 | 48.79043 | 10.32540 | 42° | 27km/h | 18464m | 4.4m/s | -54.7°C | 4.9% | 74.5hPa | 2.6V | 00:00:00 | 01:19:36 | 00:00:00 | |
| DJTTGO | 2026-08-31 23:48:55 | 48.79038 | 10.32534 | 38° | 26km/h | 18459m | 6.2m/s | -54.7°C | 1.4% | 74.6hPa | 2.7V | 00:00:00 | 00:00:00 | 00:00:00 | |
| DO3MHA-12 | 2026-08-31 23:48:53 | 48.79021 | 10.32518 | 31° | 29km/h | 18444m | 5.8m/s | -54.5°C | 4.8% | 74.8hPa | 2.7V | 00:00:00 | 01:19:32 | 00:00:00 | |
| NBG1-10 | 2026-08-31 23:48:52 | 48.79015 | 10.32512 | 32° | 26km/h | 18438m | 5.1m/s | -54.5°C | 4.8% | 74.8hPa | 2.7V | 00:00:00 | 01:19:31 | 00:00:00 | |
| DF1GD-15 | 2026-08-31 23:48:51 | 48.79014 | 10.32512 | 33° | 29km/h | 18438m | 5.2m/s | -54.5°C | 1.4% | 74.9hPa | 2.7V | 00:00:00 | 00:00:00 | 00:00:00 | |
| DM0DOS-11 | 2026-08-31 23:48:50 | 48.78988 | 10.32493 | 20° | 31km/h | 18417m | 5.4m/s | -54.3°C | 4.8% | 75.1hPa | 2.7V | 08:30:00 | 01:19:27 | 00:00:00 | |
| HSKMA3-T | 2026-08-31 23:48:49 | 48.78995 | 10.32497 | 21° | 29km/h | 18422m | 5.1m/s | -54.4°C | 1% | 75.1hPa | 2.7V | 18:12:15 | 01:19:28 | 00:00:00 | |
| DK7TD | 2026-08-31 23:48:48 | 48.78988 | 10.32493 | 20° | 31km/h | 18417m | 5.4m/s | -54.3°C | 1.1% | 75.1hPa | 2.7V | 18:12:15 | 01:19:27 | 00:00:00 | |
| DM7RM-13 | 2026-08-31 23:48:48 | 48.78988 | 10.32493 | 21° | 31km/h | 18418m | 5.4m/s | -54.3°C | 1.4% | 75.1hPa | 2.6V | 00:00:00 | 00:00:00 | 00:00:00 | |
| DO3MHA-11 | 2026-08-31 23:48:47 | 48.78980 | 10.32488 | 23° | 26km/h | 18412m | 5.9m/s | -54.2°C | 4.8% | 75.1hPa | 2.6V | 00:00:00 | 01:19:26 | 00:00:00 | |
| OE5DRO-10 | 2026-08-31 23:48:46 | 48.78973 | 10.32484 | 26° | 26km/h | 18407m | 4.3m/s | -54.2°C | 4.8% | 75.2hPa | 2.6V | 00:00:00 | 00:00:00 | 00:00:00 | |
| DN1GJH-1 | 2026-08-31 23:48:45 | 48.78973 | 10.32484 | 27° | 31km/h | 18407m | 4.4m/s | -54.2°C | 1.4% | 75.2hPa | 2.6V | 00:00:00 | 00:00:00 | 00:00:00 | |
| DJ8HS-15 | 2026-08-31 23:48:44 | 48.78959 | 10.32474 | 25° | 24km/h | 18397m | 5.7m/s | -54.1°C | 4.8% | 75.3hPa | 2.6V | 00:00:00 | 01:19:23 | 00:00:00 | |
| DM0DOS-11 | 2026-08-31 23:48:43 | 48.78930 | 10.32444 | 36° | 18km/h | 18365m | 4.6m/s | -53.8°C | 4.7% | 75.8hPa | 2.6V | 08:30:00 | 01:19:17 | 00:00:00 | |
| DK7TD | 2026-08-31 23:48:38 | 48.78926 | 10.32439 | 36° | 20km/h | 18361m | 5m/s | -53.8°C | 1% | 75.8hPa | 2.6V | 18:12:15 | 01:19:16 | 00:00:00 | |
| AZAK | 2026-08-31 23:48:38 | 48.78926 | 10.32439 | 37° | 20km/h | 18361m | 5.0m/s | -53.8°C | 1.4% | 75.8hPa | 2.7V | 00:00:00 | 00:00:00 | 00:00:00 | |
| DO3MHA-11 | 2026-08-31 23:48:37 | 48.78926 | 10.32439 | 37° | 24km/h | 18361m | 4.9m/s | -53.7°C | 4.7% | 75.7hPa | 2.7V | 00:00:00 | 01:19:16 | 00:00:00 | |
| OE3JTB-15 | 2026-08-31 23:48:36 | 48.78922 | 10.32435 | 37° | 24km/h | 18356m | 5.4m/s | -53.7°C | 4.7% | 75.8hPa | 2.7V | 00:00:00 | 01:19:15 | 00:00:00 | |
| DB0ND-19 | 2026-08-31 23:48:32 | 48.78901 | 10.32418 | 19° | 24km/h | 18336m | 4.7m/s | -53.6°C | 1.3% | 76.1hPa | 2.7V | 00:00:00 | 00:00:00 | 00:00:00 | |
| DM0DOS-11 | 2026-08-31 23:48:31 | 48.78877 | 10.32400 | 30° | 26km/h | 18314m | 5.9m/s | -53.4°C | 4.6% | 76.4hPa | 2.7V | 08:30:00 | 01:19:07 | 00:00:00 | |
| HSKMA3-T | 2026-08-31 23:48:27 | 48.78871 | 10.32395 | 32° | 26km/h | 18309m | 4.2m/s | -53.3°C | 0.9% | 76.4hPa | 2.6V | 18:12:15 | 01:19:06 | 00:00:00 | |
| DM7RM-13 | 2026-08-31 23:48:27 | 48.78871 | 10.32395 | 33° | 26km/h | 18310m | 4.2m/s | -53.3°C | 1.4% | 76.4hPa | 2.7V | 00:00:00 | 00:00:00 | 00:00:00 | |
| AM1SDL-15 | 2026-08-31 23:48:26 | 48.78866 | 10.32390 | 34° | 24km/h | 18305m | 5.0m/s | -53.2°C | 4.6% | 76.4hPa | 2.7V | 00:00:00 | 01:19:05 | 00:00:00 | |
| DN1GJH-1 | 2026-08-31 23:48:25 | 48.78866 | 10.32390 | 35° | 26km/h | 18305m | 5.0m/s | -53.3°C | 1.4% | 76.5hPa | 2.7V | 00:00:00 | 00:00:00 | 00:00:00 | |
| DJ8HS-15 | 2026-08-31 23:48:24 | 48.78855 | 10.32379 | 32° | 20km/h | 18295m | 4.5m/s | -53.2°C | 4.6% | 76.5hPa | 2.7V | 00:00:00 | 01:19:03 | 00:00:00 | |
| DM0DOS-11 | 2026-08-31 23:48:23 | 48.78824 | 10.32356 | 24° | 24km/h | 18264m | 5.3m/s | -52.9°C | 4.5% | 76.9hPa | 2.7V | 08:30:00 | 01:18:57 | 00:00:00 | |
| DK7TD | 2026-08-31 23:48:16 | 48.78813 | 10.32350 | 21° | 22km/h | 18253m | 4.3m/s | -52.9°C | 0.9% | 77.1hPa | 2.7V | 18:12:15 | 01:18:55 | 00:00:00 | |
| DB0NH | 2026-08-31 23:48:16 | 48.78813 | 10.32350 | 21° | 20km/h | 18254m | 4.3m/s | -52.8°C | 4.5% | 77.0hPa | 2.6V | 00:00:00 | 01:18:55 | 00:00:00 | |
| DO3MHA-12 | 2026-08-31 23:48:13 | 48.78799 | 10.32337 | 42° | 18km/h | 18239m | 4.3m/s | -52.7°C | 4.5% | 77.2hPa | 2.6V | 00:00:00 | 01:18:52 | 00:00:00 | |
| SONCRA | 2026-08-31 23:48:12 | 48.78791 | 10.32326 | 39° | 20km/h | 18229m | 6.1m/s | -52.7°C | 1.3% | 77.4hPa | 2.6V | 00:00:00 | 00:00:00 | 00:00:00 | |
| DM0DOS-11 | 2026-08-31 23:48:11 | 48.78780 | 10.32315 | 29° | 16km/h | 18214m | 5.5m/s | -52.5°C | 4.4% | 77.5hPa | 2.6V | 08:30:00 | 01:18:47 | 00:00:00 | |
| HSKMA3-T | 2026-08-31 23:48:06 | 48.78772 | 10.32309 | 22° | 16km/h | 18204m | 4.6m/s | -52.5°C | 0.8% | 77.7hPa | 2.7V | 18:12:15 | 01:18:45 | 00:00:00 | |
| DK7TD | 2026-08-31 23:48:05 | 48.78768 | 10.32307 | 13° | 18km/h | 18199m | 5.9m/s | -52.4°C | 0.9% | 77.7hPa | 2.7V | 18:12:15 | 01:18:44 | 00:00:00 | |
| PG1ADW-2 | 2026-08-31 23:48:04 | 48.78763 | 10.32306 | 10° | 20km/h | 18194m | 4.2m/s | -52.3°C | 4.4% | 77.7hPa | 2.6V | 00:00:00 | 00:00:00 | 00:00:00 | |
| DM0DOS-11 | 2026-08-31 23:48:03 | 48.78732 | 10.32282 | 26° | 22km/h | 18164m | 5.2m/s | -52.1°C | 4.3% | 78.1hPa | 2.7V | 08:30:00 | 01:18:37 | 00:00:00 | |
| HSKMA3-T | 2026-08-31 23:47:55 | 48.78717 | 10.32273 | 22° | 20km/h | 18149m | 4.4m/s | -52°C | 0.8% | 78.3hPa | 2.6V | 18:12:15 | 01:18:34 | 00:00:00 | |
| DK7TD | 2026-08-31 23:47:54 | 48.78712 | 10.32271 | 15° | 18km/h | 18144m | 3.8m/s | -52°C | 0.8% | 78.4hPa | 2.6V | 18:12:15 | 01:18:33 | 00:00:00 | |
| HSKMA3-T | 2026-08-31 23:47:45 | 48.78672 | 10.32256 | 22° | 24km/h | 18101m | 4.8m/s | -51.6°C | 0.8% | 78.9hPa | 2.6V | 18:12:15 | 01:18:24 | 00:00:00 | |
| DM0DOS-11 | 2026-08-31 23:47:44 | 48.78647 | 10.32235 | 32° | 15km/h | 18067m | 3.8m/s | -51.3°C | 4.2% | 79.3hPa | 2.6V | 08:30:00 | 01:18:17 | 00:00:00 | |
| DK7TD | 2026-08-31 23:47:43 | 48.78663 | 10.32250 | 21° | 16km/h | 18092m | 4.3m/s | -51.5°C | 0.8% | 79hPa | 2.6V | 18:12:15 | 01:18:22 | 00:00:00 | |
| HSKMA3-T | 2026-08-31 23:47:35 | 48.78639 | 10.32229 | 12° | 11km/h | 18053m | 3.6m/s | -51.2°C | 0.7% | 79.5hPa | 2.7V | 18:12:15 | 01:18:14 | 00:00:00 | |
| DK7TD | 2026-08-31 23:47:32 | 48.78628 | 10.32227 | 2° | 16km/h | 18040m | 3.7m/s | -51.1°C | 0.7% | 79.7hPa | 2.6V | 18:12:15 | 01:18:11 | 00:00:00 | |
| DM0DOS-11 | 2026-08-31 23:47:31 | 48.78612 | 10.32229 | 355° | 18km/h | 18023m | 5.1m/s | -50.9°C | 4% | 79.9hPa | 2.6V | 08:30:00 | 01:18:07 | 00:00:00 | |
| HSKMA3-T | 2026-08-31 23:47:24 | 48.78594 | 10.32227 | 18° | 13km/h | 18003m | 4.3m/s | -50.8°C | 0.6% | 80.1hPa | 2.7V | 18:12:15 | 01:18:03 | 00:00:00 | |
| DJ8HS-15 | 2026-08-31 23:47:24 | 48.78594 | 10.32227 | 19° | 9km/h | 18004m | 4.3m/s | -50.7°C | 4.0% | 80.1hPa | 2.7V | 00:00:00 | 01:18:03 | 00:00:00 | |
| DM0DOS-11 | 2026-08-31 23:47:23 | 48.78577 | 10.32210 | 45° | 7km/h | 17974m | 5.6m/s | -50.6°C | 3.9% | 80.5hPa | 2.6V | 08:30:00 | 01:17:57 | 00:00:00 | |
| DK7TD | 2026-08-31 23:47:21 | 48.78585 | 10.32219 | 36° | 16km/h | 17988m | 5.5m/s | -50.7°C | 0.7% | 80.3hPa | 2.6V | 18:12:15 | 01:18:00 | 00:00:00 | |
| HSKMA3-T | 2026-08-31 23:47:14 | 48.78575 | 10.32212 | 333° | 7km/h | 17954m | 5.9m/s | -50.5°C | 0.6% | 0hPa | 2.6V | 18:12:15 | 01:17:53 | 00:00:00 | |
| DO9HM | 2026-08-31 23:47:14 | 48.78575 | 10.32212 | 334° | 7km/h | 17954m | 5.9m/s | -50.5°C | 1.2% | 80.7hPa | 2.6V | 00:00:00 | 00:00:00 | 00:00:00 | |
| DM0DOS-11 | 2026-08-31 23:47:13 | 48.78559 | 10.32210 | 13° | 13km/h | 17923m | 5.2m/s | -50.5°C | 3.9% | 81.1hPa | 2.6V | 08:30:00 | 01:17:47 | 00:00:00 | |
| DK7TD | 2026-08-31 23:47:11 | 48.78567 | 10.32213 | 4° | 11km/h | 17939m | 5.9m/s | -50.6°C | 0.6% | 80.9hPa | 2.7V | 18:12:15 | 01:17:50 | 00:00:00 | |
| HSKMA3-T | 2026-08-31 23:47:04 | 48.78553 | 10.32204 | 90° | 5km/h | 17904m | 4.2m/s | -50.3°C | 0.5% | 0hPa | 2.7V | 18:12:15 | 01:17:43 | 00:00:00 | |
| DK7TD | 2026-08-31 23:47:01 | 48.78551 | 10.32198 | 43° | 5km/h | 17890m | 3.8m/s | -50.3°C | 0.5% | 81.5hPa | 2.6V | 18:12:15 | 01:17:40 | 00:00:00 | |
| BIOWL1-15 | 2026-08-31 23:47:00 | 48.78549 | 10.32194 | 78° | 4km/h | 17874m | 4.3m/s | 0°C | 0% | 0hPa | 2.7V | 18:12:15 | 01:17:37 | 00:00:00 | |
| HSKMA3-T | 2026-08-31 23:46:53 | 48.78540 | 10.32181 | 20° | 13km/h | 17852m | 4.2m/s | -50.5°C | 0.4% | 0hPa | 2.7V | 18:12:15 | 01:17:32 | 00:00:00 | |
| DK7TD | 2026-08-31 23:46:51 | 48.78536 | 10.32179 | 67° | 4km/h | 17842m | 6.6m/s | -50.5°C | 0.5% | 82.1hPa | 2.6V | 18:12:15 | 01:17:30 | 00:00:00 | |
| AM1SDL-15 | 2026-08-31 23:46:51 | 48.78536 | 10.32179 | 67° | 27km/h | 17842m | 6.6m/s | 0°C | 0% | 0hPa | 2.6V | 00:00:00 | 01:17:30 | 00:00:00 | |
| DO3MHA-11 | 2026-08-31 23:46:47 | 48.78540 | 10.32164 | 107° | 15km/h | 17818m | 4.4m/s | -51.1°C | 3.8% | 82.4hPa | 2.6V | 00:00:00 | 01:17:26 | 00:00:00 | |
| DB0NH | 2026-08-31 23:46:46 | 48.78541 | 10.32159 | 102° | 27km/h | 17813m | 6.5m/s | -51.2°C | 3.9% | 82.4hPa | 2.6V | 00:00:00 | 01:17:25 | 00:00:00 | |
| DM0DOS-11 | 2026-08-31 23:46:44 | 48.78557 | 10.32120 | 92° | 15km/h | 17770m | 5.4m/s | -52°C | 3.9% | 83hPa | 2.6V | 08:30:00 | 01:17:17 | 00:00:00 | |
| HSKMA3-T | 2026-08-31 23:46:42 | 48.78549 | 10.32142 | 134° | 18km/h | 17790m | 3.6m/s | -51.4°C | 0.5% | 0hPa | 2.7V | 18:12:15 | 01:17:21 | 00:00:00 | |
| DK7TD | 2026-08-31 23:46:40 | 48.78554 | 10.32131 | 122° | 18km/h | 17781m | 6.1m/s | -51.7°C | 0.5% | 82.9hPa | 2.6V | 18:12:15 | 01:17:19 | 00:00:00 | |
| HSKMA3-T | 2026-08-31 23:46:32 | 48.78569 | 10.32078 | 120° | 33km/h | 17738m | 6.7m/s | -52.7°C | 0.7% | 0hPa | 2.6V | 18:12:15 | 01:17:11 | 00:00:00 | |
| DB0UT-7 | 2026-08-31 23:46:31 | 48.78573 | 10.32066 | 119° | 38km/h | 17733m | 5.0m/s | -52.8°C | 4.2% | 83.5hPa | 2.6V | 00:00:00 | 01:17:10 | 00:00:00 | |
| DM0DOS-11 | 2026-08-31 23:46:30 | 48.78589 | 10.32026 | 118° | 40km/h | 17717m | 4.2m/s | -53.2°C | 4.4% | 83.7hPa | 2.6V | 08:30:00 | 01:17:07 | 00:00:00 | |
| DK7TD | 2026-08-31 23:46:29 | 48.78584 | 10.32039 | 121° | 42km/h | 17722m | 4.7m/s | -53.1°C | 0.9% | 83.7hPa | 2.6V | 18:12:15 | 01:17:08 | 00:00:00 | |
| DB0ND-19 | 2026-08-31 23:46:28 | 48.78589 | 10.32026 | 118° | 40km/h | 17717m | 4.2m/s | -53.2°C | 1.4% | 83.7hPa | 2.6V | 00:00:00 | 00:00:00 | 00:00:00 | |
| DO3MHA-11 | 2026-08-31 23:46:27 | 48.78593 | 10.32012 | 113° | 35km/h | 17713m | 5.5m/s | -53.2°C | 4.3% | 83.7hPa | 2.6V | 00:00:00 | 01:17:06 | 08:30:00 | |
| PG1ADW-2 | 2026-08-31 23:46:26 | 48.78596 | 10.31998 | 106° | 46km/h | 17708m | 4.8m/s | -53.2°C | 4.4% | 83.8hPa | 2.7V | 00:00:00 | 00:00:00 | 00:00:00 | |
| DJ8HS-15 | 2026-08-31 23:46:24 | 48.78600 | 10.31972 | 102° | 37km/h | 17698m | 5.2m/s | -53.2°C | 4.3% | 83.9hPa | 2.7V | 00:00:00 | 01:17:03 | 08:30:00 | |
| DM0DOS-11 | 2026-08-31 23:46:23 | 48.78616 | 10.31899 | 115° | 37km/h | 17670m | 5.3m/s | -53.4°C | 4.3% | 84.3hPa | 2.7V | 08:30:00 | 01:16:57 | 00:00:00 | |
| DK7TD | 2026-08-31 23:46:18 | 48.78616 | 10.31899 | 116° | 38km/h | 17670m | 5.3m/s | -53.4°C | 0.9% | 84.3hPa | 2.7V | 18:12:15 | 01:16:57 | 00:00:00 | |
| HSKMA3-T | 2026-08-31 23:46:15 | 48.78629 | 10.31857 | 108° | 42km/h | 17656m | 4.9m/s | -53.3°C | 0.8% | 0hPa | 2.6V | 18:12:15 | 01:16:54 | 00:00:00 | |
| AZAK | 2026-08-31 23:46:15 | 48.78632 | 10.31841 | 104° | 42km/h | 17652m | 3.8m/s | -53.3°C | 1.3% | 84.6hPa | 2.7V | 00:00:00 | 00:00:00 | 00:00:00 | |
| OE5DRO-10 | 2026-08-31 23:46:14 | 48.78632 | 10.31841 | 103° | 44km/h | 17652m | 3.8m/s | -53.3°C | 4.3% | 84.5hPa | 2.7V | 00:00:00 | 00:00:00 | 00:00:00 | |
| DO3MHA-12 | 2026-08-31 23:46:13 | 48.78634 | 10.31825 | 101° | 37km/h | 17647m | 4.9m/s | -53.3°C | 4.2% | 84.6hPa | 2.7V | 00:00:00 | 01:16:52 | 08:30:00 | |
| DM0DOS-11 | 2026-08-31 23:46:10 | 48.78636 | 10.31754 | 89° | 35km/h | 17626m | 2.9m/s | -53.8°C | 4.2% | 84.9hPa | 2.7V | 08:30:00 | 01:16:47 | 00:00:00 | |
| DK7TD | 2026-08-31 23:46:07 | 48.78637 | 10.31741 | 96° | 33km/h | 17622m | 4.8m/s | -54°C | 0.9% | 84.9hPa | 2.7V | 18:12:15 | 01:16:46 | 00:00:00 | |
| DF1GD-15 | 2026-08-31 23:46:07 | 48.78636 | 10.31741 | 97° | 33km/h | 17622m | 4.8m/s | -54.0°C | 1.4% | 84.9hPa | 2.6V | 00:00:00 | 00:00:00 | 00:00:00 | |
| DJTTGO | 2026-08-31 23:46:05 | 48.78642 | 10.31716 | 118° | 38km/h | 17613m | 3.8m/s | -54.6°C | 1.4% | 85.0hPa | 2.6V | 00:00:00 | 00:00:00 | 00:00:00 | |
| DJ8HS-15 | 2026-08-31 23:46:04 | 48.78647 | 10.31703 | 121° | 51km/h | 17609m | 3.8m/s | -54.7°C | 4.6% | 85.0hPa | 2.6V | 00:00:00 | 01:16:43 | 00:00:00 | |
| DM0DOS-11 | 2026-08-31 23:46:03 | 48.78672 | 10.31579 | 96° | 53km/h | 17579m | 4.8m/s | -54.9°C | 4.8% | 85.5hPa | 2.6V | 08:30:00 | 01:16:36 | 00:00:00 | |
| DK7TD | 2026-08-31 23:45:57 | 48.78673 | 10.31579 | 96° | 53km/h | 17579m | 4.8m/s | -54.9°C | 1% | 85.5hPa | 2.6V | 18:12:15 | 01:16:36 | 00:00:00 | |
| DO3MHA-11 | 2026-08-31 23:45:57 | 48.78673 | 10.31579 | 97° | 53km/h | 17579m | 4.7m/s | -54.8°C | 4.8% | 85.5hPa | 2.6V | 00:00:00 | 01:16:36 | 00:00:00 | |
| OE5DRO-10 | 2026-08-31 23:45:55 | 48.78675 | 10.31537 | 93° | 51km/h | 17569m | 3.9m/s | -54.9°C | 4.9% | 85.6hPa | 2.7V | 00:00:00 | 00:00:00 | 00:00:00 | |
| AZAK | 2026-08-31 23:45:54 | 48.78677 | 10.31495 | 96° | 53km/h | 17560m | 4.7m/s | -55.0°C | 1.5% | 85.8hPa | 2.6V | 00:00:00 | 00:00:00 | 00:00:00 | |
| DO3MHA-12 | 2026-08-31 23:45:53 | 48.78677 | 10.31495 | 95° | 51km/h | 17560m | 4.7m/s | -54.9°C | 4.9% | 85.7hPa | 2.6V | 00:00:00 | 01:16:32 | 00:00:00 | |
| DM0DOS-11 | 2026-08-31 23:45:51 | 48.78683 | 10.31397 | 94° | 47km/h | 17536m | 4.5m/s | -54.9°C | 4.9% | 86.1hPa | 2.6V | 08:30:00 | 01:16:27 | 00:00:00 | |
| DK7TD | 2026-08-31 23:45:46 | 48.78684 | 10.31360 | 90° | 49km/h | 17528m | 5.2m/s | -54.9°C | 1.1% | 86.2hPa | 2.6V | 18:12:15 | 01:16:25 | 00:00:00 | |
| DK7TD | 2026-08-31 23:45:36 | 48.78676 | 10.31162 | 83° | 49km/h | 17480m | 5.2m/s | -54.7°C | 1.1% | 86.8hPa | 2.6V | 18:12:15 | 01:16:15 | 00:00:00 | |
| OE5DRO-10 | 2026-08-31 23:45:36 | 48.78676 | 10.31162 | 83° | 47km/h | 17480m | 5.1m/s | -54.7°C | 4.8% | 86.8hPa | 2.6V | 00:00:00 | 00:00:00 | 00:00:00 | |
| BIOWL1-15 | 2026-08-31 23:45:36 | 48.78667 | 10.30988 | 89° | 53km/h | 17437m | 4.4m/s | 0°C | 0% | 0hPa | 2.7V | 18:12:15 | 01:16:06 | 00:00:00 | |
| NBG1-10 | 2026-08-31 23:45:34 | 48.78673 | 10.31125 | 84° | 46km/h | 17471m | 4.9m/s | -54.7°C | 4.8% | 86.9hPa | 2.6V | 00:00:00 | 01:16:13 | 00:00:00 | |
| DO3MHA-12 | 2026-08-31 23:45:33 | 48.78672 | 10.31107 | 83° | 51km/h | 17466m | 4.9m/s | -54.6°C | 4.8% | 87.0hPa | 2.6V | 00:00:00 | 01:16:12 | 00:00:00 | |
| DB0UT-7 | 2026-08-31 23:45:31 | 48.78669 | 10.31069 | 85° | 46km/h | 17457m | 5.3m/s | -54.6°C | 4.8% | 87.1hPa | 2.6V | 00:00:00 | 01:16:10 | 00:00:00 | |
| DM0DOS-11 | 2026-08-31 23:45:30 | 48.78667 | 10.31008 | 88° | 53km/h | 17442m | 4.8m/s | -54.6°C | 4.8% | 87.3hPa | 2.6V | 08:30:00 | 01:16:07 | 00:00:00 | |
| DK7TD | 2026-08-31 23:45:25 | 48.78667 | 10.30949 | 91° | 51km/h | 17428m | 3.8m/s | -54.5°C | 1.1% | 87.5hPa | 2.6V | 18:12:15 | 01:16:04 | 00:00:00 | |
| DJ8HS-15 | 2026-08-31 23:45:24 | 48.78667 | 10.30930 | 92° | 46km/h | 17424m | 5.2m/s | -54.4°C | 4.7% | 87.6hPa | 2.6V | 00:00:00 | 01:16:03 | 00:00:00 | |
| DM0DOS-11 | 2026-08-31 23:45:23 | 48.78664 | 10.30816 | 83° | 44km/h | 17391m | 5m/s | -54.5°C | 4.8% | 88hPa | 2.7V | 08:30:00 | 01:15:56 | 00:00:00 | |
| BIOWL1-15 | 2026-08-31 23:45:23 | 48.78667 | 10.30912 | 90° | 44km/h | 17418m | 4.9m/s | 0°C | 0% | 0hPa | 2.6V | 18:12:15 | 01:16:02 | 00:00:00 | |
| HSKMA3-T | 2026-08-31 23:45:22 | 48.78667 | 10.30897 | 89° | 40km/h | 17414m | 3.9m/s | -54.4°C | 1% | 0hPa | 2.7V | 18:12:15 | 01:16:01 | 00:00:00 | |
| DK7TD | 2026-08-31 23:45:14 | 48.78660 | 10.30761 | 85° | 49km/h | 17376m | 3.9m/s | -54.4°C | 1.1% | 88.3hPa | 2.6V | 18:12:15 | 01:15:53 | 00:00:00 | |
| BIOWL1-15 | 2026-08-31 23:45:12 | 48.78656 | 10.30706 | 84° | 47km/h | 17363m | 4.1m/s | 0°C | 0% | 0hPa | 2.7V | 18:12:15 | 01:15:50 | 00:00:00 | |
| DM0DOS-11 | 2026-08-31 23:45:11 | 48.78653 | 10.30653 | 82° | 44km/h | 17348m | 5.7m/s | -54.3°C | 4.7% | 88.6hPa | 2.6V | 08:30:00 | 01:15:47 | 00:00:00 | |
| HSKMA3-T | 2026-08-31 23:45:10 | 48.78655 | 10.30688 | 84° | 47km/h | 17358m | 4.8m/s | -54.3°C | 1% | 0hPa | 2.6V | 18:12:15 | 01:15:49 | 00:00:00 | |
| DK7TD | 2026-08-31 23:45:03 | 48.78645 | 10.30575 | 84° | 42km/h | 17324m | 4.9m/s | -54.3°C | 1% | 89hPa | 2.6V | 18:12:15 | 01:15:42 | 00:00:00 | |
| HSKMA3-T | 2026-08-31 23:44:59 | 48.78640 | 10.30509 | 80° | 47km/h | 17305m | 4.6m/s | 0°C | 0% | 0hPa | 2.7V | 18:12:15 | 01:15:38 | 00:00:00 | |
| DK7TD | 2026-08-31 23:44:53 | 48.78626 | 10.30407 | 81° | 42km/h | 17278m | 4.2m/s | -54°C | 1% | 89.7hPa | 2.7V | 18:12:15 | 01:15:32 | 00:00:00 | |
| HSKMA3-T | 2026-08-31 23:44:48 | 48.78612 | 10.30327 | 74° | 49km/h | 17253m | 4.6m/s | 0°C | 0% | 0hPa | 2.7V | 18:12:15 | 01:15:27 | 00:00:00 | |
| DO3MHA-11 | 2026-08-31 23:44:47 | 48.78608 | 10.30308 | 73° | 47km/h | 17248m | 5.4m/s | -53.9°C | 4.6% | 90.0hPa | 2.7V | 00:00:00 | 01:15:26 | 00:00:00 | |
| DB0NH | 2026-08-31 23:44:46 | 48.78604 | 10.30290 | 73° | 46km/h | 17243m | 4.7m/s | -54.0°C | 4.7% | 90.1hPa | 2.7V | 00:00:00 | 01:15:25 | 00:00:00 | |
| DF1GD-15 | 2026-08-31 23:44:45 | 48.78605 | 10.30290 | 73° | 53km/h | 17243m | 4.8m/s | -54.0°C | 1.5% | 90.1hPa | 2.7V | 00:00:00 | 00:00:00 | 00:00:00 | |
| DJ8HS-15 | 2026-08-31 23:44:44 | 48.78597 | 10.30251 | 78° | 44km/h | 17235m | 5.5m/s | -54.0°C | 4.7% | 90.2hPa | 2.7V | 00:00:00 | 01:15:23 | 00:00:00 | |
| DM0DOS-11 | 2026-08-31 23:44:43 | 48.78584 | 10.30151 | 75° | 44km/h | 17204m | 4.8m/s | -53.9°C | 4.8% | 90.7hPa | 2.7V | 08:30:00 | 01:15:17 | 00:00:00 | |
| DK7TD | 2026-08-31 23:44:42 | 48.78593 | 10.30215 | 81° | 46km/h | 17224m | 5.4m/s | -54°C | 1% | 90.4hPa | 2.6V | 18:12:15 | 01:15:21 | 00:00:00 | |
| DK7TD | 2026-08-31 23:44:32 | 48.78556 | 10.30054 | 70° | 47km/h | 17174m | 4.8m/s | -53.7°C | 1% | 91.1hPa | 2.6V | 18:12:15 | 01:15:11 | 00:00:00 | |
| DM0DOS-11 | 2026-08-31 23:44:31 | 48.78544 | 10.29992 | 70° | 37km/h | 17155m | 4.9m/s | -53.6°C | 4.6% | 91.3hPa | 2.7V | 08:30:00 | 01:15:07 | 00:00:00 | |
| DB0UT-7 | 2026-08-31 23:44:31 | 48.78552 | 10.30037 | 75° | 46km/h | 17170m | 4.0m/s | -53.6°C | 4.6% | 91.1hPa | 2.6V | 00:00:00 | 01:15:10 | 00:00:00 | |
| DF7PN | 2026-08-31 23:44:30 | 48.78547 | 10.30006 | 73° | 38km/h | 17160m | 5.4m/s | -53.6°C | 1.4% | 91.2hPa | 2.7V | 00:00:00 | 00:00:00 | 00:00:00 | |
| NBG1-10 | 2026-08-31 23:44:28 | 48.78544 | 10.29992 | 71° | 46km/h | 17155m | 4.8m/s | -53.5°C | 4.6% | 91.3hPa | 2.7V | 00:00:00 | 01:15:07 | 00:00:00 | |
| DO3MHA-11 | 2026-08-31 23:44:27 | 48.78540 | 10.29979 | 67° | 46km/h | 17150m | 4.8m/s | -53.5°C | 4.6% | 91.4hPa | 2.7V | 00:00:00 | 01:15:06 | 00:00:00 | |
| DF1GD-15 | 2026-08-31 23:44:25 | 48.78536 | 10.29965 | 66° | 40km/h | 17145m | 5.3m/s | -53.5°C | 1.5% | 91.5hPa | 2.6V | 00:00:00 | 00:00:00 | 00:00:00 | |
| DJ8HS-15 | 2026-08-31 23:44:24 | 48.78527 | 10.29935 | 64° | 47km/h | 17136m | 3.9m/s | -53.4°C | 4.6% | 91.6hPa | 2.6V | 00:00:00 | 01:15:03 | 00:00:00 | |
| DM0DOS-11 | 2026-08-31 23:44:23 | 48.78492 | 10.29839 | 62° | 49km/h | 17105m | 4.8m/s | -53.1°C | 4.6% | 92hPa | 2.6V | 08:30:00 | 01:14:57 | 00:00:00 | |
| DK7TD | 2026-08-31 23:44:21 | 48.78509 | 10.29887 | 59° | 47km/h | 17121m | 5m/s | -53.3°C | 1% | 91.8hPa | 2.7V | 18:12:15 | 01:15:00 | 00:00:00 | |
| DK7TD | 2026-08-31 23:44:10 | 48.78450 | 10.29715 | 60° | 47km/h | 17065m | 3.9m/s | -52.8°C | 0.9% | 92.6hPa | 2.7V | 18:12:15 | 01:14:49 | 00:00:00 | |
| DM0DOS-11 | 2026-08-31 23:44:10 | 48.78437 | 10.29683 | 60° | 53km/h | 17056m | 5.5m/s | -52.8°C | 4.4% | 92.8hPa | 2.6V | 08:30:00 | 01:14:47 | 00:00:00 | |
| AZAK | 2026-08-31 23:44:10 | 48.78450 | 10.29715 | 61° | 47km/h | 17065m | 3.9m/s | -52.8°C | 1.4% | 92.6hPa | 2.6V | 00:00:00 | 00:00:00 | 00:00:00 | |
| DF3TZ-5 | 2026-08-31 23:44:09 | 48.78438 | 10.29683 | 60° | 51km/h | 17056m | 5.6m/s | -52.8°C | 1.4% | 92.8hPa | 2.6V | 00:00:00 | 00:00:00 | 00:00:00 | |
| OE3JTB-15 | 2026-08-31 23:44:08 | 48.78438 | 10.29683 | 61° | 46km/h | 17056m | 5.5m/s | -52.7°C | 4.4% | 92.7hPa | 2.6V | 00:00:00 | 00:00:00 | 00:00:00 | |
| DO3MHA-11 | 2026-08-31 23:44:07 | 48.78431 | 10.29665 | 62° | 46km/h | 17051m | 4.1m/s | -52.7°C | 4.4% | 92.8hPa | 2.6V | 00:00:00 | 01:14:46 | 00:00:00 | |
| OE5DRO-10 | 2026-08-31 23:44:05 | 48.78418 | 10.29630 | 62° | 46km/h | 17041m | 4.4m/s | -52.6°C | 4.4% | 92.9hPa | 2.6V | 00:00:00 | 00:00:00 | 00:00:00 | |
| SONCRA | 2026-08-31 23:44:04 | 48.78406 | 10.29596 | 59° | 47km/h | 17031m | 4.4m/s | -52.7°C | 1.4% | 93.2hPa | 2.6V | 00:00:00 | 00:00:00 | 00:00:00 | |
| DO3MHA-12 | 2026-08-31 23:44:03 | 48.78406 | 10.29596 | 60° | 42km/h | 17031m | 4.3m/s | -52.6°C | 4.4% | 93.1hPa | 2.6V | 00:00:00 | 01:14:42 | 00:00:00 | |
| DO9HM | 2026-08-31 23:44:02 | 48.78406 | 10.29596 | 61° | 49km/h | 17031m | 4.4m/s | -52.7°C | 1.4% | 93.2hPa | 2.6V | 00:00:00 | 00:00:00 | 00:00:00 | |
| DB0UT-7 | 2026-08-31 23:44:01 | 48.78393 | 10.29567 | 55° | 46km/h | 17022m | 6.2m/s | -52.6°C | 4.4% | 93.2hPa | 2.6V | 00:00:00 | 00:00:00 | 00:00:00 | |
| DM0DOS-11 | 2026-08-31 23:44:00 | 48.78376 | 10.29534 | 55° | 35km/h | 17005m | 5.4m/s | -52.5°C | 4.4% | 93.5hPa | 2.6V | 08:30:00 | 01:14:37 | 00:00:00 | |
| DK7TD | 2026-08-31 23:44:00 | 48.78387 | 10.29555 | 51° | 37km/h | 17015m | 5.1m/s | -52.6°C | 0.9% | 93.3hPa | 2.7V | 18:12:15 | 01:14:39 | 00:00:00 | |
| DF7PN | 2026-08-31 23:43:58 | 48.78377 | 10.29534 | 55° | 35km/h | 17005m | 5.4m/s | -52.5°C | 1.3% | 93.5hPa | 2.6V | 00:00:00 | 00:00:00 | 00:00:00 | |
| DO3MHA-11 | 2026-08-31 23:43:57 | 48.78371 | 10.29522 | 59° | 49km/h | 17001m | 3.9m/s | -52.4°C | 4.4% | 93.5hPa | 2.6V | 00:00:00 | 01:14:36 | 00:00:00 | |
| DN1GJH-1 | 2026-08-31 23:43:56 | 48.78371 | 10.29522 | 59° | 38km/h | 17001m | 4.0m/s | -52.5°C | 1.4% | 93.6hPa | 2.6V | 00:00:00 | 00:00:00 | 00:00:00 | |
| NBG1-10 | 2026-08-31 23:43:55 | 48.78361 | 10.29496 | 58° | 47km/h | 16991m | 5.1m/s | -52.3°C | 4.3% | 93.7hPa | 2.6V | 00:00:00 | 01:14:34 | 00:00:00 | |
| DO3MHA-12 | 2026-08-31 23:43:53 | 48.78348 | 10.29464 | 61° | 49km/h | 16981m | 6.4m/s | -52.3°C | 4.3% | 93.8hPa | 2.6V | 00:00:00 | 01:14:32 | 00:00:00 | |
| AZAK | 2026-08-31 23:43:51 | 48.78327 | 10.29408 | 60° | 55km/h | 16966m | 5.9m/s | -52.5°C | 1.3% | 94.1hPa | 2.6V | 00:00:00 | 00:00:00 | 00:00:00 | |
| DM0DOS-11 | 2026-08-31 23:43:50 | 48.78312 | 10.29376 | 52° | 46km/h | 16956m | 3.6m/s | -52.4°C | 4.3% | 94.2hPa | 2.6V | 08:30:00 | 01:14:27 | 00:00:00 | |
| DK7TD | 2026-08-31 23:43:49 | 48.78320 | 10.29391 | 55° | 51km/h | 16960m | 4.8m/s | -52.5°C | 0.9% | 94.1hPa | 2.6V | 18:12:15 | 01:14:28 | 00:00:00 | |
| DL6DJ-15 | 2026-08-31 23:43:48 | 48.78305 | 10.29362 | 51° | 44km/h | 16952m | 4.9m/s | -52.4°C | 1.3% | 94.3hPa | 2.7V | 00:00:00 | 00:00:00 | 00:00:00 | |
| DO3MHA-11 | 2026-08-31 23:43:47 | 48.78305 | 10.29362 | 52° | 46km/h | 16952m | 4.8m/s | -52.4°C | 4.2% | 94.2hPa | 2.7V | 00:00:00 | 01:14:26 | 00:00:00 | |
| OE5DRO-10 | 2026-08-31 23:43:46 | 48.78299 | 10.29349 | 53° | 44km/h | 16947m | 5.5m/s | -52.3°C | 4.2% | 94.3hPa | 2.7V | 00:00:00 | 00:00:00 | 00:00:00 | |
| DJ8HS-15 | 2026-08-31 23:43:44 | 48.78286 | 10.29322 | 57° | 46km/h | 16937m | 5.5m/s | -52.2°C | 4.3% | 94.5hPa | 2.7V | 00:00:00 | 01:14:23 | 00:00:00 | |
| DO3MHA-12 | 2026-08-31 23:43:43 | 48.78279 | 10.29307 | 58° | 46km/h | 16931m | 5.6m/s | -52.2°C | 4.2% | 94.5hPa | 2.7V | 00:00:00 | 01:14:22 | 00:00:00 | |
| DO9HM | 2026-08-31 23:43:42 | 48.78279 | 10.29307 | 58° | 47km/h | 16931m | 5.7m/s | -52.2°C | 1.3% | 94.6hPa | 2.7V | 00:00:00 | 00:00:00 | 00:00:00 | |
| DM0DOS-11 | 2026-08-31 23:43:40 | 48.78257 | 10.29226 | 71° | 44km/h | 16906m | 6m/s | -52°C | 4.2% | 95hPa | 2.7V | 08:30:00 | 01:14:17 | 00:00:00 | |
| DK7TD | 2026-08-31 23:43:39 | 48.78260 | 10.29242 | 73° | 46km/h | 16911m | 3.9m/s | -52.1°C | 0.8% | 94.9hPa | 2.6V | 18:12:15 | 01:14:18 | 00:00:00 | |
| OE5DXL-15 | 2026-08-31 23:43:39 | 48.78260 | 10.29242 | 74° | 47km/h | 16911m | 3.9m/s | -52.0°C | 4.2% | 94.8hPa | 2.7V | 00:00:00 | 00:00:00 | 00:00:00 | |
| DF3TZ-5 | 2026-08-31 23:43:38 | 48.78253 | 10.29210 | 68° | 44km/h | 16901m | 5.3m/s | -52.0°C | 1.3% | 95.0hPa | 2.7V | 00:00:00 | 00:00:00 | 00:00:00 | |
| DO3MHA-11 | 2026-08-31 23:43:37 | 48.78253 | 10.29210 | 69° | 44km/h | 16901m | 5.2m/s | -52.0°C | 4.2% | 95.0hPa | 2.7V | 00:00:00 | 01:14:16 | 00:00:00 | |
| DN1GJH-1 | 2026-08-31 23:43:35 | 48.78249 | 10.29193 | 68° | 46km/h | 16896m | 4.2m/s | -52.0°C | 1.3% | 95.1hPa | 2.7V | 00:00:00 | 00:00:00 | 00:00:00 | |
| DO3MHA-12 | 2026-08-31 23:43:33 | 48.78237 | 10.29146 | 72° | 46km/h | 16882m | 4.2m/s | -51.9°C | 4.1% | 95.2hPa | 2.7V | 00:00:00 | 01:14:12 | 00:00:00 | |
| SONCRA | 2026-08-31 23:43:32 | 48.78233 | 10.29131 | 69° | 44km/h | 16877m | 5.6m/s | -51.9°C | 1.3% | 95.4hPa | 2.7V | 00:00:00 | 00:00:00 | 00:00:00 | |
| DB0UT-7 | 2026-08-31 23:43:31 | 48.78229 | 10.29115 | 67° | 47km/h | 16872m | 4.2m/s | -51.8°C | 4.1% | 95.4hPa | 2.7V | 00:00:00 | 01:14:10 | 00:00:00 | |
| AZAK | 2026-08-31 23:43:30 | 48.78221 | 10.29083 | 72° | 46km/h | 16863m | 5.5m/s | -51.9°C | 1.3% | 95.6hPa | 2.7V | 00:00:00 | 00:00:00 | 00:00:00 | |
| DM0DOS-11 | 2026-08-31 23:43:29 | 48.78215 | 10.29049 | 78° | 46km/h | 16853m | 4.3m/s | -52°C | 4.1% | 95.8hPa | 2.7V | 08:30:00 | 01:14:06 | 00:00:00 | |
| DK7TD | 2026-08-31 23:43:29 | 48.78221 | 10.29083 | 71° | 46km/h | 16862m | 5.5m/s | -51.9°C | 0.7% | 95.6hPa | 2.6V | 18:12:15 | 01:14:08 | 00:00:00 | |
| DO3MHA-11 | 2026-08-31 23:43:27 | 48.78214 | 10.29049 | 79° | 51km/h | 16853m | 4.2m/s | -52.0°C | 4.1% | 95.7hPa | 2.7V | 00:00:00 | 01:14:06 | 08:30:00 | |
| DJ8HS-15 | 2026-08-31 23:43:24 | 48.78206 | 10.28996 | 75° | 47km/h | 16838m | 4.5m/s | -52.2°C | 4.1% | 95.9hPa | 2.6V | 00:00:00 | 01:14:03 | 08:30:00 | |
| DO3MHA-12 | 2026-08-31 23:43:23 | 48.78202 | 10.28977 | 76° | 51km/h | 16833m | 5.5m/s | -52.3°C | 4.2% | 96.0hPa | 2.7V | 00:00:00 | 01:14:02 | 00:00:00 | |
| DO9HM | 2026-08-31 23:43:22 | 48.78199 | 10.28957 | 78° | 53km/h | 16828m | 5.3m/s | -52.5°C | 1.4% | 96.1hPa | 2.7V | 00:00:00 | 00:00:00 | 00:00:00 | |
| DM0DOS-11 | 2026-08-31 23:43:19 | 48.78185 | 10.28860 | 78° | 51km/h | 16804m | 5.4m/s | -52.5°C | 4.2% | 96.5hPa | 2.7V | 08:30:00 | 01:13:56 | 00:00:00 | |
| DK7TD | 2026-08-31 23:43:18 | 48.78188 | 10.28878 | 77° | 51km/h | 16809m | 4.1m/s | -52.5°C | 0.8% | 96.4hPa | 2.7V | 18:12:15 | 01:13:57 | 00:00:00 | |
| DM7RM-13 | 2026-08-31 23:43:18 | 48.78188 | 10.28878 | 78° | 51km/h | 16809m | 4.1m/s | -52.5°C | 1.4% | 96.4hPa | 2.7V | 00:00:00 | 00:00:00 | 00:00:00 | |
| DO3MHA-11 | 2026-08-31 23:43:17 | 48.78185 | 10.28860 | 79° | 46km/h | 16804m | 5.3m/s | -52.5°C | 4.2% | 96.4hPa | 2.7V | 00:00:00 | 01:13:56 | 00:00:00 | |
| DB0NH | 2026-08-31 23:43:16 | 48.78183 | 10.28840 | 81° | 42km/h | 16800m | 4.3m/s | -52.6°C | 4.2% | 96.5hPa | 2.7V | 00:00:00 | 01:13:55 | 00:00:00 | |
| DN1GJH-1 | 2026-08-31 23:43:15 | 48.78182 | 10.28840 | 82° | 51km/h | 16800m | 4.4m/s | -52.6°C | 1.4% | 96.6hPa | 2.7V | 00:00:00 | 00:00:00 | 00:00:00 | |
| DL1NUX | 2026-08-31 23:43:12 | 48.78177 | 10.28768 | 86° | 44km/h | 16780m | 4.8m/s | 0°C | 0% | 0hPa | 2.7V | 00:00:00 | 01:13:51 | 00:00:00 | |
| DM0DOS-11 | 2026-08-31 23:43:09 | 48.78176 | 10.28685 | 81° | 42km/h | 16757m | 4.2m/s | -53°C | 4.3% | 97.2hPa | 2.7V | 08:30:00 | 01:13:46 | 00:00:00 | |
| DK7TD | 2026-08-31 23:43:07 | 48.78176 | 10.28685 | 82° | 42km/h | 16757m | 4.2m/s | -53°C | 0.9% | 97.2hPa | 2.7V | 18:12:15 | 01:13:46 | 00:00:00 | |
| DF3TZ-5 | 2026-08-31 23:43:07 | 48.78174 | 10.28669 | 79° | 42km/h | 16752m | 5.0m/s | -53.0°C | 1.4% | 97.2hPa | 2.6V | 00:00:00 | 00:00:00 | 00:00:00 | |
| SO1NDE-10 | 2026-08-31 23:43:04 | 48.78169 | 10.28636 | 77° | 49km/h | 16743m | 3.9m/s | 0°C | 0% | 0hPa | 2.6V | 00:00:00 | 01:13:43 | 00:00:00 | |
| DO3MHA-12 | 2026-08-31 23:43:03 | 48.78167 | 10.28620 | 76° | 40km/h | 16738m | 5.2m/s | -52.9°C | 4.4% | 97.4hPa | 2.6V | 00:00:00 | 01:13:42 | 00:00:00 | |
| DL1NUX | 2026-08-31 23:43:02 | 48.78162 | 10.28590 | 79° | 40km/h | 16728m | 4.7m/s | 0°C | 0% | 0hPa | 2.6V | 00:00:00 | 01:13:40 | 00:00:00 | |
| SONCRA | 2026-08-31 23:43:02 | 48.78162 | 10.28590 | 79° | 38km/h | 16728m | 4.7m/s | -53.0°C | 1.4% | 97.6hPa | 2.6V | 00:00:00 | 00:00:00 | 00:00:00 | |
| DB0UT-7 | 2026-08-31 23:43:01 | 48.78162 | 10.28590 | 80° | 38km/h | 16729m | 4.6m/s | -52.9°C | 4.4% | 97.6hPa | 2.6V | 00:00:00 | 00:00:00 | 00:00:00 | |
| DM0DOS-11 | 2026-08-31 23:43:00 | 48.78160 | 10.28530 | 91° | 37km/h | 16709m | 4.6m/s | -53.2°C | 4.5% | 97.9hPa | 2.7V | 08:30:00 | 01:13:36 | 00:00:00 | |
| DK7TD | 2026-08-31 23:42:57 | 48.78160 | 10.28530 | 91° | 37km/h | 16709m | 4.6m/s | -53.2°C | 1% | 97.9hPa | 2.7V | 18:12:15 | 01:13:36 | 00:00:00 | |
| DF7PN | 2026-08-31 23:42:57 | 48.78160 | 10.28516 | 91° | 37km/h | 16704m | 4.2m/s | -53.3°C | 1.4% | 98.0hPa | 2.7V | 00:00:00 | 00:00:00 | 00:00:00 | |
| DB0ND-19 | 2026-08-31 23:42:51 | 48.78154 | 10.28422 | 73° | 38km/h | 16676m | 3.8m/s | -53.2°C | 1.4% | 98.4hPa | 2.7V | 00:00:00 | 00:00:00 | 00:00:00 | |
| DM0DOS-11 | 2026-08-31 23:42:49 | 48.78144 | 10.28377 | 73° | 40km/h | 16663m | 3.5m/s | -53.1°C | 4.3% | 98.6hPa | 2.7V | 08:30:00 | 01:13:26 | 00:00:00 | |
| DK7TD | 2026-08-31 23:42:46 | 48.78142 | 10.28363 | 77° | 38km/h | 16659m | 5m/s | -53.1°C | 0.9% | 98.7hPa | 2.6V | 18:12:15 | 01:13:25 | 00:00:00 | |
| BIOWL1-15 | 2026-08-31 23:42:46 | 48.78140 | 10.28337 | 91° | 33km/h | 16649m | 4.6m/s | 0°C | 0% | 0hPa | 2.6V | 18:12:15 | 01:13:23 | 00:00:00 | |
| DL6DJ-15 | 2026-08-31 23:42:45 | 48.78140 | 10.28349 | 83° | 33km/h | 16654m | 5.0m/s | -53.0°C | 1.4% | 98.7hPa | 2.7V | 00:00:00 | 00:00:00 | 00:00:00 | |
| OE5DRO-10 | 2026-08-31 23:42:44 | 48.78140 | 10.28336 | 92° | 37km/h | 16649m | 4.5m/s | -53.0°C | 4.4% | 98.7hPa | 2.7V | 00:00:00 | 00:00:00 | 00:00:00 | |
| DO3MHA-12 | 2026-08-31 23:42:43 | 48.78140 | 10.28323 | 96° | 38km/h | 16644m | 4.7m/s | -52.9°C | 4.4% | 98.8hPa | 2.7V | 00:00:00 | 01:13:22 | 00:00:00 | |
| DO9HM | 2026-08-31 23:42:41 | 48.78142 | 10.28295 | 96° | 38km/h | 16635m | 4.3m/s | -52.9°C | 1.4% | 99.0hPa | 2.7V | 00:00:00 | 00:00:00 | 00:00:00 | |
| DM0DOS-11 | 2026-08-31 23:42:39 | 48.78141 | 10.28236 | 85° | 40km/h | 16616m | 5.5m/s | -53°C | 4.4% | 99.3hPa | 2.7V | 08:30:00 | 01:13:16 | 00:00:00 | |
| DK7TD | 2026-08-31 23:42:36 | 48.78141 | 10.28221 | 87° | 40km/h | 16611m | 4.7m/s | -53.1°C | 0.9% | 99.4hPa | 2.6V | 18:12:15 | 01:13:15 | 00:00:00 | |
| BIOWL1-15 | 2026-08-31 23:42:34 | 48.78140 | 10.28192 | 91° | 35km/h | 16600m | 5.3m/s | 0°C | 0% | 0hPa | 2.6V | 18:12:15 | 01:13:13 | 00:00:00 | |
| OE3JTB-15 | 2026-08-31 23:42:34 | 48.78140 | 10.28192 | 91° | 47km/h | 16601m | 5.2m/s | -53.2°C | 4.5% | 99.5hPa | 2.6V | 00:00:00 | 00:00:00 | 00:00:00 | |
| DM0DOS-11 | 2026-08-31 23:42:33 | 48.78153 | 10.28087 | 95° | 35km/h | 16564m | 4.2m/s | -53.5°C | 4.5% | 100.1hPa | 2.6V | 08:30:00 | 01:13:05 | 00:00:00 | |
| DK7TD | 2026-08-31 23:42:25 | 48.78154 | 10.28073 | 94° | 38km/h | 16559m | 5.4m/s | -53.5°C | 1% | 100.1hPa | 2.6V | 18:12:15 | 01:13:04 | 00:00:00 | |
| BIOWL1-15 | 2026-08-31 23:42:23 | 48.78155 | 10.28023 | 91° | 46km/h | 16544m | 5.7m/s | 0°C | 0% | 0hPa | 2.7V | 18:12:15 | 01:13:01 | 00:00:00 | |
| DM0DOS-11 | 2026-08-31 23:42:21 | 48.78160 | 10.27929 | 95° | 51km/h | 16520m | 5.3m/s | -53.4°C | 4.5% | 100.8hPa | 2.7V | 08:30:00 | 01:12:56 | 00:00:00 | |
| DK7TD | 2026-08-31 23:42:14 | 48.78163 | 10.27874 | 94° | 47km/h | 16506m | 5.6m/s | -53.4°C | 0.9% | 101hPa | 2.6V | 18:12:15 | 01:12:53 | 00:00:00 | |
| BIOWL1-15 | 2026-08-31 23:42:14 | 48.78164 | 10.27838 | 93° | 46km/h | 16495m | 5.6m/s | 0°C | 0% | 0hPa | 2.7V | 18:12:15 | 01:12:51 | 00:00:00 | |
| DN1GJH-1 | 2026-08-31 23:42:13 | 48.78164 | 10.27856 | 95° | 47km/h | 16500m | 4.9m/s | -53.4°C | 1.5% | 101.1hPa | 2.7V | 00:00:00 | 00:00:00 | 00:00:00 | |
| DM0DOS-11 | 2026-08-31 23:42:10 | 48.78166 | 10.27747 | 92° | 51km/h | 16470m | 3.5m/s | -53.7°C | 4.6% | 101.6hPa | 2.7V | 08:30:00 | 01:12:46 | 00:00:00 | |
| DK7TD | 2026-08-31 23:42:04 | 48.78166 | 10.27686 | 88° | 55km/h | 16456m | 5m/s | -53.6°C | 1.1% | 101.8hPa | 2.6V | 18:12:15 | 01:12:43 | 00:00:00 | |
| DF1GD-15 | 2026-08-31 23:42:04 | 48.78166 | 10.27686 | 89° | 55km/h | 16456m | 5.0m/s | -53.6°C | 1.5% | 101.8hPa | 2.7V | 00:00:00 | 00:00:00 | 00:00:00 | |
| DO3MHA-12 | 2026-08-31 23:42:03 | 48.78165 | 10.27665 | 89° | 51km/h | 16451m | 5.3m/s | -53.5°C | 4.6% | 101.9hPa | 2.7V | 00:00:00 | 01:12:42 | 00:00:00 | |
| DB0UT-7 | 2026-08-31 23:42:01 | 48.78164 | 10.27623 | 86° | 51km/h | 16441m | 5.2m/s | -53.4°C | 4.6% | 102.0hPa | 2.7V | 00:00:00 | 00:00:00 | 00:00:00 | |
| DM0DOS-11 | 2026-08-31 23:42:00 | 48.78157 | 10.27548 | 84° | 49km/h | 16420m | 4.8m/s | -53.3°C | 4.6% | 102.3hPa | 2.7V | 08:30:00 | 01:12:36 | 00:00:00 | |
| DK7TD | 2026-08-31 23:41:53 | 48.78151 | 10.27470 | 83° | 53km/h | 16402m | 4.5m/s | -53.2°C | 1% | 102.7hPa | 2.7V | 18:12:15 | 01:12:32 | 00:00:00 | |
| DB0ND-19 | 2026-08-31 23:41:49 | 48.78145 | 10.27371 | 82° | 51km/h | 16377m | 4.8m/s | -53.0°C | 1.4% | 103.0hPa | 2.7V | 00:00:00 | 00:00:00 | 00:00:00 | |
| DM0DOS-11 | 2026-08-31 23:41:48 | 48.78143 | 10.27350 | 83° | 53km/h | 16373m | 4.6m/s | -53°C | 4.5% | 103.1hPa | 2.7V | 08:30:00 | 01:12:26 | 00:00:00 | |
| DK7TD | 2026-08-31 23:41:43 | 48.78138 | 10.27271 | 82° | 51km/h | 16352m | 5.2m/s | -52.8°C | 0.9% | 103.4hPa | 2.7V | 18:12:15 | 01:12:22 | 00:00:00 | |
| BIOWL1-15 | 2026-08-31 23:41:33 | 48.78124 | 10.26934 | 91° | 60km/h | 16267m | 4.9m/s | 0°C | 0% | 0hPa | 2.6V | 18:12:15 | 01:12:05 | 00:00:00 | |
| DK7TD | 2026-08-31 23:41:32 | 48.78125 | 10.27060 | 87° | 49km/h | 16297m | 4.6m/s | -52.8°C | 0.9% | 104.3hPa | 2.7V | 18:12:15 | 01:12:11 | 00:00:00 | |
| DK7TD | 2026-08-31 23:41:21 | 48.78127 | 10.26823 | 87° | 57km/h | 16242m | 4m/s | -53.2°C | 1% | 105.2hPa | 2.6V | 18:12:15 | 01:12:00 | 00:00:00 | |
| DM0DOS-11 | 2026-08-31 23:41:18 | 48.78124 | 10.26736 | 88° | 60km/h | 16223m | 4.7m/s | -53.2°C | 4.5% | 105.5hPa | 2.7V | 08:30:00 | 01:11:56 | 00:00:00 | |
| DK7TD | 2026-08-31 23:41:11 | 48.78123 | 10.26590 | 92° | 64km/h | 16194m | 4.2m/s | -53.3°C | 1% | 106hPa | 2.6V | 18:12:15 | 01:11:50 | 00:00:00 | |
| DM0DOS-11 | 2026-08-31 23:41:11 | 48.78122 | 10.26495 | 88° | 60km/h | 16176m | 5m/s | -53.2°C | 4.5% | 106.3hPa | 2.7V | 08:30:00 | 01:11:46 | 00:00:00 | |
| BIOWL1-15 | 2026-08-31 23:41:06 | 48.78121 | 10.26472 | 88° | 58km/h | 16171m | 4.4m/s | 0°C | 0% | 0hPa | 2.6V | 18:12:15 | 01:11:45 | 00:00:00 | |
| DK7TD | 2026-08-31 23:41:00 | 48.78115 | 10.26331 | 90° | 64km/h | 16142m | 4.2m/s | -53°C | 1% | 106.9hPa | 2.6V | 18:12:15 | 01:11:39 | 00:00:00 | |
| DK5PH-5 | 2026-08-31 23:41:00 | 48.78115 | 10.26331 | 90° | 57km/h | 16142m | 4.1m/s | -53.0°C | 4.5% | 106.8hPa | 2.7V | 00:00:00 | 01:11:39 | 00:00:00 | |
| DM0DOS-11 | 2026-08-31 23:40:58 | 48.78115 | 10.26258 | 90° | 60km/h | 16127m | 5.1m/s | -52.9°C | 4.5% | 107.1hPa | 2.7V | 08:30:00 | 01:11:36 | 00:00:00 | |
| DL1NUX | 2026-08-31 23:40:58 | 48.78114 | 10.26175 | 84° | 51km/h | 16108m | 4.6m/s | 0°C | 0% | 0hPa | 2.7V | 00:00:00 | 01:11:32 | 00:00:00 | |
| BIOWL1-15 | 2026-08-31 23:40:53 | 48.78114 | 10.26175 | 84° | 51km/h | 16108m | 4.6m/s | 0°C | 0% | 0hPa | 2.7V | 18:12:15 | 01:11:32 | 00:00:00 | |
| DF7PN | 2026-08-31 23:40:52 | 48.78112 | 10.26156 | 83° | 51km/h | 16104m | 4.3m/s | -52.8°C | 1.5% | 107.5hPa | 2.7V | 00:00:00 | 00:00:00 | 00:00:00 | |
| DM0DOS-11 | 2026-08-31 23:40:51 | 48.78106 | 10.26045 | 85° | 64km/h | 16080m | 4.5m/s | -52.7°C | 4.5% | 107.9hPa | 2.7V | 08:30:00 | 01:11:26 | 00:00:00 | |
| DK7TD | 2026-08-31 23:40:50 | 48.78108 | 10.26092 | 84° | 60km/h | 16089m | 5.8m/s | -52.8°C | 1% | 107.7hPa | 2.6V | 18:12:15 | 01:11:28 | 00:00:00 | |
| DB0ND-19 | 2026-08-31 23:40:47 | 48.78105 | 10.26021 | 88° | 62km/h | 16075m | 4.6m/s | -52.7°C | 1.4% | 108.0hPa | 2.7V | 00:00:00 | 00:00:00 | 00:00:00 | |
| DB0NH | 2026-08-31 23:40:46 | 48.78105 | 10.26021 | 89° | 53km/h | 16075m | 4.6m/s | -52.7°C | 4.4% | 107.9hPa | 2.7V | 00:00:00 | 01:11:25 | 00:00:00 | |
| AZAK | 2026-08-31 23:40:45 | 48.78104 | 10.25975 | 90° | 57km/h | 16067m | 4.4m/s | -52.6°C | 1.5% | 108.1hPa | 2.7V | 00:00:00 | 00:00:00 | 00:00:00 | |
| DJ8HS-15 | 2026-08-31 23:40:44 | 48.78104 | 10.25975 | 90° | 53km/h | 16067m | 4.3m/s | -52.6°C | 4.5% | 108.1hPa | 2.7V | 00:00:00 | 01:11:23 | 00:00:00 | |
| DO3MHA-12 | 2026-08-31 23:40:43 | 48.78104 | 10.25953 | 87° | 53km/h | 16062m | 5.0m/s | -52.6°C | 4.5% | 108.1hPa | 2.7V | 00:00:00 | 01:11:22 | 00:00:00 | |
| DL6DJ-15 | 2026-08-31 23:40:41 | 48.78101 | 10.25895 | 86° | 49km/h | 16048m | 4.9m/s | -52.5°C | 1.4% | 108.4hPa | 2.7V | 00:00:00 | 00:00:00 | 00:00:00 | |
| DM0DOS-11 | 2026-08-31 23:40:40 | 48.78097 | 10.25838 | 79° | 51km/h | 16035m | 4.9m/s | -52.5°C | 4.3% | 108.7hPa | 2.7V | 08:30:00 | 01:11:16 | 00:00:00 | |
| DK7TD | 2026-08-31 23:40:39 | 48.78100 | 10.25876 | 86° | 49km/h | 16044m | 3.5m/s | -52.5°C | 0.9% | 108.5hPa | 2.6V | 18:12:15 | 01:11:18 | 00:00:00 | |
| OE5DXL-15 | 2026-08-31 23:40:39 | 48.78100 | 10.25876 | 86° | 51km/h | 16044m | 3.5m/s | -52.5°C | 4.4% | 108.5hPa | 2.7V | 00:00:00 | 00:00:00 | 00:00:00 | |
| PG1ADW-2 | 2026-08-31 23:40:38 | 48.78099 | 10.25857 | 84° | 53km/h | 16040m | 4.7m/s | -52.4°C | 4.3% | 108.5hPa | 2.7V | 00:00:00 | 00:00:00 | 00:00:00 | |
| OE3JTB-15 | 2026-08-31 23:40:35 | 48.78092 | 10.25798 | 81° | 53km/h | 16026m | 4.6m/s | -52.4°C | 4.3% | 108.8hPa | 2.7V | 00:00:00 | 01:11:14 | 00:00:00 | |
| DO3MHA-12 | 2026-08-31 23:40:33 | 48.78088 | 10.25756 | 86° | 53km/h | 16018m | 3.5m/s | -52.3°C | 4.3% | 108.9hPa | 2.7V | 00:00:00 | 01:11:12 | 00:00:00 | |
| DB0UT-7 | 2026-08-31 23:40:31 | 48.78086 | 10.25714 | 87° | 53km/h | 16009m | 4.1m/s | -52.3°C | 4.3% | 109.0hPa | 2.7V | 00:00:00 | 01:11:10 | 00:00:00 | |
| DM0DOS-11 | 2026-08-31 23:40:30 | 48.78086 | 10.25633 | 89° | 51km/h | 15990m | 5.6m/s | -52.2°C | 4.3% | 109.4hPa | 2.7V | 08:30:00 | 01:11:06 | 00:00:00 | |
| DK7TD | 2026-08-31 23:40:28 | 48.78086 | 10.25653 | 91° | 53km/h | 15995m | 4.3m/s | -52.2°C | 0.9% | 109.3hPa | 2.7V | 18:12:15 | 01:11:07 | 00:00:00 | |
| DO3MHA-11 | 2026-08-31 23:40:27 | 48.78086 | 10.25633 | 90° | 51km/h | 15990m | 5.5m/s | -52.1°C | 4.3% | 109.4hPa | 2.7V | 00:00:00 | 01:11:06 | 08:30:00 | |
| SONCRA | 2026-08-31 23:40:26 | 48.78085 | 10.25594 | 85° | 51km/h | 15981m | 4.0m/s | -52.1°C | 1.4% | 109.6hPa | 2.6V | 00:00:00 | 00:00:00 | 00:00:00 | |
| DJ8HS-15 | 2026-08-31 23:40:24 | 48.78084 | 10.25574 | 86° | 53km/h | 15977m | 5.1m/s | -52.1°C | 4.3% | 109.6hPa | 2.6V | 00:00:00 | 01:11:03 | 08:30:00 | |
| DO3MHA-12 | 2026-08-31 23:40:23 | 48.78083 | 10.25554 | 86° | 51km/h | 15972m | 4.4m/s | -52.1°C | 4.3% | 109.7hPa | 2.7V | 00:00:00 | 01:11:02 | 00:00:00 | |
| DF7PN | 2026-08-31 23:40:21 | 48.78081 | 10.25514 | 85° | 49km/h | 15963m | 5.3m/s | -52.2°C | 1.4% | 109.9hPa | 2.7V | 00:00:00 | 00:00:00 | 00:00:00 | |
| DF1GD-15 | 2026-08-31 23:40:20 | 48.78081 | 10.25514 | 86° | 51km/h | 15963m | 5.3m/s | -52.2°C | 1.5% | 109.9hPa | 2.7V | 00:00:00 | 00:00:00 | 00:00:00 | |
| DM0DOS-11 | 2026-08-31 23:40:19 | 48.78079 | 10.25438 | 91° | 51km/h | 15945m | 4.4m/s | -52.5°C | 4.3% | 110.2hPa | 2.7V | 08:30:00 | 01:10:56 | 00:00:00 | |
| DK7TD | 2026-08-31 23:40:19 | 48.78079 | 10.25457 | 90° | 51km/h | 15950m | 5.1m/s | -52.4°C | 0.9% | 110.1hPa | 2.7V | 18:12:15 | 01:10:57 | 00:00:00 | |
| AM1SDL-15 | 2026-08-31 23:40:19 | 48.78079 | 10.25457 | 91° | 51km/h | 15950m | 5.1m/s | 0°C | 0% | 0hPa | 2.7V | 00:00:00 | 01:10:57 | 00:00:00 | |
| PG1ADW-2 | 2026-08-31 23:40:18 | 48.78079 | 10.25457 | 91° | 55km/h | 15950m | 5.1m/s | -52.4°C | 4.3% | 110.0hPa | 2.7V | 00:00:00 | 00:00:00 | 00:00:00 | |
| DO3MHA-11 | 2026-08-31 23:40:17 | 48.78079 | 10.25438 | 92° | 51km/h | 15945m | 4.3m/s | -52.4°C | 4.3% | 110.1hPa | 2.7V | 00:00:00 | 01:10:56 | 00:00:00 | |
| DB0ND-19 | 2026-08-31 23:40:16 | 48.78080 | 10.25399 | 94° | 49km/h | 15936m | 4.4m/s | -52.6°C | 1.5% | 110.3hPa | 2.7V | 00:00:00 | 00:00:00 | 00:00:00 | |
| DO3MHA-12 | 2026-08-31 23:40:13 | 48.78083 | 10.25361 | 99° | 57km/h | 15928m | 4.8m/s | -52.5°C | 4.4% | 110.4hPa | 2.7V | 00:00:00 | 01:10:52 | 08:30:00 | |
| OE5DRO-10 | 2026-08-31 23:40:12 | 48.78085 | 10.25342 | 99° | 58km/h | 15923m | 4.1m/s | -52.5°C | 4.4% | 110.5hPa | 2.7V | 00:00:00 | 00:00:00 | 00:00:00 | |
| DM7RM-13 | 2026-08-31 23:40:11 | 48.78086 | 10.25322 | 96° | 53km/h | 15919m | 3.9m/s | -52.5°C | 1.5% | 110.6hPa | 2.7V | 00:00:00 | 00:00:00 | 00:00:00 | |
| DM0DOS-11 | 2026-08-31 23:40:10 | 48.78084 | 10.25238 | 85° | 58km/h | 15901m | 5.1m/s | -52.4°C | 4.4% | 110.9hPa | 2.7V | 08:30:00 | 01:10:46 | 00:00:00 | |
| DK7TD | 2026-08-31 23:40:08 | 48.78086 | 10.25260 | 85° | 57km/h | 15905m | 5m/s | -52.4°C | 0.9% | 110.8hPa | 2.7V | 18:12:15 | 01:10:47 | 00:00:00 | |
| AM1SDL-15 | 2026-08-31 23:40:07 | 48.78083 | 10.25216 | 87° | 60km/h | 15896m | 4.1m/s | 0°C | 0% | 0hPa | 2.6V | 00:00:00 | 01:10:45 | 08:30:00 | |
| OE3JTB-15 | 2026-08-31 23:40:06 | 48.78083 | 10.25216 | 87° | 62km/h | 15896m | 4.1m/s | -52.3°C | 4.4% | 111.0hPa | 2.6V | 00:00:00 | 00:00:00 | 08:30:00 | |
| OE5WHR-10 | 2026-08-31 23:40:05 | 48.78082 | 10.25192 | 86° | 60km/h | 15892m | 4.3m/s | -52.3°C | 4.4% | 111.0hPa | 2.6V | 00:00:00 | 01:10:44 | 00:00:00 | |
| NBG1-10 | 2026-08-31 23:40:04 | 48.78081 | 10.25170 | 85° | 64km/h | 15887m | 5.5m/s | -52.3°C | 4.3% | 111.1hPa | 2.6V | 00:00:00 | 01:10:43 | 00:00:00 | |
| DO3MHA-12 | 2026-08-31 23:40:03 | 48.78079 | 10.25148 | 84° | 60km/h | 15882m | 4.3m/s | -52.3°C | 4.3% | 111.2hPa | 2.7V | 00:00:00 | 01:10:42 | 00:00:00 | |
| DK5PH-5 | 2026-08-31 23:40:00 | 48.78076 | 10.25083 | 87° | 64km/h | 15869m | 2.9m/s | -52.2°C | 4.3% | 111.4hPa | 2.7V | 00:00:00 | 01:10:39 | 00:00:00 | |
| DF1GD-15 | 2026-08-31 23:39:59 | 48.78076 | 10.25083 | 88° | 58km/h | 15869m | 2.9m/s | -52.2°C | 1.5% | 111.5hPa | 2.7V | 00:00:00 | 00:00:00 | 00:00:00 | |
| DM0DOS-11 | 2026-08-31 23:39:58 | 48.78072 | 10.25014 | 84° | 62km/h | 15856m | 4.2m/s | -52.1°C | 4.3% | 111.7hPa | 2.7V | 08:30:00 | 01:10:36 | 00:00:00 | |
| DK7TD | 2026-08-31 23:39:57 | 48.78072 | 10.25014 | 84° | 62km/h | 15856m | 4.2m/s | 0°C | 0% | 111.7hPa | 2.7V | 18:12:15 | 01:10:36 | 00:00:00 | |
| SONCRA | 2026-08-31 23:39:55 | 48.78067 | 10.24942 | 81° | 64km/h | 15844m | 5.0m/s | -52.0°C | 1.4% | 111.9hPa | 2.7V | 00:00:00 | 00:00:00 | 00:00:00 | |
| DL1ZP-14 | 2026-08-31 23:39:53 | 48.78061 | 10.24892 | 79° | 64km/h | 15835m | 4.1m/s | -52.0°C | 1.4% | 112.1hPa | 2.7V | 00:00:00 | 00:00:00 | 00:00:00 | |
| DM0DOS-11 | 2026-08-31 23:39:52 | 48.78051 | 10.24773 | 82° | 62km/h | 15814m | 3.8m/s | -52°C | 4.2% | 112.4hPa | 2.7V | 08:30:00 | 01:10:26 | 00:00:00 | |
| DK7TD | 2026-08-31 23:39:47 | 48.78049 | 10.24749 | 85° | 62km/h | 15810m | 4.1m/s | 0°C | 0% | 112.5hPa | 2.6V | 18:12:15 | 01:10:25 | 00:00:00 | |
| DB0ND-19 | 2026-08-31 23:39:45 | 48.78047 | 10.24702 | 89° | 60km/h | 15801m | 3.5m/s | -52.0°C | 1.4% | 112.7hPa | 2.7V | 00:00:00 | 00:00:00 | 00:00:00 | |
| DJ8HS-15 | 2026-08-31 23:39:44 | 48.78047 | 10.24702 | 90° | 66km/h | 15801m | 3.4m/s | -51.9°C | 4.2% | 112.6hPa | 2.7V | 00:00:00 | 01:10:23 | 00:00:00 | |
| DO3MHA-12 | 2026-08-31 23:39:43 | 48.78047 | 10.24678 | 88° | 66km/h | 15798m | 3.5m/s | -51.9°C | 4.1% | 112.7hPa | 2.7V | 00:00:00 | 01:10:22 | 00:00:00 | |
| DM0DOS-11 | 2026-08-31 23:39:40 | 48.78035 | 10.24527 | 79° | 68km/h | 15772m | 5.3m/s | -52.1°C | 4.1% | 113.2hPa | 2.7V | 08:30:00 | 01:10:16 | 00:00:00 | |
| DK7TD | 2026-08-31 23:39:36 | 48.78032 | 10.24502 | 79° | 68km/h | 15768m | 3.6m/s | 0°C | 0% | 0hPa | 2.6V | 18:12:15 | 01:10:15 | 00:00:00 | |
| OE5DRO-10 | 2026-08-31 23:39:34 | 48.78026 | 10.24452 | 84° | 66km/h | 15760m | 4.1m/s | -52.3°C | 4.3% | 113.3hPa | 2.7V | 00:00:00 | 00:00:00 | 00:00:00 | |
| DO3MHA-12 | 2026-08-31 23:39:33 | 48.78024 | 10.24427 | 85° | 66km/h | 15757m | 2.8m/s | -52.4°C | 4.3% | 113.4hPa | 2.7V | 00:00:00 | 01:10:12 | 00:00:00 | |
| NBG1-10 | 2026-08-31 23:39:31 | 48.78021 | 10.24378 | 84° | 69km/h | 15748m | 4.3m/s | -52.5°C | 4.3% | 113.5hPa | 2.7V | 00:00:00 | 01:10:10 | 00:00:00 | |
| DK5PH-5 | 2026-08-31 23:39:30 | 48.78019 | 10.24353 | 84° | 69km/h | 15744m | 3.2m/s | -52.5°C | 4.3% | 113.6hPa | 2.7V | 00:00:00 | 01:10:09 | 00:00:00 | |
| DF3TZ-5 | 2026-08-31 23:39:29 | 48.78017 | 10.24329 | 83° | 64km/h | 15740m | 4.3m/s | -52.5°C | 1.4% | 113.7hPa | 2.7V | 00:00:00 | 00:00:00 | 00:00:00 | |
| DM0DOS-11 | 2026-08-31 23:39:28 | 48.78014 | 10.24279 | 85° | 68km/h | 15733m | 2.9m/s | -52.6°C | 4.3% | 113.8hPa | 2.7V | 08:30:00 | 01:10:06 | 00:00:00 | |
| DK7TD | 2026-08-31 23:39:26 | 48.78013 | 10.24253 | 83° | 68km/h | 15729m | 4.2m/s | 0°C | 0% | 0hPa | 2.6V | 18:12:15 | 01:10:05 | 00:00:00 | |
| SONCRA | 2026-08-31 23:39:24 | 48.78004 | 10.24178 | 78° | 66km/h | 15717m | 4.2m/s | -53.1°C | 1.5% | 114.1hPa | 2.6V | 00:00:00 | 00:00:00 | 00:00:00 | |
| DO3MHA-12 | 2026-08-31 23:39:23 | 48.78004 | 10.24177 | 79° | 69km/h | 15717m | 4.2m/s | -53.0°C | 4.4% | 114.1hPa | 2.6V | 00:00:00 | 01:10:02 | 00:00:00 | |
| OE5WHR-10 | 2026-08-31 23:39:22 | 48.78001 | 10.24152 | 81° | 69km/h | 15713m | 4.0m/s | -53.1°C | 4.4% | 114.1hPa | 2.6V | 00:00:00 | 00:00:00 | 00:00:00 | |
| DL1ZP-14 | 2026-08-31 23:39:21 | 48.77999 | 10.24127 | 82° | 66km/h | 15709m | 3.7m/s | -53.1°C | 1.5% | 114.3hPa | 2.6V | 00:00:00 | 00:00:00 | 00:00:00 | |
| DM0DOS-11 | 2026-08-31 23:39:20 | 48.77994 | 10.24026 | 90° | 71km/h | 15693m | 4.3m/s | -53.3°C | 4.4% | 114.6hPa | 2.7V | 08:30:00 | 01:09:56 | 00:00:00 | |
| DF7PN | 2026-08-31 23:39:19 | 48.77994 | 10.24052 | 88° | 66km/h | 15697m | 4.4m/s | -53.3°C | 1.5% | 114.5hPa | 2.7V | 00:00:00 | 00:00:00 | 00:00:00 | |
| PG1ADW-2 | 2026-08-31 23:39:18 | 48.77994 | 10.24052 | 89° | 73km/h | 15697m | 4.3m/s | -53.2°C | 4.4% | 114.4hPa | 2.7V | 00:00:00 | 00:00:00 | 00:00:00 | |
| DO3MHA-11 | 2026-08-31 23:39:17 | 48.77994 | 10.24026 | 91° | 73km/h | 15693m | 4.2m/s | -53.2°C | 4.4% | 114.5hPa | 2.7V | 00:00:00 | 01:09:56 | 00:00:00 | |
| DB0NH | 2026-08-31 23:39:16 | 48.77995 | 10.23998 | 92° | 73km/h | 15689m | 3.5m/s | -53.2°C | 4.4% | 114.6hPa | 2.7V | 00:00:00 | 01:09:55 | 00:00:00 | |
| DK7TD | 2026-08-31 23:39:16 | 48.77995 | 10.23970 | 91° | 73km/h | 15685m | 4.1m/s | 0°C | 0% | 0hPa | 2.6V | 18:12:15 | 01:09:54 | 00:00:00 | |
| DO9HM | 2026-08-31 23:39:15 | 48.77995 | 10.23970 | 92° | 73km/h | 15685m | 4.1m/s | -53.3°C | 1.5% | 114.7hPa | 2.7V | 00:00:00 | 00:00:00 | 00:00:00 | |
| DO3MHA-12 | 2026-08-31 23:39:13 | 48.77996 | 10.23914 | 91° | 73km/h | 15677m | 3.6m/s | -53.2°C | 4.5% | 114.8hPa | 2.7V | 00:00:00 | 01:09:52 | 00:00:00 | |
| DM0DOS-11 | 2026-08-31 23:39:09 | 48.77990 | 10.23744 | 84° | 69km/h | 15654m | 4.4m/s | -53.3°C | 4.5% | 115.2hPa | 2.7V | 08:30:00 | 01:09:46 | 00:00:00 | |
| DK7TD | 2026-08-31 23:39:05 | 48.77986 | 10.23690 | 84° | 71km/h | 15646m | 3.2m/s | 0°C | 0% | 0hPa | 2.6V | 18:12:15 | 01:09:44 | 00:00:00 | |
| BIOWL1-15 | 2026-08-31 23:39:00 | 48.77975 | 10.23553 | 84° | 75km/h | 15626m | 3.3m/s | -53.7°C | 1.1% | 0hPa | 2.6V | 18:12:15 | 01:09:39 | 00:00:00 | |
| DK5PH-5 | 2026-08-31 23:39:00 | 48.77975 | 10.23553 | 85° | 73km/h | 15626m | 3.3m/s | -53.6°C | 4.6% | 115.7hPa | 2.6V | 00:00:00 | 01:09:39 | 00:00:00 | |
| DF1GD-15 | 2026-08-31 23:38:59 | 48.77973 | 10.23525 | 86° | 71km/h | 15622m | 4.6m/s | -53.7°C | 1.6% | 115.8hPa | 2.7V | 00:00:00 | 00:00:00 | 00:00:00 | |
| DM0DOS-11 | 2026-08-31 23:38:58 | 48.77970 | 10.23471 | 86° | 69km/h | 15614m | 4.7m/s | -53.7°C | 4.6% | 116hPa | 2.7V | 08:30:00 | 01:09:36 | 00:00:00 | |
| DK7TD | 2026-08-31 23:38:54 | 48.77966 | 10.23393 | 83° | 66km/h | 15603m | 4.5m/s | 0°C | 0% | 0hPa | 2.6V | 18:12:15 | 01:09:33 | 00:00:00 | |
| BIOWL1-15 | 2026-08-31 23:38:48 | 48.77928 | 10.23179 | 72° | 75km/h | 15571m | 3.7m/s | -53.8°C | 1.1% | 0hPa | 2.6V | 18:12:15 | 01:09:25 | 00:00:00 | |
| DF7PN | 2026-08-31 23:38:48 | 48.77934 | 10.23207 | 71° | 75km/h | 15575m | 4.3m/s | -53.8°C | 1.6% | 116.7hPa | 2.7V | 00:00:00 | 00:00:00 | 00:00:00 | |
| DK7TD | 2026-08-31 23:38:43 | 48.77914 | 10.23098 | 76° | 73km/h | 15559m | 3.6m/s | 0°C | 0% | 0hPa | 2.7V | 18:12:15 | 01:09:22 | 00:00:00 | |
| BIOWL1-15 | 2026-08-31 23:38:40 | 48.77890 | 10.22960 | 74° | 80km/h | 15538m | 3.8m/s | -53.5°C | 1% | 0hPa | 2.7V | 18:12:15 | 01:09:17 | 00:00:00 | |
| AZAK | 2026-08-31 23:38:40 | 48.77899 | 10.23017 | 76° | 75km/h | 15547m | 4.3m/s | -53.6°C | 1.6% | 117.2hPa | 2.7V | 00:00:00 | 00:00:00 | 00:00:00 | |
| DM0DOS-11 | 2026-08-31 23:38:39 | 48.77884 | 10.22930 | 72° | 80km/h | 15533m | 5.4m/s | -53.4°C | 4.6% | 117.4hPa | 2.7V | 08:30:00 | 01:09:16 | 00:00:00 | |
| PG1ADW-2 | 2026-08-31 23:38:38 | 48.77890 | 10.22960 | 75° | 77km/h | 15538m | 3.8m/s | -53.4°C | 4.6% | 117.3hPa | 2.7V | 00:00:00 | 01:09:17 | 00:00:00 | |
| DO3MHA-11 | 2026-08-31 23:38:37 | 48.77884 | 10.22930 | 73° | 78km/h | 15534m | 5.3m/s | -53.4°C | 4.6% | 117.4hPa | 2.7V | 00:00:00 | 01:09:16 | 00:00:00 | |
| DL6DJ-15 | 2026-08-31 23:38:36 | 48.77877 | 10.22901 | 70° | 80km/h | 15529m | 4.0m/s | -53.4°C | 1.6% | 117.5hPa | 2.7V | 00:00:00 | 00:00:00 | 00:00:00 | |
| DM0DOS-11 | 2026-08-31 23:38:33 | 48.77824 | 10.22644 | 74° | 78km/h | 15491m | 3.9m/s | -53.1°C | 4.6% | 118.2hPa | 2.7V | 08:30:00 | 01:09:06 | 00:00:00 | |
| DK7TD | 2026-08-31 23:38:31 | 48.77846 | 10.22758 | 73° | 77km/h | 15508m | 4.9m/s | 0°C | 0% | 0hPa | 2.6V | 18:12:15 | 01:09:10 | 00:00:00 | |
| DB0UT-7 | 2026-08-31 23:38:31 | 48.77846 | 10.22758 | 74° | 75km/h | 15508m | 4.9m/s | -53.2°C | 4.6% | 117.8hPa | 2.6V | 00:00:00 | 01:09:10 | 00:00:00 | |
| DK5PH-5 | 2026-08-31 23:38:30 | 48.77840 | 10.22730 | 73° | 73km/h | 15504m | 3.8m/s | -53.2°C | 4.7% | 117.9hPa | 2.6V | 00:00:00 | 01:09:09 | 00:00:00 | |
| DM7RM-13 | 2026-08-31 23:38:27 | 48.77824 | 10.22644 | 76° | 78km/h | 15491m | 3.9m/s | -53.1°C | 1.6% | 118.2hPa | 2.6V | 00:00:00 | 00:00:00 | 00:00:00 | |
| NBG1-10 | 2026-08-31 23:38:25 | 48.77813 | 10.22587 | 72° | 71km/h | 15483m | 5.1m/s | -53.0°C | 4.6% | 118.3hPa | 2.6V | 00:00:00 | 01:09:04 | 00:00:00 | |
| DJ8HS-15 | 2026-08-31 23:38:24 | 48.77806 | 10.22559 | 70° | 73km/h | 15479m | 3.5m/s | -53.0°C | 4.6% | 118.4hPa | 2.6V | 00:00:00 | 01:09:03 | 00:00:00 | |
| DO3MHA-12 | 2026-08-31 23:38:23 | 48.77800 | 10.22532 | 71° | 75km/h | 15475m | 3.0m/s | -53.0°C | 4.6% | 118.4hPa | 2.7V | 00:00:00 | 01:09:02 | 00:00:00 | |
| SONCRA | 2026-08-31 23:38:22 | 48.77789 | 10.22478 | 74° | 73km/h | 15466m | 4.8m/s | -52.9°C | 1.5% | 118.6hPa | 2.7V | 00:00:00 | 00:00:00 | 00:00:00 | |
| DM0DOS-11 | 2026-08-31 23:38:20 | 48.77770 | 10.22366 | 74° | 77km/h | 15448m | 3.8m/s | -52.8°C | 4.5% | 119hPa | 2.7V | 08:30:00 | 01:08:56 | 00:00:00 | |
| DK7TD | 2026-08-31 23:38:20 | 48.77784 | 10.22450 | 77° | 75km/h | 15462m | 4m/s | 0°C | 0% | 0hPa | 2.6V | 18:12:15 | 01:08:59 | 00:00:00 | |
| BIOWL1-15 | 2026-08-31 23:38:13 | 48.77751 | 10.22254 | 76° | 75km/h | 15432m | 4.5m/s | -52.8°C | 1% | 0hPa | 2.7V | 18:12:15 | 01:08:52 | 00:00:00 | |
| DO9HM | 2026-08-31 23:38:11 | 48.77746 | 10.22226 | 75° | 75km/h | 15427m | 4.8m/s | -52.8°C | 1.5% | 119.4hPa | 2.7V | 00:00:00 | 00:00:00 | 00:00:00 | |
| OE3JTB-15 | 2026-08-31 23:38:10 | 48.77735 | 10.22173 | 75° | 71km/h | 15419m | 5.0m/s | -52.7°C | 4.5% | 119.5hPa | 2.7V | 00:00:00 | 00:00:00 | 00:00:00 | |
| OE5DXL-15 | 2026-08-31 23:38:09 | 48.77731 | 10.22148 | 77° | 71km/h | 15414m | 4.4m/s | -52.7°C | 4.5% | 119.6hPa | 2.7V | 00:00:00 | 00:00:00 | 00:00:00 | |
| DM0DOS-11 | 2026-08-31 23:38:08 | 48.77724 | 10.22097 | 79° | 69km/h | 15405m | 5.2m/s | -52.7°C | 4.5% | 119.8hPa | 2.7V | 08:30:00 | 01:08:46 | 00:00:00 | |
| DO3MHA-11 | 2026-08-31 23:38:07 | 48.77724 | 10.22097 | 80° | 71km/h | 15405m | 5.1m/s | -52.7°C | 4.5% | 119.7hPa | 2.7V | 00:00:00 | 01:08:46 | 00:00:00 | |
| AM1SDL-15 | 2026-08-31 23:38:05 | 48.77718 | 10.22044 | 81° | 71km/h | 15397m | 4.2m/s | 0°C | 0% | 0hPa | 2.7V | 00:00:00 | 01:08:44 | 00:00:00 | |
| DJ8HS-15 | 2026-08-31 23:38:04 | 48.77715 | 10.22017 | 82° | 71km/h | 15391m | 5.6m/s | -52.6°C | 4.4% | 120.0hPa | 2.7V | 00:00:00 | 01:08:43 | 00:00:00 | |
| DM0DOS-11 | 2026-08-31 23:38:03 | 48.77695 | 10.21830 | 80° | 69km/h | 15361m | 4.9m/s | -52.9°C | 4.5% | 120.6hPa | 2.7V | 08:30:00 | 01:08:36 | 00:00:00 | |
| BIOWL1-15 | 2026-08-31 23:38:02 | 48.77709 | 10.21964 | 81° | 71km/h | 15382m | 4.5m/s | -52.7°C | 1% | 0hPa | 2.7V | 18:12:15 | 01:08:41 | 00:00:00 | |
| DF3TZ-5 | 2026-08-31 23:37:56 | 48.77692 | 10.21804 | 80° | 68km/h | 15357m | 4.0m/s | -52.9°C | 1.5% | 120.7hPa | 2.6V | 00:00:00 | 00:00:00 | 00:00:00 | |
| DO3MHA-12 | 2026-08-31 23:37:53 | 48.77686 | 10.21729 | 86° | 73km/h | 15344m | 3.6m/s | -52.9°C | 4.5% | 120.8hPa | 2.6V | 00:00:00 | 01:08:32 | 00:00:00 | |
| DM0DOS-11 | 2026-08-31 23:37:52 | 48.77678 | 10.21540 | 86° | 77km/h | 15313m | 5.1m/s | -52.8°C | 4.4% | 121.5hPa | 2.6V | 08:30:00 | 01:08:25 | 00:00:00 | |
| BIOWL1-15 | 2026-08-31 23:37:46 | 48.77678 | 10.21540 | 87° | 77km/h | 15313m | 5.1m/s | -52.8°C | 1% | 0hPa | 2.6V | 18:12:15 | 01:08:25 | 00:00:00 | |
| DF7PN | 2026-08-31 23:37:46 | 48.77677 | 10.21510 | 85° | 78km/h | 15309m | 3.5m/s | -52.8°C | 1.5% | 121.6hPa | 2.7V | 00:00:00 | 00:00:00 | 00:00:00 | |
| DJ8HS-15 | 2026-08-31 23:37:44 | 48.77675 | 10.21480 | 85° | 73km/h | 15305m | 4.6m/s | -52.8°C | 4.4% | 121.6hPa | 2.7V | 00:00:00 | 01:08:23 | 00:00:00 | |
| DO3MHA-12 | 2026-08-31 23:37:43 | 48.77674 | 10.21451 | 85° | 71km/h | 15300m | 4.4m/s | -52.8°C | 4.4% | 121.7hPa | 2.7V | 00:00:00 | 01:08:22 | 00:00:00 | |
| OE3JTB-15 | 2026-08-31 23:37:41 | 48.77669 | 10.21394 | 82° | 73km/h | 15292m | 5.2m/s | -52.8°C | 4.4% | 121.8hPa | 2.6V | 00:00:00 | 01:08:20 | 00:00:00 | |
| DM0DOS-11 | 2026-08-31 23:37:40 | 48.77656 | 10.21261 | 80° | 71km/h | 15269m | 4.3m/s | -53.1°C | 4.5% | 122.3hPa | 2.6V | 08:30:00 | 01:08:15 | 00:00:00 | |
| BIOWL1-15 | 2026-08-31 23:37:35 | 48.77653 | 10.21234 | 81° | 73km/h | 15265m | 3.3m/s | -53.2°C | 1.1% | 0hPa | 2.6V | 18:12:15 | 01:08:14 | 00:00:00 | |
| OE5WHR-10 | 2026-08-31 23:37:35 | 48.77653 | 10.21234 | 82° | 73km/h | 15265m | 3.3m/s | -53.1°C | 4.5% | 122.3hPa | 2.6V | 00:00:00 | 00:00:00 | 00:00:00 | |
| DL6DJ-15 | 2026-08-31 23:37:34 | 48.77651 | 10.21207 | 81° | 71km/h | 15261m | 4.7m/s | -53.2°C | 1.6% | 122.5hPa | 2.6V | 00:00:00 | 00:00:00 | 00:00:00 | |
| DO3MHA-12 | 2026-08-31 23:37:33 | 48.77648 | 10.21180 | 85° | 73km/h | 15256m | 4.6m/s | -53.1°C | 4.5% | 122.5hPa | 2.6V | 00:00:00 | 01:08:12 | 00:00:00 | |
| DB0UT-7 | 2026-08-31 23:37:31 | 48.77647 | 10.21125 | 89° | 77km/h | 15248m | 4.6m/s | -53.3°C | 4.6% | 122.7hPa | 2.6V | 00:00:00 | 01:08:10 | 00:00:00 | |
| DK5PH-5 | 2026-08-31 23:37:30 | 48.77647 | 10.21096 | 90° | 77km/h | 15243m | 4.8m/s | -53.2°C | 4.6% | 122.8hPa | 2.6V | 00:00:00 | 01:08:09 | 08:30:00 | |
| DM0DOS-11 | 2026-08-31 23:37:28 | 48.77648 | 10.20953 | 88° | 73km/h | 15220m | 5.1m/s | -53.2°C | 4.6% | 123.2hPa | 2.6V | 08:30:00 | 01:08:04 | 00:00:00 | |
| BIOWL1-15 | 2026-08-31 23:37:27 | 48.77650 | 10.20673 | 93° | 78km/h | 15175m | 5m/s | 0°C | 0% | 0hPa | 2.6V | 18:12:15 | 01:07:54 | 00:00:00 | |
| BIOWL1-15 | 2026-08-31 23:37:18 | 48.77650 | 10.20643 | 92° | 78km/h | 15171m | 4.4m/s | 0°C | 0% | 0hPa | 2.6V | 18:12:15 | 01:07:53 | 00:00:00 | |
| PG1ADW-2 | 2026-08-31 23:37:18 | 48.77646 | 10.20760 | 92° | 78km/h | 15188m | 5.0m/s | -53.4°C | 4.6% | 123.8hPa | 2.6V | 00:00:00 | 01:07:57 | 00:00:00 | |
| DO3MHA-11 | 2026-08-31 23:37:17 | 48.77647 | 10.20731 | 94° | 77km/h | 15184m | 4.0m/s | -53.5°C | 4.7% | 123.9hPa | 2.6V | 00:00:00 | 01:07:56 | 00:00:00 | |
| DM0DOS-11 | 2026-08-31 23:37:16 | 48.77650 | 10.20673 | 93° | 78km/h | 15175m | 5m/s | -53.6°C | 4.7% | 124.1hPa | 2.6V | 08:30:00 | 01:07:54 | 00:00:00 | |
| DB0NH | 2026-08-31 23:37:16 | 48.77648 | 10.20702 | 94° | 80km/h | 15180m | 3.5m/s | -53.6°C | 4.6% | 123.9hPa | 2.7V | 00:00:00 | 01:07:55 | 00:00:00 | |
| OE5WHR-10 | 2026-08-31 23:37:14 | 48.77650 | 10.20642 | 92° | 82km/h | 15171m | 4.4m/s | -53.6°C | 4.7% | 124.2hPa | 2.7V | 00:00:00 | 00:00:00 | 00:00:00 | |
| DO3MHA-12 | 2026-08-31 23:37:13 | 48.77651 | 10.20613 | 92° | 78km/h | 15166m | 5.2m/s | -53.6°C | 4.7% | 124.2hPa | 2.7V | 00:00:00 | 01:07:52 | 08:30:00 | |
| OE3JTB-15 | 2026-08-31 23:37:12 | 48.77651 | 10.20584 | 91° | 80km/h | 15161m | 4.1m/s | -53.6°C | 4.7% | 124.3hPa | 2.7V | 00:00:00 | 00:00:00 | 00:00:00 | |
| DM0DOS-11 | 2026-08-31 23:37:11 | 48.77654 | 10.20341 | 92° | 82km/h | 15126m | 5.1m/s | -53.8°C | 4.8% | 125hPa | 2.6V | 08:30:00 | 01:07:43 | 00:00:00 | |
| DB0ND-19 | 2026-08-31 23:37:10 | 48.77651 | 10.20497 | 89° | 78km/h | 15149m | 4.6m/s | -53.9°C | 1.7% | 124.6hPa | 2.6V | 00:00:00 | 00:00:00 | 00:00:00 | |
| OE5DXL-15 | 2026-08-31 23:37:09 | 48.77651 | 10.20497 | 90° | 82km/h | 15149m | 4.6m/s | -53.8°C | 4.8% | 124.6hPa | 2.6V | 00:00:00 | 00:00:00 | 08:30:00 | |
| DO3MHA-11 | 2026-08-31 23:37:07 | 48.77651 | 10.20435 | 92° | 80km/h | 15140m | 4.5m/s | -53.8°C | 4.8% | 124.8hPa | 2.6V | 00:00:00 | 01:07:46 | 00:00:00 | |
| BIOWL9-15 | 2026-08-31 23:37:06 | 48.77653 | 10.20372 | 93° | 80km/h | 15131m | 3.5m/s | 0°C | -1.0% | -1.0hPa | 2.6V | 00:00:00 | 00:00:00 | 00:00:00 | |
| DJ8HS-15 | 2026-08-31 23:37:04 | 48.77654 | 10.20340 | 93° | 82km/h | 15127m | 5.0m/s | -53.7°C | 4.8% | 125.0hPa | 2.6V | 00:00:00 | 01:07:43 | 00:00:00 | |
| DO3MHA-12 | 2026-08-31 23:37:03 | 48.77655 | 10.20309 | 92° | 80km/h | 15122m | 3.7m/s | -53.7°C | 4.8% | 125.1hPa | 2.6V | 00:00:00 | 01:07:42 | 00:00:00 | |
| OE5DRO-10 | 2026-08-31 23:37:02 | 48.77656 | 10.20278 | 92° | 82km/h | 15118m | 4.9m/s | -53.6°C | 4.8% | 125.2hPa | 2.6V | 00:00:00 | 00:00:00 | 00:00:00 | |
| DB0UT-7 | 2026-08-31 23:37:01 | 48.77656 | 10.20247 | 91° | 82km/h | 15113m | 4.7m/s | -53.6°C | 4.8% | 125.3hPa | 2.6V | 00:00:00 | 00:00:00 | 08:30:00 | |
| DK5PH-5 | 2026-08-31 23:37:00 | 48.77656 | 10.20217 | 90° | 82km/h | 15108m | 4.4m/s | -53.6°C | 4.7% | 125.3hPa | 2.7V | 00:00:00 | 01:07:39 | 00:00:00 | |
| PG1ADW-2 | 2026-08-31 23:36:58 | 48.77655 | 10.20156 | 87° | 82km/h | 15099m | 3.5m/s | -53.6°C | 4.7% | 125.5hPa | 2.7V | 00:00:00 | 00:00:00 | 00:00:00 | |
| DO3MHA-11 | 2026-08-31 23:36:57 | 48.77653 | 10.20125 | 86° | 82km/h | 15095m | 5.2m/s | -53.6°C | 4.7% | 125.6hPa | 2.7V | 00:00:00 | 01:07:36 | 00:00:00 | |
| AZAK | 2026-08-31 23:36:55 | 48.77651 | 10.20095 | 86° | 80km/h | 15090m | 4.0m/s | -53.7°C | 1.7% | 125.8hPa | 2.7V | 00:00:00 | 00:00:00 | 00:00:00 | |
| DM0DOS-11 | 2026-08-31 23:36:54 | 48.77646 | 10.20000 | 87° | 86km/h | 15077m | 3.8m/s | -53.7°C | 4.8% | 126hPa | 2.7V | 08:30:00 | 01:07:32 | 00:00:00 | |
| DO3MHA-12 | 2026-08-31 23:36:53 | 48.77646 | 10.20000 | 88° | 82km/h | 15078m | 3.7m/s | -53.7°C | 4.8% | 126.0hPa | 2.7V | 00:00:00 | 01:07:32 | 00:00:00 | |
| DM0DOS-11 | 2026-08-31 23:36:49 | 48.77651 | 10.19652 | 90° | 84km/h | 15028m | 5.3m/s | -53.7°C | 4.8% | 127hPa | 2.7V | 08:30:00 | 01:07:21 | 00:00:00 | |
| DO9HM | 2026-08-31 23:36:48 | 48.77647 | 10.19872 | 93° | 84km/h | 15060m | 4.9m/s | -53.7°C | 1.7% | 126.4hPa | 2.6V | 00:00:00 | 00:00:00 | 00:00:00 | |
| DO3MHA-11 | 2026-08-31 23:36:47 | 48.77648 | 10.19808 | 92° | 84km/h | 15051m | 4.6m/s | -53.6°C | 4.7% | 126.5hPa | 2.6V | 00:00:00 | 01:07:26 | 00:00:00 | |
| DB0NH | 2026-08-31 23:36:46 | 48.77649 | 10.19778 | 92° | 84km/h | 15046m | 4.6m/s | -53.6°C | 4.7% | 126.6hPa | 2.6V | 00:00:00 | 01:07:25 | 08:30:00 | |
| DJ8HS-15 | 2026-08-31 23:36:44 | 48.77650 | 10.19716 | 92° | 86km/h | 15038m | 5.2m/s | -53.6°C | 4.8% | 126.8hPa | 2.7V | 00:00:00 | 01:07:23 | 00:00:00 | |
| DO3MHA-12 | 2026-08-31 23:36:43 | 48.77650 | 10.19684 | 92° | 84km/h | 15033m | 4.4m/s | -53.6°C | 4.8% | 126.8hPa | 2.7V | 00:00:00 | 01:07:22 | 00:00:00 | |
| DN1GJH-1 | 2026-08-31 23:36:42 | 48.77650 | 10.19684 | 92° | 84km/h | 15033m | 4.5m/s | -53.7°C | 1.7% | 126.9hPa | 2.7V | 00:00:00 | 00:00:00 | 00:00:00 | |
| DM7RM-13 | 2026-08-31 23:36:41 | 48.77651 | 10.19652 | 92° | 84km/h | 15028m | 5.3m/s | -53.7°C | 1.8% | 127.0hPa | 2.7V | 00:00:00 | 00:00:00 | 00:00:00 | |
| OE5DXL-15 | 2026-08-31 23:36:39 | 48.77651 | 10.19555 | 91° | 84km/h | 15014m | 4.8m/s | -53.6°C | 4.8% | 127.2hPa | 2.7V | 00:00:00 | 00:00:00 | 00:00:00 | |
| PG1ADW-2 | 2026-08-31 23:36:38 | 48.77651 | 10.19522 | 91° | 86km/h | 15010m | 4.0m/s | -53.6°C | 4.8% | 127.3hPa | 2.7V | 00:00:00 | 00:00:00 | 00:00:00 | |
| DM0DOS-11 | 2026-08-31 23:36:37 | 48.77653 | 10.19330 | 91° | 82km/h | 14982m | 5.1m/s | -53.7°C | 4.8% | 127.9hPa | 2.7V | 08:30:00 | 01:07:11 | 00:00:00 | |
| DO3MHA-11 | 2026-08-31 23:36:37 | 48.77652 | 10.19488 | 91° | 84km/h | 15005m | 4.6m/s | -53.6°C | 4.8% | 127.4hPa | 2.7V | 00:00:00 | 01:07:16 | 00:00:00 | |
| AZAK | 2026-08-31 23:36:34 | 48.77652 | 10.19425 | 91° | 82km/h | 14996m | 4.7m/s | -53.6°C | 1.7% | 127.7hPa | 2.7V | 00:00:00 | 00:00:00 | 00:00:00 | |
| DO3MHA-12 | 2026-08-31 23:36:33 | 48.77652 | 10.19362 | 91° | 88km/h | 14986m | 4.1m/s | -53.6°C | 4.8% | 127.8hPa | 2.7V | 00:00:00 | 01:07:12 | 00:00:00 | |
| DL6DJ-15 | 2026-08-31 23:36:32 | 48.77653 | 10.19330 | 91° | 80km/h | 14982m | 5.1m/s | -53.7°C | 1.7% | 127.9hPa | 2.7V | 00:00:00 | 00:00:00 | 00:00:00 | |
| DB0UT-7 | 2026-08-31 23:36:31 | 48.77653 | 10.19299 | 92° | 84km/h | 14978m | 3.2m/s | -53.7°C | 4.8% | 127.9hPa | 2.7V | 00:00:00 | 01:07:10 | 00:00:00 | |
| DK5PH-5 | 2026-08-31 23:36:30 | 48.77654 | 10.19266 | 92° | 84km/h | 14974m | 4.6m/s | -53.7°C | 4.8% | 128.0hPa | 2.7V | 00:00:00 | 01:07:09 | 00:00:00 | |
| DO9HM | 2026-08-31 23:36:28 | 48.77655 | 10.19198 | 92° | 91km/h | 14964m | 4.0m/s | -53.8°C | 1.8% | 128.2hPa | 2.7V | 00:00:00 | 00:00:00 | 00:00:00 | |
| DO3MHA-11 | 2026-08-31 23:36:27 | 48.77656 | 10.19164 | 93° | 84km/h | 14960m | 5.3m/s | -53.8°C | 4.8% | 128.3hPa | 2.7V | 00:00:00 | 01:07:06 | 00:00:00 | |
| DM0DOS-11 | 2026-08-31 23:36:24 | 48.77658 | 10.18997 | 89° | 82km/h | 14937m | 5.1m/s | -53.9°C | 4.8% | 128.8hPa | 2.7V | 08:30:00 | 01:07:01 | 00:00:00 | |
| DJ8HS-15 | 2026-08-31 23:36:24 | 48.77658 | 10.19062 | 91° | 82km/h | 14946m | 5.0m/s | -53.8°C | 4.8% | 128.6hPa | 2.6V | 00:00:00 | 01:07:03 | 00:00:00 | |
| DO3MHA-12 | 2026-08-31 23:36:23 | 48.77658 | 10.19029 | 90° | 82km/h | 14941m | 4.1m/s | -53.8°C | 4.9% | 128.6hPa | 2.7V | 00:00:00 | 01:07:02 | 00:00:00 | |
| DN1GJH-1 | 2026-08-31 23:36:22 | 48.77658 | 10.19029 | 90° | 86km/h | 14941m | 4.1m/s | -53.8°C | 1.8% | 128.7hPa | 2.7V | 00:00:00 | 00:00:00 | 00:00:00 | |
| DM7RM-13 | 2026-08-31 23:36:20 | 48.77657 | 10.18966 | 89° | 80km/h | 14932m | 3.9m/s | -53.9°C | 1.8% | 128.9hPa | 2.7V | 00:00:00 | 00:00:00 | 00:00:00 | |
| PG1ADW-2 | 2026-08-31 23:36:18 | 48.77654 | 10.18872 | 86° | 82km/h | 14920m | 3.0m/s | -53.9°C | 4.9% | 129.1hPa | 2.7V | 00:00:00 | 00:00:00 | 00:00:00 | |
| DM0DOS-11 | 2026-08-31 23:36:17 | 48.77653 | 10.18651 | 93° | 84km/h | 14891m | 4.8m/s | -54.1°C | 5% | 129.7hPa | 2.7V | 08:30:00 | 01:06:50 | 00:00:00 | |
| DO3MHA-11 | 2026-08-31 23:36:17 | 48.77652 | 10.18841 | 87° | 82km/h | 14916m | 4.5m/s | -53.9°C | 4.9% | 129.1hPa | 2.6V | 00:00:00 | 01:06:56 | 00:00:00 | |
| DB0NH | 2026-08-31 23:36:16 | 48.77651 | 10.18810 | 89° | 86km/h | 14912m | 4.4m/s | -54.0°C | 5.0% | 129.3hPa | 2.6V | 00:00:00 | 01:06:55 | 00:00:00 | |
| DL1ZP-14 | 2026-08-31 23:36:15 | 48.77651 | 10.18748 | 90° | 82km/h | 14904m | 4.3m/s | -54.1°C | 1.8% | 129.5hPa | 2.6V | 00:00:00 | 00:00:00 | 00:00:00 | |
| DF1GD-15 | 2026-08-31 23:36:13 | 48.77651 | 10.18716 | 92° | 84km/h | 14900m | 4.2m/s | -54.1°C | 1.9% | 129.5hPa | 2.6V | 00:00:00 | 00:00:00 | 00:00:00 | |
| DF7PN | 2026-08-31 23:36:12 | 48.77652 | 10.18683 | 92° | 84km/h | 14895m | 3.5m/s | -54.1°C | 1.8% | 129.7hPa | 2.6V | 00:00:00 | 00:00:00 | 00:00:00 | |
| OE5DXL-15 | 2026-08-31 23:36:09 | 48.77656 | 10.18588 | 95° | 88km/h | 14882m | 3.9m/s | -54.1°C | 5.0% | 129.8hPa | 2.6V | 00:00:00 | 00:00:00 | 00:00:00 | |
| OE5WHR-10 | 2026-08-31 23:36:08 | 48.77660 | 10.18527 | 95° | 88km/h | 14874m | 3.8m/s | -54.1°C | 5.0% | 130.0hPa | 2.6V | 00:00:00 | 00:00:00 | 00:00:00 | |
| DO3MHA-11 | 2026-08-31 23:36:07 | 48.77660 | 10.18527 | 95° | 84km/h | 14874m | 3.8m/s | -54.1°C | 5.0% | 130.0hPa | 2.6V | 00:00:00 | 01:06:46 | 00:00:00 | |
| DM0DOS-11 | 2026-08-31 23:36:06 | 48.77670 | 10.18373 | 92° | 84km/h | 14853m | 4.8m/s | -54.1°C | 5.1% | 130.5hPa | 2.6V | 08:30:00 | 01:06:41 | 00:00:00 | |
| OE5DRO-10 | 2026-08-31 23:36:05 | 48.77664 | 10.18467 | 98° | 88km/h | 14865m | 4.0m/s | -54.1°C | 5.0% | 130.2hPa | 2.7V | 00:00:00 | 00:00:00 | 00:00:00 | |
| DJ8HS-15 | 2026-08-31 23:36:04 | 48.77666 | 10.18436 | 97° | 89km/h | 14861m | 3.4m/s | -54.1°C | 5.1% | 130.3hPa | 2.7V | 00:00:00 | 01:06:43 | 00:00:00 | |
| DN1GJH-1 | 2026-08-31 23:36:02 | 48.77668 | 10.18405 | 96° | 82km/h | 14857m | 3.9m/s | -54.2°C | 2.0% | 130.4hPa | 2.7V | 00:00:00 | 00:00:00 | 00:00:00 | |
| DB0UT-7 | 2026-08-31 23:36:01 | 48.77670 | 10.18340 | 91° | 91km/h | 14849m | 4.0m/s | -54.0°C | 5.1% | 130.6hPa | 2.7V | 00:00:00 | 00:00:00 | 00:00:00 | |
| DK5PH-5 | 2026-08-31 23:36:00 | 48.77670 | 10.18308 | 90° | 93km/h | 14845m | 3.3m/s | -54.0°C | 5.1% | 130.6hPa | 2.7V | 00:00:00 | 01:06:39 | 00:00:00 | |
| DM7RM-13 | 2026-08-31 23:35:59 | 48.77670 | 10.18308 | 91° | 88km/h | 14845m | 3.4m/s | -54.1°C | 2.0% | 130.7hPa | 2.6V | 00:00:00 | 00:00:00 | 00:00:00 | |
| PG1ADW-2 | 2026-08-31 23:35:58 | 48.77671 | 10.18240 | 93° | 91km/h | 14836m | 4.3m/s | -53.9°C | 5.1% | 130.8hPa | 2.6V | 00:00:00 | 01:06:37 | 08:30:00 | |
| DO3MHA-11 | 2026-08-31 23:35:57 | 48.77672 | 10.18205 | 94° | 89km/h | 14832m | 3.8m/s | -53.9°C | 5.1% | 130.9hPa | 2.6V | 00:00:00 | 01:06:36 | 08:30:00 | |
| DM0DOS-11 | 2026-08-31 23:35:55 | 48.77678 | 10.18034 | 93° | 89km/h | 14809m | 3.7m/s | -53.9°C | 4.9% | 131.4hPa | 2.6V | 08:30:00 | 01:06:31 | 00:00:00 | |
| DF3TZ-5 | 2026-08-31 23:35:52 | 48.77678 | 10.18034 | 93° | 89km/h | 14809m | 3.7m/s | -53.9°C | 1.9% | 131.4hPa | 2.6V | 00:00:00 | 00:00:00 | 00:00:00 | |
| DO9HM | 2026-08-31 23:35:47 | 48.77680 | 10.17862 | 90° | 93km/h | 14787m | 3.8m/s | -54.2°C | 2.0% | 131.9hPa | 2.6V | 00:00:00 | 00:00:00 | 00:00:00 | |
| DB0NH | 2026-08-31 23:35:46 | 48.77679 | 10.17827 | 89° | 95km/h | 14783m | 3.8m/s | -54.1°C | 5.1% | 131.9hPa | 2.6V | 00:00:00 | 01:06:25 | 00:00:00 | |
| OE5WHR-10 | 2026-08-31 23:35:45 | 48.77679 | 10.17791 | 88° | 95km/h | 14779m | 5.2m/s | -54.1°C | 5.0% | 132.0hPa | 2.6V | 00:00:00 | 00:00:00 | 00:00:00 | |
| DM0DOS-11 | 2026-08-31 23:35:44 | 48.77676 | 10.17684 | 88° | 97km/h | 14765m | 4.6m/s | -54.2°C | 5.1% | 132.3hPa | 2.6V | 08:30:00 | 01:06:21 | 00:00:00 | |
| DL1ZP-14 | 2026-08-31 23:35:44 | 48.77677 | 10.17721 | 87° | 93km/h | 14770m | 4.4m/s | -54.2°C | 2.0% | 132.2hPa | 2.7V | 00:00:00 | 00:00:00 | 00:00:00 | |
| DO3MHA-12 | 2026-08-31 23:35:43 | 48.77677 | 10.17721 | 88° | 95km/h | 14770m | 4.4m/s | -54.1°C | 5.1% | 132.1hPa | 2.7V | 00:00:00 | 01:06:22 | 08:30:00 | |
| DN1GJH-1 | 2026-08-31 23:35:42 | 48.77677 | 10.17721 | 88° | 93km/h | 14770m | 4.4m/s | -54.2°C | 2.0% | 132.2hPa | 2.6V | 00:00:00 | 00:00:00 | 00:00:00 | |
| DF7PN | 2026-08-31 23:35:41 | 48.77675 | 10.17647 | 89° | 97km/h | 14761m | 3.5m/s | -54.2°C | 2.0% | 132.4hPa | 2.6V | 00:00:00 | 00:00:00 | 00:00:00 | |
| NBG1-10 | 2026-08-31 23:35:40 | 48.77675 | 10.17610 | 91° | 95km/h | 14758m | 4.3m/s | -54.1°C | 5.2% | 132.4hPa | 2.6V | 00:00:00 | 01:06:19 | 00:00:00 | |
| OE5DXL-15 | 2026-08-31 23:35:39 | 48.77676 | 10.17573 | 93° | 95km/h | 14753m | 4.4m/s | -54.1°C | 5.2% | 132.5hPa | 2.6V | 00:00:00 | 00:00:00 | 00:00:00 | |
| PG1ADW-2 | 2026-08-31 23:35:38 | 48.77677 | 10.17537 | 95° | 95km/h | 14749m | 3.2m/s | -54.1°C | 5.2% | 132.6hPa | 2.7V | 00:00:00 | 00:00:00 | 00:00:00 | |
| DM0DOS-11 | 2026-08-31 23:35:37 | 48.77684 | 10.17322 | 88° | 95km/h | 14725m | 4.6m/s | -54.4°C | 5.2% | 133.1hPa | 2.7V | 08:30:00 | 01:06:11 | 00:00:00 | |
| DO3MHA-11 | 2026-08-31 23:35:37 | 48.77679 | 10.17501 | 96° | 95km/h | 14745m | 5.1m/s | -54.1°C | 5.2% | 132.6hPa | 2.7V | 00:00:00 | 01:06:16 | 00:00:00 | |
| DO3MHA-12 | 2026-08-31 23:35:33 | 48.77685 | 10.17358 | 90° | 97km/h | 14729m | 3.1m/s | -54.3°C | 5.3% | 133.0hPa | 2.7V | 00:00:00 | 01:06:12 | 00:00:00 | |
| DB0UT-7 | 2026-08-31 23:35:31 | 48.77684 | 10.17286 | 88° | 97km/h | 14721m | 4.1m/s | -54.4°C | 5.3% | 133.2hPa | 2.7V | 00:00:00 | 01:06:10 | 00:00:00 | |
| DL6DJ-15 | 2026-08-31 23:35:30 | 48.77682 | 10.17248 | 86° | 99km/h | 14717m | 3.2m/s | -54.5°C | 2.1% | 133.3hPa | 2.7V | 00:00:00 | 00:00:00 | 00:00:00 | |
| DK5PH-5 | 2026-08-31 23:35:29 | 48.77680 | 10.17210 | 87° | 97km/h | 14713m | 4.2m/s | -54.5°C | 5.4% | 133.3hPa | 2.7V | 00:00:00 | 01:06:08 | 00:00:00 | |
| DO3MHA-11 | 2026-08-31 23:35:27 | 48.77679 | 10.17136 | 90° | 93km/h | 14705m | 3.5m/s | -54.6°C | 5.5% | 133.4hPa | 2.7V | 00:00:00 | 01:06:06 | 00:00:00 | |
| DO9HM | 2026-08-31 23:35:25 | 48.77679 | 10.17100 | 92° | 97km/h | 14701m | 4.7m/s | -54.6°C | 2.2% | 133.6hPa | 2.6V | 00:00:00 | 00:00:00 | 00:00:00 | |
| DM0DOS-11 | 2026-08-31 23:35:24 | 48.77689 | 10.16957 | 99° | 91km/h | 14684m | 3.3m/s | -54.7°C | 5.5% | 133.9hPa | 2.6V | 08:30:00 | 01:06:01 | 00:00:00 | |
| DJ8HS-15 | 2026-08-31 23:35:24 | 48.77682 | 10.17027 | 97° | 97km/h | 14692m | 5.2m/s | -54.6°C | 5.5% | 133.7hPa | 2.6V | 00:00:00 | 01:06:03 | 00:00:00 | |
| DO3MHA-12 | 2026-08-31 23:35:23 | 48.77685 | 10.16992 | 99° | 95km/h | 14688m | 3.6m/s | -54.6°C | 5.5% | 133.8hPa | 2.6V | 00:00:00 | 01:06:02 | 00:00:00 | |
| DF3TZ-5 | 2026-08-31 23:35:21 | 48.77693 | 10.16923 | 100° | 93km/h | 14680m | 4.7m/s | -54.7°C | 2.2% | 134.0hPa | 2.6V | 00:00:00 | 00:00:00 | 00:00:00 | |
| OE5WHR-10 | 2026-08-31 23:35:20 | 48.77697 | 10.16887 | 99° | 99km/h | 14677m | 3.5m/s | -54.7°C | 5.5% | 134.0hPa | 2.6V | 00:00:00 | 01:05:59 | 00:00:00 | |
| DM7RM-13 | 2026-08-31 23:35:19 | 48.77697 | 10.16887 | 100° | 95km/h | 14677m | 3.5m/s | -54.7°C | 2.2% | 134.1hPa | 2.6V | 00:00:00 | 00:00:00 | 00:00:00 | |
| PG1ADW-2 | 2026-08-31 23:35:18 | 48.77702 | 10.16816 | 95° | 99km/h | 14669m | 4.2m/s | -54.6°C | 5.5% | 134.2hPa | 2.6V | 00:00:00 | 00:00:00 | 00:00:00 | |
| DM0DOS-11 | 2026-08-31 23:35:17 | 48.77708 | 10.16555 | 96° | 95km/h | 14641m | 2.8m/s | -54.7°C | 5.4% | 134.8hPa | 2.6V | 08:30:00 | 01:05:50 | 00:00:00 | |
| DO3MHA-11 | 2026-08-31 23:35:17 | 48.77703 | 10.16780 | 92° | 97km/h | 14665m | 3.1m/s | -54.6°C | 5.5% | 134.3hPa | 2.6V | 00:00:00 | 01:05:56 | 00:00:00 | |
| DB0NH | 2026-08-31 23:35:16 | 48.77704 | 10.16743 | 90° | 100km/h | 14661m | 3.8m/s | -54.6°C | 5.4% | 134.4hPa | 2.6V | 00:00:00 | 01:05:55 | 00:00:00 | |
| OE3JTB-15 | 2026-08-31 23:35:14 | 48.77704 | 10.16668 | 91° | 100km/h | 14653m | 3.8m/s | -54.7°C | 5.4% | 134.5hPa | 2.6V | 00:00:00 | 00:00:00 | 00:00:00 | |
| DL1ZP-14 | 2026-08-31 23:35:13 | 48.77706 | 10.16592 | 93° | 97km/h | 14645m | 5.1m/s | -54.7°C | 2.1% | 134.8hPa | 2.6V | 00:00:00 | 00:00:00 | 00:00:00 | |
| AZAK | 2026-08-31 23:35:12 | 48.77705 | 10.16592 | 95° | 99km/h | 14645m | 5.1m/s | -54.7°C | 2.1% | 134.8hPa | 2.6V | 00:00:00 | 00:00:00 | 00:00:00 | |
| DF1GD-15 | 2026-08-31 23:35:11 | 48.77705 | 10.16592 | 95° | 99km/h | 14645m | 5.1m/s | -54.7°C | 2.2% | 134.8hPa | 2.6V | 00:00:00 | 00:00:00 | 00:00:00 | |
| DF7PN | 2026-08-31 23:35:10 | 48.77711 | 10.16518 | 98° | 95km/h | 14638m | 4.2m/s | -54.7°C | 2.2% | 134.9hPa | 2.6V | 00:00:00 | 00:00:00 | 00:00:00 | |
| OE5DXL-15 | 2026-08-31 23:35:09 | 48.77714 | 10.16482 | 100° | 100km/h | 14633m | 4.3m/s | -54.6°C | 5.4% | 135.0hPa | 2.6V | 00:00:00 | 00:00:00 | 00:00:00 | |
| OE5DRO-10 | 2026-08-31 23:35:08 | 48.77719 | 10.16445 | 99° | 100km/h | 14629m | 3.4m/s | -54.6°C | 5.5% | 135.0hPa | 2.6V | 00:00:00 | 00:00:00 | 00:00:00 | |
| DO3MHA-11 | 2026-08-31 23:35:07 | 48.77722 | 10.16407 | 98° | 100km/h | 14626m | 3.8m/s | -54.6°C | 5.4% | 135.1hPa | 2.6V | 00:00:00 | 01:05:46 | 00:00:00 | |
| DM0DOS-11 | 2026-08-31 23:35:06 | 48.77728 | 10.16176 | 90° | 104km/h | 14602m | 3.2m/s | -54.7°C | 5.5% | 135.7hPa | 2.6V | 08:30:00 | 01:05:40 | 00:00:00 | |
| DB0ND-19 | 2026-08-31 23:35:06 | 48.77726 | 10.16332 | 92° | 97km/h | 14617m | 3.7m/s | -54.6°C | 2.2% | 135.4hPa | 2.6V | 00:00:00 | 00:00:00 | 00:00:00 | |
| DJ8HS-15 | 2026-08-31 23:35:04 | 48.77727 | 10.16294 | 91° | 102km/h | 14614m | 3.4m/s | -54.6°C | 5.4% | 135.4hPa | 2.6V | 00:00:00 | 01:05:43 | 00:00:00 | |
| DO3MHA-12 | 2026-08-31 23:35:03 | 48.77727 | 10.16256 | 91° | 100km/h | 14609m | 4.8m/s | -54.6°C | 5.4% | 135.5hPa | 2.6V | 00:00:00 | 01:05:42 | 00:00:00 | |
| DB0UT-7 | 2026-08-31 23:35:01 | 48.77728 | 10.16176 | 91° | 100km/h | 14602m | 3.1m/s | -54.6°C | 5.5% | 135.6hPa | 2.6V | 00:00:00 | 00:00:00 | 00:00:00 | |
| DK5PH-5 | 2026-08-31 23:34:59 | 48.77730 | 10.16098 | 95° | 100km/h | 14594m | 3.3m/s | -54.8°C | 5.5% | 135.8hPa | 2.6V | 00:00:00 | 01:05:38 | 00:00:00 | |
| PG1ADW-2 | 2026-08-31 23:34:58 | 48.77732 | 10.16061 | 97° | 100km/h | 14590m | 3.6m/s | -54.9°C | 5.5% | 135.9hPa | 2.6V | 00:00:00 | 00:00:00 | 00:00:00 | |
| DO3MHA-11 | 2026-08-31 23:34:57 | 48.77735 | 10.16023 | 98° | 100km/h | 14587m | 4.5m/s | -54.9°C | 5.6% | 136.0hPa | 2.7V | 00:00:00 | 01:05:36 | 00:00:00 | |
| DM0DOS-11 | 2026-08-31 23:34:56 | 48.77752 | 10.15796 | 94° | 102km/h | 14564m | 4.3m/s | -55.2°C | 5.7% | 136.5hPa | 2.8V | 08:30:00 | 01:05:30 | 00:00:00 | |
| DF3TZ-5 | 2026-08-31 23:34:50 | 48.77755 | 10.15756 | 94° | 104km/h | 14560m | 3.2m/s | -55.3°C | 2.3% | 136.6hPa | 2.8V | 00:00:00 | 00:00:00 | 00:00:00 | |
| OE5DRO-10 | 2026-08-31 23:34:49 | 48.77756 | 10.15716 | 94° | 100km/h | 14557m | 4.0m/s | -55.3°C | 5.7% | 136.6hPa | 2.8V | 00:00:00 | 00:00:00 | 00:00:00 | |
| DO3MHA-11 | 2026-08-31 23:34:47 | 48.77760 | 10.15637 | 94° | 100km/h | 14549m | 3.7m/s | -55.3°C | 5.8% | 136.8hPa | 2.8V | 00:00:00 | 01:05:26 | 00:00:00 | |
| DM0DOS-11 | 2026-08-31 23:34:46 | 48.77765 | 10.15405 | 89° | 99km/h | 14524m | 4.5m/s | -55.7°C | 5.9% | 137.4hPa | 2.8V | 08:30:00 | 01:05:20 | 00:00:00 | |
| DB0NH | 2026-08-31 23:34:46 | 48.77761 | 10.15597 | 94° | 100km/h | 14544m | 5.0m/s | -55.4°C | 5.8% | 136.9hPa | 2.6V | 00:00:00 | 01:05:25 | 00:00:00 | |
| DO9HM | 2026-08-31 23:34:45 | 48.77762 | 10.15558 | 94° | 104km/h | 14540m | 3.8m/s | -55.5°C | 2.4% | 137.0hPa | 2.6V | 00:00:00 | 00:00:00 | 00:00:00 | |
| DJ8HS-15 | 2026-08-31 23:34:44 | 48.77764 | 10.15519 | 93° | 99km/h | 14536m | 4.0m/s | -55.5°C | 5.8% | 137.0hPa | 2.6V | 00:00:00 | 01:05:23 | 00:00:00 | |
| DO3MHA-12 | 2026-08-31 23:34:43 | 48.77764 | 10.15480 | 92° | 100km/h | 14532m | 4.4m/s | -55.6°C | 5.9% | 137.1hPa | 2.6V | 00:00:00 | 01:05:22 | 00:00:00 | |
| DN1GJH-1 | 2026-08-31 23:34:41 | 48.77765 | 10.15442 | 91° | 99km/h | 14528m | 3.2m/s | -55.7°C | 2.5% | 137.3hPa | 2.8V | 00:00:00 | 00:00:00 | 00:00:00 | |
| OE5DXL-15 | 2026-08-31 23:34:39 | 48.77764 | 10.15328 | 89° | 100km/h | 14516m | 4.3m/s | -55.7°C | 5.9% | 137.5hPa | 2.8V | 00:00:00 | 00:00:00 | 00:00:00 | |
| PG1ADW-2 | 2026-08-31 23:34:38 | 48.77763 | 10.15290 | 89° | 100km/h | 14512m | 4.0m/s | -55.8°C | 5.9% | 137.6hPa | 2.8V | 00:00:00 | 01:05:17 | 00:00:00 | |
| DO3MHA-11 | 2026-08-31 23:34:37 | 48.77762 | 10.15253 | 89° | 100km/h | 14508m | 4.0m/s | -55.8°C | 5.9% | 137.7hPa | 2.8V | 00:00:00 | 01:05:16 | 00:00:00 | |
| DM0DOS-11 | 2026-08-31 23:34:34 | 48.77760 | 10.15024 | 90° | 99km/h | 14483m | 4.7m/s | -56°C | 6% | 138.2hPa | 2.8V | 08:30:00 | 01:05:10 | 00:00:00 | |
| NBG1-10 | 2026-08-31 23:34:34 | 48.77760 | 10.15137 | 90° | 102km/h | 14495m | 4.2m/s | -55.9°C | 5.9% | 137.9hPa | 2.7V | 00:00:00 | 01:05:13 | 00:00:00 | |
| DO3MHA-12 | 2026-08-31 23:34:33 | 48.77760 | 10.15099 | 90° | 99km/h | 14491m | 4.3m/s | -55.9°C | 6.0% | 138.0hPa | 2.7V | 00:00:00 | 01:05:12 | 00:00:00 | |
| DB0UT-7 | 2026-08-31 23:34:31 | 48.77760 | 10.15024 | 91° | 102km/h | 14483m | 4.6m/s | -56.0°C | 6.0% | 138.2hPa | 2.7V | 00:00:00 | 01:05:10 | 00:00:00 | |
| OE5DRO-10 | 2026-08-31 23:34:30 | 48.77760 | 10.14986 | 91° | 102km/h | 14479m | 4.1m/s | -56.0°C | 6.0% | 138.3hPa | 2.7V | 00:00:00 | 00:00:00 | 00:00:00 | |
| DK5PH-5 | 2026-08-31 23:34:28 | 48.77761 | 10.14910 | 91° | 102km/h | 14471m | 4.5m/s | -56.0°C | 6.1% | 138.5hPa | 2.6V | 00:00:00 | 01:05:07 | 00:00:00 | |
| DO3MHA-11 | 2026-08-31 23:34:27 | 48.77762 | 10.14872 | 91° | 102km/h | 14467m | 2.9m/s | -56.0°C | 6.1% | 138.5hPa | 2.7V | 00:00:00 | 01:05:06 | 08:30:00 | |
| DM0DOS-11 | 2026-08-31 23:34:24 | 48.77761 | 10.14640 | 88° | 102km/h | 14444m | 3.3m/s | -55.9°C | 6% | 139.1hPa | 2.8V | 08:30:00 | 01:05:00 | 00:00:00 | |
| DJ8HS-15 | 2026-08-31 23:34:24 | 48.77762 | 10.14758 | 90° | 102km/h | 14455m | 3.6m/s | -55.9°C | 6.0% | 138.8hPa | 2.6V | 00:00:00 | 01:05:03 | 08:30:00 | |
| DO3MHA-12 | 2026-08-31 23:34:23 | 48.77762 | 10.14718 | 90° | 102km/h | 14451m | 4.2m/s | -55.9°C | 6.0% | 138.9hPa | 2.6V | 00:00:00 | 01:05:02 | 00:00:00 | |
| DO9HM | 2026-08-31 23:34:21 | 48.77761 | 10.14679 | 89° | 102km/h | 14448m | 3.9m/s | -55.9°C | 2.5% | 139.1hPa | 2.6V | 00:00:00 | 00:00:00 | 00:00:00 | |
| DN1GJH-1 | 2026-08-31 23:34:20 | 48.77761 | 10.14640 | 89° | 102km/h | 14444m | 3.3m/s | -55.9°C | 2.5% | 139.1hPa | 2.6V | 00:00:00 | 00:00:00 | 00:00:00 | |
| DF3TZ-5 | 2026-08-31 23:34:19 | 48.77759 | 10.14562 | 87° | 104km/h | 14435m | 4.1m/s | -55.9°C | 2.4% | 139.3hPa | 2.6V | 00:00:00 | 00:00:00 | 00:00:00 | |
| PG1ADW-2 | 2026-08-31 23:34:18 | 48.77758 | 10.14522 | 88° | 102km/h | 14432m | 3.4m/s | -55.8°C | 5.9% | 139.3hPa | 2.6V | 00:00:00 | 00:00:00 | 00:00:00 | |
| DO3MHA-11 | 2026-08-31 23:34:17 | 48.77756 | 10.14482 | 87° | 102km/h | 14428m | 4.6m/s | -55.8°C | 5.9% | 139.4hPa | 2.6V | 00:00:00 | 01:04:56 | 00:00:00 | |
| DB0NH | 2026-08-31 23:34:16 | 48.77755 | 10.14444 | 87° | 104km/h | 14423m | 3.7m/s | -55.8°C | 5.9% | 139.5hPa | 2.6V | 00:00:00 | 01:04:55 | 00:00:00 | |
| DM0DOS-11 | 2026-08-31 23:34:13 | 48.77748 | 10.14248 | 86° | 104km/h | 14403m | 4m/s | -56°C | 6% | 140hPa | 2.6V | 08:30:00 | 01:04:50 | 00:00:00 | |
| DO3MHA-12 | 2026-08-31 23:34:13 | 48.77751 | 10.14327 | 88° | 102km/h | 14411m | 3.5m/s | -55.9°C | 6.0% | 139.8hPa | 2.6V | 00:00:00 | 01:04:52 | 08:30:00 | |
| OE3JTB-15 | 2026-08-31 23:34:12 | 48.77749 | 10.14288 | 87° | 106km/h | 14407m | 4.5m/s | -55.9°C | 6.0% | 139.8hPa | 2.6V | 00:00:00 | 00:00:00 | 00:00:00 | |
| OE5DRO-10 | 2026-08-31 23:34:11 | 48.77747 | 10.14248 | 87° | 104km/h | 14403m | 3.9m/s | -55.9°C | 6.0% | 139.9hPa | 2.8V | 00:00:00 | 00:00:00 | 00:00:00 | |
| DL1ZP-14 | 2026-08-31 23:34:10 | 48.77746 | 10.14209 | 86° | 102km/h | 14399m | 3.6m/s | -56.0°C | 2.4% | 140.1hPa | 2.8V | 00:00:00 | 00:00:00 | 00:00:00 | |
| OE5DXL-15 | 2026-08-31 23:34:09 | 48.77745 | 10.14169 | 89° | 104km/h | 14395m | 5.0m/s | -55.9°C | 5.9% | 140.1hPa | 2.7V | 00:00:00 | 00:00:00 | 00:00:00 | |
| DF7PN | 2026-08-31 23:34:08 | 48.77744 | 10.14130 | 89° | 102km/h | 14390m | 4.3m/s | -55.9°C | 2.4% | 140.3hPa | 2.6V | 00:00:00 | 00:00:00 | 00:00:00 | |
| DO3MHA-11 | 2026-08-31 23:34:07 | 48.77744 | 10.14091 | 90° | 104km/h | 14386m | 4.9m/s | -55.9°C | 5.9% | 140.4hPa | 2.6V | 00:00:00 | 01:04:46 | 00:00:00 | |
| DM0DOS-11 | 2026-08-31 23:34:06 | 48.77740 | 10.13855 | 86° | 104km/h | 14360m | 4m/s | -55.8°C | 5.9% | 140.9hPa | 2.6V | 08:30:00 | 01:04:40 | 00:00:00 | |
| DJ8HS-15 | 2026-08-31 23:34:04 | 48.77743 | 10.13974 | 90° | 106km/h | 14373m | 4.9m/s | -55.8°C | 5.9% | 140.6hPa | 2.6V | 00:00:00 | 01:04:43 | 00:00:00 | |
| DO3MHA-12 | 2026-08-31 23:34:03 | 48.77742 | 10.13935 | 90° | 106km/h | 14369m | 2.9m/s | -55.8°C | 5.9% | 140.7hPa | 2.6V | 00:00:00 | 01:04:42 | 00:00:00 | |
| DO9HM | 2026-08-31 23:34:02 | 48.77742 | 10.13895 | 89° | 104km/h | 14365m | 5.1m/s | -55.8°C | 2.4% | 140.9hPa | 2.6V | 00:00:00 | 00:00:00 | 00:00:00 | |
| BIOWL9-15 | 2026-08-31 23:34:00 | 48.77708 | 10.13253 | 85° | 104km/h | 14295m | 4.0m/s | 0°C | -1.0% | -1.0hPa | 2.6V | 00:00:00 | 00:00:00 | 00:00:00 | |
| DK5PH-5 | 2026-08-31 23:33:58 | 48.77735 | 10.13733 | 86° | 104km/h | 14347m | 4.5m/s | -55.7°C | 5.8% | 141.2hPa | 2.6V | 00:00:00 | 01:04:37 | 00:00:00 | |
| DO3MHA-11 | 2026-08-31 23:33:57 | 48.77732 | 10.13692 | 84° | 104km/h | 14342m | 4.6m/s | -55.8°C | 5.9% | 141.3hPa | 2.6V | 00:00:00 | 01:04:36 | 00:00:00 | |
| DM0DOS-11 | 2026-08-31 23:33:54 | 48.77718 | 10.13455 | 84° | 102km/h | 14317m | 3.4m/s | -55.7°C | 5.8% | 141.9hPa | 2.6V | 08:30:00 | 01:04:30 | 00:00:00 | |
| DF3TZ-5 | 2026-08-31 23:33:48 | 48.77710 | 10.13294 | 85° | 106km/h | 14300m | 5.3m/s | -55.6°C | 2.3% | 142.3hPa | 2.6V | 00:00:00 | 00:00:00 | 00:00:00 | |
| DO3MHA-11 | 2026-08-31 23:33:47 | 48.77710 | 10.13294 | 86° | 108km/h | 14300m | 5.3m/s | -55.6°C | 5.8% | 142.2hPa | 2.6V | 00:00:00 | 01:04:26 | 00:00:00 | |
| DB0NH | 2026-08-31 23:33:46 | 48.77708 | 10.13253 | 86° | 104km/h | 14295m | 4.0m/s | -55.5°C | 5.8% | 142.4hPa | 2.6V | 00:00:00 | 01:04:25 | 00:00:00 | |
| DM0DOS-11 | 2026-08-31 23:33:44 | 48.77697 | 10.13049 | 82° | 108km/h | 14273m | 4m/s | -55.4°C | 5.8% | 142.9hPa | 2.8V | 08:30:00 | 01:04:20 | 00:00:00 | |
| DJ8HS-15 | 2026-08-31 23:33:44 | 48.77705 | 10.13172 | 87° | 104km/h | 14287m | 4.8m/s | -55.4°C | 5.7% | 142.5hPa | 2.7V | 00:00:00 | 01:04:23 | 00:00:00 | |
| DO3MHA-12 | 2026-08-31 23:33:43 | 48.77702 | 10.13131 | 86° | 104km/h | 14282m | 4.0m/s | -55.4°C | 5.7% | 142.6hPa | 2.7V | 00:00:00 | 01:04:22 | 00:00:00 | |
| DO9HM | 2026-08-31 23:33:41 | 48.77697 | 10.13049 | 83° | 108km/h | 14273m | 4.0m/s | -55.4°C | 2.3% | 142.9hPa | 2.6V | 00:00:00 | 00:00:00 | 00:00:00 | |
| OE5DXL-15 | 2026-08-31 23:33:39 | 48.77689 | 10.12968 | 83° | 102km/h | 14264m | 4.6m/s | -55.3°C | 5.7% | 143.1hPa | 2.6V | 00:00:00 | 00:00:00 | 00:00:00 | |
| PG1ADW-2 | 2026-08-31 23:33:38 | 48.77685 | 10.12928 | 82° | 102km/h | 14259m | 3.8m/s | -55.3°C | 5.7% | 143.2hPa | 2.6V | 00:00:00 | 00:00:00 | 00:00:00 | |
| DO3MHA-11 | 2026-08-31 23:33:37 | 48.77681 | 10.12888 | 82° | 102km/h | 14255m | 4.8m/s | -55.2°C | 5.7% | 143.2hPa | 2.6V | 00:00:00 | 01:04:16 | 00:00:00 | |
| DM0DOS-11 | 2026-08-31 23:33:33 | 48.77662 | 10.12655 | 83° | 104km/h | 14227m | 4.1m/s | -55.1°C | 5.6% | 143.9hPa | 2.6V | 08:30:00 | 01:04:10 | 00:00:00 | |
| DO3MHA-12 | 2026-08-31 23:33:33 | 48.77668 | 10.12734 | 84° | 104km/h | 14237m | 4.2m/s | -55.1°C | 5.7% | 143.6hPa | 2.7V | 00:00:00 | 01:04:12 | 00:00:00 | |
| DB0ND-19 | 2026-08-31 23:33:32 | 48.77665 | 10.12695 | 83° | 102km/h | 14232m | 5.6m/s | -55.2°C | 2.3% | 143.8hPa | 2.7V | 00:00:00 | 00:00:00 | 00:00:00 | |
| DB0UT-7 | 2026-08-31 23:33:31 | 48.77662 | 10.12655 | 84° | 100km/h | 14227m | 4.0m/s | -55.1°C | 5.6% | 143.9hPa | 2.7V | 00:00:00 | 01:04:10 | 00:00:00 | |
| AZAK | 2026-08-31 23:33:30 | 48.77662 | 10.12655 | 85° | 104km/h | 14227m | 4.1m/s | -55.1°C | 2.3% | 143.9hPa | 2.7V | 00:00:00 | 00:00:00 | 00:00:00 | |
| NBG1-10 | 2026-08-31 23:33:28 | 48.77655 | 10.12536 | 86° | 100km/h | 14213m | 4.3m/s | -55.0°C | 5.6% | 144.2hPa | 2.7V | 00:00:00 | 01:04:07 | 00:00:00 | |
| DO3MHA-11 | 2026-08-31 23:33:27 | 48.77653 | 10.12497 | 85° | 102km/h | 14208m | 5.3m/s | -55.0°C | 5.7% | 144.3hPa | 2.7V | 00:00:00 | 01:04:06 | 00:00:00 | |
| DL6DJ-15 | 2026-08-31 23:33:26 | 48.77647 | 10.12419 | 83° | 100km/h | 14199m | 4.2m/s | -55.0°C | 2.3% | 144.5hPa | 2.6V | 00:00:00 | 00:00:00 | 00:00:00 | |
| DJ8HS-15 | 2026-08-31 23:33:24 | 48.77643 | 10.12380 | 84° | 100km/h | 14195m | 4.8m/s | -55.0°C | 5.6% | 144.6hPa | 2.6V | 00:00:00 | 01:04:03 | 00:00:00 | |
| DM0DOS-11 | 2026-08-31 23:33:23 | 48.77633 | 10.12264 | 81° | 102km/h | 14181m | 3.9m/s | -55°C | 5.5% | 145hPa | 2.8V | 08:30:00 | 01:04:00 | 00:00:00 | |
| DK7TD | 2026-08-31 23:33:21 | 48.77633 | 10.12264 | 81° | 102km/h | 14181m | 3.9m/s | -55°C | 2.1% | 145hPa | 2.8V | 18:12:15 | 01:04:00 | 00:00:00 | |
| DO9HM | 2026-08-31 23:33:20 | 48.77633 | 10.12264 | 82° | 102km/h | 14181m | 3.9m/s | -55.0°C | 2.3% | 145.0hPa | 2.7V | 00:00:00 | 00:00:00 | 00:00:00 | |
| DK5PH-5 | 2026-08-31 23:33:18 | 48.77623 | 10.12147 | 84° | 99km/h | 14167m | 4.6m/s | -55.1°C | 5.5% | 145.2hPa | 2.7V | 00:00:00 | 01:03:57 | 00:00:00 | |
| DO3MHA-11 | 2026-08-31 23:33:17 | 48.77619 | 10.12107 | 83° | 99km/h | 14162m | 5.8m/s | -55.1°C | 5.6% | 145.3hPa | 2.7V | 00:00:00 | 01:03:56 | 00:00:00 | |
| DB0NH | 2026-08-31 23:33:16 | 48.77616 | 10.12068 | 83° | 99km/h | 14157m | 4.4m/s | -55.1°C | 5.6% | 145.5hPa | 2.7V | 00:00:00 | 01:03:55 | 00:00:00 | |
| OE5DRO-10 | 2026-08-31 23:33:14 | 48.77610 | 10.11991 | 85° | 99km/h | 14149m | 5.4m/s | -55.1°C | 5.6% | 145.7hPa | 2.7V | 00:00:00 | 00:00:00 | 00:00:00 | |
| DO3MHA-12 | 2026-08-31 23:33:13 | 48.77607 | 10.11953 | 86° | 97km/h | 14144m | 4.2m/s | -55.0°C | 5.6% | 145.8hPa | 2.7V | 00:00:00 | 01:03:52 | 00:00:00 | |
| DM0DOS-11 | 2026-08-31 23:33:12 | 48.77603 | 10.11878 | 84° | 97km/h | 14135m | 5.1m/s | -55.1°C | 5.6% | 146hPa | 2.6V | 08:30:00 | 01:03:50 | 00:00:00 | |
| DK7TD | 2026-08-31 23:33:09 | 48.77598 | 10.11806 | 84° | 95km/h | 14127m | 4.4m/s | -55.1°C | 2.1% | 146.2hPa | 2.6V | 18:12:15 | 01:03:48 | 00:00:00 | |
| OE5DXL-15 | 2026-08-31 23:33:09 | 48.77598 | 10.11806 | 84° | 99km/h | 14127m | 4.3m/s | -55.0°C | 5.6% | 146.1hPa | 2.8V | 00:00:00 | 00:00:00 | 00:00:00 | |
| DL1ZP-14 | 2026-08-31 23:33:08 | 48.77596 | 10.11769 | 84° | 95km/h | 14122m | 4.2m/s | -55.1°C | 2.3% | 146.3hPa | 2.8V | 00:00:00 | 00:00:00 | 00:00:00 | |
| DM0DOS-11 | 2026-08-31 23:33:07 | 48.77576 | 10.11510 | 82° | 99km/h | 14091m | 4.7m/s | -55°C | 5.6% | 147hPa | 2.8V | 08:30:00 | 01:03:40 | 00:00:00 | |
| DK7TD | 2026-08-31 23:32:58 | 48.77566 | 10.11397 | 82° | 100km/h | 14076m | 4.3m/s | -55°C | 2.3% | 147.3hPa | 2.6V | 18:12:15 | 01:03:37 | 00:00:00 | |
| DL6DJ-15 | 2026-08-31 23:32:55 | 48.77554 | 10.11248 | 82° | 97km/h | 14058m | 5.3m/s | -55.0°C | 2.4% | 147.8hPa | 2.6V | 00:00:00 | 00:00:00 | 00:00:00 | |
| DM0DOS-11 | 2026-08-31 23:32:54 | 48.77544 | 10.11136 | 82° | 97km/h | 14044m | 4.6m/s | -55°C | 5.7% | 148.1hPa | 2.6V | 08:30:00 | 01:03:30 | 00:00:00 | |
| DK7TD | 2026-08-31 23:32:47 | 48.77528 | 10.10988 | 79° | 100km/h | 14027m | 4.1m/s | -54.9°C | 2.3% | 148.5hPa | 2.8V | 18:12:15 | 01:03:26 | 00:00:00 | |
| DF3TZ-5 | 2026-08-31 23:32:46 | 48.77519 | 10.10914 | 80° | 97km/h | 14017m | 4.6m/s | -55.0°C | 2.4% | 148.7hPa | 2.6V | 00:00:00 | 00:00:00 | 00:00:00 | |
| DJ8HS-15 | 2026-08-31 23:32:44 | 48.77515 | 10.10877 | 82° | 95km/h | 14013m | 4.0m/s | -54.9°C | 5.8% | 148.8hPa | 2.6V | 00:00:00 | 01:03:23 | 00:00:00 | |
| DM0DOS-11 | 2026-08-31 23:32:43 | 48.77503 | 10.10767 | 81° | 95km/h | 13998m | 5.2m/s | -55°C | 5.8% | 149.1hPa | 2.6V | 08:30:00 | 01:03:20 | 00:00:00 | |
| DK7TD | 2026-08-31 23:32:37 | 48.77488 | 10.10624 | 80° | 97km/h | 13979m | 4.2m/s | -55°C | 2.4% | 149.6hPa | 2.6V | 18:12:15 | 01:03:16 | 00:00:00 | |
| DO3MHA-11 | 2026-08-31 23:32:37 | 48.77488 | 10.10623 | 81° | 95km/h | 13979m | 4.1m/s | -54.9°C | 5.8% | 149.6hPa | 2.6V | 00:00:00 | 01:03:16 | 00:00:00 | |
| OE5DRO-10 | 2026-08-31 23:32:36 | 48.77484 | 10.10587 | 81° | 91km/h | 13974m | 5.5m/s | -54.9°C | 5.8% | 149.6hPa | 2.6V | 00:00:00 | 00:00:00 | 08:30:00 | |
| DF7PN | 2026-08-31 23:32:35 | 48.77480 | 10.10551 | 81° | 95km/h | 13969m | 4.5m/s | -55.0°C | 2.5% | 149.9hPa | 2.8V | 00:00:00 | 00:00:00 | 00:00:00 | |
| DM0DOS-11 | 2026-08-31 23:32:33 | 48.77465 | 10.10407 | 80° | 95km/h | 13951m | 4m/s | -55.1°C | 6% | 150.3hPa | 2.8V | 08:30:00 | 01:03:10 | 00:00:00 | |
| BIOWL1-15 | 2026-08-31 23:32:27 | 48.77452 | 10.10268 | 83° | 91km/h | 13932m | 4.8m/s | 0°C | 0% | 150.7hPa | 2.6V | 18:12:15 | 01:03:06 | 00:00:00 | |
| DM0DOS-11 | 2026-08-31 23:32:27 | 48.77436 | 10.10065 | 81° | 91km/h | 13905m | 5.1m/s | -55°C | 6.1% | 151.3hPa | 2.6V | 08:30:00 | 01:03:00 | 00:00:00 | |
| DK7TD | 2026-08-31 23:32:27 | 48.77450 | 10.10234 | 83° | 89km/h | 13928m | 3.8m/s | -55.2°C | 2.7% | 150.8hPa | 2.8V | 18:12:15 | 01:03:05 | 00:00:00 | |
| BIOWL1-15 | 2026-08-31 23:32:17 | 48.77419 | 10.09926 | 80° | 89km/h | 13887m | 4.6m/s | 0°C | 0% | 151.8hPa | 2.8V | 18:12:15 | 01:02:56 | 00:00:00 | |
| DO3MHA-11 | 2026-08-31 23:32:17 | 48.77419 | 10.09926 | 81° | 89km/h | 13888m | 4.5m/s | -54.9°C | 6.2% | 151.8hPa | 2.8V | 00:00:00 | 01:02:56 | 00:00:00 | |
| DM0DOS-11 | 2026-08-31 23:32:16 | 48.77400 | 10.09726 | 81° | 91km/h | 13858m | 5m/s | -54.7°C | 6.2% | 152.5hPa | 2.8V | 08:30:00 | 01:02:50 | 00:00:00 | |
| DK7TD | 2026-08-31 23:32:14 | 48.77409 | 10.09826 | 83° | 88km/h | 13873m | 4.9m/s | -54.8°C | 2.9% | 152.1hPa | 2.6V | 18:12:15 | 01:02:53 | 00:00:00 | |
| DO3MHA-12 | 2026-08-31 23:32:13 | 48.77406 | 10.09793 | 83° | 91km/h | 13867m | 5.4m/s | -54.7°C | 6.2% | 152.2hPa | 2.6V | 00:00:00 | 01:02:52 | 00:00:00 | |
| AZAK | 2026-08-31 23:32:09 | 48.77393 | 10.09656 | 83° | 97km/h | 13849m | 3.7m/s | -54.7°C | 2.8% | 152.7hPa | 2.6V | 00:00:00 | 00:00:00 | 00:00:00 | |
| DO3MHA-11 | 2026-08-31 23:32:07 | 48.77386 | 10.09584 | 82° | 93km/h | 13840m | 4.9m/s | -54.6°C | 6.2% | 152.9hPa | 2.6V | 00:00:00 | 01:02:46 | 00:00:00 | |
| DM0DOS-11 | 2026-08-31 23:32:06 | 48.77367 | 10.09374 | 83° | 91km/h | 13812m | 5.8m/s | -54.5°C | 6.2% | 153.6hPa | 2.6V | 08:30:00 | 01:02:40 | 00:00:00 | |
| DK7TD | 2026-08-31 23:32:00 | 48.77365 | 10.09339 | 84° | 91km/h | 13808m | 3.9m/s | -54.6°C | 3.2% | 153.7hPa | 2.6V | 18:12:15 | 01:02:39 | 00:00:00 | |
| DB0ND-19 | 2026-08-31 23:31:59 | 48.77363 | 10.09304 | 84° | 91km/h | 13803m | 5.5m/s | -54.6°C | 2.9% | 153.8hPa | 2.7V | 00:00:00 | 00:00:00 | 00:00:00 | |
| PG1ADW-2 | 2026-08-31 23:31:58 | 48.77360 | 10.09268 | 86° | 97km/h | 13798m | 4.8m/s | -54.5°C | 6.3% | 153.9hPa | 2.7V | 00:00:00 | 01:02:37 | 00:00:00 | |
| DO3MHA-11 | 2026-08-31 23:31:57 | 48.77359 | 10.09232 | 86° | 97km/h | 13793m | 5.1m/s | -54.5°C | 6.4% | 154.0hPa | 2.7V | 00:00:00 | 01:02:36 | 00:00:00 | |
| DM0DOS-11 | 2026-08-31 23:31:56 | 48.77346 | 10.09009 | 85° | 99km/h | 13766m | 4.9m/s | -54.6°C | 6.5% | 154.7hPa | 2.8V | 08:30:00 | 01:02:30 | 00:00:00 | |
| BIOWL1-15 | 2026-08-31 23:31:55 | 48.77350 | 10.09085 | 85° | 100km/h | 13775m | 5m/s | 0°C | 0% | 0hPa | 2.6V | 18:12:15 | 01:02:32 | 00:00:00 | |
| DK7TD | 2026-08-31 23:31:48 | 48.77340 | 10.08902 | 86° | 93km/h | 13751m | 5.8m/s | -54.6°C | 3.5% | 155.1hPa | 2.6V | 18:12:15 | 01:02:27 | 00:00:00 | |
| DO3MHA-11 | 2026-08-31 23:31:47 | 48.77338 | 10.08866 | 87° | 97km/h | 13746m | 4.6m/s | -54.6°C | 6.5% | 155.1hPa | 2.6V | 00:00:00 | 01:02:26 | 00:00:00 | |
| DM0DOS-11 | 2026-08-31 23:31:46 | 48.77324 | 10.08646 | 84° | 99km/h | 13718m | 4m/s | -54.7°C | 6.6% | 155.8hPa | 2.6V | 08:30:00 | 01:02:20 | 00:00:00 | |
| BIOWL1-15 | 2026-08-31 23:31:43 | 48.77329 | 10.08721 | 84° | 99km/h | 13728m | 5.1m/s | 0°C | 0% | 0hPa | 2.6V | 18:12:15 | 01:02:22 | 00:00:00 | |
| DK7TD | 2026-08-31 23:31:38 | 48.77316 | 10.08537 | 84° | 93km/h | 13704m | 4.5m/s | -54.7°C | 3.7% | 156.2hPa | 2.6V | 18:12:15 | 01:02:17 | 00:00:00 | |
| PG1ADW-2 | 2026-08-31 23:31:38 | 48.77316 | 10.08536 | 84° | 95km/h | 13704m | 4.4m/s | -54.6°C | 6.6% | 156.1hPa | 2.8V | 00:00:00 | 00:00:00 | 00:00:00 | |
| DO3MHA-11 | 2026-08-31 23:31:37 | 48.77313 | 10.08501 | 86° | 97km/h | 13700m | 5.4m/s | -54.6°C | 6.7% | 156.3hPa | 2.8V | 00:00:00 | 01:02:16 | 00:00:00 | |
| DM0DOS-11 | 2026-08-31 23:31:36 | 48.77297 | 10.08282 | 82° | 100km/h | 13671m | 4.8m/s | -54.8°C | 6.8% | 157hPa | 2.8V | 08:30:00 | 01:02:10 | 00:00:00 | |
| BIOWL1-15 | 2026-08-31 23:31:32 | 48.77300 | 10.08320 | 82° | 99km/h | 13676m | 5.1m/s | 0°C | 0% | 0hPa | 2.6V | 18:12:15 | 01:02:11 | 00:00:00 | |
| DK7TD | 2026-08-31 23:31:28 | 48.77287 | 10.08172 | 81° | 95km/h | 13658m | 5.5m/s | -54.9°C | 3.8% | 157.3hPa | 2.6V | 18:12:15 | 01:02:07 | 00:00:00 | |
| DB0ND-19 | 2026-08-31 23:31:28 | 48.77287 | 10.08172 | 80° | 93km/h | 13658m | 5.5m/s | -54.9°C | 3.3% | 157.3hPa | 2.6V | 00:00:00 | 00:00:00 | 00:00:00 | |
| DO3MHA-11 | 2026-08-31 23:31:27 | 48.77283 | 10.08136 | 80° | 97km/h | 13654m | 4.1m/s | -54.9°C | 6.8% | 157.4hPa | 2.6V | 00:00:00 | 01:02:06 | 08:30:00 | |
| DM0DOS-11 | 2026-08-31 23:31:25 | 48.77260 | 10.07924 | 81° | 99km/h | 13627m | 3.8m/s | -55°C | 6.8% | 158.1hPa | 2.6V | 08:30:00 | 01:02:00 | 00:00:00 | |
| BIOWL1-15 | 2026-08-31 23:31:21 | 48.77225 | 10.07583 | 78° | 97km/h | 13586m | 5.1m/s | 0°C | 0% | 0hPa | 2.8V | 18:12:15 | 01:01:51 | 00:00:00 | |
| DK7TD | 2026-08-31 23:31:17 | 48.77247 | 10.07771 | 82° | 102km/h | 13609m | 5.1m/s | -55.1°C | 3.8% | 158.5hPa | 2.8V | 18:12:15 | 01:01:56 | 00:00:00 | |
| BIOWL1-15 | 2026-08-31 23:31:10 | 48.77209 | 10.07474 | 78° | 97km/h | 13572m | 4.9m/s | 0°C | 0% | 0hPa | 2.6V | 18:12:15 | 01:01:48 | 00:00:00 | |
| DK7TD | 2026-08-31 23:31:07 | 48.77200 | 10.07401 | 79° | 100km/h | 13563m | 5.2m/s | -55.5°C | 3.7% | 159.7hPa | 2.6V | 18:12:15 | 01:01:46 | 00:00:00 | |
| DO3MHA-11 | 2026-08-31 23:31:07 | 48.77199 | 10.07401 | 79° | 99km/h | 13563m | 5.2m/s | -55.5°C | 6.9% | 159.6hPa | 2.8V | 00:00:00 | 01:01:46 | 00:00:00 | |
| AZAK | 2026-08-31 23:31:06 | 48.77199 | 10.07401 | 80° | 100km/h | 13563m | 5.2m/s | -55.5°C | 3.3% | 159.7hPa | 2.8V | 00:00:00 | 00:00:00 | 00:00:00 | |
| DJ8HS-15 | 2026-08-31 23:31:04 | 48.77184 | 10.07285 | 79° | 95km/h | 13549m | 5.1m/s | -55.4°C | 6.9% | 160.0hPa | 2.8V | 00:00:00 | 01:01:43 | 00:00:00 | |
| DO3MHA-12 | 2026-08-31 23:31:03 | 48.77179 | 10.07247 | 79° | 95km/h | 13545m | 3.4m/s | -55.4°C | 6.9% | 160.1hPa | 2.8V | 00:00:00 | 01:01:42 | 00:00:00 | |
| DF7PN | 2026-08-31 23:31:02 | 48.77168 | 10.07173 | 74° | 97km/h | 13536m | 5.6m/s | -55.4°C | 3.2% | 160.3hPa | 2.8V | 00:00:00 | 00:00:00 | 00:00:00 | |
| DM0DOS-11 | 2026-08-31 23:31:01 | 48.77130 | 10.07005 | 71° | 93km/h | 13513m | 4.5m/s | -55.3°C | 6.8% | 160.9hPa | 2.8V | 08:30:00 | 01:01:35 | 00:00:00 | |
| DK7TD | 2026-08-31 23:30:56 | 48.77130 | 10.07005 | 71° | 93km/h | 13513m | 4.5m/s | -55.3°C | 3.6% | 160.9hPa | 2.8V | 18:12:15 | 01:01:35 | 00:00:00 | |
| DL6DJ-15 | 2026-08-31 23:30:51 | 48.77089 | 10.06800 | 73° | 95km/h | 13486m | 3.7m/s | -55.1°C | 3.2% | 161.6hPa | 2.8V | 00:00:00 | 00:00:00 | 00:00:00 | |
| DM0DOS-11 | 2026-08-31 23:30:49 | 48.77065 | 10.06661 | 77° | 95km/h | 13470m | 5m/s | -55°C | 6.8% | 162hPa | 2.8V | 08:30:00 | 01:01:25 | 00:00:00 | |
| DK7TD | 2026-08-31 23:30:46 | 48.77065 | 10.06661 | 77° | 95km/h | 13470m | 5m/s | -55°C | 3.7% | 162hPa | 2.8V | 18:12:15 | 01:01:25 | 00:00:00 | |
| DB0NH | 2026-08-31 23:30:46 | 48.77065 | 10.06661 | 78° | 99km/h | 13470m | 5.0m/s | -55.0°C | 6.8% | 162.0hPa | 2.7V | 00:00:00 | 01:01:25 | 00:00:00 | |
| OE5WHR-10 | 2026-08-31 23:30:45 | 48.77060 | 10.06626 | 77° | 97km/h | 13465m | 3.8m/s | -54.9°C | 0% | 162.1hPa | 2.7V | 00:00:00 | 00:00:00 | 08:30:00 | |
| DJ8HS-15 | 2026-08-31 23:30:44 | 48.77054 | 10.06591 | 76° | 97km/h | 13461m | 5.4m/s | -54.9°C | 6.6% | 162.2hPa | 2.6V | 00:00:00 | 01:01:23 | 00:00:00 | |
| DO3MHA-12 | 2026-08-31 23:30:43 | 48.77048 | 10.06556 | 74° | 97km/h | 13456m | 4.3m/s | -54.9°C | 6.7% | 162.3hPa | 2.6V | 00:00:00 | 01:01:22 | 00:00:00 | |
| OE5DRO-10 | 2026-08-31 23:30:42 | 48.77041 | 10.06522 | 73° | 97km/h | 13451m | 5.0m/s | -54.9°C | 6.7% | 162.4hPa | 2.6V | 00:00:00 | 00:00:00 | 00:00:00 | |
| DF3TZ-5 | 2026-08-31 23:30:41 | 48.77034 | 10.06487 | 72° | 97km/h | 13446m | 5.0m/s | -54.9°C | 3.2% | 162.6hPa | 2.6V | 00:00:00 | 00:00:00 | 00:00:00 | |
| OE5DXL-15 | 2026-08-31 23:30:39 | 48.77019 | 10.06416 | 73° | 99km/h | 13438m | 4.4m/s | -54.9°C | 6.7% | 162.8hPa | 2.6V | 00:00:00 | 00:00:00 | 00:00:00 | |
| DM0DOS-11 | 2026-08-31 23:30:38 | 48.76998 | 10.06310 | 75° | 97km/h | 13424m | 4.7m/s | -54.9°C | 6.8% | 163.2hPa | 2.6V | 08:30:00 | 01:01:15 | 00:00:00 | |
| DK7TD | 2026-08-31 23:30:35 | 48.76992 | 10.06275 | 77° | 95km/h | 13419m | 4.8m/s | -54.9°C | 3.8% | 163.3hPa | 2.6V | 18:12:15 | 01:01:14 | 00:00:00 | |
| OE9MKV-15 | 2026-08-31 23:30:35 | 48.76992 | 10.06275 | 77° | 99km/h | 13419m | 4.7m/s | 0°C | 0% | 0hPa | 2.6V | 00:00:00 | 01:01:14 | 00:00:00 | |
| DN1GJH-1 | 2026-08-31 23:30:34 | 48.76992 | 10.06275 | 78° | 95km/h | 13419m | 4.8m/s | -54.9°C | 3.3% | 163.3hPa | 2.6V | 00:00:00 | 00:00:00 | 00:00:00 | |
| DO3MHA-12 | 2026-08-31 23:30:33 | 48.76982 | 10.06204 | 79° | 99km/h | 13410m | 4.0m/s | -54.9°C | 6.9% | 163.5hPa | 2.6V | 00:00:00 | 01:01:12 | 00:00:00 | |
| DB0UT-7 | 2026-08-31 23:30:31 | 48.76973 | 10.06130 | 80° | 100km/h | 13401m | 3.9m/s | -55.0°C | 7.1% | 163.7hPa | 2.6V | 00:00:00 | 01:01:10 | 00:00:00 | |
| DM7RM-13 | 2026-08-31 23:30:30 | 48.76973 | 10.06130 | 81° | 99km/h | 13401m | 4.0m/s | -55.1°C | 3.5% | 163.8hPa | 2.6V | 00:00:00 | 00:00:00 | 00:00:00 | |
| DM0DOS-11 | 2026-08-31 23:30:26 | 48.76949 | 10.05944 | 77° | 100km/h | 13378m | 4.1m/s | -55.4°C | 7.4% | 164.4hPa | 2.6V | 08:30:00 | 01:01:05 | 00:00:00 | |
| DK7TD | 2026-08-31 23:30:25 | 48.76943 | 10.05907 | 77° | 100km/h | 13373m | 5.4m/s | -55.4°C | 4.3% | 164.5hPa | 2.6V | 18:12:15 | 01:01:04 | 00:00:00 | |
| DJ8HS-15 | 2026-08-31 23:30:24 | 48.76937 | 10.05870 | 78° | 100km/h | 13369m | 3.9m/s | -55.3°C | 7.4% | 164.6hPa | 2.7V | 00:00:00 | 01:01:03 | 00:00:00 | |
| DO3MHA-12 | 2026-08-31 23:30:23 | 48.76932 | 10.05833 | 77° | 100km/h | 13365m | 3.9m/s | -55.3°C | 7.4% | 164.7hPa | 2.8V | 00:00:00 | 01:01:02 | 00:00:00 | |
| OE5WHR-10 | 2026-08-31 23:30:22 | 48.76926 | 10.05796 | 78° | 99km/h | 13360m | 5.1m/s | 0°C | 0% | 0hPa | 2.8V | 00:00:00 | 00:00:00 | 00:00:00 | |
| DM0DOS-11 | 2026-08-31 23:30:21 | 48.76888 | 10.05532 | 78° | 99km/h | 13328m | 5.2m/s | -55.2°C | 7.4% | 165.7hPa | 2.8V | 08:30:00 | 01:00:54 | 00:00:00 | |
| DK7TD | 2026-08-31 23:30:16 | 48.76888 | 10.05532 | 78° | 99km/h | 13328m | 5.2m/s | -55.2°C | 4.3% | 165.7hPa | 2.8V | 18:12:15 | 01:00:54 | 00:00:00 | |
| DO3MHA-12 | 2026-08-31 23:30:13 | 48.76877 | 10.05458 | 77° | 100km/h | 13319m | 3.9m/s | -55.1°C | 7.3% | 165.8hPa | 2.6V | 00:00:00 | 01:00:52 | 00:00:00 | |
| DO9HM | 2026-08-31 23:30:12 | 48.76877 | 10.05458 | 78° | 99km/h | 13319m | 4.0m/s | -55.1°C | 3.7% | 165.9hPa | 2.7V | 00:00:00 | 00:00:00 | 00:00:00 | |
| DF3TZ-5 | 2026-08-31 23:30:11 | 48.76859 | 10.05347 | 76° | 100km/h | 13306m | 5.4m/s | -55.1°C | 3.6% | 166.3hPa | 2.7V | 00:00:00 | 00:00:00 | 00:00:00 | |
| DM0DOS-11 | 2026-08-31 23:30:10 | 48.76825 | 10.05162 | 73° | 99km/h | 13283m | 4.6m/s | -54.9°C | 7.1% | 166.8hPa | 2.7V | 08:30:00 | 01:00:44 | 00:00:00 | |
| DK7TD | 2026-08-31 23:30:04 | 48.76818 | 10.05126 | 74° | 97km/h | 13279m | 3.6m/s | -54.9°C | 4.2% | 166.9hPa | 2.8V | 18:12:15 | 01:00:43 | 00:00:00 | |
| DJ8HS-15 | 2026-08-31 23:30:04 | 48.76818 | 10.05126 | 75° | 93km/h | 13280m | 3.5m/s | -54.9°C | 7.2% | 166.9hPa | 2.8V | 00:00:00 | 01:00:43 | 00:00:00 | |
| DL1ZP-14 | 2026-08-31 23:30:02 | 48.76805 | 10.05054 | 74° | 97km/h | 13271m | 4.0m/s | -54.9°C | 3.6% | 167.2hPa | 2.8V | 00:00:00 | 00:00:00 | 00:00:00 | |
| DB0UT-7 | 2026-08-31 23:30:01 | 48.76798 | 10.05019 | 76° | 93km/h | 13266m | 4.6m/s | -54.9°C | 7.2% | 167.2hPa | 2.6V | 00:00:00 | 00:00:00 | 00:00:00 | |
| DM0DOS-11 | 2026-08-31 23:30:00 | 48.76764 | 10.04806 | 76° | 95km/h | 13241m | 4.6m/s | -55.1°C | 7.4% | 168hPa | 2.6V | 08:30:00 | 01:00:34 | 00:00:00 | |
| DK7TD | 2026-08-31 23:29:53 | 48.76751 | 10.04736 | 74° | 95km/h | 13233m | 5.2m/s | -55°C | 4.2% | 168.2hPa | 2.8V | 18:12:15 | 01:00:32 | 00:00:00 | |
| DO3MHA-12 | 2026-08-31 23:29:53 | 48.76751 | 10.04736 | 75° | 91km/h | 13233m | 5.2m/s | -55.0°C | 7.4% | 168.1hPa | 2.8V | 00:00:00 | 01:00:32 | 00:00:00 | |
| DO9HM | 2026-08-31 23:29:52 | 48.76744 | 10.04701 | 74° | 95km/h | 13228m | 3.6m/s | -55.0°C | 3.7% | 168.3hPa | 2.8V | 00:00:00 | 00:00:00 | 00:00:00 | |
| DM0DOS-11 | 2026-08-31 23:29:50 | 48.76708 | 10.04465 | 79° | 91km/h | 13198m | 4.8m/s | -54.8°C | 6.9% | 169.1hPa | 2.8V | 08:30:00 | 01:00:24 | 00:00:00 | |
| DL6DJ-15 | 2026-08-31 23:29:48 | 48.76721 | 10.04567 | 78° | 88km/h | 13211m | 4.2m/s | -54.9°C | 3.5% | 168.7hPa | 2.7V | 00:00:00 | 00:00:00 | 00:00:00 | |
| DK7TD | 2026-08-31 23:29:43 | 48.76700 | 10.04395 | 80° | 93km/h | 13189m | 4.5m/s | -54.8°C | 3.8% | 169.3hPa | 2.7V | 18:12:15 | 01:00:22 | 00:00:00 | |
| DO3MHA-12 | 2026-08-31 23:29:43 | 48.76700 | 10.04395 | 81° | 93km/h | 13189m | 4.4m/s | -54.8°C | 6.9% | 169.3hPa | 2.7V | 00:00:00 | 01:00:22 | 08:30:00 | |
| DF1GD-15 | 2026-08-31 23:29:40 | 48.76690 | 10.04325 | 79° | 95km/h | 13180m | 3.8m/s | -54.8°C | 3.4% | 169.5hPa | 2.8V | 00:00:00 | 00:00:00 | 00:00:00 | |
| DM0DOS-11 | 2026-08-31 23:29:39 | 48.76654 | 10.04119 | 72° | 91km/h | 13154m | 4.3m/s | -54.6°C | 6.8% | 170.2hPa | 2.8V | 08:30:00 | 01:00:14 | 00:00:00 | |
| OE5DXL-15 | 2026-08-31 23:29:39 | 48.76680 | 10.04255 | 77° | 89km/h | 13171m | 4.2m/s | -54.7°C | 6.8% | 169.7hPa | 2.7V | 00:00:00 | 00:00:00 | 00:00:00 | |
| DO3MHA-11 | 2026-08-31 23:29:37 | 48.76668 | 10.04187 | 74° | 91km/h | 13163m | 5.1m/s | -54.6°C | 6.8% | 170.0hPa | 2.7V | 00:00:00 | 01:00:16 | 00:00:00 | |
| OE9MKV-15 | 2026-08-31 23:29:35 | 48.76654 | 10.04119 | 73° | 89km/h | 13154m | 4.3m/s | 0°C | 0% | 0hPa | 2.7V | 00:00:00 | 01:00:14 | 00:00:00 | |
| DO3MHA-12 | 2026-08-31 23:29:33 | 48.76641 | 10.04053 | 75° | 91km/h | 13145m | 3.6m/s | -54.5°C | 6.8% | 170.4hPa | 2.7V | 00:00:00 | 01:00:12 | 00:00:00 | |
| DB0UT-7 | 2026-08-31 23:29:31 | 48.76629 | 10.03986 | 75° | 89km/h | 13137m | 3.9m/s | -54.5°C | 6.8% | 170.6hPa | 2.7V | 00:00:00 | 01:00:10 | 00:00:00 | |
| DM0DOS-11 | 2026-08-31 23:29:29 | 48.76595 | 10.03782 | 72° | 93km/h | 13111m | 4.9m/s | -54.4°C | 6.4% | 171.3hPa | 2.7V | 08:30:00 | 01:00:04 | 00:00:00 | |
| DK7TD | 2026-08-31 23:29:28 | 48.76612 | 10.03883 | 76° | 91km/h | 13124m | 4.3m/s | -54.5°C | 3.5% | 171hPa | 2.8V | 18:12:15 | 01:00:07 | 00:00:00 | |
| DO3MHA-11 | 2026-08-31 23:29:27 | 48.76607 | 10.03849 | 77° | 89km/h | 13120m | 3.4m/s | -54.4°C | 6.6% | 171.1hPa | 2.6V | 00:00:00 | 01:00:06 | 00:00:00 | |
| OE5DRO-10 | 2026-08-31 23:29:26 | 48.76601 | 10.03816 | 75° | 88km/h | 13116m | 4.3m/s | -54.3°C | 6.5% | 171.2hPa | 2.7V | 00:00:00 | 00:00:00 | 00:00:00 | |
| OE3JTB-15 | 2026-08-31 23:29:25 | 48.76595 | 10.03782 | 73° | 88km/h | 13112m | 4.9m/s | -54.3°C | 6.4% | 171.3hPa | 2.7V | 00:00:00 | 00:00:00 | 00:00:00 | |
| DJ8HS-15 | 2026-08-31 23:29:24 | 48.76587 | 10.03747 | 71° | 89km/h | 13107m | 3.9m/s | -54.3°C | 6.3% | 171.4hPa | 2.7V | 00:00:00 | 01:00:03 | 00:00:00 | |
| DO3MHA-12 | 2026-08-31 23:29:23 | 48.76579 | 10.03714 | 70° | 84km/h | 13103m | 5.2m/s | -54.2°C | 6.3% | 171.5hPa | 2.8V | 00:00:00 | 01:00:02 | 00:00:00 | |
| DM0DOS-11 | 2026-08-31 23:29:19 | 48.76534 | 10.03464 | 81° | 80km/h | 13063m | 6.1m/s | -54.1°C | 6.3% | 172.7hPa | 2.8V | 08:30:00 | 00:59:54 | 00:00:00 | |
| DK7TD | 2026-08-31 23:29:18 | 48.76546 | 10.03557 | 76° | 82km/h | 13076m | 4.1m/s | -54.2°C | 3.3% | 172.3hPa | 2.7V | 18:12:15 | 00:59:57 | 00:00:00 | |
| DL6DJ-15 | 2026-08-31 23:29:18 | 48.76542 | 10.03526 | 78° | 82km/h | 13072m | 4.1m/s | -54.1°C | 3.1% | 172.4hPa | 2.7V | 00:00:00 | 00:00:00 | 00:00:00 | |
| DO3MHA-11 | 2026-08-31 23:29:17 | 48.76542 | 10.03526 | 79° | 88km/h | 13072m | 4.0m/s | -54.1°C | 6.5% | 172.3hPa | 2.7V | 00:00:00 | 00:59:56 | 00:00:00 | |
| DB0NH | 2026-08-31 23:29:16 | 48.76538 | 10.03495 | 81° | 88km/h | 13068m | 4.4m/s | -54.1°C | 6.4% | 172.5hPa | 2.7V | 00:00:00 | 00:59:55 | 00:00:00 | |
| DO3MHA-12 | 2026-08-31 23:29:13 | 48.76529 | 10.03403 | 84° | 91km/h | 13053m | 4.9m/s | -54.0°C | 6.3% | 172.8hPa | 2.7V | 00:00:00 | 00:59:52 | 00:00:00 | |
| DN1GJH-1 | 2026-08-31 23:29:12 | 48.76529 | 10.03403 | 85° | 82km/h | 13053m | 4.9m/s | -54.1°C | 3.0% | 172.9hPa | 2.8V | 00:00:00 | 00:00:00 | 00:00:00 | |
| DO9HM | 2026-08-31 23:29:10 | 48.76523 | 10.03337 | 82° | 91km/h | 13042m | 6.1m/s | -54.1°C | 2.9% | 173.2hPa | 2.8V | 00:00:00 | 00:00:00 | 00:00:00 | |
| DM0DOS-11 | 2026-08-31 23:29:09 | 48.76500 | 10.03120 | 85° | 91km/h | 13013m | 5.2m/s | -54°C | 5.9% | 174hPa | 2.8V | 08:30:00 | 00:59:44 | 00:00:00 | |
| DK7TD | 2026-08-31 23:29:07 | 48.76506 | 10.03192 | 81° | 99km/h | 13023m | 5.7m/s | -54.1°C | 3% | 173.7hPa | 2.7V | 18:12:15 | 00:59:46 | 00:00:00 | |
| DO3MHA-11 | 2026-08-31 23:29:07 | 48.76506 | 10.03192 | 82° | 86km/h | 13023m | 5.6m/s | -54.0°C | 6.0% | 173.7hPa | 2.8V | 00:00:00 | 00:59:46 | 00:00:00 | |
| DJ8HS-15 | 2026-08-31 23:29:04 | 48.76499 | 10.03086 | 86° | 84km/h | 13008m | 5.8m/s | -54.0°C | 5.9% | 174.1hPa | 2.8V | 00:00:00 | 00:59:43 | 00:00:00 | |
| DO3MHA-12 | 2026-08-31 23:29:03 | 48.76497 | 10.03054 | 86° | 84km/h | 13002m | 5.2m/s | -54.0°C | 5.9% | 174.2hPa | 2.8V | 00:00:00 | 00:59:42 | 00:00:00 | |
| AZAK | 2026-08-31 23:29:02 | 48.76497 | 10.03054 | 87° | 82km/h | 13002m | 5.2m/s | -54.0°C | 2.8% | 174.3hPa | 2.8V | 00:00:00 | 00:00:00 | 00:00:00 | |
| DL1ZP-14 | 2026-08-31 23:29:00 | 48.76493 | 10.02930 | 87° | 80km/h | 12983m | 4.6m/s | -54.1°C | 2.8% | 174.8hPa | 2.8V | 00:00:00 | 00:00:00 | 00:00:00 | |
| DM0DOS-11 | 2026-08-31 23:28:59 | 48.76487 | 10.02801 | 86° | 89km/h | 12965m | 4m/s | -54.2°C | 6% | 175.3hPa | 2.8V | 08:30:00 | 00:59:34 | 00:00:00 | |
| DK7TD | 2026-08-31 23:28:56 | 48.76489 | 10.02835 | 86° | 86km/h | 12970m | 5.1m/s | -54.1°C | 2.9% | 175.1hPa | 2.7V | 18:12:15 | 00:59:35 | 00:00:00 | |
| OE3JTB-15 | 2026-08-31 23:28:56 | 48.76489 | 10.02834 | 86° | 89km/h | 12970m | 5.1m/s | -54.1°C | 6.0% | 175.1hPa | 2.7V | 00:00:00 | 00:59:35 | 00:00:00 | |
| OE5WHR-10 | 2026-08-31 23:28:55 | 48.76487 | 10.02801 | 87° | 93km/h | 12965m | 4.0m/s | 0°C | 0% | 0hPa | 2.7V | 00:00:00 | 00:59:34 | 00:00:00 | |
| DO3MHA-12 | 2026-08-31 23:28:53 | 48.76484 | 10.02733 | 86° | 86km/h | 12957m | 4.7m/s | -54.2°C | 5.9% | 175.5hPa | 2.7V | 00:00:00 | 00:59:32 | 00:00:00 | |
| DN1GJH-1 | 2026-08-31 23:28:52 | 48.76484 | 10.02733 | 86° | 89km/h | 12957m | 4.8m/s | -54.2°C | 2.8% | 175.5hPa | 2.7V | 00:00:00 | 00:00:00 | 00:00:00 | |
| DO9HM | 2026-08-31 23:28:50 | 48.76480 | 10.02665 | 88° | 88km/h | 12949m | 4.8m/s | -54.3°C | 2.7% | 175.8hPa | 2.7V | 00:00:00 | 00:00:00 | 00:00:00 | |
| DM0DOS-11 | 2026-08-31 23:28:49 | 48.76479 | 10.02472 | 90° | 84km/h | 12921m | 4.2m/s | -54.5°C | 6% | 176.5hPa | 2.7V | 08:30:00 | 00:59:24 | 00:00:00 | |
| DK7TD | 2026-08-31 23:28:45 | 48.76479 | 10.02472 | 90° | 84km/h | 12922m | 4.2m/s | -54.5°C | 2.9% | 176.5hPa | 2.7V | 18:12:15 | 00:59:24 | 00:00:00 | |
| DJ8HS-15 | 2026-08-31 23:28:44 | 48.76479 | 10.02439 | 90° | 93km/h | 12917m | 4.6m/s | -54.5°C | 6.1% | 176.6hPa | 2.7V | 00:00:00 | 00:59:23 | 00:00:00 | |
| DO3MHA-12 | 2026-08-31 23:28:43 | 48.76479 | 10.02405 | 89° | 93km/h | 12913m | 4.3m/s | -54.5°C | 6.2% | 176.7hPa | 2.7V | 00:00:00 | 00:59:22 | 00:00:00 | |
| AZAK | 2026-08-31 23:28:42 | 48.76479 | 10.02405 | 89° | 88km/h | 12913m | 4.4m/s | -54.6°C | 2.9% | 176.7hPa | 2.7V | 00:00:00 | 00:00:00 | 00:00:00 | |
| DM0DOS-11 | 2026-08-31 23:28:39 | 48.76472 | 10.02117 | 88° | 95km/h | 12877m | 4m/s | -54.8°C | 6.5% | 177.7hPa | 2.7V | 08:30:00 | 00:59:14 | 00:00:00 | |
| DK7TD | 2026-08-31 23:28:35 | 48.76473 | 10.02117 | 89° | 95km/h | 12877m | 4m/s | -54.8°C | 3.5% | 177.7hPa | 2.7V | 18:12:15 | 00:59:14 | 00:00:00 | |
| DO3MHA-12 | 2026-08-31 23:28:33 | 48.76471 | 10.02046 | 88° | 93km/h | 12868m | 4.5m/s | -54.8°C | 6.5% | 177.9hPa | 2.7V | 00:00:00 | 00:59:12 | 00:00:00 | |
| NBG1-10 | 2026-08-31 23:28:31 | 48.76469 | 10.01977 | 89° | 97km/h | 12860m | 4.6m/s | -54.8°C | 6.6% | 178.1hPa | 2.7V | 00:00:00 | 00:59:10 | 00:00:00 | |
| DO9HM | 2026-08-31 23:28:30 | 48.76469 | 10.01977 | 89° | 91km/h | 12860m | 4.6m/s | -54.9°C | 3.3% | 178.2hPa | 2.7V | 00:00:00 | 00:00:00 | 00:00:00 | |
| DM0DOS-11 | 2026-08-31 23:28:29 | 48.76462 | 10.01762 | 84° | 99km/h | 12834m | 5.1m/s | -55°C | 7.2% | 178.9hPa | 2.7V | 08:30:00 | 00:59:04 | 00:00:00 | |
| DK7TD | 2026-08-31 23:28:24 | 48.76459 | 10.01724 | 83° | 100km/h | 12829m | 4m/s | -55°C | 4.6% | 179hPa | 2.7V | 18:12:15 | 00:59:03 | 00:00:00 | |
| DJ8HS-15 | 2026-08-31 23:28:24 | 48.76459 | 10.01724 | 83° | 99km/h | 12830m | 3.9m/s | -55.0°C | 7.3% | 179.0hPa | 2.7V | 00:00:00 | 00:59:03 | 08:30:00 | |
| DO3MHA-12 | 2026-08-31 23:28:23 | 48.76456 | 10.01686 | 82° | 99km/h | 12825m | 4.8m/s | -55.0°C | 7.4% | 179.1hPa | 2.8V | 00:00:00 | 00:59:02 | 00:00:00 | |
| OE9MKV-15 | 2026-08-31 23:28:22 | 48.76452 | 10.01648 | 81° | 99km/h | 12820m | 4.3m/s | 0°C | 0% | 0hPa | 2.8V | 00:00:00 | 00:59:01 | 00:00:00 | |
| AZAK | 2026-08-31 23:28:21 | 48.76452 | 10.01648 | 81° | 100km/h | 12820m | 4.3m/s | -55.1°C | 3.9% | 179.3hPa | 2.8V | 00:00:00 | 00:00:00 | 00:00:00 | |
| OE5WHR-10 | 2026-08-31 23:28:20 | 48.76443 | 10.01574 | 82° | 100km/h | 12812m | 4.6m/s | 0°C | 0% | 0hPa | 2.8V | 00:00:00 | 00:00:00 | 00:00:00 | |
| DM0DOS-11 | 2026-08-31 23:28:19 | 48.76427 | 10.01389 | 83° | 99km/h | 12789m | 3.9m/s | -55.4°C | 8.5% | 180.2hPa | 2.8V | 08:30:00 | 00:58:54 | 00:00:00 | |
| DO3MHA-11 | 2026-08-31 23:28:17 | 48.76433 | 10.01463 | 82° | 100km/h | 12799m | 4.5m/s | -55.4°C | 8.3% | 179.8hPa | 2.7V | 00:00:00 | 00:58:56 | 00:00:00 | |
| DB0NH | 2026-08-31 23:28:16 | 48.76430 | 10.01427 | 83° | 102km/h | 12794m | 5.1m/s | -55.4°C | 8.4% | 180.0hPa | 2.7V | 00:00:00 | 00:58:55 | 00:00:00 | |
| DL6DJ-15 | 2026-08-31 23:28:15 | 48.76427 | 10.01389 | 83° | 97km/h | 12789m | 3.9m/s | -55.4°C | 4.6% | 180.2hPa | 2.7V | 00:00:00 | 00:00:00 | 00:00:00 | |
| DO3MHA-12 | 2026-08-31 23:28:13 | 48.76420 | 10.01314 | 82° | 100km/h | 12781m | 5.0m/s | -55.4°C | 8.6% | 180.4hPa | 2.7V | 00:00:00 | 00:58:52 | 08:30:00 | |
| DO9HM | 2026-08-31 23:28:11 | 48.76412 | 10.01239 | 81° | 100km/h | 12772m | 4.2m/s | -55.5°C | 4.9% | 180.6hPa | 2.8V | 00:00:00 | 00:00:00 | 00:00:00 | |
| OE5DRO-10 | 2026-08-31 23:28:10 | 48.76408 | 10.01201 | 81° | 102km/h | 12768m | 4.9m/s | 0°C | 0% | 0hPa | 2.8V | 00:00:00 | 00:00:00 | 00:00:00 | |
| DM0DOS-11 | 2026-08-31 23:28:09 | 48.76386 | 10.01012 | 82° | 99km/h | 12746m | 4.7m/s | -55.8°C | 9.7% | 181.3hPa | 2.8V | 08:30:00 | 00:58:44 | 00:00:00 | |
| DK7TD | 2026-08-31 23:28:08 | 48.76399 | 10.01124 | 80° | 100km/h | 12759m | 5.1m/s | -55.7°C | 6.9% | 181hPa | 2.7V | 18:12:15 | 00:58:47 | 00:00:00 | |
| DO3MHA-11 | 2026-08-31 23:28:07 | 48.76394 | 10.01086 | 80° | 97km/h | 12755m | 3.5m/s | -55.8°C | 9.5% | 181.1hPa | 2.7V | 00:00:00 | 00:58:46 | 00:00:00 | |
| DF3TZ-5 | 2026-08-31 23:28:06 | 48.76390 | 10.01049 | 80° | 99km/h | 12751m | 4.2m/s | -55.8°C | 5.5% | 181.2hPa | 2.7V | 00:00:00 | 00:00:00 | 00:00:00 | |
| DM7RM-13 | 2026-08-31 23:28:05 | 48.76390 | 10.01049 | 81° | 99km/h | 12751m | 4.2m/s | -55.8°C | 5.5% | 181.2hPa | 2.7V | 00:00:00 | 00:00:00 | 00:00:00 | |
| DJ8HS-15 | 2026-08-31 23:28:04 | 48.76383 | 10.00974 | 85° | 104km/h | 12742m | 3.3m/s | -55.8°C | 9.8% | 181.4hPa | 2.7V | 00:00:00 | 00:58:43 | 00:00:00 | |
| DO3MHA-12 | 2026-08-31 23:28:03 | 48.76381 | 10.00937 | 85° | 102km/h | 12739m | 3.4m/s | -55.8°C | 9.9% | 181.5hPa | 2.7V | 00:00:00 | 00:58:42 | 00:00:00 | |
| DB0UT-7 | 2026-08-31 23:28:01 | 48.76376 | 10.00864 | 85° | 108km/h | 12730m | 3.7m/s | -55.8°C | 10.2% | 181.8hPa | 2.7V | 00:00:00 | 00:00:00 | 08:30:00 | |
| DM0DOS-11 | 2026-08-31 23:27:59 | 48.76364 | 10.00631 | 84° | 110km/h | 12702m | 4.2m/s | -56°C | 11.9% | 182.6hPa | 2.8V | 08:30:00 | 00:58:34 | 00:00:00 | |
| DK7TD | 2026-08-31 23:27:55 | 48.76364 | 10.00631 | 85° | 110km/h | 12702m | 4.3m/s | -56°C | 9.8% | 182.7hPa | 2.8V | 18:12:15 | 00:58:34 | 00:00:00 | |
| DB0ND-19 | 2026-08-31 23:27:51 | 48.76352 | 10.00424 | 85° | 106km/h | 12680m | 4.1m/s | -56.3°C | 8.3% | 183.2hPa | 2.8V | 00:00:00 | 00:00:00 | 00:00:00 | |
| DL6DJ-15 | 2026-08-31 23:27:44 | 48.76343 | 10.00182 | 83° | 106km/h | 12656m | 3.2m/s | -56.7°C | 9.5% | 183.9hPa | 2.8V | 00:00:00 | 00:00:00 | 00:00:00 | |
| DK7TD | 2026-08-31 23:27:40 | 48.76330 | 10.00014 | 83° | 113km/h | 12640m | 4.4m/s | -56.8°C | 12.7% | 184.4hPa | 2.8V | 18:12:15 | 00:58:19 | 00:00:00 | |
| DK7TD | 2026-08-31 23:27:29 | 48.76303 | 9.99546 | 85° | 106km/h | 12591m | 6m/s | -56.6°C | 13.4% | 185.8hPa | 2.8V | 18:12:15 | 00:58:08 | 00:00:00 | |
| Es werden nur die letzten 3500 von 4070 Frames angezeigt. GPX/KML und Diagramme bleiben verfügbar. | |||||||||||||||